<?xml version="1.0" encoding="UTF-8" standalone="no" ?>
<gpx xmlns="http://www.topografix.com/GPX/1/1" xmlns:xsi="http://www.w3.org/2001/XMLSchema-instance" xsi:schemaLocation="http://www.topografix.com/GPX/1/1 http://www.topografix.com/GPX/1/1/gpx.xsd" version="1.1" creator="VisuGPX - https://www.visugpx.com">
  <metadata>
    <name>semi-marathon de Chablis 1er édition 2019</name>
    <desc><![CDATA[Voici le tracé du semi-marathon de Chablis couru le samedi 26 oct 2019. Il s'agit de la première édition de cette manifestation. Pour voir la vidéo associée à cette course, c'est sur ma chaine youtube: https://www.youtube.com/watch?v=f9GjXs-wZtM
]]></desc>
  </metadata>
  <trk>
    <name><![CDATA[semi-marathon de Chablis 1er édition 2019_1]]></name>
    <trkseg>
      <trkpt lat="47.90984" lon="3.71177">
        <ele>117</ele>
        <time>2019-10-26T09:04:20.000Z</time>
      </trkpt>
      <trkpt lat="47.90984" lon="3.71179">
        <ele>116</ele>
        <time>2019-10-26T09:04:21.000Z</time>
      </trkpt>
      <trkpt lat="47.90984" lon="3.71181">
        <ele>116</ele>
        <time>2019-10-26T09:04:22.000Z</time>
      </trkpt>
      <trkpt lat="47.90984" lon="3.71183">
        <ele>116</ele>
        <time>2019-10-26T09:04:23.000Z</time>
      </trkpt>
      <trkpt lat="47.90983" lon="3.71185">
        <ele>116</ele>
        <time>2019-10-26T09:04:24.000Z</time>
      </trkpt>
      <trkpt lat="47.90983" lon="3.71188">
        <ele>116</ele>
        <time>2019-10-26T09:04:25.000Z</time>
      </trkpt>
      <trkpt lat="47.90983" lon="3.7119">
        <ele>116</ele>
        <time>2019-10-26T09:04:26.000Z</time>
      </trkpt>
      <trkpt lat="47.90983" lon="3.71193">
        <ele>116</ele>
        <time>2019-10-26T09:04:27.000Z</time>
      </trkpt>
      <trkpt lat="47.90983" lon="3.71196">
        <ele>115</ele>
        <time>2019-10-26T09:04:28.000Z</time>
      </trkpt>
      <trkpt lat="47.90983" lon="3.71199">
        <ele>115</ele>
        <time>2019-10-26T09:04:29.000Z</time>
      </trkpt>
      <trkpt lat="47.90983" lon="3.71203">
        <ele>115</ele>
        <time>2019-10-26T09:04:30.000Z</time>
      </trkpt>
      <trkpt lat="47.90983" lon="3.71206">
        <ele>115</ele>
        <time>2019-10-26T09:04:31.000Z</time>
      </trkpt>
      <trkpt lat="47.90983" lon="3.71209">
        <ele>115</ele>
        <time>2019-10-26T09:04:32.000Z</time>
      </trkpt>
      <trkpt lat="47.90982" lon="3.71212">
        <ele>115</ele>
        <time>2019-10-26T09:04:33.000Z</time>
      </trkpt>
      <trkpt lat="47.90982" lon="3.71215">
        <ele>115</ele>
        <time>2019-10-26T09:04:34.000Z</time>
      </trkpt>
      <trkpt lat="47.90982" lon="3.71218">
        <ele>115</ele>
        <time>2019-10-26T09:04:35.000Z</time>
      </trkpt>
      <trkpt lat="47.90981" lon="3.71221">
        <ele>115</ele>
        <time>2019-10-26T09:04:36.000Z</time>
      </trkpt>
      <trkpt lat="47.90981" lon="3.71224">
        <ele>115</ele>
        <time>2019-10-26T09:04:37.000Z</time>
      </trkpt>
      <trkpt lat="47.90981" lon="3.71227">
        <ele>115</ele>
        <time>2019-10-26T09:04:38.000Z</time>
      </trkpt>
      <trkpt lat="47.9098" lon="3.71231">
        <ele>115</ele>
        <time>2019-10-26T09:04:39.000Z</time>
      </trkpt>
      <trkpt lat="47.9098" lon="3.71234">
        <ele>115</ele>
        <time>2019-10-26T09:04:40.000Z</time>
      </trkpt>
      <trkpt lat="47.90979" lon="3.71237">
        <ele>115</ele>
        <time>2019-10-26T09:04:41.000Z</time>
      </trkpt>
      <trkpt lat="47.90979" lon="3.7124">
        <ele>115</ele>
        <time>2019-10-26T09:04:42.000Z</time>
      </trkpt>
      <trkpt lat="47.90979" lon="3.71243">
        <ele>115</ele>
        <time>2019-10-26T09:04:43.000Z</time>
      </trkpt>
      <trkpt lat="47.90979" lon="3.71246">
        <ele>115</ele>
        <time>2019-10-26T09:04:44.000Z</time>
      </trkpt>
      <trkpt lat="47.90978" lon="3.71249">
        <ele>115</ele>
        <time>2019-10-26T09:04:45.000Z</time>
      </trkpt>
      <trkpt lat="47.90978" lon="3.71252">
        <ele>115</ele>
        <time>2019-10-26T09:04:46.000Z</time>
      </trkpt>
      <trkpt lat="47.90978" lon="3.71255">
        <ele>115</ele>
        <time>2019-10-26T09:04:47.000Z</time>
      </trkpt>
      <trkpt lat="47.90977" lon="3.71258">
        <ele>115</ele>
        <time>2019-10-26T09:04:48.000Z</time>
      </trkpt>
      <trkpt lat="47.90977" lon="3.71261">
        <ele>115</ele>
        <time>2019-10-26T09:04:49.000Z</time>
      </trkpt>
      <trkpt lat="47.90977" lon="3.71263">
        <ele>115</ele>
        <time>2019-10-26T09:04:50.000Z</time>
      </trkpt>
      <trkpt lat="47.90976" lon="3.71266">
        <ele>115</ele>
        <time>2019-10-26T09:04:51.000Z</time>
      </trkpt>
      <trkpt lat="47.90974" lon="3.71268">
        <ele>115</ele>
        <time>2019-10-26T09:04:52.000Z</time>
      </trkpt>
      <trkpt lat="47.90973" lon="3.7127">
        <ele>115</ele>
        <time>2019-10-26T09:04:53.000Z</time>
      </trkpt>
      <trkpt lat="47.90971" lon="3.71271">
        <ele>115</ele>
        <time>2019-10-26T09:04:54.000Z</time>
      </trkpt>
      <trkpt lat="47.9097" lon="3.71272">
        <ele>115</ele>
        <time>2019-10-26T09:04:55.000Z</time>
      </trkpt>
      <trkpt lat="47.90968" lon="3.71273">
        <ele>115</ele>
        <time>2019-10-26T09:04:56.000Z</time>
      </trkpt>
      <trkpt lat="47.90967" lon="3.71273">
        <ele>115</ele>
        <time>2019-10-26T09:04:57.000Z</time>
      </trkpt>
      <trkpt lat="47.90966" lon="3.71273">
        <ele>115</ele>
        <time>2019-10-26T09:04:58.000Z</time>
      </trkpt>
      <trkpt lat="47.90965" lon="3.71273">
        <ele>115</ele>
        <time>2019-10-26T09:04:59.000Z</time>
      </trkpt>
      <trkpt lat="47.90964" lon="3.71273">
        <ele>115</ele>
        <time>2019-10-26T09:05:00.000Z</time>
      </trkpt>
      <trkpt lat="47.90963" lon="3.71273">
        <ele>115</ele>
        <time>2019-10-26T09:05:01.000Z</time>
      </trkpt>
      <trkpt lat="47.90961" lon="3.71273">
        <ele>115</ele>
        <time>2019-10-26T09:05:02.000Z</time>
      </trkpt>
      <trkpt lat="47.90959" lon="3.71274">
        <ele>115</ele>
        <time>2019-10-26T09:05:03.000Z</time>
      </trkpt>
      <trkpt lat="47.90958" lon="3.71274">
        <ele>115</ele>
        <time>2019-10-26T09:05:04.000Z</time>
      </trkpt>
      <trkpt lat="47.90956" lon="3.71275">
        <ele>115</ele>
        <time>2019-10-26T09:05:05.000Z</time>
      </trkpt>
      <trkpt lat="47.90954" lon="3.71276">
        <ele>115</ele>
        <time>2019-10-26T09:05:06.000Z</time>
      </trkpt>
      <trkpt lat="47.90952" lon="3.71277">
        <ele>115</ele>
        <time>2019-10-26T09:05:07.000Z</time>
      </trkpt>
      <trkpt lat="47.90951" lon="3.71279">
        <ele>115</ele>
        <time>2019-10-26T09:05:08.000Z</time>
      </trkpt>
      <trkpt lat="47.9095" lon="3.71282">
        <ele>115</ele>
        <time>2019-10-26T09:05:09.000Z</time>
      </trkpt>
      <trkpt lat="47.90949" lon="3.71284">
        <ele>115</ele>
        <time>2019-10-26T09:05:10.000Z</time>
      </trkpt>
      <trkpt lat="47.90948" lon="3.71287">
        <ele>115</ele>
        <time>2019-10-26T09:05:11.000Z</time>
      </trkpt>
      <trkpt lat="47.90948" lon="3.7129">
        <ele>115</ele>
        <time>2019-10-26T09:05:12.000Z</time>
      </trkpt>
      <trkpt lat="47.90947" lon="3.71293">
        <ele>115</ele>
        <time>2019-10-26T09:05:13.000Z</time>
      </trkpt>
      <trkpt lat="47.90946" lon="3.71295">
        <ele>115</ele>
        <time>2019-10-26T09:05:14.000Z</time>
      </trkpt>
      <trkpt lat="47.90946" lon="3.71298">
        <ele>115</ele>
        <time>2019-10-26T09:05:15.000Z</time>
      </trkpt>
      <trkpt lat="47.90945" lon="3.71301">
        <ele>115</ele>
        <time>2019-10-26T09:05:16.000Z</time>
      </trkpt>
      <trkpt lat="47.90945" lon="3.71304">
        <ele>115</ele>
        <time>2019-10-26T09:05:17.000Z</time>
      </trkpt>
      <trkpt lat="47.90944" lon="3.71306">
        <ele>115</ele>
        <time>2019-10-26T09:05:18.000Z</time>
      </trkpt>
      <trkpt lat="47.90944" lon="3.71309">
        <ele>115</ele>
        <time>2019-10-26T09:05:19.000Z</time>
      </trkpt>
      <trkpt lat="47.90944" lon="3.71312">
        <ele>115</ele>
        <time>2019-10-26T09:05:20.000Z</time>
      </trkpt>
      <trkpt lat="47.90943" lon="3.71314">
        <ele>115</ele>
        <time>2019-10-26T09:05:21.000Z</time>
      </trkpt>
      <trkpt lat="47.90943" lon="3.71317">
        <ele>115</ele>
        <time>2019-10-26T09:05:22.000Z</time>
      </trkpt>
      <trkpt lat="47.90942" lon="3.7132">
        <ele>115</ele>
        <time>2019-10-26T09:05:23.000Z</time>
      </trkpt>
      <trkpt lat="47.90941" lon="3.71323">
        <ele>115</ele>
        <time>2019-10-26T09:05:24.000Z</time>
      </trkpt>
      <trkpt lat="47.90941" lon="3.71326">
        <ele>115</ele>
        <time>2019-10-26T09:05:25.000Z</time>
      </trkpt>
      <trkpt lat="47.9094" lon="3.7133">
        <ele>115</ele>
        <time>2019-10-26T09:05:26.000Z</time>
      </trkpt>
      <trkpt lat="47.90939" lon="3.71332">
        <ele>115</ele>
        <time>2019-10-26T09:05:27.000Z</time>
      </trkpt>
      <trkpt lat="47.90939" lon="3.71335">
        <ele>115</ele>
        <time>2019-10-26T09:05:28.000Z</time>
      </trkpt>
      <trkpt lat="47.90938" lon="3.71338">
        <ele>115</ele>
        <time>2019-10-26T09:05:29.000Z</time>
      </trkpt>
      <trkpt lat="47.90938" lon="3.71341">
        <ele>115</ele>
        <time>2019-10-26T09:05:30.000Z</time>
      </trkpt>
      <trkpt lat="47.90938" lon="3.71344">
        <ele>115</ele>
        <time>2019-10-26T09:05:31.000Z</time>
      </trkpt>
      <trkpt lat="47.90937" lon="3.71347">
        <ele>115</ele>
        <time>2019-10-26T09:05:32.000Z</time>
      </trkpt>
      <trkpt lat="47.90937" lon="3.7135">
        <ele>115</ele>
        <time>2019-10-26T09:05:33.000Z</time>
      </trkpt>
      <trkpt lat="47.90936" lon="3.71353">
        <ele>115</ele>
        <time>2019-10-26T09:05:34.000Z</time>
      </trkpt>
      <trkpt lat="47.90936" lon="3.71355">
        <ele>115</ele>
        <time>2019-10-26T09:05:35.000Z</time>
      </trkpt>
      <trkpt lat="47.90935" lon="3.71358">
        <ele>115</ele>
        <time>2019-10-26T09:05:36.000Z</time>
      </trkpt>
      <trkpt lat="47.90934" lon="3.71361">
        <ele>115</ele>
        <time>2019-10-26T09:05:37.000Z</time>
      </trkpt>
      <trkpt lat="47.90933" lon="3.71363">
        <ele>115</ele>
        <time>2019-10-26T09:05:38.000Z</time>
      </trkpt>
      <trkpt lat="47.90933" lon="3.71366">
        <ele>115</ele>
        <time>2019-10-26T09:05:39.000Z</time>
      </trkpt>
      <trkpt lat="47.90932" lon="3.71369">
        <ele>115</ele>
        <time>2019-10-26T09:05:40.000Z</time>
      </trkpt>
      <trkpt lat="47.90932" lon="3.71372">
        <ele>115</ele>
        <time>2019-10-26T09:05:41.000Z</time>
      </trkpt>
      <trkpt lat="47.90931" lon="3.71374">
        <ele>115</ele>
        <time>2019-10-26T09:05:42.000Z</time>
      </trkpt>
      <trkpt lat="47.90931" lon="3.71377">
        <ele>115</ele>
        <time>2019-10-26T09:05:43.000Z</time>
      </trkpt>
      <trkpt lat="47.9093" lon="3.7138">
        <ele>115</ele>
        <time>2019-10-26T09:05:44.000Z</time>
      </trkpt>
      <trkpt lat="47.9093" lon="3.71383">
        <ele>115</ele>
        <time>2019-10-26T09:05:45.000Z</time>
      </trkpt>
      <trkpt lat="47.90929" lon="3.71386">
        <ele>115</ele>
        <time>2019-10-26T09:05:46.000Z</time>
      </trkpt>
      <trkpt lat="47.90928" lon="3.71389">
        <ele>115</ele>
        <time>2019-10-26T09:05:47.000Z</time>
      </trkpt>
      <trkpt lat="47.90928" lon="3.71392">
        <ele>115</ele>
        <time>2019-10-26T09:05:48.000Z</time>
      </trkpt>
      <trkpt lat="47.90927" lon="3.71396">
        <ele>115</ele>
        <time>2019-10-26T09:05:49.000Z</time>
      </trkpt>
      <trkpt lat="47.90927" lon="3.71399">
        <ele>115</ele>
        <time>2019-10-26T09:05:50.000Z</time>
      </trkpt>
      <trkpt lat="47.90926" lon="3.71402">
        <ele>115</ele>
        <time>2019-10-26T09:05:51.000Z</time>
      </trkpt>
      <trkpt lat="47.90925" lon="3.71406">
        <ele>115</ele>
        <time>2019-10-26T09:05:52.000Z</time>
      </trkpt>
      <trkpt lat="47.90924" lon="3.71409">
        <ele>115</ele>
        <time>2019-10-26T09:05:53.000Z</time>
      </trkpt>
      <trkpt lat="47.90924" lon="3.71412">
        <ele>115</ele>
        <time>2019-10-26T09:05:54.000Z</time>
      </trkpt>
      <trkpt lat="47.90923" lon="3.71415">
        <ele>115</ele>
        <time>2019-10-26T09:05:55.000Z</time>
      </trkpt>
      <trkpt lat="47.90922" lon="3.71419">
        <ele>115</ele>
        <time>2019-10-26T09:05:56.000Z</time>
      </trkpt>
      <trkpt lat="47.90921" lon="3.71422">
        <ele>115</ele>
        <time>2019-10-26T09:05:57.000Z</time>
      </trkpt>
      <trkpt lat="47.90921" lon="3.71425">
        <ele>115</ele>
        <time>2019-10-26T09:05:58.000Z</time>
      </trkpt>
      <trkpt lat="47.9092" lon="3.71429">
        <ele>116</ele>
        <time>2019-10-26T09:05:59.000Z</time>
      </trkpt>
      <trkpt lat="47.90919" lon="3.71432">
        <ele>116</ele>
        <time>2019-10-26T09:06:00.000Z</time>
      </trkpt>
      <trkpt lat="47.90918" lon="3.71435">
        <ele>116</ele>
        <time>2019-10-26T09:06:01.000Z</time>
      </trkpt>
      <trkpt lat="47.90918" lon="3.71438">
        <ele>116</ele>
        <time>2019-10-26T09:06:02.000Z</time>
      </trkpt>
      <trkpt lat="47.90917" lon="3.71442">
        <ele>116</ele>
        <time>2019-10-26T09:06:03.000Z</time>
      </trkpt>
      <trkpt lat="47.90916" lon="3.71445">
        <ele>116</ele>
        <time>2019-10-26T09:06:04.000Z</time>
      </trkpt>
      <trkpt lat="47.90916" lon="3.71448">
        <ele>116</ele>
        <time>2019-10-26T09:06:05.000Z</time>
      </trkpt>
      <trkpt lat="47.90915" lon="3.71451">
        <ele>116</ele>
        <time>2019-10-26T09:06:06.000Z</time>
      </trkpt>
      <trkpt lat="47.90914" lon="3.71455">
        <ele>116</ele>
        <time>2019-10-26T09:06:07.000Z</time>
      </trkpt>
      <trkpt lat="47.90914" lon="3.71458">
        <ele>116</ele>
        <time>2019-10-26T09:06:08.000Z</time>
      </trkpt>
      <trkpt lat="47.90913" lon="3.71461">
        <ele>116</ele>
        <time>2019-10-26T09:06:09.000Z</time>
      </trkpt>
      <trkpt lat="47.90912" lon="3.71464">
        <ele>116</ele>
        <time>2019-10-26T09:06:10.000Z</time>
      </trkpt>
      <trkpt lat="47.90912" lon="3.71467">
        <ele>116</ele>
        <time>2019-10-26T09:06:11.000Z</time>
      </trkpt>
      <trkpt lat="47.90911" lon="3.7147">
        <ele>117</ele>
        <time>2019-10-26T09:06:12.000Z</time>
      </trkpt>
      <trkpt lat="47.9091" lon="3.71473">
        <ele>117</ele>
        <time>2019-10-26T09:06:13.000Z</time>
      </trkpt>
      <trkpt lat="47.9091" lon="3.71476">
        <ele>117</ele>
        <time>2019-10-26T09:06:14.000Z</time>
      </trkpt>
      <trkpt lat="47.90909" lon="3.71479">
        <ele>117</ele>
        <time>2019-10-26T09:06:15.000Z</time>
      </trkpt>
      <trkpt lat="47.90908" lon="3.71483">
        <ele>117</ele>
        <time>2019-10-26T09:06:16.000Z</time>
      </trkpt>
      <trkpt lat="47.90908" lon="3.71486">
        <ele>117</ele>
        <time>2019-10-26T09:06:17.000Z</time>
      </trkpt>
      <trkpt lat="47.90907" lon="3.7149">
        <ele>117</ele>
        <time>2019-10-26T09:06:18.000Z</time>
      </trkpt>
      <trkpt lat="47.90906" lon="3.71493">
        <ele>117</ele>
        <time>2019-10-26T09:06:19.000Z</time>
      </trkpt>
      <trkpt lat="47.90905" lon="3.71496">
        <ele>117</ele>
        <time>2019-10-26T09:06:20.000Z</time>
      </trkpt>
      <trkpt lat="47.90904" lon="3.715">
        <ele>117</ele>
        <time>2019-10-26T09:06:21.000Z</time>
      </trkpt>
      <trkpt lat="47.90904" lon="3.71503">
        <ele>117</ele>
        <time>2019-10-26T09:06:22.000Z</time>
      </trkpt>
      <trkpt lat="47.90903" lon="3.71506">
        <ele>117</ele>
        <time>2019-10-26T09:06:23.000Z</time>
      </trkpt>
      <trkpt lat="47.90902" lon="3.7151">
        <ele>117</ele>
        <time>2019-10-26T09:06:24.000Z</time>
      </trkpt>
      <trkpt lat="47.90901" lon="3.71513">
        <ele>117</ele>
        <time>2019-10-26T09:06:25.000Z</time>
      </trkpt>
      <trkpt lat="47.90901" lon="3.71516">
        <ele>117</ele>
        <time>2019-10-26T09:06:26.000Z</time>
      </trkpt>
      <trkpt lat="47.909" lon="3.7152">
        <ele>117</ele>
        <time>2019-10-26T09:06:27.000Z</time>
      </trkpt>
      <trkpt lat="47.90899" lon="3.71523">
        <ele>117</ele>
        <time>2019-10-26T09:06:28.000Z</time>
      </trkpt>
      <trkpt lat="47.90898" lon="3.71526">
        <ele>117</ele>
        <time>2019-10-26T09:06:29.000Z</time>
      </trkpt>
      <trkpt lat="47.90898" lon="3.7153">
        <ele>116</ele>
        <time>2019-10-26T09:06:30.000Z</time>
      </trkpt>
      <trkpt lat="47.90897" lon="3.71533">
        <ele>116</ele>
        <time>2019-10-26T09:06:31.000Z</time>
      </trkpt>
      <trkpt lat="47.90896" lon="3.71536">
        <ele>116</ele>
        <time>2019-10-26T09:06:32.000Z</time>
      </trkpt>
      <trkpt lat="47.90895" lon="3.7154">
        <ele>116</ele>
        <time>2019-10-26T09:06:33.000Z</time>
      </trkpt>
      <trkpt lat="47.90894" lon="3.71543">
        <ele>116</ele>
        <time>2019-10-26T09:06:34.000Z</time>
      </trkpt>
      <trkpt lat="47.90894" lon="3.71546">
        <ele>116</ele>
        <time>2019-10-26T09:06:35.000Z</time>
      </trkpt>
      <trkpt lat="47.90893" lon="3.71549">
        <ele>116</ele>
        <time>2019-10-26T09:06:36.000Z</time>
      </trkpt>
      <trkpt lat="47.90892" lon="3.71552">
        <ele>116</ele>
        <time>2019-10-26T09:06:37.000Z</time>
      </trkpt>
      <trkpt lat="47.90891" lon="3.71555">
        <ele>116</ele>
        <time>2019-10-26T09:06:38.000Z</time>
      </trkpt>
      <trkpt lat="47.9089" lon="3.71559">
        <ele>116</ele>
        <time>2019-10-26T09:06:39.000Z</time>
      </trkpt>
      <trkpt lat="47.9089" lon="3.71562">
        <ele>116</ele>
        <time>2019-10-26T09:06:40.000Z</time>
      </trkpt>
      <trkpt lat="47.90889" lon="3.71565">
        <ele>116</ele>
        <time>2019-10-26T09:06:41.000Z</time>
      </trkpt>
      <trkpt lat="47.90888" lon="3.71569">
        <ele>116</ele>
        <time>2019-10-26T09:06:42.000Z</time>
      </trkpt>
      <trkpt lat="47.90887" lon="3.71572">
        <ele>116</ele>
        <time>2019-10-26T09:06:43.000Z</time>
      </trkpt>
      <trkpt lat="47.90886" lon="3.71575">
        <ele>116</ele>
        <time>2019-10-26T09:06:44.000Z</time>
      </trkpt>
      <trkpt lat="47.90885" lon="3.71579">
        <ele>116</ele>
        <time>2019-10-26T09:06:45.000Z</time>
      </trkpt>
      <trkpt lat="47.90884" lon="3.71582">
        <ele>116</ele>
        <time>2019-10-26T09:06:46.000Z</time>
      </trkpt>
      <trkpt lat="47.90883" lon="3.71585">
        <ele>116</ele>
        <time>2019-10-26T09:06:47.000Z</time>
      </trkpt>
      <trkpt lat="47.90882" lon="3.71588">
        <ele>116</ele>
        <time>2019-10-26T09:06:48.000Z</time>
      </trkpt>
      <trkpt lat="47.90881" lon="3.71592">
        <ele>116</ele>
        <time>2019-10-26T09:06:49.000Z</time>
      </trkpt>
      <trkpt lat="47.9088" lon="3.71595">
        <ele>116</ele>
        <time>2019-10-26T09:06:50.000Z</time>
      </trkpt>
      <trkpt lat="47.90879" lon="3.71598">
        <ele>116</ele>
        <time>2019-10-26T09:06:51.000Z</time>
      </trkpt>
      <trkpt lat="47.90878" lon="3.71601">
        <ele>116</ele>
        <time>2019-10-26T09:06:52.000Z</time>
      </trkpt>
      <trkpt lat="47.90877" lon="3.71604">
        <ele>116</ele>
        <time>2019-10-26T09:06:53.000Z</time>
      </trkpt>
      <trkpt lat="47.90876" lon="3.71607">
        <ele>116</ele>
        <time>2019-10-26T09:06:54.000Z</time>
      </trkpt>
      <trkpt lat="47.90875" lon="3.7161">
        <ele>116</ele>
        <time>2019-10-26T09:06:55.000Z</time>
      </trkpt>
      <trkpt lat="47.90873" lon="3.71613">
        <ele>116</ele>
        <time>2019-10-26T09:06:56.000Z</time>
      </trkpt>
      <trkpt lat="47.90872" lon="3.71616">
        <ele>116</ele>
        <time>2019-10-26T09:06:57.000Z</time>
      </trkpt>
      <trkpt lat="47.90871" lon="3.71619">
        <ele>115</ele>
        <time>2019-10-26T09:06:58.000Z</time>
      </trkpt>
      <trkpt lat="47.9087" lon="3.71622">
        <ele>115</ele>
        <time>2019-10-26T09:06:59.000Z</time>
      </trkpt>
      <trkpt lat="47.90868" lon="3.71625">
        <ele>115</ele>
        <time>2019-10-26T09:07:00.000Z</time>
      </trkpt>
      <trkpt lat="47.90867" lon="3.71628">
        <ele>115</ele>
        <time>2019-10-26T09:07:01.000Z</time>
      </trkpt>
      <trkpt lat="47.90865" lon="3.71631">
        <ele>115</ele>
        <time>2019-10-26T09:07:02.000Z</time>
      </trkpt>
      <trkpt lat="47.90864" lon="3.71634">
        <ele>115</ele>
        <time>2019-10-26T09:07:03.000Z</time>
      </trkpt>
      <trkpt lat="47.90862" lon="3.71637">
        <ele>115</ele>
        <time>2019-10-26T09:07:04.000Z</time>
      </trkpt>
      <trkpt lat="47.90861" lon="3.7164">
        <ele>115</ele>
        <time>2019-10-26T09:07:05.000Z</time>
      </trkpt>
      <trkpt lat="47.9086" lon="3.71643">
        <ele>115</ele>
        <time>2019-10-26T09:07:06.000Z</time>
      </trkpt>
      <trkpt lat="47.90858" lon="3.71646">
        <ele>115</ele>
        <time>2019-10-26T09:07:07.000Z</time>
      </trkpt>
      <trkpt lat="47.90857" lon="3.71649">
        <ele>115</ele>
        <time>2019-10-26T09:07:08.000Z</time>
      </trkpt>
      <trkpt lat="47.90856" lon="3.71652">
        <ele>115</ele>
        <time>2019-10-26T09:07:09.000Z</time>
      </trkpt>
      <trkpt lat="47.90855" lon="3.71655">
        <ele>115</ele>
        <time>2019-10-26T09:07:10.000Z</time>
      </trkpt>
      <trkpt lat="47.90853" lon="3.71658">
        <ele>115</ele>
        <time>2019-10-26T09:07:11.000Z</time>
      </trkpt>
      <trkpt lat="47.90852" lon="3.71661">
        <ele>115</ele>
        <time>2019-10-26T09:07:12.000Z</time>
      </trkpt>
      <trkpt lat="47.9085" lon="3.71664">
        <ele>115</ele>
        <time>2019-10-26T09:07:13.000Z</time>
      </trkpt>
      <trkpt lat="47.90849" lon="3.71666">
        <ele>115</ele>
        <time>2019-10-26T09:07:14.000Z</time>
      </trkpt>
      <trkpt lat="47.90847" lon="3.71669">
        <ele>116</ele>
        <time>2019-10-26T09:07:15.000Z</time>
      </trkpt>
      <trkpt lat="47.90845" lon="3.71671">
        <ele>116</ele>
        <time>2019-10-26T09:07:16.000Z</time>
      </trkpt>
      <trkpt lat="47.90843" lon="3.71672">
        <ele>116</ele>
        <time>2019-10-26T09:07:17.000Z</time>
      </trkpt>
      <trkpt lat="47.90841" lon="3.71673">
        <ele>116</ele>
        <time>2019-10-26T09:07:18.000Z</time>
      </trkpt>
      <trkpt lat="47.90839" lon="3.71673">
        <ele>116</ele>
        <time>2019-10-26T09:07:19.000Z</time>
      </trkpt>
      <trkpt lat="47.90837" lon="3.71673">
        <ele>116</ele>
        <time>2019-10-26T09:07:20.000Z</time>
      </trkpt>
      <trkpt lat="47.90835" lon="3.71673">
        <ele>116</ele>
        <time>2019-10-26T09:07:21.000Z</time>
      </trkpt>
      <trkpt lat="47.90833" lon="3.71671">
        <ele>116</ele>
        <time>2019-10-26T09:07:22.000Z</time>
      </trkpt>
      <trkpt lat="47.90831" lon="3.7167">
        <ele>116</ele>
        <time>2019-10-26T09:07:23.000Z</time>
      </trkpt>
      <trkpt lat="47.90828" lon="3.71668">
        <ele>116</ele>
        <time>2019-10-26T09:07:24.000Z</time>
      </trkpt>
      <trkpt lat="47.90826" lon="3.71666">
        <ele>115</ele>
        <time>2019-10-26T09:07:25.000Z</time>
      </trkpt>
      <trkpt lat="47.90824" lon="3.71664">
        <ele>115</ele>
        <time>2019-10-26T09:07:26.000Z</time>
      </trkpt>
      <trkpt lat="47.90822" lon="3.71662">
        <ele>115</ele>
        <time>2019-10-26T09:07:27.000Z</time>
      </trkpt>
      <trkpt lat="47.9082" lon="3.71661">
        <ele>115</ele>
        <time>2019-10-26T09:07:28.000Z</time>
      </trkpt>
      <trkpt lat="47.90818" lon="3.71659">
        <ele>115</ele>
        <time>2019-10-26T09:07:29.000Z</time>
      </trkpt>
      <trkpt lat="47.90816" lon="3.71656">
        <ele>115</ele>
        <time>2019-10-26T09:07:30.000Z</time>
      </trkpt>
      <trkpt lat="47.90815" lon="3.71654">
        <ele>115</ele>
        <time>2019-10-26T09:07:31.000Z</time>
      </trkpt>
      <trkpt lat="47.90813" lon="3.71652">
        <ele>115</ele>
        <time>2019-10-26T09:07:32.000Z</time>
      </trkpt>
      <trkpt lat="47.90811" lon="3.71649">
        <ele>115</ele>
        <time>2019-10-26T09:07:33.000Z</time>
      </trkpt>
      <trkpt lat="47.90809" lon="3.71647">
        <ele>115</ele>
        <time>2019-10-26T09:07:34.000Z</time>
      </trkpt>
      <trkpt lat="47.90807" lon="3.71645">
        <ele>115</ele>
        <time>2019-10-26T09:07:35.000Z</time>
      </trkpt>
      <trkpt lat="47.90805" lon="3.71643">
        <ele>115</ele>
        <time>2019-10-26T09:07:36.000Z</time>
      </trkpt>
      <trkpt lat="47.90803" lon="3.71641">
        <ele>115</ele>
        <time>2019-10-26T09:07:37.000Z</time>
      </trkpt>
      <trkpt lat="47.90801" lon="3.71639">
        <ele>115</ele>
        <time>2019-10-26T09:07:38.000Z</time>
      </trkpt>
      <trkpt lat="47.90799" lon="3.71637">
        <ele>115</ele>
        <time>2019-10-26T09:07:39.000Z</time>
      </trkpt>
      <trkpt lat="47.90797" lon="3.71635">
        <ele>115</ele>
        <time>2019-10-26T09:07:40.000Z</time>
      </trkpt>
      <trkpt lat="47.90795" lon="3.71633">
        <ele>116</ele>
        <time>2019-10-26T09:07:41.000Z</time>
      </trkpt>
      <trkpt lat="47.90793" lon="3.71631">
        <ele>116</ele>
        <time>2019-10-26T09:07:42.000Z</time>
      </trkpt>
      <trkpt lat="47.90791" lon="3.71629">
        <ele>116</ele>
        <time>2019-10-26T09:07:43.000Z</time>
      </trkpt>
      <trkpt lat="47.90789" lon="3.71627">
        <ele>116</ele>
        <time>2019-10-26T09:07:44.000Z</time>
      </trkpt>
      <trkpt lat="47.90787" lon="3.71626">
        <ele>116</ele>
        <time>2019-10-26T09:07:45.000Z</time>
      </trkpt>
      <trkpt lat="47.90786" lon="3.71624">
        <ele>116</ele>
        <time>2019-10-26T09:07:46.000Z</time>
      </trkpt>
      <trkpt lat="47.90784" lon="3.71622">
        <ele>116</ele>
        <time>2019-10-26T09:07:47.000Z</time>
      </trkpt>
      <trkpt lat="47.90782" lon="3.7162">
        <ele>116</ele>
        <time>2019-10-26T09:07:48.000Z</time>
      </trkpt>
      <trkpt lat="47.9078" lon="3.71618">
        <ele>116</ele>
        <time>2019-10-26T09:07:49.000Z</time>
      </trkpt>
      <trkpt lat="47.90779" lon="3.71616">
        <ele>116</ele>
        <time>2019-10-26T09:07:50.000Z</time>
      </trkpt>
      <trkpt lat="47.90777" lon="3.71614">
        <ele>116</ele>
        <time>2019-10-26T09:07:51.000Z</time>
      </trkpt>
      <trkpt lat="47.90775" lon="3.71612">
        <ele>117</ele>
        <time>2019-10-26T09:07:52.000Z</time>
      </trkpt>
      <trkpt lat="47.90773" lon="3.7161">
        <ele>117</ele>
        <time>2019-10-26T09:07:53.000Z</time>
      </trkpt>
      <trkpt lat="47.90772" lon="3.71609">
        <ele>117</ele>
        <time>2019-10-26T09:07:54.000Z</time>
      </trkpt>
      <trkpt lat="47.9077" lon="3.71607">
        <ele>117</ele>
        <time>2019-10-26T09:07:55.000Z</time>
      </trkpt>
      <trkpt lat="47.90768" lon="3.71605">
        <ele>117</ele>
        <time>2019-10-26T09:07:56.000Z</time>
      </trkpt>
      <trkpt lat="47.90766" lon="3.71603">
        <ele>117</ele>
        <time>2019-10-26T09:07:57.000Z</time>
      </trkpt>
      <trkpt lat="47.90764" lon="3.71602">
        <ele>117</ele>
        <time>2019-10-26T09:07:58.000Z</time>
      </trkpt>
      <trkpt lat="47.90762" lon="3.716">
        <ele>117</ele>
        <time>2019-10-26T09:07:59.000Z</time>
      </trkpt>
      <trkpt lat="47.9076" lon="3.71598">
        <ele>117</ele>
        <time>2019-10-26T09:08:00.000Z</time>
      </trkpt>
      <trkpt lat="47.90759" lon="3.71596">
        <ele>117</ele>
        <time>2019-10-26T09:08:01.000Z</time>
      </trkpt>
      <trkpt lat="47.90757" lon="3.71594">
        <ele>118</ele>
        <time>2019-10-26T09:08:02.000Z</time>
      </trkpt>
      <trkpt lat="47.90755" lon="3.71593">
        <ele>118</ele>
        <time>2019-10-26T09:08:03.000Z</time>
      </trkpt>
      <trkpt lat="47.90753" lon="3.71591">
        <ele>118</ele>
        <time>2019-10-26T09:08:04.000Z</time>
      </trkpt>
      <trkpt lat="47.90751" lon="3.71589">
        <ele>118</ele>
        <time>2019-10-26T09:08:05.000Z</time>
      </trkpt>
      <trkpt lat="47.9075" lon="3.71587">
        <ele>118</ele>
        <time>2019-10-26T09:08:06.000Z</time>
      </trkpt>
      <trkpt lat="47.90748" lon="3.71585">
        <ele>118</ele>
        <time>2019-10-26T09:08:07.000Z</time>
      </trkpt>
      <trkpt lat="47.90746" lon="3.71584">
        <ele>118</ele>
        <time>2019-10-26T09:08:08.000Z</time>
      </trkpt>
      <trkpt lat="47.90744" lon="3.71582">
        <ele>118</ele>
        <time>2019-10-26T09:08:09.000Z</time>
      </trkpt>
      <trkpt lat="47.90742" lon="3.71581">
        <ele>118</ele>
        <time>2019-10-26T09:08:10.000Z</time>
      </trkpt>
      <trkpt lat="47.90741" lon="3.71579">
        <ele>119</ele>
        <time>2019-10-26T09:08:11.000Z</time>
      </trkpt>
      <trkpt lat="47.90739" lon="3.71577">
        <ele>119</ele>
        <time>2019-10-26T09:08:12.000Z</time>
      </trkpt>
      <trkpt lat="47.90737" lon="3.71576">
        <ele>119</ele>
        <time>2019-10-26T09:08:13.000Z</time>
      </trkpt>
      <trkpt lat="47.90735" lon="3.71574">
        <ele>119</ele>
        <time>2019-10-26T09:08:14.000Z</time>
      </trkpt>
      <trkpt lat="47.90733" lon="3.71572">
        <ele>119</ele>
        <time>2019-10-26T09:08:15.000Z</time>
      </trkpt>
      <trkpt lat="47.90732" lon="3.71571">
        <ele>119</ele>
        <time>2019-10-26T09:08:16.000Z</time>
      </trkpt>
      <trkpt lat="47.9073" lon="3.71569">
        <ele>119</ele>
        <time>2019-10-26T09:08:17.000Z</time>
      </trkpt>
      <trkpt lat="47.90728" lon="3.71567">
        <ele>119</ele>
        <time>2019-10-26T09:08:18.000Z</time>
      </trkpt>
      <trkpt lat="47.90727" lon="3.71566">
        <ele>119</ele>
        <time>2019-10-26T09:08:19.000Z</time>
      </trkpt>
      <trkpt lat="47.90725" lon="3.71564">
        <ele>119</ele>
        <time>2019-10-26T09:08:20.000Z</time>
      </trkpt>
      <trkpt lat="47.90723" lon="3.71562">
        <ele>119</ele>
        <time>2019-10-26T09:08:21.000Z</time>
      </trkpt>
      <trkpt lat="47.90721" lon="3.71561">
        <ele>119</ele>
        <time>2019-10-26T09:08:22.000Z</time>
      </trkpt>
      <trkpt lat="47.9072" lon="3.71559">
        <ele>119</ele>
        <time>2019-10-26T09:08:23.000Z</time>
      </trkpt>
      <trkpt lat="47.90718" lon="3.71558">
        <ele>120</ele>
        <time>2019-10-26T09:08:24.000Z</time>
      </trkpt>
      <trkpt lat="47.90716" lon="3.71556">
        <ele>120</ele>
        <time>2019-10-26T09:08:25.000Z</time>
      </trkpt>
      <trkpt lat="47.90714" lon="3.71554">
        <ele>120</ele>
        <time>2019-10-26T09:08:26.000Z</time>
      </trkpt>
      <trkpt lat="47.90712" lon="3.71552">
        <ele>120</ele>
        <time>2019-10-26T09:08:27.000Z</time>
      </trkpt>
      <trkpt lat="47.90711" lon="3.71551">
        <ele>120</ele>
        <time>2019-10-26T09:08:28.000Z</time>
      </trkpt>
      <trkpt lat="47.90709" lon="3.71549">
        <ele>120</ele>
        <time>2019-10-26T09:08:29.000Z</time>
      </trkpt>
      <trkpt lat="47.90707" lon="3.71547">
        <ele>120</ele>
        <time>2019-10-26T09:08:30.000Z</time>
      </trkpt>
      <trkpt lat="47.90706" lon="3.71546">
        <ele>120</ele>
        <time>2019-10-26T09:08:31.000Z</time>
      </trkpt>
      <trkpt lat="47.90704" lon="3.71544">
        <ele>120</ele>
        <time>2019-10-26T09:08:32.000Z</time>
      </trkpt>
      <trkpt lat="47.90702" lon="3.71542">
        <ele>120</ele>
        <time>2019-10-26T09:08:33.000Z</time>
      </trkpt>
      <trkpt lat="47.907" lon="3.7154">
        <ele>119</ele>
        <time>2019-10-26T09:08:34.000Z</time>
      </trkpt>
      <trkpt lat="47.90698" lon="3.71539">
        <ele>119</ele>
        <time>2019-10-26T09:08:35.000Z</time>
      </trkpt>
      <trkpt lat="47.90697" lon="3.71537">
        <ele>119</ele>
        <time>2019-10-26T09:08:36.000Z</time>
      </trkpt>
      <trkpt lat="47.90695" lon="3.71535">
        <ele>119</ele>
        <time>2019-10-26T09:08:37.000Z</time>
      </trkpt>
      <trkpt lat="47.90693" lon="3.71533">
        <ele>119</ele>
        <time>2019-10-26T09:08:38.000Z</time>
      </trkpt>
      <trkpt lat="47.90692" lon="3.71531">
        <ele>119</ele>
        <time>2019-10-26T09:08:39.000Z</time>
      </trkpt>
      <trkpt lat="47.9069" lon="3.71529">
        <ele>119</ele>
        <time>2019-10-26T09:08:40.000Z</time>
      </trkpt>
      <trkpt lat="47.90688" lon="3.71528">
        <ele>119</ele>
        <time>2019-10-26T09:08:41.000Z</time>
      </trkpt>
      <trkpt lat="47.90686" lon="3.71526">
        <ele>119</ele>
        <time>2019-10-26T09:08:42.000Z</time>
      </trkpt>
      <trkpt lat="47.90685" lon="3.71524">
        <ele>119</ele>
        <time>2019-10-26T09:08:43.000Z</time>
      </trkpt>
      <trkpt lat="47.90683" lon="3.71522">
        <ele>119</ele>
        <time>2019-10-26T09:08:44.000Z</time>
      </trkpt>
      <trkpt lat="47.90681" lon="3.71521">
        <ele>119</ele>
        <time>2019-10-26T09:08:45.000Z</time>
      </trkpt>
      <trkpt lat="47.90679" lon="3.71519">
        <ele>119</ele>
        <time>2019-10-26T09:08:46.000Z</time>
      </trkpt>
      <trkpt lat="47.90678" lon="3.71517">
        <ele>120</ele>
        <time>2019-10-26T09:08:47.000Z</time>
      </trkpt>
      <trkpt lat="47.90676" lon="3.71515">
        <ele>120</ele>
        <time>2019-10-26T09:08:48.000Z</time>
      </trkpt>
      <trkpt lat="47.90674" lon="3.71513">
        <ele>120</ele>
        <time>2019-10-26T09:08:49.000Z</time>
      </trkpt>
      <trkpt lat="47.90672" lon="3.71512">
        <ele>120</ele>
        <time>2019-10-26T09:08:50.000Z</time>
      </trkpt>
      <trkpt lat="47.90671" lon="3.7151">
        <ele>120</ele>
        <time>2019-10-26T09:08:51.000Z</time>
      </trkpt>
      <trkpt lat="47.90669" lon="3.71508">
        <ele>120</ele>
        <time>2019-10-26T09:08:52.000Z</time>
      </trkpt>
      <trkpt lat="47.90667" lon="3.71506">
        <ele>120</ele>
        <time>2019-10-26T09:08:53.000Z</time>
      </trkpt>
      <trkpt lat="47.90665" lon="3.71505">
        <ele>120</ele>
        <time>2019-10-26T09:08:54.000Z</time>
      </trkpt>
      <trkpt lat="47.90664" lon="3.71503">
        <ele>120</ele>
        <time>2019-10-26T09:08:55.000Z</time>
      </trkpt>
      <trkpt lat="47.90662" lon="3.71501">
        <ele>120</ele>
        <time>2019-10-26T09:08:56.000Z</time>
      </trkpt>
      <trkpt lat="47.9066" lon="3.715">
        <ele>120</ele>
        <time>2019-10-26T09:08:57.000Z</time>
      </trkpt>
      <trkpt lat="47.90658" lon="3.71498">
        <ele>120</ele>
        <time>2019-10-26T09:08:58.000Z</time>
      </trkpt>
      <trkpt lat="47.90656" lon="3.71497">
        <ele>120</ele>
        <time>2019-10-26T09:08:59.000Z</time>
      </trkpt>
      <trkpt lat="47.90654" lon="3.71496">
        <ele>120</ele>
        <time>2019-10-26T09:09:00.000Z</time>
      </trkpt>
      <trkpt lat="47.90652" lon="3.71494">
        <ele>120</ele>
        <time>2019-10-26T09:09:01.000Z</time>
      </trkpt>
      <trkpt lat="47.9065" lon="3.71493">
        <ele>120</ele>
        <time>2019-10-26T09:09:02.000Z</time>
      </trkpt>
      <trkpt lat="47.90649" lon="3.71492">
        <ele>120</ele>
        <time>2019-10-26T09:09:03.000Z</time>
      </trkpt>
      <trkpt lat="47.90647" lon="3.7149">
        <ele>120</ele>
        <time>2019-10-26T09:09:04.000Z</time>
      </trkpt>
      <trkpt lat="47.90645" lon="3.71489">
        <ele>120</ele>
        <time>2019-10-26T09:09:05.000Z</time>
      </trkpt>
      <trkpt lat="47.90643" lon="3.71487">
        <ele>120</ele>
        <time>2019-10-26T09:09:06.000Z</time>
      </trkpt>
      <trkpt lat="47.90641" lon="3.71486">
        <ele>120</ele>
        <time>2019-10-26T09:09:07.000Z</time>
      </trkpt>
      <trkpt lat="47.90639" lon="3.71484">
        <ele>120</ele>
        <time>2019-10-26T09:09:08.000Z</time>
      </trkpt>
      <trkpt lat="47.90637" lon="3.71482">
        <ele>120</ele>
        <time>2019-10-26T09:09:09.000Z</time>
      </trkpt>
      <trkpt lat="47.90635" lon="3.71481">
        <ele>120</ele>
        <time>2019-10-26T09:09:10.000Z</time>
      </trkpt>
      <trkpt lat="47.90633" lon="3.71479">
        <ele>121</ele>
        <time>2019-10-26T09:09:11.000Z</time>
      </trkpt>
      <trkpt lat="47.90631" lon="3.71478">
        <ele>121</ele>
        <time>2019-10-26T09:09:12.000Z</time>
      </trkpt>
      <trkpt lat="47.9063" lon="3.71476">
        <ele>121</ele>
        <time>2019-10-26T09:09:13.000Z</time>
      </trkpt>
      <trkpt lat="47.90628" lon="3.71475">
        <ele>121</ele>
        <time>2019-10-26T09:09:14.000Z</time>
      </trkpt>
      <trkpt lat="47.90626" lon="3.71473">
        <ele>121</ele>
        <time>2019-10-26T09:09:15.000Z</time>
      </trkpt>
      <trkpt lat="47.90624" lon="3.71471">
        <ele>121</ele>
        <time>2019-10-26T09:09:16.000Z</time>
      </trkpt>
      <trkpt lat="47.90622" lon="3.71469">
        <ele>122</ele>
        <time>2019-10-26T09:09:17.000Z</time>
      </trkpt>
      <trkpt lat="47.9062" lon="3.71468">
        <ele>122</ele>
        <time>2019-10-26T09:09:18.000Z</time>
      </trkpt>
      <trkpt lat="47.90618" lon="3.71466">
        <ele>122</ele>
        <time>2019-10-26T09:09:19.000Z</time>
      </trkpt>
      <trkpt lat="47.90616" lon="3.71464">
        <ele>122</ele>
        <time>2019-10-26T09:09:20.000Z</time>
      </trkpt>
      <trkpt lat="47.90614" lon="3.71462">
        <ele>122</ele>
        <time>2019-10-26T09:09:21.000Z</time>
      </trkpt>
      <trkpt lat="47.90613" lon="3.71461">
        <ele>122</ele>
        <time>2019-10-26T09:09:22.000Z</time>
      </trkpt>
      <trkpt lat="47.90611" lon="3.71459">
        <ele>123</ele>
        <time>2019-10-26T09:09:23.000Z</time>
      </trkpt>
      <trkpt lat="47.90609" lon="3.71457">
        <ele>123</ele>
        <time>2019-10-26T09:09:24.000Z</time>
      </trkpt>
      <trkpt lat="47.90607" lon="3.71455">
        <ele>123</ele>
        <time>2019-10-26T09:09:25.000Z</time>
      </trkpt>
      <trkpt lat="47.90605" lon="3.71453">
        <ele>123</ele>
        <time>2019-10-26T09:09:26.000Z</time>
      </trkpt>
      <trkpt lat="47.90603" lon="3.71452">
        <ele>123</ele>
        <time>2019-10-26T09:09:27.000Z</time>
      </trkpt>
      <trkpt lat="47.90601" lon="3.7145">
        <ele>123</ele>
        <time>2019-10-26T09:09:28.000Z</time>
      </trkpt>
      <trkpt lat="47.90599" lon="3.71448">
        <ele>123</ele>
        <time>2019-10-26T09:09:29.000Z</time>
      </trkpt>
      <trkpt lat="47.90597" lon="3.71446">
        <ele>123</ele>
        <time>2019-10-26T09:09:30.000Z</time>
      </trkpt>
      <trkpt lat="47.90595" lon="3.71444">
        <ele>123</ele>
        <time>2019-10-26T09:09:31.000Z</time>
      </trkpt>
      <trkpt lat="47.90593" lon="3.71442">
        <ele>123</ele>
        <time>2019-10-26T09:09:32.000Z</time>
      </trkpt>
      <trkpt lat="47.90591" lon="3.7144">
        <ele>123</ele>
        <time>2019-10-26T09:09:33.000Z</time>
      </trkpt>
      <trkpt lat="47.90589" lon="3.71438">
        <ele>123</ele>
        <time>2019-10-26T09:09:34.000Z</time>
      </trkpt>
      <trkpt lat="47.90587" lon="3.71436">
        <ele>123</ele>
        <time>2019-10-26T09:09:35.000Z</time>
      </trkpt>
      <trkpt lat="47.90585" lon="3.71434">
        <ele>123</ele>
        <time>2019-10-26T09:09:36.000Z</time>
      </trkpt>
      <trkpt lat="47.90583" lon="3.71433">
        <ele>123</ele>
        <time>2019-10-26T09:09:37.000Z</time>
      </trkpt>
      <trkpt lat="47.90581" lon="3.71431">
        <ele>123</ele>
        <time>2019-10-26T09:09:38.000Z</time>
      </trkpt>
      <trkpt lat="47.90579" lon="3.71431">
        <ele>123</ele>
        <time>2019-10-26T09:09:39.000Z</time>
      </trkpt>
      <trkpt lat="47.90577" lon="3.7143">
        <ele>123</ele>
        <time>2019-10-26T09:09:40.000Z</time>
      </trkpt>
      <trkpt lat="47.90575" lon="3.7143">
        <ele>123</ele>
        <time>2019-10-26T09:09:41.000Z</time>
      </trkpt>
      <trkpt lat="47.90573" lon="3.71431">
        <ele>123</ele>
        <time>2019-10-26T09:09:42.000Z</time>
      </trkpt>
      <trkpt lat="47.90571" lon="3.71432">
        <ele>123</ele>
        <time>2019-10-26T09:09:43.000Z</time>
      </trkpt>
      <trkpt lat="47.90569" lon="3.71434">
        <ele>123</ele>
        <time>2019-10-26T09:09:44.000Z</time>
      </trkpt>
      <trkpt lat="47.90567" lon="3.71435">
        <ele>123</ele>
        <time>2019-10-26T09:09:45.000Z</time>
      </trkpt>
      <trkpt lat="47.90566" lon="3.71437">
        <ele>123</ele>
        <time>2019-10-26T09:09:46.000Z</time>
      </trkpt>
      <trkpt lat="47.90564" lon="3.71439">
        <ele>123</ele>
        <time>2019-10-26T09:09:47.000Z</time>
      </trkpt>
      <trkpt lat="47.90562" lon="3.71441">
        <ele>123</ele>
        <time>2019-10-26T09:09:48.000Z</time>
      </trkpt>
      <trkpt lat="47.9056" lon="3.71443">
        <ele>123</ele>
        <time>2019-10-26T09:09:49.000Z</time>
      </trkpt>
      <trkpt lat="47.90559" lon="3.71445">
        <ele>123</ele>
        <time>2019-10-26T09:09:50.000Z</time>
      </trkpt>
      <trkpt lat="47.90557" lon="3.71447">
        <ele>123</ele>
        <time>2019-10-26T09:09:51.000Z</time>
      </trkpt>
      <trkpt lat="47.90555" lon="3.71449">
        <ele>123</ele>
        <time>2019-10-26T09:09:52.000Z</time>
      </trkpt>
      <trkpt lat="47.90554" lon="3.71451">
        <ele>123</ele>
        <time>2019-10-26T09:09:53.000Z</time>
      </trkpt>
      <trkpt lat="47.90552" lon="3.71452">
        <ele>123</ele>
        <time>2019-10-26T09:09:54.000Z</time>
      </trkpt>
      <trkpt lat="47.9055" lon="3.71454">
        <ele>123</ele>
        <time>2019-10-26T09:09:55.000Z</time>
      </trkpt>
      <trkpt lat="47.90548" lon="3.71456">
        <ele>123</ele>
        <time>2019-10-26T09:09:56.000Z</time>
      </trkpt>
      <trkpt lat="47.90546" lon="3.71458">
        <ele>123</ele>
        <time>2019-10-26T09:09:57.000Z</time>
      </trkpt>
      <trkpt lat="47.90545" lon="3.7146">
        <ele>123</ele>
        <time>2019-10-26T09:09:58.000Z</time>
      </trkpt>
      <trkpt lat="47.90543" lon="3.71463">
        <ele>123</ele>
        <time>2019-10-26T09:09:59.000Z</time>
      </trkpt>
      <trkpt lat="47.90541" lon="3.71465">
        <ele>123</ele>
        <time>2019-10-26T09:10:00.000Z</time>
      </trkpt>
      <trkpt lat="47.9054" lon="3.71467">
        <ele>123</ele>
        <time>2019-10-26T09:10:01.000Z</time>
      </trkpt>
      <trkpt lat="47.90538" lon="3.7147">
        <ele>123</ele>
        <time>2019-10-26T09:10:02.000Z</time>
      </trkpt>
      <trkpt lat="47.90536" lon="3.71472">
        <ele>123</ele>
        <time>2019-10-26T09:10:03.000Z</time>
      </trkpt>
      <trkpt lat="47.90535" lon="3.71474">
        <ele>123</ele>
        <time>2019-10-26T09:10:04.000Z</time>
      </trkpt>
      <trkpt lat="47.90533" lon="3.71476">
        <ele>123</ele>
        <time>2019-10-26T09:10:05.000Z</time>
      </trkpt>
      <trkpt lat="47.90531" lon="3.71478">
        <ele>123</ele>
        <time>2019-10-26T09:10:06.000Z</time>
      </trkpt>
      <trkpt lat="47.9053" lon="3.71481">
        <ele>122</ele>
        <time>2019-10-26T09:10:07.000Z</time>
      </trkpt>
      <trkpt lat="47.90528" lon="3.71483">
        <ele>122</ele>
        <time>2019-10-26T09:10:08.000Z</time>
      </trkpt>
      <trkpt lat="47.90526" lon="3.71485">
        <ele>122</ele>
        <time>2019-10-26T09:10:09.000Z</time>
      </trkpt>
      <trkpt lat="47.90524" lon="3.71487">
        <ele>122</ele>
        <time>2019-10-26T09:10:10.000Z</time>
      </trkpt>
      <trkpt lat="47.90523" lon="3.71489">
        <ele>122</ele>
        <time>2019-10-26T09:10:11.000Z</time>
      </trkpt>
      <trkpt lat="47.90521" lon="3.71492">
        <ele>122</ele>
        <time>2019-10-26T09:10:12.000Z</time>
      </trkpt>
      <trkpt lat="47.9052" lon="3.71494">
        <ele>122</ele>
        <time>2019-10-26T09:10:13.000Z</time>
      </trkpt>
      <trkpt lat="47.90518" lon="3.71496">
        <ele>122</ele>
        <time>2019-10-26T09:10:14.000Z</time>
      </trkpt>
      <trkpt lat="47.90516" lon="3.71498">
        <ele>122</ele>
        <time>2019-10-26T09:10:15.000Z</time>
      </trkpt>
      <trkpt lat="47.90514" lon="3.715">
        <ele>122</ele>
        <time>2019-10-26T09:10:16.000Z</time>
      </trkpt>
      <trkpt lat="47.90513" lon="3.71502">
        <ele>122</ele>
        <time>2019-10-26T09:10:17.000Z</time>
      </trkpt>
      <trkpt lat="47.90511" lon="3.71504">
        <ele>122</ele>
        <time>2019-10-26T09:10:18.000Z</time>
      </trkpt>
      <trkpt lat="47.90509" lon="3.71506">
        <ele>122</ele>
        <time>2019-10-26T09:10:19.000Z</time>
      </trkpt>
      <trkpt lat="47.90508" lon="3.71508">
        <ele>122</ele>
        <time>2019-10-26T09:10:20.000Z</time>
      </trkpt>
      <trkpt lat="47.90506" lon="3.7151">
        <ele>122</ele>
        <time>2019-10-26T09:10:21.000Z</time>
      </trkpt>
      <trkpt lat="47.90504" lon="3.71512">
        <ele>122</ele>
        <time>2019-10-26T09:10:22.000Z</time>
      </trkpt>
      <trkpt lat="47.90502" lon="3.71514">
        <ele>122</ele>
        <time>2019-10-26T09:10:23.000Z</time>
      </trkpt>
      <trkpt lat="47.905" lon="3.71516">
        <ele>122</ele>
        <time>2019-10-26T09:10:24.000Z</time>
      </trkpt>
      <trkpt lat="47.90499" lon="3.71518">
        <ele>122</ele>
        <time>2019-10-26T09:10:25.000Z</time>
      </trkpt>
      <trkpt lat="47.90497" lon="3.7152">
        <ele>122</ele>
        <time>2019-10-26T09:10:26.000Z</time>
      </trkpt>
      <trkpt lat="47.90495" lon="3.71522">
        <ele>122</ele>
        <time>2019-10-26T09:10:27.000Z</time>
      </trkpt>
      <trkpt lat="47.90493" lon="3.71524">
        <ele>122</ele>
        <time>2019-10-26T09:10:28.000Z</time>
      </trkpt>
      <trkpt lat="47.90492" lon="3.71525">
        <ele>122</ele>
        <time>2019-10-26T09:10:29.000Z</time>
      </trkpt>
      <trkpt lat="47.9049" lon="3.71527">
        <ele>122</ele>
        <time>2019-10-26T09:10:30.000Z</time>
      </trkpt>
      <trkpt lat="47.90488" lon="3.71529">
        <ele>122</ele>
        <time>2019-10-26T09:10:31.000Z</time>
      </trkpt>
      <trkpt lat="47.90486" lon="3.71531">
        <ele>122</ele>
        <time>2019-10-26T09:10:32.000Z</time>
      </trkpt>
      <trkpt lat="47.90485" lon="3.71533">
        <ele>122</ele>
        <time>2019-10-26T09:10:33.000Z</time>
      </trkpt>
      <trkpt lat="47.90483" lon="3.71535">
        <ele>122</ele>
        <time>2019-10-26T09:10:34.000Z</time>
      </trkpt>
      <trkpt lat="47.90481" lon="3.71536">
        <ele>122</ele>
        <time>2019-10-26T09:10:35.000Z</time>
      </trkpt>
      <trkpt lat="47.9048" lon="3.71538">
        <ele>122</ele>
        <time>2019-10-26T09:10:36.000Z</time>
      </trkpt>
      <trkpt lat="47.90478" lon="3.7154">
        <ele>122</ele>
        <time>2019-10-26T09:10:37.000Z</time>
      </trkpt>
      <trkpt lat="47.90476" lon="3.71542">
        <ele>122</ele>
        <time>2019-10-26T09:10:38.000Z</time>
      </trkpt>
      <trkpt lat="47.90474" lon="3.71543">
        <ele>122</ele>
        <time>2019-10-26T09:10:39.000Z</time>
      </trkpt>
      <trkpt lat="47.90472" lon="3.71545">
        <ele>122</ele>
        <time>2019-10-26T09:10:40.000Z</time>
      </trkpt>
      <trkpt lat="47.90471" lon="3.71546">
        <ele>122</ele>
        <time>2019-10-26T09:10:41.000Z</time>
      </trkpt>
      <trkpt lat="47.90469" lon="3.71548">
        <ele>122</ele>
        <time>2019-10-26T09:10:42.000Z</time>
      </trkpt>
      <trkpt lat="47.90467" lon="3.71549">
        <ele>122</ele>
        <time>2019-10-26T09:10:43.000Z</time>
      </trkpt>
      <trkpt lat="47.90465" lon="3.71551">
        <ele>122</ele>
        <time>2019-10-26T09:10:44.000Z</time>
      </trkpt>
      <trkpt lat="47.90463" lon="3.71552">
        <ele>122</ele>
        <time>2019-10-26T09:10:45.000Z</time>
      </trkpt>
      <trkpt lat="47.90462" lon="3.71554">
        <ele>122</ele>
        <time>2019-10-26T09:10:46.000Z</time>
      </trkpt>
      <trkpt lat="47.9046" lon="3.71555">
        <ele>122</ele>
        <time>2019-10-26T09:10:47.000Z</time>
      </trkpt>
      <trkpt lat="47.90458" lon="3.71556">
        <ele>122</ele>
        <time>2019-10-26T09:10:48.000Z</time>
      </trkpt>
      <trkpt lat="47.90456" lon="3.71558">
        <ele>122</ele>
        <time>2019-10-26T09:10:49.000Z</time>
      </trkpt>
      <trkpt lat="47.90454" lon="3.71559">
        <ele>122</ele>
        <time>2019-10-26T09:10:50.000Z</time>
      </trkpt>
      <trkpt lat="47.90452" lon="3.7156">
        <ele>122</ele>
        <time>2019-10-26T09:10:51.000Z</time>
      </trkpt>
      <trkpt lat="47.9045" lon="3.71561">
        <ele>122</ele>
        <time>2019-10-26T09:10:52.000Z</time>
      </trkpt>
      <trkpt lat="47.90449" lon="3.71563">
        <ele>122</ele>
        <time>2019-10-26T09:10:53.000Z</time>
      </trkpt>
      <trkpt lat="47.90447" lon="3.71564">
        <ele>122</ele>
        <time>2019-10-26T09:10:54.000Z</time>
      </trkpt>
      <trkpt lat="47.90445" lon="3.71566">
        <ele>122</ele>
        <time>2019-10-26T09:10:55.000Z</time>
      </trkpt>
      <trkpt lat="47.90443" lon="3.71567">
        <ele>122</ele>
        <time>2019-10-26T09:10:56.000Z</time>
      </trkpt>
      <trkpt lat="47.90441" lon="3.71568">
        <ele>122</ele>
        <time>2019-10-26T09:10:57.000Z</time>
      </trkpt>
      <trkpt lat="47.9044" lon="3.7157">
        <ele>122</ele>
        <time>2019-10-26T09:10:58.000Z</time>
      </trkpt>
      <trkpt lat="47.90438" lon="3.71571">
        <ele>122</ele>
        <time>2019-10-26T09:10:59.000Z</time>
      </trkpt>
      <trkpt lat="47.90436" lon="3.71572">
        <ele>122</ele>
        <time>2019-10-26T09:11:00.000Z</time>
      </trkpt>
      <trkpt lat="47.90434" lon="3.71574">
        <ele>122</ele>
        <time>2019-10-26T09:11:01.000Z</time>
      </trkpt>
      <trkpt lat="47.90432" lon="3.71575">
        <ele>122</ele>
        <time>2019-10-26T09:11:02.000Z</time>
      </trkpt>
      <trkpt lat="47.9043" lon="3.71577">
        <ele>122</ele>
        <time>2019-10-26T09:11:03.000Z</time>
      </trkpt>
      <trkpt lat="47.90428" lon="3.71578">
        <ele>122</ele>
        <time>2019-10-26T09:11:04.000Z</time>
      </trkpt>
      <trkpt lat="47.90426" lon="3.71579">
        <ele>123</ele>
        <time>2019-10-26T09:11:05.000Z</time>
      </trkpt>
      <trkpt lat="47.90424" lon="3.71581">
        <ele>123</ele>
        <time>2019-10-26T09:11:06.000Z</time>
      </trkpt>
      <trkpt lat="47.90422" lon="3.71582">
        <ele>123</ele>
        <time>2019-10-26T09:11:07.000Z</time>
      </trkpt>
      <trkpt lat="47.9042" lon="3.71583">
        <ele>123</ele>
        <time>2019-10-26T09:11:08.000Z</time>
      </trkpt>
      <trkpt lat="47.90418" lon="3.71585">
        <ele>123</ele>
        <time>2019-10-26T09:11:09.000Z</time>
      </trkpt>
      <trkpt lat="47.90416" lon="3.71586">
        <ele>123</ele>
        <time>2019-10-26T09:11:10.000Z</time>
      </trkpt>
      <trkpt lat="47.90413" lon="3.71587">
        <ele>123</ele>
        <time>2019-10-26T09:11:11.000Z</time>
      </trkpt>
      <trkpt lat="47.90411" lon="3.71588">
        <ele>123</ele>
        <time>2019-10-26T09:11:12.000Z</time>
      </trkpt>
      <trkpt lat="47.90409" lon="3.7159">
        <ele>123</ele>
        <time>2019-10-26T09:11:13.000Z</time>
      </trkpt>
      <trkpt lat="47.90407" lon="3.71591">
        <ele>123</ele>
        <time>2019-10-26T09:11:14.000Z</time>
      </trkpt>
      <trkpt lat="47.90404" lon="3.71592">
        <ele>123</ele>
        <time>2019-10-26T09:11:15.000Z</time>
      </trkpt>
      <trkpt lat="47.90402" lon="3.71593">
        <ele>123</ele>
        <time>2019-10-26T09:11:16.000Z</time>
      </trkpt>
      <trkpt lat="47.904" lon="3.71594">
        <ele>123</ele>
        <time>2019-10-26T09:11:17.000Z</time>
      </trkpt>
      <trkpt lat="47.90398" lon="3.71596">
        <ele>123</ele>
        <time>2019-10-26T09:11:18.000Z</time>
      </trkpt>
      <trkpt lat="47.90396" lon="3.71598">
        <ele>123</ele>
        <time>2019-10-26T09:11:19.000Z</time>
      </trkpt>
      <trkpt lat="47.90394" lon="3.71599">
        <ele>124</ele>
        <time>2019-10-26T09:11:20.000Z</time>
      </trkpt>
      <trkpt lat="47.90392" lon="3.71601">
        <ele>124</ele>
        <time>2019-10-26T09:11:21.000Z</time>
      </trkpt>
      <trkpt lat="47.9039" lon="3.71602">
        <ele>124</ele>
        <time>2019-10-26T09:11:22.000Z</time>
      </trkpt>
      <trkpt lat="47.90388" lon="3.71603">
        <ele>124</ele>
        <time>2019-10-26T09:11:23.000Z</time>
      </trkpt>
      <trkpt lat="47.90386" lon="3.71605">
        <ele>124</ele>
        <time>2019-10-26T09:11:24.000Z</time>
      </trkpt>
      <trkpt lat="47.90384" lon="3.71606">
        <ele>124</ele>
        <time>2019-10-26T09:11:25.000Z</time>
      </trkpt>
      <trkpt lat="47.90382" lon="3.71608">
        <ele>124</ele>
        <time>2019-10-26T09:11:26.000Z</time>
      </trkpt>
      <trkpt lat="47.9038" lon="3.71609">
        <ele>124</ele>
        <time>2019-10-26T09:11:27.000Z</time>
      </trkpt>
      <trkpt lat="47.90378" lon="3.71611">
        <ele>124</ele>
        <time>2019-10-26T09:11:28.000Z</time>
      </trkpt>
      <trkpt lat="47.90376" lon="3.71613">
        <ele>124</ele>
        <time>2019-10-26T09:11:29.000Z</time>
      </trkpt>
      <trkpt lat="47.90374" lon="3.71614">
        <ele>125</ele>
        <time>2019-10-26T09:11:30.000Z</time>
      </trkpt>
      <trkpt lat="47.90372" lon="3.71616">
        <ele>125</ele>
        <time>2019-10-26T09:11:31.000Z</time>
      </trkpt>
      <trkpt lat="47.9037" lon="3.71617">
        <ele>125</ele>
        <time>2019-10-26T09:11:32.000Z</time>
      </trkpt>
      <trkpt lat="47.90368" lon="3.71619">
        <ele>125</ele>
        <time>2019-10-26T09:11:33.000Z</time>
      </trkpt>
      <trkpt lat="47.90366" lon="3.7162">
        <ele>125</ele>
        <time>2019-10-26T09:11:34.000Z</time>
      </trkpt>
      <trkpt lat="47.90364" lon="3.71622">
        <ele>125</ele>
        <time>2019-10-26T09:11:35.000Z</time>
      </trkpt>
      <trkpt lat="47.90363" lon="3.71624">
        <ele>126</ele>
        <time>2019-10-26T09:11:36.000Z</time>
      </trkpt>
      <trkpt lat="47.90361" lon="3.71625">
        <ele>126</ele>
        <time>2019-10-26T09:11:37.000Z</time>
      </trkpt>
      <trkpt lat="47.90359" lon="3.71627">
        <ele>126</ele>
        <time>2019-10-26T09:11:38.000Z</time>
      </trkpt>
      <trkpt lat="47.90357" lon="3.71629">
        <ele>126</ele>
        <time>2019-10-26T09:11:39.000Z</time>
      </trkpt>
      <trkpt lat="47.90356" lon="3.7163">
        <ele>126</ele>
        <time>2019-10-26T09:11:40.000Z</time>
      </trkpt>
      <trkpt lat="47.90354" lon="3.71632">
        <ele>126</ele>
        <time>2019-10-26T09:11:41.000Z</time>
      </trkpt>
      <trkpt lat="47.90352" lon="3.71634">
        <ele>126</ele>
        <time>2019-10-26T09:11:42.000Z</time>
      </trkpt>
      <trkpt lat="47.90351" lon="3.71636">
        <ele>126</ele>
        <time>2019-10-26T09:11:43.000Z</time>
      </trkpt>
      <trkpt lat="47.90349" lon="3.71637">
        <ele>127</ele>
        <time>2019-10-26T09:11:44.000Z</time>
      </trkpt>
      <trkpt lat="47.90347" lon="3.71639">
        <ele>127</ele>
        <time>2019-10-26T09:11:45.000Z</time>
      </trkpt>
      <trkpt lat="47.90346" lon="3.71641">
        <ele>127</ele>
        <time>2019-10-26T09:11:46.000Z</time>
      </trkpt>
      <trkpt lat="47.90344" lon="3.71643">
        <ele>127</ele>
        <time>2019-10-26T09:11:47.000Z</time>
      </trkpt>
      <trkpt lat="47.90343" lon="3.71645">
        <ele>127</ele>
        <time>2019-10-26T09:11:48.000Z</time>
      </trkpt>
      <trkpt lat="47.90341" lon="3.71647">
        <ele>127</ele>
        <time>2019-10-26T09:11:49.000Z</time>
      </trkpt>
      <trkpt lat="47.9034" lon="3.71649">
        <ele>127</ele>
        <time>2019-10-26T09:11:50.000Z</time>
      </trkpt>
      <trkpt lat="47.90338" lon="3.71651">
        <ele>127</ele>
        <time>2019-10-26T09:11:51.000Z</time>
      </trkpt>
      <trkpt lat="47.90336" lon="3.71653">
        <ele>127</ele>
        <time>2019-10-26T09:11:52.000Z</time>
      </trkpt>
      <trkpt lat="47.90335" lon="3.71655">
        <ele>128</ele>
        <time>2019-10-26T09:11:53.000Z</time>
      </trkpt>
      <trkpt lat="47.90334" lon="3.71658">
        <ele>128</ele>
        <time>2019-10-26T09:11:54.000Z</time>
      </trkpt>
      <trkpt lat="47.90332" lon="3.7166">
        <ele>128</ele>
        <time>2019-10-26T09:11:55.000Z</time>
      </trkpt>
      <trkpt lat="47.90331" lon="3.71662">
        <ele>128</ele>
        <time>2019-10-26T09:11:56.000Z</time>
      </trkpt>
      <trkpt lat="47.90329" lon="3.71664">
        <ele>128</ele>
        <time>2019-10-26T09:11:57.000Z</time>
      </trkpt>
      <trkpt lat="47.90328" lon="3.71667">
        <ele>129</ele>
        <time>2019-10-26T09:11:58.000Z</time>
      </trkpt>
      <trkpt lat="47.90326" lon="3.71669">
        <ele>129</ele>
        <time>2019-10-26T09:11:59.000Z</time>
      </trkpt>
      <trkpt lat="47.90325" lon="3.71671">
        <ele>129</ele>
        <time>2019-10-26T09:12:00.000Z</time>
      </trkpt>
      <trkpt lat="47.90323" lon="3.71674">
        <ele>129</ele>
        <time>2019-10-26T09:12:01.000Z</time>
      </trkpt>
      <trkpt lat="47.90322" lon="3.71676">
        <ele>129</ele>
        <time>2019-10-26T09:12:02.000Z</time>
      </trkpt>
      <trkpt lat="47.9032" lon="3.71678">
        <ele>129</ele>
        <time>2019-10-26T09:12:03.000Z</time>
      </trkpt>
      <trkpt lat="47.90319" lon="3.71681">
        <ele>130</ele>
        <time>2019-10-26T09:12:04.000Z</time>
      </trkpt>
      <trkpt lat="47.90317" lon="3.71683">
        <ele>130</ele>
        <time>2019-10-26T09:12:05.000Z</time>
      </trkpt>
      <trkpt lat="47.90316" lon="3.71685">
        <ele>130</ele>
        <time>2019-10-26T09:12:06.000Z</time>
      </trkpt>
      <trkpt lat="47.90314" lon="3.71687">
        <ele>130</ele>
        <time>2019-10-26T09:12:07.000Z</time>
      </trkpt>
      <trkpt lat="47.90313" lon="3.7169">
        <ele>130</ele>
        <time>2019-10-26T09:12:08.000Z</time>
      </trkpt>
      <trkpt lat="47.90311" lon="3.71692">
        <ele>130</ele>
        <time>2019-10-26T09:12:09.000Z</time>
      </trkpt>
      <trkpt lat="47.9031" lon="3.71694">
        <ele>130</ele>
        <time>2019-10-26T09:12:10.000Z</time>
      </trkpt>
      <trkpt lat="47.90308" lon="3.71696">
        <ele>130</ele>
        <time>2019-10-26T09:12:11.000Z</time>
      </trkpt>
      <trkpt lat="47.90307" lon="3.71699">
        <ele>130</ele>
        <time>2019-10-26T09:12:12.000Z</time>
      </trkpt>
      <trkpt lat="47.90305" lon="3.71701">
        <ele>131</ele>
        <time>2019-10-26T09:12:13.000Z</time>
      </trkpt>
      <trkpt lat="47.90304" lon="3.71703">
        <ele>131</ele>
        <time>2019-10-26T09:12:14.000Z</time>
      </trkpt>
      <trkpt lat="47.90302" lon="3.71705">
        <ele>131</ele>
        <time>2019-10-26T09:12:15.000Z</time>
      </trkpt>
      <trkpt lat="47.90301" lon="3.71708">
        <ele>131</ele>
        <time>2019-10-26T09:12:16.000Z</time>
      </trkpt>
      <trkpt lat="47.90299" lon="3.7171">
        <ele>131</ele>
        <time>2019-10-26T09:12:17.000Z</time>
      </trkpt>
      <trkpt lat="47.90298" lon="3.71712">
        <ele>131</ele>
        <time>2019-10-26T09:12:18.000Z</time>
      </trkpt>
      <trkpt lat="47.90296" lon="3.71715">
        <ele>131</ele>
        <time>2019-10-26T09:12:19.000Z</time>
      </trkpt>
      <trkpt lat="47.90295" lon="3.71717">
        <ele>131</ele>
        <time>2019-10-26T09:12:20.000Z</time>
      </trkpt>
      <trkpt lat="47.90294" lon="3.7172">
        <ele>131</ele>
        <time>2019-10-26T09:12:21.000Z</time>
      </trkpt>
      <trkpt lat="47.90293" lon="3.71722">
        <ele>132</ele>
        <time>2019-10-26T09:12:22.000Z</time>
      </trkpt>
      <trkpt lat="47.90292" lon="3.71725">
        <ele>132</ele>
        <time>2019-10-26T09:12:23.000Z</time>
      </trkpt>
      <trkpt lat="47.90291" lon="3.71728">
        <ele>132</ele>
        <time>2019-10-26T09:12:24.000Z</time>
      </trkpt>
      <trkpt lat="47.9029" lon="3.71731">
        <ele>132</ele>
        <time>2019-10-26T09:12:25.000Z</time>
      </trkpt>
      <trkpt lat="47.90288" lon="3.71734">
        <ele>132</ele>
        <time>2019-10-26T09:12:26.000Z</time>
      </trkpt>
      <trkpt lat="47.90287" lon="3.71737">
        <ele>132</ele>
        <time>2019-10-26T09:12:27.000Z</time>
      </trkpt>
      <trkpt lat="47.90287" lon="3.7174">
        <ele>132</ele>
        <time>2019-10-26T09:12:28.000Z</time>
      </trkpt>
      <trkpt lat="47.90286" lon="3.71743">
        <ele>132</ele>
        <time>2019-10-26T09:12:29.000Z</time>
      </trkpt>
      <trkpt lat="47.90285" lon="3.71746">
        <ele>132</ele>
        <time>2019-10-26T09:12:30.000Z</time>
      </trkpt>
      <trkpt lat="47.90284" lon="3.71749">
        <ele>132</ele>
        <time>2019-10-26T09:12:31.000Z</time>
      </trkpt>
      <trkpt lat="47.90283" lon="3.71752">
        <ele>132</ele>
        <time>2019-10-26T09:12:32.000Z</time>
      </trkpt>
      <trkpt lat="47.90282" lon="3.71755">
        <ele>132</ele>
        <time>2019-10-26T09:12:33.000Z</time>
      </trkpt>
      <trkpt lat="47.90281" lon="3.71758">
        <ele>132</ele>
        <time>2019-10-26T09:12:34.000Z</time>
      </trkpt>
      <trkpt lat="47.9028" lon="3.71761">
        <ele>132</ele>
        <time>2019-10-26T09:12:35.000Z</time>
      </trkpt>
      <trkpt lat="47.90279" lon="3.71764">
        <ele>132</ele>
        <time>2019-10-26T09:12:36.000Z</time>
      </trkpt>
      <trkpt lat="47.90279" lon="3.71768">
        <ele>132</ele>
        <time>2019-10-26T09:12:37.000Z</time>
      </trkpt>
      <trkpt lat="47.90278" lon="3.71771">
        <ele>132</ele>
        <time>2019-10-26T09:12:38.000Z</time>
      </trkpt>
      <trkpt lat="47.90277" lon="3.71774">
        <ele>133</ele>
        <time>2019-10-26T09:12:39.000Z</time>
      </trkpt>
      <trkpt lat="47.90276" lon="3.71777">
        <ele>133</ele>
        <time>2019-10-26T09:12:40.000Z</time>
      </trkpt>
      <trkpt lat="47.90275" lon="3.7178">
        <ele>133</ele>
        <time>2019-10-26T09:12:41.000Z</time>
      </trkpt>
      <trkpt lat="47.90274" lon="3.71783">
        <ele>133</ele>
        <time>2019-10-26T09:12:42.000Z</time>
      </trkpt>
      <trkpt lat="47.90273" lon="3.71786">
        <ele>133</ele>
        <time>2019-10-26T09:12:43.000Z</time>
      </trkpt>
      <trkpt lat="47.90272" lon="3.71789">
        <ele>133</ele>
        <time>2019-10-26T09:12:44.000Z</time>
      </trkpt>
      <trkpt lat="47.90271" lon="3.71792">
        <ele>132</ele>
        <time>2019-10-26T09:12:45.000Z</time>
      </trkpt>
      <trkpt lat="47.9027" lon="3.71796">
        <ele>132</ele>
        <time>2019-10-26T09:12:46.000Z</time>
      </trkpt>
      <trkpt lat="47.90269" lon="3.71799">
        <ele>132</ele>
        <time>2019-10-26T09:12:47.000Z</time>
      </trkpt>
      <trkpt lat="47.90269" lon="3.71802">
        <ele>132</ele>
        <time>2019-10-26T09:12:48.000Z</time>
      </trkpt>
      <trkpt lat="47.90268" lon="3.71805">
        <ele>132</ele>
        <time>2019-10-26T09:12:49.000Z</time>
      </trkpt>
      <trkpt lat="47.90267" lon="3.71808">
        <ele>132</ele>
        <time>2019-10-26T09:12:50.000Z</time>
      </trkpt>
      <trkpt lat="47.90266" lon="3.71812">
        <ele>132</ele>
        <time>2019-10-26T09:12:51.000Z</time>
      </trkpt>
      <trkpt lat="47.90265" lon="3.71815">
        <ele>132</ele>
        <time>2019-10-26T09:12:52.000Z</time>
      </trkpt>
      <trkpt lat="47.90264" lon="3.71818">
        <ele>132</ele>
        <time>2019-10-26T09:12:53.000Z</time>
      </trkpt>
      <trkpt lat="47.90264" lon="3.71821">
        <ele>132</ele>
        <time>2019-10-26T09:12:54.000Z</time>
      </trkpt>
      <trkpt lat="47.90263" lon="3.71825">
        <ele>132</ele>
        <time>2019-10-26T09:12:55.000Z</time>
      </trkpt>
      <trkpt lat="47.90262" lon="3.71828">
        <ele>132</ele>
        <time>2019-10-26T09:12:56.000Z</time>
      </trkpt>
      <trkpt lat="47.90261" lon="3.71831">
        <ele>132</ele>
        <time>2019-10-26T09:12:57.000Z</time>
      </trkpt>
      <trkpt lat="47.90261" lon="3.71834">
        <ele>132</ele>
        <time>2019-10-26T09:12:58.000Z</time>
      </trkpt>
      <trkpt lat="47.9026" lon="3.71837">
        <ele>132</ele>
        <time>2019-10-26T09:12:59.000Z</time>
      </trkpt>
      <trkpt lat="47.90259" lon="3.71841">
        <ele>132</ele>
        <time>2019-10-26T09:13:00.000Z</time>
      </trkpt>
      <trkpt lat="47.90259" lon="3.71844">
        <ele>132</ele>
        <time>2019-10-26T09:13:01.000Z</time>
      </trkpt>
      <trkpt lat="47.90258" lon="3.71848">
        <ele>132</ele>
        <time>2019-10-26T09:13:02.000Z</time>
      </trkpt>
      <trkpt lat="47.90257" lon="3.71851">
        <ele>131</ele>
        <time>2019-10-26T09:13:03.000Z</time>
      </trkpt>
      <trkpt lat="47.90257" lon="3.71854">
        <ele>131</ele>
        <time>2019-10-26T09:13:04.000Z</time>
      </trkpt>
      <trkpt lat="47.90256" lon="3.71858">
        <ele>131</ele>
        <time>2019-10-26T09:13:05.000Z</time>
      </trkpt>
      <trkpt lat="47.90256" lon="3.71861">
        <ele>131</ele>
        <time>2019-10-26T09:13:06.000Z</time>
      </trkpt>
      <trkpt lat="47.90255" lon="3.71864">
        <ele>131</ele>
        <time>2019-10-26T09:13:07.000Z</time>
      </trkpt>
      <trkpt lat="47.90254" lon="3.71867">
        <ele>131</ele>
        <time>2019-10-26T09:13:08.000Z</time>
      </trkpt>
      <trkpt lat="47.90254" lon="3.71871">
        <ele>131</ele>
        <time>2019-10-26T09:13:09.000Z</time>
      </trkpt>
      <trkpt lat="47.90253" lon="3.71874">
        <ele>131</ele>
        <time>2019-10-26T09:13:10.000Z</time>
      </trkpt>
      <trkpt lat="47.90252" lon="3.71878">
        <ele>131</ele>
        <time>2019-10-26T09:13:11.000Z</time>
      </trkpt>
      <trkpt lat="47.90252" lon="3.71881">
        <ele>131</ele>
        <time>2019-10-26T09:13:12.000Z</time>
      </trkpt>
      <trkpt lat="47.90251" lon="3.71885">
        <ele>131</ele>
        <time>2019-10-26T09:13:13.000Z</time>
      </trkpt>
      <trkpt lat="47.90251" lon="3.71888">
        <ele>131</ele>
        <time>2019-10-26T09:13:14.000Z</time>
      </trkpt>
      <trkpt lat="47.90251" lon="3.71892">
        <ele>131</ele>
        <time>2019-10-26T09:13:15.000Z</time>
      </trkpt>
      <trkpt lat="47.90251" lon="3.71895">
        <ele>130</ele>
        <time>2019-10-26T09:13:16.000Z</time>
      </trkpt>
      <trkpt lat="47.90251" lon="3.71899">
        <ele>130</ele>
        <time>2019-10-26T09:13:17.000Z</time>
      </trkpt>
      <trkpt lat="47.90251" lon="3.71903">
        <ele>130</ele>
        <time>2019-10-26T09:13:18.000Z</time>
      </trkpt>
      <trkpt lat="47.90251" lon="3.71906">
        <ele>130</ele>
        <time>2019-10-26T09:13:19.000Z</time>
      </trkpt>
      <trkpt lat="47.9025" lon="3.7191">
        <ele>130</ele>
        <time>2019-10-26T09:13:20.000Z</time>
      </trkpt>
      <trkpt lat="47.90251" lon="3.71914">
        <ele>130</ele>
        <time>2019-10-26T09:13:21.000Z</time>
      </trkpt>
      <trkpt lat="47.90251" lon="3.71918">
        <ele>129</ele>
        <time>2019-10-26T09:13:22.000Z</time>
      </trkpt>
      <trkpt lat="47.90251" lon="3.71921">
        <ele>129</ele>
        <time>2019-10-26T09:13:23.000Z</time>
      </trkpt>
      <trkpt lat="47.90251" lon="3.71925">
        <ele>129</ele>
        <time>2019-10-26T09:13:24.000Z</time>
      </trkpt>
      <trkpt lat="47.90251" lon="3.71929">
        <ele>129</ele>
        <time>2019-10-26T09:13:25.000Z</time>
      </trkpt>
      <trkpt lat="47.90251" lon="3.71932">
        <ele>128</ele>
        <time>2019-10-26T09:13:26.000Z</time>
      </trkpt>
      <trkpt lat="47.90251" lon="3.71936">
        <ele>128</ele>
        <time>2019-10-26T09:13:27.000Z</time>
      </trkpt>
      <trkpt lat="47.90251" lon="3.7194">
        <ele>128</ele>
        <time>2019-10-26T09:13:28.000Z</time>
      </trkpt>
      <trkpt lat="47.90251" lon="3.71943">
        <ele>128</ele>
        <time>2019-10-26T09:13:29.000Z</time>
      </trkpt>
      <trkpt lat="47.90251" lon="3.71947">
        <ele>128</ele>
        <time>2019-10-26T09:13:30.000Z</time>
      </trkpt>
      <trkpt lat="47.9025" lon="3.7195">
        <ele>128</ele>
        <time>2019-10-26T09:13:31.000Z</time>
      </trkpt>
      <trkpt lat="47.9025" lon="3.71954">
        <ele>128</ele>
        <time>2019-10-26T09:13:32.000Z</time>
      </trkpt>
      <trkpt lat="47.90249" lon="3.71957">
        <ele>128</ele>
        <time>2019-10-26T09:13:33.000Z</time>
      </trkpt>
      <trkpt lat="47.90248" lon="3.71961">
        <ele>128</ele>
        <time>2019-10-26T09:13:34.000Z</time>
      </trkpt>
      <trkpt lat="47.90247" lon="3.71964">
        <ele>128</ele>
        <time>2019-10-26T09:13:35.000Z</time>
      </trkpt>
      <trkpt lat="47.90246" lon="3.71967">
        <ele>128</ele>
        <time>2019-10-26T09:13:36.000Z</time>
      </trkpt>
      <trkpt lat="47.90245" lon="3.71971">
        <ele>127</ele>
        <time>2019-10-26T09:13:37.000Z</time>
      </trkpt>
      <trkpt lat="47.90244" lon="3.71974">
        <ele>127</ele>
        <time>2019-10-26T09:13:38.000Z</time>
      </trkpt>
      <trkpt lat="47.90243" lon="3.71977">
        <ele>127</ele>
        <time>2019-10-26T09:13:39.000Z</time>
      </trkpt>
      <trkpt lat="47.90242" lon="3.7198">
        <ele>127</ele>
        <time>2019-10-26T09:13:40.000Z</time>
      </trkpt>
      <trkpt lat="47.90241" lon="3.71983">
        <ele>127</ele>
        <time>2019-10-26T09:13:41.000Z</time>
      </trkpt>
      <trkpt lat="47.9024" lon="3.71986">
        <ele>127</ele>
        <time>2019-10-26T09:13:42.000Z</time>
      </trkpt>
      <trkpt lat="47.90239" lon="3.71989">
        <ele>127</ele>
        <time>2019-10-26T09:13:43.000Z</time>
      </trkpt>
      <trkpt lat="47.90237" lon="3.71992">
        <ele>127</ele>
        <time>2019-10-26T09:13:44.000Z</time>
      </trkpt>
      <trkpt lat="47.90236" lon="3.71996">
        <ele>127</ele>
        <time>2019-10-26T09:13:45.000Z</time>
      </trkpt>
      <trkpt lat="47.90235" lon="3.71999">
        <ele>127</ele>
        <time>2019-10-26T09:13:46.000Z</time>
      </trkpt>
      <trkpt lat="47.90233" lon="3.72002">
        <ele>126</ele>
        <time>2019-10-26T09:13:47.000Z</time>
      </trkpt>
      <trkpt lat="47.90232" lon="3.72005">
        <ele>126</ele>
        <time>2019-10-26T09:13:48.000Z</time>
      </trkpt>
      <trkpt lat="47.90231" lon="3.72008">
        <ele>126</ele>
        <time>2019-10-26T09:13:49.000Z</time>
      </trkpt>
      <trkpt lat="47.9023" lon="3.72011">
        <ele>126</ele>
        <time>2019-10-26T09:13:50.000Z</time>
      </trkpt>
      <trkpt lat="47.90229" lon="3.72014">
        <ele>126</ele>
        <time>2019-10-26T09:13:51.000Z</time>
      </trkpt>
      <trkpt lat="47.90228" lon="3.72017">
        <ele>126</ele>
        <time>2019-10-26T09:13:52.000Z</time>
      </trkpt>
      <trkpt lat="47.90227" lon="3.7202">
        <ele>125</ele>
        <time>2019-10-26T09:13:53.000Z</time>
      </trkpt>
      <trkpt lat="47.90225" lon="3.72023">
        <ele>125</ele>
        <time>2019-10-26T09:13:54.000Z</time>
      </trkpt>
      <trkpt lat="47.90224" lon="3.72026">
        <ele>125</ele>
        <time>2019-10-26T09:13:55.000Z</time>
      </trkpt>
      <trkpt lat="47.90223" lon="3.72029">
        <ele>125</ele>
        <time>2019-10-26T09:13:56.000Z</time>
      </trkpt>
      <trkpt lat="47.90222" lon="3.72032">
        <ele>125</ele>
        <time>2019-10-26T09:13:57.000Z</time>
      </trkpt>
      <trkpt lat="47.90221" lon="3.72036">
        <ele>125</ele>
        <time>2019-10-26T09:13:58.000Z</time>
      </trkpt>
      <trkpt lat="47.9022" lon="3.72039">
        <ele>125</ele>
        <time>2019-10-26T09:13:59.000Z</time>
      </trkpt>
      <trkpt lat="47.90218" lon="3.72042">
        <ele>125</ele>
        <time>2019-10-26T09:14:00.000Z</time>
      </trkpt>
      <trkpt lat="47.90217" lon="3.72045">
        <ele>125</ele>
        <time>2019-10-26T09:14:01.000Z</time>
      </trkpt>
      <trkpt lat="47.90216" lon="3.72048">
        <ele>125</ele>
        <time>2019-10-26T09:14:02.000Z</time>
      </trkpt>
      <trkpt lat="47.90215" lon="3.72052">
        <ele>125</ele>
        <time>2019-10-26T09:14:03.000Z</time>
      </trkpt>
      <trkpt lat="47.90213" lon="3.72055">
        <ele>124</ele>
        <time>2019-10-26T09:14:04.000Z</time>
      </trkpt>
      <trkpt lat="47.90212" lon="3.72058">
        <ele>124</ele>
        <time>2019-10-26T09:14:05.000Z</time>
      </trkpt>
      <trkpt lat="47.90211" lon="3.72061">
        <ele>124</ele>
        <time>2019-10-26T09:14:06.000Z</time>
      </trkpt>
      <trkpt lat="47.9021" lon="3.72064">
        <ele>124</ele>
        <time>2019-10-26T09:14:07.000Z</time>
      </trkpt>
      <trkpt lat="47.90209" lon="3.72067">
        <ele>124</ele>
        <time>2019-10-26T09:14:08.000Z</time>
      </trkpt>
      <trkpt lat="47.90208" lon="3.72071">
        <ele>124</ele>
        <time>2019-10-26T09:14:09.000Z</time>
      </trkpt>
      <trkpt lat="47.90207" lon="3.72074">
        <ele>124</ele>
        <time>2019-10-26T09:14:10.000Z</time>
      </trkpt>
      <trkpt lat="47.90206" lon="3.72077">
        <ele>124</ele>
        <time>2019-10-26T09:14:11.000Z</time>
      </trkpt>
      <trkpt lat="47.90204" lon="3.7208">
        <ele>124</ele>
        <time>2019-10-26T09:14:12.000Z</time>
      </trkpt>
      <trkpt lat="47.90203" lon="3.72083">
        <ele>124</ele>
        <time>2019-10-26T09:14:13.000Z</time>
      </trkpt>
      <trkpt lat="47.90202" lon="3.72086">
        <ele>124</ele>
        <time>2019-10-26T09:14:14.000Z</time>
      </trkpt>
      <trkpt lat="47.90201" lon="3.72089">
        <ele>124</ele>
        <time>2019-10-26T09:14:15.000Z</time>
      </trkpt>
      <trkpt lat="47.902" lon="3.72092">
        <ele>124</ele>
        <time>2019-10-26T09:14:16.000Z</time>
      </trkpt>
      <trkpt lat="47.90199" lon="3.72095">
        <ele>124</ele>
        <time>2019-10-26T09:14:17.000Z</time>
      </trkpt>
      <trkpt lat="47.90198" lon="3.72098">
        <ele>124</ele>
        <time>2019-10-26T09:14:18.000Z</time>
      </trkpt>
      <trkpt lat="47.90197" lon="3.72102">
        <ele>124</ele>
        <time>2019-10-26T09:14:19.000Z</time>
      </trkpt>
      <trkpt lat="47.90196" lon="3.72105">
        <ele>124</ele>
        <time>2019-10-26T09:14:20.000Z</time>
      </trkpt>
      <trkpt lat="47.90195" lon="3.72108">
        <ele>124</ele>
        <time>2019-10-26T09:14:21.000Z</time>
      </trkpt>
      <trkpt lat="47.90194" lon="3.72111">
        <ele>124</ele>
        <time>2019-10-26T09:14:22.000Z</time>
      </trkpt>
      <trkpt lat="47.90193" lon="3.72114">
        <ele>124</ele>
        <time>2019-10-26T09:14:23.000Z</time>
      </trkpt>
      <trkpt lat="47.90192" lon="3.72117">
        <ele>124</ele>
        <time>2019-10-26T09:14:24.000Z</time>
      </trkpt>
      <trkpt lat="47.9019" lon="3.7212">
        <ele>124</ele>
        <time>2019-10-26T09:14:25.000Z</time>
      </trkpt>
      <trkpt lat="47.90189" lon="3.72123">
        <ele>124</ele>
        <time>2019-10-26T09:14:26.000Z</time>
      </trkpt>
      <trkpt lat="47.90188" lon="3.72126">
        <ele>124</ele>
        <time>2019-10-26T09:14:27.000Z</time>
      </trkpt>
      <trkpt lat="47.90187" lon="3.72129">
        <ele>124</ele>
        <time>2019-10-26T09:14:28.000Z</time>
      </trkpt>
      <trkpt lat="47.90186" lon="3.72132">
        <ele>124</ele>
        <time>2019-10-26T09:14:29.000Z</time>
      </trkpt>
      <trkpt lat="47.90185" lon="3.72135">
        <ele>124</ele>
        <time>2019-10-26T09:14:30.000Z</time>
      </trkpt>
      <trkpt lat="47.90184" lon="3.72138">
        <ele>124</ele>
        <time>2019-10-26T09:14:31.000Z</time>
      </trkpt>
      <trkpt lat="47.90183" lon="3.72141">
        <ele>124</ele>
        <time>2019-10-26T09:14:32.000Z</time>
      </trkpt>
      <trkpt lat="47.90182" lon="3.72144">
        <ele>124</ele>
        <time>2019-10-26T09:14:33.000Z</time>
      </trkpt>
      <trkpt lat="47.90181" lon="3.72147">
        <ele>124</ele>
        <time>2019-10-26T09:14:34.000Z</time>
      </trkpt>
      <trkpt lat="47.90179" lon="3.7215">
        <ele>125</ele>
        <time>2019-10-26T09:14:35.000Z</time>
      </trkpt>
      <trkpt lat="47.90178" lon="3.72153">
        <ele>125</ele>
        <time>2019-10-26T09:14:36.000Z</time>
      </trkpt>
      <trkpt lat="47.90177" lon="3.72156">
        <ele>125</ele>
        <time>2019-10-26T09:14:37.000Z</time>
      </trkpt>
      <trkpt lat="47.90176" lon="3.72159">
        <ele>125</ele>
        <time>2019-10-26T09:14:38.000Z</time>
      </trkpt>
      <trkpt lat="47.90175" lon="3.72161">
        <ele>125</ele>
        <time>2019-10-26T09:14:39.000Z</time>
      </trkpt>
      <trkpt lat="47.90174" lon="3.72164">
        <ele>125</ele>
        <time>2019-10-26T09:14:40.000Z</time>
      </trkpt>
      <trkpt lat="47.90173" lon="3.72167">
        <ele>125</ele>
        <time>2019-10-26T09:14:41.000Z</time>
      </trkpt>
      <trkpt lat="47.90172" lon="3.7217">
        <ele>125</ele>
        <time>2019-10-26T09:14:42.000Z</time>
      </trkpt>
      <trkpt lat="47.90171" lon="3.72172">
        <ele>125</ele>
        <time>2019-10-26T09:14:43.000Z</time>
      </trkpt>
      <trkpt lat="47.9017" lon="3.72175">
        <ele>125</ele>
        <time>2019-10-26T09:14:44.000Z</time>
      </trkpt>
      <trkpt lat="47.90169" lon="3.72178">
        <ele>125</ele>
        <time>2019-10-26T09:14:45.000Z</time>
      </trkpt>
      <trkpt lat="47.90168" lon="3.7218">
        <ele>125</ele>
        <time>2019-10-26T09:14:46.000Z</time>
      </trkpt>
      <trkpt lat="47.90167" lon="3.72183">
        <ele>125</ele>
        <time>2019-10-26T09:14:47.000Z</time>
      </trkpt>
      <trkpt lat="47.90166" lon="3.72186">
        <ele>125</ele>
        <time>2019-10-26T09:14:48.000Z</time>
      </trkpt>
      <trkpt lat="47.90165" lon="3.72189">
        <ele>125</ele>
        <time>2019-10-26T09:14:49.000Z</time>
      </trkpt>
      <trkpt lat="47.90164" lon="3.72192">
        <ele>125</ele>
        <time>2019-10-26T09:14:50.000Z</time>
      </trkpt>
      <trkpt lat="47.90163" lon="3.72195">
        <ele>125</ele>
        <time>2019-10-26T09:14:51.000Z</time>
      </trkpt>
      <trkpt lat="47.90162" lon="3.72198">
        <ele>125</ele>
        <time>2019-10-26T09:14:52.000Z</time>
      </trkpt>
      <trkpt lat="47.9016" lon="3.72201">
        <ele>124</ele>
        <time>2019-10-26T09:14:53.000Z</time>
      </trkpt>
      <trkpt lat="47.90159" lon="3.72204">
        <ele>124</ele>
        <time>2019-10-26T09:14:54.000Z</time>
      </trkpt>
      <trkpt lat="47.90158" lon="3.72207">
        <ele>124</ele>
        <time>2019-10-26T09:14:55.000Z</time>
      </trkpt>
      <trkpt lat="47.90158" lon="3.7221">
        <ele>124</ele>
        <time>2019-10-26T09:14:56.000Z</time>
      </trkpt>
      <trkpt lat="47.90157" lon="3.72212">
        <ele>124</ele>
        <time>2019-10-26T09:14:57.000Z</time>
      </trkpt>
      <trkpt lat="47.90156" lon="3.72215">
        <ele>124</ele>
        <time>2019-10-26T09:14:58.000Z</time>
      </trkpt>
      <trkpt lat="47.90154" lon="3.72218">
        <ele>124</ele>
        <time>2019-10-26T09:14:59.000Z</time>
      </trkpt>
      <trkpt lat="47.90153" lon="3.72221">
        <ele>125</ele>
        <time>2019-10-26T09:15:00.000Z</time>
      </trkpt>
      <trkpt lat="47.90152" lon="3.72224">
        <ele>125</ele>
        <time>2019-10-26T09:15:01.000Z</time>
      </trkpt>
      <trkpt lat="47.90151" lon="3.72226">
        <ele>125</ele>
        <time>2019-10-26T09:15:02.000Z</time>
      </trkpt>
      <trkpt lat="47.9015" lon="3.72229">
        <ele>125</ele>
        <time>2019-10-26T09:15:03.000Z</time>
      </trkpt>
      <trkpt lat="47.90149" lon="3.72232">
        <ele>125</ele>
        <time>2019-10-26T09:15:04.000Z</time>
      </trkpt>
      <trkpt lat="47.90148" lon="3.72235">
        <ele>125</ele>
        <time>2019-10-26T09:15:05.000Z</time>
      </trkpt>
      <trkpt lat="47.90147" lon="3.72238">
        <ele>125</ele>
        <time>2019-10-26T09:15:06.000Z</time>
      </trkpt>
      <trkpt lat="47.90146" lon="3.72241">
        <ele>125</ele>
        <time>2019-10-26T09:15:07.000Z</time>
      </trkpt>
      <trkpt lat="47.90145" lon="3.72244">
        <ele>125</ele>
        <time>2019-10-26T09:15:08.000Z</time>
      </trkpt>
      <trkpt lat="47.90144" lon="3.72247">
        <ele>125</ele>
        <time>2019-10-26T09:15:09.000Z</time>
      </trkpt>
      <trkpt lat="47.90143" lon="3.7225">
        <ele>125</ele>
        <time>2019-10-26T09:15:10.000Z</time>
      </trkpt>
      <trkpt lat="47.90142" lon="3.72252">
        <ele>125</ele>
        <time>2019-10-26T09:15:11.000Z</time>
      </trkpt>
      <trkpt lat="47.90141" lon="3.72255">
        <ele>125</ele>
        <time>2019-10-26T09:15:12.000Z</time>
      </trkpt>
      <trkpt lat="47.9014" lon="3.72258">
        <ele>126</ele>
        <time>2019-10-26T09:15:13.000Z</time>
      </trkpt>
      <trkpt lat="47.90139" lon="3.72261">
        <ele>126</ele>
        <time>2019-10-26T09:15:14.000Z</time>
      </trkpt>
      <trkpt lat="47.90137" lon="3.72264">
        <ele>126</ele>
        <time>2019-10-26T09:15:15.000Z</time>
      </trkpt>
      <trkpt lat="47.90136" lon="3.72267">
        <ele>126</ele>
        <time>2019-10-26T09:15:16.000Z</time>
      </trkpt>
      <trkpt lat="47.90135" lon="3.7227">
        <ele>126</ele>
        <time>2019-10-26T09:15:17.000Z</time>
      </trkpt>
      <trkpt lat="47.90134" lon="3.72273">
        <ele>126</ele>
        <time>2019-10-26T09:15:18.000Z</time>
      </trkpt>
      <trkpt lat="47.90133" lon="3.72275">
        <ele>126</ele>
        <time>2019-10-26T09:15:19.000Z</time>
      </trkpt>
      <trkpt lat="47.90132" lon="3.72278">
        <ele>126</ele>
        <time>2019-10-26T09:15:20.000Z</time>
      </trkpt>
      <trkpt lat="47.90131" lon="3.72281">
        <ele>126</ele>
        <time>2019-10-26T09:15:21.000Z</time>
      </trkpt>
      <trkpt lat="47.9013" lon="3.72284">
        <ele>127</ele>
        <time>2019-10-26T09:15:22.000Z</time>
      </trkpt>
      <trkpt lat="47.90129" lon="3.72287">
        <ele>127</ele>
        <time>2019-10-26T09:15:23.000Z</time>
      </trkpt>
      <trkpt lat="47.90128" lon="3.7229">
        <ele>127</ele>
        <time>2019-10-26T09:15:24.000Z</time>
      </trkpt>
      <trkpt lat="47.90127" lon="3.72292">
        <ele>127</ele>
        <time>2019-10-26T09:15:25.000Z</time>
      </trkpt>
      <trkpt lat="47.90126" lon="3.72295">
        <ele>127</ele>
        <time>2019-10-26T09:15:26.000Z</time>
      </trkpt>
      <trkpt lat="47.90125" lon="3.72298">
        <ele>127</ele>
        <time>2019-10-26T09:15:27.000Z</time>
      </trkpt>
      <trkpt lat="47.90124" lon="3.72301">
        <ele>127</ele>
        <time>2019-10-26T09:15:28.000Z</time>
      </trkpt>
      <trkpt lat="47.90124" lon="3.72304">
        <ele>127</ele>
        <time>2019-10-26T09:15:29.000Z</time>
      </trkpt>
      <trkpt lat="47.90123" lon="3.72307">
        <ele>127</ele>
        <time>2019-10-26T09:15:30.000Z</time>
      </trkpt>
      <trkpt lat="47.90122" lon="3.7231">
        <ele>128</ele>
        <time>2019-10-26T09:15:31.000Z</time>
      </trkpt>
      <trkpt lat="47.90121" lon="3.72312">
        <ele>128</ele>
        <time>2019-10-26T09:15:32.000Z</time>
      </trkpt>
      <trkpt lat="47.9012" lon="3.72315">
        <ele>128</ele>
        <time>2019-10-26T09:15:33.000Z</time>
      </trkpt>
      <trkpt lat="47.90119" lon="3.72318">
        <ele>128</ele>
        <time>2019-10-26T09:15:34.000Z</time>
      </trkpt>
      <trkpt lat="47.90118" lon="3.72321">
        <ele>128</ele>
        <time>2019-10-26T09:15:35.000Z</time>
      </trkpt>
      <trkpt lat="47.90117" lon="3.72324">
        <ele>128</ele>
        <time>2019-10-26T09:15:36.000Z</time>
      </trkpt>
      <trkpt lat="47.90116" lon="3.72326">
        <ele>128</ele>
        <time>2019-10-26T09:15:37.000Z</time>
      </trkpt>
      <trkpt lat="47.90116" lon="3.72329">
        <ele>128</ele>
        <time>2019-10-26T09:15:38.000Z</time>
      </trkpt>
      <trkpt lat="47.90115" lon="3.72332">
        <ele>128</ele>
        <time>2019-10-26T09:15:39.000Z</time>
      </trkpt>
      <trkpt lat="47.90114" lon="3.72335">
        <ele>129</ele>
        <time>2019-10-26T09:15:40.000Z</time>
      </trkpt>
      <trkpt lat="47.90113" lon="3.72338">
        <ele>129</ele>
        <time>2019-10-26T09:15:41.000Z</time>
      </trkpt>
      <trkpt lat="47.90113" lon="3.72341">
        <ele>129</ele>
        <time>2019-10-26T09:15:42.000Z</time>
      </trkpt>
      <trkpt lat="47.90112" lon="3.72344">
        <ele>129</ele>
        <time>2019-10-26T09:15:43.000Z</time>
      </trkpt>
      <trkpt lat="47.90111" lon="3.72347">
        <ele>129</ele>
        <time>2019-10-26T09:15:44.000Z</time>
      </trkpt>
      <trkpt lat="47.9011" lon="3.72349">
        <ele>129</ele>
        <time>2019-10-26T09:15:45.000Z</time>
      </trkpt>
      <trkpt lat="47.90109" lon="3.72352">
        <ele>130</ele>
        <time>2019-10-26T09:15:46.000Z</time>
      </trkpt>
      <trkpt lat="47.90108" lon="3.72355">
        <ele>130</ele>
        <time>2019-10-26T09:15:47.000Z</time>
      </trkpt>
      <trkpt lat="47.90107" lon="3.72357">
        <ele>130</ele>
        <time>2019-10-26T09:15:48.000Z</time>
      </trkpt>
      <trkpt lat="47.90106" lon="3.7236">
        <ele>130</ele>
        <time>2019-10-26T09:15:49.000Z</time>
      </trkpt>
      <trkpt lat="47.90105" lon="3.72362">
        <ele>130</ele>
        <time>2019-10-26T09:15:50.000Z</time>
      </trkpt>
      <trkpt lat="47.90104" lon="3.72365">
        <ele>130</ele>
        <time>2019-10-26T09:15:51.000Z</time>
      </trkpt>
      <trkpt lat="47.90103" lon="3.72367">
        <ele>130</ele>
        <time>2019-10-26T09:15:52.000Z</time>
      </trkpt>
      <trkpt lat="47.90103" lon="3.7237">
        <ele>130</ele>
        <time>2019-10-26T09:15:53.000Z</time>
      </trkpt>
      <trkpt lat="47.90102" lon="3.72373">
        <ele>130</ele>
        <time>2019-10-26T09:15:54.000Z</time>
      </trkpt>
      <trkpt lat="47.90101" lon="3.72375">
        <ele>130</ele>
        <time>2019-10-26T09:15:55.000Z</time>
      </trkpt>
      <trkpt lat="47.901" lon="3.72378">
        <ele>130</ele>
        <time>2019-10-26T09:15:56.000Z</time>
      </trkpt>
      <trkpt lat="47.90099" lon="3.72381">
        <ele>130</ele>
        <time>2019-10-26T09:15:57.000Z</time>
      </trkpt>
      <trkpt lat="47.90098" lon="3.72384">
        <ele>131</ele>
        <time>2019-10-26T09:15:58.000Z</time>
      </trkpt>
      <trkpt lat="47.90097" lon="3.72386">
        <ele>131</ele>
        <time>2019-10-26T09:15:59.000Z</time>
      </trkpt>
      <trkpt lat="47.90096" lon="3.72388">
        <ele>131</ele>
        <time>2019-10-26T09:16:00.000Z</time>
      </trkpt>
      <trkpt lat="47.90095" lon="3.72391">
        <ele>131</ele>
        <time>2019-10-26T09:16:01.000Z</time>
      </trkpt>
      <trkpt lat="47.90094" lon="3.72393">
        <ele>131</ele>
        <time>2019-10-26T09:16:02.000Z</time>
      </trkpt>
      <trkpt lat="47.90094" lon="3.72396">
        <ele>131</ele>
        <time>2019-10-26T09:16:03.000Z</time>
      </trkpt>
      <trkpt lat="47.90093" lon="3.72399">
        <ele>131</ele>
        <time>2019-10-26T09:16:04.000Z</time>
      </trkpt>
      <trkpt lat="47.90092" lon="3.72402">
        <ele>131</ele>
        <time>2019-10-26T09:16:05.000Z</time>
      </trkpt>
      <trkpt lat="47.90091" lon="3.72405">
        <ele>132</ele>
        <time>2019-10-26T09:16:06.000Z</time>
      </trkpt>
      <trkpt lat="47.9009" lon="3.72407">
        <ele>132</ele>
        <time>2019-10-26T09:16:07.000Z</time>
      </trkpt>
      <trkpt lat="47.90089" lon="3.7241">
        <ele>132</ele>
        <time>2019-10-26T09:16:08.000Z</time>
      </trkpt>
      <trkpt lat="47.90088" lon="3.72413">
        <ele>132</ele>
        <time>2019-10-26T09:16:09.000Z</time>
      </trkpt>
      <trkpt lat="47.90088" lon="3.72416">
        <ele>132</ele>
        <time>2019-10-26T09:16:10.000Z</time>
      </trkpt>
      <trkpt lat="47.90087" lon="3.72418">
        <ele>133</ele>
        <time>2019-10-26T09:16:11.000Z</time>
      </trkpt>
      <trkpt lat="47.90086" lon="3.72421">
        <ele>133</ele>
        <time>2019-10-26T09:16:12.000Z</time>
      </trkpt>
      <trkpt lat="47.90085" lon="3.72424">
        <ele>133</ele>
        <time>2019-10-26T09:16:13.000Z</time>
      </trkpt>
      <trkpt lat="47.90084" lon="3.72427">
        <ele>133</ele>
        <time>2019-10-26T09:16:14.000Z</time>
      </trkpt>
      <trkpt lat="47.90083" lon="3.7243">
        <ele>134</ele>
        <time>2019-10-26T09:16:15.000Z</time>
      </trkpt>
      <trkpt lat="47.90082" lon="3.72432">
        <ele>134</ele>
        <time>2019-10-26T09:16:16.000Z</time>
      </trkpt>
      <trkpt lat="47.90081" lon="3.72435">
        <ele>134</ele>
        <time>2019-10-26T09:16:17.000Z</time>
      </trkpt>
      <trkpt lat="47.9008" lon="3.72438">
        <ele>135</ele>
        <time>2019-10-26T09:16:18.000Z</time>
      </trkpt>
      <trkpt lat="47.90079" lon="3.72441">
        <ele>135</ele>
        <time>2019-10-26T09:16:19.000Z</time>
      </trkpt>
      <trkpt lat="47.90078" lon="3.72444">
        <ele>135</ele>
        <time>2019-10-26T09:16:20.000Z</time>
      </trkpt>
      <trkpt lat="47.90077" lon="3.72447">
        <ele>135</ele>
        <time>2019-10-26T09:16:21.000Z</time>
      </trkpt>
      <trkpt lat="47.90077" lon="3.72449">
        <ele>135</ele>
        <time>2019-10-26T09:16:22.000Z</time>
      </trkpt>
      <trkpt lat="47.90076" lon="3.72452">
        <ele>136</ele>
        <time>2019-10-26T09:16:23.000Z</time>
      </trkpt>
      <trkpt lat="47.90075" lon="3.72455">
        <ele>136</ele>
        <time>2019-10-26T09:16:24.000Z</time>
      </trkpt>
      <trkpt lat="47.90074" lon="3.72458">
        <ele>136</ele>
        <time>2019-10-26T09:16:25.000Z</time>
      </trkpt>
      <trkpt lat="47.90073" lon="3.7246">
        <ele>136</ele>
        <time>2019-10-26T09:16:26.000Z</time>
      </trkpt>
      <trkpt lat="47.90072" lon="3.72463">
        <ele>136</ele>
        <time>2019-10-26T09:16:27.000Z</time>
      </trkpt>
      <trkpt lat="47.90071" lon="3.72466">
        <ele>137</ele>
        <time>2019-10-26T09:16:28.000Z</time>
      </trkpt>
      <trkpt lat="47.9007" lon="3.72469">
        <ele>137</ele>
        <time>2019-10-26T09:16:29.000Z</time>
      </trkpt>
      <trkpt lat="47.90069" lon="3.72472">
        <ele>137</ele>
        <time>2019-10-26T09:16:30.000Z</time>
      </trkpt>
      <trkpt lat="47.90068" lon="3.72474">
        <ele>137</ele>
        <time>2019-10-26T09:16:31.000Z</time>
      </trkpt>
      <trkpt lat="47.90067" lon="3.72477">
        <ele>137</ele>
        <time>2019-10-26T09:16:32.000Z</time>
      </trkpt>
      <trkpt lat="47.90066" lon="3.7248">
        <ele>137</ele>
        <time>2019-10-26T09:16:33.000Z</time>
      </trkpt>
      <trkpt lat="47.90065" lon="3.72483">
        <ele>138</ele>
        <time>2019-10-26T09:16:34.000Z</time>
      </trkpt>
      <trkpt lat="47.90064" lon="3.72485">
        <ele>138</ele>
        <time>2019-10-26T09:16:35.000Z</time>
      </trkpt>
      <trkpt lat="47.90063" lon="3.72488">
        <ele>138</ele>
        <time>2019-10-26T09:16:36.000Z</time>
      </trkpt>
      <trkpt lat="47.90062" lon="3.7249">
        <ele>138</ele>
        <time>2019-10-26T09:16:37.000Z</time>
      </trkpt>
      <trkpt lat="47.90061" lon="3.72493">
        <ele>138</ele>
        <time>2019-10-26T09:16:38.000Z</time>
      </trkpt>
      <trkpt lat="47.9006" lon="3.72496">
        <ele>138</ele>
        <time>2019-10-26T09:16:39.000Z</time>
      </trkpt>
      <trkpt lat="47.90059" lon="3.72499">
        <ele>138</ele>
        <time>2019-10-26T09:16:40.000Z</time>
      </trkpt>
      <trkpt lat="47.90058" lon="3.72501">
        <ele>138</ele>
        <time>2019-10-26T09:16:41.000Z</time>
      </trkpt>
      <trkpt lat="47.90057" lon="3.72504">
        <ele>138</ele>
        <time>2019-10-26T09:16:42.000Z</time>
      </trkpt>
      <trkpt lat="47.90056" lon="3.72507">
        <ele>138</ele>
        <time>2019-10-26T09:16:43.000Z</time>
      </trkpt>
      <trkpt lat="47.90055" lon="3.72509">
        <ele>138</ele>
        <time>2019-10-26T09:16:44.000Z</time>
      </trkpt>
      <trkpt lat="47.90054" lon="3.72512">
        <ele>138</ele>
        <time>2019-10-26T09:16:45.000Z</time>
      </trkpt>
      <trkpt lat="47.90053" lon="3.72515">
        <ele>139</ele>
        <time>2019-10-26T09:16:46.000Z</time>
      </trkpt>
      <trkpt lat="47.90052" lon="3.72518">
        <ele>139</ele>
        <time>2019-10-26T09:16:47.000Z</time>
      </trkpt>
      <trkpt lat="47.9005" lon="3.7252">
        <ele>139</ele>
        <time>2019-10-26T09:16:48.000Z</time>
      </trkpt>
      <trkpt lat="47.9005" lon="3.72523">
        <ele>139</ele>
        <time>2019-10-26T09:16:49.000Z</time>
      </trkpt>
      <trkpt lat="47.90049" lon="3.72526">
        <ele>139</ele>
        <time>2019-10-26T09:16:50.000Z</time>
      </trkpt>
      <trkpt lat="47.90048" lon="3.72529">
        <ele>139</ele>
        <time>2019-10-26T09:16:51.000Z</time>
      </trkpt>
      <trkpt lat="47.90047" lon="3.72532">
        <ele>139</ele>
        <time>2019-10-26T09:16:52.000Z</time>
      </trkpt>
      <trkpt lat="47.90046" lon="3.72534">
        <ele>139</ele>
        <time>2019-10-26T09:16:53.000Z</time>
      </trkpt>
      <trkpt lat="47.90045" lon="3.72537">
        <ele>140</ele>
        <time>2019-10-26T09:16:54.000Z</time>
      </trkpt>
      <trkpt lat="47.90044" lon="3.7254">
        <ele>140</ele>
        <time>2019-10-26T09:16:55.000Z</time>
      </trkpt>
      <trkpt lat="47.90043" lon="3.72543">
        <ele>140</ele>
        <time>2019-10-26T09:16:56.000Z</time>
      </trkpt>
      <trkpt lat="47.90042" lon="3.72545">
        <ele>140</ele>
        <time>2019-10-26T09:16:57.000Z</time>
      </trkpt>
      <trkpt lat="47.90041" lon="3.72548">
        <ele>140</ele>
        <time>2019-10-26T09:16:58.000Z</time>
      </trkpt>
      <trkpt lat="47.9004" lon="3.72551">
        <ele>140</ele>
        <time>2019-10-26T09:16:59.000Z</time>
      </trkpt>
      <trkpt lat="47.9004" lon="3.72554">
        <ele>141</ele>
        <time>2019-10-26T09:17:00.000Z</time>
      </trkpt>
      <trkpt lat="47.90039" lon="3.72557">
        <ele>141</ele>
        <time>2019-10-26T09:17:01.000Z</time>
      </trkpt>
      <trkpt lat="47.90038" lon="3.72559">
        <ele>141</ele>
        <time>2019-10-26T09:17:02.000Z</time>
      </trkpt>
      <trkpt lat="47.90037" lon="3.72563">
        <ele>141</ele>
        <time>2019-10-26T09:17:03.000Z</time>
      </trkpt>
      <trkpt lat="47.90036" lon="3.72566">
        <ele>141</ele>
        <time>2019-10-26T09:17:04.000Z</time>
      </trkpt>
      <trkpt lat="47.90036" lon="3.72569">
        <ele>142</ele>
        <time>2019-10-26T09:17:05.000Z</time>
      </trkpt>
      <trkpt lat="47.90035" lon="3.72572">
        <ele>142</ele>
        <time>2019-10-26T09:17:06.000Z</time>
      </trkpt>
      <trkpt lat="47.90034" lon="3.72575">
        <ele>142</ele>
        <time>2019-10-26T09:17:07.000Z</time>
      </trkpt>
      <trkpt lat="47.90033" lon="3.72578">
        <ele>142</ele>
        <time>2019-10-26T09:17:08.000Z</time>
      </trkpt>
      <trkpt lat="47.90033" lon="3.72581">
        <ele>142</ele>
        <time>2019-10-26T09:17:09.000Z</time>
      </trkpt>
      <trkpt lat="47.90032" lon="3.72584">
        <ele>142</ele>
        <time>2019-10-26T09:17:10.000Z</time>
      </trkpt>
      <trkpt lat="47.90032" lon="3.72587">
        <ele>142</ele>
        <time>2019-10-26T09:17:11.000Z</time>
      </trkpt>
      <trkpt lat="47.90031" lon="3.7259">
        <ele>142</ele>
        <time>2019-10-26T09:17:12.000Z</time>
      </trkpt>
      <trkpt lat="47.90031" lon="3.72593">
        <ele>142</ele>
        <time>2019-10-26T09:17:13.000Z</time>
      </trkpt>
      <trkpt lat="47.90031" lon="3.72596">
        <ele>142</ele>
        <time>2019-10-26T09:17:14.000Z</time>
      </trkpt>
      <trkpt lat="47.9003" lon="3.72599">
        <ele>142</ele>
        <time>2019-10-26T09:17:15.000Z</time>
      </trkpt>
      <trkpt lat="47.9003" lon="3.72602">
        <ele>142</ele>
        <time>2019-10-26T09:17:16.000Z</time>
      </trkpt>
      <trkpt lat="47.90029" lon="3.72605">
        <ele>142</ele>
        <time>2019-10-26T09:17:17.000Z</time>
      </trkpt>
      <trkpt lat="47.90029" lon="3.72608">
        <ele>142</ele>
        <time>2019-10-26T09:17:18.000Z</time>
      </trkpt>
      <trkpt lat="47.90028" lon="3.72611">
        <ele>142</ele>
        <time>2019-10-26T09:17:19.000Z</time>
      </trkpt>
      <trkpt lat="47.90028" lon="3.72615">
        <ele>142</ele>
        <time>2019-10-26T09:17:20.000Z</time>
      </trkpt>
      <trkpt lat="47.90028" lon="3.72618">
        <ele>142</ele>
        <time>2019-10-26T09:17:21.000Z</time>
      </trkpt>
      <trkpt lat="47.90027" lon="3.72621">
        <ele>142</ele>
        <time>2019-10-26T09:17:22.000Z</time>
      </trkpt>
      <trkpt lat="47.90027" lon="3.72624">
        <ele>142</ele>
        <time>2019-10-26T09:17:23.000Z</time>
      </trkpt>
      <trkpt lat="47.90027" lon="3.72627">
        <ele>142</ele>
        <time>2019-10-26T09:17:24.000Z</time>
      </trkpt>
      <trkpt lat="47.90027" lon="3.7263">
        <ele>142</ele>
        <time>2019-10-26T09:17:25.000Z</time>
      </trkpt>
      <trkpt lat="47.90027" lon="3.72634">
        <ele>142</ele>
        <time>2019-10-26T09:17:26.000Z</time>
      </trkpt>
      <trkpt lat="47.90026" lon="3.72637">
        <ele>143</ele>
        <time>2019-10-26T09:17:27.000Z</time>
      </trkpt>
      <trkpt lat="47.90026" lon="3.7264">
        <ele>143</ele>
        <time>2019-10-26T09:17:28.000Z</time>
      </trkpt>
      <trkpt lat="47.90026" lon="3.72643">
        <ele>143</ele>
        <time>2019-10-26T09:17:29.000Z</time>
      </trkpt>
      <trkpt lat="47.90026" lon="3.72647">
        <ele>143</ele>
        <time>2019-10-26T09:17:30.000Z</time>
      </trkpt>
      <trkpt lat="47.90026" lon="3.7265">
        <ele>143</ele>
        <time>2019-10-26T09:17:31.000Z</time>
      </trkpt>
      <trkpt lat="47.90026" lon="3.72653">
        <ele>143</ele>
        <time>2019-10-26T09:17:32.000Z</time>
      </trkpt>
      <trkpt lat="47.90026" lon="3.72657">
        <ele>143</ele>
        <time>2019-10-26T09:17:33.000Z</time>
      </trkpt>
      <trkpt lat="47.90026" lon="3.7266">
        <ele>143</ele>
        <time>2019-10-26T09:17:34.000Z</time>
      </trkpt>
      <trkpt lat="47.90026" lon="3.72663">
        <ele>144</ele>
        <time>2019-10-26T09:17:35.000Z</time>
      </trkpt>
      <trkpt lat="47.90026" lon="3.72667">
        <ele>144</ele>
        <time>2019-10-26T09:17:36.000Z</time>
      </trkpt>
      <trkpt lat="47.90026" lon="3.7267">
        <ele>144</ele>
        <time>2019-10-26T09:17:37.000Z</time>
      </trkpt>
      <trkpt lat="47.90025" lon="3.72674">
        <ele>144</ele>
        <time>2019-10-26T09:17:38.000Z</time>
      </trkpt>
      <trkpt lat="47.90025" lon="3.72677">
        <ele>144</ele>
        <time>2019-10-26T09:17:39.000Z</time>
      </trkpt>
      <trkpt lat="47.90025" lon="3.7268">
        <ele>143</ele>
        <time>2019-10-26T09:17:40.000Z</time>
      </trkpt>
      <trkpt lat="47.90025" lon="3.72684">
        <ele>143</ele>
        <time>2019-10-26T09:17:41.000Z</time>
      </trkpt>
      <trkpt lat="47.90025" lon="3.72687">
        <ele>143</ele>
        <time>2019-10-26T09:17:42.000Z</time>
      </trkpt>
      <trkpt lat="47.90025" lon="3.72691">
        <ele>143</ele>
        <time>2019-10-26T09:17:43.000Z</time>
      </trkpt>
      <trkpt lat="47.90025" lon="3.72694">
        <ele>143</ele>
        <time>2019-10-26T09:17:44.000Z</time>
      </trkpt>
      <trkpt lat="47.90025" lon="3.72697">
        <ele>143</ele>
        <time>2019-10-26T09:17:45.000Z</time>
      </trkpt>
      <trkpt lat="47.90025" lon="3.727">
        <ele>143</ele>
        <time>2019-10-26T09:17:46.000Z</time>
      </trkpt>
      <trkpt lat="47.90025" lon="3.72704">
        <ele>143</ele>
        <time>2019-10-26T09:17:47.000Z</time>
      </trkpt>
      <trkpt lat="47.90025" lon="3.72707">
        <ele>143</ele>
        <time>2019-10-26T09:17:48.000Z</time>
      </trkpt>
      <trkpt lat="47.90024" lon="3.72711">
        <ele>143</ele>
        <time>2019-10-26T09:17:49.000Z</time>
      </trkpt>
      <trkpt lat="47.90024" lon="3.72714">
        <ele>143</ele>
        <time>2019-10-26T09:17:50.000Z</time>
      </trkpt>
      <trkpt lat="47.90024" lon="3.72718">
        <ele>143</ele>
        <time>2019-10-26T09:17:51.000Z</time>
      </trkpt>
      <trkpt lat="47.90024" lon="3.72721">
        <ele>143</ele>
        <time>2019-10-26T09:17:52.000Z</time>
      </trkpt>
      <trkpt lat="47.90024" lon="3.72725">
        <ele>143</ele>
        <time>2019-10-26T09:17:53.000Z</time>
      </trkpt>
      <trkpt lat="47.90024" lon="3.72728">
        <ele>143</ele>
        <time>2019-10-26T09:17:54.000Z</time>
      </trkpt>
      <trkpt lat="47.90024" lon="3.72732">
        <ele>143</ele>
        <time>2019-10-26T09:17:55.000Z</time>
      </trkpt>
      <trkpt lat="47.90024" lon="3.72735">
        <ele>142</ele>
        <time>2019-10-26T09:17:56.000Z</time>
      </trkpt>
      <trkpt lat="47.90023" lon="3.72739">
        <ele>142</ele>
        <time>2019-10-26T09:17:57.000Z</time>
      </trkpt>
      <trkpt lat="47.90023" lon="3.72743">
        <ele>142</ele>
        <time>2019-10-26T09:17:58.000Z</time>
      </trkpt>
      <trkpt lat="47.90023" lon="3.72746">
        <ele>142</ele>
        <time>2019-10-26T09:17:59.000Z</time>
      </trkpt>
      <trkpt lat="47.90023" lon="3.72749">
        <ele>142</ele>
        <time>2019-10-26T09:18:00.000Z</time>
      </trkpt>
      <trkpt lat="47.90023" lon="3.72753">
        <ele>142</ele>
        <time>2019-10-26T09:18:01.000Z</time>
      </trkpt>
      <trkpt lat="47.90023" lon="3.72756">
        <ele>142</ele>
        <time>2019-10-26T09:18:02.000Z</time>
      </trkpt>
      <trkpt lat="47.90022" lon="3.7276">
        <ele>142</ele>
        <time>2019-10-26T09:18:03.000Z</time>
      </trkpt>
      <trkpt lat="47.9002" lon="3.72762">
        <ele>142</ele>
        <time>2019-10-26T09:18:04.000Z</time>
      </trkpt>
      <trkpt lat="47.90018" lon="3.72764">
        <ele>142</ele>
        <time>2019-10-26T09:18:05.000Z</time>
      </trkpt>
      <trkpt lat="47.90016" lon="3.72765">
        <ele>142</ele>
        <time>2019-10-26T09:18:06.000Z</time>
      </trkpt>
      <trkpt lat="47.90013" lon="3.72765">
        <ele>142</ele>
        <time>2019-10-26T09:18:07.000Z</time>
      </trkpt>
      <trkpt lat="47.90011" lon="3.72765">
        <ele>142</ele>
        <time>2019-10-26T09:18:08.000Z</time>
      </trkpt>
      <trkpt lat="47.90009" lon="3.72765">
        <ele>142</ele>
        <time>2019-10-26T09:18:09.000Z</time>
      </trkpt>
      <trkpt lat="47.90007" lon="3.72765">
        <ele>142</ele>
        <time>2019-10-26T09:18:10.000Z</time>
      </trkpt>
      <trkpt lat="47.90004" lon="3.72764">
        <ele>141</ele>
        <time>2019-10-26T09:18:11.000Z</time>
      </trkpt>
      <trkpt lat="47.90002" lon="3.72764">
        <ele>141</ele>
        <time>2019-10-26T09:18:12.000Z</time>
      </trkpt>
      <trkpt lat="47.9" lon="3.72763">
        <ele>141</ele>
        <time>2019-10-26T09:18:13.000Z</time>
      </trkpt>
      <trkpt lat="47.89997" lon="3.72763">
        <ele>141</ele>
        <time>2019-10-26T09:18:14.000Z</time>
      </trkpt>
      <trkpt lat="47.89995" lon="3.72762">
        <ele>141</ele>
        <time>2019-10-26T09:18:15.000Z</time>
      </trkpt>
      <trkpt lat="47.89993" lon="3.72762">
        <ele>141</ele>
        <time>2019-10-26T09:18:16.000Z</time>
      </trkpt>
      <trkpt lat="47.89991" lon="3.72761">
        <ele>141</ele>
        <time>2019-10-26T09:18:17.000Z</time>
      </trkpt>
      <trkpt lat="47.89988" lon="3.7276">
        <ele>141</ele>
        <time>2019-10-26T09:18:18.000Z</time>
      </trkpt>
      <trkpt lat="47.89986" lon="3.7276">
        <ele>141</ele>
        <time>2019-10-26T09:18:19.000Z</time>
      </trkpt>
      <trkpt lat="47.89984" lon="3.72759">
        <ele>141</ele>
        <time>2019-10-26T09:18:20.000Z</time>
      </trkpt>
      <trkpt lat="47.89982" lon="3.72759">
        <ele>141</ele>
        <time>2019-10-26T09:18:21.000Z</time>
      </trkpt>
      <trkpt lat="47.8998" lon="3.72759">
        <ele>141</ele>
        <time>2019-10-26T09:18:22.000Z</time>
      </trkpt>
      <trkpt lat="47.89977" lon="3.72759">
        <ele>141</ele>
        <time>2019-10-26T09:18:23.000Z</time>
      </trkpt>
      <trkpt lat="47.89975" lon="3.72758">
        <ele>141</ele>
        <time>2019-10-26T09:18:24.000Z</time>
      </trkpt>
      <trkpt lat="47.89973" lon="3.72758">
        <ele>141</ele>
        <time>2019-10-26T09:18:25.000Z</time>
      </trkpt>
      <trkpt lat="47.89971" lon="3.72757">
        <ele>141</ele>
        <time>2019-10-26T09:18:26.000Z</time>
      </trkpt>
      <trkpt lat="47.89968" lon="3.72757">
        <ele>141</ele>
        <time>2019-10-26T09:18:27.000Z</time>
      </trkpt>
      <trkpt lat="47.89966" lon="3.72756">
        <ele>141</ele>
        <time>2019-10-26T09:18:28.000Z</time>
      </trkpt>
      <trkpt lat="47.89964" lon="3.72756">
        <ele>141</ele>
        <time>2019-10-26T09:18:29.000Z</time>
      </trkpt>
      <trkpt lat="47.89962" lon="3.72756">
        <ele>141</ele>
        <time>2019-10-26T09:18:30.000Z</time>
      </trkpt>
      <trkpt lat="47.8996" lon="3.72755">
        <ele>141</ele>
        <time>2019-10-26T09:18:31.000Z</time>
      </trkpt>
      <trkpt lat="47.89958" lon="3.72754">
        <ele>141</ele>
        <time>2019-10-26T09:18:32.000Z</time>
      </trkpt>
      <trkpt lat="47.89956" lon="3.72754">
        <ele>141</ele>
        <time>2019-10-26T09:18:33.000Z</time>
      </trkpt>
      <trkpt lat="47.89953" lon="3.72753">
        <ele>141</ele>
        <time>2019-10-26T09:18:34.000Z</time>
      </trkpt>
      <trkpt lat="47.89952" lon="3.72753">
        <ele>141</ele>
        <time>2019-10-26T09:18:35.000Z</time>
      </trkpt>
      <trkpt lat="47.89949" lon="3.72752">
        <ele>141</ele>
        <time>2019-10-26T09:18:36.000Z</time>
      </trkpt>
      <trkpt lat="47.89947" lon="3.72751">
        <ele>141</ele>
        <time>2019-10-26T09:18:37.000Z</time>
      </trkpt>
      <trkpt lat="47.89945" lon="3.72751">
        <ele>141</ele>
        <time>2019-10-26T09:18:38.000Z</time>
      </trkpt>
      <trkpt lat="47.89943" lon="3.7275">
        <ele>141</ele>
        <time>2019-10-26T09:18:39.000Z</time>
      </trkpt>
      <trkpt lat="47.89941" lon="3.7275">
        <ele>141</ele>
        <time>2019-10-26T09:18:40.000Z</time>
      </trkpt>
      <trkpt lat="47.89939" lon="3.7275">
        <ele>141</ele>
        <time>2019-10-26T09:18:41.000Z</time>
      </trkpt>
      <trkpt lat="47.89937" lon="3.72749">
        <ele>141</ele>
        <time>2019-10-26T09:18:42.000Z</time>
      </trkpt>
      <trkpt lat="47.89935" lon="3.72749">
        <ele>141</ele>
        <time>2019-10-26T09:18:43.000Z</time>
      </trkpt>
      <trkpt lat="47.89932" lon="3.72748">
        <ele>141</ele>
        <time>2019-10-26T09:18:44.000Z</time>
      </trkpt>
      <trkpt lat="47.8993" lon="3.72748">
        <ele>141</ele>
        <time>2019-10-26T09:18:45.000Z</time>
      </trkpt>
      <trkpt lat="47.89928" lon="3.72748">
        <ele>141</ele>
        <time>2019-10-26T09:18:46.000Z</time>
      </trkpt>
      <trkpt lat="47.89926" lon="3.72747">
        <ele>141</ele>
        <time>2019-10-26T09:18:47.000Z</time>
      </trkpt>
      <trkpt lat="47.89924" lon="3.72747">
        <ele>141</ele>
        <time>2019-10-26T09:18:48.000Z</time>
      </trkpt>
      <trkpt lat="47.89921" lon="3.72746">
        <ele>141</ele>
        <time>2019-10-26T09:18:49.000Z</time>
      </trkpt>
      <trkpt lat="47.89919" lon="3.72746">
        <ele>141</ele>
        <time>2019-10-26T09:18:50.000Z</time>
      </trkpt>
      <trkpt lat="47.89917" lon="3.72746">
        <ele>141</ele>
        <time>2019-10-26T09:18:51.000Z</time>
      </trkpt>
      <trkpt lat="47.89915" lon="3.72746">
        <ele>141</ele>
        <time>2019-10-26T09:18:52.000Z</time>
      </trkpt>
      <trkpt lat="47.89913" lon="3.72745">
        <ele>141</ele>
        <time>2019-10-26T09:18:53.000Z</time>
      </trkpt>
      <trkpt lat="47.89911" lon="3.72745">
        <ele>141</ele>
        <time>2019-10-26T09:18:54.000Z</time>
      </trkpt>
      <trkpt lat="47.89909" lon="3.72744">
        <ele>141</ele>
        <time>2019-10-26T09:18:55.000Z</time>
      </trkpt>
      <trkpt lat="47.89906" lon="3.72744">
        <ele>141</ele>
        <time>2019-10-26T09:18:56.000Z</time>
      </trkpt>
      <trkpt lat="47.89904" lon="3.72743">
        <ele>141</ele>
        <time>2019-10-26T09:18:57.000Z</time>
      </trkpt>
      <trkpt lat="47.89902" lon="3.72743">
        <ele>141</ele>
        <time>2019-10-26T09:18:58.000Z</time>
      </trkpt>
      <trkpt lat="47.899" lon="3.72743">
        <ele>142</ele>
        <time>2019-10-26T09:18:59.000Z</time>
      </trkpt>
      <trkpt lat="47.89897" lon="3.72742">
        <ele>142</ele>
        <time>2019-10-26T09:19:00.000Z</time>
      </trkpt>
      <trkpt lat="47.89895" lon="3.72742">
        <ele>142</ele>
        <time>2019-10-26T09:19:01.000Z</time>
      </trkpt>
      <trkpt lat="47.89893" lon="3.72742">
        <ele>142</ele>
        <time>2019-10-26T09:19:02.000Z</time>
      </trkpt>
      <trkpt lat="47.89891" lon="3.72742">
        <ele>142</ele>
        <time>2019-10-26T09:19:03.000Z</time>
      </trkpt>
      <trkpt lat="47.89889" lon="3.72741">
        <ele>142</ele>
        <time>2019-10-26T09:19:04.000Z</time>
      </trkpt>
      <trkpt lat="47.89887" lon="3.72741">
        <ele>142</ele>
        <time>2019-10-26T09:19:05.000Z</time>
      </trkpt>
      <trkpt lat="47.89884" lon="3.72741">
        <ele>143</ele>
        <time>2019-10-26T09:19:06.000Z</time>
      </trkpt>
      <trkpt lat="47.89882" lon="3.72741">
        <ele>143</ele>
        <time>2019-10-26T09:19:07.000Z</time>
      </trkpt>
      <trkpt lat="47.8988" lon="3.72741">
        <ele>143</ele>
        <time>2019-10-26T09:19:08.000Z</time>
      </trkpt>
      <trkpt lat="47.89878" lon="3.7274">
        <ele>143</ele>
        <time>2019-10-26T09:19:09.000Z</time>
      </trkpt>
      <trkpt lat="47.89875" lon="3.7274">
        <ele>143</ele>
        <time>2019-10-26T09:19:10.000Z</time>
      </trkpt>
      <trkpt lat="47.89873" lon="3.7274">
        <ele>143</ele>
        <time>2019-10-26T09:19:11.000Z</time>
      </trkpt>
      <trkpt lat="47.89871" lon="3.7274">
        <ele>143</ele>
        <time>2019-10-26T09:19:12.000Z</time>
      </trkpt>
      <trkpt lat="47.89869" lon="3.7274">
        <ele>143</ele>
        <time>2019-10-26T09:19:13.000Z</time>
      </trkpt>
      <trkpt lat="47.89867" lon="3.7274">
        <ele>144</ele>
        <time>2019-10-26T09:19:14.000Z</time>
      </trkpt>
      <trkpt lat="47.89865" lon="3.72739">
        <ele>144</ele>
        <time>2019-10-26T09:19:15.000Z</time>
      </trkpt>
      <trkpt lat="47.89863" lon="3.72739">
        <ele>144</ele>
        <time>2019-10-26T09:19:16.000Z</time>
      </trkpt>
      <trkpt lat="47.8986" lon="3.72738">
        <ele>144</ele>
        <time>2019-10-26T09:19:17.000Z</time>
      </trkpt>
      <trkpt lat="47.89858" lon="3.72738">
        <ele>144</ele>
        <time>2019-10-26T09:19:18.000Z</time>
      </trkpt>
      <trkpt lat="47.89856" lon="3.72738">
        <ele>144</ele>
        <time>2019-10-26T09:19:19.000Z</time>
      </trkpt>
      <trkpt lat="47.89854" lon="3.72738">
        <ele>145</ele>
        <time>2019-10-26T09:19:20.000Z</time>
      </trkpt>
      <trkpt lat="47.89852" lon="3.72737">
        <ele>145</ele>
        <time>2019-10-26T09:19:21.000Z</time>
      </trkpt>
      <trkpt lat="47.8985" lon="3.72737">
        <ele>145</ele>
        <time>2019-10-26T09:19:22.000Z</time>
      </trkpt>
      <trkpt lat="47.89848" lon="3.72737">
        <ele>145</ele>
        <time>2019-10-26T09:19:23.000Z</time>
      </trkpt>
      <trkpt lat="47.89845" lon="3.72736">
        <ele>145</ele>
        <time>2019-10-26T09:19:24.000Z</time>
      </trkpt>
      <trkpt lat="47.89843" lon="3.72736">
        <ele>145</ele>
        <time>2019-10-26T09:19:25.000Z</time>
      </trkpt>
      <trkpt lat="47.89841" lon="3.72736">
        <ele>146</ele>
        <time>2019-10-26T09:19:26.000Z</time>
      </trkpt>
      <trkpt lat="47.89839" lon="3.72736">
        <ele>146</ele>
        <time>2019-10-26T09:19:27.000Z</time>
      </trkpt>
      <trkpt lat="47.89836" lon="3.72736">
        <ele>146</ele>
        <time>2019-10-26T09:19:28.000Z</time>
      </trkpt>
      <trkpt lat="47.89834" lon="3.72736">
        <ele>146</ele>
        <time>2019-10-26T09:19:29.000Z</time>
      </trkpt>
      <trkpt lat="47.89831" lon="3.72736">
        <ele>147</ele>
        <time>2019-10-26T09:19:30.000Z</time>
      </trkpt>
      <trkpt lat="47.89829" lon="3.72736">
        <ele>147</ele>
        <time>2019-10-26T09:19:31.000Z</time>
      </trkpt>
      <trkpt lat="47.89827" lon="3.72736">
        <ele>147</ele>
        <time>2019-10-26T09:19:32.000Z</time>
      </trkpt>
      <trkpt lat="47.89824" lon="3.72736">
        <ele>147</ele>
        <time>2019-10-26T09:19:33.000Z</time>
      </trkpt>
      <trkpt lat="47.89822" lon="3.72736">
        <ele>147</ele>
        <time>2019-10-26T09:19:34.000Z</time>
      </trkpt>
      <trkpt lat="47.8982" lon="3.72737">
        <ele>148</ele>
        <time>2019-10-26T09:19:35.000Z</time>
      </trkpt>
      <trkpt lat="47.89818" lon="3.72737">
        <ele>148</ele>
        <time>2019-10-26T09:19:36.000Z</time>
      </trkpt>
      <trkpt lat="47.89815" lon="3.72736">
        <ele>148</ele>
        <time>2019-10-26T09:19:37.000Z</time>
      </trkpt>
      <trkpt lat="47.89813" lon="3.72736">
        <ele>148</ele>
        <time>2019-10-26T09:19:38.000Z</time>
      </trkpt>
      <trkpt lat="47.89811" lon="3.72735">
        <ele>148</ele>
        <time>2019-10-26T09:19:39.000Z</time>
      </trkpt>
      <trkpt lat="47.89808" lon="3.72735">
        <ele>148</ele>
        <time>2019-10-26T09:19:40.000Z</time>
      </trkpt>
      <trkpt lat="47.89806" lon="3.72734">
        <ele>148</ele>
        <time>2019-10-26T09:19:41.000Z</time>
      </trkpt>
      <trkpt lat="47.89804" lon="3.72733">
        <ele>148</ele>
        <time>2019-10-26T09:19:42.000Z</time>
      </trkpt>
      <trkpt lat="47.89802" lon="3.72733">
        <ele>148</ele>
        <time>2019-10-26T09:19:43.000Z</time>
      </trkpt>
      <trkpt lat="47.898" lon="3.72732">
        <ele>148</ele>
        <time>2019-10-26T09:19:44.000Z</time>
      </trkpt>
      <trkpt lat="47.89797" lon="3.72731">
        <ele>148</ele>
        <time>2019-10-26T09:19:45.000Z</time>
      </trkpt>
      <trkpt lat="47.89795" lon="3.72731">
        <ele>148</ele>
        <time>2019-10-26T09:19:46.000Z</time>
      </trkpt>
      <trkpt lat="47.89793" lon="3.7273">
        <ele>149</ele>
        <time>2019-10-26T09:19:47.000Z</time>
      </trkpt>
      <trkpt lat="47.89791" lon="3.72729">
        <ele>149</ele>
        <time>2019-10-26T09:19:48.000Z</time>
      </trkpt>
      <trkpt lat="47.89788" lon="3.72729">
        <ele>149</ele>
        <time>2019-10-26T09:19:49.000Z</time>
      </trkpt>
      <trkpt lat="47.89786" lon="3.72728">
        <ele>149</ele>
        <time>2019-10-26T09:19:50.000Z</time>
      </trkpt>
      <trkpt lat="47.89784" lon="3.72727">
        <ele>149</ele>
        <time>2019-10-26T09:19:51.000Z</time>
      </trkpt>
      <trkpt lat="47.89782" lon="3.72726">
        <ele>149</ele>
        <time>2019-10-26T09:19:52.000Z</time>
      </trkpt>
      <trkpt lat="47.8978" lon="3.72726">
        <ele>149</ele>
        <time>2019-10-26T09:19:53.000Z</time>
      </trkpt>
      <trkpt lat="47.89778" lon="3.72725">
        <ele>149</ele>
        <time>2019-10-26T09:19:54.000Z</time>
      </trkpt>
      <trkpt lat="47.89775" lon="3.72724">
        <ele>149</ele>
        <time>2019-10-26T09:19:55.000Z</time>
      </trkpt>
      <trkpt lat="47.89773" lon="3.72724">
        <ele>149</ele>
        <time>2019-10-26T09:19:56.000Z</time>
      </trkpt>
      <trkpt lat="47.89771" lon="3.72723">
        <ele>149</ele>
        <time>2019-10-26T09:19:57.000Z</time>
      </trkpt>
      <trkpt lat="47.89769" lon="3.72723">
        <ele>149</ele>
        <time>2019-10-26T09:19:58.000Z</time>
      </trkpt>
      <trkpt lat="47.89767" lon="3.72722">
        <ele>149</ele>
        <time>2019-10-26T09:19:59.000Z</time>
      </trkpt>
      <trkpt lat="47.89765" lon="3.72722">
        <ele>149</ele>
        <time>2019-10-26T09:20:00.000Z</time>
      </trkpt>
      <trkpt lat="47.89762" lon="3.72721">
        <ele>149</ele>
        <time>2019-10-26T09:20:01.000Z</time>
      </trkpt>
      <trkpt lat="47.8976" lon="3.7272">
        <ele>149</ele>
        <time>2019-10-26T09:20:02.000Z</time>
      </trkpt>
      <trkpt lat="47.89758" lon="3.7272">
        <ele>149</ele>
        <time>2019-10-26T09:20:03.000Z</time>
      </trkpt>
      <trkpt lat="47.89756" lon="3.7272">
        <ele>150</ele>
        <time>2019-10-26T09:20:04.000Z</time>
      </trkpt>
      <trkpt lat="47.89754" lon="3.72719">
        <ele>150</ele>
        <time>2019-10-26T09:20:05.000Z</time>
      </trkpt>
      <trkpt lat="47.89752" lon="3.72719">
        <ele>150</ele>
        <time>2019-10-26T09:20:06.000Z</time>
      </trkpt>
      <trkpt lat="47.8975" lon="3.72718">
        <ele>150</ele>
        <time>2019-10-26T09:20:07.000Z</time>
      </trkpt>
      <trkpt lat="47.89747" lon="3.72717">
        <ele>150</ele>
        <time>2019-10-26T09:20:08.000Z</time>
      </trkpt>
      <trkpt lat="47.89745" lon="3.72717">
        <ele>150</ele>
        <time>2019-10-26T09:20:09.000Z</time>
      </trkpt>
      <trkpt lat="47.89743" lon="3.72716">
        <ele>150</ele>
        <time>2019-10-26T09:20:10.000Z</time>
      </trkpt>
      <trkpt lat="47.89741" lon="3.72716">
        <ele>150</ele>
        <time>2019-10-26T09:20:11.000Z</time>
      </trkpt>
      <trkpt lat="47.89739" lon="3.72715">
        <ele>150</ele>
        <time>2019-10-26T09:20:12.000Z</time>
      </trkpt>
      <trkpt lat="47.89737" lon="3.72715">
        <ele>150</ele>
        <time>2019-10-26T09:20:13.000Z</time>
      </trkpt>
      <trkpt lat="47.89734" lon="3.72715">
        <ele>150</ele>
        <time>2019-10-26T09:20:14.000Z</time>
      </trkpt>
      <trkpt lat="47.89732" lon="3.72715">
        <ele>150</ele>
        <time>2019-10-26T09:20:15.000Z</time>
      </trkpt>
      <trkpt lat="47.8973" lon="3.72714">
        <ele>150</ele>
        <time>2019-10-26T09:20:16.000Z</time>
      </trkpt>
      <trkpt lat="47.89728" lon="3.72714">
        <ele>150</ele>
        <time>2019-10-26T09:20:17.000Z</time>
      </trkpt>
      <trkpt lat="47.89725" lon="3.72713">
        <ele>150</ele>
        <time>2019-10-26T09:20:18.000Z</time>
      </trkpt>
      <trkpt lat="47.89723" lon="3.72713">
        <ele>150</ele>
        <time>2019-10-26T09:20:19.000Z</time>
      </trkpt>
      <trkpt lat="47.89721" lon="3.72713">
        <ele>150</ele>
        <time>2019-10-26T09:20:20.000Z</time>
      </trkpt>
      <trkpt lat="47.89719" lon="3.72712">
        <ele>151</ele>
        <time>2019-10-26T09:20:21.000Z</time>
      </trkpt>
      <trkpt lat="47.89717" lon="3.72712">
        <ele>151</ele>
        <time>2019-10-26T09:20:22.000Z</time>
      </trkpt>
      <trkpt lat="47.89714" lon="3.72712">
        <ele>151</ele>
        <time>2019-10-26T09:20:23.000Z</time>
      </trkpt>
      <trkpt lat="47.89712" lon="3.72712">
        <ele>151</ele>
        <time>2019-10-26T09:20:24.000Z</time>
      </trkpt>
      <trkpt lat="47.8971" lon="3.72711">
        <ele>151</ele>
        <time>2019-10-26T09:20:25.000Z</time>
      </trkpt>
      <trkpt lat="47.89708" lon="3.72711">
        <ele>151</ele>
        <time>2019-10-26T09:20:26.000Z</time>
      </trkpt>
      <trkpt lat="47.89706" lon="3.72711">
        <ele>151</ele>
        <time>2019-10-26T09:20:27.000Z</time>
      </trkpt>
      <trkpt lat="47.89704" lon="3.7271">
        <ele>151</ele>
        <time>2019-10-26T09:20:28.000Z</time>
      </trkpt>
      <trkpt lat="47.89702" lon="3.7271">
        <ele>151</ele>
        <time>2019-10-26T09:20:29.000Z</time>
      </trkpt>
      <trkpt lat="47.897" lon="3.7271">
        <ele>151</ele>
        <time>2019-10-26T09:20:30.000Z</time>
      </trkpt>
      <trkpt lat="47.89697" lon="3.72709">
        <ele>151</ele>
        <time>2019-10-26T09:20:31.000Z</time>
      </trkpt>
      <trkpt lat="47.89695" lon="3.72709">
        <ele>151</ele>
        <time>2019-10-26T09:20:32.000Z</time>
      </trkpt>
      <trkpt lat="47.89693" lon="3.72709">
        <ele>151</ele>
        <time>2019-10-26T09:20:33.000Z</time>
      </trkpt>
      <trkpt lat="47.89691" lon="3.72708">
        <ele>151</ele>
        <time>2019-10-26T09:20:34.000Z</time>
      </trkpt>
      <trkpt lat="47.89689" lon="3.72708">
        <ele>151</ele>
        <time>2019-10-26T09:20:35.000Z</time>
      </trkpt>
      <trkpt lat="47.89687" lon="3.72708">
        <ele>151</ele>
        <time>2019-10-26T09:20:36.000Z</time>
      </trkpt>
      <trkpt lat="47.89685" lon="3.72708">
        <ele>152</ele>
        <time>2019-10-26T09:20:37.000Z</time>
      </trkpt>
      <trkpt lat="47.89682" lon="3.72707">
        <ele>152</ele>
        <time>2019-10-26T09:20:38.000Z</time>
      </trkpt>
      <trkpt lat="47.8968" lon="3.72707">
        <ele>152</ele>
        <time>2019-10-26T09:20:39.000Z</time>
      </trkpt>
      <trkpt lat="47.89678" lon="3.72707">
        <ele>152</ele>
        <time>2019-10-26T09:20:40.000Z</time>
      </trkpt>
      <trkpt lat="47.89676" lon="3.72707">
        <ele>152</ele>
        <time>2019-10-26T09:20:41.000Z</time>
      </trkpt>
      <trkpt lat="47.89674" lon="3.72706">
        <ele>152</ele>
        <time>2019-10-26T09:20:42.000Z</time>
      </trkpt>
      <trkpt lat="47.89672" lon="3.72706">
        <ele>152</ele>
        <time>2019-10-26T09:20:43.000Z</time>
      </trkpt>
      <trkpt lat="47.89669" lon="3.72706">
        <ele>152</ele>
        <time>2019-10-26T09:20:44.000Z</time>
      </trkpt>
      <trkpt lat="47.89667" lon="3.72706">
        <ele>152</ele>
        <time>2019-10-26T09:20:45.000Z</time>
      </trkpt>
      <trkpt lat="47.89665" lon="3.72706">
        <ele>152</ele>
        <time>2019-10-26T09:20:46.000Z</time>
      </trkpt>
      <trkpt lat="47.89663" lon="3.72706">
        <ele>152</ele>
        <time>2019-10-26T09:20:47.000Z</time>
      </trkpt>
      <trkpt lat="47.89661" lon="3.72705">
        <ele>152</ele>
        <time>2019-10-26T09:20:48.000Z</time>
      </trkpt>
      <trkpt lat="47.89659" lon="3.72705">
        <ele>152</ele>
        <time>2019-10-26T09:20:49.000Z</time>
      </trkpt>
      <trkpt lat="47.89657" lon="3.72705">
        <ele>152</ele>
        <time>2019-10-26T09:20:50.000Z</time>
      </trkpt>
      <trkpt lat="47.89655" lon="3.72704">
        <ele>152</ele>
        <time>2019-10-26T09:20:51.000Z</time>
      </trkpt>
      <trkpt lat="47.89653" lon="3.72704">
        <ele>152</ele>
        <time>2019-10-26T09:20:52.000Z</time>
      </trkpt>
      <trkpt lat="47.8965" lon="3.72704">
        <ele>152</ele>
        <time>2019-10-26T09:20:53.000Z</time>
      </trkpt>
      <trkpt lat="47.89648" lon="3.72703">
        <ele>152</ele>
        <time>2019-10-26T09:20:54.000Z</time>
      </trkpt>
      <trkpt lat="47.89646" lon="3.72703">
        <ele>153</ele>
        <time>2019-10-26T09:20:55.000Z</time>
      </trkpt>
      <trkpt lat="47.89644" lon="3.72702">
        <ele>153</ele>
        <time>2019-10-26T09:20:56.000Z</time>
      </trkpt>
      <trkpt lat="47.89642" lon="3.72702">
        <ele>153</ele>
        <time>2019-10-26T09:20:57.000Z</time>
      </trkpt>
      <trkpt lat="47.8964" lon="3.72702">
        <ele>153</ele>
        <time>2019-10-26T09:20:58.000Z</time>
      </trkpt>
      <trkpt lat="47.89638" lon="3.72702">
        <ele>153</ele>
        <time>2019-10-26T09:20:59.000Z</time>
      </trkpt>
      <trkpt lat="47.89635" lon="3.72701">
        <ele>153</ele>
        <time>2019-10-26T09:21:00.000Z</time>
      </trkpt>
      <trkpt lat="47.89633" lon="3.72701">
        <ele>153</ele>
        <time>2019-10-26T09:21:01.000Z</time>
      </trkpt>
      <trkpt lat="47.89631" lon="3.72701">
        <ele>152</ele>
        <time>2019-10-26T09:21:02.000Z</time>
      </trkpt>
      <trkpt lat="47.89629" lon="3.727">
        <ele>152</ele>
        <time>2019-10-26T09:21:03.000Z</time>
      </trkpt>
      <trkpt lat="47.89627" lon="3.727">
        <ele>152</ele>
        <time>2019-10-26T09:21:04.000Z</time>
      </trkpt>
      <trkpt lat="47.89624" lon="3.72699">
        <ele>152</ele>
        <time>2019-10-26T09:21:05.000Z</time>
      </trkpt>
      <trkpt lat="47.89622" lon="3.72699">
        <ele>152</ele>
        <time>2019-10-26T09:21:06.000Z</time>
      </trkpt>
      <trkpt lat="47.8962" lon="3.72699">
        <ele>152</ele>
        <time>2019-10-26T09:21:07.000Z</time>
      </trkpt>
      <trkpt lat="47.89618" lon="3.72698">
        <ele>152</ele>
        <time>2019-10-26T09:21:08.000Z</time>
      </trkpt>
      <trkpt lat="47.89616" lon="3.72698">
        <ele>152</ele>
        <time>2019-10-26T09:21:09.000Z</time>
      </trkpt>
      <trkpt lat="47.89614" lon="3.72698">
        <ele>152</ele>
        <time>2019-10-26T09:21:10.000Z</time>
      </trkpt>
      <trkpt lat="47.89611" lon="3.72697">
        <ele>152</ele>
        <time>2019-10-26T09:21:11.000Z</time>
      </trkpt>
      <trkpt lat="47.89609" lon="3.72697">
        <ele>152</ele>
        <time>2019-10-26T09:21:12.000Z</time>
      </trkpt>
      <trkpt lat="47.89607" lon="3.72697">
        <ele>152</ele>
        <time>2019-10-26T09:21:13.000Z</time>
      </trkpt>
      <trkpt lat="47.89605" lon="3.72696">
        <ele>152</ele>
        <time>2019-10-26T09:21:14.000Z</time>
      </trkpt>
      <trkpt lat="47.89603" lon="3.72696">
        <ele>152</ele>
        <time>2019-10-26T09:21:15.000Z</time>
      </trkpt>
      <trkpt lat="47.89601" lon="3.72696">
        <ele>152</ele>
        <time>2019-10-26T09:21:16.000Z</time>
      </trkpt>
      <trkpt lat="47.89599" lon="3.72695">
        <ele>151</ele>
        <time>2019-10-26T09:21:17.000Z</time>
      </trkpt>
      <trkpt lat="47.89597" lon="3.72695">
        <ele>151</ele>
        <time>2019-10-26T09:21:18.000Z</time>
      </trkpt>
      <trkpt lat="47.89595" lon="3.72694">
        <ele>151</ele>
        <time>2019-10-26T09:21:19.000Z</time>
      </trkpt>
      <trkpt lat="47.89593" lon="3.72694">
        <ele>151</ele>
        <time>2019-10-26T09:21:20.000Z</time>
      </trkpt>
      <trkpt lat="47.89591" lon="3.72693">
        <ele>151</ele>
        <time>2019-10-26T09:21:21.000Z</time>
      </trkpt>
      <trkpt lat="47.89589" lon="3.72693">
        <ele>151</ele>
        <time>2019-10-26T09:21:22.000Z</time>
      </trkpt>
      <trkpt lat="47.89587" lon="3.72692">
        <ele>151</ele>
        <time>2019-10-26T09:21:23.000Z</time>
      </trkpt>
      <trkpt lat="47.89584" lon="3.72692">
        <ele>151</ele>
        <time>2019-10-26T09:21:24.000Z</time>
      </trkpt>
      <trkpt lat="47.89582" lon="3.72692">
        <ele>151</ele>
        <time>2019-10-26T09:21:25.000Z</time>
      </trkpt>
      <trkpt lat="47.8958" lon="3.72691">
        <ele>151</ele>
        <time>2019-10-26T09:21:26.000Z</time>
      </trkpt>
      <trkpt lat="47.89578" lon="3.72691">
        <ele>151</ele>
        <time>2019-10-26T09:21:27.000Z</time>
      </trkpt>
      <trkpt lat="47.89575" lon="3.72691">
        <ele>151</ele>
        <time>2019-10-26T09:21:28.000Z</time>
      </trkpt>
      <trkpt lat="47.89573" lon="3.7269">
        <ele>151</ele>
        <time>2019-10-26T09:21:29.000Z</time>
      </trkpt>
      <trkpt lat="47.89571" lon="3.7269">
        <ele>151</ele>
        <time>2019-10-26T09:21:30.000Z</time>
      </trkpt>
      <trkpt lat="47.89569" lon="3.72689">
        <ele>151</ele>
        <time>2019-10-26T09:21:31.000Z</time>
      </trkpt>
      <trkpt lat="47.89567" lon="3.72689">
        <ele>151</ele>
        <time>2019-10-26T09:21:32.000Z</time>
      </trkpt>
      <trkpt lat="47.89565" lon="3.72689">
        <ele>151</ele>
        <time>2019-10-26T09:21:33.000Z</time>
      </trkpt>
      <trkpt lat="47.89562" lon="3.72689">
        <ele>151</ele>
        <time>2019-10-26T09:21:34.000Z</time>
      </trkpt>
      <trkpt lat="47.8956" lon="3.72689">
        <ele>151</ele>
        <time>2019-10-26T09:21:35.000Z</time>
      </trkpt>
      <trkpt lat="47.89558" lon="3.72689">
        <ele>151</ele>
        <time>2019-10-26T09:21:36.000Z</time>
      </trkpt>
      <trkpt lat="47.89556" lon="3.72689">
        <ele>151</ele>
        <time>2019-10-26T09:21:37.000Z</time>
      </trkpt>
      <trkpt lat="47.89554" lon="3.72689">
        <ele>151</ele>
        <time>2019-10-26T09:21:38.000Z</time>
      </trkpt>
      <trkpt lat="47.89552" lon="3.72688">
        <ele>151</ele>
        <time>2019-10-26T09:21:39.000Z</time>
      </trkpt>
      <trkpt lat="47.89549" lon="3.72688">
        <ele>151</ele>
        <time>2019-10-26T09:21:40.000Z</time>
      </trkpt>
      <trkpt lat="47.89547" lon="3.72688">
        <ele>151</ele>
        <time>2019-10-26T09:21:41.000Z</time>
      </trkpt>
      <trkpt lat="47.89545" lon="3.72688">
        <ele>151</ele>
        <time>2019-10-26T09:21:42.000Z</time>
      </trkpt>
      <trkpt lat="47.89543" lon="3.72688">
        <ele>151</ele>
        <time>2019-10-26T09:21:43.000Z</time>
      </trkpt>
      <trkpt lat="47.89541" lon="3.72688">
        <ele>151</ele>
        <time>2019-10-26T09:21:44.000Z</time>
      </trkpt>
      <trkpt lat="47.89538" lon="3.72688">
        <ele>151</ele>
        <time>2019-10-26T09:21:45.000Z</time>
      </trkpt>
      <trkpt lat="47.89536" lon="3.72689">
        <ele>151</ele>
        <time>2019-10-26T09:21:46.000Z</time>
      </trkpt>
      <trkpt lat="47.89534" lon="3.72689">
        <ele>151</ele>
        <time>2019-10-26T09:21:47.000Z</time>
      </trkpt>
      <trkpt lat="47.89532" lon="3.72689">
        <ele>151</ele>
        <time>2019-10-26T09:21:48.000Z</time>
      </trkpt>
      <trkpt lat="47.8953" lon="3.72689">
        <ele>151</ele>
        <time>2019-10-26T09:21:49.000Z</time>
      </trkpt>
      <trkpt lat="47.89527" lon="3.72689">
        <ele>151</ele>
        <time>2019-10-26T09:21:50.000Z</time>
      </trkpt>
      <trkpt lat="47.89525" lon="3.72689">
        <ele>151</ele>
        <time>2019-10-26T09:21:51.000Z</time>
      </trkpt>
      <trkpt lat="47.89523" lon="3.72689">
        <ele>151</ele>
        <time>2019-10-26T09:21:52.000Z</time>
      </trkpt>
      <trkpt lat="47.89521" lon="3.7269">
        <ele>151</ele>
        <time>2019-10-26T09:21:53.000Z</time>
      </trkpt>
      <trkpt lat="47.89519" lon="3.7269">
        <ele>151</ele>
        <time>2019-10-26T09:21:54.000Z</time>
      </trkpt>
      <trkpt lat="47.89517" lon="3.7269">
        <ele>151</ele>
        <time>2019-10-26T09:21:55.000Z</time>
      </trkpt>
      <trkpt lat="47.89515" lon="3.7269">
        <ele>151</ele>
        <time>2019-10-26T09:21:56.000Z</time>
      </trkpt>
      <trkpt lat="47.89513" lon="3.7269">
        <ele>151</ele>
        <time>2019-10-26T09:21:57.000Z</time>
      </trkpt>
      <trkpt lat="47.89511" lon="3.7269">
        <ele>151</ele>
        <time>2019-10-26T09:21:58.000Z</time>
      </trkpt>
      <trkpt lat="47.89508" lon="3.72691">
        <ele>151</ele>
        <time>2019-10-26T09:21:59.000Z</time>
      </trkpt>
      <trkpt lat="47.89506" lon="3.72691">
        <ele>151</ele>
        <time>2019-10-26T09:22:00.000Z</time>
      </trkpt>
      <trkpt lat="47.89504" lon="3.72692">
        <ele>151</ele>
        <time>2019-10-26T09:22:01.000Z</time>
      </trkpt>
      <trkpt lat="47.89502" lon="3.72692">
        <ele>152</ele>
        <time>2019-10-26T09:22:02.000Z</time>
      </trkpt>
      <trkpt lat="47.895" lon="3.72693">
        <ele>152</ele>
        <time>2019-10-26T09:22:03.000Z</time>
      </trkpt>
      <trkpt lat="47.89498" lon="3.72693">
        <ele>152</ele>
        <time>2019-10-26T09:22:04.000Z</time>
      </trkpt>
      <trkpt lat="47.89496" lon="3.72693">
        <ele>152</ele>
        <time>2019-10-26T09:22:05.000Z</time>
      </trkpt>
      <trkpt lat="47.89494" lon="3.72693">
        <ele>152</ele>
        <time>2019-10-26T09:22:06.000Z</time>
      </trkpt>
      <trkpt lat="47.89491" lon="3.72694">
        <ele>152</ele>
        <time>2019-10-26T09:22:07.000Z</time>
      </trkpt>
      <trkpt lat="47.89489" lon="3.72694">
        <ele>152</ele>
        <time>2019-10-26T09:22:08.000Z</time>
      </trkpt>
      <trkpt lat="47.89487" lon="3.72694">
        <ele>152</ele>
        <time>2019-10-26T09:22:09.000Z</time>
      </trkpt>
      <trkpt lat="47.89484" lon="3.72695">
        <ele>152</ele>
        <time>2019-10-26T09:22:10.000Z</time>
      </trkpt>
      <trkpt lat="47.89482" lon="3.72695">
        <ele>152</ele>
        <time>2019-10-26T09:22:11.000Z</time>
      </trkpt>
      <trkpt lat="47.8948" lon="3.72695">
        <ele>152</ele>
        <time>2019-10-26T09:22:12.000Z</time>
      </trkpt>
      <trkpt lat="47.89478" lon="3.72695">
        <ele>152</ele>
        <time>2019-10-26T09:22:13.000Z</time>
      </trkpt>
      <trkpt lat="47.89476" lon="3.72695">
        <ele>152</ele>
        <time>2019-10-26T09:22:14.000Z</time>
      </trkpt>
      <trkpt lat="47.89473" lon="3.72695">
        <ele>152</ele>
        <time>2019-10-26T09:22:15.000Z</time>
      </trkpt>
      <trkpt lat="47.89471" lon="3.72695">
        <ele>152</ele>
        <time>2019-10-26T09:22:16.000Z</time>
      </trkpt>
      <trkpt lat="47.89469" lon="3.72696">
        <ele>152</ele>
        <time>2019-10-26T09:22:17.000Z</time>
      </trkpt>
      <trkpt lat="47.89467" lon="3.72696">
        <ele>152</ele>
        <time>2019-10-26T09:22:18.000Z</time>
      </trkpt>
      <trkpt lat="47.89465" lon="3.72696">
        <ele>152</ele>
        <time>2019-10-26T09:22:19.000Z</time>
      </trkpt>
      <trkpt lat="47.89463" lon="3.72696">
        <ele>152</ele>
        <time>2019-10-26T09:22:20.000Z</time>
      </trkpt>
      <trkpt lat="47.89461" lon="3.72697">
        <ele>152</ele>
        <time>2019-10-26T09:22:21.000Z</time>
      </trkpt>
      <trkpt lat="47.89459" lon="3.72697">
        <ele>152</ele>
        <time>2019-10-26T09:22:22.000Z</time>
      </trkpt>
      <trkpt lat="47.89457" lon="3.72697">
        <ele>152</ele>
        <time>2019-10-26T09:22:23.000Z</time>
      </trkpt>
      <trkpt lat="47.89455" lon="3.72698">
        <ele>152</ele>
        <time>2019-10-26T09:22:24.000Z</time>
      </trkpt>
      <trkpt lat="47.89452" lon="3.72698">
        <ele>153</ele>
        <time>2019-10-26T09:22:25.000Z</time>
      </trkpt>
      <trkpt lat="47.8945" lon="3.72698">
        <ele>153</ele>
        <time>2019-10-26T09:22:26.000Z</time>
      </trkpt>
      <trkpt lat="47.89448" lon="3.72698">
        <ele>153</ele>
        <time>2019-10-26T09:22:27.000Z</time>
      </trkpt>
      <trkpt lat="47.89446" lon="3.72698">
        <ele>153</ele>
        <time>2019-10-26T09:22:28.000Z</time>
      </trkpt>
      <trkpt lat="47.89444" lon="3.72699">
        <ele>153</ele>
        <time>2019-10-26T09:22:29.000Z</time>
      </trkpt>
      <trkpt lat="47.89442" lon="3.72699">
        <ele>153</ele>
        <time>2019-10-26T09:22:30.000Z</time>
      </trkpt>
      <trkpt lat="47.8944" lon="3.72699">
        <ele>153</ele>
        <time>2019-10-26T09:22:31.000Z</time>
      </trkpt>
      <trkpt lat="47.89438" lon="3.72699">
        <ele>153</ele>
        <time>2019-10-26T09:22:32.000Z</time>
      </trkpt>
      <trkpt lat="47.89435" lon="3.72699">
        <ele>153</ele>
        <time>2019-10-26T09:22:33.000Z</time>
      </trkpt>
      <trkpt lat="47.89433" lon="3.72699">
        <ele>153</ele>
        <time>2019-10-26T09:22:34.000Z</time>
      </trkpt>
      <trkpt lat="47.89431" lon="3.72699">
        <ele>153</ele>
        <time>2019-10-26T09:22:35.000Z</time>
      </trkpt>
      <trkpt lat="47.89429" lon="3.72699">
        <ele>153</ele>
        <time>2019-10-26T09:22:36.000Z</time>
      </trkpt>
      <trkpt lat="47.89427" lon="3.72699">
        <ele>153</ele>
        <time>2019-10-26T09:22:37.000Z</time>
      </trkpt>
      <trkpt lat="47.89425" lon="3.72699">
        <ele>153</ele>
        <time>2019-10-26T09:22:38.000Z</time>
      </trkpt>
      <trkpt lat="47.89422" lon="3.727">
        <ele>153</ele>
        <time>2019-10-26T09:22:39.000Z</time>
      </trkpt>
      <trkpt lat="47.8942" lon="3.727">
        <ele>153</ele>
        <time>2019-10-26T09:22:40.000Z</time>
      </trkpt>
      <trkpt lat="47.89418" lon="3.727">
        <ele>153</ele>
        <time>2019-10-26T09:22:41.000Z</time>
      </trkpt>
      <trkpt lat="47.89416" lon="3.727">
        <ele>153</ele>
        <time>2019-10-26T09:22:42.000Z</time>
      </trkpt>
      <trkpt lat="47.89413" lon="3.727">
        <ele>153</ele>
        <time>2019-10-26T09:22:43.000Z</time>
      </trkpt>
      <trkpt lat="47.89411" lon="3.727">
        <ele>153</ele>
        <time>2019-10-26T09:22:44.000Z</time>
      </trkpt>
      <trkpt lat="47.89409" lon="3.72701">
        <ele>153</ele>
        <time>2019-10-26T09:22:45.000Z</time>
      </trkpt>
      <trkpt lat="47.89406" lon="3.72701">
        <ele>153</ele>
        <time>2019-10-26T09:22:46.000Z</time>
      </trkpt>
      <trkpt lat="47.89404" lon="3.72701">
        <ele>153</ele>
        <time>2019-10-26T09:22:47.000Z</time>
      </trkpt>
      <trkpt lat="47.89402" lon="3.72701">
        <ele>153</ele>
        <time>2019-10-26T09:22:48.000Z</time>
      </trkpt>
      <trkpt lat="47.894" lon="3.72701">
        <ele>153</ele>
        <time>2019-10-26T09:22:49.000Z</time>
      </trkpt>
      <trkpt lat="47.89398" lon="3.72701">
        <ele>153</ele>
        <time>2019-10-26T09:22:50.000Z</time>
      </trkpt>
      <trkpt lat="47.89395" lon="3.72701">
        <ele>153</ele>
        <time>2019-10-26T09:22:51.000Z</time>
      </trkpt>
      <trkpt lat="47.89393" lon="3.72702">
        <ele>153</ele>
        <time>2019-10-26T09:22:52.000Z</time>
      </trkpt>
      <trkpt lat="47.89391" lon="3.72702">
        <ele>153</ele>
        <time>2019-10-26T09:22:53.000Z</time>
      </trkpt>
      <trkpt lat="47.89389" lon="3.72702">
        <ele>153</ele>
        <time>2019-10-26T09:22:54.000Z</time>
      </trkpt>
      <trkpt lat="47.89387" lon="3.72703">
        <ele>153</ele>
        <time>2019-10-26T09:22:55.000Z</time>
      </trkpt>
      <trkpt lat="47.89384" lon="3.72703">
        <ele>153</ele>
        <time>2019-10-26T09:22:56.000Z</time>
      </trkpt>
      <trkpt lat="47.89382" lon="3.72703">
        <ele>153</ele>
        <time>2019-10-26T09:22:57.000Z</time>
      </trkpt>
      <trkpt lat="47.8938" lon="3.72704">
        <ele>153</ele>
        <time>2019-10-26T09:22:58.000Z</time>
      </trkpt>
      <trkpt lat="47.89378" lon="3.72704">
        <ele>153</ele>
        <time>2019-10-26T09:22:59.000Z</time>
      </trkpt>
      <trkpt lat="47.89375" lon="3.72704">
        <ele>153</ele>
        <time>2019-10-26T09:23:00.000Z</time>
      </trkpt>
      <trkpt lat="47.89373" lon="3.72705">
        <ele>153</ele>
        <time>2019-10-26T09:23:01.000Z</time>
      </trkpt>
      <trkpt lat="47.89371" lon="3.72705">
        <ele>153</ele>
        <time>2019-10-26T09:23:02.000Z</time>
      </trkpt>
      <trkpt lat="47.89369" lon="3.72705">
        <ele>153</ele>
        <time>2019-10-26T09:23:03.000Z</time>
      </trkpt>
      <trkpt lat="47.89366" lon="3.72705">
        <ele>153</ele>
        <time>2019-10-26T09:23:04.000Z</time>
      </trkpt>
      <trkpt lat="47.89364" lon="3.72706">
        <ele>153</ele>
        <time>2019-10-26T09:23:05.000Z</time>
      </trkpt>
      <trkpt lat="47.89362" lon="3.72706">
        <ele>153</ele>
        <time>2019-10-26T09:23:06.000Z</time>
      </trkpt>
      <trkpt lat="47.8936" lon="3.72706">
        <ele>153</ele>
        <time>2019-10-26T09:23:07.000Z</time>
      </trkpt>
      <trkpt lat="47.89357" lon="3.72706">
        <ele>153</ele>
        <time>2019-10-26T09:23:08.000Z</time>
      </trkpt>
      <trkpt lat="47.89355" lon="3.72706">
        <ele>153</ele>
        <time>2019-10-26T09:23:09.000Z</time>
      </trkpt>
      <trkpt lat="47.89353" lon="3.72706">
        <ele>153</ele>
        <time>2019-10-26T09:23:10.000Z</time>
      </trkpt>
      <trkpt lat="47.89351" lon="3.72706">
        <ele>153</ele>
        <time>2019-10-26T09:23:11.000Z</time>
      </trkpt>
      <trkpt lat="47.89349" lon="3.72707">
        <ele>153</ele>
        <time>2019-10-26T09:23:12.000Z</time>
      </trkpt>
      <trkpt lat="47.89346" lon="3.72707">
        <ele>153</ele>
        <time>2019-10-26T09:23:13.000Z</time>
      </trkpt>
      <trkpt lat="47.89344" lon="3.72707">
        <ele>153</ele>
        <time>2019-10-26T09:23:14.000Z</time>
      </trkpt>
      <trkpt lat="47.89342" lon="3.72708">
        <ele>153</ele>
        <time>2019-10-26T09:23:15.000Z</time>
      </trkpt>
      <trkpt lat="47.8934" lon="3.72708">
        <ele>153</ele>
        <time>2019-10-26T09:23:16.000Z</time>
      </trkpt>
      <trkpt lat="47.89338" lon="3.72708">
        <ele>153</ele>
        <time>2019-10-26T09:23:17.000Z</time>
      </trkpt>
      <trkpt lat="47.89336" lon="3.72708">
        <ele>153</ele>
        <time>2019-10-26T09:23:18.000Z</time>
      </trkpt>
      <trkpt lat="47.89334" lon="3.72708">
        <ele>153</ele>
        <time>2019-10-26T09:23:19.000Z</time>
      </trkpt>
      <trkpt lat="47.89331" lon="3.72708">
        <ele>153</ele>
        <time>2019-10-26T09:23:20.000Z</time>
      </trkpt>
      <trkpt lat="47.89329" lon="3.72708">
        <ele>153</ele>
        <time>2019-10-26T09:23:21.000Z</time>
      </trkpt>
      <trkpt lat="47.89327" lon="3.72708">
        <ele>153</ele>
        <time>2019-10-26T09:23:22.000Z</time>
      </trkpt>
      <trkpt lat="47.89325" lon="3.72708">
        <ele>153</ele>
        <time>2019-10-26T09:23:23.000Z</time>
      </trkpt>
      <trkpt lat="47.89323" lon="3.72708">
        <ele>153</ele>
        <time>2019-10-26T09:23:24.000Z</time>
      </trkpt>
      <trkpt lat="47.8932" lon="3.72708">
        <ele>153</ele>
        <time>2019-10-26T09:23:25.000Z</time>
      </trkpt>
      <trkpt lat="47.89318" lon="3.72708">
        <ele>153</ele>
        <time>2019-10-26T09:23:26.000Z</time>
      </trkpt>
      <trkpt lat="47.89316" lon="3.72709">
        <ele>153</ele>
        <time>2019-10-26T09:23:27.000Z</time>
      </trkpt>
      <trkpt lat="47.89314" lon="3.72709">
        <ele>153</ele>
        <time>2019-10-26T09:23:28.000Z</time>
      </trkpt>
      <trkpt lat="47.89311" lon="3.72709">
        <ele>153</ele>
        <time>2019-10-26T09:23:29.000Z</time>
      </trkpt>
      <trkpt lat="47.89309" lon="3.72708">
        <ele>153</ele>
        <time>2019-10-26T09:23:30.000Z</time>
      </trkpt>
      <trkpt lat="47.89307" lon="3.72708">
        <ele>153</ele>
        <time>2019-10-26T09:23:31.000Z</time>
      </trkpt>
      <trkpt lat="47.89305" lon="3.72709">
        <ele>153</ele>
        <time>2019-10-26T09:23:32.000Z</time>
      </trkpt>
      <trkpt lat="47.89303" lon="3.72709">
        <ele>153</ele>
        <time>2019-10-26T09:23:33.000Z</time>
      </trkpt>
      <trkpt lat="47.89301" lon="3.72709">
        <ele>153</ele>
        <time>2019-10-26T09:23:34.000Z</time>
      </trkpt>
      <trkpt lat="47.89299" lon="3.72709">
        <ele>153</ele>
        <time>2019-10-26T09:23:35.000Z</time>
      </trkpt>
      <trkpt lat="47.89296" lon="3.72709">
        <ele>153</ele>
        <time>2019-10-26T09:23:36.000Z</time>
      </trkpt>
      <trkpt lat="47.89294" lon="3.7271">
        <ele>154</ele>
        <time>2019-10-26T09:23:37.000Z</time>
      </trkpt>
      <trkpt lat="47.89292" lon="3.72709">
        <ele>154</ele>
        <time>2019-10-26T09:23:38.000Z</time>
      </trkpt>
      <trkpt lat="47.8929" lon="3.7271">
        <ele>154</ele>
        <time>2019-10-26T09:23:39.000Z</time>
      </trkpt>
      <trkpt lat="47.89288" lon="3.7271">
        <ele>154</ele>
        <time>2019-10-26T09:23:40.000Z</time>
      </trkpt>
      <trkpt lat="47.89286" lon="3.7271">
        <ele>154</ele>
        <time>2019-10-26T09:23:41.000Z</time>
      </trkpt>
      <trkpt lat="47.89283" lon="3.7271">
        <ele>154</ele>
        <time>2019-10-26T09:23:42.000Z</time>
      </trkpt>
      <trkpt lat="47.89281" lon="3.7271">
        <ele>154</ele>
        <time>2019-10-26T09:23:43.000Z</time>
      </trkpt>
      <trkpt lat="47.89279" lon="3.7271">
        <ele>154</ele>
        <time>2019-10-26T09:23:44.000Z</time>
      </trkpt>
      <trkpt lat="47.89277" lon="3.7271">
        <ele>154</ele>
        <time>2019-10-26T09:23:45.000Z</time>
      </trkpt>
      <trkpt lat="47.89275" lon="3.7271">
        <ele>154</ele>
        <time>2019-10-26T09:23:46.000Z</time>
      </trkpt>
      <trkpt lat="47.89272" lon="3.7271">
        <ele>154</ele>
        <time>2019-10-26T09:23:47.000Z</time>
      </trkpt>
      <trkpt lat="47.8927" lon="3.7271">
        <ele>154</ele>
        <time>2019-10-26T09:23:48.000Z</time>
      </trkpt>
      <trkpt lat="47.89268" lon="3.7271">
        <ele>154</ele>
        <time>2019-10-26T09:23:49.000Z</time>
      </trkpt>
      <trkpt lat="47.89266" lon="3.7271">
        <ele>154</ele>
        <time>2019-10-26T09:23:50.000Z</time>
      </trkpt>
      <trkpt lat="47.89263" lon="3.7271">
        <ele>154</ele>
        <time>2019-10-26T09:23:51.000Z</time>
      </trkpt>
      <trkpt lat="47.89261" lon="3.7271">
        <ele>154</ele>
        <time>2019-10-26T09:23:52.000Z</time>
      </trkpt>
      <trkpt lat="47.89259" lon="3.7271">
        <ele>154</ele>
        <time>2019-10-26T09:23:53.000Z</time>
      </trkpt>
      <trkpt lat="47.89257" lon="3.7271">
        <ele>154</ele>
        <time>2019-10-26T09:23:54.000Z</time>
      </trkpt>
      <trkpt lat="47.89255" lon="3.7271">
        <ele>154</ele>
        <time>2019-10-26T09:23:55.000Z</time>
      </trkpt>
      <trkpt lat="47.89253" lon="3.7271">
        <ele>154</ele>
        <time>2019-10-26T09:23:56.000Z</time>
      </trkpt>
      <trkpt lat="47.8925" lon="3.7271">
        <ele>154</ele>
        <time>2019-10-26T09:23:57.000Z</time>
      </trkpt>
      <trkpt lat="47.89248" lon="3.72709">
        <ele>155</ele>
        <time>2019-10-26T09:23:58.000Z</time>
      </trkpt>
      <trkpt lat="47.89246" lon="3.72709">
        <ele>155</ele>
        <time>2019-10-26T09:23:59.000Z</time>
      </trkpt>
      <trkpt lat="47.89244" lon="3.72709">
        <ele>155</ele>
        <time>2019-10-26T09:24:00.000Z</time>
      </trkpt>
      <trkpt lat="47.89241" lon="3.7271">
        <ele>155</ele>
        <time>2019-10-26T09:24:01.000Z</time>
      </trkpt>
      <trkpt lat="47.89239" lon="3.7271">
        <ele>155</ele>
        <time>2019-10-26T09:24:02.000Z</time>
      </trkpt>
      <trkpt lat="47.89237" lon="3.7271">
        <ele>155</ele>
        <time>2019-10-26T09:24:03.000Z</time>
      </trkpt>
      <trkpt lat="47.89235" lon="3.72709">
        <ele>155</ele>
        <time>2019-10-26T09:24:04.000Z</time>
      </trkpt>
      <trkpt lat="47.89232" lon="3.72709">
        <ele>155</ele>
        <time>2019-10-26T09:24:05.000Z</time>
      </trkpt>
      <trkpt lat="47.8923" lon="3.72709">
        <ele>155</ele>
        <time>2019-10-26T09:24:06.000Z</time>
      </trkpt>
      <trkpt lat="47.89228" lon="3.72709">
        <ele>155</ele>
        <time>2019-10-26T09:24:07.000Z</time>
      </trkpt>
      <trkpt lat="47.89226" lon="3.72709">
        <ele>155</ele>
        <time>2019-10-26T09:24:08.000Z</time>
      </trkpt>
      <trkpt lat="47.89224" lon="3.72709">
        <ele>155</ele>
        <time>2019-10-26T09:24:09.000Z</time>
      </trkpt>
      <trkpt lat="47.89221" lon="3.72708">
        <ele>155</ele>
        <time>2019-10-26T09:24:10.000Z</time>
      </trkpt>
      <trkpt lat="47.89219" lon="3.72708">
        <ele>155</ele>
        <time>2019-10-26T09:24:11.000Z</time>
      </trkpt>
      <trkpt lat="47.89217" lon="3.72708">
        <ele>155</ele>
        <time>2019-10-26T09:24:12.000Z</time>
      </trkpt>
      <trkpt lat="47.89215" lon="3.72708">
        <ele>155</ele>
        <time>2019-10-26T09:24:13.000Z</time>
      </trkpt>
      <trkpt lat="47.89212" lon="3.72707">
        <ele>155</ele>
        <time>2019-10-26T09:24:14.000Z</time>
      </trkpt>
      <trkpt lat="47.8921" lon="3.72707">
        <ele>155</ele>
        <time>2019-10-26T09:24:15.000Z</time>
      </trkpt>
      <trkpt lat="47.89208" lon="3.72706">
        <ele>155</ele>
        <time>2019-10-26T09:24:16.000Z</time>
      </trkpt>
      <trkpt lat="47.89206" lon="3.72706">
        <ele>155</ele>
        <time>2019-10-26T09:24:17.000Z</time>
      </trkpt>
      <trkpt lat="47.89203" lon="3.72706">
        <ele>156</ele>
        <time>2019-10-26T09:24:18.000Z</time>
      </trkpt>
      <trkpt lat="47.89201" lon="3.72705">
        <ele>156</ele>
        <time>2019-10-26T09:24:19.000Z</time>
      </trkpt>
      <trkpt lat="47.89199" lon="3.72705">
        <ele>156</ele>
        <time>2019-10-26T09:24:20.000Z</time>
      </trkpt>
      <trkpt lat="47.89197" lon="3.72705">
        <ele>156</ele>
        <time>2019-10-26T09:24:21.000Z</time>
      </trkpt>
      <trkpt lat="47.89194" lon="3.72705">
        <ele>156</ele>
        <time>2019-10-26T09:24:22.000Z</time>
      </trkpt>
      <trkpt lat="47.89192" lon="3.72705">
        <ele>156</ele>
        <time>2019-10-26T09:24:23.000Z</time>
      </trkpt>
      <trkpt lat="47.8919" lon="3.72704">
        <ele>156</ele>
        <time>2019-10-26T09:24:24.000Z</time>
      </trkpt>
      <trkpt lat="47.89187" lon="3.72704">
        <ele>156</ele>
        <time>2019-10-26T09:24:25.000Z</time>
      </trkpt>
      <trkpt lat="47.89185" lon="3.72704">
        <ele>156</ele>
        <time>2019-10-26T09:24:26.000Z</time>
      </trkpt>
      <trkpt lat="47.89183" lon="3.72704">
        <ele>157</ele>
        <time>2019-10-26T09:24:27.000Z</time>
      </trkpt>
      <trkpt lat="47.89181" lon="3.72704">
        <ele>157</ele>
        <time>2019-10-26T09:24:28.000Z</time>
      </trkpt>
      <trkpt lat="47.89178" lon="3.72704">
        <ele>157</ele>
        <time>2019-10-26T09:24:29.000Z</time>
      </trkpt>
      <trkpt lat="47.89176" lon="3.72704">
        <ele>157</ele>
        <time>2019-10-26T09:24:30.000Z</time>
      </trkpt>
      <trkpt lat="47.89174" lon="3.72704">
        <ele>157</ele>
        <time>2019-10-26T09:24:31.000Z</time>
      </trkpt>
      <trkpt lat="47.89171" lon="3.72704">
        <ele>157</ele>
        <time>2019-10-26T09:24:32.000Z</time>
      </trkpt>
      <trkpt lat="47.89169" lon="3.72704">
        <ele>157</ele>
        <time>2019-10-26T09:24:33.000Z</time>
      </trkpt>
      <trkpt lat="47.89167" lon="3.72703">
        <ele>157</ele>
        <time>2019-10-26T09:24:34.000Z</time>
      </trkpt>
      <trkpt lat="47.89164" lon="3.72703">
        <ele>157</ele>
        <time>2019-10-26T09:24:35.000Z</time>
      </trkpt>
      <trkpt lat="47.89162" lon="3.72703">
        <ele>157</ele>
        <time>2019-10-26T09:24:36.000Z</time>
      </trkpt>
      <trkpt lat="47.8916" lon="3.72703">
        <ele>157</ele>
        <time>2019-10-26T09:24:37.000Z</time>
      </trkpt>
      <trkpt lat="47.89158" lon="3.72702">
        <ele>157</ele>
        <time>2019-10-26T09:24:38.000Z</time>
      </trkpt>
      <trkpt lat="47.89156" lon="3.72702">
        <ele>157</ele>
        <time>2019-10-26T09:24:39.000Z</time>
      </trkpt>
      <trkpt lat="47.89154" lon="3.72701">
        <ele>157</ele>
        <time>2019-10-26T09:24:40.000Z</time>
      </trkpt>
      <trkpt lat="47.89151" lon="3.72701">
        <ele>158</ele>
        <time>2019-10-26T09:24:41.000Z</time>
      </trkpt>
      <trkpt lat="47.89149" lon="3.72701">
        <ele>158</ele>
        <time>2019-10-26T09:24:42.000Z</time>
      </trkpt>
      <trkpt lat="47.89147" lon="3.727">
        <ele>158</ele>
        <time>2019-10-26T09:24:43.000Z</time>
      </trkpt>
      <trkpt lat="47.89145" lon="3.727">
        <ele>158</ele>
        <time>2019-10-26T09:24:44.000Z</time>
      </trkpt>
      <trkpt lat="47.89143" lon="3.72699">
        <ele>158</ele>
        <time>2019-10-26T09:24:45.000Z</time>
      </trkpt>
      <trkpt lat="47.89141" lon="3.72699">
        <ele>158</ele>
        <time>2019-10-26T09:24:46.000Z</time>
      </trkpt>
      <trkpt lat="47.89139" lon="3.72699">
        <ele>158</ele>
        <time>2019-10-26T09:24:47.000Z</time>
      </trkpt>
      <trkpt lat="47.89137" lon="3.72698">
        <ele>158</ele>
        <time>2019-10-26T09:24:48.000Z</time>
      </trkpt>
      <trkpt lat="47.89135" lon="3.72698">
        <ele>158</ele>
        <time>2019-10-26T09:24:49.000Z</time>
      </trkpt>
      <trkpt lat="47.89133" lon="3.72697">
        <ele>157</ele>
        <time>2019-10-26T09:24:50.000Z</time>
      </trkpt>
      <trkpt lat="47.89131" lon="3.72697">
        <ele>157</ele>
        <time>2019-10-26T09:24:51.000Z</time>
      </trkpt>
      <trkpt lat="47.89128" lon="3.72696">
        <ele>157</ele>
        <time>2019-10-26T09:24:52.000Z</time>
      </trkpt>
      <trkpt lat="47.89126" lon="3.72695">
        <ele>157</ele>
        <time>2019-10-26T09:24:53.000Z</time>
      </trkpt>
      <trkpt lat="47.89124" lon="3.72695">
        <ele>157</ele>
        <time>2019-10-26T09:24:54.000Z</time>
      </trkpt>
      <trkpt lat="47.89122" lon="3.72695">
        <ele>157</ele>
        <time>2019-10-26T09:24:55.000Z</time>
      </trkpt>
      <trkpt lat="47.8912" lon="3.72694">
        <ele>157</ele>
        <time>2019-10-26T09:24:56.000Z</time>
      </trkpt>
      <trkpt lat="47.89118" lon="3.72694">
        <ele>157</ele>
        <time>2019-10-26T09:24:57.000Z</time>
      </trkpt>
      <trkpt lat="47.89116" lon="3.72693">
        <ele>157</ele>
        <time>2019-10-26T09:24:58.000Z</time>
      </trkpt>
      <trkpt lat="47.89114" lon="3.72693">
        <ele>157</ele>
        <time>2019-10-26T09:24:59.000Z</time>
      </trkpt>
      <trkpt lat="47.89111" lon="3.72692">
        <ele>157</ele>
        <time>2019-10-26T09:25:00.000Z</time>
      </trkpt>
      <trkpt lat="47.89109" lon="3.72692">
        <ele>157</ele>
        <time>2019-10-26T09:25:01.000Z</time>
      </trkpt>
      <trkpt lat="47.89107" lon="3.72691">
        <ele>157</ele>
        <time>2019-10-26T09:25:02.000Z</time>
      </trkpt>
      <trkpt lat="47.89105" lon="3.72691">
        <ele>157</ele>
        <time>2019-10-26T09:25:03.000Z</time>
      </trkpt>
      <trkpt lat="47.89102" lon="3.7269">
        <ele>157</ele>
        <time>2019-10-26T09:25:04.000Z</time>
      </trkpt>
      <trkpt lat="47.891" lon="3.72689">
        <ele>157</ele>
        <time>2019-10-26T09:25:05.000Z</time>
      </trkpt>
      <trkpt lat="47.89098" lon="3.72689">
        <ele>157</ele>
        <time>2019-10-26T09:25:06.000Z</time>
      </trkpt>
      <trkpt lat="47.89096" lon="3.72688">
        <ele>157</ele>
        <time>2019-10-26T09:25:07.000Z</time>
      </trkpt>
      <trkpt lat="47.89094" lon="3.72687">
        <ele>157</ele>
        <time>2019-10-26T09:25:08.000Z</time>
      </trkpt>
      <trkpt lat="47.89092" lon="3.72687">
        <ele>157</ele>
        <time>2019-10-26T09:25:09.000Z</time>
      </trkpt>
      <trkpt lat="47.89089" lon="3.72686">
        <ele>157</ele>
        <time>2019-10-26T09:25:10.000Z</time>
      </trkpt>
      <trkpt lat="47.89087" lon="3.72686">
        <ele>157</ele>
        <time>2019-10-26T09:25:11.000Z</time>
      </trkpt>
      <trkpt lat="47.89085" lon="3.72685">
        <ele>157</ele>
        <time>2019-10-26T09:25:12.000Z</time>
      </trkpt>
      <trkpt lat="47.89083" lon="3.72684">
        <ele>157</ele>
        <time>2019-10-26T09:25:13.000Z</time>
      </trkpt>
      <trkpt lat="47.89081" lon="3.72684">
        <ele>157</ele>
        <time>2019-10-26T09:25:14.000Z</time>
      </trkpt>
      <trkpt lat="47.89079" lon="3.72683">
        <ele>157</ele>
        <time>2019-10-26T09:25:15.000Z</time>
      </trkpt>
      <trkpt lat="47.89077" lon="3.72683">
        <ele>157</ele>
        <time>2019-10-26T09:25:16.000Z</time>
      </trkpt>
      <trkpt lat="47.89075" lon="3.72682">
        <ele>157</ele>
        <time>2019-10-26T09:25:17.000Z</time>
      </trkpt>
      <trkpt lat="47.89072" lon="3.72682">
        <ele>157</ele>
        <time>2019-10-26T09:25:18.000Z</time>
      </trkpt>
      <trkpt lat="47.8907" lon="3.72681">
        <ele>157</ele>
        <time>2019-10-26T09:25:19.000Z</time>
      </trkpt>
      <trkpt lat="47.89068" lon="3.7268">
        <ele>157</ele>
        <time>2019-10-26T09:25:20.000Z</time>
      </trkpt>
      <trkpt lat="47.89066" lon="3.7268">
        <ele>157</ele>
        <time>2019-10-26T09:25:21.000Z</time>
      </trkpt>
      <trkpt lat="47.89064" lon="3.72679">
        <ele>157</ele>
        <time>2019-10-26T09:25:22.000Z</time>
      </trkpt>
      <trkpt lat="47.89062" lon="3.72679">
        <ele>157</ele>
        <time>2019-10-26T09:25:23.000Z</time>
      </trkpt>
      <trkpt lat="47.89059" lon="3.72678">
        <ele>157</ele>
        <time>2019-10-26T09:25:24.000Z</time>
      </trkpt>
      <trkpt lat="47.89057" lon="3.72677">
        <ele>157</ele>
        <time>2019-10-26T09:25:25.000Z</time>
      </trkpt>
      <trkpt lat="47.89055" lon="3.72677">
        <ele>157</ele>
        <time>2019-10-26T09:25:26.000Z</time>
      </trkpt>
      <trkpt lat="47.89053" lon="3.72676">
        <ele>157</ele>
        <time>2019-10-26T09:25:27.000Z</time>
      </trkpt>
      <trkpt lat="47.89051" lon="3.72676">
        <ele>157</ele>
        <time>2019-10-26T09:25:28.000Z</time>
      </trkpt>
      <trkpt lat="47.89049" lon="3.72675">
        <ele>157</ele>
        <time>2019-10-26T09:25:29.000Z</time>
      </trkpt>
      <trkpt lat="47.89046" lon="3.72674">
        <ele>157</ele>
        <time>2019-10-26T09:25:30.000Z</time>
      </trkpt>
      <trkpt lat="47.89044" lon="3.72674">
        <ele>157</ele>
        <time>2019-10-26T09:25:31.000Z</time>
      </trkpt>
      <trkpt lat="47.89042" lon="3.72673">
        <ele>157</ele>
        <time>2019-10-26T09:25:32.000Z</time>
      </trkpt>
      <trkpt lat="47.8904" lon="3.72673">
        <ele>157</ele>
        <time>2019-10-26T09:25:33.000Z</time>
      </trkpt>
      <trkpt lat="47.89038" lon="3.72672">
        <ele>157</ele>
        <time>2019-10-26T09:25:34.000Z</time>
      </trkpt>
      <trkpt lat="47.89036" lon="3.72671">
        <ele>157</ele>
        <time>2019-10-26T09:25:35.000Z</time>
      </trkpt>
      <trkpt lat="47.89034" lon="3.72671">
        <ele>157</ele>
        <time>2019-10-26T09:25:36.000Z</time>
      </trkpt>
      <trkpt lat="47.89032" lon="3.7267">
        <ele>157</ele>
        <time>2019-10-26T09:25:37.000Z</time>
      </trkpt>
      <trkpt lat="47.8903" lon="3.7267">
        <ele>157</ele>
        <time>2019-10-26T09:25:38.000Z</time>
      </trkpt>
      <trkpt lat="47.89028" lon="3.72669">
        <ele>157</ele>
        <time>2019-10-26T09:25:39.000Z</time>
      </trkpt>
      <trkpt lat="47.89025" lon="3.72668">
        <ele>157</ele>
        <time>2019-10-26T09:25:40.000Z</time>
      </trkpt>
      <trkpt lat="47.89023" lon="3.72668">
        <ele>157</ele>
        <time>2019-10-26T09:25:41.000Z</time>
      </trkpt>
      <trkpt lat="47.89021" lon="3.72667">
        <ele>157</ele>
        <time>2019-10-26T09:25:42.000Z</time>
      </trkpt>
      <trkpt lat="47.89019" lon="3.72666">
        <ele>157</ele>
        <time>2019-10-26T09:25:43.000Z</time>
      </trkpt>
      <trkpt lat="47.89017" lon="3.72665">
        <ele>157</ele>
        <time>2019-10-26T09:25:44.000Z</time>
      </trkpt>
      <trkpt lat="47.89015" lon="3.72664">
        <ele>157</ele>
        <time>2019-10-26T09:25:45.000Z</time>
      </trkpt>
      <trkpt lat="47.89013" lon="3.72664">
        <ele>157</ele>
        <time>2019-10-26T09:25:46.000Z</time>
      </trkpt>
      <trkpt lat="47.8901" lon="3.72663">
        <ele>157</ele>
        <time>2019-10-26T09:25:47.000Z</time>
      </trkpt>
      <trkpt lat="47.89008" lon="3.72663">
        <ele>157</ele>
        <time>2019-10-26T09:25:48.000Z</time>
      </trkpt>
      <trkpt lat="47.89006" lon="3.72662">
        <ele>157</ele>
        <time>2019-10-26T09:25:49.000Z</time>
      </trkpt>
      <trkpt lat="47.89004" lon="3.72662">
        <ele>158</ele>
        <time>2019-10-26T09:25:50.000Z</time>
      </trkpt>
      <trkpt lat="47.89002" lon="3.72662">
        <ele>158</ele>
        <time>2019-10-26T09:25:51.000Z</time>
      </trkpt>
      <trkpt lat="47.88999" lon="3.72661">
        <ele>158</ele>
        <time>2019-10-26T09:25:52.000Z</time>
      </trkpt>
      <trkpt lat="47.88997" lon="3.7266">
        <ele>158</ele>
        <time>2019-10-26T09:25:53.000Z</time>
      </trkpt>
      <trkpt lat="47.88995" lon="3.7266">
        <ele>158</ele>
        <time>2019-10-26T09:25:54.000Z</time>
      </trkpt>
      <trkpt lat="47.88993" lon="3.72659">
        <ele>158</ele>
        <time>2019-10-26T09:25:55.000Z</time>
      </trkpt>
      <trkpt lat="47.88991" lon="3.72659">
        <ele>158</ele>
        <time>2019-10-26T09:25:56.000Z</time>
      </trkpt>
      <trkpt lat="47.88989" lon="3.72658">
        <ele>158</ele>
        <time>2019-10-26T09:25:57.000Z</time>
      </trkpt>
      <trkpt lat="47.88987" lon="3.72657">
        <ele>158</ele>
        <time>2019-10-26T09:25:58.000Z</time>
      </trkpt>
      <trkpt lat="47.88985" lon="3.72657">
        <ele>158</ele>
        <time>2019-10-26T09:25:59.000Z</time>
      </trkpt>
      <trkpt lat="47.88983" lon="3.72656">
        <ele>158</ele>
        <time>2019-10-26T09:26:00.000Z</time>
      </trkpt>
      <trkpt lat="47.88981" lon="3.72656">
        <ele>158</ele>
        <time>2019-10-26T09:26:01.000Z</time>
      </trkpt>
      <trkpt lat="47.88979" lon="3.72655">
        <ele>158</ele>
        <time>2019-10-26T09:26:02.000Z</time>
      </trkpt>
      <trkpt lat="47.88976" lon="3.72654">
        <ele>158</ele>
        <time>2019-10-26T09:26:03.000Z</time>
      </trkpt>
      <trkpt lat="47.88974" lon="3.72654">
        <ele>158</ele>
        <time>2019-10-26T09:26:04.000Z</time>
      </trkpt>
      <trkpt lat="47.88972" lon="3.72653">
        <ele>159</ele>
        <time>2019-10-26T09:26:05.000Z</time>
      </trkpt>
      <trkpt lat="47.8897" lon="3.72653">
        <ele>159</ele>
        <time>2019-10-26T09:26:06.000Z</time>
      </trkpt>
      <trkpt lat="47.88968" lon="3.72652">
        <ele>159</ele>
        <time>2019-10-26T09:26:07.000Z</time>
      </trkpt>
      <trkpt lat="47.88966" lon="3.72652">
        <ele>159</ele>
        <time>2019-10-26T09:26:08.000Z</time>
      </trkpt>
      <trkpt lat="47.88964" lon="3.72651">
        <ele>159</ele>
        <time>2019-10-26T09:26:09.000Z</time>
      </trkpt>
      <trkpt lat="47.88962" lon="3.72651">
        <ele>159</ele>
        <time>2019-10-26T09:26:10.000Z</time>
      </trkpt>
      <trkpt lat="47.88959" lon="3.7265">
        <ele>159</ele>
        <time>2019-10-26T09:26:11.000Z</time>
      </trkpt>
      <trkpt lat="47.88957" lon="3.7265">
        <ele>159</ele>
        <time>2019-10-26T09:26:12.000Z</time>
      </trkpt>
      <trkpt lat="47.88955" lon="3.72649">
        <ele>159</ele>
        <time>2019-10-26T09:26:13.000Z</time>
      </trkpt>
      <trkpt lat="47.88953" lon="3.72648">
        <ele>159</ele>
        <time>2019-10-26T09:26:14.000Z</time>
      </trkpt>
      <trkpt lat="47.88951" lon="3.72647">
        <ele>159</ele>
        <time>2019-10-26T09:26:15.000Z</time>
      </trkpt>
      <trkpt lat="47.88949" lon="3.72647">
        <ele>159</ele>
        <time>2019-10-26T09:26:16.000Z</time>
      </trkpt>
      <trkpt lat="47.88947" lon="3.72646">
        <ele>159</ele>
        <time>2019-10-26T09:26:17.000Z</time>
      </trkpt>
      <trkpt lat="47.88944" lon="3.72646">
        <ele>159</ele>
        <time>2019-10-26T09:26:18.000Z</time>
      </trkpt>
      <trkpt lat="47.88942" lon="3.72645">
        <ele>159</ele>
        <time>2019-10-26T09:26:19.000Z</time>
      </trkpt>
      <trkpt lat="47.8894" lon="3.72645">
        <ele>159</ele>
        <time>2019-10-26T09:26:20.000Z</time>
      </trkpt>
      <trkpt lat="47.88938" lon="3.72644">
        <ele>159</ele>
        <time>2019-10-26T09:26:21.000Z</time>
      </trkpt>
      <trkpt lat="47.88936" lon="3.72644">
        <ele>159</ele>
        <time>2019-10-26T09:26:22.000Z</time>
      </trkpt>
      <trkpt lat="47.88934" lon="3.72643">
        <ele>159</ele>
        <time>2019-10-26T09:26:23.000Z</time>
      </trkpt>
      <trkpt lat="47.88932" lon="3.72643">
        <ele>159</ele>
        <time>2019-10-26T09:26:24.000Z</time>
      </trkpt>
      <trkpt lat="47.88929" lon="3.72642">
        <ele>159</ele>
        <time>2019-10-26T09:26:25.000Z</time>
      </trkpt>
      <trkpt lat="47.88927" lon="3.72642">
        <ele>159</ele>
        <time>2019-10-26T09:26:26.000Z</time>
      </trkpt>
      <trkpt lat="47.88925" lon="3.72641">
        <ele>159</ele>
        <time>2019-10-26T09:26:27.000Z</time>
      </trkpt>
      <trkpt lat="47.88923" lon="3.72641">
        <ele>159</ele>
        <time>2019-10-26T09:26:28.000Z</time>
      </trkpt>
      <trkpt lat="47.88921" lon="3.7264">
        <ele>159</ele>
        <time>2019-10-26T09:26:29.000Z</time>
      </trkpt>
      <trkpt lat="47.88919" lon="3.72639">
        <ele>159</ele>
        <time>2019-10-26T09:26:30.000Z</time>
      </trkpt>
      <trkpt lat="47.88917" lon="3.72638">
        <ele>159</ele>
        <time>2019-10-26T09:26:31.000Z</time>
      </trkpt>
      <trkpt lat="47.88914" lon="3.72638">
        <ele>159</ele>
        <time>2019-10-26T09:26:32.000Z</time>
      </trkpt>
      <trkpt lat="47.88912" lon="3.72637">
        <ele>159</ele>
        <time>2019-10-26T09:26:33.000Z</time>
      </trkpt>
      <trkpt lat="47.8891" lon="3.72637">
        <ele>159</ele>
        <time>2019-10-26T09:26:34.000Z</time>
      </trkpt>
      <trkpt lat="47.88908" lon="3.72636">
        <ele>159</ele>
        <time>2019-10-26T09:26:35.000Z</time>
      </trkpt>
      <trkpt lat="47.88906" lon="3.72636">
        <ele>159</ele>
        <time>2019-10-26T09:26:36.000Z</time>
      </trkpt>
      <trkpt lat="47.88904" lon="3.72635">
        <ele>159</ele>
        <time>2019-10-26T09:26:37.000Z</time>
      </trkpt>
      <trkpt lat="47.88902" lon="3.72635">
        <ele>159</ele>
        <time>2019-10-26T09:26:38.000Z</time>
      </trkpt>
      <trkpt lat="47.88899" lon="3.72634">
        <ele>159</ele>
        <time>2019-10-26T09:26:39.000Z</time>
      </trkpt>
      <trkpt lat="47.88897" lon="3.72634">
        <ele>159</ele>
        <time>2019-10-26T09:26:40.000Z</time>
      </trkpt>
      <trkpt lat="47.88895" lon="3.72633">
        <ele>159</ele>
        <time>2019-10-26T09:26:41.000Z</time>
      </trkpt>
      <trkpt lat="47.88893" lon="3.72633">
        <ele>159</ele>
        <time>2019-10-26T09:26:42.000Z</time>
      </trkpt>
      <trkpt lat="47.88891" lon="3.72632">
        <ele>159</ele>
        <time>2019-10-26T09:26:43.000Z</time>
      </trkpt>
      <trkpt lat="47.88889" lon="3.72631">
        <ele>159</ele>
        <time>2019-10-26T09:26:44.000Z</time>
      </trkpt>
      <trkpt lat="47.88887" lon="3.72631">
        <ele>159</ele>
        <time>2019-10-26T09:26:45.000Z</time>
      </trkpt>
      <trkpt lat="47.88884" lon="3.7263">
        <ele>160</ele>
        <time>2019-10-26T09:26:46.000Z</time>
      </trkpt>
      <trkpt lat="47.88882" lon="3.72629">
        <ele>160</ele>
        <time>2019-10-26T09:26:47.000Z</time>
      </trkpt>
      <trkpt lat="47.8888" lon="3.72629">
        <ele>160</ele>
        <time>2019-10-26T09:26:48.000Z</time>
      </trkpt>
      <trkpt lat="47.88878" lon="3.72628">
        <ele>160</ele>
        <time>2019-10-26T09:26:49.000Z</time>
      </trkpt>
      <trkpt lat="47.88876" lon="3.72627">
        <ele>160</ele>
        <time>2019-10-26T09:26:50.000Z</time>
      </trkpt>
      <trkpt lat="47.88874" lon="3.72627">
        <ele>160</ele>
        <time>2019-10-26T09:26:51.000Z</time>
      </trkpt>
      <trkpt lat="47.88872" lon="3.72626">
        <ele>160</ele>
        <time>2019-10-26T09:26:52.000Z</time>
      </trkpt>
      <trkpt lat="47.8887" lon="3.72625">
        <ele>160</ele>
        <time>2019-10-26T09:26:53.000Z</time>
      </trkpt>
      <trkpt lat="47.88868" lon="3.72625">
        <ele>161</ele>
        <time>2019-10-26T09:26:54.000Z</time>
      </trkpt>
      <trkpt lat="47.88865" lon="3.72624">
        <ele>161</ele>
        <time>2019-10-26T09:26:55.000Z</time>
      </trkpt>
      <trkpt lat="47.88863" lon="3.72623">
        <ele>161</ele>
        <time>2019-10-26T09:26:56.000Z</time>
      </trkpt>
      <trkpt lat="47.88861" lon="3.72622">
        <ele>161</ele>
        <time>2019-10-26T09:26:57.000Z</time>
      </trkpt>
      <trkpt lat="47.88859" lon="3.72621">
        <ele>161</ele>
        <time>2019-10-26T09:26:58.000Z</time>
      </trkpt>
      <trkpt lat="47.88857" lon="3.7262">
        <ele>161</ele>
        <time>2019-10-26T09:26:59.000Z</time>
      </trkpt>
      <trkpt lat="47.88855" lon="3.72619">
        <ele>161</ele>
        <time>2019-10-26T09:27:00.000Z</time>
      </trkpt>
      <trkpt lat="47.88853" lon="3.72618">
        <ele>161</ele>
        <time>2019-10-26T09:27:01.000Z</time>
      </trkpt>
      <trkpt lat="47.88851" lon="3.72618">
        <ele>161</ele>
        <time>2019-10-26T09:27:02.000Z</time>
      </trkpt>
      <trkpt lat="47.88849" lon="3.72617">
        <ele>161</ele>
        <time>2019-10-26T09:27:03.000Z</time>
      </trkpt>
      <trkpt lat="47.88847" lon="3.72615">
        <ele>161</ele>
        <time>2019-10-26T09:27:04.000Z</time>
      </trkpt>
      <trkpt lat="47.88845" lon="3.72614">
        <ele>161</ele>
        <time>2019-10-26T09:27:05.000Z</time>
      </trkpt>
      <trkpt lat="47.88843" lon="3.72613">
        <ele>162</ele>
        <time>2019-10-26T09:27:06.000Z</time>
      </trkpt>
      <trkpt lat="47.88841" lon="3.72612">
        <ele>162</ele>
        <time>2019-10-26T09:27:07.000Z</time>
      </trkpt>
      <trkpt lat="47.88839" lon="3.7261">
        <ele>162</ele>
        <time>2019-10-26T09:27:08.000Z</time>
      </trkpt>
      <trkpt lat="47.88837" lon="3.72609">
        <ele>162</ele>
        <time>2019-10-26T09:27:09.000Z</time>
      </trkpt>
      <trkpt lat="47.88835" lon="3.72608">
        <ele>162</ele>
        <time>2019-10-26T09:27:10.000Z</time>
      </trkpt>
      <trkpt lat="47.88833" lon="3.72607">
        <ele>162</ele>
        <time>2019-10-26T09:27:11.000Z</time>
      </trkpt>
      <trkpt lat="47.88831" lon="3.72606">
        <ele>162</ele>
        <time>2019-10-26T09:27:12.000Z</time>
      </trkpt>
      <trkpt lat="47.88829" lon="3.72604">
        <ele>162</ele>
        <time>2019-10-26T09:27:13.000Z</time>
      </trkpt>
      <trkpt lat="47.88827" lon="3.72603">
        <ele>162</ele>
        <time>2019-10-26T09:27:14.000Z</time>
      </trkpt>
      <trkpt lat="47.88825" lon="3.72601">
        <ele>162</ele>
        <time>2019-10-26T09:27:15.000Z</time>
      </trkpt>
      <trkpt lat="47.88823" lon="3.726">
        <ele>162</ele>
        <time>2019-10-26T09:27:16.000Z</time>
      </trkpt>
      <trkpt lat="47.88821" lon="3.72599">
        <ele>162</ele>
        <time>2019-10-26T09:27:17.000Z</time>
      </trkpt>
      <trkpt lat="47.88819" lon="3.72597">
        <ele>162</ele>
        <time>2019-10-26T09:27:18.000Z</time>
      </trkpt>
      <trkpt lat="47.88817" lon="3.72596">
        <ele>162</ele>
        <time>2019-10-26T09:27:19.000Z</time>
      </trkpt>
      <trkpt lat="47.88815" lon="3.72595">
        <ele>162</ele>
        <time>2019-10-26T09:27:20.000Z</time>
      </trkpt>
      <trkpt lat="47.88813" lon="3.72593">
        <ele>162</ele>
        <time>2019-10-26T09:27:21.000Z</time>
      </trkpt>
      <trkpt lat="47.88811" lon="3.72592">
        <ele>162</ele>
        <time>2019-10-26T09:27:22.000Z</time>
      </trkpt>
      <trkpt lat="47.88809" lon="3.72591">
        <ele>162</ele>
        <time>2019-10-26T09:27:23.000Z</time>
      </trkpt>
      <trkpt lat="47.88807" lon="3.72589">
        <ele>162</ele>
        <time>2019-10-26T09:27:24.000Z</time>
      </trkpt>
      <trkpt lat="47.88805" lon="3.72588">
        <ele>162</ele>
        <time>2019-10-26T09:27:25.000Z</time>
      </trkpt>
      <trkpt lat="47.88803" lon="3.72586">
        <ele>162</ele>
        <time>2019-10-26T09:27:26.000Z</time>
      </trkpt>
      <trkpt lat="47.88801" lon="3.72584">
        <ele>162</ele>
        <time>2019-10-26T09:27:27.000Z</time>
      </trkpt>
      <trkpt lat="47.88799" lon="3.72583">
        <ele>162</ele>
        <time>2019-10-26T09:27:28.000Z</time>
      </trkpt>
      <trkpt lat="47.88797" lon="3.72582">
        <ele>162</ele>
        <time>2019-10-26T09:27:29.000Z</time>
      </trkpt>
      <trkpt lat="47.88795" lon="3.7258">
        <ele>162</ele>
        <time>2019-10-26T09:27:30.000Z</time>
      </trkpt>
      <trkpt lat="47.88793" lon="3.72579">
        <ele>162</ele>
        <time>2019-10-26T09:27:31.000Z</time>
      </trkpt>
      <trkpt lat="47.88791" lon="3.72577">
        <ele>162</ele>
        <time>2019-10-26T09:27:32.000Z</time>
      </trkpt>
      <trkpt lat="47.88789" lon="3.72575">
        <ele>162</ele>
        <time>2019-10-26T09:27:33.000Z</time>
      </trkpt>
      <trkpt lat="47.88788" lon="3.72574">
        <ele>162</ele>
        <time>2019-10-26T09:27:34.000Z</time>
      </trkpt>
      <trkpt lat="47.88786" lon="3.72572">
        <ele>162</ele>
        <time>2019-10-26T09:27:35.000Z</time>
      </trkpt>
      <trkpt lat="47.88784" lon="3.72571">
        <ele>162</ele>
        <time>2019-10-26T09:27:36.000Z</time>
      </trkpt>
      <trkpt lat="47.88782" lon="3.72569">
        <ele>162</ele>
        <time>2019-10-26T09:27:37.000Z</time>
      </trkpt>
      <trkpt lat="47.8878" lon="3.72568">
        <ele>162</ele>
        <time>2019-10-26T09:27:38.000Z</time>
      </trkpt>
      <trkpt lat="47.88778" lon="3.72566">
        <ele>162</ele>
        <time>2019-10-26T09:27:39.000Z</time>
      </trkpt>
      <trkpt lat="47.88776" lon="3.72565">
        <ele>162</ele>
        <time>2019-10-26T09:27:40.000Z</time>
      </trkpt>
      <trkpt lat="47.88774" lon="3.72563">
        <ele>162</ele>
        <time>2019-10-26T09:27:41.000Z</time>
      </trkpt>
      <trkpt lat="47.88772" lon="3.72562">
        <ele>162</ele>
        <time>2019-10-26T09:27:42.000Z</time>
      </trkpt>
      <trkpt lat="47.8877" lon="3.72561">
        <ele>162</ele>
        <time>2019-10-26T09:27:43.000Z</time>
      </trkpt>
      <trkpt lat="47.88768" lon="3.72559">
        <ele>162</ele>
        <time>2019-10-26T09:27:44.000Z</time>
      </trkpt>
      <trkpt lat="47.88766" lon="3.72558">
        <ele>163</ele>
        <time>2019-10-26T09:27:45.000Z</time>
      </trkpt>
      <trkpt lat="47.88764" lon="3.72556">
        <ele>163</ele>
        <time>2019-10-26T09:27:46.000Z</time>
      </trkpt>
      <trkpt lat="47.88762" lon="3.72555">
        <ele>163</ele>
        <time>2019-10-26T09:27:47.000Z</time>
      </trkpt>
      <trkpt lat="47.8876" lon="3.72553">
        <ele>163</ele>
        <time>2019-10-26T09:27:48.000Z</time>
      </trkpt>
      <trkpt lat="47.88758" lon="3.72552">
        <ele>163</ele>
        <time>2019-10-26T09:27:49.000Z</time>
      </trkpt>
      <trkpt lat="47.88756" lon="3.72551">
        <ele>163</ele>
        <time>2019-10-26T09:27:50.000Z</time>
      </trkpt>
      <trkpt lat="47.88754" lon="3.72549">
        <ele>163</ele>
        <time>2019-10-26T09:27:51.000Z</time>
      </trkpt>
      <trkpt lat="47.88752" lon="3.72548">
        <ele>163</ele>
        <time>2019-10-26T09:27:52.000Z</time>
      </trkpt>
      <trkpt lat="47.88751" lon="3.72546">
        <ele>163</ele>
        <time>2019-10-26T09:27:53.000Z</time>
      </trkpt>
      <trkpt lat="47.88749" lon="3.72545">
        <ele>164</ele>
        <time>2019-10-26T09:27:54.000Z</time>
      </trkpt>
      <trkpt lat="47.88747" lon="3.72543">
        <ele>164</ele>
        <time>2019-10-26T09:27:55.000Z</time>
      </trkpt>
      <trkpt lat="47.88745" lon="3.72542">
        <ele>164</ele>
        <time>2019-10-26T09:27:56.000Z</time>
      </trkpt>
      <trkpt lat="47.88743" lon="3.72541">
        <ele>164</ele>
        <time>2019-10-26T09:27:57.000Z</time>
      </trkpt>
      <trkpt lat="47.88741" lon="3.72539">
        <ele>164</ele>
        <time>2019-10-26T09:27:58.000Z</time>
      </trkpt>
      <trkpt lat="47.88739" lon="3.72538">
        <ele>164</ele>
        <time>2019-10-26T09:27:59.000Z</time>
      </trkpt>
      <trkpt lat="47.88737" lon="3.72536">
        <ele>164</ele>
        <time>2019-10-26T09:28:00.000Z</time>
      </trkpt>
      <trkpt lat="47.88735" lon="3.72535">
        <ele>164</ele>
        <time>2019-10-26T09:28:01.000Z</time>
      </trkpt>
      <trkpt lat="47.88733" lon="3.72534">
        <ele>164</ele>
        <time>2019-10-26T09:28:02.000Z</time>
      </trkpt>
      <trkpt lat="47.88731" lon="3.72532">
        <ele>164</ele>
        <time>2019-10-26T09:28:03.000Z</time>
      </trkpt>
      <trkpt lat="47.88729" lon="3.72531">
        <ele>164</ele>
        <time>2019-10-26T09:28:04.000Z</time>
      </trkpt>
      <trkpt lat="47.88727" lon="3.72529">
        <ele>164</ele>
        <time>2019-10-26T09:28:05.000Z</time>
      </trkpt>
      <trkpt lat="47.88725" lon="3.72528">
        <ele>164</ele>
        <time>2019-10-26T09:28:06.000Z</time>
      </trkpt>
      <trkpt lat="47.88723" lon="3.72526">
        <ele>164</ele>
        <time>2019-10-26T09:28:07.000Z</time>
      </trkpt>
      <trkpt lat="47.88721" lon="3.72525">
        <ele>164</ele>
        <time>2019-10-26T09:28:08.000Z</time>
      </trkpt>
      <trkpt lat="47.88719" lon="3.72523">
        <ele>164</ele>
        <time>2019-10-26T09:28:09.000Z</time>
      </trkpt>
      <trkpt lat="47.88717" lon="3.72522">
        <ele>164</ele>
        <time>2019-10-26T09:28:10.000Z</time>
      </trkpt>
      <trkpt lat="47.88715" lon="3.7252">
        <ele>164</ele>
        <time>2019-10-26T09:28:11.000Z</time>
      </trkpt>
      <trkpt lat="47.88713" lon="3.72519">
        <ele>164</ele>
        <time>2019-10-26T09:28:12.000Z</time>
      </trkpt>
      <trkpt lat="47.88712" lon="3.72518">
        <ele>164</ele>
        <time>2019-10-26T09:28:13.000Z</time>
      </trkpt>
      <trkpt lat="47.8871" lon="3.72516">
        <ele>164</ele>
        <time>2019-10-26T09:28:14.000Z</time>
      </trkpt>
      <trkpt lat="47.88708" lon="3.72515">
        <ele>164</ele>
        <time>2019-10-26T09:28:15.000Z</time>
      </trkpt>
      <trkpt lat="47.88706" lon="3.72514">
        <ele>164</ele>
        <time>2019-10-26T09:28:16.000Z</time>
      </trkpt>
      <trkpt lat="47.88704" lon="3.72512">
        <ele>164</ele>
        <time>2019-10-26T09:28:17.000Z</time>
      </trkpt>
      <trkpt lat="47.88702" lon="3.72511">
        <ele>164</ele>
        <time>2019-10-26T09:28:18.000Z</time>
      </trkpt>
      <trkpt lat="47.887" lon="3.72509">
        <ele>163</ele>
        <time>2019-10-26T09:28:19.000Z</time>
      </trkpt>
      <trkpt lat="47.88698" lon="3.72508">
        <ele>163</ele>
        <time>2019-10-26T09:28:20.000Z</time>
      </trkpt>
      <trkpt lat="47.88696" lon="3.72507">
        <ele>163</ele>
        <time>2019-10-26T09:28:21.000Z</time>
      </trkpt>
      <trkpt lat="47.88694" lon="3.72505">
        <ele>164</ele>
        <time>2019-10-26T09:28:22.000Z</time>
      </trkpt>
      <trkpt lat="47.88692" lon="3.72503">
        <ele>164</ele>
        <time>2019-10-26T09:28:23.000Z</time>
      </trkpt>
      <trkpt lat="47.8869" lon="3.72501">
        <ele>164</ele>
        <time>2019-10-26T09:28:24.000Z</time>
      </trkpt>
      <trkpt lat="47.88688" lon="3.72499">
        <ele>164</ele>
        <time>2019-10-26T09:28:25.000Z</time>
      </trkpt>
      <trkpt lat="47.88687" lon="3.72497">
        <ele>164</ele>
        <time>2019-10-26T09:28:26.000Z</time>
      </trkpt>
      <trkpt lat="47.88685" lon="3.72494">
        <ele>164</ele>
        <time>2019-10-26T09:28:27.000Z</time>
      </trkpt>
      <trkpt lat="47.88685" lon="3.72491">
        <ele>164</ele>
        <time>2019-10-26T09:28:28.000Z</time>
      </trkpt>
      <trkpt lat="47.88684" lon="3.72488">
        <ele>164</ele>
        <time>2019-10-26T09:28:29.000Z</time>
      </trkpt>
      <trkpt lat="47.88684" lon="3.72485">
        <ele>164</ele>
        <time>2019-10-26T09:28:30.000Z</time>
      </trkpt>
      <trkpt lat="47.88684" lon="3.72481">
        <ele>164</ele>
        <time>2019-10-26T09:28:31.000Z</time>
      </trkpt>
      <trkpt lat="47.88685" lon="3.72479">
        <ele>164</ele>
        <time>2019-10-26T09:28:32.000Z</time>
      </trkpt>
      <trkpt lat="47.88685" lon="3.72476">
        <ele>164</ele>
        <time>2019-10-26T09:28:33.000Z</time>
      </trkpt>
      <trkpt lat="47.88686" lon="3.72473">
        <ele>164</ele>
        <time>2019-10-26T09:28:34.000Z</time>
      </trkpt>
      <trkpt lat="47.88687" lon="3.72471">
        <ele>164</ele>
        <time>2019-10-26T09:28:35.000Z</time>
      </trkpt>
      <trkpt lat="47.88688" lon="3.72468">
        <ele>164</ele>
        <time>2019-10-26T09:28:36.000Z</time>
      </trkpt>
      <trkpt lat="47.8869" lon="3.72465">
        <ele>164</ele>
        <time>2019-10-26T09:28:37.000Z</time>
      </trkpt>
      <trkpt lat="47.88691" lon="3.72462">
        <ele>164</ele>
        <time>2019-10-26T09:28:38.000Z</time>
      </trkpt>
      <trkpt lat="47.88692" lon="3.72459">
        <ele>164</ele>
        <time>2019-10-26T09:28:39.000Z</time>
      </trkpt>
      <trkpt lat="47.88693" lon="3.72457">
        <ele>164</ele>
        <time>2019-10-26T09:28:40.000Z</time>
      </trkpt>
      <trkpt lat="47.88695" lon="3.72454">
        <ele>163</ele>
        <time>2019-10-26T09:28:41.000Z</time>
      </trkpt>
      <trkpt lat="47.88696" lon="3.72451">
        <ele>163</ele>
        <time>2019-10-26T09:28:42.000Z</time>
      </trkpt>
      <trkpt lat="47.88697" lon="3.72448">
        <ele>163</ele>
        <time>2019-10-26T09:28:43.000Z</time>
      </trkpt>
      <trkpt lat="47.88699" lon="3.72445">
        <ele>163</ele>
        <time>2019-10-26T09:28:44.000Z</time>
      </trkpt>
      <trkpt lat="47.887" lon="3.72442">
        <ele>163</ele>
        <time>2019-10-26T09:28:45.000Z</time>
      </trkpt>
      <trkpt lat="47.88701" lon="3.72439">
        <ele>163</ele>
        <time>2019-10-26T09:28:46.000Z</time>
      </trkpt>
      <trkpt lat="47.88702" lon="3.72436">
        <ele>163</ele>
        <time>2019-10-26T09:28:47.000Z</time>
      </trkpt>
      <trkpt lat="47.88704" lon="3.72433">
        <ele>163</ele>
        <time>2019-10-26T09:28:48.000Z</time>
      </trkpt>
      <trkpt lat="47.88705" lon="3.7243">
        <ele>163</ele>
        <time>2019-10-26T09:28:49.000Z</time>
      </trkpt>
      <trkpt lat="47.88706" lon="3.72427">
        <ele>163</ele>
        <time>2019-10-26T09:28:50.000Z</time>
      </trkpt>
      <trkpt lat="47.88707" lon="3.72424">
        <ele>163</ele>
        <time>2019-10-26T09:28:51.000Z</time>
      </trkpt>
      <trkpt lat="47.88709" lon="3.72421">
        <ele>163</ele>
        <time>2019-10-26T09:28:52.000Z</time>
      </trkpt>
      <trkpt lat="47.8871" lon="3.72418">
        <ele>163</ele>
        <time>2019-10-26T09:28:53.000Z</time>
      </trkpt>
      <trkpt lat="47.88711" lon="3.72415">
        <ele>163</ele>
        <time>2019-10-26T09:28:54.000Z</time>
      </trkpt>
      <trkpt lat="47.88712" lon="3.72412">
        <ele>163</ele>
        <time>2019-10-26T09:28:55.000Z</time>
      </trkpt>
      <trkpt lat="47.88714" lon="3.72408">
        <ele>163</ele>
        <time>2019-10-26T09:28:56.000Z</time>
      </trkpt>
      <trkpt lat="47.88715" lon="3.72405">
        <ele>163</ele>
        <time>2019-10-26T09:28:57.000Z</time>
      </trkpt>
      <trkpt lat="47.88716" lon="3.72402">
        <ele>163</ele>
        <time>2019-10-26T09:28:58.000Z</time>
      </trkpt>
      <trkpt lat="47.88718" lon="3.72399">
        <ele>163</ele>
        <time>2019-10-26T09:28:59.000Z</time>
      </trkpt>
      <trkpt lat="47.88719" lon="3.72396">
        <ele>163</ele>
        <time>2019-10-26T09:29:00.000Z</time>
      </trkpt>
      <trkpt lat="47.8872" lon="3.72393">
        <ele>164</ele>
        <time>2019-10-26T09:29:01.000Z</time>
      </trkpt>
      <trkpt lat="47.88722" lon="3.7239">
        <ele>164</ele>
        <time>2019-10-26T09:29:02.000Z</time>
      </trkpt>
      <trkpt lat="47.88723" lon="3.72386">
        <ele>164</ele>
        <time>2019-10-26T09:29:03.000Z</time>
      </trkpt>
      <trkpt lat="47.88725" lon="3.72383">
        <ele>164</ele>
        <time>2019-10-26T09:29:04.000Z</time>
      </trkpt>
      <trkpt lat="47.88726" lon="3.7238">
        <ele>164</ele>
        <time>2019-10-26T09:29:05.000Z</time>
      </trkpt>
      <trkpt lat="47.88728" lon="3.72377">
        <ele>164</ele>
        <time>2019-10-26T09:29:06.000Z</time>
      </trkpt>
      <trkpt lat="47.88729" lon="3.72374">
        <ele>164</ele>
        <time>2019-10-26T09:29:07.000Z</time>
      </trkpt>
      <trkpt lat="47.8873" lon="3.72371">
        <ele>164</ele>
        <time>2019-10-26T09:29:08.000Z</time>
      </trkpt>
      <trkpt lat="47.88732" lon="3.72368">
        <ele>164</ele>
        <time>2019-10-26T09:29:09.000Z</time>
      </trkpt>
      <trkpt lat="47.88733" lon="3.72365">
        <ele>164</ele>
        <time>2019-10-26T09:29:10.000Z</time>
      </trkpt>
      <trkpt lat="47.88735" lon="3.72362">
        <ele>164</ele>
        <time>2019-10-26T09:29:11.000Z</time>
      </trkpt>
      <trkpt lat="47.88736" lon="3.72359">
        <ele>164</ele>
        <time>2019-10-26T09:29:12.000Z</time>
      </trkpt>
      <trkpt lat="47.88738" lon="3.72356">
        <ele>164</ele>
        <time>2019-10-26T09:29:13.000Z</time>
      </trkpt>
      <trkpt lat="47.88739" lon="3.72354">
        <ele>164</ele>
        <time>2019-10-26T09:29:14.000Z</time>
      </trkpt>
      <trkpt lat="47.8874" lon="3.72351">
        <ele>164</ele>
        <time>2019-10-26T09:29:15.000Z</time>
      </trkpt>
      <trkpt lat="47.88742" lon="3.72348">
        <ele>164</ele>
        <time>2019-10-26T09:29:16.000Z</time>
      </trkpt>
      <trkpt lat="47.88743" lon="3.72345">
        <ele>164</ele>
        <time>2019-10-26T09:29:17.000Z</time>
      </trkpt>
      <trkpt lat="47.88745" lon="3.72342">
        <ele>164</ele>
        <time>2019-10-26T09:29:18.000Z</time>
      </trkpt>
      <trkpt lat="47.88746" lon="3.72339">
        <ele>164</ele>
        <time>2019-10-26T09:29:19.000Z</time>
      </trkpt>
      <trkpt lat="47.88747" lon="3.72337">
        <ele>164</ele>
        <time>2019-10-26T09:29:20.000Z</time>
      </trkpt>
      <trkpt lat="47.88749" lon="3.72334">
        <ele>164</ele>
        <time>2019-10-26T09:29:21.000Z</time>
      </trkpt>
      <trkpt lat="47.8875" lon="3.72331">
        <ele>164</ele>
        <time>2019-10-26T09:29:22.000Z</time>
      </trkpt>
      <trkpt lat="47.88752" lon="3.72328">
        <ele>163</ele>
        <time>2019-10-26T09:29:23.000Z</time>
      </trkpt>
      <trkpt lat="47.88753" lon="3.72325">
        <ele>163</ele>
        <time>2019-10-26T09:29:24.000Z</time>
      </trkpt>
      <trkpt lat="47.88755" lon="3.72322">
        <ele>163</ele>
        <time>2019-10-26T09:29:25.000Z</time>
      </trkpt>
      <trkpt lat="47.88756" lon="3.72319">
        <ele>163</ele>
        <time>2019-10-26T09:29:26.000Z</time>
      </trkpt>
      <trkpt lat="47.88758" lon="3.72317">
        <ele>163</ele>
        <time>2019-10-26T09:29:27.000Z</time>
      </trkpt>
      <trkpt lat="47.88759" lon="3.72314">
        <ele>163</ele>
        <time>2019-10-26T09:29:28.000Z</time>
      </trkpt>
      <trkpt lat="47.8876" lon="3.72311">
        <ele>163</ele>
        <time>2019-10-26T09:29:29.000Z</time>
      </trkpt>
      <trkpt lat="47.88762" lon="3.72308">
        <ele>163</ele>
        <time>2019-10-26T09:29:30.000Z</time>
      </trkpt>
      <trkpt lat="47.88763" lon="3.72305">
        <ele>163</ele>
        <time>2019-10-26T09:29:31.000Z</time>
      </trkpt>
      <trkpt lat="47.88765" lon="3.72302">
        <ele>163</ele>
        <time>2019-10-26T09:29:32.000Z</time>
      </trkpt>
      <trkpt lat="47.88766" lon="3.72299">
        <ele>163</ele>
        <time>2019-10-26T09:29:33.000Z</time>
      </trkpt>
      <trkpt lat="47.88768" lon="3.72296">
        <ele>163</ele>
        <time>2019-10-26T09:29:34.000Z</time>
      </trkpt>
      <trkpt lat="47.88769" lon="3.72293">
        <ele>163</ele>
        <time>2019-10-26T09:29:35.000Z</time>
      </trkpt>
      <trkpt lat="47.88771" lon="3.7229">
        <ele>163</ele>
        <time>2019-10-26T09:29:36.000Z</time>
      </trkpt>
      <trkpt lat="47.88772" lon="3.72288">
        <ele>163</ele>
        <time>2019-10-26T09:29:37.000Z</time>
      </trkpt>
      <trkpt lat="47.88773" lon="3.72284">
        <ele>163</ele>
        <time>2019-10-26T09:29:38.000Z</time>
      </trkpt>
      <trkpt lat="47.88775" lon="3.72281">
        <ele>163</ele>
        <time>2019-10-26T09:29:39.000Z</time>
      </trkpt>
      <trkpt lat="47.88776" lon="3.72278">
        <ele>163</ele>
        <time>2019-10-26T09:29:40.000Z</time>
      </trkpt>
      <trkpt lat="47.88777" lon="3.72276">
        <ele>162</ele>
        <time>2019-10-26T09:29:41.000Z</time>
      </trkpt>
      <trkpt lat="47.88779" lon="3.72273">
        <ele>162</ele>
        <time>2019-10-26T09:29:42.000Z</time>
      </trkpt>
      <trkpt lat="47.8878" lon="3.7227">
        <ele>162</ele>
        <time>2019-10-26T09:29:43.000Z</time>
      </trkpt>
      <trkpt lat="47.88781" lon="3.72267">
        <ele>162</ele>
        <time>2019-10-26T09:29:44.000Z</time>
      </trkpt>
      <trkpt lat="47.88783" lon="3.72264">
        <ele>162</ele>
        <time>2019-10-26T09:29:45.000Z</time>
      </trkpt>
      <trkpt lat="47.88784" lon="3.72261">
        <ele>161</ele>
        <time>2019-10-26T09:29:46.000Z</time>
      </trkpt>
      <trkpt lat="47.88786" lon="3.72258">
        <ele>161</ele>
        <time>2019-10-26T09:29:47.000Z</time>
      </trkpt>
      <trkpt lat="47.88787" lon="3.72255">
        <ele>161</ele>
        <time>2019-10-26T09:29:48.000Z</time>
      </trkpt>
      <trkpt lat="47.88788" lon="3.72252">
        <ele>161</ele>
        <time>2019-10-26T09:29:49.000Z</time>
      </trkpt>
      <trkpt lat="47.8879" lon="3.72249">
        <ele>161</ele>
        <time>2019-10-26T09:29:50.000Z</time>
      </trkpt>
      <trkpt lat="47.88791" lon="3.72246">
        <ele>161</ele>
        <time>2019-10-26T09:29:51.000Z</time>
      </trkpt>
      <trkpt lat="47.88793" lon="3.72243">
        <ele>160</ele>
        <time>2019-10-26T09:29:52.000Z</time>
      </trkpt>
      <trkpt lat="47.88794" lon="3.7224">
        <ele>160</ele>
        <time>2019-10-26T09:29:53.000Z</time>
      </trkpt>
      <trkpt lat="47.88795" lon="3.72237">
        <ele>160</ele>
        <time>2019-10-26T09:29:54.000Z</time>
      </trkpt>
      <trkpt lat="47.88796" lon="3.72234">
        <ele>160</ele>
        <time>2019-10-26T09:29:55.000Z</time>
      </trkpt>
      <trkpt lat="47.88797" lon="3.72231">
        <ele>160</ele>
        <time>2019-10-26T09:29:56.000Z</time>
      </trkpt>
      <trkpt lat="47.88798" lon="3.72228">
        <ele>160</ele>
        <time>2019-10-26T09:29:57.000Z</time>
      </trkpt>
      <trkpt lat="47.888" lon="3.72226">
        <ele>160</ele>
        <time>2019-10-26T09:29:58.000Z</time>
      </trkpt>
      <trkpt lat="47.88801" lon="3.72222">
        <ele>159</ele>
        <time>2019-10-26T09:29:59.000Z</time>
      </trkpt>
      <trkpt lat="47.88802" lon="3.72219">
        <ele>159</ele>
        <time>2019-10-26T09:30:00.000Z</time>
      </trkpt>
      <trkpt lat="47.88804" lon="3.72216">
        <ele>159</ele>
        <time>2019-10-26T09:30:01.000Z</time>
      </trkpt>
      <trkpt lat="47.88805" lon="3.72213">
        <ele>159</ele>
        <time>2019-10-26T09:30:02.000Z</time>
      </trkpt>
      <trkpt lat="47.88806" lon="3.7221">
        <ele>159</ele>
        <time>2019-10-26T09:30:03.000Z</time>
      </trkpt>
      <trkpt lat="47.88807" lon="3.72207">
        <ele>159</ele>
        <time>2019-10-26T09:30:04.000Z</time>
      </trkpt>
      <trkpt lat="47.88809" lon="3.72204">
        <ele>159</ele>
        <time>2019-10-26T09:30:05.000Z</time>
      </trkpt>
      <trkpt lat="47.8881" lon="3.722">
        <ele>159</ele>
        <time>2019-10-26T09:30:06.000Z</time>
      </trkpt>
      <trkpt lat="47.88811" lon="3.72197">
        <ele>159</ele>
        <time>2019-10-26T09:30:07.000Z</time>
      </trkpt>
      <trkpt lat="47.88812" lon="3.72194">
        <ele>158</ele>
        <time>2019-10-26T09:30:08.000Z</time>
      </trkpt>
      <trkpt lat="47.88813" lon="3.72191">
        <ele>158</ele>
        <time>2019-10-26T09:30:09.000Z</time>
      </trkpt>
      <trkpt lat="47.88814" lon="3.72188">
        <ele>158</ele>
        <time>2019-10-26T09:30:10.000Z</time>
      </trkpt>
      <trkpt lat="47.88815" lon="3.72185">
        <ele>158</ele>
        <time>2019-10-26T09:30:11.000Z</time>
      </trkpt>
      <trkpt lat="47.88816" lon="3.72182">
        <ele>158</ele>
        <time>2019-10-26T09:30:12.000Z</time>
      </trkpt>
      <trkpt lat="47.88817" lon="3.72178">
        <ele>158</ele>
        <time>2019-10-26T09:30:13.000Z</time>
      </trkpt>
      <trkpt lat="47.88818" lon="3.72175">
        <ele>158</ele>
        <time>2019-10-26T09:30:14.000Z</time>
      </trkpt>
      <trkpt lat="47.88819" lon="3.72172">
        <ele>158</ele>
        <time>2019-10-26T09:30:15.000Z</time>
      </trkpt>
      <trkpt lat="47.88821" lon="3.72169">
        <ele>158</ele>
        <time>2019-10-26T09:30:16.000Z</time>
      </trkpt>
      <trkpt lat="47.88822" lon="3.72166">
        <ele>158</ele>
        <time>2019-10-26T09:30:17.000Z</time>
      </trkpt>
      <trkpt lat="47.88823" lon="3.72163">
        <ele>158</ele>
        <time>2019-10-26T09:30:18.000Z</time>
      </trkpt>
      <trkpt lat="47.88824" lon="3.7216">
        <ele>158</ele>
        <time>2019-10-26T09:30:19.000Z</time>
      </trkpt>
      <trkpt lat="47.88825" lon="3.72157">
        <ele>157</ele>
        <time>2019-10-26T09:30:20.000Z</time>
      </trkpt>
      <trkpt lat="47.88826" lon="3.72154">
        <ele>157</ele>
        <time>2019-10-26T09:30:21.000Z</time>
      </trkpt>
      <trkpt lat="47.88827" lon="3.72151">
        <ele>157</ele>
        <time>2019-10-26T09:30:22.000Z</time>
      </trkpt>
      <trkpt lat="47.88829" lon="3.72148">
        <ele>157</ele>
        <time>2019-10-26T09:30:23.000Z</time>
      </trkpt>
      <trkpt lat="47.8883" lon="3.72145">
        <ele>157</ele>
        <time>2019-10-26T09:30:24.000Z</time>
      </trkpt>
      <trkpt lat="47.88831" lon="3.72141">
        <ele>156</ele>
        <time>2019-10-26T09:30:25.000Z</time>
      </trkpt>
      <trkpt lat="47.88832" lon="3.72138">
        <ele>156</ele>
        <time>2019-10-26T09:30:26.000Z</time>
      </trkpt>
      <trkpt lat="47.88833" lon="3.72135">
        <ele>156</ele>
        <time>2019-10-26T09:30:27.000Z</time>
      </trkpt>
      <trkpt lat="47.88834" lon="3.72132">
        <ele>156</ele>
        <time>2019-10-26T09:30:28.000Z</time>
      </trkpt>
      <trkpt lat="47.88835" lon="3.72129">
        <ele>156</ele>
        <time>2019-10-26T09:30:29.000Z</time>
      </trkpt>
      <trkpt lat="47.88836" lon="3.72126">
        <ele>156</ele>
        <time>2019-10-26T09:30:30.000Z</time>
      </trkpt>
      <trkpt lat="47.88837" lon="3.72123">
        <ele>156</ele>
        <time>2019-10-26T09:30:31.000Z</time>
      </trkpt>
      <trkpt lat="47.88838" lon="3.7212">
        <ele>156</ele>
        <time>2019-10-26T09:30:32.000Z</time>
      </trkpt>
      <trkpt lat="47.8884" lon="3.72117">
        <ele>156</ele>
        <time>2019-10-26T09:30:33.000Z</time>
      </trkpt>
      <trkpt lat="47.88841" lon="3.72114">
        <ele>156</ele>
        <time>2019-10-26T09:30:34.000Z</time>
      </trkpt>
      <trkpt lat="47.88842" lon="3.72111">
        <ele>156</ele>
        <time>2019-10-26T09:30:35.000Z</time>
      </trkpt>
      <trkpt lat="47.88843" lon="3.72107">
        <ele>156</ele>
        <time>2019-10-26T09:30:36.000Z</time>
      </trkpt>
      <trkpt lat="47.88844" lon="3.72105">
        <ele>156</ele>
        <time>2019-10-26T09:30:37.000Z</time>
      </trkpt>
      <trkpt lat="47.88845" lon="3.72101">
        <ele>155</ele>
        <time>2019-10-26T09:30:38.000Z</time>
      </trkpt>
      <trkpt lat="47.88846" lon="3.72098">
        <ele>155</ele>
        <time>2019-10-26T09:30:39.000Z</time>
      </trkpt>
      <trkpt lat="47.88847" lon="3.72095">
        <ele>155</ele>
        <time>2019-10-26T09:30:40.000Z</time>
      </trkpt>
      <trkpt lat="47.88849" lon="3.72092">
        <ele>155</ele>
        <time>2019-10-26T09:30:41.000Z</time>
      </trkpt>
      <trkpt lat="47.8885" lon="3.72089">
        <ele>155</ele>
        <time>2019-10-26T09:30:42.000Z</time>
      </trkpt>
      <trkpt lat="47.88851" lon="3.72086">
        <ele>155</ele>
        <time>2019-10-26T09:30:43.000Z</time>
      </trkpt>
      <trkpt lat="47.88852" lon="3.72083">
        <ele>155</ele>
        <time>2019-10-26T09:30:44.000Z</time>
      </trkpt>
      <trkpt lat="47.88853" lon="3.7208">
        <ele>154</ele>
        <time>2019-10-26T09:30:45.000Z</time>
      </trkpt>
      <trkpt lat="47.88854" lon="3.72076">
        <ele>154</ele>
        <time>2019-10-26T09:30:46.000Z</time>
      </trkpt>
      <trkpt lat="47.88855" lon="3.72073">
        <ele>154</ele>
        <time>2019-10-26T09:30:47.000Z</time>
      </trkpt>
      <trkpt lat="47.88857" lon="3.7207">
        <ele>154</ele>
        <time>2019-10-26T09:30:48.000Z</time>
      </trkpt>
      <trkpt lat="47.88858" lon="3.72067">
        <ele>154</ele>
        <time>2019-10-26T09:30:49.000Z</time>
      </trkpt>
      <trkpt lat="47.88859" lon="3.72064">
        <ele>154</ele>
        <time>2019-10-26T09:30:50.000Z</time>
      </trkpt>
      <trkpt lat="47.8886" lon="3.72061">
        <ele>154</ele>
        <time>2019-10-26T09:30:51.000Z</time>
      </trkpt>
      <trkpt lat="47.88861" lon="3.72058">
        <ele>153</ele>
        <time>2019-10-26T09:30:52.000Z</time>
      </trkpt>
      <trkpt lat="47.88862" lon="3.72055">
        <ele>153</ele>
        <time>2019-10-26T09:30:53.000Z</time>
      </trkpt>
      <trkpt lat="47.88863" lon="3.72052">
        <ele>153</ele>
        <time>2019-10-26T09:30:54.000Z</time>
      </trkpt>
      <trkpt lat="47.88865" lon="3.72049">
        <ele>153</ele>
        <time>2019-10-26T09:30:55.000Z</time>
      </trkpt>
      <trkpt lat="47.88866" lon="3.72046">
        <ele>152</ele>
        <time>2019-10-26T09:30:56.000Z</time>
      </trkpt>
      <trkpt lat="47.88867" lon="3.72043">
        <ele>152</ele>
        <time>2019-10-26T09:30:57.000Z</time>
      </trkpt>
      <trkpt lat="47.88868" lon="3.7204">
        <ele>152</ele>
        <time>2019-10-26T09:30:58.000Z</time>
      </trkpt>
      <trkpt lat="47.88869" lon="3.72037">
        <ele>152</ele>
        <time>2019-10-26T09:30:59.000Z</time>
      </trkpt>
      <trkpt lat="47.88871" lon="3.72034">
        <ele>152</ele>
        <time>2019-10-26T09:31:00.000Z</time>
      </trkpt>
      <trkpt lat="47.88872" lon="3.72031">
        <ele>152</ele>
        <time>2019-10-26T09:31:01.000Z</time>
      </trkpt>
      <trkpt lat="47.88873" lon="3.72027">
        <ele>152</ele>
        <time>2019-10-26T09:31:02.000Z</time>
      </trkpt>
      <trkpt lat="47.88874" lon="3.72024">
        <ele>152</ele>
        <time>2019-10-26T09:31:03.000Z</time>
      </trkpt>
      <trkpt lat="47.88875" lon="3.72021">
        <ele>152</ele>
        <time>2019-10-26T09:31:04.000Z</time>
      </trkpt>
      <trkpt lat="47.88876" lon="3.72018">
        <ele>152</ele>
        <time>2019-10-26T09:31:05.000Z</time>
      </trkpt>
      <trkpt lat="47.88877" lon="3.72015">
        <ele>152</ele>
        <time>2019-10-26T09:31:06.000Z</time>
      </trkpt>
      <trkpt lat="47.88878" lon="3.72012">
        <ele>152</ele>
        <time>2019-10-26T09:31:07.000Z</time>
      </trkpt>
      <trkpt lat="47.8888" lon="3.72009">
        <ele>152</ele>
        <time>2019-10-26T09:31:08.000Z</time>
      </trkpt>
      <trkpt lat="47.88881" lon="3.72006">
        <ele>151</ele>
        <time>2019-10-26T09:31:09.000Z</time>
      </trkpt>
      <trkpt lat="47.88882" lon="3.72003">
        <ele>151</ele>
        <time>2019-10-26T09:31:10.000Z</time>
      </trkpt>
      <trkpt lat="47.88883" lon="3.72">
        <ele>151</ele>
        <time>2019-10-26T09:31:11.000Z</time>
      </trkpt>
      <trkpt lat="47.88884" lon="3.71998">
        <ele>151</ele>
        <time>2019-10-26T09:31:12.000Z</time>
      </trkpt>
      <trkpt lat="47.88885" lon="3.71994">
        <ele>151</ele>
        <time>2019-10-26T09:31:13.000Z</time>
      </trkpt>
      <trkpt lat="47.88886" lon="3.71991">
        <ele>151</ele>
        <time>2019-10-26T09:31:14.000Z</time>
      </trkpt>
      <trkpt lat="47.88887" lon="3.71988">
        <ele>151</ele>
        <time>2019-10-26T09:31:15.000Z</time>
      </trkpt>
      <trkpt lat="47.88889" lon="3.71985">
        <ele>150</ele>
        <time>2019-10-26T09:31:16.000Z</time>
      </trkpt>
      <trkpt lat="47.8889" lon="3.71982">
        <ele>150</ele>
        <time>2019-10-26T09:31:17.000Z</time>
      </trkpt>
      <trkpt lat="47.88891" lon="3.71979">
        <ele>150</ele>
        <time>2019-10-26T09:31:18.000Z</time>
      </trkpt>
      <trkpt lat="47.88892" lon="3.71976">
        <ele>150</ele>
        <time>2019-10-26T09:31:19.000Z</time>
      </trkpt>
      <trkpt lat="47.88893" lon="3.71973">
        <ele>150</ele>
        <time>2019-10-26T09:31:20.000Z</time>
      </trkpt>
      <trkpt lat="47.88894" lon="3.7197">
        <ele>150</ele>
        <time>2019-10-26T09:31:21.000Z</time>
      </trkpt>
      <trkpt lat="47.88895" lon="3.71967">
        <ele>149</ele>
        <time>2019-10-26T09:31:22.000Z</time>
      </trkpt>
      <trkpt lat="47.88896" lon="3.71964">
        <ele>149</ele>
        <time>2019-10-26T09:31:23.000Z</time>
      </trkpt>
      <trkpt lat="47.88898" lon="3.7196">
        <ele>149</ele>
        <time>2019-10-26T09:31:24.000Z</time>
      </trkpt>
      <trkpt lat="47.88899" lon="3.71957">
        <ele>149</ele>
        <time>2019-10-26T09:31:25.000Z</time>
      </trkpt>
      <trkpt lat="47.889" lon="3.71954">
        <ele>149</ele>
        <time>2019-10-26T09:31:26.000Z</time>
      </trkpt>
      <trkpt lat="47.88901" lon="3.71951">
        <ele>149</ele>
        <time>2019-10-26T09:31:27.000Z</time>
      </trkpt>
      <trkpt lat="47.88902" lon="3.71948">
        <ele>149</ele>
        <time>2019-10-26T09:31:28.000Z</time>
      </trkpt>
      <trkpt lat="47.88903" lon="3.71945">
        <ele>149</ele>
        <time>2019-10-26T09:31:29.000Z</time>
      </trkpt>
      <trkpt lat="47.88904" lon="3.71942">
        <ele>149</ele>
        <time>2019-10-26T09:31:30.000Z</time>
      </trkpt>
      <trkpt lat="47.88905" lon="3.71939">
        <ele>149</ele>
        <time>2019-10-26T09:31:31.000Z</time>
      </trkpt>
      <trkpt lat="47.88907" lon="3.71935">
        <ele>148</ele>
        <time>2019-10-26T09:31:32.000Z</time>
      </trkpt>
      <trkpt lat="47.88908" lon="3.71932">
        <ele>148</ele>
        <time>2019-10-26T09:31:33.000Z</time>
      </trkpt>
      <trkpt lat="47.88909" lon="3.71929">
        <ele>148</ele>
        <time>2019-10-26T09:31:34.000Z</time>
      </trkpt>
      <trkpt lat="47.8891" lon="3.71926">
        <ele>148</ele>
        <time>2019-10-26T09:31:35.000Z</time>
      </trkpt>
      <trkpt lat="47.88911" lon="3.71923">
        <ele>148</ele>
        <time>2019-10-26T09:31:36.000Z</time>
      </trkpt>
      <trkpt lat="47.88912" lon="3.7192">
        <ele>148</ele>
        <time>2019-10-26T09:31:37.000Z</time>
      </trkpt>
      <trkpt lat="47.88913" lon="3.71917">
        <ele>148</ele>
        <time>2019-10-26T09:31:38.000Z</time>
      </trkpt>
      <trkpt lat="47.88913" lon="3.71914">
        <ele>148</ele>
        <time>2019-10-26T09:31:39.000Z</time>
      </trkpt>
      <trkpt lat="47.88914" lon="3.71911">
        <ele>148</ele>
        <time>2019-10-26T09:31:40.000Z</time>
      </trkpt>
      <trkpt lat="47.88914" lon="3.7191">
        <ele>148</ele>
        <time>2019-10-26T09:31:41.000Z</time>
      </trkpt>
      <trkpt lat="47.88913" lon="3.7191">
        <ele>148</ele>
        <time>2019-10-26T09:31:42.000Z</time>
      </trkpt>
      <trkpt lat="47.88912" lon="3.71913">
        <ele>148</ele>
        <time>2019-10-26T09:31:43.000Z</time>
      </trkpt>
      <trkpt lat="47.88912" lon="3.71916">
        <ele>148</ele>
        <time>2019-10-26T09:31:44.000Z</time>
      </trkpt>
      <trkpt lat="47.88911" lon="3.71919">
        <ele>148</ele>
        <time>2019-10-26T09:31:45.000Z</time>
      </trkpt>
      <trkpt lat="47.88909" lon="3.71923">
        <ele>148</ele>
        <time>2019-10-26T09:31:46.000Z</time>
      </trkpt>
      <trkpt lat="47.88908" lon="3.71926">
        <ele>148</ele>
        <time>2019-10-26T09:31:47.000Z</time>
      </trkpt>
      <trkpt lat="47.88907" lon="3.7193">
        <ele>148</ele>
        <time>2019-10-26T09:31:48.000Z</time>
      </trkpt>
      <trkpt lat="47.88906" lon="3.71933">
        <ele>148</ele>
        <time>2019-10-26T09:31:49.000Z</time>
      </trkpt>
      <trkpt lat="47.88905" lon="3.71936">
        <ele>149</ele>
        <time>2019-10-26T09:31:50.000Z</time>
      </trkpt>
      <trkpt lat="47.88904" lon="3.71939">
        <ele>149</ele>
        <time>2019-10-26T09:31:51.000Z</time>
      </trkpt>
      <trkpt lat="47.88903" lon="3.71943">
        <ele>149</ele>
        <time>2019-10-26T09:31:52.000Z</time>
      </trkpt>
      <trkpt lat="47.88902" lon="3.71946">
        <ele>149</ele>
        <time>2019-10-26T09:31:53.000Z</time>
      </trkpt>
      <trkpt lat="47.889" lon="3.71949">
        <ele>149</ele>
        <time>2019-10-26T09:31:54.000Z</time>
      </trkpt>
      <trkpt lat="47.88899" lon="3.71952">
        <ele>149</ele>
        <time>2019-10-26T09:31:55.000Z</time>
      </trkpt>
      <trkpt lat="47.88898" lon="3.71955">
        <ele>149</ele>
        <time>2019-10-26T09:31:56.000Z</time>
      </trkpt>
      <trkpt lat="47.88897" lon="3.71958">
        <ele>149</ele>
        <time>2019-10-26T09:31:57.000Z</time>
      </trkpt>
      <trkpt lat="47.88896" lon="3.71962">
        <ele>150</ele>
        <time>2019-10-26T09:31:58.000Z</time>
      </trkpt>
      <trkpt lat="47.88895" lon="3.71965">
        <ele>150</ele>
        <time>2019-10-26T09:31:59.000Z</time>
      </trkpt>
      <trkpt lat="47.88894" lon="3.71968">
        <ele>150</ele>
        <time>2019-10-26T09:32:00.000Z</time>
      </trkpt>
      <trkpt lat="47.88893" lon="3.71971">
        <ele>150</ele>
        <time>2019-10-26T09:32:01.000Z</time>
      </trkpt>
      <trkpt lat="47.88891" lon="3.71974">
        <ele>150</ele>
        <time>2019-10-26T09:32:02.000Z</time>
      </trkpt>
      <trkpt lat="47.8889" lon="3.71977">
        <ele>150</ele>
        <time>2019-10-26T09:32:03.000Z</time>
      </trkpt>
      <trkpt lat="47.88889" lon="3.7198">
        <ele>150</ele>
        <time>2019-10-26T09:32:04.000Z</time>
      </trkpt>
      <trkpt lat="47.88888" lon="3.71983">
        <ele>150</ele>
        <time>2019-10-26T09:32:05.000Z</time>
      </trkpt>
      <trkpt lat="47.88887" lon="3.71986">
        <ele>150</ele>
        <time>2019-10-26T09:32:06.000Z</time>
      </trkpt>
      <trkpt lat="47.88886" lon="3.71989">
        <ele>150</ele>
        <time>2019-10-26T09:32:07.000Z</time>
      </trkpt>
      <trkpt lat="47.88885" lon="3.71992">
        <ele>150</ele>
        <time>2019-10-26T09:32:08.000Z</time>
      </trkpt>
      <trkpt lat="47.88884" lon="3.71995">
        <ele>150</ele>
        <time>2019-10-26T09:32:09.000Z</time>
      </trkpt>
      <trkpt lat="47.88883" lon="3.71998">
        <ele>150</ele>
        <time>2019-10-26T09:32:10.000Z</time>
      </trkpt>
      <trkpt lat="47.88882" lon="3.72001">
        <ele>150</ele>
        <time>2019-10-26T09:32:11.000Z</time>
      </trkpt>
      <trkpt lat="47.88881" lon="3.72004">
        <ele>150</ele>
        <time>2019-10-26T09:32:12.000Z</time>
      </trkpt>
      <trkpt lat="47.8888" lon="3.72007">
        <ele>150</ele>
        <time>2019-10-26T09:32:13.000Z</time>
      </trkpt>
      <trkpt lat="47.88878" lon="3.72009">
        <ele>150</ele>
        <time>2019-10-26T09:32:14.000Z</time>
      </trkpt>
      <trkpt lat="47.88877" lon="3.72012">
        <ele>150</ele>
        <time>2019-10-26T09:32:15.000Z</time>
      </trkpt>
      <trkpt lat="47.88876" lon="3.72015">
        <ele>150</ele>
        <time>2019-10-26T09:32:16.000Z</time>
      </trkpt>
      <trkpt lat="47.88875" lon="3.72018">
        <ele>150</ele>
        <time>2019-10-26T09:32:17.000Z</time>
      </trkpt>
      <trkpt lat="47.88874" lon="3.72021">
        <ele>151</ele>
        <time>2019-10-26T09:32:18.000Z</time>
      </trkpt>
      <trkpt lat="47.88873" lon="3.72024">
        <ele>151</ele>
        <time>2019-10-26T09:32:19.000Z</time>
      </trkpt>
      <trkpt lat="47.88872" lon="3.72027">
        <ele>151</ele>
        <time>2019-10-26T09:32:20.000Z</time>
      </trkpt>
      <trkpt lat="47.88871" lon="3.7203">
        <ele>151</ele>
        <time>2019-10-26T09:32:21.000Z</time>
      </trkpt>
      <trkpt lat="47.8887" lon="3.72033">
        <ele>151</ele>
        <time>2019-10-26T09:32:22.000Z</time>
      </trkpt>
      <trkpt lat="47.88869" lon="3.72035">
        <ele>151</ele>
        <time>2019-10-26T09:32:23.000Z</time>
      </trkpt>
      <trkpt lat="47.88868" lon="3.72038">
        <ele>151</ele>
        <time>2019-10-26T09:32:24.000Z</time>
      </trkpt>
      <trkpt lat="47.88867" lon="3.72041">
        <ele>151</ele>
        <time>2019-10-26T09:32:25.000Z</time>
      </trkpt>
      <trkpt lat="47.88866" lon="3.72044">
        <ele>151</ele>
        <time>2019-10-26T09:32:26.000Z</time>
      </trkpt>
      <trkpt lat="47.88865" lon="3.72047">
        <ele>151</ele>
        <time>2019-10-26T09:32:27.000Z</time>
      </trkpt>
      <trkpt lat="47.88864" lon="3.7205">
        <ele>151</ele>
        <time>2019-10-26T09:32:28.000Z</time>
      </trkpt>
      <trkpt lat="47.88863" lon="3.72053">
        <ele>151</ele>
        <time>2019-10-26T09:32:29.000Z</time>
      </trkpt>
      <trkpt lat="47.88862" lon="3.72056">
        <ele>151</ele>
        <time>2019-10-26T09:32:30.000Z</time>
      </trkpt>
      <trkpt lat="47.8886" lon="3.72059">
        <ele>152</ele>
        <time>2019-10-26T09:32:31.000Z</time>
      </trkpt>
      <trkpt lat="47.8886" lon="3.72062">
        <ele>152</ele>
        <time>2019-10-26T09:32:32.000Z</time>
      </trkpt>
      <trkpt lat="47.88858" lon="3.72065">
        <ele>152</ele>
        <time>2019-10-26T09:32:33.000Z</time>
      </trkpt>
      <trkpt lat="47.88857" lon="3.72067">
        <ele>152</ele>
        <time>2019-10-26T09:32:34.000Z</time>
      </trkpt>
      <trkpt lat="47.88856" lon="3.7207">
        <ele>152</ele>
        <time>2019-10-26T09:32:35.000Z</time>
      </trkpt>
      <trkpt lat="47.88855" lon="3.72073">
        <ele>152</ele>
        <time>2019-10-26T09:32:36.000Z</time>
      </trkpt>
      <trkpt lat="47.88854" lon="3.72076">
        <ele>152</ele>
        <time>2019-10-26T09:32:37.000Z</time>
      </trkpt>
      <trkpt lat="47.88853" lon="3.72078">
        <ele>152</ele>
        <time>2019-10-26T09:32:38.000Z</time>
      </trkpt>
      <trkpt lat="47.88852" lon="3.72081">
        <ele>152</ele>
        <time>2019-10-26T09:32:39.000Z</time>
      </trkpt>
      <trkpt lat="47.88851" lon="3.72084">
        <ele>153</ele>
        <time>2019-10-26T09:32:40.000Z</time>
      </trkpt>
      <trkpt lat="47.8885" lon="3.72087">
        <ele>153</ele>
        <time>2019-10-26T09:32:41.000Z</time>
      </trkpt>
      <trkpt lat="47.88849" lon="3.72089">
        <ele>153</ele>
        <time>2019-10-26T09:32:42.000Z</time>
      </trkpt>
      <trkpt lat="47.88848" lon="3.72092">
        <ele>153</ele>
        <time>2019-10-26T09:32:43.000Z</time>
      </trkpt>
      <trkpt lat="47.88847" lon="3.72095">
        <ele>153</ele>
        <time>2019-10-26T09:32:44.000Z</time>
      </trkpt>
      <trkpt lat="47.88846" lon="3.72098">
        <ele>153</ele>
        <time>2019-10-26T09:32:45.000Z</time>
      </trkpt>
      <trkpt lat="47.88845" lon="3.72101">
        <ele>153</ele>
        <time>2019-10-26T09:32:46.000Z</time>
      </trkpt>
      <trkpt lat="47.88844" lon="3.72104">
        <ele>154</ele>
        <time>2019-10-26T09:32:47.000Z</time>
      </trkpt>
      <trkpt lat="47.88843" lon="3.72107">
        <ele>154</ele>
        <time>2019-10-26T09:32:48.000Z</time>
      </trkpt>
      <trkpt lat="47.88842" lon="3.72109">
        <ele>154</ele>
        <time>2019-10-26T09:32:49.000Z</time>
      </trkpt>
      <trkpt lat="47.88841" lon="3.72112">
        <ele>154</ele>
        <time>2019-10-26T09:32:50.000Z</time>
      </trkpt>
      <trkpt lat="47.8884" lon="3.72115">
        <ele>154</ele>
        <time>2019-10-26T09:32:51.000Z</time>
      </trkpt>
      <trkpt lat="47.88839" lon="3.72118">
        <ele>154</ele>
        <time>2019-10-26T09:32:52.000Z</time>
      </trkpt>
      <trkpt lat="47.88838" lon="3.72121">
        <ele>154</ele>
        <time>2019-10-26T09:32:53.000Z</time>
      </trkpt>
      <trkpt lat="47.88837" lon="3.72123">
        <ele>154</ele>
        <time>2019-10-26T09:32:54.000Z</time>
      </trkpt>
      <trkpt lat="47.88836" lon="3.72126">
        <ele>155</ele>
        <time>2019-10-26T09:32:55.000Z</time>
      </trkpt>
      <trkpt lat="47.88835" lon="3.72129">
        <ele>155</ele>
        <time>2019-10-26T09:32:56.000Z</time>
      </trkpt>
      <trkpt lat="47.88834" lon="3.72131">
        <ele>155</ele>
        <time>2019-10-26T09:32:57.000Z</time>
      </trkpt>
      <trkpt lat="47.88833" lon="3.72134">
        <ele>155</ele>
        <time>2019-10-26T09:32:58.000Z</time>
      </trkpt>
      <trkpt lat="47.88831" lon="3.72137">
        <ele>155</ele>
        <time>2019-10-26T09:32:59.000Z</time>
      </trkpt>
      <trkpt lat="47.8883" lon="3.7214">
        <ele>155</ele>
        <time>2019-10-26T09:33:00.000Z</time>
      </trkpt>
      <trkpt lat="47.88829" lon="3.72142">
        <ele>156</ele>
        <time>2019-10-26T09:33:01.000Z</time>
      </trkpt>
      <trkpt lat="47.88828" lon="3.72145">
        <ele>156</ele>
        <time>2019-10-26T09:33:02.000Z</time>
      </trkpt>
      <trkpt lat="47.88827" lon="3.72148">
        <ele>156</ele>
        <time>2019-10-26T09:33:03.000Z</time>
      </trkpt>
      <trkpt lat="47.88826" lon="3.72151">
        <ele>156</ele>
        <time>2019-10-26T09:33:04.000Z</time>
      </trkpt>
      <trkpt lat="47.88825" lon="3.72154">
        <ele>156</ele>
        <time>2019-10-26T09:33:05.000Z</time>
      </trkpt>
      <trkpt lat="47.88824" lon="3.72156">
        <ele>156</ele>
        <time>2019-10-26T09:33:06.000Z</time>
      </trkpt>
      <trkpt lat="47.88823" lon="3.72159">
        <ele>156</ele>
        <time>2019-10-26T09:33:07.000Z</time>
      </trkpt>
      <trkpt lat="47.88822" lon="3.72162">
        <ele>157</ele>
        <time>2019-10-26T09:33:08.000Z</time>
      </trkpt>
      <trkpt lat="47.88821" lon="3.72164">
        <ele>157</ele>
        <time>2019-10-26T09:33:09.000Z</time>
      </trkpt>
      <trkpt lat="47.8882" lon="3.72167">
        <ele>157</ele>
        <time>2019-10-26T09:33:10.000Z</time>
      </trkpt>
      <trkpt lat="47.88819" lon="3.7217">
        <ele>157</ele>
        <time>2019-10-26T09:33:11.000Z</time>
      </trkpt>
      <trkpt lat="47.88818" lon="3.72173">
        <ele>157</ele>
        <time>2019-10-26T09:33:12.000Z</time>
      </trkpt>
      <trkpt lat="47.88817" lon="3.72176">
        <ele>157</ele>
        <time>2019-10-26T09:33:13.000Z</time>
      </trkpt>
      <trkpt lat="47.88816" lon="3.72178">
        <ele>157</ele>
        <time>2019-10-26T09:33:14.000Z</time>
      </trkpt>
      <trkpt lat="47.88815" lon="3.72181">
        <ele>158</ele>
        <time>2019-10-26T09:33:15.000Z</time>
      </trkpt>
      <trkpt lat="47.88814" lon="3.72184">
        <ele>158</ele>
        <time>2019-10-26T09:33:16.000Z</time>
      </trkpt>
      <trkpt lat="47.88813" lon="3.72186">
        <ele>158</ele>
        <time>2019-10-26T09:33:17.000Z</time>
      </trkpt>
      <trkpt lat="47.88812" lon="3.72189">
        <ele>158</ele>
        <time>2019-10-26T09:33:18.000Z</time>
      </trkpt>
      <trkpt lat="47.88811" lon="3.72192">
        <ele>158</ele>
        <time>2019-10-26T09:33:19.000Z</time>
      </trkpt>
      <trkpt lat="47.8881" lon="3.72195">
        <ele>158</ele>
        <time>2019-10-26T09:33:20.000Z</time>
      </trkpt>
      <trkpt lat="47.88809" lon="3.72197">
        <ele>158</ele>
        <time>2019-10-26T09:33:21.000Z</time>
      </trkpt>
      <trkpt lat="47.88808" lon="3.722">
        <ele>158</ele>
        <time>2019-10-26T09:33:22.000Z</time>
      </trkpt>
      <trkpt lat="47.88807" lon="3.72203">
        <ele>158</ele>
        <time>2019-10-26T09:33:23.000Z</time>
      </trkpt>
      <trkpt lat="47.88805" lon="3.72206">
        <ele>158</ele>
        <time>2019-10-26T09:33:24.000Z</time>
      </trkpt>
      <trkpt lat="47.88805" lon="3.72208">
        <ele>158</ele>
        <time>2019-10-26T09:33:25.000Z</time>
      </trkpt>
      <trkpt lat="47.88804" lon="3.72211">
        <ele>158</ele>
        <time>2019-10-26T09:33:26.000Z</time>
      </trkpt>
      <trkpt lat="47.88803" lon="3.72214">
        <ele>158</ele>
        <time>2019-10-26T09:33:27.000Z</time>
      </trkpt>
      <trkpt lat="47.88801" lon="3.72217">
        <ele>158</ele>
        <time>2019-10-26T09:33:28.000Z</time>
      </trkpt>
      <trkpt lat="47.888" lon="3.72219">
        <ele>159</ele>
        <time>2019-10-26T09:33:29.000Z</time>
      </trkpt>
      <trkpt lat="47.88799" lon="3.72222">
        <ele>159</ele>
        <time>2019-10-26T09:33:30.000Z</time>
      </trkpt>
      <trkpt lat="47.88798" lon="3.72225">
        <ele>159</ele>
        <time>2019-10-26T09:33:31.000Z</time>
      </trkpt>
      <trkpt lat="47.88797" lon="3.72227">
        <ele>159</ele>
        <time>2019-10-26T09:33:32.000Z</time>
      </trkpt>
      <trkpt lat="47.88796" lon="3.7223">
        <ele>159</ele>
        <time>2019-10-26T09:33:33.000Z</time>
      </trkpt>
      <trkpt lat="47.88795" lon="3.72233">
        <ele>159</ele>
        <time>2019-10-26T09:33:34.000Z</time>
      </trkpt>
      <trkpt lat="47.88794" lon="3.72235">
        <ele>159</ele>
        <time>2019-10-26T09:33:35.000Z</time>
      </trkpt>
      <trkpt lat="47.88793" lon="3.72238">
        <ele>159</ele>
        <time>2019-10-26T09:33:36.000Z</time>
      </trkpt>
      <trkpt lat="47.88792" lon="3.72241">
        <ele>160</ele>
        <time>2019-10-26T09:33:37.000Z</time>
      </trkpt>
      <trkpt lat="47.88791" lon="3.72243">
        <ele>160</ele>
        <time>2019-10-26T09:33:38.000Z</time>
      </trkpt>
      <trkpt lat="47.8879" lon="3.72246">
        <ele>160</ele>
        <time>2019-10-26T09:33:39.000Z</time>
      </trkpt>
      <trkpt lat="47.88789" lon="3.72249">
        <ele>160</ele>
        <time>2019-10-26T09:33:40.000Z</time>
      </trkpt>
      <trkpt lat="47.88788" lon="3.72252">
        <ele>160</ele>
        <time>2019-10-26T09:33:41.000Z</time>
      </trkpt>
      <trkpt lat="47.88787" lon="3.72254">
        <ele>160</ele>
        <time>2019-10-26T09:33:42.000Z</time>
      </trkpt>
      <trkpt lat="47.88786" lon="3.72257">
        <ele>160</ele>
        <time>2019-10-26T09:33:43.000Z</time>
      </trkpt>
      <trkpt lat="47.88784" lon="3.7226">
        <ele>161</ele>
        <time>2019-10-26T09:33:44.000Z</time>
      </trkpt>
      <trkpt lat="47.88783" lon="3.72262">
        <ele>161</ele>
        <time>2019-10-26T09:33:45.000Z</time>
      </trkpt>
      <trkpt lat="47.88782" lon="3.72265">
        <ele>161</ele>
        <time>2019-10-26T09:33:46.000Z</time>
      </trkpt>
      <trkpt lat="47.88781" lon="3.72268">
        <ele>161</ele>
        <time>2019-10-26T09:33:47.000Z</time>
      </trkpt>
      <trkpt lat="47.8878" lon="3.7227">
        <ele>161</ele>
        <time>2019-10-26T09:33:48.000Z</time>
      </trkpt>
      <trkpt lat="47.88779" lon="3.72273">
        <ele>162</ele>
        <time>2019-10-26T09:33:49.000Z</time>
      </trkpt>
      <trkpt lat="47.88778" lon="3.72275">
        <ele>162</ele>
        <time>2019-10-26T09:33:50.000Z</time>
      </trkpt>
      <trkpt lat="47.88776" lon="3.72278">
        <ele>162</ele>
        <time>2019-10-26T09:33:51.000Z</time>
      </trkpt>
      <trkpt lat="47.88775" lon="3.7228">
        <ele>162</ele>
        <time>2019-10-26T09:33:52.000Z</time>
      </trkpt>
      <trkpt lat="47.88774" lon="3.72283">
        <ele>162</ele>
        <time>2019-10-26T09:33:53.000Z</time>
      </trkpt>
      <trkpt lat="47.88773" lon="3.72285">
        <ele>162</ele>
        <time>2019-10-26T09:33:54.000Z</time>
      </trkpt>
      <trkpt lat="47.88771" lon="3.72288">
        <ele>162</ele>
        <time>2019-10-26T09:33:55.000Z</time>
      </trkpt>
      <trkpt lat="47.8877" lon="3.72291">
        <ele>162</ele>
        <time>2019-10-26T09:33:56.000Z</time>
      </trkpt>
      <trkpt lat="47.88769" lon="3.72293">
        <ele>162</ele>
        <time>2019-10-26T09:33:57.000Z</time>
      </trkpt>
      <trkpt lat="47.88768" lon="3.72296">
        <ele>162</ele>
        <time>2019-10-26T09:33:58.000Z</time>
      </trkpt>
      <trkpt lat="47.88766" lon="3.72299">
        <ele>163</ele>
        <time>2019-10-26T09:33:59.000Z</time>
      </trkpt>
      <trkpt lat="47.88765" lon="3.72301">
        <ele>163</ele>
        <time>2019-10-26T09:34:00.000Z</time>
      </trkpt>
      <trkpt lat="47.88764" lon="3.72304">
        <ele>163</ele>
        <time>2019-10-26T09:34:01.000Z</time>
      </trkpt>
      <trkpt lat="47.88762" lon="3.72306">
        <ele>163</ele>
        <time>2019-10-26T09:34:02.000Z</time>
      </trkpt>
      <trkpt lat="47.88761" lon="3.72308">
        <ele>163</ele>
        <time>2019-10-26T09:34:03.000Z</time>
      </trkpt>
      <trkpt lat="47.8876" lon="3.72311">
        <ele>163</ele>
        <time>2019-10-26T09:34:04.000Z</time>
      </trkpt>
      <trkpt lat="47.88759" lon="3.72314">
        <ele>163</ele>
        <time>2019-10-26T09:34:05.000Z</time>
      </trkpt>
      <trkpt lat="47.88758" lon="3.72316">
        <ele>163</ele>
        <time>2019-10-26T09:34:06.000Z</time>
      </trkpt>
      <trkpt lat="47.88756" lon="3.72319">
        <ele>163</ele>
        <time>2019-10-26T09:34:07.000Z</time>
      </trkpt>
      <trkpt lat="47.88755" lon="3.72321">
        <ele>163</ele>
        <time>2019-10-26T09:34:08.000Z</time>
      </trkpt>
      <trkpt lat="47.88754" lon="3.72324">
        <ele>164</ele>
        <time>2019-10-26T09:34:09.000Z</time>
      </trkpt>
      <trkpt lat="47.88752" lon="3.72326">
        <ele>164</ele>
        <time>2019-10-26T09:34:10.000Z</time>
      </trkpt>
      <trkpt lat="47.88752" lon="3.72329">
        <ele>164</ele>
        <time>2019-10-26T09:34:11.000Z</time>
      </trkpt>
      <trkpt lat="47.8875" lon="3.72332">
        <ele>164</ele>
        <time>2019-10-26T09:34:12.000Z</time>
      </trkpt>
      <trkpt lat="47.88749" lon="3.72334">
        <ele>164</ele>
        <time>2019-10-26T09:34:13.000Z</time>
      </trkpt>
      <trkpt lat="47.88748" lon="3.72337">
        <ele>164</ele>
        <time>2019-10-26T09:34:14.000Z</time>
      </trkpt>
      <trkpt lat="47.88747" lon="3.72339">
        <ele>164</ele>
        <time>2019-10-26T09:34:15.000Z</time>
      </trkpt>
      <trkpt lat="47.88746" lon="3.72342">
        <ele>164</ele>
        <time>2019-10-26T09:34:16.000Z</time>
      </trkpt>
      <trkpt lat="47.88744" lon="3.72344">
        <ele>164</ele>
        <time>2019-10-26T09:34:17.000Z</time>
      </trkpt>
      <trkpt lat="47.88743" lon="3.72347">
        <ele>164</ele>
        <time>2019-10-26T09:34:18.000Z</time>
      </trkpt>
      <trkpt lat="47.88742" lon="3.72349">
        <ele>164</ele>
        <time>2019-10-26T09:34:19.000Z</time>
      </trkpt>
      <trkpt lat="47.8874" lon="3.72352">
        <ele>164</ele>
        <time>2019-10-26T09:34:20.000Z</time>
      </trkpt>
      <trkpt lat="47.88739" lon="3.72355">
        <ele>164</ele>
        <time>2019-10-26T09:34:21.000Z</time>
      </trkpt>
      <trkpt lat="47.88738" lon="3.72358">
        <ele>165</ele>
        <time>2019-10-26T09:34:22.000Z</time>
      </trkpt>
      <trkpt lat="47.88736" lon="3.7236">
        <ele>165</ele>
        <time>2019-10-26T09:34:23.000Z</time>
      </trkpt>
      <trkpt lat="47.88735" lon="3.72363">
        <ele>165</ele>
        <time>2019-10-26T09:34:24.000Z</time>
      </trkpt>
      <trkpt lat="47.88734" lon="3.72366">
        <ele>165</ele>
        <time>2019-10-26T09:34:25.000Z</time>
      </trkpt>
      <trkpt lat="47.88733" lon="3.72368">
        <ele>165</ele>
        <time>2019-10-26T09:34:26.000Z</time>
      </trkpt>
      <trkpt lat="47.88732" lon="3.72371">
        <ele>165</ele>
        <time>2019-10-26T09:34:27.000Z</time>
      </trkpt>
      <trkpt lat="47.8873" lon="3.72373">
        <ele>165</ele>
        <time>2019-10-26T09:34:28.000Z</time>
      </trkpt>
      <trkpt lat="47.88729" lon="3.72376">
        <ele>165</ele>
        <time>2019-10-26T09:34:29.000Z</time>
      </trkpt>
      <trkpt lat="47.88728" lon="3.72379">
        <ele>165</ele>
        <time>2019-10-26T09:34:30.000Z</time>
      </trkpt>
      <trkpt lat="47.88726" lon="3.72381">
        <ele>165</ele>
        <time>2019-10-26T09:34:31.000Z</time>
      </trkpt>
      <trkpt lat="47.88725" lon="3.72384">
        <ele>165</ele>
        <time>2019-10-26T09:34:32.000Z</time>
      </trkpt>
      <trkpt lat="47.88724" lon="3.72387">
        <ele>166</ele>
        <time>2019-10-26T09:34:33.000Z</time>
      </trkpt>
      <trkpt lat="47.88723" lon="3.72389">
        <ele>166</ele>
        <time>2019-10-26T09:34:34.000Z</time>
      </trkpt>
      <trkpt lat="47.88721" lon="3.72392">
        <ele>166</ele>
        <time>2019-10-26T09:34:35.000Z</time>
      </trkpt>
      <trkpt lat="47.8872" lon="3.72394">
        <ele>166</ele>
        <time>2019-10-26T09:34:36.000Z</time>
      </trkpt>
      <trkpt lat="47.88719" lon="3.72397">
        <ele>166</ele>
        <time>2019-10-26T09:34:37.000Z</time>
      </trkpt>
      <trkpt lat="47.88718" lon="3.724">
        <ele>166</ele>
        <time>2019-10-26T09:34:38.000Z</time>
      </trkpt>
      <trkpt lat="47.88716" lon="3.72402">
        <ele>166</ele>
        <time>2019-10-26T09:34:39.000Z</time>
      </trkpt>
      <trkpt lat="47.88715" lon="3.72405">
        <ele>166</ele>
        <time>2019-10-26T09:34:40.000Z</time>
      </trkpt>
      <trkpt lat="47.88714" lon="3.72408">
        <ele>166</ele>
        <time>2019-10-26T09:34:41.000Z</time>
      </trkpt>
      <trkpt lat="47.88713" lon="3.7241">
        <ele>166</ele>
        <time>2019-10-26T09:34:42.000Z</time>
      </trkpt>
      <trkpt lat="47.88711" lon="3.72413">
        <ele>166</ele>
        <time>2019-10-26T09:34:43.000Z</time>
      </trkpt>
      <trkpt lat="47.8871" lon="3.72416">
        <ele>166</ele>
        <time>2019-10-26T09:34:44.000Z</time>
      </trkpt>
      <trkpt lat="47.88709" lon="3.72419">
        <ele>166</ele>
        <time>2019-10-26T09:34:45.000Z</time>
      </trkpt>
      <trkpt lat="47.88708" lon="3.72422">
        <ele>166</ele>
        <time>2019-10-26T09:34:46.000Z</time>
      </trkpt>
      <trkpt lat="47.88706" lon="3.72424">
        <ele>166</ele>
        <time>2019-10-26T09:34:47.000Z</time>
      </trkpt>
      <trkpt lat="47.88705" lon="3.72427">
        <ele>166</ele>
        <time>2019-10-26T09:34:48.000Z</time>
      </trkpt>
      <trkpt lat="47.88704" lon="3.7243">
        <ele>166</ele>
        <time>2019-10-26T09:34:49.000Z</time>
      </trkpt>
      <trkpt lat="47.88702" lon="3.72433">
        <ele>166</ele>
        <time>2019-10-26T09:34:50.000Z</time>
      </trkpt>
      <trkpt lat="47.88701" lon="3.72436">
        <ele>166</ele>
        <time>2019-10-26T09:34:51.000Z</time>
      </trkpt>
      <trkpt lat="47.887" lon="3.72439">
        <ele>166</ele>
        <time>2019-10-26T09:34:52.000Z</time>
      </trkpt>
      <trkpt lat="47.88699" lon="3.72442">
        <ele>166</ele>
        <time>2019-10-26T09:34:53.000Z</time>
      </trkpt>
      <trkpt lat="47.88698" lon="3.72445">
        <ele>166</ele>
        <time>2019-10-26T09:34:54.000Z</time>
      </trkpt>
      <trkpt lat="47.88696" lon="3.72447">
        <ele>166</ele>
        <time>2019-10-26T09:34:55.000Z</time>
      </trkpt>
      <trkpt lat="47.88694" lon="3.72449">
        <ele>166</ele>
        <time>2019-10-26T09:34:56.000Z</time>
      </trkpt>
      <trkpt lat="47.88692" lon="3.7245">
        <ele>166</ele>
        <time>2019-10-26T09:34:57.000Z</time>
      </trkpt>
      <trkpt lat="47.8869" lon="3.72451">
        <ele>166</ele>
        <time>2019-10-26T09:34:58.000Z</time>
      </trkpt>
      <trkpt lat="47.88688" lon="3.72451">
        <ele>166</ele>
        <time>2019-10-26T09:34:59.000Z</time>
      </trkpt>
      <trkpt lat="47.88685" lon="3.7245">
        <ele>166</ele>
        <time>2019-10-26T09:35:00.000Z</time>
      </trkpt>
      <trkpt lat="47.88683" lon="3.72449">
        <ele>166</ele>
        <time>2019-10-26T09:35:01.000Z</time>
      </trkpt>
      <trkpt lat="47.88681" lon="3.72448">
        <ele>166</ele>
        <time>2019-10-26T09:35:02.000Z</time>
      </trkpt>
      <trkpt lat="47.88679" lon="3.72448">
        <ele>166</ele>
        <time>2019-10-26T09:35:03.000Z</time>
      </trkpt>
      <trkpt lat="47.88677" lon="3.72447">
        <ele>166</ele>
        <time>2019-10-26T09:35:04.000Z</time>
      </trkpt>
      <trkpt lat="47.88675" lon="3.72446">
        <ele>166</ele>
        <time>2019-10-26T09:35:05.000Z</time>
      </trkpt>
      <trkpt lat="47.88674" lon="3.72446">
        <ele>166</ele>
        <time>2019-10-26T09:35:06.000Z</time>
      </trkpt>
      <trkpt lat="47.88672" lon="3.72445">
        <ele>166</ele>
        <time>2019-10-26T09:35:07.000Z</time>
      </trkpt>
      <trkpt lat="47.88671" lon="3.72445">
        <ele>166</ele>
        <time>2019-10-26T09:35:08.000Z</time>
      </trkpt>
      <trkpt lat="47.8867" lon="3.72444">
        <ele>166</ele>
        <time>2019-10-26T09:35:09.000Z</time>
      </trkpt>
      <trkpt lat="47.88669" lon="3.72444">
        <ele>166</ele>
        <time>2019-10-26T09:35:10.000Z</time>
      </trkpt>
      <trkpt lat="47.88669" lon="3.72444">
        <ele>166</ele>
        <time>2019-10-26T09:35:11.000Z</time>
      </trkpt>
      <trkpt lat="47.88668" lon="3.72443">
        <ele>166</ele>
        <time>2019-10-26T09:35:12.000Z</time>
      </trkpt>
      <trkpt lat="47.88668" lon="3.72442">
        <ele>166</ele>
        <time>2019-10-26T09:35:13.000Z</time>
      </trkpt>
      <trkpt lat="47.88668" lon="3.72442">
        <ele>166</ele>
        <time>2019-10-26T09:35:14.000Z</time>
      </trkpt>
      <trkpt lat="47.88668" lon="3.72442">
        <ele>166</ele>
        <time>2019-10-26T09:35:15.000Z</time>
      </trkpt>
      <trkpt lat="47.88668" lon="3.72442">
        <ele>166</ele>
        <time>2019-10-26T09:35:16.000Z</time>
      </trkpt>
      <trkpt lat="47.88668" lon="3.72442">
        <ele>166</ele>
        <time>2019-10-26T09:35:17.000Z</time>
      </trkpt>
      <trkpt lat="47.88668" lon="3.72442">
        <ele>166</ele>
        <time>2019-10-26T09:35:18.000Z</time>
      </trkpt>
      <trkpt lat="47.88668" lon="3.72442">
        <ele>166</ele>
        <time>2019-10-26T09:35:19.000Z</time>
      </trkpt>
      <trkpt lat="47.88668" lon="3.72442">
        <ele>166</ele>
        <time>2019-10-26T09:35:20.000Z</time>
      </trkpt>
      <trkpt lat="47.88668" lon="3.72441">
        <ele>166</ele>
        <time>2019-10-26T09:35:21.000Z</time>
      </trkpt>
      <trkpt lat="47.88668" lon="3.72441">
        <ele>166</ele>
        <time>2019-10-26T09:35:22.000Z</time>
      </trkpt>
      <trkpt lat="47.88668" lon="3.72441">
        <ele>166</ele>
        <time>2019-10-26T09:35:23.000Z</time>
      </trkpt>
      <trkpt lat="47.88668" lon="3.72441">
        <ele>166</ele>
        <time>2019-10-26T09:35:24.000Z</time>
      </trkpt>
      <trkpt lat="47.88668" lon="3.72441">
        <ele>166</ele>
        <time>2019-10-26T09:35:25.000Z</time>
      </trkpt>
      <trkpt lat="47.88668" lon="3.72441">
        <ele>166</ele>
        <time>2019-10-26T09:35:26.000Z</time>
      </trkpt>
      <trkpt lat="47.88668" lon="3.72441">
        <ele>166</ele>
        <time>2019-10-26T09:35:27.000Z</time>
      </trkpt>
      <trkpt lat="47.88668" lon="3.72441">
        <ele>166</ele>
        <time>2019-10-26T09:35:28.000Z</time>
      </trkpt>
      <trkpt lat="47.88667" lon="3.72441">
        <ele>166</ele>
        <time>2019-10-26T09:35:29.000Z</time>
      </trkpt>
      <trkpt lat="47.88667" lon="3.72441">
        <ele>166</ele>
        <time>2019-10-26T09:35:30.000Z</time>
      </trkpt>
      <trkpt lat="47.88667" lon="3.72441">
        <ele>166</ele>
        <time>2019-10-26T09:35:31.000Z</time>
      </trkpt>
      <trkpt lat="47.88667" lon="3.72441">
        <ele>166</ele>
        <time>2019-10-26T09:35:32.000Z</time>
      </trkpt>
      <trkpt lat="47.88667" lon="3.72441">
        <ele>166</ele>
        <time>2019-10-26T09:35:33.000Z</time>
      </trkpt>
      <trkpt lat="47.88667" lon="3.72441">
        <ele>166</ele>
        <time>2019-10-26T09:35:34.000Z</time>
      </trkpt>
      <trkpt lat="47.88667" lon="3.7244">
        <ele>166</ele>
        <time>2019-10-26T09:35:35.000Z</time>
      </trkpt>
      <trkpt lat="47.88667" lon="3.7244">
        <ele>166</ele>
        <time>2019-10-26T09:35:36.000Z</time>
      </trkpt>
      <trkpt lat="47.88667" lon="3.7244">
        <ele>166</ele>
        <time>2019-10-26T09:35:37.000Z</time>
      </trkpt>
      <trkpt lat="47.88667" lon="3.7244">
        <ele>166</ele>
        <time>2019-10-26T09:35:38.000Z</time>
      </trkpt>
      <trkpt lat="47.88667" lon="3.7244">
        <ele>166</ele>
        <time>2019-10-26T09:35:39.000Z</time>
      </trkpt>
      <trkpt lat="47.88667" lon="3.7244">
        <ele>166</ele>
        <time>2019-10-26T09:35:40.000Z</time>
      </trkpt>
      <trkpt lat="47.88667" lon="3.7244">
        <ele>166</ele>
        <time>2019-10-26T09:35:41.000Z</time>
      </trkpt>
      <trkpt lat="47.88667" lon="3.7244">
        <ele>166</ele>
        <time>2019-10-26T09:35:42.000Z</time>
      </trkpt>
      <trkpt lat="47.88667" lon="3.7244">
        <ele>166</ele>
        <time>2019-10-26T09:35:43.000Z</time>
      </trkpt>
      <trkpt lat="47.88667" lon="3.7244">
        <ele>166</ele>
        <time>2019-10-26T09:35:44.000Z</time>
      </trkpt>
      <trkpt lat="47.88667" lon="3.7244">
        <ele>166</ele>
        <time>2019-10-26T09:35:45.000Z</time>
      </trkpt>
      <trkpt lat="47.88667" lon="3.72439">
        <ele>166</ele>
        <time>2019-10-26T09:35:46.000Z</time>
      </trkpt>
      <trkpt lat="47.88667" lon="3.7244">
        <ele>166</ele>
        <time>2019-10-26T09:35:47.000Z</time>
      </trkpt>
      <trkpt lat="47.88667" lon="3.7244">
        <ele>166</ele>
        <time>2019-10-26T09:35:48.000Z</time>
      </trkpt>
      <trkpt lat="47.88667" lon="3.72441">
        <ele>166</ele>
        <time>2019-10-26T09:35:49.000Z</time>
      </trkpt>
      <trkpt lat="47.88667" lon="3.72441">
        <ele>166</ele>
        <time>2019-10-26T09:35:50.000Z</time>
      </trkpt>
      <trkpt lat="47.88666" lon="3.72442">
        <ele>166</ele>
        <time>2019-10-26T09:35:51.000Z</time>
      </trkpt>
      <trkpt lat="47.88665" lon="3.72443">
        <ele>166</ele>
        <time>2019-10-26T09:35:52.000Z</time>
      </trkpt>
      <trkpt lat="47.88664" lon="3.72443">
        <ele>166</ele>
        <time>2019-10-26T09:35:53.000Z</time>
      </trkpt>
      <trkpt lat="47.88663" lon="3.72442">
        <ele>166</ele>
        <time>2019-10-26T09:35:54.000Z</time>
      </trkpt>
      <trkpt lat="47.88662" lon="3.72441">
        <ele>166</ele>
        <time>2019-10-26T09:35:55.000Z</time>
      </trkpt>
      <trkpt lat="47.88661" lon="3.7244">
        <ele>166</ele>
        <time>2019-10-26T09:35:56.000Z</time>
      </trkpt>
      <trkpt lat="47.8866" lon="3.72439">
        <ele>166</ele>
        <time>2019-10-26T09:35:57.000Z</time>
      </trkpt>
      <trkpt lat="47.88659" lon="3.72438">
        <ele>166</ele>
        <time>2019-10-26T09:35:58.000Z</time>
      </trkpt>
      <trkpt lat="47.88658" lon="3.72438">
        <ele>166</ele>
        <time>2019-10-26T09:35:59.000Z</time>
      </trkpt>
      <trkpt lat="47.88656" lon="3.72437">
        <ele>166</ele>
        <time>2019-10-26T09:36:00.000Z</time>
      </trkpt>
      <trkpt lat="47.88655" lon="3.72436">
        <ele>166</ele>
        <time>2019-10-26T09:36:01.000Z</time>
      </trkpt>
      <trkpt lat="47.88653" lon="3.72436">
        <ele>166</ele>
        <time>2019-10-26T09:36:02.000Z</time>
      </trkpt>
      <trkpt lat="47.88652" lon="3.72435">
        <ele>166</ele>
        <time>2019-10-26T09:36:03.000Z</time>
      </trkpt>
      <trkpt lat="47.88651" lon="3.72435">
        <ele>166</ele>
        <time>2019-10-26T09:36:04.000Z</time>
      </trkpt>
      <trkpt lat="47.8865" lon="3.72434">
        <ele>167</ele>
        <time>2019-10-26T09:36:05.000Z</time>
      </trkpt>
      <trkpt lat="47.88648" lon="3.72434">
        <ele>167</ele>
        <time>2019-10-26T09:36:06.000Z</time>
      </trkpt>
      <trkpt lat="47.88647" lon="3.72433">
        <ele>167</ele>
        <time>2019-10-26T09:36:07.000Z</time>
      </trkpt>
      <trkpt lat="47.88645" lon="3.72433">
        <ele>167</ele>
        <time>2019-10-26T09:36:08.000Z</time>
      </trkpt>
      <trkpt lat="47.88644" lon="3.72433">
        <ele>167</ele>
        <time>2019-10-26T09:36:09.000Z</time>
      </trkpt>
      <trkpt lat="47.88643" lon="3.72432">
        <ele>167</ele>
        <time>2019-10-26T09:36:10.000Z</time>
      </trkpt>
      <trkpt lat="47.88641" lon="3.72432">
        <ele>167</ele>
        <time>2019-10-26T09:36:11.000Z</time>
      </trkpt>
      <trkpt lat="47.8864" lon="3.72431">
        <ele>167</ele>
        <time>2019-10-26T09:36:12.000Z</time>
      </trkpt>
      <trkpt lat="47.88639" lon="3.72431">
        <ele>168</ele>
        <time>2019-10-26T09:36:13.000Z</time>
      </trkpt>
      <trkpt lat="47.88637" lon="3.72431">
        <ele>168</ele>
        <time>2019-10-26T09:36:14.000Z</time>
      </trkpt>
      <trkpt lat="47.88636" lon="3.7243">
        <ele>168</ele>
        <time>2019-10-26T09:36:15.000Z</time>
      </trkpt>
      <trkpt lat="47.88634" lon="3.72429">
        <ele>168</ele>
        <time>2019-10-26T09:36:16.000Z</time>
      </trkpt>
      <trkpt lat="47.88633" lon="3.72429">
        <ele>168</ele>
        <time>2019-10-26T09:36:17.000Z</time>
      </trkpt>
      <trkpt lat="47.88631" lon="3.72428">
        <ele>168</ele>
        <time>2019-10-26T09:36:18.000Z</time>
      </trkpt>
      <trkpt lat="47.8863" lon="3.72427">
        <ele>168</ele>
        <time>2019-10-26T09:36:19.000Z</time>
      </trkpt>
      <trkpt lat="47.88628" lon="3.72427">
        <ele>168</ele>
        <time>2019-10-26T09:36:20.000Z</time>
      </trkpt>
      <trkpt lat="47.88627" lon="3.72426">
        <ele>168</ele>
        <time>2019-10-26T09:36:21.000Z</time>
      </trkpt>
      <trkpt lat="47.88625" lon="3.72425">
        <ele>168</ele>
        <time>2019-10-26T09:36:22.000Z</time>
      </trkpt>
      <trkpt lat="47.88624" lon="3.72425">
        <ele>168</ele>
        <time>2019-10-26T09:36:23.000Z</time>
      </trkpt>
      <trkpt lat="47.88622" lon="3.72424">
        <ele>168</ele>
        <time>2019-10-26T09:36:24.000Z</time>
      </trkpt>
      <trkpt lat="47.88621" lon="3.72423">
        <ele>168</ele>
        <time>2019-10-26T09:36:25.000Z</time>
      </trkpt>
      <trkpt lat="47.88619" lon="3.72422">
        <ele>168</ele>
        <time>2019-10-26T09:36:26.000Z</time>
      </trkpt>
      <trkpt lat="47.88618" lon="3.72422">
        <ele>169</ele>
        <time>2019-10-26T09:36:27.000Z</time>
      </trkpt>
      <trkpt lat="47.88616" lon="3.72421">
        <ele>169</ele>
        <time>2019-10-26T09:36:28.000Z</time>
      </trkpt>
      <trkpt lat="47.88614" lon="3.7242">
        <ele>169</ele>
        <time>2019-10-26T09:36:29.000Z</time>
      </trkpt>
      <trkpt lat="47.88613" lon="3.72419">
        <ele>169</ele>
        <time>2019-10-26T09:36:30.000Z</time>
      </trkpt>
      <trkpt lat="47.88611" lon="3.72419">
        <ele>169</ele>
        <time>2019-10-26T09:36:31.000Z</time>
      </trkpt>
      <trkpt lat="47.8861" lon="3.72418">
        <ele>169</ele>
        <time>2019-10-26T09:36:32.000Z</time>
      </trkpt>
      <trkpt lat="47.88608" lon="3.72417">
        <ele>169</ele>
        <time>2019-10-26T09:36:33.000Z</time>
      </trkpt>
      <trkpt lat="47.88607" lon="3.72416">
        <ele>170</ele>
        <time>2019-10-26T09:36:34.000Z</time>
      </trkpt>
      <trkpt lat="47.88605" lon="3.72416">
        <ele>170</ele>
        <time>2019-10-26T09:36:35.000Z</time>
      </trkpt>
      <trkpt lat="47.88603" lon="3.72415">
        <ele>170</ele>
        <time>2019-10-26T09:36:36.000Z</time>
      </trkpt>
      <trkpt lat="47.88602" lon="3.72414">
        <ele>170</ele>
        <time>2019-10-26T09:36:37.000Z</time>
      </trkpt>
      <trkpt lat="47.886" lon="3.72413">
        <ele>170</ele>
        <time>2019-10-26T09:36:38.000Z</time>
      </trkpt>
      <trkpt lat="47.88598" lon="3.72412">
        <ele>170</ele>
        <time>2019-10-26T09:36:39.000Z</time>
      </trkpt>
      <trkpt lat="47.88597" lon="3.72411">
        <ele>171</ele>
        <time>2019-10-26T09:36:40.000Z</time>
      </trkpt>
      <trkpt lat="47.88595" lon="3.72411">
        <ele>171</ele>
        <time>2019-10-26T09:36:41.000Z</time>
      </trkpt>
      <trkpt lat="47.88593" lon="3.7241">
        <ele>171</ele>
        <time>2019-10-26T09:36:42.000Z</time>
      </trkpt>
      <trkpt lat="47.88592" lon="3.72409">
        <ele>171</ele>
        <time>2019-10-26T09:36:43.000Z</time>
      </trkpt>
      <trkpt lat="47.88591" lon="3.72408">
        <ele>171</ele>
        <time>2019-10-26T09:36:44.000Z</time>
      </trkpt>
      <trkpt lat="47.88589" lon="3.72407">
        <ele>171</ele>
        <time>2019-10-26T09:36:45.000Z</time>
      </trkpt>
      <trkpt lat="47.88588" lon="3.72406">
        <ele>171</ele>
        <time>2019-10-26T09:36:46.000Z</time>
      </trkpt>
      <trkpt lat="47.88586" lon="3.72405">
        <ele>171</ele>
        <time>2019-10-26T09:36:47.000Z</time>
      </trkpt>
      <trkpt lat="47.88585" lon="3.72404">
        <ele>171</ele>
        <time>2019-10-26T09:36:48.000Z</time>
      </trkpt>
      <trkpt lat="47.88583" lon="3.72402">
        <ele>171</ele>
        <time>2019-10-26T09:36:49.000Z</time>
      </trkpt>
      <trkpt lat="47.88582" lon="3.72401">
        <ele>172</ele>
        <time>2019-10-26T09:36:50.000Z</time>
      </trkpt>
      <trkpt lat="47.8858" lon="3.724">
        <ele>172</ele>
        <time>2019-10-26T09:36:51.000Z</time>
      </trkpt>
      <trkpt lat="47.88579" lon="3.72399">
        <ele>172</ele>
        <time>2019-10-26T09:36:52.000Z</time>
      </trkpt>
      <trkpt lat="47.88577" lon="3.72398">
        <ele>172</ele>
        <time>2019-10-26T09:36:53.000Z</time>
      </trkpt>
      <trkpt lat="47.88576" lon="3.72397">
        <ele>172</ele>
        <time>2019-10-26T09:36:54.000Z</time>
      </trkpt>
      <trkpt lat="47.88574" lon="3.72396">
        <ele>172</ele>
        <time>2019-10-26T09:36:55.000Z</time>
      </trkpt>
      <trkpt lat="47.88573" lon="3.72395">
        <ele>171</ele>
        <time>2019-10-26T09:36:56.000Z</time>
      </trkpt>
      <trkpt lat="47.88571" lon="3.72395">
        <ele>171</ele>
        <time>2019-10-26T09:36:57.000Z</time>
      </trkpt>
      <trkpt lat="47.88569" lon="3.72393">
        <ele>171</ele>
        <time>2019-10-26T09:36:58.000Z</time>
      </trkpt>
      <trkpt lat="47.88568" lon="3.72393">
        <ele>171</ele>
        <time>2019-10-26T09:36:59.000Z</time>
      </trkpt>
      <trkpt lat="47.88566" lon="3.72392">
        <ele>171</ele>
        <time>2019-10-26T09:37:00.000Z</time>
      </trkpt>
      <trkpt lat="47.88565" lon="3.72391">
        <ele>171</ele>
        <time>2019-10-26T09:37:01.000Z</time>
      </trkpt>
      <trkpt lat="47.88563" lon="3.7239">
        <ele>171</ele>
        <time>2019-10-26T09:37:02.000Z</time>
      </trkpt>
      <trkpt lat="47.88562" lon="3.72389">
        <ele>171</ele>
        <time>2019-10-26T09:37:03.000Z</time>
      </trkpt>
      <trkpt lat="47.8856" lon="3.72388">
        <ele>170</ele>
        <time>2019-10-26T09:37:04.000Z</time>
      </trkpt>
      <trkpt lat="47.88559" lon="3.72387">
        <ele>170</ele>
        <time>2019-10-26T09:37:05.000Z</time>
      </trkpt>
      <trkpt lat="47.88557" lon="3.72386">
        <ele>170</ele>
        <time>2019-10-26T09:37:06.000Z</time>
      </trkpt>
      <trkpt lat="47.88556" lon="3.72385">
        <ele>170</ele>
        <time>2019-10-26T09:37:07.000Z</time>
      </trkpt>
      <trkpt lat="47.88554" lon="3.72384">
        <ele>170</ele>
        <time>2019-10-26T09:37:08.000Z</time>
      </trkpt>
      <trkpt lat="47.88553" lon="3.72383">
        <ele>170</ele>
        <time>2019-10-26T09:37:09.000Z</time>
      </trkpt>
      <trkpt lat="47.88551" lon="3.72382">
        <ele>170</ele>
        <time>2019-10-26T09:37:10.000Z</time>
      </trkpt>
      <trkpt lat="47.88549" lon="3.72381">
        <ele>170</ele>
        <time>2019-10-26T09:37:11.000Z</time>
      </trkpt>
      <trkpt lat="47.88548" lon="3.7238">
        <ele>170</ele>
        <time>2019-10-26T09:37:12.000Z</time>
      </trkpt>
      <trkpt lat="47.88546" lon="3.72379">
        <ele>170</ele>
        <time>2019-10-26T09:37:13.000Z</time>
      </trkpt>
      <trkpt lat="47.88545" lon="3.72378">
        <ele>170</ele>
        <time>2019-10-26T09:37:14.000Z</time>
      </trkpt>
      <trkpt lat="47.88543" lon="3.72377">
        <ele>170</ele>
        <time>2019-10-26T09:37:15.000Z</time>
      </trkpt>
      <trkpt lat="47.88542" lon="3.72376">
        <ele>170</ele>
        <time>2019-10-26T09:37:16.000Z</time>
      </trkpt>
      <trkpt lat="47.8854" lon="3.72375">
        <ele>170</ele>
        <time>2019-10-26T09:37:17.000Z</time>
      </trkpt>
      <trkpt lat="47.88539" lon="3.72374">
        <ele>170</ele>
        <time>2019-10-26T09:37:18.000Z</time>
      </trkpt>
      <trkpt lat="47.88537" lon="3.72373">
        <ele>170</ele>
        <time>2019-10-26T09:37:19.000Z</time>
      </trkpt>
      <trkpt lat="47.88536" lon="3.72372">
        <ele>170</ele>
        <time>2019-10-26T09:37:20.000Z</time>
      </trkpt>
      <trkpt lat="47.88534" lon="3.72371">
        <ele>170</ele>
        <time>2019-10-26T09:37:21.000Z</time>
      </trkpt>
      <trkpt lat="47.88532" lon="3.7237">
        <ele>170</ele>
        <time>2019-10-26T09:37:22.000Z</time>
      </trkpt>
      <trkpt lat="47.8853" lon="3.72368">
        <ele>170</ele>
        <time>2019-10-26T09:37:23.000Z</time>
      </trkpt>
      <trkpt lat="47.88528" lon="3.72367">
        <ele>171</ele>
        <time>2019-10-26T09:37:24.000Z</time>
      </trkpt>
      <trkpt lat="47.88526" lon="3.72365">
        <ele>171</ele>
        <time>2019-10-26T09:37:25.000Z</time>
      </trkpt>
      <trkpt lat="47.88524" lon="3.72364">
        <ele>171</ele>
        <time>2019-10-26T09:37:26.000Z</time>
      </trkpt>
      <trkpt lat="47.88522" lon="3.72363">
        <ele>171</ele>
        <time>2019-10-26T09:37:27.000Z</time>
      </trkpt>
      <trkpt lat="47.8852" lon="3.72362">
        <ele>171</ele>
        <time>2019-10-26T09:37:28.000Z</time>
      </trkpt>
      <trkpt lat="47.88518" lon="3.72361">
        <ele>171</ele>
        <time>2019-10-26T09:37:29.000Z</time>
      </trkpt>
      <trkpt lat="47.88516" lon="3.72359">
        <ele>171</ele>
        <time>2019-10-26T09:37:30.000Z</time>
      </trkpt>
      <trkpt lat="47.88514" lon="3.72358">
        <ele>171</ele>
        <time>2019-10-26T09:37:31.000Z</time>
      </trkpt>
      <trkpt lat="47.88512" lon="3.72356">
        <ele>171</ele>
        <time>2019-10-26T09:37:32.000Z</time>
      </trkpt>
      <trkpt lat="47.8851" lon="3.72355">
        <ele>171</ele>
        <time>2019-10-26T09:37:33.000Z</time>
      </trkpt>
      <trkpt lat="47.88508" lon="3.72353">
        <ele>171</ele>
        <time>2019-10-26T09:37:34.000Z</time>
      </trkpt>
      <trkpt lat="47.88506" lon="3.72352">
        <ele>171</ele>
        <time>2019-10-26T09:37:35.000Z</time>
      </trkpt>
      <trkpt lat="47.88504" lon="3.72351">
        <ele>171</ele>
        <time>2019-10-26T09:37:36.000Z</time>
      </trkpt>
      <trkpt lat="47.88502" lon="3.7235">
        <ele>171</ele>
        <time>2019-10-26T09:37:37.000Z</time>
      </trkpt>
      <trkpt lat="47.885" lon="3.72349">
        <ele>171</ele>
        <time>2019-10-26T09:37:38.000Z</time>
      </trkpt>
      <trkpt lat="47.88498" lon="3.72347">
        <ele>172</ele>
        <time>2019-10-26T09:37:39.000Z</time>
      </trkpt>
      <trkpt lat="47.88496" lon="3.72346">
        <ele>172</ele>
        <time>2019-10-26T09:37:40.000Z</time>
      </trkpt>
      <trkpt lat="47.88494" lon="3.72344">
        <ele>172</ele>
        <time>2019-10-26T09:37:41.000Z</time>
      </trkpt>
      <trkpt lat="47.88492" lon="3.72342">
        <ele>172</ele>
        <time>2019-10-26T09:37:42.000Z</time>
      </trkpt>
      <trkpt lat="47.8849" lon="3.72341">
        <ele>172</ele>
        <time>2019-10-26T09:37:43.000Z</time>
      </trkpt>
      <trkpt lat="47.88488" lon="3.72339">
        <ele>172</ele>
        <time>2019-10-26T09:37:44.000Z</time>
      </trkpt>
      <trkpt lat="47.88486" lon="3.72338">
        <ele>172</ele>
        <time>2019-10-26T09:37:45.000Z</time>
      </trkpt>
      <trkpt lat="47.88484" lon="3.72336">
        <ele>172</ele>
        <time>2019-10-26T09:37:46.000Z</time>
      </trkpt>
      <trkpt lat="47.88482" lon="3.72335">
        <ele>172</ele>
        <time>2019-10-26T09:37:47.000Z</time>
      </trkpt>
      <trkpt lat="47.88479" lon="3.72334">
        <ele>172</ele>
        <time>2019-10-26T09:37:48.000Z</time>
      </trkpt>
      <trkpt lat="47.88477" lon="3.72332">
        <ele>173</ele>
        <time>2019-10-26T09:37:49.000Z</time>
      </trkpt>
      <trkpt lat="47.88475" lon="3.72331">
        <ele>173</ele>
        <time>2019-10-26T09:37:50.000Z</time>
      </trkpt>
      <trkpt lat="47.88473" lon="3.72329">
        <ele>173</ele>
        <time>2019-10-26T09:37:51.000Z</time>
      </trkpt>
      <trkpt lat="47.88471" lon="3.72328">
        <ele>173</ele>
        <time>2019-10-26T09:37:52.000Z</time>
      </trkpt>
      <trkpt lat="47.88468" lon="3.72326">
        <ele>173</ele>
        <time>2019-10-26T09:37:53.000Z</time>
      </trkpt>
      <trkpt lat="47.88466" lon="3.72325">
        <ele>173</ele>
        <time>2019-10-26T09:37:54.000Z</time>
      </trkpt>
      <trkpt lat="47.88464" lon="3.72324">
        <ele>173</ele>
        <time>2019-10-26T09:37:55.000Z</time>
      </trkpt>
      <trkpt lat="47.88461" lon="3.72323">
        <ele>173</ele>
        <time>2019-10-26T09:37:56.000Z</time>
      </trkpt>
      <trkpt lat="47.88459" lon="3.72322">
        <ele>173</ele>
        <time>2019-10-26T09:37:57.000Z</time>
      </trkpt>
      <trkpt lat="47.88456" lon="3.72321">
        <ele>173</ele>
        <time>2019-10-26T09:37:58.000Z</time>
      </trkpt>
      <trkpt lat="47.88454" lon="3.72321">
        <ele>173</ele>
        <time>2019-10-26T09:37:59.000Z</time>
      </trkpt>
      <trkpt lat="47.88451" lon="3.7232">
        <ele>173</ele>
        <time>2019-10-26T09:38:00.000Z</time>
      </trkpt>
      <trkpt lat="47.88449" lon="3.7232">
        <ele>173</ele>
        <time>2019-10-26T09:38:01.000Z</time>
      </trkpt>
      <trkpt lat="47.88446" lon="3.7232">
        <ele>173</ele>
        <time>2019-10-26T09:38:02.000Z</time>
      </trkpt>
      <trkpt lat="47.88444" lon="3.7232">
        <ele>173</ele>
        <time>2019-10-26T09:38:03.000Z</time>
      </trkpt>
      <trkpt lat="47.88441" lon="3.7232">
        <ele>172</ele>
        <time>2019-10-26T09:38:04.000Z</time>
      </trkpt>
      <trkpt lat="47.88438" lon="3.7232">
        <ele>172</ele>
        <time>2019-10-26T09:38:05.000Z</time>
      </trkpt>
      <trkpt lat="47.88436" lon="3.7232">
        <ele>172</ele>
        <time>2019-10-26T09:38:06.000Z</time>
      </trkpt>
      <trkpt lat="47.88433" lon="3.72321">
        <ele>172</ele>
        <time>2019-10-26T09:38:07.000Z</time>
      </trkpt>
      <trkpt lat="47.88431" lon="3.72321">
        <ele>172</ele>
        <time>2019-10-26T09:38:08.000Z</time>
      </trkpt>
      <trkpt lat="47.88429" lon="3.72322">
        <ele>172</ele>
        <time>2019-10-26T09:38:09.000Z</time>
      </trkpt>
      <trkpt lat="47.88426" lon="3.72323">
        <ele>172</ele>
        <time>2019-10-26T09:38:10.000Z</time>
      </trkpt>
      <trkpt lat="47.88424" lon="3.72324">
        <ele>172</ele>
        <time>2019-10-26T09:38:11.000Z</time>
      </trkpt>
      <trkpt lat="47.88422" lon="3.72324">
        <ele>172</ele>
        <time>2019-10-26T09:38:12.000Z</time>
      </trkpt>
      <trkpt lat="47.8842" lon="3.72326">
        <ele>172</ele>
        <time>2019-10-26T09:38:13.000Z</time>
      </trkpt>
      <trkpt lat="47.88418" lon="3.72327">
        <ele>172</ele>
        <time>2019-10-26T09:38:14.000Z</time>
      </trkpt>
      <trkpt lat="47.88416" lon="3.72329">
        <ele>172</ele>
        <time>2019-10-26T09:38:15.000Z</time>
      </trkpt>
      <trkpt lat="47.88414" lon="3.7233">
        <ele>172</ele>
        <time>2019-10-26T09:38:16.000Z</time>
      </trkpt>
      <trkpt lat="47.88412" lon="3.72331">
        <ele>172</ele>
        <time>2019-10-26T09:38:17.000Z</time>
      </trkpt>
      <trkpt lat="47.8841" lon="3.72332">
        <ele>172</ele>
        <time>2019-10-26T09:38:18.000Z</time>
      </trkpt>
      <trkpt lat="47.88407" lon="3.72333">
        <ele>172</ele>
        <time>2019-10-26T09:38:19.000Z</time>
      </trkpt>
      <trkpt lat="47.88405" lon="3.72335">
        <ele>172</ele>
        <time>2019-10-26T09:38:20.000Z</time>
      </trkpt>
      <trkpt lat="47.88403" lon="3.72336">
        <ele>173</ele>
        <time>2019-10-26T09:38:21.000Z</time>
      </trkpt>
      <trkpt lat="47.88401" lon="3.72337">
        <ele>173</ele>
        <time>2019-10-26T09:38:22.000Z</time>
      </trkpt>
      <trkpt lat="47.88399" lon="3.72338">
        <ele>173</ele>
        <time>2019-10-26T09:38:23.000Z</time>
      </trkpt>
      <trkpt lat="47.88396" lon="3.72339">
        <ele>173</ele>
        <time>2019-10-26T09:38:24.000Z</time>
      </trkpt>
      <trkpt lat="47.88394" lon="3.7234">
        <ele>173</ele>
        <time>2019-10-26T09:38:25.000Z</time>
      </trkpt>
      <trkpt lat="47.88391" lon="3.72341">
        <ele>173</ele>
        <time>2019-10-26T09:38:26.000Z</time>
      </trkpt>
      <trkpt lat="47.88389" lon="3.72342">
        <ele>173</ele>
        <time>2019-10-26T09:38:27.000Z</time>
      </trkpt>
      <trkpt lat="47.88386" lon="3.72343">
        <ele>173</ele>
        <time>2019-10-26T09:38:28.000Z</time>
      </trkpt>
      <trkpt lat="47.88384" lon="3.72344">
        <ele>173</ele>
        <time>2019-10-26T09:38:29.000Z</time>
      </trkpt>
      <trkpt lat="47.88382" lon="3.72345">
        <ele>173</ele>
        <time>2019-10-26T09:38:30.000Z</time>
      </trkpt>
      <trkpt lat="47.88379" lon="3.72346">
        <ele>173</ele>
        <time>2019-10-26T09:38:31.000Z</time>
      </trkpt>
      <trkpt lat="47.88377" lon="3.72347">
        <ele>173</ele>
        <time>2019-10-26T09:38:32.000Z</time>
      </trkpt>
      <trkpt lat="47.88375" lon="3.72348">
        <ele>173</ele>
        <time>2019-10-26T09:38:33.000Z</time>
      </trkpt>
      <trkpt lat="47.88372" lon="3.72349">
        <ele>173</ele>
        <time>2019-10-26T09:38:34.000Z</time>
      </trkpt>
      <trkpt lat="47.8837" lon="3.7235">
        <ele>173</ele>
        <time>2019-10-26T09:38:35.000Z</time>
      </trkpt>
      <trkpt lat="47.88368" lon="3.72351">
        <ele>173</ele>
        <time>2019-10-26T09:38:36.000Z</time>
      </trkpt>
      <trkpt lat="47.88365" lon="3.72353">
        <ele>173</ele>
        <time>2019-10-26T09:38:37.000Z</time>
      </trkpt>
      <trkpt lat="47.88363" lon="3.72354">
        <ele>173</ele>
        <time>2019-10-26T09:38:38.000Z</time>
      </trkpt>
      <trkpt lat="47.8836" lon="3.72356">
        <ele>173</ele>
        <time>2019-10-26T09:38:39.000Z</time>
      </trkpt>
      <trkpt lat="47.88358" lon="3.72357">
        <ele>174</ele>
        <time>2019-10-26T09:38:40.000Z</time>
      </trkpt>
      <trkpt lat="47.88356" lon="3.72358">
        <ele>174</ele>
        <time>2019-10-26T09:38:41.000Z</time>
      </trkpt>
      <trkpt lat="47.88354" lon="3.7236">
        <ele>174</ele>
        <time>2019-10-26T09:38:42.000Z</time>
      </trkpt>
      <trkpt lat="47.88352" lon="3.72361">
        <ele>174</ele>
        <time>2019-10-26T09:38:43.000Z</time>
      </trkpt>
      <trkpt lat="47.8835" lon="3.72362">
        <ele>174</ele>
        <time>2019-10-26T09:38:44.000Z</time>
      </trkpt>
      <trkpt lat="47.88348" lon="3.72363">
        <ele>174</ele>
        <time>2019-10-26T09:38:45.000Z</time>
      </trkpt>
      <trkpt lat="47.88346" lon="3.72364">
        <ele>174</ele>
        <time>2019-10-26T09:38:46.000Z</time>
      </trkpt>
      <trkpt lat="47.88344" lon="3.72365">
        <ele>175</ele>
        <time>2019-10-26T09:38:47.000Z</time>
      </trkpt>
      <trkpt lat="47.88342" lon="3.72366">
        <ele>175</ele>
        <time>2019-10-26T09:38:48.000Z</time>
      </trkpt>
      <trkpt lat="47.8834" lon="3.72367">
        <ele>175</ele>
        <time>2019-10-26T09:38:49.000Z</time>
      </trkpt>
      <trkpt lat="47.88338" lon="3.72368">
        <ele>175</ele>
        <time>2019-10-26T09:38:50.000Z</time>
      </trkpt>
      <trkpt lat="47.88336" lon="3.72369">
        <ele>175</ele>
        <time>2019-10-26T09:38:51.000Z</time>
      </trkpt>
      <trkpt lat="47.88334" lon="3.7237">
        <ele>175</ele>
        <time>2019-10-26T09:38:52.000Z</time>
      </trkpt>
      <trkpt lat="47.88332" lon="3.72371">
        <ele>175</ele>
        <time>2019-10-26T09:38:53.000Z</time>
      </trkpt>
      <trkpt lat="47.8833" lon="3.72372">
        <ele>175</ele>
        <time>2019-10-26T09:38:54.000Z</time>
      </trkpt>
      <trkpt lat="47.88328" lon="3.72373">
        <ele>175</ele>
        <time>2019-10-26T09:38:55.000Z</time>
      </trkpt>
      <trkpt lat="47.88326" lon="3.72374">
        <ele>175</ele>
        <time>2019-10-26T09:38:56.000Z</time>
      </trkpt>
      <trkpt lat="47.88324" lon="3.72376">
        <ele>175</ele>
        <time>2019-10-26T09:38:57.000Z</time>
      </trkpt>
      <trkpt lat="47.88322" lon="3.72377">
        <ele>175</ele>
        <time>2019-10-26T09:38:58.000Z</time>
      </trkpt>
      <trkpt lat="47.8832" lon="3.72378">
        <ele>175</ele>
        <time>2019-10-26T09:38:59.000Z</time>
      </trkpt>
      <trkpt lat="47.88317" lon="3.72379">
        <ele>175</ele>
        <time>2019-10-26T09:39:00.000Z</time>
      </trkpt>
      <trkpt lat="47.88315" lon="3.7238">
        <ele>175</ele>
        <time>2019-10-26T09:39:01.000Z</time>
      </trkpt>
      <trkpt lat="47.88313" lon="3.72381">
        <ele>175</ele>
        <time>2019-10-26T09:39:02.000Z</time>
      </trkpt>
      <trkpt lat="47.88311" lon="3.72382">
        <ele>175</ele>
        <time>2019-10-26T09:39:03.000Z</time>
      </trkpt>
      <trkpt lat="47.88309" lon="3.72383">
        <ele>175</ele>
        <time>2019-10-26T09:39:04.000Z</time>
      </trkpt>
      <trkpt lat="47.88306" lon="3.72384">
        <ele>175</ele>
        <time>2019-10-26T09:39:05.000Z</time>
      </trkpt>
      <trkpt lat="47.88304" lon="3.72385">
        <ele>175</ele>
        <time>2019-10-26T09:39:06.000Z</time>
      </trkpt>
      <trkpt lat="47.88302" lon="3.72385">
        <ele>175</ele>
        <time>2019-10-26T09:39:07.000Z</time>
      </trkpt>
      <trkpt lat="47.883" lon="3.72386">
        <ele>175</ele>
        <time>2019-10-26T09:39:08.000Z</time>
      </trkpt>
      <trkpt lat="47.88297" lon="3.72387">
        <ele>175</ele>
        <time>2019-10-26T09:39:09.000Z</time>
      </trkpt>
      <trkpt lat="47.88295" lon="3.72388">
        <ele>175</ele>
        <time>2019-10-26T09:39:10.000Z</time>
      </trkpt>
      <trkpt lat="47.88293" lon="3.72389">
        <ele>175</ele>
        <time>2019-10-26T09:39:11.000Z</time>
      </trkpt>
      <trkpt lat="47.8829" lon="3.7239">
        <ele>175</ele>
        <time>2019-10-26T09:39:12.000Z</time>
      </trkpt>
      <trkpt lat="47.88288" lon="3.72392">
        <ele>175</ele>
        <time>2019-10-26T09:39:13.000Z</time>
      </trkpt>
      <trkpt lat="47.88286" lon="3.72393">
        <ele>175</ele>
        <time>2019-10-26T09:39:14.000Z</time>
      </trkpt>
      <trkpt lat="47.88283" lon="3.72394">
        <ele>175</ele>
        <time>2019-10-26T09:39:15.000Z</time>
      </trkpt>
      <trkpt lat="47.88281" lon="3.72396">
        <ele>175</ele>
        <time>2019-10-26T09:39:16.000Z</time>
      </trkpt>
      <trkpt lat="47.88279" lon="3.72397">
        <ele>175</ele>
        <time>2019-10-26T09:39:17.000Z</time>
      </trkpt>
      <trkpt lat="47.88277" lon="3.72398">
        <ele>175</ele>
        <time>2019-10-26T09:39:18.000Z</time>
      </trkpt>
      <trkpt lat="47.88275" lon="3.72399">
        <ele>175</ele>
        <time>2019-10-26T09:39:19.000Z</time>
      </trkpt>
      <trkpt lat="47.88273" lon="3.724">
        <ele>175</ele>
        <time>2019-10-26T09:39:20.000Z</time>
      </trkpt>
      <trkpt lat="47.88271" lon="3.72401">
        <ele>175</ele>
        <time>2019-10-26T09:39:21.000Z</time>
      </trkpt>
      <trkpt lat="47.88269" lon="3.72403">
        <ele>175</ele>
        <time>2019-10-26T09:39:22.000Z</time>
      </trkpt>
      <trkpt lat="47.88267" lon="3.72404">
        <ele>175</ele>
        <time>2019-10-26T09:39:23.000Z</time>
      </trkpt>
      <trkpt lat="47.88265" lon="3.72405">
        <ele>175</ele>
        <time>2019-10-26T09:39:24.000Z</time>
      </trkpt>
      <trkpt lat="47.88262" lon="3.72406">
        <ele>175</ele>
        <time>2019-10-26T09:39:25.000Z</time>
      </trkpt>
      <trkpt lat="47.8826" lon="3.72407">
        <ele>175</ele>
        <time>2019-10-26T09:39:26.000Z</time>
      </trkpt>
      <trkpt lat="47.88258" lon="3.72408">
        <ele>175</ele>
        <time>2019-10-26T09:39:27.000Z</time>
      </trkpt>
      <trkpt lat="47.88256" lon="3.72409">
        <ele>175</ele>
        <time>2019-10-26T09:39:28.000Z</time>
      </trkpt>
      <trkpt lat="47.88254" lon="3.7241">
        <ele>175</ele>
        <time>2019-10-26T09:39:29.000Z</time>
      </trkpt>
      <trkpt lat="47.88252" lon="3.72411">
        <ele>175</ele>
        <time>2019-10-26T09:39:30.000Z</time>
      </trkpt>
      <trkpt lat="47.8825" lon="3.72411">
        <ele>175</ele>
        <time>2019-10-26T09:39:31.000Z</time>
      </trkpt>
      <trkpt lat="47.88248" lon="3.72412">
        <ele>175</ele>
        <time>2019-10-26T09:39:32.000Z</time>
      </trkpt>
      <trkpt lat="47.88245" lon="3.72413">
        <ele>175</ele>
        <time>2019-10-26T09:39:33.000Z</time>
      </trkpt>
      <trkpt lat="47.88243" lon="3.72414">
        <ele>175</ele>
        <time>2019-10-26T09:39:34.000Z</time>
      </trkpt>
      <trkpt lat="47.88241" lon="3.72415">
        <ele>175</ele>
        <time>2019-10-26T09:39:35.000Z</time>
      </trkpt>
      <trkpt lat="47.88239" lon="3.72416">
        <ele>175</ele>
        <time>2019-10-26T09:39:36.000Z</time>
      </trkpt>
      <trkpt lat="47.88237" lon="3.72417">
        <ele>175</ele>
        <time>2019-10-26T09:39:37.000Z</time>
      </trkpt>
      <trkpt lat="47.88235" lon="3.72418">
        <ele>175</ele>
        <time>2019-10-26T09:39:38.000Z</time>
      </trkpt>
      <trkpt lat="47.88232" lon="3.72419">
        <ele>175</ele>
        <time>2019-10-26T09:39:39.000Z</time>
      </trkpt>
      <trkpt lat="47.8823" lon="3.7242">
        <ele>176</ele>
        <time>2019-10-26T09:39:40.000Z</time>
      </trkpt>
      <trkpt lat="47.88228" lon="3.72421">
        <ele>176</ele>
        <time>2019-10-26T09:39:41.000Z</time>
      </trkpt>
      <trkpt lat="47.88226" lon="3.72422">
        <ele>176</ele>
        <time>2019-10-26T09:39:42.000Z</time>
      </trkpt>
      <trkpt lat="47.88224" lon="3.72424">
        <ele>176</ele>
        <time>2019-10-26T09:39:43.000Z</time>
      </trkpt>
      <trkpt lat="47.88221" lon="3.72425">
        <ele>176</ele>
        <time>2019-10-26T09:39:44.000Z</time>
      </trkpt>
      <trkpt lat="47.88219" lon="3.72426">
        <ele>176</ele>
        <time>2019-10-26T09:39:45.000Z</time>
      </trkpt>
      <trkpt lat="47.88217" lon="3.72428">
        <ele>176</ele>
        <time>2019-10-26T09:39:46.000Z</time>
      </trkpt>
      <trkpt lat="47.88215" lon="3.72429">
        <ele>177</ele>
        <time>2019-10-26T09:39:47.000Z</time>
      </trkpt>
      <trkpt lat="47.88213" lon="3.7243">
        <ele>177</ele>
        <time>2019-10-26T09:39:48.000Z</time>
      </trkpt>
      <trkpt lat="47.88211" lon="3.72431">
        <ele>177</ele>
        <time>2019-10-26T09:39:49.000Z</time>
      </trkpt>
      <trkpt lat="47.88208" lon="3.72433">
        <ele>177</ele>
        <time>2019-10-26T09:39:50.000Z</time>
      </trkpt>
      <trkpt lat="47.88206" lon="3.72433">
        <ele>177</ele>
        <time>2019-10-26T09:39:51.000Z</time>
      </trkpt>
      <trkpt lat="47.88204" lon="3.72434">
        <ele>177</ele>
        <time>2019-10-26T09:39:52.000Z</time>
      </trkpt>
      <trkpt lat="47.88202" lon="3.72435">
        <ele>177</ele>
        <time>2019-10-26T09:39:53.000Z</time>
      </trkpt>
      <trkpt lat="47.882" lon="3.72436">
        <ele>177</ele>
        <time>2019-10-26T09:39:54.000Z</time>
      </trkpt>
      <trkpt lat="47.88198" lon="3.72436">
        <ele>177</ele>
        <time>2019-10-26T09:39:55.000Z</time>
      </trkpt>
      <trkpt lat="47.88196" lon="3.72437">
        <ele>177</ele>
        <time>2019-10-26T09:39:56.000Z</time>
      </trkpt>
      <trkpt lat="47.88193" lon="3.72438">
        <ele>177</ele>
        <time>2019-10-26T09:39:57.000Z</time>
      </trkpt>
      <trkpt lat="47.88191" lon="3.72439">
        <ele>178</ele>
        <time>2019-10-26T09:39:58.000Z</time>
      </trkpt>
      <trkpt lat="47.88189" lon="3.72439">
        <ele>178</ele>
        <time>2019-10-26T09:39:59.000Z</time>
      </trkpt>
      <trkpt lat="47.88187" lon="3.7244">
        <ele>178</ele>
        <time>2019-10-26T09:40:00.000Z</time>
      </trkpt>
      <trkpt lat="47.88184" lon="3.72441">
        <ele>178</ele>
        <time>2019-10-26T09:40:01.000Z</time>
      </trkpt>
      <trkpt lat="47.88182" lon="3.72441">
        <ele>178</ele>
        <time>2019-10-26T09:40:02.000Z</time>
      </trkpt>
      <trkpt lat="47.8818" lon="3.72441">
        <ele>179</ele>
        <time>2019-10-26T09:40:03.000Z</time>
      </trkpt>
      <trkpt lat="47.88178" lon="3.72442">
        <ele>179</ele>
        <time>2019-10-26T09:40:04.000Z</time>
      </trkpt>
      <trkpt lat="47.88176" lon="3.72442">
        <ele>179</ele>
        <time>2019-10-26T09:40:05.000Z</time>
      </trkpt>
      <trkpt lat="47.88174" lon="3.72443">
        <ele>179</ele>
        <time>2019-10-26T09:40:06.000Z</time>
      </trkpt>
      <trkpt lat="47.88171" lon="3.72444">
        <ele>179</ele>
        <time>2019-10-26T09:40:07.000Z</time>
      </trkpt>
      <trkpt lat="47.88169" lon="3.72445">
        <ele>179</ele>
        <time>2019-10-26T09:40:08.000Z</time>
      </trkpt>
      <trkpt lat="47.88167" lon="3.72445">
        <ele>179</ele>
        <time>2019-10-26T09:40:09.000Z</time>
      </trkpt>
      <trkpt lat="47.88164" lon="3.72446">
        <ele>179</ele>
        <time>2019-10-26T09:40:10.000Z</time>
      </trkpt>
      <trkpt lat="47.88162" lon="3.72446">
        <ele>179</ele>
        <time>2019-10-26T09:40:11.000Z</time>
      </trkpt>
      <trkpt lat="47.8816" lon="3.72447">
        <ele>179</ele>
        <time>2019-10-26T09:40:12.000Z</time>
      </trkpt>
      <trkpt lat="47.88158" lon="3.72447">
        <ele>179</ele>
        <time>2019-10-26T09:40:13.000Z</time>
      </trkpt>
      <trkpt lat="47.88156" lon="3.72447">
        <ele>179</ele>
        <time>2019-10-26T09:40:14.000Z</time>
      </trkpt>
      <trkpt lat="47.88154" lon="3.72448">
        <ele>179</ele>
        <time>2019-10-26T09:40:15.000Z</time>
      </trkpt>
      <trkpt lat="47.88153" lon="3.72449">
        <ele>179</ele>
        <time>2019-10-26T09:40:16.000Z</time>
      </trkpt>
      <trkpt lat="47.8815" lon="3.7245">
        <ele>179</ele>
        <time>2019-10-26T09:40:17.000Z</time>
      </trkpt>
      <trkpt lat="47.88148" lon="3.7245">
        <ele>179</ele>
        <time>2019-10-26T09:40:18.000Z</time>
      </trkpt>
      <trkpt lat="47.88146" lon="3.72451">
        <ele>179</ele>
        <time>2019-10-26T09:40:19.000Z</time>
      </trkpt>
      <trkpt lat="47.88144" lon="3.72452">
        <ele>179</ele>
        <time>2019-10-26T09:40:20.000Z</time>
      </trkpt>
      <trkpt lat="47.88142" lon="3.72453">
        <ele>179</ele>
        <time>2019-10-26T09:40:21.000Z</time>
      </trkpt>
      <trkpt lat="47.8814" lon="3.72454">
        <ele>179</ele>
        <time>2019-10-26T09:40:22.000Z</time>
      </trkpt>
      <trkpt lat="47.88138" lon="3.72455">
        <ele>179</ele>
        <time>2019-10-26T09:40:23.000Z</time>
      </trkpt>
      <trkpt lat="47.88136" lon="3.72455">
        <ele>179</ele>
        <time>2019-10-26T09:40:24.000Z</time>
      </trkpt>
      <trkpt lat="47.88133" lon="3.72456">
        <ele>179</ele>
        <time>2019-10-26T09:40:25.000Z</time>
      </trkpt>
      <trkpt lat="47.88131" lon="3.72456">
        <ele>180</ele>
        <time>2019-10-26T09:40:26.000Z</time>
      </trkpt>
      <trkpt lat="47.88129" lon="3.72457">
        <ele>180</ele>
        <time>2019-10-26T09:40:27.000Z</time>
      </trkpt>
      <trkpt lat="47.88127" lon="3.72458">
        <ele>180</ele>
        <time>2019-10-26T09:40:28.000Z</time>
      </trkpt>
      <trkpt lat="47.88124" lon="3.72458">
        <ele>180</ele>
        <time>2019-10-26T09:40:29.000Z</time>
      </trkpt>
      <trkpt lat="47.88122" lon="3.72459">
        <ele>180</ele>
        <time>2019-10-26T09:40:30.000Z</time>
      </trkpt>
      <trkpt lat="47.8812" lon="3.72459">
        <ele>180</ele>
        <time>2019-10-26T09:40:31.000Z</time>
      </trkpt>
      <trkpt lat="47.88118" lon="3.7246">
        <ele>180</ele>
        <time>2019-10-26T09:40:32.000Z</time>
      </trkpt>
      <trkpt lat="47.88115" lon="3.72461">
        <ele>180</ele>
        <time>2019-10-26T09:40:33.000Z</time>
      </trkpt>
      <trkpt lat="47.88113" lon="3.72461">
        <ele>180</ele>
        <time>2019-10-26T09:40:34.000Z</time>
      </trkpt>
      <trkpt lat="47.88111" lon="3.72462">
        <ele>180</ele>
        <time>2019-10-26T09:40:35.000Z</time>
      </trkpt>
      <trkpt lat="47.88109" lon="3.72462">
        <ele>180</ele>
        <time>2019-10-26T09:40:36.000Z</time>
      </trkpt>
      <trkpt lat="47.88107" lon="3.72463">
        <ele>181</ele>
        <time>2019-10-26T09:40:37.000Z</time>
      </trkpt>
      <trkpt lat="47.88105" lon="3.72463">
        <ele>181</ele>
        <time>2019-10-26T09:40:38.000Z</time>
      </trkpt>
      <trkpt lat="47.88103" lon="3.72464">
        <ele>181</ele>
        <time>2019-10-26T09:40:39.000Z</time>
      </trkpt>
      <trkpt lat="47.88101" lon="3.72465">
        <ele>181</ele>
        <time>2019-10-26T09:40:40.000Z</time>
      </trkpt>
      <trkpt lat="47.88099" lon="3.72465">
        <ele>181</ele>
        <time>2019-10-26T09:40:41.000Z</time>
      </trkpt>
      <trkpt lat="47.88097" lon="3.72466">
        <ele>181</ele>
        <time>2019-10-26T09:40:42.000Z</time>
      </trkpt>
      <trkpt lat="47.88095" lon="3.72467">
        <ele>181</ele>
        <time>2019-10-26T09:40:43.000Z</time>
      </trkpt>
      <trkpt lat="47.88093" lon="3.72468">
        <ele>181</ele>
        <time>2019-10-26T09:40:44.000Z</time>
      </trkpt>
      <trkpt lat="47.8809" lon="3.72469">
        <ele>181</ele>
        <time>2019-10-26T09:40:45.000Z</time>
      </trkpt>
      <trkpt lat="47.88088" lon="3.7247">
        <ele>181</ele>
        <time>2019-10-26T09:40:46.000Z</time>
      </trkpt>
      <trkpt lat="47.88086" lon="3.72471">
        <ele>181</ele>
        <time>2019-10-26T09:40:47.000Z</time>
      </trkpt>
      <trkpt lat="47.88084" lon="3.72471">
        <ele>181</ele>
        <time>2019-10-26T09:40:48.000Z</time>
      </trkpt>
      <trkpt lat="47.88082" lon="3.72472">
        <ele>181</ele>
        <time>2019-10-26T09:40:49.000Z</time>
      </trkpt>
      <trkpt lat="47.8808" lon="3.72473">
        <ele>181</ele>
        <time>2019-10-26T09:40:50.000Z</time>
      </trkpt>
      <trkpt lat="47.88078" lon="3.72474">
        <ele>181</ele>
        <time>2019-10-26T09:40:51.000Z</time>
      </trkpt>
      <trkpt lat="47.88076" lon="3.72474">
        <ele>181</ele>
        <time>2019-10-26T09:40:52.000Z</time>
      </trkpt>
      <trkpt lat="47.88074" lon="3.72475">
        <ele>181</ele>
        <time>2019-10-26T09:40:53.000Z</time>
      </trkpt>
      <trkpt lat="47.88071" lon="3.72475">
        <ele>181</ele>
        <time>2019-10-26T09:40:54.000Z</time>
      </trkpt>
      <trkpt lat="47.88069" lon="3.72476">
        <ele>181</ele>
        <time>2019-10-26T09:40:55.000Z</time>
      </trkpt>
      <trkpt lat="47.88067" lon="3.72476">
        <ele>181</ele>
        <time>2019-10-26T09:40:56.000Z</time>
      </trkpt>
      <trkpt lat="47.88065" lon="3.72477">
        <ele>181</ele>
        <time>2019-10-26T09:40:57.000Z</time>
      </trkpt>
      <trkpt lat="47.88063" lon="3.72478">
        <ele>182</ele>
        <time>2019-10-26T09:40:58.000Z</time>
      </trkpt>
      <trkpt lat="47.88061" lon="3.72478">
        <ele>182</ele>
        <time>2019-10-26T09:40:59.000Z</time>
      </trkpt>
      <trkpt lat="47.88058" lon="3.72479">
        <ele>182</ele>
        <time>2019-10-26T09:41:00.000Z</time>
      </trkpt>
      <trkpt lat="47.88056" lon="3.72479">
        <ele>182</ele>
        <time>2019-10-26T09:41:01.000Z</time>
      </trkpt>
      <trkpt lat="47.88054" lon="3.7248">
        <ele>182</ele>
        <time>2019-10-26T09:41:02.000Z</time>
      </trkpt>
      <trkpt lat="47.88051" lon="3.72481">
        <ele>182</ele>
        <time>2019-10-26T09:41:03.000Z</time>
      </trkpt>
      <trkpt lat="47.88049" lon="3.72482">
        <ele>182</ele>
        <time>2019-10-26T09:41:04.000Z</time>
      </trkpt>
      <trkpt lat="47.88047" lon="3.72482">
        <ele>182</ele>
        <time>2019-10-26T09:41:05.000Z</time>
      </trkpt>
      <trkpt lat="47.88045" lon="3.72483">
        <ele>182</ele>
        <time>2019-10-26T09:41:06.000Z</time>
      </trkpt>
      <trkpt lat="47.88043" lon="3.72483">
        <ele>182</ele>
        <time>2019-10-26T09:41:07.000Z</time>
      </trkpt>
      <trkpt lat="47.8804" lon="3.72484">
        <ele>183</ele>
        <time>2019-10-26T09:41:08.000Z</time>
      </trkpt>
      <trkpt lat="47.88038" lon="3.72484">
        <ele>183</ele>
        <time>2019-10-26T09:41:09.000Z</time>
      </trkpt>
      <trkpt lat="47.88036" lon="3.72485">
        <ele>183</ele>
        <time>2019-10-26T09:41:10.000Z</time>
      </trkpt>
      <trkpt lat="47.88033" lon="3.72485">
        <ele>183</ele>
        <time>2019-10-26T09:41:11.000Z</time>
      </trkpt>
      <trkpt lat="47.88031" lon="3.72485">
        <ele>183</ele>
        <time>2019-10-26T09:41:12.000Z</time>
      </trkpt>
      <trkpt lat="47.88028" lon="3.72486">
        <ele>183</ele>
        <time>2019-10-26T09:41:13.000Z</time>
      </trkpt>
      <trkpt lat="47.88026" lon="3.72487">
        <ele>183</ele>
        <time>2019-10-26T09:41:14.000Z</time>
      </trkpt>
      <trkpt lat="47.88024" lon="3.72487">
        <ele>183</ele>
        <time>2019-10-26T09:41:15.000Z</time>
      </trkpt>
      <trkpt lat="47.88022" lon="3.72488">
        <ele>183</ele>
        <time>2019-10-26T09:41:16.000Z</time>
      </trkpt>
      <trkpt lat="47.88019" lon="3.72488">
        <ele>183</ele>
        <time>2019-10-26T09:41:17.000Z</time>
      </trkpt>
      <trkpt lat="47.88017" lon="3.72489">
        <ele>183</ele>
        <time>2019-10-26T09:41:18.000Z</time>
      </trkpt>
      <trkpt lat="47.88015" lon="3.72489">
        <ele>183</ele>
        <time>2019-10-26T09:41:19.000Z</time>
      </trkpt>
      <trkpt lat="47.88013" lon="3.7249">
        <ele>183</ele>
        <time>2019-10-26T09:41:20.000Z</time>
      </trkpt>
      <trkpt lat="47.8801" lon="3.7249">
        <ele>183</ele>
        <time>2019-10-26T09:41:21.000Z</time>
      </trkpt>
      <trkpt lat="47.88008" lon="3.72491">
        <ele>183</ele>
        <time>2019-10-26T09:41:22.000Z</time>
      </trkpt>
      <trkpt lat="47.88006" lon="3.72492">
        <ele>184</ele>
        <time>2019-10-26T09:41:23.000Z</time>
      </trkpt>
      <trkpt lat="47.88004" lon="3.72492">
        <ele>184</ele>
        <time>2019-10-26T09:41:24.000Z</time>
      </trkpt>
      <trkpt lat="47.88002" lon="3.72493">
        <ele>184</ele>
        <time>2019-10-26T09:41:25.000Z</time>
      </trkpt>
      <trkpt lat="47.87999" lon="3.72494">
        <ele>184</ele>
        <time>2019-10-26T09:41:26.000Z</time>
      </trkpt>
      <trkpt lat="47.87997" lon="3.72495">
        <ele>184</ele>
        <time>2019-10-26T09:41:27.000Z</time>
      </trkpt>
      <trkpt lat="47.87995" lon="3.72495">
        <ele>184</ele>
        <time>2019-10-26T09:41:28.000Z</time>
      </trkpt>
      <trkpt lat="47.87993" lon="3.72496">
        <ele>184</ele>
        <time>2019-10-26T09:41:29.000Z</time>
      </trkpt>
      <trkpt lat="47.8799" lon="3.72497">
        <ele>184</ele>
        <time>2019-10-26T09:41:30.000Z</time>
      </trkpt>
      <trkpt lat="47.87988" lon="3.72498">
        <ele>185</ele>
        <time>2019-10-26T09:41:31.000Z</time>
      </trkpt>
      <trkpt lat="47.87986" lon="3.72498">
        <ele>185</ele>
        <time>2019-10-26T09:41:32.000Z</time>
      </trkpt>
      <trkpt lat="47.87984" lon="3.72499">
        <ele>185</ele>
        <time>2019-10-26T09:41:33.000Z</time>
      </trkpt>
      <trkpt lat="47.87982" lon="3.725">
        <ele>185</ele>
        <time>2019-10-26T09:41:34.000Z</time>
      </trkpt>
      <trkpt lat="47.87979" lon="3.725">
        <ele>185</ele>
        <time>2019-10-26T09:41:35.000Z</time>
      </trkpt>
      <trkpt lat="47.87977" lon="3.72501">
        <ele>185</ele>
        <time>2019-10-26T09:41:36.000Z</time>
      </trkpt>
      <trkpt lat="47.87975" lon="3.72502">
        <ele>185</ele>
        <time>2019-10-26T09:41:37.000Z</time>
      </trkpt>
      <trkpt lat="47.87973" lon="3.72502">
        <ele>185</ele>
        <time>2019-10-26T09:41:38.000Z</time>
      </trkpt>
      <trkpt lat="47.87971" lon="3.72503">
        <ele>185</ele>
        <time>2019-10-26T09:41:39.000Z</time>
      </trkpt>
      <trkpt lat="47.87968" lon="3.72504">
        <ele>185</ele>
        <time>2019-10-26T09:41:40.000Z</time>
      </trkpt>
      <trkpt lat="47.87966" lon="3.72504">
        <ele>185</ele>
        <time>2019-10-26T09:41:41.000Z</time>
      </trkpt>
      <trkpt lat="47.87964" lon="3.72505">
        <ele>185</ele>
        <time>2019-10-26T09:41:42.000Z</time>
      </trkpt>
      <trkpt lat="47.87962" lon="3.72506">
        <ele>185</ele>
        <time>2019-10-26T09:41:43.000Z</time>
      </trkpt>
      <trkpt lat="47.8796" lon="3.72507">
        <ele>185</ele>
        <time>2019-10-26T09:41:44.000Z</time>
      </trkpt>
      <trkpt lat="47.87958" lon="3.72507">
        <ele>185</ele>
        <time>2019-10-26T09:41:45.000Z</time>
      </trkpt>
      <trkpt lat="47.87955" lon="3.72508">
        <ele>185</ele>
        <time>2019-10-26T09:41:46.000Z</time>
      </trkpt>
      <trkpt lat="47.87953" lon="3.72509">
        <ele>185</ele>
        <time>2019-10-26T09:41:47.000Z</time>
      </trkpt>
      <trkpt lat="47.87951" lon="3.72509">
        <ele>185</ele>
        <time>2019-10-26T09:41:48.000Z</time>
      </trkpt>
      <trkpt lat="47.87949" lon="3.7251">
        <ele>185</ele>
        <time>2019-10-26T09:41:49.000Z</time>
      </trkpt>
      <trkpt lat="47.87946" lon="3.72511">
        <ele>185</ele>
        <time>2019-10-26T09:41:50.000Z</time>
      </trkpt>
      <trkpt lat="47.87944" lon="3.72511">
        <ele>185</ele>
        <time>2019-10-26T09:41:51.000Z</time>
      </trkpt>
      <trkpt lat="47.87942" lon="3.72512">
        <ele>185</ele>
        <time>2019-10-26T09:41:52.000Z</time>
      </trkpt>
      <trkpt lat="47.8794" lon="3.72513">
        <ele>185</ele>
        <time>2019-10-26T09:41:53.000Z</time>
      </trkpt>
      <trkpt lat="47.87938" lon="3.72514">
        <ele>185</ele>
        <time>2019-10-26T09:41:54.000Z</time>
      </trkpt>
      <trkpt lat="47.87935" lon="3.72514">
        <ele>185</ele>
        <time>2019-10-26T09:41:55.000Z</time>
      </trkpt>
      <trkpt lat="47.87933" lon="3.72515">
        <ele>185</ele>
        <time>2019-10-26T09:41:56.000Z</time>
      </trkpt>
      <trkpt lat="47.87931" lon="3.72516">
        <ele>185</ele>
        <time>2019-10-26T09:41:57.000Z</time>
      </trkpt>
      <trkpt lat="47.87929" lon="3.72516">
        <ele>185</ele>
        <time>2019-10-26T09:41:58.000Z</time>
      </trkpt>
      <trkpt lat="47.87927" lon="3.72517">
        <ele>185</ele>
        <time>2019-10-26T09:41:59.000Z</time>
      </trkpt>
      <trkpt lat="47.87924" lon="3.72518">
        <ele>185</ele>
        <time>2019-10-26T09:42:00.000Z</time>
      </trkpt>
      <trkpt lat="47.87922" lon="3.72518">
        <ele>185</ele>
        <time>2019-10-26T09:42:01.000Z</time>
      </trkpt>
      <trkpt lat="47.8792" lon="3.72519">
        <ele>185</ele>
        <time>2019-10-26T09:42:02.000Z</time>
      </trkpt>
      <trkpt lat="47.87918" lon="3.7252">
        <ele>185</ele>
        <time>2019-10-26T09:42:03.000Z</time>
      </trkpt>
      <trkpt lat="47.87915" lon="3.7252">
        <ele>185</ele>
        <time>2019-10-26T09:42:04.000Z</time>
      </trkpt>
      <trkpt lat="47.87913" lon="3.72521">
        <ele>185</ele>
        <time>2019-10-26T09:42:05.000Z</time>
      </trkpt>
      <trkpt lat="47.87911" lon="3.72522">
        <ele>185</ele>
        <time>2019-10-26T09:42:06.000Z</time>
      </trkpt>
      <trkpt lat="47.87909" lon="3.72523">
        <ele>185</ele>
        <time>2019-10-26T09:42:07.000Z</time>
      </trkpt>
      <trkpt lat="47.87907" lon="3.72523">
        <ele>185</ele>
        <time>2019-10-26T09:42:08.000Z</time>
      </trkpt>
      <trkpt lat="47.87904" lon="3.72524">
        <ele>185</ele>
        <time>2019-10-26T09:42:09.000Z</time>
      </trkpt>
      <trkpt lat="47.87902" lon="3.72525">
        <ele>185</ele>
        <time>2019-10-26T09:42:10.000Z</time>
      </trkpt>
      <trkpt lat="47.879" lon="3.72525">
        <ele>185</ele>
        <time>2019-10-26T09:42:11.000Z</time>
      </trkpt>
      <trkpt lat="47.87898" lon="3.72526">
        <ele>185</ele>
        <time>2019-10-26T09:42:12.000Z</time>
      </trkpt>
      <trkpt lat="47.87895" lon="3.72527">
        <ele>185</ele>
        <time>2019-10-26T09:42:13.000Z</time>
      </trkpt>
      <trkpt lat="47.87893" lon="3.72527">
        <ele>185</ele>
        <time>2019-10-26T09:42:14.000Z</time>
      </trkpt>
      <trkpt lat="47.87891" lon="3.72528">
        <ele>184</ele>
        <time>2019-10-26T09:42:15.000Z</time>
      </trkpt>
      <trkpt lat="47.87889" lon="3.72529">
        <ele>184</ele>
        <time>2019-10-26T09:42:16.000Z</time>
      </trkpt>
      <trkpt lat="47.87886" lon="3.7253">
        <ele>184</ele>
        <time>2019-10-26T09:42:17.000Z</time>
      </trkpt>
      <trkpt lat="47.87884" lon="3.7253">
        <ele>184</ele>
        <time>2019-10-26T09:42:18.000Z</time>
      </trkpt>
      <trkpt lat="47.87882" lon="3.7253">
        <ele>184</ele>
        <time>2019-10-26T09:42:19.000Z</time>
      </trkpt>
      <trkpt lat="47.8788" lon="3.72531">
        <ele>184</ele>
        <time>2019-10-26T09:42:20.000Z</time>
      </trkpt>
      <trkpt lat="47.87878" lon="3.72531">
        <ele>184</ele>
        <time>2019-10-26T09:42:21.000Z</time>
      </trkpt>
      <trkpt lat="47.87875" lon="3.72531">
        <ele>184</ele>
        <time>2019-10-26T09:42:22.000Z</time>
      </trkpt>
      <trkpt lat="47.87873" lon="3.72532">
        <ele>184</ele>
        <time>2019-10-26T09:42:23.000Z</time>
      </trkpt>
      <trkpt lat="47.87871" lon="3.72533">
        <ele>184</ele>
        <time>2019-10-26T09:42:24.000Z</time>
      </trkpt>
      <trkpt lat="47.87868" lon="3.72533">
        <ele>184</ele>
        <time>2019-10-26T09:42:25.000Z</time>
      </trkpt>
      <trkpt lat="47.87866" lon="3.72534">
        <ele>184</ele>
        <time>2019-10-26T09:42:26.000Z</time>
      </trkpt>
      <trkpt lat="47.87864" lon="3.72535">
        <ele>184</ele>
        <time>2019-10-26T09:42:27.000Z</time>
      </trkpt>
      <trkpt lat="47.87861" lon="3.72535">
        <ele>184</ele>
        <time>2019-10-26T09:42:28.000Z</time>
      </trkpt>
      <trkpt lat="47.87859" lon="3.72536">
        <ele>184</ele>
        <time>2019-10-26T09:42:29.000Z</time>
      </trkpt>
      <trkpt lat="47.87857" lon="3.72536">
        <ele>184</ele>
        <time>2019-10-26T09:42:30.000Z</time>
      </trkpt>
      <trkpt lat="47.87855" lon="3.72537">
        <ele>184</ele>
        <time>2019-10-26T09:42:31.000Z</time>
      </trkpt>
      <trkpt lat="47.87853" lon="3.72538">
        <ele>184</ele>
        <time>2019-10-26T09:42:32.000Z</time>
      </trkpt>
      <trkpt lat="47.8785" lon="3.72538">
        <ele>184</ele>
        <time>2019-10-26T09:42:33.000Z</time>
      </trkpt>
      <trkpt lat="47.87848" lon="3.72539">
        <ele>184</ele>
        <time>2019-10-26T09:42:34.000Z</time>
      </trkpt>
      <trkpt lat="47.87846" lon="3.72539">
        <ele>184</ele>
        <time>2019-10-26T09:42:35.000Z</time>
      </trkpt>
      <trkpt lat="47.87844" lon="3.7254">
        <ele>184</ele>
        <time>2019-10-26T09:42:36.000Z</time>
      </trkpt>
      <trkpt lat="47.87841" lon="3.72541">
        <ele>184</ele>
        <time>2019-10-26T09:42:37.000Z</time>
      </trkpt>
      <trkpt lat="47.87839" lon="3.72542">
        <ele>184</ele>
        <time>2019-10-26T09:42:38.000Z</time>
      </trkpt>
      <trkpt lat="47.87837" lon="3.72543">
        <ele>184</ele>
        <time>2019-10-26T09:42:39.000Z</time>
      </trkpt>
      <trkpt lat="47.87835" lon="3.72544">
        <ele>184</ele>
        <time>2019-10-26T09:42:40.000Z</time>
      </trkpt>
      <trkpt lat="47.87832" lon="3.72545">
        <ele>184</ele>
        <time>2019-10-26T09:42:41.000Z</time>
      </trkpt>
      <trkpt lat="47.8783" lon="3.72545">
        <ele>184</ele>
        <time>2019-10-26T09:42:42.000Z</time>
      </trkpt>
      <trkpt lat="47.87828" lon="3.72546">
        <ele>184</ele>
        <time>2019-10-26T09:42:43.000Z</time>
      </trkpt>
      <trkpt lat="47.87826" lon="3.72547">
        <ele>184</ele>
        <time>2019-10-26T09:42:44.000Z</time>
      </trkpt>
      <trkpt lat="47.87824" lon="3.72547">
        <ele>184</ele>
        <time>2019-10-26T09:42:45.000Z</time>
      </trkpt>
      <trkpt lat="47.87822" lon="3.72548">
        <ele>184</ele>
        <time>2019-10-26T09:42:46.000Z</time>
      </trkpt>
      <trkpt lat="47.87819" lon="3.72549">
        <ele>184</ele>
        <time>2019-10-26T09:42:47.000Z</time>
      </trkpt>
      <trkpt lat="47.87817" lon="3.72549">
        <ele>184</ele>
        <time>2019-10-26T09:42:48.000Z</time>
      </trkpt>
      <trkpt lat="47.87815" lon="3.7255">
        <ele>184</ele>
        <time>2019-10-26T09:42:49.000Z</time>
      </trkpt>
      <trkpt lat="47.87813" lon="3.7255">
        <ele>184</ele>
        <time>2019-10-26T09:42:50.000Z</time>
      </trkpt>
      <trkpt lat="47.87811" lon="3.72551">
        <ele>184</ele>
        <time>2019-10-26T09:42:51.000Z</time>
      </trkpt>
      <trkpt lat="47.87809" lon="3.72552">
        <ele>184</ele>
        <time>2019-10-26T09:42:52.000Z</time>
      </trkpt>
      <trkpt lat="47.87807" lon="3.72552">
        <ele>184</ele>
        <time>2019-10-26T09:42:53.000Z</time>
      </trkpt>
      <trkpt lat="47.87805" lon="3.72553">
        <ele>184</ele>
        <time>2019-10-26T09:42:54.000Z</time>
      </trkpt>
      <trkpt lat="47.87803" lon="3.72554">
        <ele>184</ele>
        <time>2019-10-26T09:42:55.000Z</time>
      </trkpt>
      <trkpt lat="47.87801" lon="3.72554">
        <ele>184</ele>
        <time>2019-10-26T09:42:56.000Z</time>
      </trkpt>
      <trkpt lat="47.87799" lon="3.72555">
        <ele>185</ele>
        <time>2019-10-26T09:42:57.000Z</time>
      </trkpt>
      <trkpt lat="47.87797" lon="3.72555">
        <ele>185</ele>
        <time>2019-10-26T09:42:58.000Z</time>
      </trkpt>
      <trkpt lat="47.87795" lon="3.72556">
        <ele>185</ele>
        <time>2019-10-26T09:42:59.000Z</time>
      </trkpt>
      <trkpt lat="47.87793" lon="3.72557">
        <ele>185</ele>
        <time>2019-10-26T09:43:00.000Z</time>
      </trkpt>
      <trkpt lat="47.8779" lon="3.72558">
        <ele>185</ele>
        <time>2019-10-26T09:43:01.000Z</time>
      </trkpt>
      <trkpt lat="47.87788" lon="3.7256">
        <ele>185</ele>
        <time>2019-10-26T09:43:02.000Z</time>
      </trkpt>
      <trkpt lat="47.87786" lon="3.7256">
        <ele>185</ele>
        <time>2019-10-26T09:43:03.000Z</time>
      </trkpt>
      <trkpt lat="47.87784" lon="3.72561">
        <ele>185</ele>
        <time>2019-10-26T09:43:04.000Z</time>
      </trkpt>
      <trkpt lat="47.87782" lon="3.72562">
        <ele>185</ele>
        <time>2019-10-26T09:43:05.000Z</time>
      </trkpt>
      <trkpt lat="47.87779" lon="3.72563">
        <ele>185</ele>
        <time>2019-10-26T09:43:06.000Z</time>
      </trkpt>
      <trkpt lat="47.87777" lon="3.72563">
        <ele>185</ele>
        <time>2019-10-26T09:43:07.000Z</time>
      </trkpt>
      <trkpt lat="47.87775" lon="3.72564">
        <ele>185</ele>
        <time>2019-10-26T09:43:08.000Z</time>
      </trkpt>
      <trkpt lat="47.87773" lon="3.72565">
        <ele>185</ele>
        <time>2019-10-26T09:43:09.000Z</time>
      </trkpt>
      <trkpt lat="47.87771" lon="3.72566">
        <ele>185</ele>
        <time>2019-10-26T09:43:10.000Z</time>
      </trkpt>
      <trkpt lat="47.87769" lon="3.72567">
        <ele>185</ele>
        <time>2019-10-26T09:43:11.000Z</time>
      </trkpt>
      <trkpt lat="47.87767" lon="3.72568">
        <ele>185</ele>
        <time>2019-10-26T09:43:12.000Z</time>
      </trkpt>
      <trkpt lat="47.87765" lon="3.72569">
        <ele>185</ele>
        <time>2019-10-26T09:43:13.000Z</time>
      </trkpt>
      <trkpt lat="47.87763" lon="3.7257">
        <ele>185</ele>
        <time>2019-10-26T09:43:14.000Z</time>
      </trkpt>
      <trkpt lat="47.8776" lon="3.72571">
        <ele>185</ele>
        <time>2019-10-26T09:43:15.000Z</time>
      </trkpt>
      <trkpt lat="47.87759" lon="3.72572">
        <ele>185</ele>
        <time>2019-10-26T09:43:16.000Z</time>
      </trkpt>
      <trkpt lat="47.87757" lon="3.72574">
        <ele>185</ele>
        <time>2019-10-26T09:43:17.000Z</time>
      </trkpt>
      <trkpt lat="47.87756" lon="3.72577">
        <ele>185</ele>
        <time>2019-10-26T09:43:18.000Z</time>
      </trkpt>
      <trkpt lat="47.87754" lon="3.7258">
        <ele>185</ele>
        <time>2019-10-26T09:43:19.000Z</time>
      </trkpt>
      <trkpt lat="47.87754" lon="3.72583">
        <ele>185</ele>
        <time>2019-10-26T09:43:20.000Z</time>
      </trkpt>
      <trkpt lat="47.87753" lon="3.72586">
        <ele>185</ele>
        <time>2019-10-26T09:43:21.000Z</time>
      </trkpt>
      <trkpt lat="47.87752" lon="3.72589">
        <ele>185</ele>
        <time>2019-10-26T09:43:22.000Z</time>
      </trkpt>
      <trkpt lat="47.87752" lon="3.72592">
        <ele>185</ele>
        <time>2019-10-26T09:43:23.000Z</time>
      </trkpt>
      <trkpt lat="47.87752" lon="3.72595">
        <ele>185</ele>
        <time>2019-10-26T09:43:24.000Z</time>
      </trkpt>
      <trkpt lat="47.87751" lon="3.72599">
        <ele>185</ele>
        <time>2019-10-26T09:43:25.000Z</time>
      </trkpt>
      <trkpt lat="47.87751" lon="3.72602">
        <ele>185</ele>
        <time>2019-10-26T09:43:26.000Z</time>
      </trkpt>
      <trkpt lat="47.87751" lon="3.72605">
        <ele>185</ele>
        <time>2019-10-26T09:43:27.000Z</time>
      </trkpt>
      <trkpt lat="47.8775" lon="3.72608">
        <ele>185</ele>
        <time>2019-10-26T09:43:28.000Z</time>
      </trkpt>
      <trkpt lat="47.8775" lon="3.72611">
        <ele>185</ele>
        <time>2019-10-26T09:43:29.000Z</time>
      </trkpt>
      <trkpt lat="47.8775" lon="3.72614">
        <ele>185</ele>
        <time>2019-10-26T09:43:30.000Z</time>
      </trkpt>
      <trkpt lat="47.87749" lon="3.72617">
        <ele>185</ele>
        <time>2019-10-26T09:43:31.000Z</time>
      </trkpt>
      <trkpt lat="47.87749" lon="3.7262">
        <ele>185</ele>
        <time>2019-10-26T09:43:32.000Z</time>
      </trkpt>
      <trkpt lat="47.87749" lon="3.72623">
        <ele>185</ele>
        <time>2019-10-26T09:43:33.000Z</time>
      </trkpt>
      <trkpt lat="47.87748" lon="3.72626">
        <ele>185</ele>
        <time>2019-10-26T09:43:34.000Z</time>
      </trkpt>
      <trkpt lat="47.87748" lon="3.7263">
        <ele>185</ele>
        <time>2019-10-26T09:43:35.000Z</time>
      </trkpt>
      <trkpt lat="47.87748" lon="3.7263">
        <ele>185</ele>
        <time>2019-10-26T09:43:36.000Z</time>
      </trkpt>
      <trkpt lat="47.87748" lon="3.72636">
        <ele>185</ele>
        <time>2019-10-26T09:43:37.000Z</time>
      </trkpt>
      <trkpt lat="47.87748" lon="3.72639">
        <ele>185</ele>
        <time>2019-10-26T09:43:38.000Z</time>
      </trkpt>
      <trkpt lat="47.87747" lon="3.72642">
        <ele>185</ele>
        <time>2019-10-26T09:43:39.000Z</time>
      </trkpt>
      <trkpt lat="47.87747" lon="3.72645">
        <ele>186</ele>
        <time>2019-10-26T09:43:40.000Z</time>
      </trkpt>
      <trkpt lat="47.87747" lon="3.72648">
        <ele>186</ele>
        <time>2019-10-26T09:43:41.000Z</time>
      </trkpt>
      <trkpt lat="47.87747" lon="3.72651">
        <ele>186</ele>
        <time>2019-10-26T09:43:42.000Z</time>
      </trkpt>
      <trkpt lat="47.87746" lon="3.72655">
        <ele>186</ele>
        <time>2019-10-26T09:43:43.000Z</time>
      </trkpt>
      <trkpt lat="47.87746" lon="3.72658">
        <ele>186</ele>
        <time>2019-10-26T09:43:44.000Z</time>
      </trkpt>
      <trkpt lat="47.87746" lon="3.72661">
        <ele>186</ele>
        <time>2019-10-26T09:43:45.000Z</time>
      </trkpt>
      <trkpt lat="47.87746" lon="3.72665">
        <ele>186</ele>
        <time>2019-10-26T09:43:46.000Z</time>
      </trkpt>
      <trkpt lat="47.87746" lon="3.72668">
        <ele>187</ele>
        <time>2019-10-26T09:43:47.000Z</time>
      </trkpt>
      <trkpt lat="47.87746" lon="3.72672">
        <ele>187</ele>
        <time>2019-10-26T09:43:48.000Z</time>
      </trkpt>
      <trkpt lat="47.87745" lon="3.72675">
        <ele>187</ele>
        <time>2019-10-26T09:43:49.000Z</time>
      </trkpt>
      <trkpt lat="47.87745" lon="3.72679">
        <ele>187</ele>
        <time>2019-10-26T09:43:50.000Z</time>
      </trkpt>
      <trkpt lat="47.87745" lon="3.72682">
        <ele>187</ele>
        <time>2019-10-26T09:43:51.000Z</time>
      </trkpt>
      <trkpt lat="47.87744" lon="3.72686">
        <ele>187</ele>
        <time>2019-10-26T09:43:52.000Z</time>
      </trkpt>
      <trkpt lat="47.87744" lon="3.72689">
        <ele>187</ele>
        <time>2019-10-26T09:43:53.000Z</time>
      </trkpt>
      <trkpt lat="47.87744" lon="3.72693">
        <ele>187</ele>
        <time>2019-10-26T09:43:54.000Z</time>
      </trkpt>
      <trkpt lat="47.87743" lon="3.72696">
        <ele>188</ele>
        <time>2019-10-26T09:43:55.000Z</time>
      </trkpt>
      <trkpt lat="47.87743" lon="3.727">
        <ele>188</ele>
        <time>2019-10-26T09:43:56.000Z</time>
      </trkpt>
      <trkpt lat="47.87743" lon="3.72703">
        <ele>188</ele>
        <time>2019-10-26T09:43:57.000Z</time>
      </trkpt>
      <trkpt lat="47.87742" lon="3.72706">
        <ele>188</ele>
        <time>2019-10-26T09:43:58.000Z</time>
      </trkpt>
      <trkpt lat="47.87742" lon="3.7271">
        <ele>188</ele>
        <time>2019-10-26T09:43:59.000Z</time>
      </trkpt>
      <trkpt lat="47.87741" lon="3.72713">
        <ele>188</ele>
        <time>2019-10-26T09:44:00.000Z</time>
      </trkpt>
      <trkpt lat="47.87741" lon="3.72717">
        <ele>188</ele>
        <time>2019-10-26T09:44:01.000Z</time>
      </trkpt>
      <trkpt lat="47.87741" lon="3.7272">
        <ele>188</ele>
        <time>2019-10-26T09:44:02.000Z</time>
      </trkpt>
      <trkpt lat="47.8774" lon="3.72723">
        <ele>188</ele>
        <time>2019-10-26T09:44:03.000Z</time>
      </trkpt>
      <trkpt lat="47.8774" lon="3.72727">
        <ele>188</ele>
        <time>2019-10-26T09:44:04.000Z</time>
      </trkpt>
      <trkpt lat="47.87739" lon="3.72731">
        <ele>188</ele>
        <time>2019-10-26T09:44:05.000Z</time>
      </trkpt>
      <trkpt lat="47.87739" lon="3.72734">
        <ele>188</ele>
        <time>2019-10-26T09:44:06.000Z</time>
      </trkpt>
      <trkpt lat="47.87738" lon="3.72737">
        <ele>188</ele>
        <time>2019-10-26T09:44:07.000Z</time>
      </trkpt>
      <trkpt lat="47.87738" lon="3.72741">
        <ele>188</ele>
        <time>2019-10-26T09:44:08.000Z</time>
      </trkpt>
      <trkpt lat="47.87737" lon="3.72744">
        <ele>188</ele>
        <time>2019-10-26T09:44:09.000Z</time>
      </trkpt>
      <trkpt lat="47.87737" lon="3.72748">
        <ele>188</ele>
        <time>2019-10-26T09:44:10.000Z</time>
      </trkpt>
      <trkpt lat="47.87737" lon="3.72751">
        <ele>188</ele>
        <time>2019-10-26T09:44:11.000Z</time>
      </trkpt>
      <trkpt lat="47.87736" lon="3.72754">
        <ele>188</ele>
        <time>2019-10-26T09:44:12.000Z</time>
      </trkpt>
      <trkpt lat="47.87736" lon="3.72758">
        <ele>188</ele>
        <time>2019-10-26T09:44:13.000Z</time>
      </trkpt>
      <trkpt lat="47.87736" lon="3.72761">
        <ele>188</ele>
        <time>2019-10-26T09:44:14.000Z</time>
      </trkpt>
      <trkpt lat="47.87735" lon="3.72765">
        <ele>188</ele>
        <time>2019-10-26T09:44:15.000Z</time>
      </trkpt>
      <trkpt lat="47.87735" lon="3.72768">
        <ele>188</ele>
        <time>2019-10-26T09:44:16.000Z</time>
      </trkpt>
      <trkpt lat="47.87735" lon="3.72772">
        <ele>188</ele>
        <time>2019-10-26T09:44:17.000Z</time>
      </trkpt>
      <trkpt lat="47.87735" lon="3.72776">
        <ele>188</ele>
        <time>2019-10-26T09:44:18.000Z</time>
      </trkpt>
      <trkpt lat="47.87734" lon="3.72779">
        <ele>188</ele>
        <time>2019-10-26T09:44:19.000Z</time>
      </trkpt>
      <trkpt lat="47.87734" lon="3.72783">
        <ele>188</ele>
        <time>2019-10-26T09:44:20.000Z</time>
      </trkpt>
      <trkpt lat="47.87734" lon="3.72786">
        <ele>188</ele>
        <time>2019-10-26T09:44:21.000Z</time>
      </trkpt>
      <trkpt lat="47.87733" lon="3.72789">
        <ele>189</ele>
        <time>2019-10-26T09:44:22.000Z</time>
      </trkpt>
      <trkpt lat="47.87733" lon="3.72792">
        <ele>189</ele>
        <time>2019-10-26T09:44:23.000Z</time>
      </trkpt>
      <trkpt lat="47.87732" lon="3.72796">
        <ele>189</ele>
        <time>2019-10-26T09:44:24.000Z</time>
      </trkpt>
      <trkpt lat="47.87732" lon="3.72799">
        <ele>189</ele>
        <time>2019-10-26T09:44:25.000Z</time>
      </trkpt>
      <trkpt lat="47.87731" lon="3.72802">
        <ele>189</ele>
        <time>2019-10-26T09:44:26.000Z</time>
      </trkpt>
      <trkpt lat="47.8773" lon="3.72806">
        <ele>188</ele>
        <time>2019-10-26T09:44:27.000Z</time>
      </trkpt>
      <trkpt lat="47.8773" lon="3.72808">
        <ele>188</ele>
        <time>2019-10-26T09:44:28.000Z</time>
      </trkpt>
      <trkpt lat="47.87729" lon="3.72811">
        <ele>188</ele>
        <time>2019-10-26T09:44:29.000Z</time>
      </trkpt>
      <trkpt lat="47.87728" lon="3.72814">
        <ele>188</ele>
        <time>2019-10-26T09:44:30.000Z</time>
      </trkpt>
      <trkpt lat="47.87726" lon="3.72817">
        <ele>188</ele>
        <time>2019-10-26T09:44:31.000Z</time>
      </trkpt>
      <trkpt lat="47.87725" lon="3.7282">
        <ele>188</ele>
        <time>2019-10-26T09:44:32.000Z</time>
      </trkpt>
      <trkpt lat="47.87724" lon="3.72822">
        <ele>187</ele>
        <time>2019-10-26T09:44:33.000Z</time>
      </trkpt>
      <trkpt lat="47.87722" lon="3.72825">
        <ele>187</ele>
        <time>2019-10-26T09:44:34.000Z</time>
      </trkpt>
      <trkpt lat="47.8772" lon="3.72827">
        <ele>187</ele>
        <time>2019-10-26T09:44:35.000Z</time>
      </trkpt>
      <trkpt lat="47.87718" lon="3.7283">
        <ele>187</ele>
        <time>2019-10-26T09:44:36.000Z</time>
      </trkpt>
      <trkpt lat="47.87717" lon="3.72832">
        <ele>187</ele>
        <time>2019-10-26T09:44:37.000Z</time>
      </trkpt>
      <trkpt lat="47.87714" lon="3.72834">
        <ele>187</ele>
        <time>2019-10-26T09:44:38.000Z</time>
      </trkpt>
      <trkpt lat="47.87713" lon="3.72837">
        <ele>187</ele>
        <time>2019-10-26T09:44:39.000Z</time>
      </trkpt>
      <trkpt lat="47.87711" lon="3.72839">
        <ele>187</ele>
        <time>2019-10-26T09:44:40.000Z</time>
      </trkpt>
      <trkpt lat="47.87709" lon="3.7284">
        <ele>187</ele>
        <time>2019-10-26T09:44:41.000Z</time>
      </trkpt>
      <trkpt lat="47.87707" lon="3.72842">
        <ele>187</ele>
        <time>2019-10-26T09:44:42.000Z</time>
      </trkpt>
      <trkpt lat="47.87705" lon="3.72844">
        <ele>187</ele>
        <time>2019-10-26T09:44:43.000Z</time>
      </trkpt>
      <trkpt lat="47.87703" lon="3.72845">
        <ele>186</ele>
        <time>2019-10-26T09:44:44.000Z</time>
      </trkpt>
      <trkpt lat="47.87701" lon="3.72847">
        <ele>186</ele>
        <time>2019-10-26T09:44:45.000Z</time>
      </trkpt>
      <trkpt lat="47.87699" lon="3.72848">
        <ele>186</ele>
        <time>2019-10-26T09:44:46.000Z</time>
      </trkpt>
      <trkpt lat="47.87697" lon="3.7285">
        <ele>186</ele>
        <time>2019-10-26T09:44:47.000Z</time>
      </trkpt>
      <trkpt lat="47.87695" lon="3.72851">
        <ele>186</ele>
        <time>2019-10-26T09:44:48.000Z</time>
      </trkpt>
      <trkpt lat="47.87693" lon="3.72853">
        <ele>186</ele>
        <time>2019-10-26T09:44:49.000Z</time>
      </trkpt>
      <trkpt lat="47.87691" lon="3.72854">
        <ele>186</ele>
        <time>2019-10-26T09:44:50.000Z</time>
      </trkpt>
      <trkpt lat="47.87689" lon="3.72856">
        <ele>186</ele>
        <time>2019-10-26T09:44:51.000Z</time>
      </trkpt>
      <trkpt lat="47.87687" lon="3.72857">
        <ele>186</ele>
        <time>2019-10-26T09:44:52.000Z</time>
      </trkpt>
      <trkpt lat="47.87685" lon="3.72859">
        <ele>186</ele>
        <time>2019-10-26T09:44:53.000Z</time>
      </trkpt>
      <trkpt lat="47.87683" lon="3.72861">
        <ele>186</ele>
        <time>2019-10-26T09:44:54.000Z</time>
      </trkpt>
      <trkpt lat="47.87681" lon="3.72863">
        <ele>186</ele>
        <time>2019-10-26T09:44:55.000Z</time>
      </trkpt>
      <trkpt lat="47.87679" lon="3.72865">
        <ele>186</ele>
        <time>2019-10-26T09:44:56.000Z</time>
      </trkpt>
      <trkpt lat="47.87677" lon="3.72867">
        <ele>186</ele>
        <time>2019-10-26T09:44:57.000Z</time>
      </trkpt>
      <trkpt lat="47.87675" lon="3.72869">
        <ele>186</ele>
        <time>2019-10-26T09:44:58.000Z</time>
      </trkpt>
      <trkpt lat="47.87673" lon="3.72871">
        <ele>186</ele>
        <time>2019-10-26T09:44:59.000Z</time>
      </trkpt>
      <trkpt lat="47.87671" lon="3.72874">
        <ele>186</ele>
        <time>2019-10-26T09:45:00.000Z</time>
      </trkpt>
      <trkpt lat="47.8767" lon="3.72877">
        <ele>187</ele>
        <time>2019-10-26T09:45:01.000Z</time>
      </trkpt>
      <trkpt lat="47.87668" lon="3.7288">
        <ele>187</ele>
        <time>2019-10-26T09:45:02.000Z</time>
      </trkpt>
      <trkpt lat="47.87667" lon="3.72882">
        <ele>186</ele>
        <time>2019-10-26T09:45:03.000Z</time>
      </trkpt>
      <trkpt lat="47.87665" lon="3.72886">
        <ele>186</ele>
        <time>2019-10-26T09:45:04.000Z</time>
      </trkpt>
      <trkpt lat="47.87664" lon="3.72889">
        <ele>186</ele>
        <time>2019-10-26T09:45:05.000Z</time>
      </trkpt>
      <trkpt lat="47.87663" lon="3.72893">
        <ele>186</ele>
        <time>2019-10-26T09:45:06.000Z</time>
      </trkpt>
      <trkpt lat="47.87662" lon="3.72896">
        <ele>186</ele>
        <time>2019-10-26T09:45:07.000Z</time>
      </trkpt>
      <trkpt lat="47.87662" lon="3.729">
        <ele>186</ele>
        <time>2019-10-26T09:45:08.000Z</time>
      </trkpt>
      <trkpt lat="47.87661" lon="3.72903">
        <ele>185</ele>
        <time>2019-10-26T09:45:09.000Z</time>
      </trkpt>
      <trkpt lat="47.87661" lon="3.72907">
        <ele>185</ele>
        <time>2019-10-26T09:45:10.000Z</time>
      </trkpt>
      <trkpt lat="47.87662" lon="3.7291">
        <ele>185</ele>
        <time>2019-10-26T09:45:11.000Z</time>
      </trkpt>
      <trkpt lat="47.87662" lon="3.72913">
        <ele>185</ele>
        <time>2019-10-26T09:45:12.000Z</time>
      </trkpt>
      <trkpt lat="47.87663" lon="3.72916">
        <ele>185</ele>
        <time>2019-10-26T09:45:13.000Z</time>
      </trkpt>
      <trkpt lat="47.87664" lon="3.72919">
        <ele>185</ele>
        <time>2019-10-26T09:45:14.000Z</time>
      </trkpt>
      <trkpt lat="47.87665" lon="3.72921">
        <ele>184</ele>
        <time>2019-10-26T09:45:15.000Z</time>
      </trkpt>
      <trkpt lat="47.87666" lon="3.72923">
        <ele>184</ele>
        <time>2019-10-26T09:45:16.000Z</time>
      </trkpt>
      <trkpt lat="47.87667" lon="3.72925">
        <ele>184</ele>
        <time>2019-10-26T09:45:17.000Z</time>
      </trkpt>
      <trkpt lat="47.87669" lon="3.72928">
        <ele>184</ele>
        <time>2019-10-26T09:45:18.000Z</time>
      </trkpt>
      <trkpt lat="47.8767" lon="3.72929">
        <ele>183</ele>
        <time>2019-10-26T09:45:19.000Z</time>
      </trkpt>
      <trkpt lat="47.87672" lon="3.72931">
        <ele>183</ele>
        <time>2019-10-26T09:45:20.000Z</time>
      </trkpt>
      <trkpt lat="47.87674" lon="3.72934">
        <ele>183</ele>
        <time>2019-10-26T09:45:21.000Z</time>
      </trkpt>
      <trkpt lat="47.87676" lon="3.72935">
        <ele>183</ele>
        <time>2019-10-26T09:45:22.000Z</time>
      </trkpt>
      <trkpt lat="47.87678" lon="3.72937">
        <ele>182</ele>
        <time>2019-10-26T09:45:23.000Z</time>
      </trkpt>
      <trkpt lat="47.8768" lon="3.72938">
        <ele>182</ele>
        <time>2019-10-26T09:45:24.000Z</time>
      </trkpt>
      <trkpt lat="47.87682" lon="3.7294">
        <ele>182</ele>
        <time>2019-10-26T09:45:25.000Z</time>
      </trkpt>
      <trkpt lat="47.87685" lon="3.72941">
        <ele>182</ele>
        <time>2019-10-26T09:45:26.000Z</time>
      </trkpt>
      <trkpt lat="47.87687" lon="3.72942">
        <ele>181</ele>
        <time>2019-10-26T09:45:27.000Z</time>
      </trkpt>
      <trkpt lat="47.87689" lon="3.72943">
        <ele>181</ele>
        <time>2019-10-26T09:45:28.000Z</time>
      </trkpt>
      <trkpt lat="47.87691" lon="3.72944">
        <ele>181</ele>
        <time>2019-10-26T09:45:29.000Z</time>
      </trkpt>
      <trkpt lat="47.87693" lon="3.72945">
        <ele>181</ele>
        <time>2019-10-26T09:45:30.000Z</time>
      </trkpt>
      <trkpt lat="47.87696" lon="3.72946">
        <ele>181</ele>
        <time>2019-10-26T09:45:31.000Z</time>
      </trkpt>
      <trkpt lat="47.87698" lon="3.72948">
        <ele>181</ele>
        <time>2019-10-26T09:45:32.000Z</time>
      </trkpt>
      <trkpt lat="47.87701" lon="3.72949">
        <ele>181</ele>
        <time>2019-10-26T09:45:33.000Z</time>
      </trkpt>
      <trkpt lat="47.87703" lon="3.7295">
        <ele>181</ele>
        <time>2019-10-26T09:45:34.000Z</time>
      </trkpt>
      <trkpt lat="47.87706" lon="3.72951">
        <ele>180</ele>
        <time>2019-10-26T09:45:35.000Z</time>
      </trkpt>
      <trkpt lat="47.87708" lon="3.72952">
        <ele>180</ele>
        <time>2019-10-26T09:45:36.000Z</time>
      </trkpt>
      <trkpt lat="47.87711" lon="3.72954">
        <ele>180</ele>
        <time>2019-10-26T09:45:37.000Z</time>
      </trkpt>
      <trkpt lat="47.87713" lon="3.72955">
        <ele>180</ele>
        <time>2019-10-26T09:45:38.000Z</time>
      </trkpt>
      <trkpt lat="47.87715" lon="3.72956">
        <ele>180</ele>
        <time>2019-10-26T09:45:39.000Z</time>
      </trkpt>
      <trkpt lat="47.87718" lon="3.72957">
        <ele>180</ele>
        <time>2019-10-26T09:45:40.000Z</time>
      </trkpt>
      <trkpt lat="47.8772" lon="3.72958">
        <ele>180</ele>
        <time>2019-10-26T09:45:41.000Z</time>
      </trkpt>
      <trkpt lat="47.87722" lon="3.72959">
        <ele>179</ele>
        <time>2019-10-26T09:45:42.000Z</time>
      </trkpt>
      <trkpt lat="47.87724" lon="3.7296">
        <ele>179</ele>
        <time>2019-10-26T09:45:43.000Z</time>
      </trkpt>
      <trkpt lat="47.87727" lon="3.72962">
        <ele>179</ele>
        <time>2019-10-26T09:45:44.000Z</time>
      </trkpt>
      <trkpt lat="47.87729" lon="3.72963">
        <ele>179</ele>
        <time>2019-10-26T09:45:45.000Z</time>
      </trkpt>
      <trkpt lat="47.87731" lon="3.72964">
        <ele>179</ele>
        <time>2019-10-26T09:45:46.000Z</time>
      </trkpt>
      <trkpt lat="47.87733" lon="3.72965">
        <ele>178</ele>
        <time>2019-10-26T09:45:47.000Z</time>
      </trkpt>
      <trkpt lat="47.87736" lon="3.72966">
        <ele>178</ele>
        <time>2019-10-26T09:45:48.000Z</time>
      </trkpt>
      <trkpt lat="47.87738" lon="3.72967">
        <ele>178</ele>
        <time>2019-10-26T09:45:49.000Z</time>
      </trkpt>
      <trkpt lat="47.8774" lon="3.72969">
        <ele>178</ele>
        <time>2019-10-26T09:45:50.000Z</time>
      </trkpt>
      <trkpt lat="47.87743" lon="3.7297">
        <ele>178</ele>
        <time>2019-10-26T09:45:51.000Z</time>
      </trkpt>
      <trkpt lat="47.87745" lon="3.72971">
        <ele>178</ele>
        <time>2019-10-26T09:45:52.000Z</time>
      </trkpt>
      <trkpt lat="47.87747" lon="3.72973">
        <ele>178</ele>
        <time>2019-10-26T09:45:53.000Z</time>
      </trkpt>
      <trkpt lat="47.8775" lon="3.72974">
        <ele>177</ele>
        <time>2019-10-26T09:45:54.000Z</time>
      </trkpt>
      <trkpt lat="47.87752" lon="3.72976">
        <ele>177</ele>
        <time>2019-10-26T09:45:55.000Z</time>
      </trkpt>
      <trkpt lat="47.87754" lon="3.72977">
        <ele>177</ele>
        <time>2019-10-26T09:45:56.000Z</time>
      </trkpt>
      <trkpt lat="47.87757" lon="3.72979">
        <ele>177</ele>
        <time>2019-10-26T09:45:57.000Z</time>
      </trkpt>
      <trkpt lat="47.87759" lon="3.72981">
        <ele>177</ele>
        <time>2019-10-26T09:45:58.000Z</time>
      </trkpt>
      <trkpt lat="47.87762" lon="3.72982">
        <ele>177</ele>
        <time>2019-10-26T09:45:59.000Z</time>
      </trkpt>
      <trkpt lat="47.87764" lon="3.72983">
        <ele>176</ele>
        <time>2019-10-26T09:46:00.000Z</time>
      </trkpt>
      <trkpt lat="47.87767" lon="3.72985">
        <ele>176</ele>
        <time>2019-10-26T09:46:01.000Z</time>
      </trkpt>
      <trkpt lat="47.87769" lon="3.72987">
        <ele>176</ele>
        <time>2019-10-26T09:46:02.000Z</time>
      </trkpt>
      <trkpt lat="47.87772" lon="3.72988">
        <ele>176</ele>
        <time>2019-10-26T09:46:03.000Z</time>
      </trkpt>
      <trkpt lat="47.87774" lon="3.7299">
        <ele>176</ele>
        <time>2019-10-26T09:46:04.000Z</time>
      </trkpt>
      <trkpt lat="47.87776" lon="3.72992">
        <ele>176</ele>
        <time>2019-10-26T09:46:05.000Z</time>
      </trkpt>
      <trkpt lat="47.87779" lon="3.72994">
        <ele>176</ele>
        <time>2019-10-26T09:46:06.000Z</time>
      </trkpt>
      <trkpt lat="47.87781" lon="3.72995">
        <ele>176</ele>
        <time>2019-10-26T09:46:07.000Z</time>
      </trkpt>
      <trkpt lat="47.87783" lon="3.72997">
        <ele>176</ele>
        <time>2019-10-26T09:46:08.000Z</time>
      </trkpt>
      <trkpt lat="47.87786" lon="3.72999">
        <ele>176</ele>
        <time>2019-10-26T09:46:09.000Z</time>
      </trkpt>
      <trkpt lat="47.87788" lon="3.73001">
        <ele>176</ele>
        <time>2019-10-26T09:46:10.000Z</time>
      </trkpt>
      <trkpt lat="47.8779" lon="3.73003">
        <ele>176</ele>
        <time>2019-10-26T09:46:11.000Z</time>
      </trkpt>
      <trkpt lat="47.87792" lon="3.73005">
        <ele>176</ele>
        <time>2019-10-26T09:46:12.000Z</time>
      </trkpt>
      <trkpt lat="47.87795" lon="3.73006">
        <ele>176</ele>
        <time>2019-10-26T09:46:13.000Z</time>
      </trkpt>
      <trkpt lat="47.87797" lon="3.73008">
        <ele>175</ele>
        <time>2019-10-26T09:46:14.000Z</time>
      </trkpt>
      <trkpt lat="47.878" lon="3.7301">
        <ele>175</ele>
        <time>2019-10-26T09:46:15.000Z</time>
      </trkpt>
      <trkpt lat="47.87802" lon="3.73011">
        <ele>175</ele>
        <time>2019-10-26T09:46:16.000Z</time>
      </trkpt>
      <trkpt lat="47.87804" lon="3.73013">
        <ele>175</ele>
        <time>2019-10-26T09:46:17.000Z</time>
      </trkpt>
      <trkpt lat="47.87807" lon="3.73014">
        <ele>175</ele>
        <time>2019-10-26T09:46:18.000Z</time>
      </trkpt>
      <trkpt lat="47.87809" lon="3.73016">
        <ele>175</ele>
        <time>2019-10-26T09:46:19.000Z</time>
      </trkpt>
      <trkpt lat="47.87811" lon="3.73019">
        <ele>175</ele>
        <time>2019-10-26T09:46:20.000Z</time>
      </trkpt>
      <trkpt lat="47.87813" lon="3.73021">
        <ele>175</ele>
        <time>2019-10-26T09:46:21.000Z</time>
      </trkpt>
      <trkpt lat="47.87816" lon="3.73023">
        <ele>175</ele>
        <time>2019-10-26T09:46:22.000Z</time>
      </trkpt>
      <trkpt lat="47.87818" lon="3.73025">
        <ele>175</ele>
        <time>2019-10-26T09:46:23.000Z</time>
      </trkpt>
      <trkpt lat="47.87819" lon="3.73028">
        <ele>175</ele>
        <time>2019-10-26T09:46:24.000Z</time>
      </trkpt>
      <trkpt lat="47.87821" lon="3.7303">
        <ele>175</ele>
        <time>2019-10-26T09:46:25.000Z</time>
      </trkpt>
      <trkpt lat="47.87823" lon="3.73033">
        <ele>175</ele>
        <time>2019-10-26T09:46:26.000Z</time>
      </trkpt>
      <trkpt lat="47.87824" lon="3.73037">
        <ele>175</ele>
        <time>2019-10-26T09:46:27.000Z</time>
      </trkpt>
      <trkpt lat="47.87825" lon="3.7304">
        <ele>175</ele>
        <time>2019-10-26T09:46:28.000Z</time>
      </trkpt>
      <trkpt lat="47.87826" lon="3.73044">
        <ele>175</ele>
        <time>2019-10-26T09:46:29.000Z</time>
      </trkpt>
      <trkpt lat="47.87826" lon="3.73048">
        <ele>175</ele>
        <time>2019-10-26T09:46:30.000Z</time>
      </trkpt>
      <trkpt lat="47.87827" lon="3.73052">
        <ele>175</ele>
        <time>2019-10-26T09:46:31.000Z</time>
      </trkpt>
      <trkpt lat="47.87828" lon="3.73056">
        <ele>175</ele>
        <time>2019-10-26T09:46:32.000Z</time>
      </trkpt>
      <trkpt lat="47.87828" lon="3.7306">
        <ele>175</ele>
        <time>2019-10-26T09:46:33.000Z</time>
      </trkpt>
      <trkpt lat="47.87828" lon="3.73064">
        <ele>174</ele>
        <time>2019-10-26T09:46:34.000Z</time>
      </trkpt>
      <trkpt lat="47.87828" lon="3.73068">
        <ele>174</ele>
        <time>2019-10-26T09:46:35.000Z</time>
      </trkpt>
      <trkpt lat="47.87827" lon="3.73071">
        <ele>174</ele>
        <time>2019-10-26T09:46:36.000Z</time>
      </trkpt>
      <trkpt lat="47.87826" lon="3.73075">
        <ele>174</ele>
        <time>2019-10-26T09:46:37.000Z</time>
      </trkpt>
      <trkpt lat="47.87825" lon="3.73078">
        <ele>174</ele>
        <time>2019-10-26T09:46:38.000Z</time>
      </trkpt>
      <trkpt lat="47.87824" lon="3.73081">
        <ele>174</ele>
        <time>2019-10-26T09:46:39.000Z</time>
      </trkpt>
      <trkpt lat="47.87821" lon="3.73083">
        <ele>174</ele>
        <time>2019-10-26T09:46:40.000Z</time>
      </trkpt>
      <trkpt lat="47.87819" lon="3.73085">
        <ele>173</ele>
        <time>2019-10-26T09:46:41.000Z</time>
      </trkpt>
      <trkpt lat="47.87816" lon="3.73087">
        <ele>173</ele>
        <time>2019-10-26T09:46:42.000Z</time>
      </trkpt>
      <trkpt lat="47.87813" lon="3.73088">
        <ele>173</ele>
        <time>2019-10-26T09:46:43.000Z</time>
      </trkpt>
      <trkpt lat="47.87811" lon="3.7309">
        <ele>173</ele>
        <time>2019-10-26T09:46:44.000Z</time>
      </trkpt>
      <trkpt lat="47.87808" lon="3.7309">
        <ele>172</ele>
        <time>2019-10-26T09:46:45.000Z</time>
      </trkpt>
      <trkpt lat="47.87805" lon="3.73091">
        <ele>172</ele>
        <time>2019-10-26T09:46:46.000Z</time>
      </trkpt>
      <trkpt lat="47.87802" lon="3.73092">
        <ele>172</ele>
        <time>2019-10-26T09:46:47.000Z</time>
      </trkpt>
      <trkpt lat="47.87799" lon="3.73093">
        <ele>172</ele>
        <time>2019-10-26T09:46:48.000Z</time>
      </trkpt>
      <trkpt lat="47.87796" lon="3.73093">
        <ele>171</ele>
        <time>2019-10-26T09:46:49.000Z</time>
      </trkpt>
      <trkpt lat="47.87794" lon="3.73093">
        <ele>171</ele>
        <time>2019-10-26T09:46:50.000Z</time>
      </trkpt>
      <trkpt lat="47.87791" lon="3.73094">
        <ele>171</ele>
        <time>2019-10-26T09:46:51.000Z</time>
      </trkpt>
      <trkpt lat="47.87788" lon="3.73094">
        <ele>171</ele>
        <time>2019-10-26T09:46:52.000Z</time>
      </trkpt>
      <trkpt lat="47.87786" lon="3.73095">
        <ele>171</ele>
        <time>2019-10-26T09:46:53.000Z</time>
      </trkpt>
      <trkpt lat="47.87783" lon="3.73095">
        <ele>171</ele>
        <time>2019-10-26T09:46:54.000Z</time>
      </trkpt>
      <trkpt lat="47.8778" lon="3.73096">
        <ele>170</ele>
        <time>2019-10-26T09:46:55.000Z</time>
      </trkpt>
      <trkpt lat="47.87778" lon="3.73096">
        <ele>170</ele>
        <time>2019-10-26T09:46:56.000Z</time>
      </trkpt>
      <trkpt lat="47.87775" lon="3.73097">
        <ele>170</ele>
        <time>2019-10-26T09:46:57.000Z</time>
      </trkpt>
      <trkpt lat="47.87772" lon="3.73097">
        <ele>170</ele>
        <time>2019-10-26T09:46:58.000Z</time>
      </trkpt>
      <trkpt lat="47.8777" lon="3.73097">
        <ele>170</ele>
        <time>2019-10-26T09:46:59.000Z</time>
      </trkpt>
      <trkpt lat="47.87767" lon="3.73098">
        <ele>170</ele>
        <time>2019-10-26T09:47:00.000Z</time>
      </trkpt>
      <trkpt lat="47.87764" lon="3.73099">
        <ele>169</ele>
        <time>2019-10-26T09:47:01.000Z</time>
      </trkpt>
      <trkpt lat="47.87762" lon="3.731">
        <ele>169</ele>
        <time>2019-10-26T09:47:02.000Z</time>
      </trkpt>
      <trkpt lat="47.8776" lon="3.731">
        <ele>169</ele>
        <time>2019-10-26T09:47:03.000Z</time>
      </trkpt>
      <trkpt lat="47.87757" lon="3.73101">
        <ele>168</ele>
        <time>2019-10-26T09:47:04.000Z</time>
      </trkpt>
      <trkpt lat="47.87755" lon="3.73102">
        <ele>168</ele>
        <time>2019-10-26T09:47:05.000Z</time>
      </trkpt>
      <trkpt lat="47.87752" lon="3.73103">
        <ele>168</ele>
        <time>2019-10-26T09:47:06.000Z</time>
      </trkpt>
      <trkpt lat="47.8775" lon="3.73105">
        <ele>168</ele>
        <time>2019-10-26T09:47:07.000Z</time>
      </trkpt>
      <trkpt lat="47.87748" lon="3.73106">
        <ele>167</ele>
        <time>2019-10-26T09:47:08.000Z</time>
      </trkpt>
      <trkpt lat="47.87745" lon="3.73108">
        <ele>167</ele>
        <time>2019-10-26T09:47:09.000Z</time>
      </trkpt>
      <trkpt lat="47.87743" lon="3.7311">
        <ele>167</ele>
        <time>2019-10-26T09:47:10.000Z</time>
      </trkpt>
      <trkpt lat="47.87741" lon="3.73112">
        <ele>167</ele>
        <time>2019-10-26T09:47:11.000Z</time>
      </trkpt>
      <trkpt lat="47.87739" lon="3.73115">
        <ele>167</ele>
        <time>2019-10-26T09:47:12.000Z</time>
      </trkpt>
      <trkpt lat="47.87737" lon="3.73117">
        <ele>167</ele>
        <time>2019-10-26T09:47:13.000Z</time>
      </trkpt>
      <trkpt lat="47.87736" lon="3.7312">
        <ele>167</ele>
        <time>2019-10-26T09:47:14.000Z</time>
      </trkpt>
      <trkpt lat="47.87734" lon="3.73123">
        <ele>167</ele>
        <time>2019-10-26T09:47:15.000Z</time>
      </trkpt>
      <trkpt lat="47.87733" lon="3.73125">
        <ele>167</ele>
        <time>2019-10-26T09:47:16.000Z</time>
      </trkpt>
      <trkpt lat="47.87732" lon="3.73128">
        <ele>167</ele>
        <time>2019-10-26T09:47:17.000Z</time>
      </trkpt>
      <trkpt lat="47.87731" lon="3.73132">
        <ele>167</ele>
        <time>2019-10-26T09:47:18.000Z</time>
      </trkpt>
      <trkpt lat="47.8773" lon="3.73134">
        <ele>167</ele>
        <time>2019-10-26T09:47:19.000Z</time>
      </trkpt>
      <trkpt lat="47.87729" lon="3.73137">
        <ele>167</ele>
        <time>2019-10-26T09:47:20.000Z</time>
      </trkpt>
      <trkpt lat="47.87728" lon="3.73141">
        <ele>167</ele>
        <time>2019-10-26T09:47:21.000Z</time>
      </trkpt>
      <trkpt lat="47.87728" lon="3.73144">
        <ele>167</ele>
        <time>2019-10-26T09:47:22.000Z</time>
      </trkpt>
      <trkpt lat="47.87727" lon="3.73147">
        <ele>168</ele>
        <time>2019-10-26T09:47:23.000Z</time>
      </trkpt>
      <trkpt lat="47.87726" lon="3.7315">
        <ele>168</ele>
        <time>2019-10-26T09:47:24.000Z</time>
      </trkpt>
      <trkpt lat="47.87726" lon="3.73154">
        <ele>168</ele>
        <time>2019-10-26T09:47:25.000Z</time>
      </trkpt>
      <trkpt lat="47.87725" lon="3.73157">
        <ele>168</ele>
        <time>2019-10-26T09:47:26.000Z</time>
      </trkpt>
      <trkpt lat="47.87724" lon="3.7316">
        <ele>168</ele>
        <time>2019-10-26T09:47:27.000Z</time>
      </trkpt>
      <trkpt lat="47.87724" lon="3.73163">
        <ele>168</ele>
        <time>2019-10-26T09:47:28.000Z</time>
      </trkpt>
      <trkpt lat="47.87723" lon="3.73166">
        <ele>168</ele>
        <time>2019-10-26T09:47:29.000Z</time>
      </trkpt>
      <trkpt lat="47.87722" lon="3.73169">
        <ele>168</ele>
        <time>2019-10-26T09:47:30.000Z</time>
      </trkpt>
      <trkpt lat="47.87722" lon="3.73172">
        <ele>168</ele>
        <time>2019-10-26T09:47:31.000Z</time>
      </trkpt>
      <trkpt lat="47.87721" lon="3.73176">
        <ele>168</ele>
        <time>2019-10-26T09:47:32.000Z</time>
      </trkpt>
      <trkpt lat="47.8772" lon="3.73179">
        <ele>168</ele>
        <time>2019-10-26T09:47:33.000Z</time>
      </trkpt>
      <trkpt lat="47.87719" lon="3.73183">
        <ele>168</ele>
        <time>2019-10-26T09:47:34.000Z</time>
      </trkpt>
      <trkpt lat="47.87718" lon="3.73186">
        <ele>168</ele>
        <time>2019-10-26T09:47:35.000Z</time>
      </trkpt>
      <trkpt lat="47.87717" lon="3.7319">
        <ele>168</ele>
        <time>2019-10-26T09:47:36.000Z</time>
      </trkpt>
      <trkpt lat="47.87716" lon="3.73193">
        <ele>168</ele>
        <time>2019-10-26T09:47:37.000Z</time>
      </trkpt>
      <trkpt lat="47.87714" lon="3.73196">
        <ele>168</ele>
        <time>2019-10-26T09:47:38.000Z</time>
      </trkpt>
      <trkpt lat="47.87713" lon="3.732">
        <ele>168</ele>
        <time>2019-10-26T09:47:39.000Z</time>
      </trkpt>
      <trkpt lat="47.87713" lon="3.73203">
        <ele>168</ele>
        <time>2019-10-26T09:47:40.000Z</time>
      </trkpt>
      <trkpt lat="47.87712" lon="3.73206">
        <ele>168</ele>
        <time>2019-10-26T09:47:41.000Z</time>
      </trkpt>
      <trkpt lat="47.87711" lon="3.73209">
        <ele>168</ele>
        <time>2019-10-26T09:47:42.000Z</time>
      </trkpt>
      <trkpt lat="47.8771" lon="3.73212">
        <ele>168</ele>
        <time>2019-10-26T09:47:43.000Z</time>
      </trkpt>
      <trkpt lat="47.87709" lon="3.73215">
        <ele>168</ele>
        <time>2019-10-26T09:47:44.000Z</time>
      </trkpt>
      <trkpt lat="47.87707" lon="3.73218">
        <ele>168</ele>
        <time>2019-10-26T09:47:45.000Z</time>
      </trkpt>
      <trkpt lat="47.87706" lon="3.73222">
        <ele>168</ele>
        <time>2019-10-26T09:47:46.000Z</time>
      </trkpt>
      <trkpt lat="47.87705" lon="3.73225">
        <ele>168</ele>
        <time>2019-10-26T09:47:47.000Z</time>
      </trkpt>
      <trkpt lat="47.87704" lon="3.73229">
        <ele>168</ele>
        <time>2019-10-26T09:47:48.000Z</time>
      </trkpt>
      <trkpt lat="47.87703" lon="3.73232">
        <ele>168</ele>
        <time>2019-10-26T09:47:49.000Z</time>
      </trkpt>
      <trkpt lat="47.87702" lon="3.73236">
        <ele>168</ele>
        <time>2019-10-26T09:47:50.000Z</time>
      </trkpt>
      <trkpt lat="47.87701" lon="3.73239">
        <ele>168</ele>
        <time>2019-10-26T09:47:51.000Z</time>
      </trkpt>
      <trkpt lat="47.877" lon="3.73242">
        <ele>168</ele>
        <time>2019-10-26T09:47:52.000Z</time>
      </trkpt>
      <trkpt lat="47.87698" lon="3.73246">
        <ele>168</ele>
        <time>2019-10-26T09:47:53.000Z</time>
      </trkpt>
      <trkpt lat="47.87697" lon="3.73249">
        <ele>168</ele>
        <time>2019-10-26T09:47:54.000Z</time>
      </trkpt>
      <trkpt lat="47.87696" lon="3.73252">
        <ele>168</ele>
        <time>2019-10-26T09:47:55.000Z</time>
      </trkpt>
      <trkpt lat="47.87694" lon="3.73255">
        <ele>168</ele>
        <time>2019-10-26T09:47:56.000Z</time>
      </trkpt>
      <trkpt lat="47.87693" lon="3.73258">
        <ele>168</ele>
        <time>2019-10-26T09:47:57.000Z</time>
      </trkpt>
      <trkpt lat="47.87692" lon="3.73261">
        <ele>168</ele>
        <time>2019-10-26T09:47:58.000Z</time>
      </trkpt>
      <trkpt lat="47.8769" lon="3.73264">
        <ele>168</ele>
        <time>2019-10-26T09:47:59.000Z</time>
      </trkpt>
      <trkpt lat="47.87689" lon="3.73267">
        <ele>168</ele>
        <time>2019-10-26T09:48:00.000Z</time>
      </trkpt>
      <trkpt lat="47.87687" lon="3.7327">
        <ele>168</ele>
        <time>2019-10-26T09:48:01.000Z</time>
      </trkpt>
      <trkpt lat="47.87686" lon="3.73273">
        <ele>168</ele>
        <time>2019-10-26T09:48:02.000Z</time>
      </trkpt>
      <trkpt lat="47.87685" lon="3.73276">
        <ele>168</ele>
        <time>2019-10-26T09:48:03.000Z</time>
      </trkpt>
      <trkpt lat="47.87683" lon="3.73279">
        <ele>168</ele>
        <time>2019-10-26T09:48:04.000Z</time>
      </trkpt>
      <trkpt lat="47.87682" lon="3.73282">
        <ele>168</ele>
        <time>2019-10-26T09:48:05.000Z</time>
      </trkpt>
      <trkpt lat="47.8768" lon="3.73285">
        <ele>168</ele>
        <time>2019-10-26T09:48:06.000Z</time>
      </trkpt>
      <trkpt lat="47.87679" lon="3.73288">
        <ele>169</ele>
        <time>2019-10-26T09:48:07.000Z</time>
      </trkpt>
      <trkpt lat="47.87677" lon="3.73291">
        <ele>169</ele>
        <time>2019-10-26T09:48:08.000Z</time>
      </trkpt>
      <trkpt lat="47.87675" lon="3.73294">
        <ele>169</ele>
        <time>2019-10-26T09:48:09.000Z</time>
      </trkpt>
      <trkpt lat="47.87674" lon="3.73297">
        <ele>169</ele>
        <time>2019-10-26T09:48:10.000Z</time>
      </trkpt>
      <trkpt lat="47.87672" lon="3.733">
        <ele>169</ele>
        <time>2019-10-26T09:48:11.000Z</time>
      </trkpt>
      <trkpt lat="47.87671" lon="3.73303">
        <ele>169</ele>
        <time>2019-10-26T09:48:12.000Z</time>
      </trkpt>
      <trkpt lat="47.8767" lon="3.73305">
        <ele>169</ele>
        <time>2019-10-26T09:48:13.000Z</time>
      </trkpt>
      <trkpt lat="47.87668" lon="3.73308">
        <ele>170</ele>
        <time>2019-10-26T09:48:14.000Z</time>
      </trkpt>
      <trkpt lat="47.87667" lon="3.73312">
        <ele>170</ele>
        <time>2019-10-26T09:48:15.000Z</time>
      </trkpt>
      <trkpt lat="47.87666" lon="3.73315">
        <ele>170</ele>
        <time>2019-10-26T09:48:16.000Z</time>
      </trkpt>
      <trkpt lat="47.87665" lon="3.73318">
        <ele>170</ele>
        <time>2019-10-26T09:48:17.000Z</time>
      </trkpt>
      <trkpt lat="47.87663" lon="3.73321">
        <ele>170</ele>
        <time>2019-10-26T09:48:18.000Z</time>
      </trkpt>
      <trkpt lat="47.87662" lon="3.73324">
        <ele>170</ele>
        <time>2019-10-26T09:48:19.000Z</time>
      </trkpt>
      <trkpt lat="47.87661" lon="3.73327">
        <ele>170</ele>
        <time>2019-10-26T09:48:20.000Z</time>
      </trkpt>
      <trkpt lat="47.8766" lon="3.7333">
        <ele>170</ele>
        <time>2019-10-26T09:48:21.000Z</time>
      </trkpt>
      <trkpt lat="47.87658" lon="3.73332">
        <ele>170</ele>
        <time>2019-10-26T09:48:22.000Z</time>
      </trkpt>
      <trkpt lat="47.87657" lon="3.73336">
        <ele>170</ele>
        <time>2019-10-26T09:48:23.000Z</time>
      </trkpt>
      <trkpt lat="47.87656" lon="3.73339">
        <ele>170</ele>
        <time>2019-10-26T09:48:24.000Z</time>
      </trkpt>
      <trkpt lat="47.87655" lon="3.73342">
        <ele>170</ele>
        <time>2019-10-26T09:48:25.000Z</time>
      </trkpt>
      <trkpt lat="47.87653" lon="3.73344">
        <ele>170</ele>
        <time>2019-10-26T09:48:26.000Z</time>
      </trkpt>
      <trkpt lat="47.87652" lon="3.73347">
        <ele>170</ele>
        <time>2019-10-26T09:48:27.000Z</time>
      </trkpt>
      <trkpt lat="47.87651" lon="3.7335">
        <ele>170</ele>
        <time>2019-10-26T09:48:28.000Z</time>
      </trkpt>
      <trkpt lat="47.87649" lon="3.73353">
        <ele>170</ele>
        <time>2019-10-26T09:48:29.000Z</time>
      </trkpt>
      <trkpt lat="47.87648" lon="3.73356">
        <ele>170</ele>
        <time>2019-10-26T09:48:30.000Z</time>
      </trkpt>
      <trkpt lat="47.87647" lon="3.73359">
        <ele>170</ele>
        <time>2019-10-26T09:48:31.000Z</time>
      </trkpt>
      <trkpt lat="47.87645" lon="3.73362">
        <ele>170</ele>
        <time>2019-10-26T09:48:32.000Z</time>
      </trkpt>
      <trkpt lat="47.87644" lon="3.73364">
        <ele>170</ele>
        <time>2019-10-26T09:48:33.000Z</time>
      </trkpt>
      <trkpt lat="47.87642" lon="3.73367">
        <ele>170</ele>
        <time>2019-10-26T09:48:34.000Z</time>
      </trkpt>
      <trkpt lat="47.87641" lon="3.7337">
        <ele>170</ele>
        <time>2019-10-26T09:48:35.000Z</time>
      </trkpt>
      <trkpt lat="47.8764" lon="3.73373">
        <ele>170</ele>
        <time>2019-10-26T09:48:36.000Z</time>
      </trkpt>
      <trkpt lat="47.87639" lon="3.73376">
        <ele>170</ele>
        <time>2019-10-26T09:48:37.000Z</time>
      </trkpt>
      <trkpt lat="47.87638" lon="3.73379">
        <ele>170</ele>
        <time>2019-10-26T09:48:38.000Z</time>
      </trkpt>
      <trkpt lat="47.87637" lon="3.73382">
        <ele>170</ele>
        <time>2019-10-26T09:48:39.000Z</time>
      </trkpt>
      <trkpt lat="47.87635" lon="3.73384">
        <ele>171</ele>
        <time>2019-10-26T09:48:40.000Z</time>
      </trkpt>
      <trkpt lat="47.87634" lon="3.73387">
        <ele>171</ele>
        <time>2019-10-26T09:48:41.000Z</time>
      </trkpt>
      <trkpt lat="47.87633" lon="3.7339">
        <ele>171</ele>
        <time>2019-10-26T09:48:42.000Z</time>
      </trkpt>
      <trkpt lat="47.87632" lon="3.73393">
        <ele>171</ele>
        <time>2019-10-26T09:48:43.000Z</time>
      </trkpt>
      <trkpt lat="47.87631" lon="3.73395">
        <ele>171</ele>
        <time>2019-10-26T09:48:44.000Z</time>
      </trkpt>
      <trkpt lat="47.8763" lon="3.73398">
        <ele>171</ele>
        <time>2019-10-26T09:48:45.000Z</time>
      </trkpt>
      <trkpt lat="47.87628" lon="3.73401">
        <ele>171</ele>
        <time>2019-10-26T09:48:46.000Z</time>
      </trkpt>
      <trkpt lat="47.87627" lon="3.73403">
        <ele>171</ele>
        <time>2019-10-26T09:48:47.000Z</time>
      </trkpt>
      <trkpt lat="47.87626" lon="3.73406">
        <ele>171</ele>
        <time>2019-10-26T09:48:48.000Z</time>
      </trkpt>
      <trkpt lat="47.87624" lon="3.73409">
        <ele>172</ele>
        <time>2019-10-26T09:48:49.000Z</time>
      </trkpt>
      <trkpt lat="47.87623" lon="3.73412">
        <ele>172</ele>
        <time>2019-10-26T09:48:50.000Z</time>
      </trkpt>
      <trkpt lat="47.87622" lon="3.73414">
        <ele>172</ele>
        <time>2019-10-26T09:48:51.000Z</time>
      </trkpt>
      <trkpt lat="47.87621" lon="3.73417">
        <ele>172</ele>
        <time>2019-10-26T09:48:52.000Z</time>
      </trkpt>
      <trkpt lat="47.87619" lon="3.7342">
        <ele>172</ele>
        <time>2019-10-26T09:48:53.000Z</time>
      </trkpt>
      <trkpt lat="47.87618" lon="3.73423">
        <ele>172</ele>
        <time>2019-10-26T09:48:54.000Z</time>
      </trkpt>
      <trkpt lat="47.87617" lon="3.73426">
        <ele>172</ele>
        <time>2019-10-26T09:48:55.000Z</time>
      </trkpt>
      <trkpt lat="47.87615" lon="3.73428">
        <ele>172</ele>
        <time>2019-10-26T09:48:56.000Z</time>
      </trkpt>
      <trkpt lat="47.87614" lon="3.73431">
        <ele>172</ele>
        <time>2019-10-26T09:48:57.000Z</time>
      </trkpt>
      <trkpt lat="47.87613" lon="3.73434">
        <ele>172</ele>
        <time>2019-10-26T09:48:58.000Z</time>
      </trkpt>
      <trkpt lat="47.87611" lon="3.73437">
        <ele>172</ele>
        <time>2019-10-26T09:48:59.000Z</time>
      </trkpt>
      <trkpt lat="47.8761" lon="3.7344">
        <ele>173</ele>
        <time>2019-10-26T09:49:00.000Z</time>
      </trkpt>
      <trkpt lat="47.87609" lon="3.73443">
        <ele>173</ele>
        <time>2019-10-26T09:49:01.000Z</time>
      </trkpt>
      <trkpt lat="47.87608" lon="3.73445">
        <ele>173</ele>
        <time>2019-10-26T09:49:02.000Z</time>
      </trkpt>
      <trkpt lat="47.87606" lon="3.73448">
        <ele>173</ele>
        <time>2019-10-26T09:49:03.000Z</time>
      </trkpt>
      <trkpt lat="47.87605" lon="3.73451">
        <ele>173</ele>
        <time>2019-10-26T09:49:04.000Z</time>
      </trkpt>
      <trkpt lat="47.87604" lon="3.73454">
        <ele>173</ele>
        <time>2019-10-26T09:49:05.000Z</time>
      </trkpt>
      <trkpt lat="47.87602" lon="3.73456">
        <ele>173</ele>
        <time>2019-10-26T09:49:06.000Z</time>
      </trkpt>
      <trkpt lat="47.87601" lon="3.73459">
        <ele>173</ele>
        <time>2019-10-26T09:49:07.000Z</time>
      </trkpt>
      <trkpt lat="47.876" lon="3.73462">
        <ele>173</ele>
        <time>2019-10-26T09:49:08.000Z</time>
      </trkpt>
      <trkpt lat="47.87599" lon="3.73465">
        <ele>173</ele>
        <time>2019-10-26T09:49:09.000Z</time>
      </trkpt>
      <trkpt lat="47.87598" lon="3.73468">
        <ele>173</ele>
        <time>2019-10-26T09:49:10.000Z</time>
      </trkpt>
      <trkpt lat="47.87597" lon="3.73471">
        <ele>173</ele>
        <time>2019-10-26T09:49:11.000Z</time>
      </trkpt>
      <trkpt lat="47.87595" lon="3.73474">
        <ele>173</ele>
        <time>2019-10-26T09:49:12.000Z</time>
      </trkpt>
      <trkpt lat="47.87594" lon="3.73476">
        <ele>173</ele>
        <time>2019-10-26T09:49:13.000Z</time>
      </trkpt>
      <trkpt lat="47.87593" lon="3.73479">
        <ele>173</ele>
        <time>2019-10-26T09:49:14.000Z</time>
      </trkpt>
      <trkpt lat="47.87592" lon="3.73482">
        <ele>173</ele>
        <time>2019-10-26T09:49:15.000Z</time>
      </trkpt>
      <trkpt lat="47.87591" lon="3.73485">
        <ele>173</ele>
        <time>2019-10-26T09:49:16.000Z</time>
      </trkpt>
      <trkpt lat="47.8759" lon="3.73487">
        <ele>173</ele>
        <time>2019-10-26T09:49:17.000Z</time>
      </trkpt>
      <trkpt lat="47.87589" lon="3.7349">
        <ele>173</ele>
        <time>2019-10-26T09:49:18.000Z</time>
      </trkpt>
      <trkpt lat="47.87588" lon="3.73493">
        <ele>173</ele>
        <time>2019-10-26T09:49:19.000Z</time>
      </trkpt>
      <trkpt lat="47.87587" lon="3.73496">
        <ele>173</ele>
        <time>2019-10-26T09:49:20.000Z</time>
      </trkpt>
      <trkpt lat="47.87586" lon="3.73499">
        <ele>174</ele>
        <time>2019-10-26T09:49:21.000Z</time>
      </trkpt>
      <trkpt lat="47.87585" lon="3.73502">
        <ele>174</ele>
        <time>2019-10-26T09:49:22.000Z</time>
      </trkpt>
      <trkpt lat="47.87584" lon="3.73506">
        <ele>174</ele>
        <time>2019-10-26T09:49:23.000Z</time>
      </trkpt>
      <trkpt lat="47.87584" lon="3.73506">
        <ele>174</ele>
        <time>2019-10-26T09:49:24.000Z</time>
      </trkpt>
      <trkpt lat="47.87583" lon="3.73512">
        <ele>174</ele>
        <time>2019-10-26T09:49:25.000Z</time>
      </trkpt>
      <trkpt lat="47.87582" lon="3.73515">
        <ele>174</ele>
        <time>2019-10-26T09:49:26.000Z</time>
      </trkpt>
      <trkpt lat="47.87582" lon="3.73519">
        <ele>174</ele>
        <time>2019-10-26T09:49:27.000Z</time>
      </trkpt>
      <trkpt lat="47.87581" lon="3.73522">
        <ele>174</ele>
        <time>2019-10-26T09:49:28.000Z</time>
      </trkpt>
      <trkpt lat="47.87581" lon="3.73525">
        <ele>174</ele>
        <time>2019-10-26T09:49:29.000Z</time>
      </trkpt>
      <trkpt lat="47.87581" lon="3.73529">
        <ele>174</ele>
        <time>2019-10-26T09:49:30.000Z</time>
      </trkpt>
      <trkpt lat="47.8758" lon="3.73532">
        <ele>174</ele>
        <time>2019-10-26T09:49:31.000Z</time>
      </trkpt>
      <trkpt lat="47.8758" lon="3.73535">
        <ele>174</ele>
        <time>2019-10-26T09:49:32.000Z</time>
      </trkpt>
      <trkpt lat="47.87579" lon="3.73539">
        <ele>174</ele>
        <time>2019-10-26T09:49:33.000Z</time>
      </trkpt>
      <trkpt lat="47.87579" lon="3.73542">
        <ele>174</ele>
        <time>2019-10-26T09:49:34.000Z</time>
      </trkpt>
      <trkpt lat="47.87578" lon="3.73545">
        <ele>174</ele>
        <time>2019-10-26T09:49:35.000Z</time>
      </trkpt>
      <trkpt lat="47.87578" lon="3.73548">
        <ele>174</ele>
        <time>2019-10-26T09:49:36.000Z</time>
      </trkpt>
      <trkpt lat="47.87577" lon="3.73551">
        <ele>174</ele>
        <time>2019-10-26T09:49:37.000Z</time>
      </trkpt>
      <trkpt lat="47.87577" lon="3.73555">
        <ele>174</ele>
        <time>2019-10-26T09:49:38.000Z</time>
      </trkpt>
      <trkpt lat="47.87576" lon="3.73558">
        <ele>174</ele>
        <time>2019-10-26T09:49:39.000Z</time>
      </trkpt>
      <trkpt lat="47.87576" lon="3.73561">
        <ele>175</ele>
        <time>2019-10-26T09:49:40.000Z</time>
      </trkpt>
      <trkpt lat="47.87575" lon="3.73565">
        <ele>175</ele>
        <time>2019-10-26T09:49:41.000Z</time>
      </trkpt>
      <trkpt lat="47.87575" lon="3.73568">
        <ele>175</ele>
        <time>2019-10-26T09:49:42.000Z</time>
      </trkpt>
      <trkpt lat="47.87574" lon="3.73571">
        <ele>175</ele>
        <time>2019-10-26T09:49:43.000Z</time>
      </trkpt>
      <trkpt lat="47.87574" lon="3.73575">
        <ele>175</ele>
        <time>2019-10-26T09:49:44.000Z</time>
      </trkpt>
      <trkpt lat="47.87573" lon="3.73578">
        <ele>175</ele>
        <time>2019-10-26T09:49:45.000Z</time>
      </trkpt>
      <trkpt lat="47.87573" lon="3.73581">
        <ele>175</ele>
        <time>2019-10-26T09:49:46.000Z</time>
      </trkpt>
      <trkpt lat="47.87572" lon="3.73584">
        <ele>175</ele>
        <time>2019-10-26T09:49:47.000Z</time>
      </trkpt>
      <trkpt lat="47.87572" lon="3.73588">
        <ele>175</ele>
        <time>2019-10-26T09:49:48.000Z</time>
      </trkpt>
      <trkpt lat="47.87572" lon="3.73591">
        <ele>175</ele>
        <time>2019-10-26T09:49:49.000Z</time>
      </trkpt>
      <trkpt lat="47.87571" lon="3.73594">
        <ele>175</ele>
        <time>2019-10-26T09:49:50.000Z</time>
      </trkpt>
      <trkpt lat="47.87571" lon="3.73597">
        <ele>175</ele>
        <time>2019-10-26T09:49:51.000Z</time>
      </trkpt>
      <trkpt lat="47.8757" lon="3.736">
        <ele>175</ele>
        <time>2019-10-26T09:49:52.000Z</time>
      </trkpt>
      <trkpt lat="47.8757" lon="3.73604">
        <ele>175</ele>
        <time>2019-10-26T09:49:53.000Z</time>
      </trkpt>
      <trkpt lat="47.87569" lon="3.73607">
        <ele>175</ele>
        <time>2019-10-26T09:49:54.000Z</time>
      </trkpt>
      <trkpt lat="47.87568" lon="3.7361">
        <ele>176</ele>
        <time>2019-10-26T09:49:55.000Z</time>
      </trkpt>
      <trkpt lat="47.87568" lon="3.73614">
        <ele>176</ele>
        <time>2019-10-26T09:49:56.000Z</time>
      </trkpt>
      <trkpt lat="47.87567" lon="3.73617">
        <ele>176</ele>
        <time>2019-10-26T09:49:57.000Z</time>
      </trkpt>
      <trkpt lat="47.87566" lon="3.7362">
        <ele>176</ele>
        <time>2019-10-26T09:49:58.000Z</time>
      </trkpt>
      <trkpt lat="47.87566" lon="3.73623">
        <ele>176</ele>
        <time>2019-10-26T09:49:59.000Z</time>
      </trkpt>
      <trkpt lat="47.87565" lon="3.73626">
        <ele>176</ele>
        <time>2019-10-26T09:50:00.000Z</time>
      </trkpt>
      <trkpt lat="47.87564" lon="3.73629">
        <ele>176</ele>
        <time>2019-10-26T09:50:01.000Z</time>
      </trkpt>
      <trkpt lat="47.87564" lon="3.73632">
        <ele>176</ele>
        <time>2019-10-26T09:50:02.000Z</time>
      </trkpt>
      <trkpt lat="47.87563" lon="3.73636">
        <ele>176</ele>
        <time>2019-10-26T09:50:03.000Z</time>
      </trkpt>
      <trkpt lat="47.87562" lon="3.73639">
        <ele>175</ele>
        <time>2019-10-26T09:50:04.000Z</time>
      </trkpt>
      <trkpt lat="47.87561" lon="3.73642">
        <ele>175</ele>
        <time>2019-10-26T09:50:05.000Z</time>
      </trkpt>
      <trkpt lat="47.87561" lon="3.73645">
        <ele>175</ele>
        <time>2019-10-26T09:50:06.000Z</time>
      </trkpt>
      <trkpt lat="47.8756" lon="3.73648">
        <ele>175</ele>
        <time>2019-10-26T09:50:07.000Z</time>
      </trkpt>
      <trkpt lat="47.87559" lon="3.73651">
        <ele>175</ele>
        <time>2019-10-26T09:50:08.000Z</time>
      </trkpt>
      <trkpt lat="47.87558" lon="3.73654">
        <ele>175</ele>
        <time>2019-10-26T09:50:09.000Z</time>
      </trkpt>
      <trkpt lat="47.87557" lon="3.73658">
        <ele>175</ele>
        <time>2019-10-26T09:50:10.000Z</time>
      </trkpt>
      <trkpt lat="47.87556" lon="3.73661">
        <ele>175</ele>
        <time>2019-10-26T09:50:11.000Z</time>
      </trkpt>
      <trkpt lat="47.87555" lon="3.73664">
        <ele>175</ele>
        <time>2019-10-26T09:50:12.000Z</time>
      </trkpt>
      <trkpt lat="47.87554" lon="3.73668">
        <ele>175</ele>
        <time>2019-10-26T09:50:13.000Z</time>
      </trkpt>
      <trkpt lat="47.87554" lon="3.73671">
        <ele>175</ele>
        <time>2019-10-26T09:50:14.000Z</time>
      </trkpt>
      <trkpt lat="47.87553" lon="3.73674">
        <ele>175</ele>
        <time>2019-10-26T09:50:15.000Z</time>
      </trkpt>
      <trkpt lat="47.87552" lon="3.73677">
        <ele>175</ele>
        <time>2019-10-26T09:50:16.000Z</time>
      </trkpt>
      <trkpt lat="47.87551" lon="3.7368">
        <ele>175</ele>
        <time>2019-10-26T09:50:17.000Z</time>
      </trkpt>
      <trkpt lat="47.8755" lon="3.73683">
        <ele>175</ele>
        <time>2019-10-26T09:50:18.000Z</time>
      </trkpt>
      <trkpt lat="47.87549" lon="3.73687">
        <ele>176</ele>
        <time>2019-10-26T09:50:19.000Z</time>
      </trkpt>
      <trkpt lat="47.87548" lon="3.7369">
        <ele>176</ele>
        <time>2019-10-26T09:50:20.000Z</time>
      </trkpt>
      <trkpt lat="47.87547" lon="3.73693">
        <ele>176</ele>
        <time>2019-10-26T09:50:21.000Z</time>
      </trkpt>
      <trkpt lat="47.87546" lon="3.73697">
        <ele>176</ele>
        <time>2019-10-26T09:50:22.000Z</time>
      </trkpt>
      <trkpt lat="47.87546" lon="3.737">
        <ele>176</ele>
        <time>2019-10-26T09:50:23.000Z</time>
      </trkpt>
      <trkpt lat="47.87545" lon="3.73703">
        <ele>176</ele>
        <time>2019-10-26T09:50:24.000Z</time>
      </trkpt>
      <trkpt lat="47.87544" lon="3.73706">
        <ele>176</ele>
        <time>2019-10-26T09:50:25.000Z</time>
      </trkpt>
      <trkpt lat="47.87543" lon="3.73709">
        <ele>176</ele>
        <time>2019-10-26T09:50:26.000Z</time>
      </trkpt>
      <trkpt lat="47.87542" lon="3.73712">
        <ele>176</ele>
        <time>2019-10-26T09:50:27.000Z</time>
      </trkpt>
      <trkpt lat="47.87541" lon="3.73715">
        <ele>176</ele>
        <time>2019-10-26T09:50:28.000Z</time>
      </trkpt>
      <trkpt lat="47.87541" lon="3.73719">
        <ele>176</ele>
        <time>2019-10-26T09:50:29.000Z</time>
      </trkpt>
      <trkpt lat="47.8754" lon="3.73722">
        <ele>177</ele>
        <time>2019-10-26T09:50:30.000Z</time>
      </trkpt>
      <trkpt lat="47.87539" lon="3.73725">
        <ele>177</ele>
        <time>2019-10-26T09:50:31.000Z</time>
      </trkpt>
      <trkpt lat="47.87538" lon="3.73728">
        <ele>177</ele>
        <time>2019-10-26T09:50:32.000Z</time>
      </trkpt>
      <trkpt lat="47.87537" lon="3.73731">
        <ele>177</ele>
        <time>2019-10-26T09:50:33.000Z</time>
      </trkpt>
      <trkpt lat="47.87536" lon="3.73734">
        <ele>177</ele>
        <time>2019-10-26T09:50:34.000Z</time>
      </trkpt>
      <trkpt lat="47.87534" lon="3.73737">
        <ele>177</ele>
        <time>2019-10-26T09:50:35.000Z</time>
      </trkpt>
      <trkpt lat="47.87533" lon="3.7374">
        <ele>177</ele>
        <time>2019-10-26T09:50:36.000Z</time>
      </trkpt>
      <trkpt lat="47.87532" lon="3.73743">
        <ele>177</ele>
        <time>2019-10-26T09:50:37.000Z</time>
      </trkpt>
      <trkpt lat="47.87531" lon="3.73746">
        <ele>177</ele>
        <time>2019-10-26T09:50:38.000Z</time>
      </trkpt>
      <trkpt lat="47.8753" lon="3.73749">
        <ele>177</ele>
        <time>2019-10-26T09:50:39.000Z</time>
      </trkpt>
      <trkpt lat="47.87529" lon="3.73753">
        <ele>177</ele>
        <time>2019-10-26T09:50:40.000Z</time>
      </trkpt>
      <trkpt lat="47.87528" lon="3.73756">
        <ele>177</ele>
        <time>2019-10-26T09:50:41.000Z</time>
      </trkpt>
      <trkpt lat="47.87527" lon="3.73759">
        <ele>177</ele>
        <time>2019-10-26T09:50:42.000Z</time>
      </trkpt>
      <trkpt lat="47.87526" lon="3.73762">
        <ele>177</ele>
        <time>2019-10-26T09:50:43.000Z</time>
      </trkpt>
      <trkpt lat="47.87525" lon="3.73765">
        <ele>177</ele>
        <time>2019-10-26T09:50:44.000Z</time>
      </trkpt>
      <trkpt lat="47.87524" lon="3.73768">
        <ele>177</ele>
        <time>2019-10-26T09:50:45.000Z</time>
      </trkpt>
      <trkpt lat="47.87523" lon="3.73771">
        <ele>177</ele>
        <time>2019-10-26T09:50:46.000Z</time>
      </trkpt>
      <trkpt lat="47.87522" lon="3.73774">
        <ele>177</ele>
        <time>2019-10-26T09:50:47.000Z</time>
      </trkpt>
      <trkpt lat="47.87521" lon="3.73777">
        <ele>177</ele>
        <time>2019-10-26T09:50:48.000Z</time>
      </trkpt>
      <trkpt lat="47.8752" lon="3.7378">
        <ele>177</ele>
        <time>2019-10-26T09:50:49.000Z</time>
      </trkpt>
      <trkpt lat="47.87519" lon="3.73783">
        <ele>177</ele>
        <time>2019-10-26T09:50:50.000Z</time>
      </trkpt>
      <trkpt lat="47.87517" lon="3.73787">
        <ele>177</ele>
        <time>2019-10-26T09:50:51.000Z</time>
      </trkpt>
      <trkpt lat="47.87516" lon="3.7379">
        <ele>177</ele>
        <time>2019-10-26T09:50:52.000Z</time>
      </trkpt>
      <trkpt lat="47.87515" lon="3.73793">
        <ele>177</ele>
        <time>2019-10-26T09:50:53.000Z</time>
      </trkpt>
      <trkpt lat="47.87514" lon="3.73796">
        <ele>177</ele>
        <time>2019-10-26T09:50:54.000Z</time>
      </trkpt>
      <trkpt lat="47.87513" lon="3.73799">
        <ele>177</ele>
        <time>2019-10-26T09:50:55.000Z</time>
      </trkpt>
      <trkpt lat="47.87512" lon="3.73802">
        <ele>177</ele>
        <time>2019-10-26T09:50:56.000Z</time>
      </trkpt>
      <trkpt lat="47.87511" lon="3.73805">
        <ele>177</ele>
        <time>2019-10-26T09:50:57.000Z</time>
      </trkpt>
      <trkpt lat="47.8751" lon="3.73808">
        <ele>177</ele>
        <time>2019-10-26T09:50:58.000Z</time>
      </trkpt>
      <trkpt lat="47.87509" lon="3.73811">
        <ele>177</ele>
        <time>2019-10-26T09:50:59.000Z</time>
      </trkpt>
      <trkpt lat="47.87509" lon="3.73814">
        <ele>177</ele>
        <time>2019-10-26T09:51:00.000Z</time>
      </trkpt>
      <trkpt lat="47.87507" lon="3.73817">
        <ele>177</ele>
        <time>2019-10-26T09:51:01.000Z</time>
      </trkpt>
      <trkpt lat="47.87506" lon="3.7382">
        <ele>177</ele>
        <time>2019-10-26T09:51:02.000Z</time>
      </trkpt>
      <trkpt lat="47.87505" lon="3.73823">
        <ele>177</ele>
        <time>2019-10-26T09:51:03.000Z</time>
      </trkpt>
      <trkpt lat="47.87504" lon="3.73826">
        <ele>178</ele>
        <time>2019-10-26T09:51:04.000Z</time>
      </trkpt>
      <trkpt lat="47.87503" lon="3.73829">
        <ele>178</ele>
        <time>2019-10-26T09:51:05.000Z</time>
      </trkpt>
      <trkpt lat="47.87502" lon="3.73832">
        <ele>178</ele>
        <time>2019-10-26T09:51:06.000Z</time>
      </trkpt>
      <trkpt lat="47.87501" lon="3.73835">
        <ele>178</ele>
        <time>2019-10-26T09:51:07.000Z</time>
      </trkpt>
      <trkpt lat="47.875" lon="3.73838">
        <ele>178</ele>
        <time>2019-10-26T09:51:08.000Z</time>
      </trkpt>
      <trkpt lat="47.87499" lon="3.73841">
        <ele>178</ele>
        <time>2019-10-26T09:51:09.000Z</time>
      </trkpt>
      <trkpt lat="47.87498" lon="3.73844">
        <ele>178</ele>
        <time>2019-10-26T09:51:10.000Z</time>
      </trkpt>
      <trkpt lat="47.87497" lon="3.73847">
        <ele>179</ele>
        <time>2019-10-26T09:51:11.000Z</time>
      </trkpt>
      <trkpt lat="47.87495" lon="3.7385">
        <ele>179</ele>
        <time>2019-10-26T09:51:12.000Z</time>
      </trkpt>
      <trkpt lat="47.87494" lon="3.73853">
        <ele>179</ele>
        <time>2019-10-26T09:51:13.000Z</time>
      </trkpt>
      <trkpt lat="47.87492" lon="3.73855">
        <ele>179</ele>
        <time>2019-10-26T09:51:14.000Z</time>
      </trkpt>
      <trkpt lat="47.87491" lon="3.73858">
        <ele>179</ele>
        <time>2019-10-26T09:51:15.000Z</time>
      </trkpt>
      <trkpt lat="47.8749" lon="3.73861">
        <ele>179</ele>
        <time>2019-10-26T09:51:16.000Z</time>
      </trkpt>
      <trkpt lat="47.87489" lon="3.73864">
        <ele>179</ele>
        <time>2019-10-26T09:51:17.000Z</time>
      </trkpt>
      <trkpt lat="47.87488" lon="3.73867">
        <ele>179</ele>
        <time>2019-10-26T09:51:18.000Z</time>
      </trkpt>
      <trkpt lat="47.87487" lon="3.7387">
        <ele>179</ele>
        <time>2019-10-26T09:51:19.000Z</time>
      </trkpt>
      <trkpt lat="47.87485" lon="3.73873">
        <ele>180</ele>
        <time>2019-10-26T09:51:20.000Z</time>
      </trkpt>
      <trkpt lat="47.87484" lon="3.73876">
        <ele>180</ele>
        <time>2019-10-26T09:51:21.000Z</time>
      </trkpt>
      <trkpt lat="47.87483" lon="3.73879">
        <ele>180</ele>
        <time>2019-10-26T09:51:22.000Z</time>
      </trkpt>
      <trkpt lat="47.87481" lon="3.73881">
        <ele>180</ele>
        <time>2019-10-26T09:51:23.000Z</time>
      </trkpt>
      <trkpt lat="47.8748" lon="3.73884">
        <ele>180</ele>
        <time>2019-10-26T09:51:24.000Z</time>
      </trkpt>
      <trkpt lat="47.87479" lon="3.73887">
        <ele>180</ele>
        <time>2019-10-26T09:51:25.000Z</time>
      </trkpt>
      <trkpt lat="47.87478" lon="3.7389">
        <ele>180</ele>
        <time>2019-10-26T09:51:26.000Z</time>
      </trkpt>
      <trkpt lat="47.87477" lon="3.73892">
        <ele>180</ele>
        <time>2019-10-26T09:51:27.000Z</time>
      </trkpt>
      <trkpt lat="47.87475" lon="3.73895">
        <ele>180</ele>
        <time>2019-10-26T09:51:28.000Z</time>
      </trkpt>
      <trkpt lat="47.87474" lon="3.73898">
        <ele>180</ele>
        <time>2019-10-26T09:51:29.000Z</time>
      </trkpt>
      <trkpt lat="47.87473" lon="3.73901">
        <ele>180</ele>
        <time>2019-10-26T09:51:30.000Z</time>
      </trkpt>
      <trkpt lat="47.87472" lon="3.73904">
        <ele>180</ele>
        <time>2019-10-26T09:51:31.000Z</time>
      </trkpt>
      <trkpt lat="47.87471" lon="3.73906">
        <ele>180</ele>
        <time>2019-10-26T09:51:32.000Z</time>
      </trkpt>
      <trkpt lat="47.87469" lon="3.73909">
        <ele>180</ele>
        <time>2019-10-26T09:51:33.000Z</time>
      </trkpt>
      <trkpt lat="47.87468" lon="3.73912">
        <ele>180</ele>
        <time>2019-10-26T09:51:34.000Z</time>
      </trkpt>
      <trkpt lat="47.87467" lon="3.73915">
        <ele>180</ele>
        <time>2019-10-26T09:51:35.000Z</time>
      </trkpt>
      <trkpt lat="47.87466" lon="3.73918">
        <ele>180</ele>
        <time>2019-10-26T09:51:36.000Z</time>
      </trkpt>
      <trkpt lat="47.87464" lon="3.73921">
        <ele>181</ele>
        <time>2019-10-26T09:51:37.000Z</time>
      </trkpt>
      <trkpt lat="47.87463" lon="3.73924">
        <ele>181</ele>
        <time>2019-10-26T09:51:38.000Z</time>
      </trkpt>
      <trkpt lat="47.87461" lon="3.73926">
        <ele>181</ele>
        <time>2019-10-26T09:51:39.000Z</time>
      </trkpt>
      <trkpt lat="47.8746" lon="3.73929">
        <ele>181</ele>
        <time>2019-10-26T09:51:40.000Z</time>
      </trkpt>
      <trkpt lat="47.87459" lon="3.73932">
        <ele>181</ele>
        <time>2019-10-26T09:51:41.000Z</time>
      </trkpt>
      <trkpt lat="47.87458" lon="3.73934">
        <ele>181</ele>
        <time>2019-10-26T09:51:42.000Z</time>
      </trkpt>
      <trkpt lat="47.87456" lon="3.73937">
        <ele>181</ele>
        <time>2019-10-26T09:51:43.000Z</time>
      </trkpt>
      <trkpt lat="47.87455" lon="3.7394">
        <ele>181</ele>
        <time>2019-10-26T09:51:44.000Z</time>
      </trkpt>
      <trkpt lat="47.87453" lon="3.73942">
        <ele>181</ele>
        <time>2019-10-26T09:51:45.000Z</time>
      </trkpt>
      <trkpt lat="47.87452" lon="3.73945">
        <ele>181</ele>
        <time>2019-10-26T09:51:46.000Z</time>
      </trkpt>
      <trkpt lat="47.8745" lon="3.73947">
        <ele>181</ele>
        <time>2019-10-26T09:51:47.000Z</time>
      </trkpt>
      <trkpt lat="47.87449" lon="3.7395">
        <ele>181</ele>
        <time>2019-10-26T09:51:48.000Z</time>
      </trkpt>
      <trkpt lat="47.87448" lon="3.73952">
        <ele>181</ele>
        <time>2019-10-26T09:51:49.000Z</time>
      </trkpt>
      <trkpt lat="47.87446" lon="3.73954">
        <ele>182</ele>
        <time>2019-10-26T09:51:50.000Z</time>
      </trkpt>
      <trkpt lat="47.87445" lon="3.73957">
        <ele>182</ele>
        <time>2019-10-26T09:51:51.000Z</time>
      </trkpt>
      <trkpt lat="47.87443" lon="3.73959">
        <ele>182</ele>
        <time>2019-10-26T09:51:52.000Z</time>
      </trkpt>
      <trkpt lat="47.87441" lon="3.73961">
        <ele>182</ele>
        <time>2019-10-26T09:51:53.000Z</time>
      </trkpt>
      <trkpt lat="47.8744" lon="3.73963">
        <ele>182</ele>
        <time>2019-10-26T09:51:54.000Z</time>
      </trkpt>
      <trkpt lat="47.87438" lon="3.73965">
        <ele>182</ele>
        <time>2019-10-26T09:51:55.000Z</time>
      </trkpt>
      <trkpt lat="47.87436" lon="3.73967">
        <ele>182</ele>
        <time>2019-10-26T09:51:56.000Z</time>
      </trkpt>
      <trkpt lat="47.87434" lon="3.73969">
        <ele>181</ele>
        <time>2019-10-26T09:51:57.000Z</time>
      </trkpt>
      <trkpt lat="47.87433" lon="3.73971">
        <ele>181</ele>
        <time>2019-10-26T09:51:58.000Z</time>
      </trkpt>
      <trkpt lat="47.87431" lon="3.73973">
        <ele>181</ele>
        <time>2019-10-26T09:51:59.000Z</time>
      </trkpt>
      <trkpt lat="47.87429" lon="3.73975">
        <ele>181</ele>
        <time>2019-10-26T09:52:00.000Z</time>
      </trkpt>
      <trkpt lat="47.87427" lon="3.73976">
        <ele>181</ele>
        <time>2019-10-26T09:52:01.000Z</time>
      </trkpt>
      <trkpt lat="47.87425" lon="3.73978">
        <ele>181</ele>
        <time>2019-10-26T09:52:02.000Z</time>
      </trkpt>
      <trkpt lat="47.87423" lon="3.7398">
        <ele>181</ele>
        <time>2019-10-26T09:52:03.000Z</time>
      </trkpt>
      <trkpt lat="47.87422" lon="3.73982">
        <ele>181</ele>
        <time>2019-10-26T09:52:04.000Z</time>
      </trkpt>
      <trkpt lat="47.8742" lon="3.73983">
        <ele>181</ele>
        <time>2019-10-26T09:52:05.000Z</time>
      </trkpt>
      <trkpt lat="47.87418" lon="3.73985">
        <ele>180</ele>
        <time>2019-10-26T09:52:06.000Z</time>
      </trkpt>
      <trkpt lat="47.87416" lon="3.73987">
        <ele>180</ele>
        <time>2019-10-26T09:52:07.000Z</time>
      </trkpt>
      <trkpt lat="47.87414" lon="3.73989">
        <ele>180</ele>
        <time>2019-10-26T09:52:08.000Z</time>
      </trkpt>
      <trkpt lat="47.87412" lon="3.73991">
        <ele>180</ele>
        <time>2019-10-26T09:52:09.000Z</time>
      </trkpt>
      <trkpt lat="47.8741" lon="3.73993">
        <ele>180</ele>
        <time>2019-10-26T09:52:10.000Z</time>
      </trkpt>
      <trkpt lat="47.87408" lon="3.73995">
        <ele>180</ele>
        <time>2019-10-26T09:52:11.000Z</time>
      </trkpt>
      <trkpt lat="47.87406" lon="3.73996">
        <ele>180</ele>
        <time>2019-10-26T09:52:12.000Z</time>
      </trkpt>
      <trkpt lat="47.87404" lon="3.73998">
        <ele>180</ele>
        <time>2019-10-26T09:52:13.000Z</time>
      </trkpt>
      <trkpt lat="47.87402" lon="3.74">
        <ele>180</ele>
        <time>2019-10-26T09:52:14.000Z</time>
      </trkpt>
      <trkpt lat="47.874" lon="3.74002">
        <ele>180</ele>
        <time>2019-10-26T09:52:15.000Z</time>
      </trkpt>
      <trkpt lat="47.87398" lon="3.74004">
        <ele>180</ele>
        <time>2019-10-26T09:52:16.000Z</time>
      </trkpt>
      <trkpt lat="47.87397" lon="3.74006">
        <ele>180</ele>
        <time>2019-10-26T09:52:17.000Z</time>
      </trkpt>
      <trkpt lat="47.87395" lon="3.74008">
        <ele>180</ele>
        <time>2019-10-26T09:52:18.000Z</time>
      </trkpt>
      <trkpt lat="47.87393" lon="3.74009">
        <ele>180</ele>
        <time>2019-10-26T09:52:19.000Z</time>
      </trkpt>
      <trkpt lat="47.87391" lon="3.74011">
        <ele>180</ele>
        <time>2019-10-26T09:52:20.000Z</time>
      </trkpt>
      <trkpt lat="47.87389" lon="3.74013">
        <ele>181</ele>
        <time>2019-10-26T09:52:21.000Z</time>
      </trkpt>
      <trkpt lat="47.87388" lon="3.74015">
        <ele>181</ele>
        <time>2019-10-26T09:52:22.000Z</time>
      </trkpt>
      <trkpt lat="47.87386" lon="3.74017">
        <ele>181</ele>
        <time>2019-10-26T09:52:23.000Z</time>
      </trkpt>
      <trkpt lat="47.87384" lon="3.74019">
        <ele>181</ele>
        <time>2019-10-26T09:52:24.000Z</time>
      </trkpt>
      <trkpt lat="47.87382" lon="3.74021">
        <ele>181</ele>
        <time>2019-10-26T09:52:25.000Z</time>
      </trkpt>
      <trkpt lat="47.87381" lon="3.74023">
        <ele>181</ele>
        <time>2019-10-26T09:52:26.000Z</time>
      </trkpt>
      <trkpt lat="47.87379" lon="3.74025">
        <ele>182</ele>
        <time>2019-10-26T09:52:27.000Z</time>
      </trkpt>
      <trkpt lat="47.87377" lon="3.74027">
        <ele>182</ele>
        <time>2019-10-26T09:52:28.000Z</time>
      </trkpt>
      <trkpt lat="47.87375" lon="3.74029">
        <ele>182</ele>
        <time>2019-10-26T09:52:29.000Z</time>
      </trkpt>
      <trkpt lat="47.87373" lon="3.74031">
        <ele>182</ele>
        <time>2019-10-26T09:52:30.000Z</time>
      </trkpt>
      <trkpt lat="47.87372" lon="3.74033">
        <ele>182</ele>
        <time>2019-10-26T09:52:31.000Z</time>
      </trkpt>
      <trkpt lat="47.8737" lon="3.74035">
        <ele>182</ele>
        <time>2019-10-26T09:52:32.000Z</time>
      </trkpt>
      <trkpt lat="47.87368" lon="3.74037">
        <ele>183</ele>
        <time>2019-10-26T09:52:33.000Z</time>
      </trkpt>
      <trkpt lat="47.87366" lon="3.74039">
        <ele>183</ele>
        <time>2019-10-26T09:52:34.000Z</time>
      </trkpt>
      <trkpt lat="47.87364" lon="3.74041">
        <ele>183</ele>
        <time>2019-10-26T09:52:35.000Z</time>
      </trkpt>
      <trkpt lat="47.87362" lon="3.74043">
        <ele>183</ele>
        <time>2019-10-26T09:52:36.000Z</time>
      </trkpt>
      <trkpt lat="47.8736" lon="3.74045">
        <ele>183</ele>
        <time>2019-10-26T09:52:37.000Z</time>
      </trkpt>
      <trkpt lat="47.87358" lon="3.74046">
        <ele>183</ele>
        <time>2019-10-26T09:52:38.000Z</time>
      </trkpt>
      <trkpt lat="47.87356" lon="3.74048">
        <ele>183</ele>
        <time>2019-10-26T09:52:39.000Z</time>
      </trkpt>
      <trkpt lat="47.87354" lon="3.7405">
        <ele>183</ele>
        <time>2019-10-26T09:52:40.000Z</time>
      </trkpt>
      <trkpt lat="47.87352" lon="3.74052">
        <ele>183</ele>
        <time>2019-10-26T09:52:41.000Z</time>
      </trkpt>
      <trkpt lat="47.8735" lon="3.74054">
        <ele>183</ele>
        <time>2019-10-26T09:52:42.000Z</time>
      </trkpt>
      <trkpt lat="47.87348" lon="3.74056">
        <ele>183</ele>
        <time>2019-10-26T09:52:43.000Z</time>
      </trkpt>
      <trkpt lat="47.87347" lon="3.74058">
        <ele>183</ele>
        <time>2019-10-26T09:52:44.000Z</time>
      </trkpt>
      <trkpt lat="47.87345" lon="3.7406">
        <ele>183</ele>
        <time>2019-10-26T09:52:45.000Z</time>
      </trkpt>
      <trkpt lat="47.87343" lon="3.74062">
        <ele>183</ele>
        <time>2019-10-26T09:52:46.000Z</time>
      </trkpt>
      <trkpt lat="47.87341" lon="3.74063">
        <ele>183</ele>
        <time>2019-10-26T09:52:47.000Z</time>
      </trkpt>
      <trkpt lat="47.87339" lon="3.74065">
        <ele>183</ele>
        <time>2019-10-26T09:52:48.000Z</time>
      </trkpt>
      <trkpt lat="47.87338" lon="3.74067">
        <ele>183</ele>
        <time>2019-10-26T09:52:49.000Z</time>
      </trkpt>
      <trkpt lat="47.87336" lon="3.74069">
        <ele>183</ele>
        <time>2019-10-26T09:52:50.000Z</time>
      </trkpt>
      <trkpt lat="47.87334" lon="3.74071">
        <ele>183</ele>
        <time>2019-10-26T09:52:51.000Z</time>
      </trkpt>
      <trkpt lat="47.87333" lon="3.74073">
        <ele>183</ele>
        <time>2019-10-26T09:52:52.000Z</time>
      </trkpt>
      <trkpt lat="47.87331" lon="3.74075">
        <ele>183</ele>
        <time>2019-10-26T09:52:53.000Z</time>
      </trkpt>
      <trkpt lat="47.87329" lon="3.74077">
        <ele>183</ele>
        <time>2019-10-26T09:52:54.000Z</time>
      </trkpt>
      <trkpt lat="47.87327" lon="3.74079">
        <ele>184</ele>
        <time>2019-10-26T09:52:55.000Z</time>
      </trkpt>
      <trkpt lat="47.87325" lon="3.74081">
        <ele>184</ele>
        <time>2019-10-26T09:52:56.000Z</time>
      </trkpt>
      <trkpt lat="47.87323" lon="3.74083">
        <ele>184</ele>
        <time>2019-10-26T09:52:57.000Z</time>
      </trkpt>
      <trkpt lat="47.87321" lon="3.74084">
        <ele>184</ele>
        <time>2019-10-26T09:52:58.000Z</time>
      </trkpt>
      <trkpt lat="47.8732" lon="3.74086">
        <ele>184</ele>
        <time>2019-10-26T09:52:59.000Z</time>
      </trkpt>
      <trkpt lat="47.87318" lon="3.74088">
        <ele>184</ele>
        <time>2019-10-26T09:53:00.000Z</time>
      </trkpt>
      <trkpt lat="47.87316" lon="3.7409">
        <ele>184</ele>
        <time>2019-10-26T09:53:01.000Z</time>
      </trkpt>
      <trkpt lat="47.87315" lon="3.74092">
        <ele>184</ele>
        <time>2019-10-26T09:53:02.000Z</time>
      </trkpt>
      <trkpt lat="47.87313" lon="3.74094">
        <ele>184</ele>
        <time>2019-10-26T09:53:03.000Z</time>
      </trkpt>
      <trkpt lat="47.87312" lon="3.74096">
        <ele>184</ele>
        <time>2019-10-26T09:53:04.000Z</time>
      </trkpt>
      <trkpt lat="47.8731" lon="3.74098">
        <ele>184</ele>
        <time>2019-10-26T09:53:05.000Z</time>
      </trkpt>
      <trkpt lat="47.87308" lon="3.741">
        <ele>184</ele>
        <time>2019-10-26T09:53:06.000Z</time>
      </trkpt>
      <trkpt lat="47.87307" lon="3.74102">
        <ele>184</ele>
        <time>2019-10-26T09:53:07.000Z</time>
      </trkpt>
      <trkpt lat="47.87305" lon="3.74104">
        <ele>184</ele>
        <time>2019-10-26T09:53:08.000Z</time>
      </trkpt>
      <trkpt lat="47.87304" lon="3.74106">
        <ele>184</ele>
        <time>2019-10-26T09:53:09.000Z</time>
      </trkpt>
      <trkpt lat="47.87302" lon="3.74108">
        <ele>184</ele>
        <time>2019-10-26T09:53:10.000Z</time>
      </trkpt>
      <trkpt lat="47.873" lon="3.74111">
        <ele>184</ele>
        <time>2019-10-26T09:53:11.000Z</time>
      </trkpt>
      <trkpt lat="47.87299" lon="3.74113">
        <ele>184</ele>
        <time>2019-10-26T09:53:12.000Z</time>
      </trkpt>
      <trkpt lat="47.87297" lon="3.74115">
        <ele>184</ele>
        <time>2019-10-26T09:53:13.000Z</time>
      </trkpt>
      <trkpt lat="47.87295" lon="3.74118">
        <ele>184</ele>
        <time>2019-10-26T09:53:14.000Z</time>
      </trkpt>
      <trkpt lat="47.87293" lon="3.7412">
        <ele>184</ele>
        <time>2019-10-26T09:53:15.000Z</time>
      </trkpt>
      <trkpt lat="47.87292" lon="3.74122">
        <ele>184</ele>
        <time>2019-10-26T09:53:16.000Z</time>
      </trkpt>
      <trkpt lat="47.8729" lon="3.74125">
        <ele>184</ele>
        <time>2019-10-26T09:53:17.000Z</time>
      </trkpt>
      <trkpt lat="47.87289" lon="3.74127">
        <ele>184</ele>
        <time>2019-10-26T09:53:18.000Z</time>
      </trkpt>
      <trkpt lat="47.87287" lon="3.74129">
        <ele>184</ele>
        <time>2019-10-26T09:53:19.000Z</time>
      </trkpt>
      <trkpt lat="47.87285" lon="3.74132">
        <ele>184</ele>
        <time>2019-10-26T09:53:20.000Z</time>
      </trkpt>
      <trkpt lat="47.87283" lon="3.74134">
        <ele>184</ele>
        <time>2019-10-26T09:53:21.000Z</time>
      </trkpt>
      <trkpt lat="47.87282" lon="3.74137">
        <ele>184</ele>
        <time>2019-10-26T09:53:22.000Z</time>
      </trkpt>
      <trkpt lat="47.8728" lon="3.74139">
        <ele>184</ele>
        <time>2019-10-26T09:53:23.000Z</time>
      </trkpt>
      <trkpt lat="47.87279" lon="3.74141">
        <ele>184</ele>
        <time>2019-10-26T09:53:24.000Z</time>
      </trkpt>
      <trkpt lat="47.87277" lon="3.74144">
        <ele>184</ele>
        <time>2019-10-26T09:53:25.000Z</time>
      </trkpt>
      <trkpt lat="47.87275" lon="3.74146">
        <ele>184</ele>
        <time>2019-10-26T09:53:26.000Z</time>
      </trkpt>
      <trkpt lat="47.87274" lon="3.74149">
        <ele>184</ele>
        <time>2019-10-26T09:53:27.000Z</time>
      </trkpt>
      <trkpt lat="47.87272" lon="3.74151">
        <ele>184</ele>
        <time>2019-10-26T09:53:28.000Z</time>
      </trkpt>
      <trkpt lat="47.87271" lon="3.74154">
        <ele>184</ele>
        <time>2019-10-26T09:53:29.000Z</time>
      </trkpt>
      <trkpt lat="47.87269" lon="3.74157">
        <ele>184</ele>
        <time>2019-10-26T09:53:30.000Z</time>
      </trkpt>
      <trkpt lat="47.87268" lon="3.7416">
        <ele>184</ele>
        <time>2019-10-26T09:53:31.000Z</time>
      </trkpt>
      <trkpt lat="47.87266" lon="3.74162">
        <ele>184</ele>
        <time>2019-10-26T09:53:32.000Z</time>
      </trkpt>
      <trkpt lat="47.87264" lon="3.74165">
        <ele>184</ele>
        <time>2019-10-26T09:53:33.000Z</time>
      </trkpt>
      <trkpt lat="47.87263" lon="3.74168">
        <ele>184</ele>
        <time>2019-10-26T09:53:34.000Z</time>
      </trkpt>
      <trkpt lat="47.87261" lon="3.74171">
        <ele>183</ele>
        <time>2019-10-26T09:53:35.000Z</time>
      </trkpt>
      <trkpt lat="47.8726" lon="3.74174">
        <ele>183</ele>
        <time>2019-10-26T09:53:36.000Z</time>
      </trkpt>
      <trkpt lat="47.87258" lon="3.74177">
        <ele>183</ele>
        <time>2019-10-26T09:53:37.000Z</time>
      </trkpt>
      <trkpt lat="47.87256" lon="3.7418">
        <ele>183</ele>
        <time>2019-10-26T09:53:38.000Z</time>
      </trkpt>
      <trkpt lat="47.87255" lon="3.74182">
        <ele>183</ele>
        <time>2019-10-26T09:53:39.000Z</time>
      </trkpt>
      <trkpt lat="47.87254" lon="3.74186">
        <ele>183</ele>
        <time>2019-10-26T09:53:40.000Z</time>
      </trkpt>
      <trkpt lat="47.87253" lon="3.74189">
        <ele>183</ele>
        <time>2019-10-26T09:53:41.000Z</time>
      </trkpt>
      <trkpt lat="47.87251" lon="3.74192">
        <ele>183</ele>
        <time>2019-10-26T09:53:42.000Z</time>
      </trkpt>
      <trkpt lat="47.8725" lon="3.74195">
        <ele>183</ele>
        <time>2019-10-26T09:53:43.000Z</time>
      </trkpt>
      <trkpt lat="47.87249" lon="3.74198">
        <ele>183</ele>
        <time>2019-10-26T09:53:44.000Z</time>
      </trkpt>
      <trkpt lat="47.87248" lon="3.74201">
        <ele>183</ele>
        <time>2019-10-26T09:53:45.000Z</time>
      </trkpt>
      <trkpt lat="47.87246" lon="3.74204">
        <ele>183</ele>
        <time>2019-10-26T09:53:46.000Z</time>
      </trkpt>
      <trkpt lat="47.87245" lon="3.74207">
        <ele>183</ele>
        <time>2019-10-26T09:53:47.000Z</time>
      </trkpt>
      <trkpt lat="47.87243" lon="3.7421">
        <ele>183</ele>
        <time>2019-10-26T09:53:48.000Z</time>
      </trkpt>
      <trkpt lat="47.87242" lon="3.74214">
        <ele>183</ele>
        <time>2019-10-26T09:53:49.000Z</time>
      </trkpt>
      <trkpt lat="47.8724" lon="3.74217">
        <ele>183</ele>
        <time>2019-10-26T09:53:50.000Z</time>
      </trkpt>
      <trkpt lat="47.87239" lon="3.7422">
        <ele>183</ele>
        <time>2019-10-26T09:53:51.000Z</time>
      </trkpt>
      <trkpt lat="47.87238" lon="3.74223">
        <ele>183</ele>
        <time>2019-10-26T09:53:52.000Z</time>
      </trkpt>
      <trkpt lat="47.87237" lon="3.74226">
        <ele>183</ele>
        <time>2019-10-26T09:53:53.000Z</time>
      </trkpt>
      <trkpt lat="47.87235" lon="3.74229">
        <ele>183</ele>
        <time>2019-10-26T09:53:54.000Z</time>
      </trkpt>
      <trkpt lat="47.87234" lon="3.74233">
        <ele>183</ele>
        <time>2019-10-26T09:53:55.000Z</time>
      </trkpt>
      <trkpt lat="47.87233" lon="3.74236">
        <ele>183</ele>
        <time>2019-10-26T09:53:56.000Z</time>
      </trkpt>
      <trkpt lat="47.87231" lon="3.74239">
        <ele>183</ele>
        <time>2019-10-26T09:53:57.000Z</time>
      </trkpt>
      <trkpt lat="47.8723" lon="3.74242">
        <ele>183</ele>
        <time>2019-10-26T09:53:58.000Z</time>
      </trkpt>
      <trkpt lat="47.87228" lon="3.74245">
        <ele>183</ele>
        <time>2019-10-26T09:53:59.000Z</time>
      </trkpt>
      <trkpt lat="47.87227" lon="3.74248">
        <ele>183</ele>
        <time>2019-10-26T09:54:00.000Z</time>
      </trkpt>
      <trkpt lat="47.87226" lon="3.74251">
        <ele>183</ele>
        <time>2019-10-26T09:54:01.000Z</time>
      </trkpt>
      <trkpt lat="47.87225" lon="3.74255">
        <ele>183</ele>
        <time>2019-10-26T09:54:02.000Z</time>
      </trkpt>
      <trkpt lat="47.87223" lon="3.74258">
        <ele>182</ele>
        <time>2019-10-26T09:54:03.000Z</time>
      </trkpt>
      <trkpt lat="47.87222" lon="3.74261">
        <ele>182</ele>
        <time>2019-10-26T09:54:04.000Z</time>
      </trkpt>
      <trkpt lat="47.8722" lon="3.74265">
        <ele>182</ele>
        <time>2019-10-26T09:54:05.000Z</time>
      </trkpt>
      <trkpt lat="47.87219" lon="3.74268">
        <ele>182</ele>
        <time>2019-10-26T09:54:06.000Z</time>
      </trkpt>
      <trkpt lat="47.87218" lon="3.74271">
        <ele>182</ele>
        <time>2019-10-26T09:54:07.000Z</time>
      </trkpt>
      <trkpt lat="47.87216" lon="3.74274">
        <ele>182</ele>
        <time>2019-10-26T09:54:08.000Z</time>
      </trkpt>
      <trkpt lat="47.87215" lon="3.74277">
        <ele>182</ele>
        <time>2019-10-26T09:54:09.000Z</time>
      </trkpt>
      <trkpt lat="47.87213" lon="3.74281">
        <ele>182</ele>
        <time>2019-10-26T09:54:10.000Z</time>
      </trkpt>
      <trkpt lat="47.87212" lon="3.74284">
        <ele>182</ele>
        <time>2019-10-26T09:54:11.000Z</time>
      </trkpt>
      <trkpt lat="47.87211" lon="3.74287">
        <ele>182</ele>
        <time>2019-10-26T09:54:12.000Z</time>
      </trkpt>
      <trkpt lat="47.8721" lon="3.7429">
        <ele>182</ele>
        <time>2019-10-26T09:54:13.000Z</time>
      </trkpt>
      <trkpt lat="47.87208" lon="3.74293">
        <ele>181</ele>
        <time>2019-10-26T09:54:14.000Z</time>
      </trkpt>
      <trkpt lat="47.87207" lon="3.74297">
        <ele>181</ele>
        <time>2019-10-26T09:54:15.000Z</time>
      </trkpt>
      <trkpt lat="47.87206" lon="3.743">
        <ele>181</ele>
        <time>2019-10-26T09:54:16.000Z</time>
      </trkpt>
      <trkpt lat="47.87205" lon="3.74303">
        <ele>181</ele>
        <time>2019-10-26T09:54:17.000Z</time>
      </trkpt>
      <trkpt lat="47.87203" lon="3.74306">
        <ele>181</ele>
        <time>2019-10-26T09:54:18.000Z</time>
      </trkpt>
      <trkpt lat="47.87202" lon="3.74309">
        <ele>181</ele>
        <time>2019-10-26T09:54:19.000Z</time>
      </trkpt>
      <trkpt lat="47.87201" lon="3.74312">
        <ele>180</ele>
        <time>2019-10-26T09:54:20.000Z</time>
      </trkpt>
      <trkpt lat="47.872" lon="3.74315">
        <ele>180</ele>
        <time>2019-10-26T09:54:21.000Z</time>
      </trkpt>
      <trkpt lat="47.87198" lon="3.74318">
        <ele>180</ele>
        <time>2019-10-26T09:54:22.000Z</time>
      </trkpt>
      <trkpt lat="47.87197" lon="3.74321">
        <ele>180</ele>
        <time>2019-10-26T09:54:23.000Z</time>
      </trkpt>
      <trkpt lat="47.87196" lon="3.74324">
        <ele>180</ele>
        <time>2019-10-26T09:54:24.000Z</time>
      </trkpt>
      <trkpt lat="47.87194" lon="3.74327">
        <ele>180</ele>
        <time>2019-10-26T09:54:25.000Z</time>
      </trkpt>
      <trkpt lat="47.87193" lon="3.7433">
        <ele>180</ele>
        <time>2019-10-26T09:54:26.000Z</time>
      </trkpt>
      <trkpt lat="47.87191" lon="3.74333">
        <ele>179</ele>
        <time>2019-10-26T09:54:27.000Z</time>
      </trkpt>
      <trkpt lat="47.87189" lon="3.74336">
        <ele>179</ele>
        <time>2019-10-26T09:54:28.000Z</time>
      </trkpt>
      <trkpt lat="47.87188" lon="3.74339">
        <ele>179</ele>
        <time>2019-10-26T09:54:29.000Z</time>
      </trkpt>
      <trkpt lat="47.87186" lon="3.74342">
        <ele>179</ele>
        <time>2019-10-26T09:54:30.000Z</time>
      </trkpt>
      <trkpt lat="47.87184" lon="3.74344">
        <ele>179</ele>
        <time>2019-10-26T09:54:31.000Z</time>
      </trkpt>
      <trkpt lat="47.87183" lon="3.74347">
        <ele>179</ele>
        <time>2019-10-26T09:54:32.000Z</time>
      </trkpt>
      <trkpt lat="47.87181" lon="3.7435">
        <ele>179</ele>
        <time>2019-10-26T09:54:33.000Z</time>
      </trkpt>
      <trkpt lat="47.87179" lon="3.74352">
        <ele>178</ele>
        <time>2019-10-26T09:54:34.000Z</time>
      </trkpt>
      <trkpt lat="47.87178" lon="3.74355">
        <ele>178</ele>
        <time>2019-10-26T09:54:35.000Z</time>
      </trkpt>
      <trkpt lat="47.87176" lon="3.74358">
        <ele>178</ele>
        <time>2019-10-26T09:54:36.000Z</time>
      </trkpt>
      <trkpt lat="47.87174" lon="3.7436">
        <ele>178</ele>
        <time>2019-10-26T09:54:37.000Z</time>
      </trkpt>
      <trkpt lat="47.87173" lon="3.74362">
        <ele>178</ele>
        <time>2019-10-26T09:54:38.000Z</time>
      </trkpt>
      <trkpt lat="47.87171" lon="3.74365">
        <ele>178</ele>
        <time>2019-10-26T09:54:39.000Z</time>
      </trkpt>
      <trkpt lat="47.87169" lon="3.74367">
        <ele>178</ele>
        <time>2019-10-26T09:54:40.000Z</time>
      </trkpt>
      <trkpt lat="47.87167" lon="3.74369">
        <ele>177</ele>
        <time>2019-10-26T09:54:41.000Z</time>
      </trkpt>
      <trkpt lat="47.87165" lon="3.74372">
        <ele>177</ele>
        <time>2019-10-26T09:54:42.000Z</time>
      </trkpt>
      <trkpt lat="47.87163" lon="3.74374">
        <ele>177</ele>
        <time>2019-10-26T09:54:43.000Z</time>
      </trkpt>
      <trkpt lat="47.87161" lon="3.74377">
        <ele>177</ele>
        <time>2019-10-26T09:54:44.000Z</time>
      </trkpt>
      <trkpt lat="47.87159" lon="3.74379">
        <ele>177</ele>
        <time>2019-10-26T09:54:45.000Z</time>
      </trkpt>
      <trkpt lat="47.87158" lon="3.74382">
        <ele>177</ele>
        <time>2019-10-26T09:54:46.000Z</time>
      </trkpt>
      <trkpt lat="47.87156" lon="3.74384">
        <ele>177</ele>
        <time>2019-10-26T09:54:47.000Z</time>
      </trkpt>
      <trkpt lat="47.87154" lon="3.74387">
        <ele>177</ele>
        <time>2019-10-26T09:54:48.000Z</time>
      </trkpt>
      <trkpt lat="47.87152" lon="3.7439">
        <ele>177</ele>
        <time>2019-10-26T09:54:49.000Z</time>
      </trkpt>
      <trkpt lat="47.8715" lon="3.74392">
        <ele>177</ele>
        <time>2019-10-26T09:54:50.000Z</time>
      </trkpt>
      <trkpt lat="47.87148" lon="3.74395">
        <ele>177</ele>
        <time>2019-10-26T09:54:51.000Z</time>
      </trkpt>
      <trkpt lat="47.87147" lon="3.74397">
        <ele>177</ele>
        <time>2019-10-26T09:54:52.000Z</time>
      </trkpt>
      <trkpt lat="47.87145" lon="3.744">
        <ele>177</ele>
        <time>2019-10-26T09:54:53.000Z</time>
      </trkpt>
      <trkpt lat="47.87143" lon="3.74403">
        <ele>177</ele>
        <time>2019-10-26T09:54:54.000Z</time>
      </trkpt>
      <trkpt lat="47.87141" lon="3.74405">
        <ele>177</ele>
        <time>2019-10-26T09:54:55.000Z</time>
      </trkpt>
      <trkpt lat="47.87139" lon="3.74408">
        <ele>177</ele>
        <time>2019-10-26T09:54:56.000Z</time>
      </trkpt>
      <trkpt lat="47.87137" lon="3.74411">
        <ele>177</ele>
        <time>2019-10-26T09:54:57.000Z</time>
      </trkpt>
      <trkpt lat="47.87136" lon="3.74413">
        <ele>176</ele>
        <time>2019-10-26T09:54:58.000Z</time>
      </trkpt>
      <trkpt lat="47.87134" lon="3.74416">
        <ele>176</ele>
        <time>2019-10-26T09:54:59.000Z</time>
      </trkpt>
      <trkpt lat="47.87132" lon="3.74419">
        <ele>176</ele>
        <time>2019-10-26T09:55:00.000Z</time>
      </trkpt>
      <trkpt lat="47.87131" lon="3.74421">
        <ele>176</ele>
        <time>2019-10-26T09:55:01.000Z</time>
      </trkpt>
      <trkpt lat="47.87129" lon="3.74424">
        <ele>176</ele>
        <time>2019-10-26T09:55:02.000Z</time>
      </trkpt>
      <trkpt lat="47.87127" lon="3.74427">
        <ele>176</ele>
        <time>2019-10-26T09:55:03.000Z</time>
      </trkpt>
      <trkpt lat="47.87126" lon="3.7443">
        <ele>176</ele>
        <time>2019-10-26T09:55:04.000Z</time>
      </trkpt>
      <trkpt lat="47.87124" lon="3.74433">
        <ele>175</ele>
        <time>2019-10-26T09:55:05.000Z</time>
      </trkpt>
      <trkpt lat="47.87123" lon="3.74435">
        <ele>175</ele>
        <time>2019-10-26T09:55:06.000Z</time>
      </trkpt>
      <trkpt lat="47.87121" lon="3.74438">
        <ele>175</ele>
        <time>2019-10-26T09:55:07.000Z</time>
      </trkpt>
      <trkpt lat="47.87119" lon="3.74441">
        <ele>175</ele>
        <time>2019-10-26T09:55:08.000Z</time>
      </trkpt>
      <trkpt lat="47.87118" lon="3.74444">
        <ele>175</ele>
        <time>2019-10-26T09:55:09.000Z</time>
      </trkpt>
      <trkpt lat="47.87116" lon="3.74447">
        <ele>175</ele>
        <time>2019-10-26T09:55:10.000Z</time>
      </trkpt>
      <trkpt lat="47.87115" lon="3.7445">
        <ele>175</ele>
        <time>2019-10-26T09:55:11.000Z</time>
      </trkpt>
      <trkpt lat="47.87113" lon="3.74453">
        <ele>175</ele>
        <time>2019-10-26T09:55:12.000Z</time>
      </trkpt>
      <trkpt lat="47.87112" lon="3.74455">
        <ele>174</ele>
        <time>2019-10-26T09:55:13.000Z</time>
      </trkpt>
      <trkpt lat="47.8711" lon="3.74458">
        <ele>174</ele>
        <time>2019-10-26T09:55:14.000Z</time>
      </trkpt>
      <trkpt lat="47.87108" lon="3.74461">
        <ele>174</ele>
        <time>2019-10-26T09:55:15.000Z</time>
      </trkpt>
      <trkpt lat="47.87106" lon="3.74464">
        <ele>174</ele>
        <time>2019-10-26T09:55:16.000Z</time>
      </trkpt>
      <trkpt lat="47.87105" lon="3.74467">
        <ele>174</ele>
        <time>2019-10-26T09:55:17.000Z</time>
      </trkpt>
      <trkpt lat="47.87103" lon="3.7447">
        <ele>174</ele>
        <time>2019-10-26T09:55:18.000Z</time>
      </trkpt>
      <trkpt lat="47.87102" lon="3.74473">
        <ele>173</ele>
        <time>2019-10-26T09:55:19.000Z</time>
      </trkpt>
      <trkpt lat="47.871" lon="3.74476">
        <ele>173</ele>
        <time>2019-10-26T09:55:20.000Z</time>
      </trkpt>
      <trkpt lat="47.87098" lon="3.74479">
        <ele>173</ele>
        <time>2019-10-26T09:55:21.000Z</time>
      </trkpt>
      <trkpt lat="47.87097" lon="3.74482">
        <ele>173</ele>
        <time>2019-10-26T09:55:22.000Z</time>
      </trkpt>
      <trkpt lat="47.87095" lon="3.74485">
        <ele>173</ele>
        <time>2019-10-26T09:55:23.000Z</time>
      </trkpt>
      <trkpt lat="47.87094" lon="3.74488">
        <ele>172</ele>
        <time>2019-10-26T09:55:24.000Z</time>
      </trkpt>
      <trkpt lat="47.87092" lon="3.74491">
        <ele>172</ele>
        <time>2019-10-26T09:55:25.000Z</time>
      </trkpt>
      <trkpt lat="47.87091" lon="3.74494">
        <ele>172</ele>
        <time>2019-10-26T09:55:26.000Z</time>
      </trkpt>
      <trkpt lat="47.87089" lon="3.74497">
        <ele>172</ele>
        <time>2019-10-26T09:55:27.000Z</time>
      </trkpt>
      <trkpt lat="47.87088" lon="3.745">
        <ele>172</ele>
        <time>2019-10-26T09:55:28.000Z</time>
      </trkpt>
      <trkpt lat="47.87086" lon="3.74503">
        <ele>172</ele>
        <time>2019-10-26T09:55:29.000Z</time>
      </trkpt>
      <trkpt lat="47.87084" lon="3.74506">
        <ele>171</ele>
        <time>2019-10-26T09:55:30.000Z</time>
      </trkpt>
      <trkpt lat="47.87083" lon="3.74509">
        <ele>171</ele>
        <time>2019-10-26T09:55:31.000Z</time>
      </trkpt>
      <trkpt lat="47.87081" lon="3.74512">
        <ele>171</ele>
        <time>2019-10-26T09:55:32.000Z</time>
      </trkpt>
      <trkpt lat="47.8708" lon="3.74515">
        <ele>171</ele>
        <time>2019-10-26T09:55:33.000Z</time>
      </trkpt>
      <trkpt lat="47.87078" lon="3.74518">
        <ele>171</ele>
        <time>2019-10-26T09:55:34.000Z</time>
      </trkpt>
      <trkpt lat="47.87077" lon="3.74521">
        <ele>171</ele>
        <time>2019-10-26T09:55:35.000Z</time>
      </trkpt>
      <trkpt lat="47.87075" lon="3.74524">
        <ele>171</ele>
        <time>2019-10-26T09:55:36.000Z</time>
      </trkpt>
      <trkpt lat="47.87074" lon="3.74527">
        <ele>171</ele>
        <time>2019-10-26T09:55:37.000Z</time>
      </trkpt>
      <trkpt lat="47.87072" lon="3.7453">
        <ele>171</ele>
        <time>2019-10-26T09:55:38.000Z</time>
      </trkpt>
      <trkpt lat="47.87071" lon="3.74533">
        <ele>170</ele>
        <time>2019-10-26T09:55:39.000Z</time>
      </trkpt>
      <trkpt lat="47.8707" lon="3.74536">
        <ele>170</ele>
        <time>2019-10-26T09:55:40.000Z</time>
      </trkpt>
      <trkpt lat="47.87068" lon="3.74539">
        <ele>170</ele>
        <time>2019-10-26T09:55:41.000Z</time>
      </trkpt>
      <trkpt lat="47.87067" lon="3.74541">
        <ele>170</ele>
        <time>2019-10-26T09:55:42.000Z</time>
      </trkpt>
      <trkpt lat="47.87065" lon="3.74544">
        <ele>170</ele>
        <time>2019-10-26T09:55:43.000Z</time>
      </trkpt>
      <trkpt lat="47.87064" lon="3.74547">
        <ele>170</ele>
        <time>2019-10-26T09:55:44.000Z</time>
      </trkpt>
      <trkpt lat="47.87062" lon="3.74551">
        <ele>170</ele>
        <time>2019-10-26T09:55:45.000Z</time>
      </trkpt>
      <trkpt lat="47.87061" lon="3.74554">
        <ele>170</ele>
        <time>2019-10-26T09:55:46.000Z</time>
      </trkpt>
      <trkpt lat="47.8706" lon="3.74557">
        <ele>170</ele>
        <time>2019-10-26T09:55:47.000Z</time>
      </trkpt>
      <trkpt lat="47.87058" lon="3.7456">
        <ele>170</ele>
        <time>2019-10-26T09:55:48.000Z</time>
      </trkpt>
      <trkpt lat="47.87057" lon="3.74563">
        <ele>170</ele>
        <time>2019-10-26T09:55:49.000Z</time>
      </trkpt>
      <trkpt lat="47.87055" lon="3.74566">
        <ele>170</ele>
        <time>2019-10-26T09:55:50.000Z</time>
      </trkpt>
      <trkpt lat="47.87054" lon="3.7457">
        <ele>169</ele>
        <time>2019-10-26T09:55:51.000Z</time>
      </trkpt>
      <trkpt lat="47.87052" lon="3.74572">
        <ele>169</ele>
        <time>2019-10-26T09:55:52.000Z</time>
      </trkpt>
      <trkpt lat="47.87051" lon="3.74576">
        <ele>169</ele>
        <time>2019-10-26T09:55:53.000Z</time>
      </trkpt>
      <trkpt lat="47.8705" lon="3.74578">
        <ele>169</ele>
        <time>2019-10-26T09:55:54.000Z</time>
      </trkpt>
      <trkpt lat="47.87048" lon="3.74582">
        <ele>169</ele>
        <time>2019-10-26T09:55:55.000Z</time>
      </trkpt>
      <trkpt lat="47.87047" lon="3.74585">
        <ele>168</ele>
        <time>2019-10-26T09:55:56.000Z</time>
      </trkpt>
      <trkpt lat="47.87046" lon="3.74588">
        <ele>168</ele>
        <time>2019-10-26T09:55:57.000Z</time>
      </trkpt>
      <trkpt lat="47.87044" lon="3.74591">
        <ele>168</ele>
        <time>2019-10-26T09:55:58.000Z</time>
      </trkpt>
      <trkpt lat="47.87043" lon="3.74594">
        <ele>168</ele>
        <time>2019-10-26T09:55:59.000Z</time>
      </trkpt>
      <trkpt lat="47.87042" lon="3.74597">
        <ele>168</ele>
        <time>2019-10-26T09:56:00.000Z</time>
      </trkpt>
      <trkpt lat="47.8704" lon="3.746">
        <ele>168</ele>
        <time>2019-10-26T09:56:01.000Z</time>
      </trkpt>
      <trkpt lat="47.87039" lon="3.74603">
        <ele>168</ele>
        <time>2019-10-26T09:56:02.000Z</time>
      </trkpt>
      <trkpt lat="47.87038" lon="3.74606">
        <ele>167</ele>
        <time>2019-10-26T09:56:03.000Z</time>
      </trkpt>
      <trkpt lat="47.87037" lon="3.7461">
        <ele>167</ele>
        <time>2019-10-26T09:56:04.000Z</time>
      </trkpt>
      <trkpt lat="47.87035" lon="3.74613">
        <ele>167</ele>
        <time>2019-10-26T09:56:05.000Z</time>
      </trkpt>
      <trkpt lat="47.87034" lon="3.74617">
        <ele>167</ele>
        <time>2019-10-26T09:56:06.000Z</time>
      </trkpt>
      <trkpt lat="47.87032" lon="3.7462">
        <ele>167</ele>
        <time>2019-10-26T09:56:07.000Z</time>
      </trkpt>
      <trkpt lat="47.87031" lon="3.74624">
        <ele>166</ele>
        <time>2019-10-26T09:56:08.000Z</time>
      </trkpt>
      <trkpt lat="47.87029" lon="3.74627">
        <ele>166</ele>
        <time>2019-10-26T09:56:09.000Z</time>
      </trkpt>
      <trkpt lat="47.87028" lon="3.74631">
        <ele>166</ele>
        <time>2019-10-26T09:56:10.000Z</time>
      </trkpt>
      <trkpt lat="47.87027" lon="3.74634">
        <ele>166</ele>
        <time>2019-10-26T09:56:11.000Z</time>
      </trkpt>
      <trkpt lat="47.87026" lon="3.74637">
        <ele>166</ele>
        <time>2019-10-26T09:56:12.000Z</time>
      </trkpt>
      <trkpt lat="47.87024" lon="3.74641">
        <ele>165</ele>
        <time>2019-10-26T09:56:13.000Z</time>
      </trkpt>
      <trkpt lat="47.87023" lon="3.74644">
        <ele>165</ele>
        <time>2019-10-26T09:56:14.000Z</time>
      </trkpt>
      <trkpt lat="47.87021" lon="3.74648">
        <ele>165</ele>
        <time>2019-10-26T09:56:15.000Z</time>
      </trkpt>
      <trkpt lat="47.8702" lon="3.74652">
        <ele>165</ele>
        <time>2019-10-26T09:56:16.000Z</time>
      </trkpt>
      <trkpt lat="47.87019" lon="3.74655">
        <ele>165</ele>
        <time>2019-10-26T09:56:17.000Z</time>
      </trkpt>
      <trkpt lat="47.87017" lon="3.74658">
        <ele>164</ele>
        <time>2019-10-26T09:56:18.000Z</time>
      </trkpt>
      <trkpt lat="47.87016" lon="3.74662">
        <ele>164</ele>
        <time>2019-10-26T09:56:19.000Z</time>
      </trkpt>
      <trkpt lat="47.87015" lon="3.74665">
        <ele>164</ele>
        <time>2019-10-26T09:56:20.000Z</time>
      </trkpt>
      <trkpt lat="47.87014" lon="3.74668">
        <ele>164</ele>
        <time>2019-10-26T09:56:21.000Z</time>
      </trkpt>
      <trkpt lat="47.87013" lon="3.74672">
        <ele>164</ele>
        <time>2019-10-26T09:56:22.000Z</time>
      </trkpt>
      <trkpt lat="47.87011" lon="3.74676">
        <ele>163</ele>
        <time>2019-10-26T09:56:23.000Z</time>
      </trkpt>
      <trkpt lat="47.8701" lon="3.74679">
        <ele>163</ele>
        <time>2019-10-26T09:56:24.000Z</time>
      </trkpt>
      <trkpt lat="47.87009" lon="3.74682">
        <ele>163</ele>
        <time>2019-10-26T09:56:25.000Z</time>
      </trkpt>
      <trkpt lat="47.87008" lon="3.74686">
        <ele>163</ele>
        <time>2019-10-26T09:56:26.000Z</time>
      </trkpt>
      <trkpt lat="47.87006" lon="3.74689">
        <ele>163</ele>
        <time>2019-10-26T09:56:27.000Z</time>
      </trkpt>
      <trkpt lat="47.87005" lon="3.74692">
        <ele>162</ele>
        <time>2019-10-26T09:56:28.000Z</time>
      </trkpt>
      <trkpt lat="47.87003" lon="3.74695">
        <ele>162</ele>
        <time>2019-10-26T09:56:29.000Z</time>
      </trkpt>
      <trkpt lat="47.87002" lon="3.74698">
        <ele>162</ele>
        <time>2019-10-26T09:56:30.000Z</time>
      </trkpt>
      <trkpt lat="47.87" lon="3.74702">
        <ele>162</ele>
        <time>2019-10-26T09:56:31.000Z</time>
      </trkpt>
      <trkpt lat="47.86998" lon="3.74704">
        <ele>162</ele>
        <time>2019-10-26T09:56:32.000Z</time>
      </trkpt>
      <trkpt lat="47.86997" lon="3.74707">
        <ele>161</ele>
        <time>2019-10-26T09:56:33.000Z</time>
      </trkpt>
      <trkpt lat="47.86995" lon="3.7471">
        <ele>161</ele>
        <time>2019-10-26T09:56:34.000Z</time>
      </trkpt>
      <trkpt lat="47.86993" lon="3.74713">
        <ele>161</ele>
        <time>2019-10-26T09:56:35.000Z</time>
      </trkpt>
      <trkpt lat="47.86992" lon="3.74716">
        <ele>161</ele>
        <time>2019-10-26T09:56:36.000Z</time>
      </trkpt>
      <trkpt lat="47.8699" lon="3.74719">
        <ele>161</ele>
        <time>2019-10-26T09:56:37.000Z</time>
      </trkpt>
      <trkpt lat="47.86989" lon="3.74722">
        <ele>161</ele>
        <time>2019-10-26T09:56:38.000Z</time>
      </trkpt>
      <trkpt lat="47.86987" lon="3.74725">
        <ele>161</ele>
        <time>2019-10-26T09:56:39.000Z</time>
      </trkpt>
      <trkpt lat="47.86986" lon="3.74728">
        <ele>161</ele>
        <time>2019-10-26T09:56:40.000Z</time>
      </trkpt>
      <trkpt lat="47.86984" lon="3.74731">
        <ele>160</ele>
        <time>2019-10-26T09:56:41.000Z</time>
      </trkpt>
      <trkpt lat="47.86983" lon="3.74734">
        <ele>160</ele>
        <time>2019-10-26T09:56:42.000Z</time>
      </trkpt>
      <trkpt lat="47.86981" lon="3.74737">
        <ele>160</ele>
        <time>2019-10-26T09:56:43.000Z</time>
      </trkpt>
      <trkpt lat="47.8698" lon="3.7474">
        <ele>160</ele>
        <time>2019-10-26T09:56:44.000Z</time>
      </trkpt>
      <trkpt lat="47.86979" lon="3.74743">
        <ele>160</ele>
        <time>2019-10-26T09:56:45.000Z</time>
      </trkpt>
      <trkpt lat="47.86978" lon="3.74747">
        <ele>160</ele>
        <time>2019-10-26T09:56:46.000Z</time>
      </trkpt>
      <trkpt lat="47.86977" lon="3.7475">
        <ele>160</ele>
        <time>2019-10-26T09:56:47.000Z</time>
      </trkpt>
      <trkpt lat="47.86976" lon="3.74754">
        <ele>159</ele>
        <time>2019-10-26T09:56:48.000Z</time>
      </trkpt>
      <trkpt lat="47.86975" lon="3.74757">
        <ele>159</ele>
        <time>2019-10-26T09:56:49.000Z</time>
      </trkpt>
      <trkpt lat="47.86975" lon="3.74761">
        <ele>159</ele>
        <time>2019-10-26T09:56:50.000Z</time>
      </trkpt>
      <trkpt lat="47.86974" lon="3.74765">
        <ele>159</ele>
        <time>2019-10-26T09:56:51.000Z</time>
      </trkpt>
      <trkpt lat="47.86974" lon="3.74769">
        <ele>159</ele>
        <time>2019-10-26T09:56:52.000Z</time>
      </trkpt>
      <trkpt lat="47.86973" lon="3.74773">
        <ele>158</ele>
        <time>2019-10-26T09:56:53.000Z</time>
      </trkpt>
      <trkpt lat="47.86973" lon="3.74777">
        <ele>158</ele>
        <time>2019-10-26T09:56:54.000Z</time>
      </trkpt>
      <trkpt lat="47.86973" lon="3.7478">
        <ele>158</ele>
        <time>2019-10-26T09:56:55.000Z</time>
      </trkpt>
      <trkpt lat="47.86973" lon="3.74784">
        <ele>158</ele>
        <time>2019-10-26T09:56:56.000Z</time>
      </trkpt>
      <trkpt lat="47.86973" lon="3.74788">
        <ele>158</ele>
        <time>2019-10-26T09:56:57.000Z</time>
      </trkpt>
      <trkpt lat="47.86973" lon="3.74792">
        <ele>157</ele>
        <time>2019-10-26T09:56:58.000Z</time>
      </trkpt>
      <trkpt lat="47.86974" lon="3.74796">
        <ele>157</ele>
        <time>2019-10-26T09:56:59.000Z</time>
      </trkpt>
      <trkpt lat="47.86974" lon="3.748">
        <ele>157</ele>
        <time>2019-10-26T09:57:00.000Z</time>
      </trkpt>
      <trkpt lat="47.86974" lon="3.74804">
        <ele>157</ele>
        <time>2019-10-26T09:57:01.000Z</time>
      </trkpt>
      <trkpt lat="47.86975" lon="3.74807">
        <ele>156</ele>
        <time>2019-10-26T09:57:02.000Z</time>
      </trkpt>
      <trkpt lat="47.86975" lon="3.74811">
        <ele>156</ele>
        <time>2019-10-26T09:57:03.000Z</time>
      </trkpt>
      <trkpt lat="47.86976" lon="3.74815">
        <ele>156</ele>
        <time>2019-10-26T09:57:04.000Z</time>
      </trkpt>
      <trkpt lat="47.86976" lon="3.74819">
        <ele>156</ele>
        <time>2019-10-26T09:57:05.000Z</time>
      </trkpt>
      <trkpt lat="47.86976" lon="3.74823">
        <ele>156</ele>
        <time>2019-10-26T09:57:06.000Z</time>
      </trkpt>
      <trkpt lat="47.86977" lon="3.74827">
        <ele>156</ele>
        <time>2019-10-26T09:57:07.000Z</time>
      </trkpt>
      <trkpt lat="47.86977" lon="3.74831">
        <ele>155</ele>
        <time>2019-10-26T09:57:08.000Z</time>
      </trkpt>
      <trkpt lat="47.86977" lon="3.74835">
        <ele>155</ele>
        <time>2019-10-26T09:57:09.000Z</time>
      </trkpt>
      <trkpt lat="47.86978" lon="3.74839">
        <ele>155</ele>
        <time>2019-10-26T09:57:10.000Z</time>
      </trkpt>
      <trkpt lat="47.86978" lon="3.74843">
        <ele>155</ele>
        <time>2019-10-26T09:57:11.000Z</time>
      </trkpt>
      <trkpt lat="47.86979" lon="3.74847">
        <ele>155</ele>
        <time>2019-10-26T09:57:12.000Z</time>
      </trkpt>
      <trkpt lat="47.86979" lon="3.74851">
        <ele>155</ele>
        <time>2019-10-26T09:57:13.000Z</time>
      </trkpt>
      <trkpt lat="47.8698" lon="3.74855">
        <ele>155</ele>
        <time>2019-10-26T09:57:14.000Z</time>
      </trkpt>
      <trkpt lat="47.8698" lon="3.74859">
        <ele>155</ele>
        <time>2019-10-26T09:57:15.000Z</time>
      </trkpt>
      <trkpt lat="47.86981" lon="3.74863">
        <ele>154</ele>
        <time>2019-10-26T09:57:16.000Z</time>
      </trkpt>
      <trkpt lat="47.86981" lon="3.74867">
        <ele>154</ele>
        <time>2019-10-26T09:57:17.000Z</time>
      </trkpt>
      <trkpt lat="47.86982" lon="3.74871">
        <ele>154</ele>
        <time>2019-10-26T09:57:18.000Z</time>
      </trkpt>
      <trkpt lat="47.86982" lon="3.74875">
        <ele>154</ele>
        <time>2019-10-26T09:57:19.000Z</time>
      </trkpt>
      <trkpt lat="47.86982" lon="3.74879">
        <ele>154</ele>
        <time>2019-10-26T09:57:20.000Z</time>
      </trkpt>
      <trkpt lat="47.86982" lon="3.74883">
        <ele>154</ele>
        <time>2019-10-26T09:57:21.000Z</time>
      </trkpt>
      <trkpt lat="47.86982" lon="3.74887">
        <ele>153</ele>
        <time>2019-10-26T09:57:22.000Z</time>
      </trkpt>
      <trkpt lat="47.86982" lon="3.74891">
        <ele>153</ele>
        <time>2019-10-26T09:57:23.000Z</time>
      </trkpt>
      <trkpt lat="47.86982" lon="3.74895">
        <ele>153</ele>
        <time>2019-10-26T09:57:24.000Z</time>
      </trkpt>
      <trkpt lat="47.86981" lon="3.74898">
        <ele>153</ele>
        <time>2019-10-26T09:57:25.000Z</time>
      </trkpt>
      <trkpt lat="47.8698" lon="3.74902">
        <ele>153</ele>
        <time>2019-10-26T09:57:26.000Z</time>
      </trkpt>
      <trkpt lat="47.86979" lon="3.74906">
        <ele>153</ele>
        <time>2019-10-26T09:57:27.000Z</time>
      </trkpt>
      <trkpt lat="47.86978" lon="3.7491">
        <ele>153</ele>
        <time>2019-10-26T09:57:28.000Z</time>
      </trkpt>
      <trkpt lat="47.86977" lon="3.74913">
        <ele>153</ele>
        <time>2019-10-26T09:57:29.000Z</time>
      </trkpt>
      <trkpt lat="47.86976" lon="3.74917">
        <ele>153</ele>
        <time>2019-10-26T09:57:30.000Z</time>
      </trkpt>
      <trkpt lat="47.86975" lon="3.7492">
        <ele>153</ele>
        <time>2019-10-26T09:57:31.000Z</time>
      </trkpt>
      <trkpt lat="47.86974" lon="3.74923">
        <ele>153</ele>
        <time>2019-10-26T09:57:32.000Z</time>
      </trkpt>
      <trkpt lat="47.86972" lon="3.74927">
        <ele>153</ele>
        <time>2019-10-26T09:57:33.000Z</time>
      </trkpt>
      <trkpt lat="47.8697" lon="3.7493">
        <ele>153</ele>
        <time>2019-10-26T09:57:34.000Z</time>
      </trkpt>
      <trkpt lat="47.86969" lon="3.74933">
        <ele>153</ele>
        <time>2019-10-26T09:57:35.000Z</time>
      </trkpt>
      <trkpt lat="47.86968" lon="3.74937">
        <ele>153</ele>
        <time>2019-10-26T09:57:36.000Z</time>
      </trkpt>
      <trkpt lat="47.86966" lon="3.7494">
        <ele>153</ele>
        <time>2019-10-26T09:57:37.000Z</time>
      </trkpt>
      <trkpt lat="47.86965" lon="3.74943">
        <ele>152</ele>
        <time>2019-10-26T09:57:38.000Z</time>
      </trkpt>
      <trkpt lat="47.86963" lon="3.74946">
        <ele>152</ele>
        <time>2019-10-26T09:57:39.000Z</time>
      </trkpt>
      <trkpt lat="47.86962" lon="3.7495">
        <ele>152</ele>
        <time>2019-10-26T09:57:40.000Z</time>
      </trkpt>
      <trkpt lat="47.86961" lon="3.74953">
        <ele>152</ele>
        <time>2019-10-26T09:57:41.000Z</time>
      </trkpt>
      <trkpt lat="47.8696" lon="3.74957">
        <ele>152</ele>
        <time>2019-10-26T09:57:42.000Z</time>
      </trkpt>
      <trkpt lat="47.86959" lon="3.7496">
        <ele>152</ele>
        <time>2019-10-26T09:57:43.000Z</time>
      </trkpt>
      <trkpt lat="47.86958" lon="3.74964">
        <ele>152</ele>
        <time>2019-10-26T09:57:44.000Z</time>
      </trkpt>
      <trkpt lat="47.86957" lon="3.74967">
        <ele>152</ele>
        <time>2019-10-26T09:57:45.000Z</time>
      </trkpt>
      <trkpt lat="47.86956" lon="3.7497">
        <ele>152</ele>
        <time>2019-10-26T09:57:46.000Z</time>
      </trkpt>
      <trkpt lat="47.86955" lon="3.74974">
        <ele>152</ele>
        <time>2019-10-26T09:57:47.000Z</time>
      </trkpt>
      <trkpt lat="47.86954" lon="3.74978">
        <ele>152</ele>
        <time>2019-10-26T09:57:48.000Z</time>
      </trkpt>
      <trkpt lat="47.86953" lon="3.74981">
        <ele>151</ele>
        <time>2019-10-26T09:57:49.000Z</time>
      </trkpt>
      <trkpt lat="47.86952" lon="3.74985">
        <ele>151</ele>
        <time>2019-10-26T09:57:50.000Z</time>
      </trkpt>
      <trkpt lat="47.86951" lon="3.74988">
        <ele>151</ele>
        <time>2019-10-26T09:57:51.000Z</time>
      </trkpt>
      <trkpt lat="47.86951" lon="3.74992">
        <ele>151</ele>
        <time>2019-10-26T09:57:52.000Z</time>
      </trkpt>
      <trkpt lat="47.8695" lon="3.74995">
        <ele>151</ele>
        <time>2019-10-26T09:57:53.000Z</time>
      </trkpt>
      <trkpt lat="47.86949" lon="3.74999">
        <ele>150</ele>
        <time>2019-10-26T09:57:54.000Z</time>
      </trkpt>
      <trkpt lat="47.86948" lon="3.75003">
        <ele>150</ele>
        <time>2019-10-26T09:57:55.000Z</time>
      </trkpt>
      <trkpt lat="47.86947" lon="3.75006">
        <ele>149</ele>
        <time>2019-10-26T09:57:56.000Z</time>
      </trkpt>
      <trkpt lat="47.86946" lon="3.7501">
        <ele>149</ele>
        <time>2019-10-26T09:57:57.000Z</time>
      </trkpt>
      <trkpt lat="47.86944" lon="3.75013">
        <ele>149</ele>
        <time>2019-10-26T09:57:58.000Z</time>
      </trkpt>
      <trkpt lat="47.86943" lon="3.75016">
        <ele>148</ele>
        <time>2019-10-26T09:57:59.000Z</time>
      </trkpt>
      <trkpt lat="47.86941" lon="3.75019">
        <ele>148</ele>
        <time>2019-10-26T09:58:00.000Z</time>
      </trkpt>
      <trkpt lat="47.8694" lon="3.75022">
        <ele>148</ele>
        <time>2019-10-26T09:58:01.000Z</time>
      </trkpt>
      <trkpt lat="47.86938" lon="3.75025">
        <ele>148</ele>
        <time>2019-10-26T09:58:02.000Z</time>
      </trkpt>
      <trkpt lat="47.86936" lon="3.75028">
        <ele>148</ele>
        <time>2019-10-26T09:58:03.000Z</time>
      </trkpt>
      <trkpt lat="47.86934" lon="3.75031">
        <ele>147</ele>
        <time>2019-10-26T09:58:04.000Z</time>
      </trkpt>
      <trkpt lat="47.86933" lon="3.75034">
        <ele>147</ele>
        <time>2019-10-26T09:58:05.000Z</time>
      </trkpt>
      <trkpt lat="47.86931" lon="3.75036">
        <ele>147</ele>
        <time>2019-10-26T09:58:06.000Z</time>
      </trkpt>
      <trkpt lat="47.86928" lon="3.75039">
        <ele>147</ele>
        <time>2019-10-26T09:58:07.000Z</time>
      </trkpt>
      <trkpt lat="47.86926" lon="3.75041">
        <ele>146</ele>
        <time>2019-10-26T09:58:08.000Z</time>
      </trkpt>
      <trkpt lat="47.86924" lon="3.75044">
        <ele>146</ele>
        <time>2019-10-26T09:58:09.000Z</time>
      </trkpt>
      <trkpt lat="47.86922" lon="3.75046">
        <ele>146</ele>
        <time>2019-10-26T09:58:10.000Z</time>
      </trkpt>
      <trkpt lat="47.8692" lon="3.75048">
        <ele>146</ele>
        <time>2019-10-26T09:58:11.000Z</time>
      </trkpt>
      <trkpt lat="47.86918" lon="3.75051">
        <ele>145</ele>
        <time>2019-10-26T09:58:12.000Z</time>
      </trkpt>
      <trkpt lat="47.86915" lon="3.75053">
        <ele>145</ele>
        <time>2019-10-26T09:58:13.000Z</time>
      </trkpt>
      <trkpt lat="47.86913" lon="3.75055">
        <ele>145</ele>
        <time>2019-10-26T09:58:14.000Z</time>
      </trkpt>
      <trkpt lat="47.86911" lon="3.75057">
        <ele>145</ele>
        <time>2019-10-26T09:58:15.000Z</time>
      </trkpt>
      <trkpt lat="47.86908" lon="3.75059">
        <ele>145</ele>
        <time>2019-10-26T09:58:16.000Z</time>
      </trkpt>
      <trkpt lat="47.86906" lon="3.75061">
        <ele>145</ele>
        <time>2019-10-26T09:58:17.000Z</time>
      </trkpt>
      <trkpt lat="47.86904" lon="3.75064">
        <ele>144</ele>
        <time>2019-10-26T09:58:18.000Z</time>
      </trkpt>
      <trkpt lat="47.86901" lon="3.75066">
        <ele>144</ele>
        <time>2019-10-26T09:58:19.000Z</time>
      </trkpt>
      <trkpt lat="47.86899" lon="3.75068">
        <ele>144</ele>
        <time>2019-10-26T09:58:20.000Z</time>
      </trkpt>
      <trkpt lat="47.86897" lon="3.7507">
        <ele>144</ele>
        <time>2019-10-26T09:58:21.000Z</time>
      </trkpt>
      <trkpt lat="47.86894" lon="3.75072">
        <ele>144</ele>
        <time>2019-10-26T09:58:22.000Z</time>
      </trkpt>
      <trkpt lat="47.86892" lon="3.75075">
        <ele>143</ele>
        <time>2019-10-26T09:58:23.000Z</time>
      </trkpt>
      <trkpt lat="47.8689" lon="3.75077">
        <ele>143</ele>
        <time>2019-10-26T09:58:24.000Z</time>
      </trkpt>
      <trkpt lat="47.86887" lon="3.75079">
        <ele>143</ele>
        <time>2019-10-26T09:58:25.000Z</time>
      </trkpt>
      <trkpt lat="47.86885" lon="3.75081">
        <ele>143</ele>
        <time>2019-10-26T09:58:26.000Z</time>
      </trkpt>
      <trkpt lat="47.86883" lon="3.75083">
        <ele>143</ele>
        <time>2019-10-26T09:58:27.000Z</time>
      </trkpt>
      <trkpt lat="47.86881" lon="3.75086">
        <ele>143</ele>
        <time>2019-10-26T09:58:28.000Z</time>
      </trkpt>
      <trkpt lat="47.86878" lon="3.75088">
        <ele>143</ele>
        <time>2019-10-26T09:58:29.000Z</time>
      </trkpt>
      <trkpt lat="47.86876" lon="3.7509">
        <ele>142</ele>
        <time>2019-10-26T09:58:30.000Z</time>
      </trkpt>
      <trkpt lat="47.86873" lon="3.75092">
        <ele>142</ele>
        <time>2019-10-26T09:58:31.000Z</time>
      </trkpt>
      <trkpt lat="47.86871" lon="3.75094">
        <ele>142</ele>
        <time>2019-10-26T09:58:32.000Z</time>
      </trkpt>
      <trkpt lat="47.86869" lon="3.75095">
        <ele>142</ele>
        <time>2019-10-26T09:58:33.000Z</time>
      </trkpt>
      <trkpt lat="47.86866" lon="3.75097">
        <ele>141</ele>
        <time>2019-10-26T09:58:34.000Z</time>
      </trkpt>
      <trkpt lat="47.86864" lon="3.75098">
        <ele>141</ele>
        <time>2019-10-26T09:58:35.000Z</time>
      </trkpt>
      <trkpt lat="47.86861" lon="3.751">
        <ele>141</ele>
        <time>2019-10-26T09:58:36.000Z</time>
      </trkpt>
      <trkpt lat="47.86858" lon="3.751">
        <ele>140</ele>
        <time>2019-10-26T09:58:37.000Z</time>
      </trkpt>
      <trkpt lat="47.86855" lon="3.75101">
        <ele>140</ele>
        <time>2019-10-26T09:58:38.000Z</time>
      </trkpt>
      <trkpt lat="47.86852" lon="3.75101">
        <ele>140</ele>
        <time>2019-10-26T09:58:39.000Z</time>
      </trkpt>
      <trkpt lat="47.86849" lon="3.75101">
        <ele>139</ele>
        <time>2019-10-26T09:58:40.000Z</time>
      </trkpt>
      <trkpt lat="47.86846" lon="3.751">
        <ele>139</ele>
        <time>2019-10-26T09:58:41.000Z</time>
      </trkpt>
      <trkpt lat="47.86843" lon="3.75099">
        <ele>139</ele>
        <time>2019-10-26T09:58:42.000Z</time>
      </trkpt>
      <trkpt lat="47.8684" lon="3.75098">
        <ele>139</ele>
        <time>2019-10-26T09:58:43.000Z</time>
      </trkpt>
      <trkpt lat="47.86837" lon="3.75097">
        <ele>138</ele>
        <time>2019-10-26T09:58:44.000Z</time>
      </trkpt>
      <trkpt lat="47.86834" lon="3.75096">
        <ele>138</ele>
        <time>2019-10-26T09:58:45.000Z</time>
      </trkpt>
      <trkpt lat="47.86832" lon="3.75095">
        <ele>138</ele>
        <time>2019-10-26T09:58:46.000Z</time>
      </trkpt>
      <trkpt lat="47.86829" lon="3.75093">
        <ele>138</ele>
        <time>2019-10-26T09:58:47.000Z</time>
      </trkpt>
      <trkpt lat="47.86826" lon="3.75092">
        <ele>138</ele>
        <time>2019-10-26T09:58:48.000Z</time>
      </trkpt>
      <trkpt lat="47.86824" lon="3.7509">
        <ele>138</ele>
        <time>2019-10-26T09:58:49.000Z</time>
      </trkpt>
      <trkpt lat="47.86822" lon="3.75089">
        <ele>138</ele>
        <time>2019-10-26T09:58:50.000Z</time>
      </trkpt>
      <trkpt lat="47.86819" lon="3.75087">
        <ele>137</ele>
        <time>2019-10-26T09:58:51.000Z</time>
      </trkpt>
      <trkpt lat="47.86817" lon="3.75086">
        <ele>137</ele>
        <time>2019-10-26T09:58:52.000Z</time>
      </trkpt>
      <trkpt lat="47.86814" lon="3.75085">
        <ele>137</ele>
        <time>2019-10-26T09:58:53.000Z</time>
      </trkpt>
      <trkpt lat="47.86811" lon="3.75084">
        <ele>137</ele>
        <time>2019-10-26T09:58:54.000Z</time>
      </trkpt>
      <trkpt lat="47.86809" lon="3.75083">
        <ele>137</ele>
        <time>2019-10-26T09:58:55.000Z</time>
      </trkpt>
      <trkpt lat="47.86806" lon="3.75082">
        <ele>136</ele>
        <time>2019-10-26T09:58:56.000Z</time>
      </trkpt>
      <trkpt lat="47.86803" lon="3.75082">
        <ele>136</ele>
        <time>2019-10-26T09:58:57.000Z</time>
      </trkpt>
      <trkpt lat="47.86801" lon="3.75082">
        <ele>136</ele>
        <time>2019-10-26T09:58:58.000Z</time>
      </trkpt>
      <trkpt lat="47.86798" lon="3.75082">
        <ele>136</ele>
        <time>2019-10-26T09:58:59.000Z</time>
      </trkpt>
      <trkpt lat="47.86795" lon="3.75083">
        <ele>136</ele>
        <time>2019-10-26T09:59:00.000Z</time>
      </trkpt>
      <trkpt lat="47.86793" lon="3.75085">
        <ele>136</ele>
        <time>2019-10-26T09:59:01.000Z</time>
      </trkpt>
      <trkpt lat="47.8679" lon="3.75087">
        <ele>135</ele>
        <time>2019-10-26T09:59:02.000Z</time>
      </trkpt>
      <trkpt lat="47.86788" lon="3.75089">
        <ele>135</ele>
        <time>2019-10-26T09:59:03.000Z</time>
      </trkpt>
      <trkpt lat="47.86786" lon="3.75092">
        <ele>135</ele>
        <time>2019-10-26T09:59:04.000Z</time>
      </trkpt>
      <trkpt lat="47.86784" lon="3.75095">
        <ele>135</ele>
        <time>2019-10-26T09:59:05.000Z</time>
      </trkpt>
      <trkpt lat="47.86782" lon="3.75098">
        <ele>135</ele>
        <time>2019-10-26T09:59:06.000Z</time>
      </trkpt>
      <trkpt lat="47.86781" lon="3.75102">
        <ele>135</ele>
        <time>2019-10-26T09:59:07.000Z</time>
      </trkpt>
      <trkpt lat="47.86779" lon="3.75105">
        <ele>135</ele>
        <time>2019-10-26T09:59:08.000Z</time>
      </trkpt>
      <trkpt lat="47.86778" lon="3.75108">
        <ele>134</ele>
        <time>2019-10-26T09:59:09.000Z</time>
      </trkpt>
      <trkpt lat="47.86777" lon="3.75112">
        <ele>134</ele>
        <time>2019-10-26T09:59:10.000Z</time>
      </trkpt>
      <trkpt lat="47.86776" lon="3.75115">
        <ele>134</ele>
        <time>2019-10-26T09:59:11.000Z</time>
      </trkpt>
      <trkpt lat="47.86775" lon="3.75119">
        <ele>134</ele>
        <time>2019-10-26T09:59:12.000Z</time>
      </trkpt>
      <trkpt lat="47.86773" lon="3.75122">
        <ele>134</ele>
        <time>2019-10-26T09:59:13.000Z</time>
      </trkpt>
      <trkpt lat="47.86772" lon="3.75126">
        <ele>134</ele>
        <time>2019-10-26T09:59:14.000Z</time>
      </trkpt>
      <trkpt lat="47.86771" lon="3.7513">
        <ele>134</ele>
        <time>2019-10-26T09:59:15.000Z</time>
      </trkpt>
      <trkpt lat="47.86771" lon="3.75134">
        <ele>134</ele>
        <time>2019-10-26T09:59:16.000Z</time>
      </trkpt>
      <trkpt lat="47.8677" lon="3.75138">
        <ele>134</ele>
        <time>2019-10-26T09:59:17.000Z</time>
      </trkpt>
      <trkpt lat="47.86769" lon="3.75142">
        <ele>133</ele>
        <time>2019-10-26T09:59:18.000Z</time>
      </trkpt>
      <trkpt lat="47.86769" lon="3.75146">
        <ele>133</ele>
        <time>2019-10-26T09:59:19.000Z</time>
      </trkpt>
      <trkpt lat="47.86768" lon="3.7515">
        <ele>133</ele>
        <time>2019-10-26T09:59:20.000Z</time>
      </trkpt>
      <trkpt lat="47.86768" lon="3.75154">
        <ele>133</ele>
        <time>2019-10-26T09:59:21.000Z</time>
      </trkpt>
      <trkpt lat="47.86767" lon="3.75157">
        <ele>132</ele>
        <time>2019-10-26T09:59:22.000Z</time>
      </trkpt>
      <trkpt lat="47.86767" lon="3.75161">
        <ele>132</ele>
        <time>2019-10-26T09:59:23.000Z</time>
      </trkpt>
      <trkpt lat="47.86767" lon="3.75165">
        <ele>132</ele>
        <time>2019-10-26T09:59:24.000Z</time>
      </trkpt>
      <trkpt lat="47.86767" lon="3.75169">
        <ele>132</ele>
        <time>2019-10-26T09:59:25.000Z</time>
      </trkpt>
      <trkpt lat="47.86767" lon="3.75173">
        <ele>132</ele>
        <time>2019-10-26T09:59:26.000Z</time>
      </trkpt>
      <trkpt lat="47.86767" lon="3.75177">
        <ele>132</ele>
        <time>2019-10-26T09:59:27.000Z</time>
      </trkpt>
      <trkpt lat="47.86767" lon="3.75181">
        <ele>131</ele>
        <time>2019-10-26T09:59:28.000Z</time>
      </trkpt>
      <trkpt lat="47.86767" lon="3.75185">
        <ele>131</ele>
        <time>2019-10-26T09:59:29.000Z</time>
      </trkpt>
      <trkpt lat="47.86767" lon="3.75189">
        <ele>131</ele>
        <time>2019-10-26T09:59:30.000Z</time>
      </trkpt>
      <trkpt lat="47.86767" lon="3.75192">
        <ele>131</ele>
        <time>2019-10-26T09:59:31.000Z</time>
      </trkpt>
      <trkpt lat="47.86767" lon="3.75196">
        <ele>131</ele>
        <time>2019-10-26T09:59:32.000Z</time>
      </trkpt>
      <trkpt lat="47.86767" lon="3.752">
        <ele>131</ele>
        <time>2019-10-26T09:59:33.000Z</time>
      </trkpt>
      <trkpt lat="47.86767" lon="3.75204">
        <ele>131</ele>
        <time>2019-10-26T09:59:34.000Z</time>
      </trkpt>
      <trkpt lat="47.86767" lon="3.75208">
        <ele>131</ele>
        <time>2019-10-26T09:59:35.000Z</time>
      </trkpt>
      <trkpt lat="47.86767" lon="3.75212">
        <ele>131</ele>
        <time>2019-10-26T09:59:36.000Z</time>
      </trkpt>
      <trkpt lat="47.86767" lon="3.75216">
        <ele>130</ele>
        <time>2019-10-26T09:59:37.000Z</time>
      </trkpt>
      <trkpt lat="47.86767" lon="3.7522">
        <ele>130</ele>
        <time>2019-10-26T09:59:38.000Z</time>
      </trkpt>
      <trkpt lat="47.86767" lon="3.75224">
        <ele>130</ele>
        <time>2019-10-26T09:59:39.000Z</time>
      </trkpt>
      <trkpt lat="47.86767" lon="3.75228">
        <ele>130</ele>
        <time>2019-10-26T09:59:40.000Z</time>
      </trkpt>
      <trkpt lat="47.86767" lon="3.75231">
        <ele>130</ele>
        <time>2019-10-26T09:59:41.000Z</time>
      </trkpt>
      <trkpt lat="47.86767" lon="3.75235">
        <ele>130</ele>
        <time>2019-10-26T09:59:42.000Z</time>
      </trkpt>
      <trkpt lat="47.86767" lon="3.75238">
        <ele>130</ele>
        <time>2019-10-26T09:59:43.000Z</time>
      </trkpt>
      <trkpt lat="47.86767" lon="3.75242">
        <ele>130</ele>
        <time>2019-10-26T09:59:44.000Z</time>
      </trkpt>
      <trkpt lat="47.86767" lon="3.75246">
        <ele>130</ele>
        <time>2019-10-26T09:59:45.000Z</time>
      </trkpt>
      <trkpt lat="47.86767" lon="3.75249">
        <ele>130</ele>
        <time>2019-10-26T09:59:46.000Z</time>
      </trkpt>
      <trkpt lat="47.86767" lon="3.75253">
        <ele>129</ele>
        <time>2019-10-26T09:59:47.000Z</time>
      </trkpt>
      <trkpt lat="47.86767" lon="3.75257">
        <ele>129</ele>
        <time>2019-10-26T09:59:48.000Z</time>
      </trkpt>
      <trkpt lat="47.86767" lon="3.7526">
        <ele>129</ele>
        <time>2019-10-26T09:59:49.000Z</time>
      </trkpt>
      <trkpt lat="47.86767" lon="3.75264">
        <ele>129</ele>
        <time>2019-10-26T09:59:50.000Z</time>
      </trkpt>
      <trkpt lat="47.86767" lon="3.75268">
        <ele>129</ele>
        <time>2019-10-26T09:59:51.000Z</time>
      </trkpt>
      <trkpt lat="47.86767" lon="3.75272">
        <ele>129</ele>
        <time>2019-10-26T09:59:52.000Z</time>
      </trkpt>
      <trkpt lat="47.86767" lon="3.75276">
        <ele>128</ele>
        <time>2019-10-26T09:59:53.000Z</time>
      </trkpt>
      <trkpt lat="47.86767" lon="3.75281">
        <ele>128</ele>
        <time>2019-10-26T09:59:54.000Z</time>
      </trkpt>
      <trkpt lat="47.86767" lon="3.75285">
        <ele>128</ele>
        <time>2019-10-26T09:59:55.000Z</time>
      </trkpt>
      <trkpt lat="47.86766" lon="3.75289">
        <ele>128</ele>
        <time>2019-10-26T09:59:56.000Z</time>
      </trkpt>
      <trkpt lat="47.86766" lon="3.75294">
        <ele>128</ele>
        <time>2019-10-26T09:59:57.000Z</time>
      </trkpt>
      <trkpt lat="47.86766" lon="3.75298">
        <ele>128</ele>
        <time>2019-10-26T09:59:58.000Z</time>
      </trkpt>
      <trkpt lat="47.86765" lon="3.75303">
        <ele>127</ele>
        <time>2019-10-26T09:59:59.000Z</time>
      </trkpt>
      <trkpt lat="47.86765" lon="3.75307">
        <ele>127</ele>
        <time>2019-10-26T10:00:00.000Z</time>
      </trkpt>
      <trkpt lat="47.86764" lon="3.75311">
        <ele>127</ele>
        <time>2019-10-26T10:00:01.000Z</time>
      </trkpt>
      <trkpt lat="47.86764" lon="3.75315">
        <ele>127</ele>
        <time>2019-10-26T10:00:02.000Z</time>
      </trkpt>
      <trkpt lat="47.86764" lon="3.75319">
        <ele>126</ele>
        <time>2019-10-26T10:00:03.000Z</time>
      </trkpt>
      <trkpt lat="47.86763" lon="3.75323">
        <ele>126</ele>
        <time>2019-10-26T10:00:04.000Z</time>
      </trkpt>
      <trkpt lat="47.86763" lon="3.75327">
        <ele>126</ele>
        <time>2019-10-26T10:00:05.000Z</time>
      </trkpt>
      <trkpt lat="47.86763" lon="3.75331">
        <ele>126</ele>
        <time>2019-10-26T10:00:06.000Z</time>
      </trkpt>
      <trkpt lat="47.86762" lon="3.75335">
        <ele>126</ele>
        <time>2019-10-26T10:00:07.000Z</time>
      </trkpt>
      <trkpt lat="47.86762" lon="3.75339">
        <ele>125</ele>
        <time>2019-10-26T10:00:08.000Z</time>
      </trkpt>
      <trkpt lat="47.86762" lon="3.75343">
        <ele>125</ele>
        <time>2019-10-26T10:00:09.000Z</time>
      </trkpt>
      <trkpt lat="47.86762" lon="3.75347">
        <ele>125</ele>
        <time>2019-10-26T10:00:10.000Z</time>
      </trkpt>
      <trkpt lat="47.86762" lon="3.75351">
        <ele>125</ele>
        <time>2019-10-26T10:00:11.000Z</time>
      </trkpt>
      <trkpt lat="47.86762" lon="3.75355">
        <ele>125</ele>
        <time>2019-10-26T10:00:12.000Z</time>
      </trkpt>
      <trkpt lat="47.86762" lon="3.7536">
        <ele>125</ele>
        <time>2019-10-26T10:00:13.000Z</time>
      </trkpt>
      <trkpt lat="47.86762" lon="3.75364">
        <ele>125</ele>
        <time>2019-10-26T10:00:14.000Z</time>
      </trkpt>
      <trkpt lat="47.86762" lon="3.75368">
        <ele>125</ele>
        <time>2019-10-26T10:00:15.000Z</time>
      </trkpt>
      <trkpt lat="47.86762" lon="3.75372">
        <ele>125</ele>
        <time>2019-10-26T10:00:16.000Z</time>
      </trkpt>
      <trkpt lat="47.86762" lon="3.75376">
        <ele>125</ele>
        <time>2019-10-26T10:00:17.000Z</time>
      </trkpt>
      <trkpt lat="47.86762" lon="3.75381">
        <ele>125</ele>
        <time>2019-10-26T10:00:18.000Z</time>
      </trkpt>
      <trkpt lat="47.86762" lon="3.75385">
        <ele>125</ele>
        <time>2019-10-26T10:00:19.000Z</time>
      </trkpt>
      <trkpt lat="47.86762" lon="3.75389">
        <ele>125</ele>
        <time>2019-10-26T10:00:20.000Z</time>
      </trkpt>
      <trkpt lat="47.86762" lon="3.75393">
        <ele>125</ele>
        <time>2019-10-26T10:00:21.000Z</time>
      </trkpt>
      <trkpt lat="47.86761" lon="3.75397">
        <ele>125</ele>
        <time>2019-10-26T10:00:22.000Z</time>
      </trkpt>
      <trkpt lat="47.8676" lon="3.75401">
        <ele>124</ele>
        <time>2019-10-26T10:00:23.000Z</time>
      </trkpt>
      <trkpt lat="47.8676" lon="3.75405">
        <ele>124</ele>
        <time>2019-10-26T10:00:24.000Z</time>
      </trkpt>
      <trkpt lat="47.86759" lon="3.75409">
        <ele>124</ele>
        <time>2019-10-26T10:00:25.000Z</time>
      </trkpt>
      <trkpt lat="47.86759" lon="3.75413">
        <ele>124</ele>
        <time>2019-10-26T10:00:26.000Z</time>
      </trkpt>
      <trkpt lat="47.86758" lon="3.75417">
        <ele>124</ele>
        <time>2019-10-26T10:00:27.000Z</time>
      </trkpt>
      <trkpt lat="47.86758" lon="3.7542">
        <ele>124</ele>
        <time>2019-10-26T10:00:28.000Z</time>
      </trkpt>
      <trkpt lat="47.86758" lon="3.75424">
        <ele>124</ele>
        <time>2019-10-26T10:00:29.000Z</time>
      </trkpt>
      <trkpt lat="47.86757" lon="3.75428">
        <ele>124</ele>
        <time>2019-10-26T10:00:30.000Z</time>
      </trkpt>
      <trkpt lat="47.86757" lon="3.75432">
        <ele>123</ele>
        <time>2019-10-26T10:00:31.000Z</time>
      </trkpt>
      <trkpt lat="47.86757" lon="3.75436">
        <ele>123</ele>
        <time>2019-10-26T10:00:32.000Z</time>
      </trkpt>
      <trkpt lat="47.86756" lon="3.7544">
        <ele>123</ele>
        <time>2019-10-26T10:00:33.000Z</time>
      </trkpt>
      <trkpt lat="47.86756" lon="3.75444">
        <ele>123</ele>
        <time>2019-10-26T10:00:34.000Z</time>
      </trkpt>
      <trkpt lat="47.86756" lon="3.75447">
        <ele>123</ele>
        <time>2019-10-26T10:00:35.000Z</time>
      </trkpt>
      <trkpt lat="47.86756" lon="3.75447">
        <ele>123</ele>
        <time>2019-10-26T10:00:36.000Z</time>
      </trkpt>
      <trkpt lat="47.86756" lon="3.75455">
        <ele>123</ele>
        <time>2019-10-26T10:00:37.000Z</time>
      </trkpt>
      <trkpt lat="47.86756" lon="3.75459">
        <ele>123</ele>
        <time>2019-10-26T10:00:38.000Z</time>
      </trkpt>
      <trkpt lat="47.86756" lon="3.75463">
        <ele>123</ele>
        <time>2019-10-26T10:00:39.000Z</time>
      </trkpt>
      <trkpt lat="47.86756" lon="3.75467">
        <ele>123</ele>
        <time>2019-10-26T10:00:40.000Z</time>
      </trkpt>
      <trkpt lat="47.86756" lon="3.75471">
        <ele>123</ele>
        <time>2019-10-26T10:00:41.000Z</time>
      </trkpt>
      <trkpt lat="47.86756" lon="3.75475">
        <ele>123</ele>
        <time>2019-10-26T10:00:42.000Z</time>
      </trkpt>
      <trkpt lat="47.86755" lon="3.75479">
        <ele>123</ele>
        <time>2019-10-26T10:00:43.000Z</time>
      </trkpt>
      <trkpt lat="47.86755" lon="3.75483">
        <ele>123</ele>
        <time>2019-10-26T10:00:44.000Z</time>
      </trkpt>
      <trkpt lat="47.86755" lon="3.75487">
        <ele>123</ele>
        <time>2019-10-26T10:00:45.000Z</time>
      </trkpt>
      <trkpt lat="47.86754" lon="3.75491">
        <ele>123</ele>
        <time>2019-10-26T10:00:46.000Z</time>
      </trkpt>
      <trkpt lat="47.86754" lon="3.75495">
        <ele>123</ele>
        <time>2019-10-26T10:00:47.000Z</time>
      </trkpt>
      <trkpt lat="47.86754" lon="3.75499">
        <ele>123</ele>
        <time>2019-10-26T10:00:48.000Z</time>
      </trkpt>
      <trkpt lat="47.86753" lon="3.75503">
        <ele>123</ele>
        <time>2019-10-26T10:00:49.000Z</time>
      </trkpt>
      <trkpt lat="47.86753" lon="3.75507">
        <ele>123</ele>
        <time>2019-10-26T10:00:50.000Z</time>
      </trkpt>
      <trkpt lat="47.86753" lon="3.75511">
        <ele>123</ele>
        <time>2019-10-26T10:00:51.000Z</time>
      </trkpt>
      <trkpt lat="47.86753" lon="3.75515">
        <ele>123</ele>
        <time>2019-10-26T10:00:52.000Z</time>
      </trkpt>
      <trkpt lat="47.86752" lon="3.75519">
        <ele>123</ele>
        <time>2019-10-26T10:00:53.000Z</time>
      </trkpt>
      <trkpt lat="47.86752" lon="3.75523">
        <ele>123</ele>
        <time>2019-10-26T10:00:54.000Z</time>
      </trkpt>
      <trkpt lat="47.86752" lon="3.75527">
        <ele>123</ele>
        <time>2019-10-26T10:00:55.000Z</time>
      </trkpt>
      <trkpt lat="47.86752" lon="3.7553">
        <ele>123</ele>
        <time>2019-10-26T10:00:56.000Z</time>
      </trkpt>
      <trkpt lat="47.86752" lon="3.75534">
        <ele>123</ele>
        <time>2019-10-26T10:00:57.000Z</time>
      </trkpt>
      <trkpt lat="47.86752" lon="3.75537">
        <ele>123</ele>
        <time>2019-10-26T10:00:58.000Z</time>
      </trkpt>
      <trkpt lat="47.86752" lon="3.75541">
        <ele>123</ele>
        <time>2019-10-26T10:00:59.000Z</time>
      </trkpt>
      <trkpt lat="47.86752" lon="3.75541">
        <ele>123</ele>
        <time>2019-10-26T10:01:00.000Z</time>
      </trkpt>
      <trkpt lat="47.86752" lon="3.75549">
        <ele>123</ele>
        <time>2019-10-26T10:01:01.000Z</time>
      </trkpt>
      <trkpt lat="47.86752" lon="3.75553">
        <ele>122</ele>
        <time>2019-10-26T10:01:02.000Z</time>
      </trkpt>
      <trkpt lat="47.86752" lon="3.75556">
        <ele>122</ele>
        <time>2019-10-26T10:01:03.000Z</time>
      </trkpt>
      <trkpt lat="47.86752" lon="3.7556">
        <ele>122</ele>
        <time>2019-10-26T10:01:04.000Z</time>
      </trkpt>
      <trkpt lat="47.86752" lon="3.75564">
        <ele>122</ele>
        <time>2019-10-26T10:01:05.000Z</time>
      </trkpt>
      <trkpt lat="47.86752" lon="3.75564">
        <ele>122</ele>
        <time>2019-10-26T10:01:06.000Z</time>
      </trkpt>
      <trkpt lat="47.86751" lon="3.75572">
        <ele>122</ele>
        <time>2019-10-26T10:01:07.000Z</time>
      </trkpt>
      <trkpt lat="47.86751" lon="3.75576">
        <ele>122</ele>
        <time>2019-10-26T10:01:08.000Z</time>
      </trkpt>
      <trkpt lat="47.86751" lon="3.7558">
        <ele>122</ele>
        <time>2019-10-26T10:01:09.000Z</time>
      </trkpt>
      <trkpt lat="47.86751" lon="3.75584">
        <ele>122</ele>
        <time>2019-10-26T10:01:10.000Z</time>
      </trkpt>
      <trkpt lat="47.86751" lon="3.75588">
        <ele>122</ele>
        <time>2019-10-26T10:01:11.000Z</time>
      </trkpt>
      <trkpt lat="47.86751" lon="3.75591">
        <ele>122</ele>
        <time>2019-10-26T10:01:12.000Z</time>
      </trkpt>
      <trkpt lat="47.86751" lon="3.75595">
        <ele>122</ele>
        <time>2019-10-26T10:01:13.000Z</time>
      </trkpt>
      <trkpt lat="47.8675" lon="3.75599">
        <ele>122</ele>
        <time>2019-10-26T10:01:14.000Z</time>
      </trkpt>
      <trkpt lat="47.8675" lon="3.75603">
        <ele>122</ele>
        <time>2019-10-26T10:01:15.000Z</time>
      </trkpt>
      <trkpt lat="47.8675" lon="3.75607">
        <ele>122</ele>
        <time>2019-10-26T10:01:16.000Z</time>
      </trkpt>
      <trkpt lat="47.8675" lon="3.75611">
        <ele>122</ele>
        <time>2019-10-26T10:01:17.000Z</time>
      </trkpt>
      <trkpt lat="47.86749" lon="3.75615">
        <ele>122</ele>
        <time>2019-10-26T10:01:18.000Z</time>
      </trkpt>
      <trkpt lat="47.86749" lon="3.75619">
        <ele>122</ele>
        <time>2019-10-26T10:01:19.000Z</time>
      </trkpt>
      <trkpt lat="47.86749" lon="3.75623">
        <ele>122</ele>
        <time>2019-10-26T10:01:20.000Z</time>
      </trkpt>
      <trkpt lat="47.86749" lon="3.75627">
        <ele>122</ele>
        <time>2019-10-26T10:01:21.000Z</time>
      </trkpt>
      <trkpt lat="47.86749" lon="3.75631">
        <ele>122</ele>
        <time>2019-10-26T10:01:22.000Z</time>
      </trkpt>
      <trkpt lat="47.86749" lon="3.75635">
        <ele>122</ele>
        <time>2019-10-26T10:01:23.000Z</time>
      </trkpt>
      <trkpt lat="47.86749" lon="3.75639">
        <ele>122</ele>
        <time>2019-10-26T10:01:24.000Z</time>
      </trkpt>
      <trkpt lat="47.86749" lon="3.75643">
        <ele>122</ele>
        <time>2019-10-26T10:01:25.000Z</time>
      </trkpt>
      <trkpt lat="47.86748" lon="3.75647">
        <ele>122</ele>
        <time>2019-10-26T10:01:26.000Z</time>
      </trkpt>
      <trkpt lat="47.86748" lon="3.75651">
        <ele>122</ele>
        <time>2019-10-26T10:01:27.000Z</time>
      </trkpt>
      <trkpt lat="47.86748" lon="3.75655">
        <ele>122</ele>
        <time>2019-10-26T10:01:28.000Z</time>
      </trkpt>
      <trkpt lat="47.86748" lon="3.75659">
        <ele>122</ele>
        <time>2019-10-26T10:01:29.000Z</time>
      </trkpt>
      <trkpt lat="47.86748" lon="3.75659">
        <ele>122</ele>
        <time>2019-10-26T10:01:30.000Z</time>
      </trkpt>
      <trkpt lat="47.86748" lon="3.75667">
        <ele>122</ele>
        <time>2019-10-26T10:01:31.000Z</time>
      </trkpt>
      <trkpt lat="47.86748" lon="3.7567">
        <ele>122</ele>
        <time>2019-10-26T10:01:32.000Z</time>
      </trkpt>
      <trkpt lat="47.86748" lon="3.75674">
        <ele>122</ele>
        <time>2019-10-26T10:01:33.000Z</time>
      </trkpt>
      <trkpt lat="47.86747" lon="3.75678">
        <ele>122</ele>
        <time>2019-10-26T10:01:34.000Z</time>
      </trkpt>
      <trkpt lat="47.86747" lon="3.75682">
        <ele>122</ele>
        <time>2019-10-26T10:01:35.000Z</time>
      </trkpt>
      <trkpt lat="47.86747" lon="3.75682">
        <ele>122</ele>
        <time>2019-10-26T10:01:36.000Z</time>
      </trkpt>
      <trkpt lat="47.86747" lon="3.7569">
        <ele>122</ele>
        <time>2019-10-26T10:01:37.000Z</time>
      </trkpt>
      <trkpt lat="47.86747" lon="3.75694">
        <ele>122</ele>
        <time>2019-10-26T10:01:38.000Z</time>
      </trkpt>
      <trkpt lat="47.86746" lon="3.75698">
        <ele>122</ele>
        <time>2019-10-26T10:01:39.000Z</time>
      </trkpt>
      <trkpt lat="47.86746" lon="3.75701">
        <ele>122</ele>
        <time>2019-10-26T10:01:40.000Z</time>
      </trkpt>
      <trkpt lat="47.86746" lon="3.75705">
        <ele>122</ele>
        <time>2019-10-26T10:01:41.000Z</time>
      </trkpt>
      <trkpt lat="47.86746" lon="3.75709">
        <ele>122</ele>
        <time>2019-10-26T10:01:42.000Z</time>
      </trkpt>
      <trkpt lat="47.86746" lon="3.75713">
        <ele>122</ele>
        <time>2019-10-26T10:01:43.000Z</time>
      </trkpt>
      <trkpt lat="47.86746" lon="3.75717">
        <ele>122</ele>
        <time>2019-10-26T10:01:44.000Z</time>
      </trkpt>
      <trkpt lat="47.86745" lon="3.7572">
        <ele>122</ele>
        <time>2019-10-26T10:01:45.000Z</time>
      </trkpt>
      <trkpt lat="47.86745" lon="3.75724">
        <ele>122</ele>
        <time>2019-10-26T10:01:46.000Z</time>
      </trkpt>
      <trkpt lat="47.86745" lon="3.75727">
        <ele>122</ele>
        <time>2019-10-26T10:01:47.000Z</time>
      </trkpt>
      <trkpt lat="47.86745" lon="3.75731">
        <ele>122</ele>
        <time>2019-10-26T10:01:48.000Z</time>
      </trkpt>
      <trkpt lat="47.86745" lon="3.75735">
        <ele>122</ele>
        <time>2019-10-26T10:01:49.000Z</time>
      </trkpt>
      <trkpt lat="47.86745" lon="3.75739">
        <ele>123</ele>
        <time>2019-10-26T10:01:50.000Z</time>
      </trkpt>
      <trkpt lat="47.86745" lon="3.75742">
        <ele>123</ele>
        <time>2019-10-26T10:01:51.000Z</time>
      </trkpt>
      <trkpt lat="47.86745" lon="3.75746">
        <ele>123</ele>
        <time>2019-10-26T10:01:52.000Z</time>
      </trkpt>
      <trkpt lat="47.86745" lon="3.75749">
        <ele>123</ele>
        <time>2019-10-26T10:01:53.000Z</time>
      </trkpt>
      <trkpt lat="47.86744" lon="3.75753">
        <ele>123</ele>
        <time>2019-10-26T10:01:54.000Z</time>
      </trkpt>
      <trkpt lat="47.86744" lon="3.75756">
        <ele>123</ele>
        <time>2019-10-26T10:01:55.000Z</time>
      </trkpt>
      <trkpt lat="47.86744" lon="3.7576">
        <ele>123</ele>
        <time>2019-10-26T10:01:56.000Z</time>
      </trkpt>
      <trkpt lat="47.86744" lon="3.75764">
        <ele>123</ele>
        <time>2019-10-26T10:01:57.000Z</time>
      </trkpt>
      <trkpt lat="47.86744" lon="3.75767">
        <ele>123</ele>
        <time>2019-10-26T10:01:58.000Z</time>
      </trkpt>
      <trkpt lat="47.86744" lon="3.7577">
        <ele>123</ele>
        <time>2019-10-26T10:01:59.000Z</time>
      </trkpt>
      <trkpt lat="47.86743" lon="3.75774">
        <ele>123</ele>
        <time>2019-10-26T10:02:00.000Z</time>
      </trkpt>
      <trkpt lat="47.86743" lon="3.75777">
        <ele>123</ele>
        <time>2019-10-26T10:02:01.000Z</time>
      </trkpt>
      <trkpt lat="47.86743" lon="3.75781">
        <ele>123</ele>
        <time>2019-10-26T10:02:02.000Z</time>
      </trkpt>
      <trkpt lat="47.86743" lon="3.75784">
        <ele>123</ele>
        <time>2019-10-26T10:02:03.000Z</time>
      </trkpt>
      <trkpt lat="47.86743" lon="3.75788">
        <ele>123</ele>
        <time>2019-10-26T10:02:04.000Z</time>
      </trkpt>
      <trkpt lat="47.86743" lon="3.75791">
        <ele>123</ele>
        <time>2019-10-26T10:02:05.000Z</time>
      </trkpt>
      <trkpt lat="47.86743" lon="3.75791">
        <ele>123</ele>
        <time>2019-10-26T10:02:06.000Z</time>
      </trkpt>
      <trkpt lat="47.86742" lon="3.75798">
        <ele>124</ele>
        <time>2019-10-26T10:02:07.000Z</time>
      </trkpt>
      <trkpt lat="47.86742" lon="3.75801">
        <ele>124</ele>
        <time>2019-10-26T10:02:08.000Z</time>
      </trkpt>
      <trkpt lat="47.86742" lon="3.75805">
        <ele>124</ele>
        <time>2019-10-26T10:02:09.000Z</time>
      </trkpt>
      <trkpt lat="47.86741" lon="3.75808">
        <ele>124</ele>
        <time>2019-10-26T10:02:10.000Z</time>
      </trkpt>
      <trkpt lat="47.86741" lon="3.75811">
        <ele>124</ele>
        <time>2019-10-26T10:02:11.000Z</time>
      </trkpt>
      <trkpt lat="47.86741" lon="3.75815">
        <ele>124</ele>
        <time>2019-10-26T10:02:12.000Z</time>
      </trkpt>
      <trkpt lat="47.86741" lon="3.75818">
        <ele>124</ele>
        <time>2019-10-26T10:02:13.000Z</time>
      </trkpt>
      <trkpt lat="47.8674" lon="3.75821">
        <ele>124</ele>
        <time>2019-10-26T10:02:14.000Z</time>
      </trkpt>
      <trkpt lat="47.8674" lon="3.75824">
        <ele>124</ele>
        <time>2019-10-26T10:02:15.000Z</time>
      </trkpt>
      <trkpt lat="47.8674" lon="3.75827">
        <ele>124</ele>
        <time>2019-10-26T10:02:16.000Z</time>
      </trkpt>
      <trkpt lat="47.8674" lon="3.7583">
        <ele>124</ele>
        <time>2019-10-26T10:02:17.000Z</time>
      </trkpt>
      <trkpt lat="47.8674" lon="3.75834">
        <ele>124</ele>
        <time>2019-10-26T10:02:18.000Z</time>
      </trkpt>
      <trkpt lat="47.8674" lon="3.75837">
        <ele>124</ele>
        <time>2019-10-26T10:02:19.000Z</time>
      </trkpt>
      <trkpt lat="47.8674" lon="3.75841">
        <ele>125</ele>
        <time>2019-10-26T10:02:20.000Z</time>
      </trkpt>
      <trkpt lat="47.8674" lon="3.75844">
        <ele>125</ele>
        <time>2019-10-26T10:02:21.000Z</time>
      </trkpt>
      <trkpt lat="47.8674" lon="3.75847">
        <ele>125</ele>
        <time>2019-10-26T10:02:22.000Z</time>
      </trkpt>
      <trkpt lat="47.8674" lon="3.75851">
        <ele>125</ele>
        <time>2019-10-26T10:02:23.000Z</time>
      </trkpt>
      <trkpt lat="47.86739" lon="3.75854">
        <ele>125</ele>
        <time>2019-10-26T10:02:24.000Z</time>
      </trkpt>
      <trkpt lat="47.86739" lon="3.75858">
        <ele>125</ele>
        <time>2019-10-26T10:02:25.000Z</time>
      </trkpt>
      <trkpt lat="47.86739" lon="3.75861">
        <ele>125</ele>
        <time>2019-10-26T10:02:26.000Z</time>
      </trkpt>
      <trkpt lat="47.86739" lon="3.75865">
        <ele>125</ele>
        <time>2019-10-26T10:02:27.000Z</time>
      </trkpt>
      <trkpt lat="47.86739" lon="3.75869">
        <ele>125</ele>
        <time>2019-10-26T10:02:28.000Z</time>
      </trkpt>
      <trkpt lat="47.86739" lon="3.75872">
        <ele>125</ele>
        <time>2019-10-26T10:02:29.000Z</time>
      </trkpt>
      <trkpt lat="47.86739" lon="3.75876">
        <ele>125</ele>
        <time>2019-10-26T10:02:30.000Z</time>
      </trkpt>
      <trkpt lat="47.86739" lon="3.7588">
        <ele>124</ele>
        <time>2019-10-26T10:02:31.000Z</time>
      </trkpt>
      <trkpt lat="47.86739" lon="3.75884">
        <ele>124</ele>
        <time>2019-10-26T10:02:32.000Z</time>
      </trkpt>
      <trkpt lat="47.86739" lon="3.75888">
        <ele>124</ele>
        <time>2019-10-26T10:02:33.000Z</time>
      </trkpt>
      <trkpt lat="47.86739" lon="3.75891">
        <ele>124</ele>
        <time>2019-10-26T10:02:34.000Z</time>
      </trkpt>
      <trkpt lat="47.86739" lon="3.75895">
        <ele>124</ele>
        <time>2019-10-26T10:02:35.000Z</time>
      </trkpt>
      <trkpt lat="47.86739" lon="3.75899">
        <ele>124</ele>
        <time>2019-10-26T10:02:36.000Z</time>
      </trkpt>
      <trkpt lat="47.86739" lon="3.75903">
        <ele>124</ele>
        <time>2019-10-26T10:02:37.000Z</time>
      </trkpt>
      <trkpt lat="47.86739" lon="3.75906">
        <ele>124</ele>
        <time>2019-10-26T10:02:38.000Z</time>
      </trkpt>
      <trkpt lat="47.86739" lon="3.7591">
        <ele>124</ele>
        <time>2019-10-26T10:02:39.000Z</time>
      </trkpt>
      <trkpt lat="47.86739" lon="3.75914">
        <ele>124</ele>
        <time>2019-10-26T10:02:40.000Z</time>
      </trkpt>
      <trkpt lat="47.86739" lon="3.75917">
        <ele>124</ele>
        <time>2019-10-26T10:02:41.000Z</time>
      </trkpt>
      <trkpt lat="47.86739" lon="3.75921">
        <ele>124</ele>
        <time>2019-10-26T10:02:42.000Z</time>
      </trkpt>
      <trkpt lat="47.86739" lon="3.75924">
        <ele>124</ele>
        <time>2019-10-26T10:02:43.000Z</time>
      </trkpt>
      <trkpt lat="47.86739" lon="3.75928">
        <ele>124</ele>
        <time>2019-10-26T10:02:44.000Z</time>
      </trkpt>
      <trkpt lat="47.86739" lon="3.75932">
        <ele>124</ele>
        <time>2019-10-26T10:02:45.000Z</time>
      </trkpt>
      <trkpt lat="47.86739" lon="3.75935">
        <ele>124</ele>
        <time>2019-10-26T10:02:46.000Z</time>
      </trkpt>
      <trkpt lat="47.86738" lon="3.75939">
        <ele>124</ele>
        <time>2019-10-26T10:02:47.000Z</time>
      </trkpt>
      <trkpt lat="47.86738" lon="3.75942">
        <ele>124</ele>
        <time>2019-10-26T10:02:48.000Z</time>
      </trkpt>
      <trkpt lat="47.86738" lon="3.75946">
        <ele>124</ele>
        <time>2019-10-26T10:02:49.000Z</time>
      </trkpt>
      <trkpt lat="47.86738" lon="3.75949">
        <ele>124</ele>
        <time>2019-10-26T10:02:50.000Z</time>
      </trkpt>
      <trkpt lat="47.86738" lon="3.75953">
        <ele>123</ele>
        <time>2019-10-26T10:02:51.000Z</time>
      </trkpt>
      <trkpt lat="47.86738" lon="3.75953">
        <ele>123</ele>
        <time>2019-10-26T10:02:52.000Z</time>
      </trkpt>
      <trkpt lat="47.86738" lon="3.75961">
        <ele>123</ele>
        <time>2019-10-26T10:02:53.000Z</time>
      </trkpt>
      <trkpt lat="47.86738" lon="3.75965">
        <ele>123</ele>
        <time>2019-10-26T10:02:54.000Z</time>
      </trkpt>
      <trkpt lat="47.86738" lon="3.75968">
        <ele>123</ele>
        <time>2019-10-26T10:02:55.000Z</time>
      </trkpt>
      <trkpt lat="47.86737" lon="3.75972">
        <ele>123</ele>
        <time>2019-10-26T10:02:56.000Z</time>
      </trkpt>
      <trkpt lat="47.86737" lon="3.75976">
        <ele>123</ele>
        <time>2019-10-26T10:02:57.000Z</time>
      </trkpt>
      <trkpt lat="47.86737" lon="3.75979">
        <ele>123</ele>
        <time>2019-10-26T10:02:58.000Z</time>
      </trkpt>
      <trkpt lat="47.86737" lon="3.75983">
        <ele>123</ele>
        <time>2019-10-26T10:02:59.000Z</time>
      </trkpt>
      <trkpt lat="47.86737" lon="3.75983">
        <ele>123</ele>
        <time>2019-10-26T10:03:00.000Z</time>
      </trkpt>
      <trkpt lat="47.86736" lon="3.7599">
        <ele>123</ele>
        <time>2019-10-26T10:03:01.000Z</time>
      </trkpt>
      <trkpt lat="47.86736" lon="3.75993">
        <ele>123</ele>
        <time>2019-10-26T10:03:02.000Z</time>
      </trkpt>
      <trkpt lat="47.86736" lon="3.75997">
        <ele>123</ele>
        <time>2019-10-26T10:03:03.000Z</time>
      </trkpt>
      <trkpt lat="47.86735" lon="3.76001">
        <ele>123</ele>
        <time>2019-10-26T10:03:04.000Z</time>
      </trkpt>
      <trkpt lat="47.86735" lon="3.76004">
        <ele>123</ele>
        <time>2019-10-26T10:03:05.000Z</time>
      </trkpt>
      <trkpt lat="47.86735" lon="3.76004">
        <ele>123</ele>
        <time>2019-10-26T10:03:06.000Z</time>
      </trkpt>
      <trkpt lat="47.86735" lon="3.76012">
        <ele>123</ele>
        <time>2019-10-26T10:03:07.000Z</time>
      </trkpt>
      <trkpt lat="47.86735" lon="3.76015">
        <ele>123</ele>
        <time>2019-10-26T10:03:08.000Z</time>
      </trkpt>
      <trkpt lat="47.86734" lon="3.76019">
        <ele>123</ele>
        <time>2019-10-26T10:03:09.000Z</time>
      </trkpt>
      <trkpt lat="47.86734" lon="3.76022">
        <ele>123</ele>
        <time>2019-10-26T10:03:10.000Z</time>
      </trkpt>
      <trkpt lat="47.86734" lon="3.76022">
        <ele>123</ele>
        <time>2019-10-26T10:03:11.000Z</time>
      </trkpt>
      <trkpt lat="47.86734" lon="3.76026">
        <ele>123</ele>
        <time>2019-10-26T10:03:12.000Z</time>
      </trkpt>
      <trkpt lat="47.86734" lon="3.76033">
        <ele>123</ele>
        <time>2019-10-26T10:03:13.000Z</time>
      </trkpt>
      <trkpt lat="47.86734" lon="3.76037">
        <ele>123</ele>
        <time>2019-10-26T10:03:14.000Z</time>
      </trkpt>
      <trkpt lat="47.86734" lon="3.7604">
        <ele>123</ele>
        <time>2019-10-26T10:03:15.000Z</time>
      </trkpt>
      <trkpt lat="47.86734" lon="3.76044">
        <ele>123</ele>
        <time>2019-10-26T10:03:16.000Z</time>
      </trkpt>
      <trkpt lat="47.86734" lon="3.76047">
        <ele>123</ele>
        <time>2019-10-26T10:03:17.000Z</time>
      </trkpt>
      <trkpt lat="47.86734" lon="3.76047">
        <ele>123</ele>
        <time>2019-10-26T10:03:18.000Z</time>
      </trkpt>
      <trkpt lat="47.86734" lon="3.76055">
        <ele>123</ele>
        <time>2019-10-26T10:03:19.000Z</time>
      </trkpt>
      <trkpt lat="47.86734" lon="3.76059">
        <ele>123</ele>
        <time>2019-10-26T10:03:20.000Z</time>
      </trkpt>
      <trkpt lat="47.86734" lon="3.76062">
        <ele>123</ele>
        <time>2019-10-26T10:03:21.000Z</time>
      </trkpt>
      <trkpt lat="47.86734" lon="3.76062">
        <ele>123</ele>
        <time>2019-10-26T10:03:22.000Z</time>
      </trkpt>
      <trkpt lat="47.86733" lon="3.7607">
        <ele>123</ele>
        <time>2019-10-26T10:03:23.000Z</time>
      </trkpt>
      <trkpt lat="47.86733" lon="3.7607">
        <ele>123</ele>
        <time>2019-10-26T10:03:24.000Z</time>
      </trkpt>
      <trkpt lat="47.86733" lon="3.76077">
        <ele>124</ele>
        <time>2019-10-26T10:03:25.000Z</time>
      </trkpt>
      <trkpt lat="47.86733" lon="3.76077">
        <ele>124</ele>
        <time>2019-10-26T10:03:26.000Z</time>
      </trkpt>
      <trkpt lat="47.86733" lon="3.76084">
        <ele>124</ele>
        <time>2019-10-26T10:03:27.000Z</time>
      </trkpt>
      <trkpt lat="47.86733" lon="3.76088">
        <ele>124</ele>
        <time>2019-10-26T10:03:28.000Z</time>
      </trkpt>
      <trkpt lat="47.86733" lon="3.76088">
        <ele>124</ele>
        <time>2019-10-26T10:03:29.000Z</time>
      </trkpt>
      <trkpt lat="47.86733" lon="3.76092">
        <ele>124</ele>
        <time>2019-10-26T10:03:30.000Z</time>
      </trkpt>
      <trkpt lat="47.86733" lon="3.76098">
        <ele>125</ele>
        <time>2019-10-26T10:03:31.000Z</time>
      </trkpt>
      <trkpt lat="47.86733" lon="3.76101">
        <ele>125</ele>
        <time>2019-10-26T10:03:32.000Z</time>
      </trkpt>
      <trkpt lat="47.86733" lon="3.76105">
        <ele>125</ele>
        <time>2019-10-26T10:03:33.000Z</time>
      </trkpt>
      <trkpt lat="47.86733" lon="3.76108">
        <ele>125</ele>
        <time>2019-10-26T10:03:34.000Z</time>
      </trkpt>
      <trkpt lat="47.86733" lon="3.76112">
        <ele>125</ele>
        <time>2019-10-26T10:03:35.000Z</time>
      </trkpt>
      <trkpt lat="47.86733" lon="3.76112">
        <ele>125</ele>
        <time>2019-10-26T10:03:36.000Z</time>
      </trkpt>
      <trkpt lat="47.86733" lon="3.76115">
        <ele>126</ele>
        <time>2019-10-26T10:03:37.000Z</time>
      </trkpt>
      <trkpt lat="47.86733" lon="3.76119">
        <ele>126</ele>
        <time>2019-10-26T10:03:38.000Z</time>
      </trkpt>
      <trkpt lat="47.86733" lon="3.76122">
        <ele>126</ele>
        <time>2019-10-26T10:03:39.000Z</time>
      </trkpt>
      <trkpt lat="47.86733" lon="3.76126">
        <ele>126</ele>
        <time>2019-10-26T10:03:40.000Z</time>
      </trkpt>
      <trkpt lat="47.86732" lon="3.76129">
        <ele>126</ele>
        <time>2019-10-26T10:03:41.000Z</time>
      </trkpt>
      <trkpt lat="47.86732" lon="3.76133">
        <ele>126</ele>
        <time>2019-10-26T10:03:42.000Z</time>
      </trkpt>
      <trkpt lat="47.86732" lon="3.76136">
        <ele>126</ele>
        <time>2019-10-26T10:03:43.000Z</time>
      </trkpt>
      <trkpt lat="47.86732" lon="3.76143">
        <ele>127</ele>
        <time>2019-10-26T10:03:44.000Z</time>
      </trkpt>
      <trkpt lat="47.86732" lon="3.76143">
        <ele>127</ele>
        <time>2019-10-26T10:03:45.000Z</time>
      </trkpt>
      <trkpt lat="47.86732" lon="3.76147">
        <ele>127</ele>
        <time>2019-10-26T10:03:46.000Z</time>
      </trkpt>
      <trkpt lat="47.86732" lon="3.7615">
        <ele>127</ele>
        <time>2019-10-26T10:03:47.000Z</time>
      </trkpt>
      <trkpt lat="47.86732" lon="3.76154">
        <ele>127</ele>
        <time>2019-10-26T10:03:48.000Z</time>
      </trkpt>
      <trkpt lat="47.86731" lon="3.76158">
        <ele>127</ele>
        <time>2019-10-26T10:03:49.000Z</time>
      </trkpt>
      <trkpt lat="47.86731" lon="3.76165">
        <ele>127</ele>
        <time>2019-10-26T10:03:50.000Z</time>
      </trkpt>
      <trkpt lat="47.86731" lon="3.76169">
        <ele>127</ele>
        <time>2019-10-26T10:03:51.000Z</time>
      </trkpt>
      <trkpt lat="47.86731" lon="3.76172">
        <ele>127</ele>
        <time>2019-10-26T10:03:52.000Z</time>
      </trkpt>
      <trkpt lat="47.86731" lon="3.76176">
        <ele>127</ele>
        <time>2019-10-26T10:03:53.000Z</time>
      </trkpt>
      <trkpt lat="47.86731" lon="3.76176">
        <ele>127</ele>
        <time>2019-10-26T10:03:54.000Z</time>
      </trkpt>
      <trkpt lat="47.86731" lon="3.76179">
        <ele>127</ele>
        <time>2019-10-26T10:03:55.000Z</time>
      </trkpt>
      <trkpt lat="47.86731" lon="3.76183">
        <ele>127</ele>
        <time>2019-10-26T10:03:56.000Z</time>
      </trkpt>
      <trkpt lat="47.8673" lon="3.76191">
        <ele>126</ele>
        <time>2019-10-26T10:03:57.000Z</time>
      </trkpt>
      <trkpt lat="47.8673" lon="3.76191">
        <ele>126</ele>
        <time>2019-10-26T10:03:58.000Z</time>
      </trkpt>
      <trkpt lat="47.8673" lon="3.76198">
        <ele>126</ele>
        <time>2019-10-26T10:03:59.000Z</time>
      </trkpt>
      <trkpt lat="47.8673" lon="3.76198">
        <ele>126</ele>
        <time>2019-10-26T10:04:00.000Z</time>
      </trkpt>
      <trkpt lat="47.8673" lon="3.76205">
        <ele>125</ele>
        <time>2019-10-26T10:04:01.000Z</time>
      </trkpt>
      <trkpt lat="47.8673" lon="3.76205">
        <ele>125</ele>
        <time>2019-10-26T10:04:02.000Z</time>
      </trkpt>
      <trkpt lat="47.86729" lon="3.76213">
        <ele>125</ele>
        <time>2019-10-26T10:04:03.000Z</time>
      </trkpt>
      <trkpt lat="47.86729" lon="3.76213">
        <ele>125</ele>
        <time>2019-10-26T10:04:04.000Z</time>
      </trkpt>
      <trkpt lat="47.86729" lon="3.76217">
        <ele>125</ele>
        <time>2019-10-26T10:04:05.000Z</time>
      </trkpt>
      <trkpt lat="47.86729" lon="3.7622">
        <ele>125</ele>
        <time>2019-10-26T10:04:06.000Z</time>
      </trkpt>
      <trkpt lat="47.86729" lon="3.76223">
        <ele>125</ele>
        <time>2019-10-26T10:04:07.000Z</time>
      </trkpt>
      <trkpt lat="47.86729" lon="3.76227">
        <ele>125</ele>
        <time>2019-10-26T10:04:08.000Z</time>
      </trkpt>
      <trkpt lat="47.86729" lon="3.7623">
        <ele>125</ele>
        <time>2019-10-26T10:04:09.000Z</time>
      </trkpt>
      <trkpt lat="47.86729" lon="3.76238">
        <ele>125</ele>
        <time>2019-10-26T10:04:10.000Z</time>
      </trkpt>
      <trkpt lat="47.86729" lon="3.76241">
        <ele>124</ele>
        <time>2019-10-26T10:04:11.000Z</time>
      </trkpt>
      <trkpt lat="47.86729" lon="3.76241">
        <ele>124</ele>
        <time>2019-10-26T10:04:12.000Z</time>
      </trkpt>
      <trkpt lat="47.86728" lon="3.76245">
        <ele>124</ele>
        <time>2019-10-26T10:04:13.000Z</time>
      </trkpt>
      <trkpt lat="47.86728" lon="3.76252">
        <ele>124</ele>
        <time>2019-10-26T10:04:14.000Z</time>
      </trkpt>
      <trkpt lat="47.86728" lon="3.76252">
        <ele>124</ele>
        <time>2019-10-26T10:04:15.000Z</time>
      </trkpt>
      <trkpt lat="47.86727" lon="3.76259">
        <ele>124</ele>
        <time>2019-10-26T10:04:16.000Z</time>
      </trkpt>
      <trkpt lat="47.86727" lon="3.76259">
        <ele>124</ele>
        <time>2019-10-26T10:04:17.000Z</time>
      </trkpt>
      <trkpt lat="47.86727" lon="3.76263">
        <ele>124</ele>
        <time>2019-10-26T10:04:18.000Z</time>
      </trkpt>
      <trkpt lat="47.86727" lon="3.7627">
        <ele>124</ele>
        <time>2019-10-26T10:04:19.000Z</time>
      </trkpt>
      <trkpt lat="47.86726" lon="3.76273">
        <ele>124</ele>
        <time>2019-10-26T10:04:20.000Z</time>
      </trkpt>
      <trkpt lat="47.86726" lon="3.76277">
        <ele>124</ele>
        <time>2019-10-26T10:04:21.000Z</time>
      </trkpt>
      <trkpt lat="47.86726" lon="3.76281">
        <ele>123</ele>
        <time>2019-10-26T10:04:22.000Z</time>
      </trkpt>
      <trkpt lat="47.86726" lon="3.76284">
        <ele>123</ele>
        <time>2019-10-26T10:04:23.000Z</time>
      </trkpt>
      <trkpt lat="47.86726" lon="3.76284">
        <ele>123</ele>
        <time>2019-10-26T10:04:24.000Z</time>
      </trkpt>
      <trkpt lat="47.86726" lon="3.76291">
        <ele>123</ele>
        <time>2019-10-26T10:04:25.000Z</time>
      </trkpt>
      <trkpt lat="47.86726" lon="3.76294">
        <ele>123</ele>
        <time>2019-10-26T10:04:26.000Z</time>
      </trkpt>
      <trkpt lat="47.86727" lon="3.76297">
        <ele>123</ele>
        <time>2019-10-26T10:04:27.000Z</time>
      </trkpt>
      <trkpt lat="47.86728" lon="3.76299">
        <ele>123</ele>
        <time>2019-10-26T10:04:28.000Z</time>
      </trkpt>
      <trkpt lat="47.86729" lon="3.76301">
        <ele>123</ele>
        <time>2019-10-26T10:04:29.000Z</time>
      </trkpt>
      <trkpt lat="47.86729" lon="3.76301">
        <ele>123</ele>
        <time>2019-10-26T10:04:30.000Z</time>
      </trkpt>
      <trkpt lat="47.86732" lon="3.76302">
        <ele>123</ele>
        <time>2019-10-26T10:04:31.000Z</time>
      </trkpt>
      <trkpt lat="47.86734" lon="3.76303">
        <ele>123</ele>
        <time>2019-10-26T10:04:32.000Z</time>
      </trkpt>
      <trkpt lat="47.86736" lon="3.76303">
        <ele>123</ele>
        <time>2019-10-26T10:04:33.000Z</time>
      </trkpt>
      <trkpt lat="47.86739" lon="3.76302">
        <ele>123</ele>
        <time>2019-10-26T10:04:34.000Z</time>
      </trkpt>
      <trkpt lat="47.86742" lon="3.76301">
        <ele>122</ele>
        <time>2019-10-26T10:04:35.000Z</time>
      </trkpt>
      <trkpt lat="47.86744" lon="3.763">
        <ele>122</ele>
        <time>2019-10-26T10:04:36.000Z</time>
      </trkpt>
      <trkpt lat="47.86747" lon="3.763">
        <ele>122</ele>
        <time>2019-10-26T10:04:37.000Z</time>
      </trkpt>
      <trkpt lat="47.8675" lon="3.76299">
        <ele>122</ele>
        <time>2019-10-26T10:04:38.000Z</time>
      </trkpt>
      <trkpt lat="47.86752" lon="3.76298">
        <ele>122</ele>
        <time>2019-10-26T10:04:39.000Z</time>
      </trkpt>
      <trkpt lat="47.86754" lon="3.76296">
        <ele>122</ele>
        <time>2019-10-26T10:04:40.000Z</time>
      </trkpt>
      <trkpt lat="47.86759" lon="3.76294">
        <ele>122</ele>
        <time>2019-10-26T10:04:41.000Z</time>
      </trkpt>
      <trkpt lat="47.86759" lon="3.76294">
        <ele>122</ele>
        <time>2019-10-26T10:04:42.000Z</time>
      </trkpt>
      <trkpt lat="47.86764" lon="3.7629">
        <ele>122</ele>
        <time>2019-10-26T10:04:43.000Z</time>
      </trkpt>
      <trkpt lat="47.86766" lon="3.76289">
        <ele>123</ele>
        <time>2019-10-26T10:04:44.000Z</time>
      </trkpt>
      <trkpt lat="47.86768" lon="3.76287">
        <ele>123</ele>
        <time>2019-10-26T10:04:45.000Z</time>
      </trkpt>
      <trkpt lat="47.86768" lon="3.76287">
        <ele>123</ele>
        <time>2019-10-26T10:04:46.000Z</time>
      </trkpt>
      <trkpt lat="47.86773" lon="3.76284">
        <ele>123</ele>
        <time>2019-10-26T10:04:47.000Z</time>
      </trkpt>
      <trkpt lat="47.86773" lon="3.76284">
        <ele>123</ele>
        <time>2019-10-26T10:04:48.000Z</time>
      </trkpt>
      <trkpt lat="47.86777" lon="3.76283">
        <ele>123</ele>
        <time>2019-10-26T10:04:49.000Z</time>
      </trkpt>
      <trkpt lat="47.8678" lon="3.76283">
        <ele>123</ele>
        <time>2019-10-26T10:04:50.000Z</time>
      </trkpt>
      <trkpt lat="47.86782" lon="3.76284">
        <ele>123</ele>
        <time>2019-10-26T10:04:51.000Z</time>
      </trkpt>
      <trkpt lat="47.86782" lon="3.76284">
        <ele>123</ele>
        <time>2019-10-26T10:04:52.000Z</time>
      </trkpt>
      <trkpt lat="47.86784" lon="3.76285">
        <ele>123</ele>
        <time>2019-10-26T10:04:53.000Z</time>
      </trkpt>
      <trkpt lat="47.86786" lon="3.76286">
        <ele>123</ele>
        <time>2019-10-26T10:04:54.000Z</time>
      </trkpt>
      <trkpt lat="47.86788" lon="3.76287">
        <ele>124</ele>
        <time>2019-10-26T10:04:55.000Z</time>
      </trkpt>
      <trkpt lat="47.8679" lon="3.76289">
        <ele>124</ele>
        <time>2019-10-26T10:04:56.000Z</time>
      </trkpt>
      <trkpt lat="47.86792" lon="3.76291">
        <ele>124</ele>
        <time>2019-10-26T10:04:57.000Z</time>
      </trkpt>
      <trkpt lat="47.86795" lon="3.76293">
        <ele>124</ele>
        <time>2019-10-26T10:04:58.000Z</time>
      </trkpt>
      <trkpt lat="47.86797" lon="3.76295">
        <ele>124</ele>
        <time>2019-10-26T10:04:59.000Z</time>
      </trkpt>
      <trkpt lat="47.86799" lon="3.76298">
        <ele>124</ele>
        <time>2019-10-26T10:05:00.000Z</time>
      </trkpt>
      <trkpt lat="47.86801" lon="3.763">
        <ele>124</ele>
        <time>2019-10-26T10:05:01.000Z</time>
      </trkpt>
      <trkpt lat="47.86803" lon="3.76302">
        <ele>124</ele>
        <time>2019-10-26T10:05:02.000Z</time>
      </trkpt>
      <trkpt lat="47.86808" lon="3.76304">
        <ele>124</ele>
        <time>2019-10-26T10:05:03.000Z</time>
      </trkpt>
      <trkpt lat="47.86808" lon="3.76304">
        <ele>124</ele>
        <time>2019-10-26T10:05:04.000Z</time>
      </trkpt>
      <trkpt lat="47.86811" lon="3.76304">
        <ele>124</ele>
        <time>2019-10-26T10:05:05.000Z</time>
      </trkpt>
      <trkpt lat="47.86813" lon="3.76304">
        <ele>124</ele>
        <time>2019-10-26T10:05:06.000Z</time>
      </trkpt>
      <trkpt lat="47.86816" lon="3.76304">
        <ele>124</ele>
        <time>2019-10-26T10:05:07.000Z</time>
      </trkpt>
      <trkpt lat="47.86818" lon="3.76302">
        <ele>125</ele>
        <time>2019-10-26T10:05:08.000Z</time>
      </trkpt>
      <trkpt lat="47.86823" lon="3.763">
        <ele>125</ele>
        <time>2019-10-26T10:05:09.000Z</time>
      </trkpt>
      <trkpt lat="47.86823" lon="3.763">
        <ele>125</ele>
        <time>2019-10-26T10:05:10.000Z</time>
      </trkpt>
      <trkpt lat="47.86826" lon="3.76299">
        <ele>125</ele>
        <time>2019-10-26T10:05:11.000Z</time>
      </trkpt>
      <trkpt lat="47.86828" lon="3.76298">
        <ele>125</ele>
        <time>2019-10-26T10:05:12.000Z</time>
      </trkpt>
      <trkpt lat="47.8683" lon="3.76297">
        <ele>125</ele>
        <time>2019-10-26T10:05:13.000Z</time>
      </trkpt>
      <trkpt lat="47.86833" lon="3.76296">
        <ele>125</ele>
        <time>2019-10-26T10:05:14.000Z</time>
      </trkpt>
      <trkpt lat="47.86835" lon="3.76295">
        <ele>125</ele>
        <time>2019-10-26T10:05:15.000Z</time>
      </trkpt>
      <trkpt lat="47.86837" lon="3.76294">
        <ele>125</ele>
        <time>2019-10-26T10:05:16.000Z</time>
      </trkpt>
      <trkpt lat="47.86838" lon="3.76293">
        <ele>125</ele>
        <time>2019-10-26T10:05:17.000Z</time>
      </trkpt>
      <trkpt lat="47.86841" lon="3.76292">
        <ele>126</ele>
        <time>2019-10-26T10:05:18.000Z</time>
      </trkpt>
      <trkpt lat="47.86843" lon="3.76291">
        <ele>126</ele>
        <time>2019-10-26T10:05:19.000Z</time>
      </trkpt>
      <trkpt lat="47.86845" lon="3.7629">
        <ele>125</ele>
        <time>2019-10-26T10:05:20.000Z</time>
      </trkpt>
      <trkpt lat="47.86848" lon="3.76289">
        <ele>125</ele>
        <time>2019-10-26T10:05:21.000Z</time>
      </trkpt>
      <trkpt lat="47.8685" lon="3.76288">
        <ele>125</ele>
        <time>2019-10-26T10:05:22.000Z</time>
      </trkpt>
      <trkpt lat="47.86853" lon="3.76287">
        <ele>125</ele>
        <time>2019-10-26T10:05:23.000Z</time>
      </trkpt>
      <trkpt lat="47.86855" lon="3.76286">
        <ele>125</ele>
        <time>2019-10-26T10:05:24.000Z</time>
      </trkpt>
      <trkpt lat="47.86858" lon="3.76285">
        <ele>125</ele>
        <time>2019-10-26T10:05:25.000Z</time>
      </trkpt>
      <trkpt lat="47.8686" lon="3.76284">
        <ele>125</ele>
        <time>2019-10-26T10:05:26.000Z</time>
      </trkpt>
      <trkpt lat="47.86863" lon="3.76284">
        <ele>125</ele>
        <time>2019-10-26T10:05:27.000Z</time>
      </trkpt>
      <trkpt lat="47.86865" lon="3.76283">
        <ele>125</ele>
        <time>2019-10-26T10:05:28.000Z</time>
      </trkpt>
      <trkpt lat="47.86867" lon="3.76282">
        <ele>125</ele>
        <time>2019-10-26T10:05:29.000Z</time>
      </trkpt>
      <trkpt lat="47.8687" lon="3.76281">
        <ele>125</ele>
        <time>2019-10-26T10:05:30.000Z</time>
      </trkpt>
      <trkpt lat="47.86872" lon="3.7628">
        <ele>125</ele>
        <time>2019-10-26T10:05:31.000Z</time>
      </trkpt>
      <trkpt lat="47.86875" lon="3.7628">
        <ele>125</ele>
        <time>2019-10-26T10:05:32.000Z</time>
      </trkpt>
      <trkpt lat="47.86877" lon="3.76279">
        <ele>125</ele>
        <time>2019-10-26T10:05:33.000Z</time>
      </trkpt>
      <trkpt lat="47.8688" lon="3.76279">
        <ele>125</ele>
        <time>2019-10-26T10:05:34.000Z</time>
      </trkpt>
      <trkpt lat="47.86883" lon="3.76279">
        <ele>125</ele>
        <time>2019-10-26T10:05:35.000Z</time>
      </trkpt>
      <trkpt lat="47.86885" lon="3.76278">
        <ele>125</ele>
        <time>2019-10-26T10:05:36.000Z</time>
      </trkpt>
      <trkpt lat="47.86888" lon="3.76278">
        <ele>126</ele>
        <time>2019-10-26T10:05:37.000Z</time>
      </trkpt>
      <trkpt lat="47.8689" lon="3.76277">
        <ele>126</ele>
        <time>2019-10-26T10:05:38.000Z</time>
      </trkpt>
      <trkpt lat="47.86892" lon="3.76276">
        <ele>126</ele>
        <time>2019-10-26T10:05:39.000Z</time>
      </trkpt>
      <trkpt lat="47.86895" lon="3.76276">
        <ele>126</ele>
        <time>2019-10-26T10:05:40.000Z</time>
      </trkpt>
      <trkpt lat="47.86897" lon="3.76275">
        <ele>126</ele>
        <time>2019-10-26T10:05:41.000Z</time>
      </trkpt>
      <trkpt lat="47.869" lon="3.76275">
        <ele>126</ele>
        <time>2019-10-26T10:05:42.000Z</time>
      </trkpt>
      <trkpt lat="47.86902" lon="3.76275">
        <ele>126</ele>
        <time>2019-10-26T10:05:43.000Z</time>
      </trkpt>
      <trkpt lat="47.86904" lon="3.76275">
        <ele>126</ele>
        <time>2019-10-26T10:05:44.000Z</time>
      </trkpt>
      <trkpt lat="47.86907" lon="3.76274">
        <ele>126</ele>
        <time>2019-10-26T10:05:45.000Z</time>
      </trkpt>
      <trkpt lat="47.86909" lon="3.76274">
        <ele>125</ele>
        <time>2019-10-26T10:05:46.000Z</time>
      </trkpt>
      <trkpt lat="47.86911" lon="3.76274">
        <ele>125</ele>
        <time>2019-10-26T10:05:47.000Z</time>
      </trkpt>
      <trkpt lat="47.86914" lon="3.76273">
        <ele>125</ele>
        <time>2019-10-26T10:05:48.000Z</time>
      </trkpt>
      <trkpt lat="47.86916" lon="3.76273">
        <ele>126</ele>
        <time>2019-10-26T10:05:49.000Z</time>
      </trkpt>
      <trkpt lat="47.86918" lon="3.76273">
        <ele>126</ele>
        <time>2019-10-26T10:05:50.000Z</time>
      </trkpt>
      <trkpt lat="47.8692" lon="3.76273">
        <ele>126</ele>
        <time>2019-10-26T10:05:51.000Z</time>
      </trkpt>
      <trkpt lat="47.86923" lon="3.76272">
        <ele>126</ele>
        <time>2019-10-26T10:05:52.000Z</time>
      </trkpt>
      <trkpt lat="47.86925" lon="3.76272">
        <ele>126</ele>
        <time>2019-10-26T10:05:53.000Z</time>
      </trkpt>
      <trkpt lat="47.8693" lon="3.76272">
        <ele>126</ele>
        <time>2019-10-26T10:05:54.000Z</time>
      </trkpt>
      <trkpt lat="47.86932" lon="3.76272">
        <ele>126</ele>
        <time>2019-10-26T10:05:55.000Z</time>
      </trkpt>
      <trkpt lat="47.86934" lon="3.76273">
        <ele>126</ele>
        <time>2019-10-26T10:05:56.000Z</time>
      </trkpt>
      <trkpt lat="47.86936" lon="3.76273">
        <ele>126</ele>
        <time>2019-10-26T10:05:57.000Z</time>
      </trkpt>
      <trkpt lat="47.86939" lon="3.76273">
        <ele>126</ele>
        <time>2019-10-26T10:05:58.000Z</time>
      </trkpt>
      <trkpt lat="47.86941" lon="3.76273">
        <ele>127</ele>
        <time>2019-10-26T10:05:59.000Z</time>
      </trkpt>
      <trkpt lat="47.86943" lon="3.76273">
        <ele>127</ele>
        <time>2019-10-26T10:06:00.000Z</time>
      </trkpt>
      <trkpt lat="47.86945" lon="3.76274">
        <ele>127</ele>
        <time>2019-10-26T10:06:01.000Z</time>
      </trkpt>
      <trkpt lat="47.86945" lon="3.76274">
        <ele>127</ele>
        <time>2019-10-26T10:06:02.000Z</time>
      </trkpt>
      <trkpt lat="47.86947" lon="3.76274">
        <ele>127</ele>
        <time>2019-10-26T10:06:03.000Z</time>
      </trkpt>
      <trkpt lat="47.86952" lon="3.76275">
        <ele>127</ele>
        <time>2019-10-26T10:06:04.000Z</time>
      </trkpt>
      <trkpt lat="47.86954" lon="3.76275">
        <ele>127</ele>
        <time>2019-10-26T10:06:05.000Z</time>
      </trkpt>
      <trkpt lat="47.86954" lon="3.76275">
        <ele>127</ele>
        <time>2019-10-26T10:06:06.000Z</time>
      </trkpt>
      <trkpt lat="47.86956" lon="3.76275">
        <ele>127</ele>
        <time>2019-10-26T10:06:07.000Z</time>
      </trkpt>
      <trkpt lat="47.86959" lon="3.76275">
        <ele>127</ele>
        <time>2019-10-26T10:06:08.000Z</time>
      </trkpt>
      <trkpt lat="47.86961" lon="3.76276">
        <ele>127</ele>
        <time>2019-10-26T10:06:09.000Z</time>
      </trkpt>
      <trkpt lat="47.86964" lon="3.76276">
        <ele>127</ele>
        <time>2019-10-26T10:06:10.000Z</time>
      </trkpt>
      <trkpt lat="47.86966" lon="3.76275">
        <ele>127</ele>
        <time>2019-10-26T10:06:11.000Z</time>
      </trkpt>
      <trkpt lat="47.86968" lon="3.76275">
        <ele>127</ele>
        <time>2019-10-26T10:06:12.000Z</time>
      </trkpt>
      <trkpt lat="47.86971" lon="3.76274">
        <ele>127</ele>
        <time>2019-10-26T10:06:13.000Z</time>
      </trkpt>
      <trkpt lat="47.86973" lon="3.76274">
        <ele>127</ele>
        <time>2019-10-26T10:06:14.000Z</time>
      </trkpt>
      <trkpt lat="47.86976" lon="3.76273">
        <ele>127</ele>
        <time>2019-10-26T10:06:15.000Z</time>
      </trkpt>
      <trkpt lat="47.86978" lon="3.76272">
        <ele>127</ele>
        <time>2019-10-26T10:06:16.000Z</time>
      </trkpt>
      <trkpt lat="47.86981" lon="3.76272">
        <ele>127</ele>
        <time>2019-10-26T10:06:17.000Z</time>
      </trkpt>
      <trkpt lat="47.86983" lon="3.76272">
        <ele>128</ele>
        <time>2019-10-26T10:06:18.000Z</time>
      </trkpt>
      <trkpt lat="47.86985" lon="3.76272">
        <ele>128</ele>
        <time>2019-10-26T10:06:19.000Z</time>
      </trkpt>
      <trkpt lat="47.86987" lon="3.76274">
        <ele>128</ele>
        <time>2019-10-26T10:06:20.000Z</time>
      </trkpt>
      <trkpt lat="47.86989" lon="3.76277">
        <ele>128</ele>
        <time>2019-10-26T10:06:21.000Z</time>
      </trkpt>
      <trkpt lat="47.86991" lon="3.7628">
        <ele>128</ele>
        <time>2019-10-26T10:06:22.000Z</time>
      </trkpt>
      <trkpt lat="47.86994" lon="3.76285">
        <ele>128</ele>
        <time>2019-10-26T10:06:23.000Z</time>
      </trkpt>
      <trkpt lat="47.86994" lon="3.76285">
        <ele>128</ele>
        <time>2019-10-26T10:06:24.000Z</time>
      </trkpt>
      <trkpt lat="47.86995" lon="3.76288">
        <ele>128</ele>
        <time>2019-10-26T10:06:25.000Z</time>
      </trkpt>
      <trkpt lat="47.86996" lon="3.76291">
        <ele>128</ele>
        <time>2019-10-26T10:06:26.000Z</time>
      </trkpt>
      <trkpt lat="47.86998" lon="3.76297">
        <ele>128</ele>
        <time>2019-10-26T10:06:27.000Z</time>
      </trkpt>
      <trkpt lat="47.86999" lon="3.763">
        <ele>128</ele>
        <time>2019-10-26T10:06:28.000Z</time>
      </trkpt>
      <trkpt lat="47.86999" lon="3.763">
        <ele>128</ele>
        <time>2019-10-26T10:06:29.000Z</time>
      </trkpt>
      <trkpt lat="47.87" lon="3.76304">
        <ele>128</ele>
        <time>2019-10-26T10:06:30.000Z</time>
      </trkpt>
      <trkpt lat="47.87001" lon="3.7631">
        <ele>128</ele>
        <time>2019-10-26T10:06:31.000Z</time>
      </trkpt>
      <trkpt lat="47.87002" lon="3.76313">
        <ele>129</ele>
        <time>2019-10-26T10:06:32.000Z</time>
      </trkpt>
      <trkpt lat="47.87003" lon="3.76316">
        <ele>129</ele>
        <time>2019-10-26T10:06:33.000Z</time>
      </trkpt>
      <trkpt lat="47.87003" lon="3.76316">
        <ele>129</ele>
        <time>2019-10-26T10:06:34.000Z</time>
      </trkpt>
      <trkpt lat="47.87004" lon="3.76319">
        <ele>129</ele>
        <time>2019-10-26T10:06:35.000Z</time>
      </trkpt>
      <trkpt lat="47.87005" lon="3.76322">
        <ele>129</ele>
        <time>2019-10-26T10:06:36.000Z</time>
      </trkpt>
      <trkpt lat="47.87005" lon="3.76325">
        <ele>129</ele>
        <time>2019-10-26T10:06:37.000Z</time>
      </trkpt>
      <trkpt lat="47.87006" lon="3.76328">
        <ele>129</ele>
        <time>2019-10-26T10:06:38.000Z</time>
      </trkpt>
      <trkpt lat="47.87007" lon="3.7633">
        <ele>129</ele>
        <time>2019-10-26T10:06:39.000Z</time>
      </trkpt>
      <trkpt lat="47.87008" lon="3.76333">
        <ele>129</ele>
        <time>2019-10-26T10:06:40.000Z</time>
      </trkpt>
      <trkpt lat="47.87009" lon="3.76336">
        <ele>129</ele>
        <time>2019-10-26T10:06:41.000Z</time>
      </trkpt>
      <trkpt lat="47.8701" lon="3.76339">
        <ele>129</ele>
        <time>2019-10-26T10:06:42.000Z</time>
      </trkpt>
      <trkpt lat="47.87011" lon="3.76342">
        <ele>129</ele>
        <time>2019-10-26T10:06:43.000Z</time>
      </trkpt>
      <trkpt lat="47.87012" lon="3.76344">
        <ele>129</ele>
        <time>2019-10-26T10:06:44.000Z</time>
      </trkpt>
      <trkpt lat="47.87014" lon="3.76349">
        <ele>129</ele>
        <time>2019-10-26T10:06:45.000Z</time>
      </trkpt>
      <trkpt lat="47.87014" lon="3.76349">
        <ele>129</ele>
        <time>2019-10-26T10:06:46.000Z</time>
      </trkpt>
      <trkpt lat="47.87014" lon="3.76352">
        <ele>129</ele>
        <time>2019-10-26T10:06:47.000Z</time>
      </trkpt>
      <trkpt lat="47.87015" lon="3.76354">
        <ele>129</ele>
        <time>2019-10-26T10:06:48.000Z</time>
      </trkpt>
      <trkpt lat="47.87017" lon="3.76357">
        <ele>129</ele>
        <time>2019-10-26T10:06:49.000Z</time>
      </trkpt>
      <trkpt lat="47.87018" lon="3.76359">
        <ele>129</ele>
        <time>2019-10-26T10:06:50.000Z</time>
      </trkpt>
      <trkpt lat="47.87018" lon="3.76362">
        <ele>129</ele>
        <time>2019-10-26T10:06:51.000Z</time>
      </trkpt>
      <trkpt lat="47.87019" lon="3.76365">
        <ele>129</ele>
        <time>2019-10-26T10:06:52.000Z</time>
      </trkpt>
      <trkpt lat="47.8702" lon="3.76368">
        <ele>130</ele>
        <time>2019-10-26T10:06:53.000Z</time>
      </trkpt>
      <trkpt lat="47.87021" lon="3.76372">
        <ele>130</ele>
        <time>2019-10-26T10:06:54.000Z</time>
      </trkpt>
      <trkpt lat="47.87021" lon="3.76375">
        <ele>130</ele>
        <time>2019-10-26T10:06:55.000Z</time>
      </trkpt>
      <trkpt lat="47.87022" lon="3.76378">
        <ele>130</ele>
        <time>2019-10-26T10:06:56.000Z</time>
      </trkpt>
      <trkpt lat="47.87022" lon="3.7638">
        <ele>130</ele>
        <time>2019-10-26T10:06:57.000Z</time>
      </trkpt>
      <trkpt lat="47.87023" lon="3.76383">
        <ele>130</ele>
        <time>2019-10-26T10:06:58.000Z</time>
      </trkpt>
      <trkpt lat="47.87023" lon="3.76386">
        <ele>131</ele>
        <time>2019-10-26T10:06:59.000Z</time>
      </trkpt>
      <trkpt lat="47.87023" lon="3.76388">
        <ele>131</ele>
        <time>2019-10-26T10:07:00.000Z</time>
      </trkpt>
      <trkpt lat="47.87023" lon="3.76391">
        <ele>131</ele>
        <time>2019-10-26T10:07:01.000Z</time>
      </trkpt>
      <trkpt lat="47.87023" lon="3.76395">
        <ele>131</ele>
        <time>2019-10-26T10:07:02.000Z</time>
      </trkpt>
      <trkpt lat="47.87023" lon="3.76398">
        <ele>132</ele>
        <time>2019-10-26T10:07:03.000Z</time>
      </trkpt>
      <trkpt lat="47.87023" lon="3.76401">
        <ele>132</ele>
        <time>2019-10-26T10:07:04.000Z</time>
      </trkpt>
      <trkpt lat="47.87023" lon="3.76405">
        <ele>132</ele>
        <time>2019-10-26T10:07:05.000Z</time>
      </trkpt>
      <trkpt lat="47.87023" lon="3.76408">
        <ele>133</ele>
        <time>2019-10-26T10:07:06.000Z</time>
      </trkpt>
      <trkpt lat="47.87023" lon="3.76411">
        <ele>133</ele>
        <time>2019-10-26T10:07:07.000Z</time>
      </trkpt>
      <trkpt lat="47.87023" lon="3.76415">
        <ele>133</ele>
        <time>2019-10-26T10:07:08.000Z</time>
      </trkpt>
      <trkpt lat="47.87023" lon="3.76418">
        <ele>134</ele>
        <time>2019-10-26T10:07:09.000Z</time>
      </trkpt>
      <trkpt lat="47.87023" lon="3.76421">
        <ele>134</ele>
        <time>2019-10-26T10:07:10.000Z</time>
      </trkpt>
      <trkpt lat="47.87023" lon="3.76424">
        <ele>134</ele>
        <time>2019-10-26T10:07:11.000Z</time>
      </trkpt>
      <trkpt lat="47.87022" lon="3.76428">
        <ele>134</ele>
        <time>2019-10-26T10:07:12.000Z</time>
      </trkpt>
      <trkpt lat="47.87022" lon="3.76431">
        <ele>134</ele>
        <time>2019-10-26T10:07:13.000Z</time>
      </trkpt>
      <trkpt lat="47.87022" lon="3.76434">
        <ele>135</ele>
        <time>2019-10-26T10:07:14.000Z</time>
      </trkpt>
      <trkpt lat="47.87022" lon="3.76438">
        <ele>135</ele>
        <time>2019-10-26T10:07:15.000Z</time>
      </trkpt>
      <trkpt lat="47.87022" lon="3.76441">
        <ele>135</ele>
        <time>2019-10-26T10:07:16.000Z</time>
      </trkpt>
      <trkpt lat="47.87022" lon="3.76444">
        <ele>135</ele>
        <time>2019-10-26T10:07:17.000Z</time>
      </trkpt>
      <trkpt lat="47.87022" lon="3.76447">
        <ele>135</ele>
        <time>2019-10-26T10:07:18.000Z</time>
      </trkpt>
      <trkpt lat="47.87023" lon="3.76451">
        <ele>135</ele>
        <time>2019-10-26T10:07:19.000Z</time>
      </trkpt>
      <trkpt lat="47.87023" lon="3.76454">
        <ele>135</ele>
        <time>2019-10-26T10:07:20.000Z</time>
      </trkpt>
      <trkpt lat="47.87022" lon="3.76457">
        <ele>135</ele>
        <time>2019-10-26T10:07:21.000Z</time>
      </trkpt>
      <trkpt lat="47.87022" lon="3.76464">
        <ele>135</ele>
        <time>2019-10-26T10:07:22.000Z</time>
      </trkpt>
      <trkpt lat="47.87022" lon="3.76464">
        <ele>135</ele>
        <time>2019-10-26T10:07:23.000Z</time>
      </trkpt>
      <trkpt lat="47.87022" lon="3.76468">
        <ele>135</ele>
        <time>2019-10-26T10:07:24.000Z</time>
      </trkpt>
      <trkpt lat="47.87021" lon="3.76474">
        <ele>135</ele>
        <time>2019-10-26T10:07:25.000Z</time>
      </trkpt>
      <trkpt lat="47.87021" lon="3.76474">
        <ele>135</ele>
        <time>2019-10-26T10:07:26.000Z</time>
      </trkpt>
      <trkpt lat="47.87021" lon="3.76477">
        <ele>135</ele>
        <time>2019-10-26T10:07:27.000Z</time>
      </trkpt>
      <trkpt lat="47.8702" lon="3.76481">
        <ele>135</ele>
        <time>2019-10-26T10:07:28.000Z</time>
      </trkpt>
      <trkpt lat="47.8702" lon="3.76484">
        <ele>135</ele>
        <time>2019-10-26T10:07:29.000Z</time>
      </trkpt>
      <trkpt lat="47.8702" lon="3.76487">
        <ele>135</ele>
        <time>2019-10-26T10:07:30.000Z</time>
      </trkpt>
      <trkpt lat="47.8702" lon="3.76491">
        <ele>135</ele>
        <time>2019-10-26T10:07:31.000Z</time>
      </trkpt>
      <trkpt lat="47.87019" lon="3.76494">
        <ele>135</ele>
        <time>2019-10-26T10:07:32.000Z</time>
      </trkpt>
      <trkpt lat="47.87019" lon="3.76497">
        <ele>135</ele>
        <time>2019-10-26T10:07:33.000Z</time>
      </trkpt>
      <trkpt lat="47.87019" lon="3.76501">
        <ele>135</ele>
        <time>2019-10-26T10:07:34.000Z</time>
      </trkpt>
      <trkpt lat="47.87018" lon="3.76504">
        <ele>135</ele>
        <time>2019-10-26T10:07:35.000Z</time>
      </trkpt>
      <trkpt lat="47.87018" lon="3.76508">
        <ele>135</ele>
        <time>2019-10-26T10:07:36.000Z</time>
      </trkpt>
      <trkpt lat="47.87018" lon="3.76511">
        <ele>135</ele>
        <time>2019-10-26T10:07:37.000Z</time>
      </trkpt>
      <trkpt lat="47.87017" lon="3.76515">
        <ele>135</ele>
        <time>2019-10-26T10:07:38.000Z</time>
      </trkpt>
      <trkpt lat="47.87016" lon="3.76517">
        <ele>135</ele>
        <time>2019-10-26T10:07:39.000Z</time>
      </trkpt>
      <trkpt lat="47.87013" lon="3.76519">
        <ele>135</ele>
        <time>2019-10-26T10:07:40.000Z</time>
      </trkpt>
      <trkpt lat="47.87011" lon="3.7652">
        <ele>135</ele>
        <time>2019-10-26T10:07:41.000Z</time>
      </trkpt>
      <trkpt lat="47.87009" lon="3.7652">
        <ele>135</ele>
        <time>2019-10-26T10:07:42.000Z</time>
      </trkpt>
      <trkpt lat="47.87006" lon="3.76521">
        <ele>135</ele>
        <time>2019-10-26T10:07:43.000Z</time>
      </trkpt>
      <trkpt lat="47.87" lon="3.7652">
        <ele>135</ele>
        <time>2019-10-26T10:07:44.000Z</time>
      </trkpt>
      <trkpt lat="47.86998" lon="3.7652">
        <ele>135</ele>
        <time>2019-10-26T10:07:45.000Z</time>
      </trkpt>
      <trkpt lat="47.86998" lon="3.7652">
        <ele>135</ele>
        <time>2019-10-26T10:07:46.000Z</time>
      </trkpt>
      <trkpt lat="47.86995" lon="3.7652">
        <ele>135</ele>
        <time>2019-10-26T10:07:47.000Z</time>
      </trkpt>
      <trkpt lat="47.86993" lon="3.7652">
        <ele>135</ele>
        <time>2019-10-26T10:07:48.000Z</time>
      </trkpt>
      <trkpt lat="47.86991" lon="3.76519">
        <ele>135</ele>
        <time>2019-10-26T10:07:49.000Z</time>
      </trkpt>
      <trkpt lat="47.8699" lon="3.76519">
        <ele>135</ele>
        <time>2019-10-26T10:07:50.000Z</time>
      </trkpt>
      <trkpt lat="47.86989" lon="3.76518">
        <ele>135</ele>
        <time>2019-10-26T10:07:51.000Z</time>
      </trkpt>
      <trkpt lat="47.86989" lon="3.76518">
        <ele>135</ele>
        <time>2019-10-26T10:07:52.000Z</time>
      </trkpt>
      <trkpt lat="47.86989" lon="3.76517">
        <ele>135</ele>
        <time>2019-10-26T10:07:53.000Z</time>
      </trkpt>
      <trkpt lat="47.86989" lon="3.76517">
        <ele>135</ele>
        <time>2019-10-26T10:07:54.000Z</time>
      </trkpt>
      <trkpt lat="47.86989" lon="3.76517">
        <ele>135</ele>
        <time>2019-10-26T10:07:55.000Z</time>
      </trkpt>
      <trkpt lat="47.86989" lon="3.76517">
        <ele>135</ele>
        <time>2019-10-26T10:07:56.000Z</time>
      </trkpt>
      <trkpt lat="47.86989" lon="3.76517">
        <ele>135</ele>
        <time>2019-10-26T10:07:57.000Z</time>
      </trkpt>
      <trkpt lat="47.86989" lon="3.76517">
        <ele>135</ele>
        <time>2019-10-26T10:07:58.000Z</time>
      </trkpt>
      <trkpt lat="47.86988" lon="3.76516">
        <ele>135</ele>
        <time>2019-10-26T10:07:59.000Z</time>
      </trkpt>
      <trkpt lat="47.86988" lon="3.76516">
        <ele>135</ele>
        <time>2019-10-26T10:08:00.000Z</time>
      </trkpt>
      <trkpt lat="47.86988" lon="3.76515">
        <ele>135</ele>
        <time>2019-10-26T10:08:01.000Z</time>
      </trkpt>
      <trkpt lat="47.86988" lon="3.76515">
        <ele>135</ele>
        <time>2019-10-26T10:08:02.000Z</time>
      </trkpt>
      <trkpt lat="47.86988" lon="3.76515">
        <ele>135</ele>
        <time>2019-10-26T10:08:03.000Z</time>
      </trkpt>
      <trkpt lat="47.86988" lon="3.76515">
        <ele>135</ele>
        <time>2019-10-26T10:08:04.000Z</time>
      </trkpt>
      <trkpt lat="47.86988" lon="3.76515">
        <ele>135</ele>
        <time>2019-10-26T10:08:05.000Z</time>
      </trkpt>
      <trkpt lat="47.86988" lon="3.76515">
        <ele>135</ele>
        <time>2019-10-26T10:08:06.000Z</time>
      </trkpt>
      <trkpt lat="47.86988" lon="3.76514">
        <ele>136</ele>
        <time>2019-10-26T10:08:07.000Z</time>
      </trkpt>
      <trkpt lat="47.86988" lon="3.76514">
        <ele>136</ele>
        <time>2019-10-26T10:08:08.000Z</time>
      </trkpt>
      <trkpt lat="47.86988" lon="3.76514">
        <ele>136</ele>
        <time>2019-10-26T10:08:09.000Z</time>
      </trkpt>
      <trkpt lat="47.86988" lon="3.76514">
        <ele>136</ele>
        <time>2019-10-26T10:08:10.000Z</time>
      </trkpt>
      <trkpt lat="47.86988" lon="3.76514">
        <ele>136</ele>
        <time>2019-10-26T10:08:11.000Z</time>
      </trkpt>
      <trkpt lat="47.86988" lon="3.76514">
        <ele>136</ele>
        <time>2019-10-26T10:08:12.000Z</time>
      </trkpt>
      <trkpt lat="47.86988" lon="3.76514">
        <ele>136</ele>
        <time>2019-10-26T10:08:13.000Z</time>
      </trkpt>
      <trkpt lat="47.86988" lon="3.76514">
        <ele>136</ele>
        <time>2019-10-26T10:08:14.000Z</time>
      </trkpt>
      <trkpt lat="47.86988" lon="3.76514">
        <ele>136</ele>
        <time>2019-10-26T10:08:15.000Z</time>
      </trkpt>
      <trkpt lat="47.86988" lon="3.76515">
        <ele>136</ele>
        <time>2019-10-26T10:08:16.000Z</time>
      </trkpt>
      <trkpt lat="47.86988" lon="3.76515">
        <ele>136</ele>
        <time>2019-10-26T10:08:17.000Z</time>
      </trkpt>
      <trkpt lat="47.86987" lon="3.76516">
        <ele>136</ele>
        <time>2019-10-26T10:08:18.000Z</time>
      </trkpt>
      <trkpt lat="47.86987" lon="3.76517">
        <ele>136</ele>
        <time>2019-10-26T10:08:19.000Z</time>
      </trkpt>
      <trkpt lat="47.86987" lon="3.76517">
        <ele>136</ele>
        <time>2019-10-26T10:08:20.000Z</time>
      </trkpt>
      <trkpt lat="47.86987" lon="3.76517">
        <ele>136</ele>
        <time>2019-10-26T10:08:21.000Z</time>
      </trkpt>
      <trkpt lat="47.86987" lon="3.76518">
        <ele>136</ele>
        <time>2019-10-26T10:08:22.000Z</time>
      </trkpt>
      <trkpt lat="47.86987" lon="3.76518">
        <ele>136</ele>
        <time>2019-10-26T10:08:23.000Z</time>
      </trkpt>
      <trkpt lat="47.86987" lon="3.76518">
        <ele>136</ele>
        <time>2019-10-26T10:08:24.000Z</time>
      </trkpt>
      <trkpt lat="47.86987" lon="3.76518">
        <ele>136</ele>
        <time>2019-10-26T10:08:25.000Z</time>
      </trkpt>
      <trkpt lat="47.86987" lon="3.76518">
        <ele>136</ele>
        <time>2019-10-26T10:08:26.000Z</time>
      </trkpt>
      <trkpt lat="47.86987" lon="3.76519">
        <ele>136</ele>
        <time>2019-10-26T10:08:27.000Z</time>
      </trkpt>
      <trkpt lat="47.86987" lon="3.76519">
        <ele>136</ele>
        <time>2019-10-26T10:08:28.000Z</time>
      </trkpt>
      <trkpt lat="47.86986" lon="3.76519">
        <ele>136</ele>
        <time>2019-10-26T10:08:29.000Z</time>
      </trkpt>
      <trkpt lat="47.86986" lon="3.7652">
        <ele>136</ele>
        <time>2019-10-26T10:08:30.000Z</time>
      </trkpt>
      <trkpt lat="47.86986" lon="3.7652">
        <ele>136</ele>
        <time>2019-10-26T10:08:31.000Z</time>
      </trkpt>
      <trkpt lat="47.86986" lon="3.76519">
        <ele>136</ele>
        <time>2019-10-26T10:08:32.000Z</time>
      </trkpt>
      <trkpt lat="47.86986" lon="3.76519">
        <ele>136</ele>
        <time>2019-10-26T10:08:33.000Z</time>
      </trkpt>
      <trkpt lat="47.86986" lon="3.76519">
        <ele>136</ele>
        <time>2019-10-26T10:08:34.000Z</time>
      </trkpt>
      <trkpt lat="47.86986" lon="3.76519">
        <ele>136</ele>
        <time>2019-10-26T10:08:35.000Z</time>
      </trkpt>
      <trkpt lat="47.86986" lon="3.76519">
        <ele>136</ele>
        <time>2019-10-26T10:08:36.000Z</time>
      </trkpt>
      <trkpt lat="47.86986" lon="3.76519">
        <ele>136</ele>
        <time>2019-10-26T10:08:37.000Z</time>
      </trkpt>
      <trkpt lat="47.86986" lon="3.76519">
        <ele>136</ele>
        <time>2019-10-26T10:08:38.000Z</time>
      </trkpt>
      <trkpt lat="47.86986" lon="3.76519">
        <ele>136</ele>
        <time>2019-10-26T10:08:39.000Z</time>
      </trkpt>
      <trkpt lat="47.86986" lon="3.76519">
        <ele>136</ele>
        <time>2019-10-26T10:08:40.000Z</time>
      </trkpt>
      <trkpt lat="47.86986" lon="3.76519">
        <ele>136</ele>
        <time>2019-10-26T10:08:41.000Z</time>
      </trkpt>
      <trkpt lat="47.86986" lon="3.76519">
        <ele>136</ele>
        <time>2019-10-26T10:08:42.000Z</time>
      </trkpt>
      <trkpt lat="47.86986" lon="3.76518">
        <ele>136</ele>
        <time>2019-10-26T10:08:43.000Z</time>
      </trkpt>
      <trkpt lat="47.86986" lon="3.76518">
        <ele>136</ele>
        <time>2019-10-26T10:08:44.000Z</time>
      </trkpt>
      <trkpt lat="47.86986" lon="3.76518">
        <ele>136</ele>
        <time>2019-10-26T10:08:45.000Z</time>
      </trkpt>
      <trkpt lat="47.86986" lon="3.76518">
        <ele>136</ele>
        <time>2019-10-26T10:08:46.000Z</time>
      </trkpt>
      <trkpt lat="47.86986" lon="3.76518">
        <ele>136</ele>
        <time>2019-10-26T10:08:47.000Z</time>
      </trkpt>
      <trkpt lat="47.86986" lon="3.76517">
        <ele>136</ele>
        <time>2019-10-26T10:08:48.000Z</time>
      </trkpt>
      <trkpt lat="47.86986" lon="3.76517">
        <ele>136</ele>
        <time>2019-10-26T10:08:49.000Z</time>
      </trkpt>
      <trkpt lat="47.86986" lon="3.76517">
        <ele>136</ele>
        <time>2019-10-26T10:08:50.000Z</time>
      </trkpt>
      <trkpt lat="47.86986" lon="3.76517">
        <ele>137</ele>
        <time>2019-10-26T10:08:51.000Z</time>
      </trkpt>
      <trkpt lat="47.86986" lon="3.76517">
        <ele>137</ele>
        <time>2019-10-26T10:08:52.000Z</time>
      </trkpt>
      <trkpt lat="47.86986" lon="3.76517">
        <ele>137</ele>
        <time>2019-10-26T10:08:53.000Z</time>
      </trkpt>
      <trkpt lat="47.86985" lon="3.76517">
        <ele>137</ele>
        <time>2019-10-26T10:08:54.000Z</time>
      </trkpt>
      <trkpt lat="47.86985" lon="3.76516">
        <ele>137</ele>
        <time>2019-10-26T10:08:55.000Z</time>
      </trkpt>
      <trkpt lat="47.86984" lon="3.76516">
        <ele>137</ele>
        <time>2019-10-26T10:08:56.000Z</time>
      </trkpt>
      <trkpt lat="47.86984" lon="3.76515">
        <ele>137</ele>
        <time>2019-10-26T10:08:57.000Z</time>
      </trkpt>
      <trkpt lat="47.86984" lon="3.76515">
        <ele>137</ele>
        <time>2019-10-26T10:08:58.000Z</time>
      </trkpt>
      <trkpt lat="47.86984" lon="3.76514">
        <ele>137</ele>
        <time>2019-10-26T10:08:59.000Z</time>
      </trkpt>
      <trkpt lat="47.86984" lon="3.76515">
        <ele>137</ele>
        <time>2019-10-26T10:09:00.000Z</time>
      </trkpt>
      <trkpt lat="47.86984" lon="3.76515">
        <ele>137</ele>
        <time>2019-10-26T10:09:01.000Z</time>
      </trkpt>
      <trkpt lat="47.86984" lon="3.76515">
        <ele>137</ele>
        <time>2019-10-26T10:09:02.000Z</time>
      </trkpt>
      <trkpt lat="47.86984" lon="3.76515">
        <ele>137</ele>
        <time>2019-10-26T10:09:03.000Z</time>
      </trkpt>
      <trkpt lat="47.86984" lon="3.76515">
        <ele>137</ele>
        <time>2019-10-26T10:09:04.000Z</time>
      </trkpt>
      <trkpt lat="47.86984" lon="3.76515">
        <ele>137</ele>
        <time>2019-10-26T10:09:05.000Z</time>
      </trkpt>
      <trkpt lat="47.86984" lon="3.76515">
        <ele>137</ele>
        <time>2019-10-26T10:09:06.000Z</time>
      </trkpt>
      <trkpt lat="47.86984" lon="3.76515">
        <ele>137</ele>
        <time>2019-10-26T10:09:07.000Z</time>
      </trkpt>
      <trkpt lat="47.86984" lon="3.76516">
        <ele>137</ele>
        <time>2019-10-26T10:09:08.000Z</time>
      </trkpt>
      <trkpt lat="47.86984" lon="3.76516">
        <ele>137</ele>
        <time>2019-10-26T10:09:09.000Z</time>
      </trkpt>
      <trkpt lat="47.86984" lon="3.76515">
        <ele>137</ele>
        <time>2019-10-26T10:09:10.000Z</time>
      </trkpt>
      <trkpt lat="47.86984" lon="3.76515">
        <ele>137</ele>
        <time>2019-10-26T10:09:11.000Z</time>
      </trkpt>
      <trkpt lat="47.86984" lon="3.76515">
        <ele>137</ele>
        <time>2019-10-26T10:09:12.000Z</time>
      </trkpt>
      <trkpt lat="47.86984" lon="3.76515">
        <ele>137</ele>
        <time>2019-10-26T10:09:13.000Z</time>
      </trkpt>
      <trkpt lat="47.86984" lon="3.76514">
        <ele>137</ele>
        <time>2019-10-26T10:09:14.000Z</time>
      </trkpt>
      <trkpt lat="47.86984" lon="3.76514">
        <ele>137</ele>
        <time>2019-10-26T10:09:15.000Z</time>
      </trkpt>
      <trkpt lat="47.86984" lon="3.76514">
        <ele>137</ele>
        <time>2019-10-26T10:09:16.000Z</time>
      </trkpt>
      <trkpt lat="47.86984" lon="3.76514">
        <ele>137</ele>
        <time>2019-10-26T10:09:17.000Z</time>
      </trkpt>
      <trkpt lat="47.86984" lon="3.76514">
        <ele>137</ele>
        <time>2019-10-26T10:09:18.000Z</time>
      </trkpt>
      <trkpt lat="47.86984" lon="3.76514">
        <ele>137</ele>
        <time>2019-10-26T10:09:19.000Z</time>
      </trkpt>
      <trkpt lat="47.86984" lon="3.76514">
        <ele>137</ele>
        <time>2019-10-26T10:09:20.000Z</time>
      </trkpt>
      <trkpt lat="47.86984" lon="3.76514">
        <ele>137</ele>
        <time>2019-10-26T10:09:21.000Z</time>
      </trkpt>
      <trkpt lat="47.86984" lon="3.76514">
        <ele>137</ele>
        <time>2019-10-26T10:09:22.000Z</time>
      </trkpt>
      <trkpt lat="47.86984" lon="3.76514">
        <ele>137</ele>
        <time>2019-10-26T10:09:23.000Z</time>
      </trkpt>
      <trkpt lat="47.86983" lon="3.76514">
        <ele>137</ele>
        <time>2019-10-26T10:09:24.000Z</time>
      </trkpt>
      <trkpt lat="47.86982" lon="3.76513">
        <ele>137</ele>
        <time>2019-10-26T10:09:25.000Z</time>
      </trkpt>
      <trkpt lat="47.86982" lon="3.76513">
        <ele>137</ele>
        <time>2019-10-26T10:09:26.000Z</time>
      </trkpt>
      <trkpt lat="47.86982" lon="3.76512">
        <ele>137</ele>
        <time>2019-10-26T10:09:27.000Z</time>
      </trkpt>
      <trkpt lat="47.86982" lon="3.76512">
        <ele>137</ele>
        <time>2019-10-26T10:09:28.000Z</time>
      </trkpt>
      <trkpt lat="47.86982" lon="3.76512">
        <ele>137</ele>
        <time>2019-10-26T10:09:29.000Z</time>
      </trkpt>
      <trkpt lat="47.86982" lon="3.76512">
        <ele>137</ele>
        <time>2019-10-26T10:09:30.000Z</time>
      </trkpt>
      <trkpt lat="47.86982" lon="3.76512">
        <ele>137</ele>
        <time>2019-10-26T10:09:31.000Z</time>
      </trkpt>
      <trkpt lat="47.86982" lon="3.76512">
        <ele>137</ele>
        <time>2019-10-26T10:09:32.000Z</time>
      </trkpt>
      <trkpt lat="47.86981" lon="3.76512">
        <ele>137</ele>
        <time>2019-10-26T10:09:33.000Z</time>
      </trkpt>
      <trkpt lat="47.86981" lon="3.76512">
        <ele>137</ele>
        <time>2019-10-26T10:09:34.000Z</time>
      </trkpt>
      <trkpt lat="47.86981" lon="3.76512">
        <ele>137</ele>
        <time>2019-10-26T10:09:35.000Z</time>
      </trkpt>
      <trkpt lat="47.86981" lon="3.76512">
        <ele>137</ele>
        <time>2019-10-26T10:09:36.000Z</time>
      </trkpt>
      <trkpt lat="47.86981" lon="3.76512">
        <ele>137</ele>
        <time>2019-10-26T10:09:37.000Z</time>
      </trkpt>
      <trkpt lat="47.86981" lon="3.76512">
        <ele>137</ele>
        <time>2019-10-26T10:09:38.000Z</time>
      </trkpt>
      <trkpt lat="47.86981" lon="3.76512">
        <ele>137</ele>
        <time>2019-10-26T10:09:39.000Z</time>
      </trkpt>
      <trkpt lat="47.86981" lon="3.76512">
        <ele>137</ele>
        <time>2019-10-26T10:09:40.000Z</time>
      </trkpt>
      <trkpt lat="47.86981" lon="3.76512">
        <ele>137</ele>
        <time>2019-10-26T10:09:41.000Z</time>
      </trkpt>
      <trkpt lat="47.86981" lon="3.76512">
        <ele>137</ele>
        <time>2019-10-26T10:09:42.000Z</time>
      </trkpt>
      <trkpt lat="47.86982" lon="3.76512">
        <ele>137</ele>
        <time>2019-10-26T10:09:43.000Z</time>
      </trkpt>
      <trkpt lat="47.86982" lon="3.76512">
        <ele>137</ele>
        <time>2019-10-26T10:09:44.000Z</time>
      </trkpt>
      <trkpt lat="47.86982" lon="3.76512">
        <ele>138</ele>
        <time>2019-10-26T10:09:45.000Z</time>
      </trkpt>
      <trkpt lat="47.86982" lon="3.76512">
        <ele>138</ele>
        <time>2019-10-26T10:09:46.000Z</time>
      </trkpt>
      <trkpt lat="47.86982" lon="3.76512">
        <ele>138</ele>
        <time>2019-10-26T10:09:47.000Z</time>
      </trkpt>
      <trkpt lat="47.86983" lon="3.76512">
        <ele>138</ele>
        <time>2019-10-26T10:09:48.000Z</time>
      </trkpt>
      <trkpt lat="47.86983" lon="3.76511">
        <ele>138</ele>
        <time>2019-10-26T10:09:49.000Z</time>
      </trkpt>
      <trkpt lat="47.86984" lon="3.76511">
        <ele>138</ele>
        <time>2019-10-26T10:09:50.000Z</time>
      </trkpt>
      <trkpt lat="47.86984" lon="3.76511">
        <ele>138</ele>
        <time>2019-10-26T10:09:51.000Z</time>
      </trkpt>
      <trkpt lat="47.86985" lon="3.7651">
        <ele>138</ele>
        <time>2019-10-26T10:09:52.000Z</time>
      </trkpt>
      <trkpt lat="47.86985" lon="3.7651">
        <ele>138</ele>
        <time>2019-10-26T10:09:53.000Z</time>
      </trkpt>
      <trkpt lat="47.86985" lon="3.7651">
        <ele>138</ele>
        <time>2019-10-26T10:09:54.000Z</time>
      </trkpt>
      <trkpt lat="47.86985" lon="3.7651">
        <ele>138</ele>
        <time>2019-10-26T10:09:55.000Z</time>
      </trkpt>
      <trkpt lat="47.86985" lon="3.7651">
        <ele>138</ele>
        <time>2019-10-26T10:09:56.000Z</time>
      </trkpt>
      <trkpt lat="47.86985" lon="3.7651">
        <ele>138</ele>
        <time>2019-10-26T10:09:57.000Z</time>
      </trkpt>
      <trkpt lat="47.86985" lon="3.7651">
        <ele>138</ele>
        <time>2019-10-26T10:09:58.000Z</time>
      </trkpt>
      <trkpt lat="47.86984" lon="3.76511">
        <ele>138</ele>
        <time>2019-10-26T10:09:59.000Z</time>
      </trkpt>
      <trkpt lat="47.86984" lon="3.76511">
        <ele>138</ele>
        <time>2019-10-26T10:10:00.000Z</time>
      </trkpt>
      <trkpt lat="47.86984" lon="3.76511">
        <ele>138</ele>
        <time>2019-10-26T10:10:01.000Z</time>
      </trkpt>
      <trkpt lat="47.86984" lon="3.76511">
        <ele>138</ele>
        <time>2019-10-26T10:10:02.000Z</time>
      </trkpt>
      <trkpt lat="47.86984" lon="3.76511">
        <ele>138</ele>
        <time>2019-10-26T10:10:03.000Z</time>
      </trkpt>
      <trkpt lat="47.86984" lon="3.76511">
        <ele>138</ele>
        <time>2019-10-26T10:10:04.000Z</time>
      </trkpt>
      <trkpt lat="47.86984" lon="3.76512">
        <ele>138</ele>
        <time>2019-10-26T10:10:05.000Z</time>
      </trkpt>
      <trkpt lat="47.86984" lon="3.76512">
        <ele>138</ele>
        <time>2019-10-26T10:10:06.000Z</time>
      </trkpt>
      <trkpt lat="47.86984" lon="3.76512">
        <ele>138</ele>
        <time>2019-10-26T10:10:07.000Z</time>
      </trkpt>
      <trkpt lat="47.86984" lon="3.76512">
        <ele>138</ele>
        <time>2019-10-26T10:10:08.000Z</time>
      </trkpt>
      <trkpt lat="47.86984" lon="3.76512">
        <ele>138</ele>
        <time>2019-10-26T10:10:09.000Z</time>
      </trkpt>
      <trkpt lat="47.86984" lon="3.76512">
        <ele>138</ele>
        <time>2019-10-26T10:10:10.000Z</time>
      </trkpt>
      <trkpt lat="47.86984" lon="3.76512">
        <ele>138</ele>
        <time>2019-10-26T10:10:11.000Z</time>
      </trkpt>
      <trkpt lat="47.86983" lon="3.76513">
        <ele>138</ele>
        <time>2019-10-26T10:10:12.000Z</time>
      </trkpt>
      <trkpt lat="47.86983" lon="3.76513">
        <ele>138</ele>
        <time>2019-10-26T10:10:13.000Z</time>
      </trkpt>
      <trkpt lat="47.86982" lon="3.76514">
        <ele>138</ele>
        <time>2019-10-26T10:10:14.000Z</time>
      </trkpt>
      <trkpt lat="47.86982" lon="3.76514">
        <ele>138</ele>
        <time>2019-10-26T10:10:15.000Z</time>
      </trkpt>
      <trkpt lat="47.86982" lon="3.76515">
        <ele>138</ele>
        <time>2019-10-26T10:10:16.000Z</time>
      </trkpt>
      <trkpt lat="47.86982" lon="3.76515">
        <ele>138</ele>
        <time>2019-10-26T10:10:17.000Z</time>
      </trkpt>
      <trkpt lat="47.86982" lon="3.76516">
        <ele>138</ele>
        <time>2019-10-26T10:10:18.000Z</time>
      </trkpt>
      <trkpt lat="47.86983" lon="3.76516">
        <ele>138</ele>
        <time>2019-10-26T10:10:19.000Z</time>
      </trkpt>
      <trkpt lat="47.86984" lon="3.76517">
        <ele>138</ele>
        <time>2019-10-26T10:10:20.000Z</time>
      </trkpt>
      <trkpt lat="47.86985" lon="3.76517">
        <ele>138</ele>
        <time>2019-10-26T10:10:21.000Z</time>
      </trkpt>
      <trkpt lat="47.86985" lon="3.76516">
        <ele>138</ele>
        <time>2019-10-26T10:10:22.000Z</time>
      </trkpt>
      <trkpt lat="47.86986" lon="3.76516">
        <ele>138</ele>
        <time>2019-10-26T10:10:23.000Z</time>
      </trkpt>
      <trkpt lat="47.86986" lon="3.76516">
        <ele>138</ele>
        <time>2019-10-26T10:10:24.000Z</time>
      </trkpt>
      <trkpt lat="47.86986" lon="3.76515">
        <ele>138</ele>
        <time>2019-10-26T10:10:25.000Z</time>
      </trkpt>
      <trkpt lat="47.86986" lon="3.76515">
        <ele>138</ele>
        <time>2019-10-26T10:10:26.000Z</time>
      </trkpt>
      <trkpt lat="47.86986" lon="3.76515">
        <ele>138</ele>
        <time>2019-10-26T10:10:27.000Z</time>
      </trkpt>
      <trkpt lat="47.86986" lon="3.76515">
        <ele>138</ele>
        <time>2019-10-26T10:10:28.000Z</time>
      </trkpt>
      <trkpt lat="47.86986" lon="3.76516">
        <ele>139</ele>
        <time>2019-10-26T10:10:29.000Z</time>
      </trkpt>
      <trkpt lat="47.86986" lon="3.76516">
        <ele>139</ele>
        <time>2019-10-26T10:10:30.000Z</time>
      </trkpt>
      <trkpt lat="47.86986" lon="3.76516">
        <ele>139</ele>
        <time>2019-10-26T10:10:31.000Z</time>
      </trkpt>
      <trkpt lat="47.86986" lon="3.76516">
        <ele>139</ele>
        <time>2019-10-26T10:10:32.000Z</time>
      </trkpt>
      <trkpt lat="47.86987" lon="3.76516">
        <ele>139</ele>
        <time>2019-10-26T10:10:33.000Z</time>
      </trkpt>
      <trkpt lat="47.86986" lon="3.76516">
        <ele>139</ele>
        <time>2019-10-26T10:10:34.000Z</time>
      </trkpt>
      <trkpt lat="47.86986" lon="3.76517">
        <ele>139</ele>
        <time>2019-10-26T10:10:35.000Z</time>
      </trkpt>
      <trkpt lat="47.86986" lon="3.76517">
        <ele>139</ele>
        <time>2019-10-26T10:10:36.000Z</time>
      </trkpt>
      <trkpt lat="47.86985" lon="3.76516">
        <ele>139</ele>
        <time>2019-10-26T10:10:37.000Z</time>
      </trkpt>
      <trkpt lat="47.86985" lon="3.76516">
        <ele>139</ele>
        <time>2019-10-26T10:10:38.000Z</time>
      </trkpt>
      <trkpt lat="47.86985" lon="3.76516">
        <ele>139</ele>
        <time>2019-10-26T10:10:39.000Z</time>
      </trkpt>
      <trkpt lat="47.86985" lon="3.76516">
        <ele>139</ele>
        <time>2019-10-26T10:10:40.000Z</time>
      </trkpt>
      <trkpt lat="47.86985" lon="3.76517">
        <ele>139</ele>
        <time>2019-10-26T10:10:41.000Z</time>
      </trkpt>
      <trkpt lat="47.86985" lon="3.76517">
        <ele>139</ele>
        <time>2019-10-26T10:10:42.000Z</time>
      </trkpt>
      <trkpt lat="47.86985" lon="3.76517">
        <ele>139</ele>
        <time>2019-10-26T10:10:43.000Z</time>
      </trkpt>
      <trkpt lat="47.86984" lon="3.76517">
        <ele>139</ele>
        <time>2019-10-26T10:10:44.000Z</time>
      </trkpt>
      <trkpt lat="47.86984" lon="3.76517">
        <ele>140</ele>
        <time>2019-10-26T10:10:45.000Z</time>
      </trkpt>
      <trkpt lat="47.86984" lon="3.76517">
        <ele>140</ele>
        <time>2019-10-26T10:10:46.000Z</time>
      </trkpt>
      <trkpt lat="47.86984" lon="3.76516">
        <ele>140</ele>
        <time>2019-10-26T10:10:47.000Z</time>
      </trkpt>
      <trkpt lat="47.86984" lon="3.76516">
        <ele>140</ele>
        <time>2019-10-26T10:10:48.000Z</time>
      </trkpt>
      <trkpt lat="47.86983" lon="3.76516">
        <ele>140</ele>
        <time>2019-10-26T10:10:49.000Z</time>
      </trkpt>
      <trkpt lat="47.86982" lon="3.76516">
        <ele>140</ele>
        <time>2019-10-26T10:10:50.000Z</time>
      </trkpt>
      <trkpt lat="47.86982" lon="3.76515">
        <ele>140</ele>
        <time>2019-10-26T10:10:51.000Z</time>
      </trkpt>
      <trkpt lat="47.86982" lon="3.76515">
        <ele>140</ele>
        <time>2019-10-26T10:10:52.000Z</time>
      </trkpt>
      <trkpt lat="47.86982" lon="3.76514">
        <ele>140</ele>
        <time>2019-10-26T10:10:53.000Z</time>
      </trkpt>
      <trkpt lat="47.86982" lon="3.76514">
        <ele>140</ele>
        <time>2019-10-26T10:10:54.000Z</time>
      </trkpt>
      <trkpt lat="47.86982" lon="3.76514">
        <ele>141</ele>
        <time>2019-10-26T10:10:55.000Z</time>
      </trkpt>
      <trkpt lat="47.86982" lon="3.76515">
        <ele>141</ele>
        <time>2019-10-26T10:10:56.000Z</time>
      </trkpt>
      <trkpt lat="47.86982" lon="3.76515">
        <ele>141</ele>
        <time>2019-10-26T10:10:57.000Z</time>
      </trkpt>
      <trkpt lat="47.86981" lon="3.76515">
        <ele>141</ele>
        <time>2019-10-26T10:10:58.000Z</time>
      </trkpt>
      <trkpt lat="47.86981" lon="3.76515">
        <ele>141</ele>
        <time>2019-10-26T10:10:59.000Z</time>
      </trkpt>
      <trkpt lat="47.86981" lon="3.76515">
        <ele>141</ele>
        <time>2019-10-26T10:11:00.000Z</time>
      </trkpt>
      <trkpt lat="47.86981" lon="3.76515">
        <ele>141</ele>
        <time>2019-10-26T10:11:01.000Z</time>
      </trkpt>
      <trkpt lat="47.86981" lon="3.76515">
        <ele>141</ele>
        <time>2019-10-26T10:11:02.000Z</time>
      </trkpt>
      <trkpt lat="47.8698" lon="3.76515">
        <ele>141</ele>
        <time>2019-10-26T10:11:03.000Z</time>
      </trkpt>
      <trkpt lat="47.8698" lon="3.76515">
        <ele>141</ele>
        <time>2019-10-26T10:11:04.000Z</time>
      </trkpt>
      <trkpt lat="47.8698" lon="3.76515">
        <ele>141</ele>
        <time>2019-10-26T10:11:05.000Z</time>
      </trkpt>
      <trkpt lat="47.8698" lon="3.76515">
        <ele>141</ele>
        <time>2019-10-26T10:11:06.000Z</time>
      </trkpt>
      <trkpt lat="47.86981" lon="3.76515">
        <ele>141</ele>
        <time>2019-10-26T10:11:07.000Z</time>
      </trkpt>
      <trkpt lat="47.8698" lon="3.76515">
        <ele>141</ele>
        <time>2019-10-26T10:11:08.000Z</time>
      </trkpt>
      <trkpt lat="47.8698" lon="3.76515">
        <ele>141</ele>
        <time>2019-10-26T10:11:09.000Z</time>
      </trkpt>
      <trkpt lat="47.8698" lon="3.76515">
        <ele>141</ele>
        <time>2019-10-26T10:11:10.000Z</time>
      </trkpt>
      <trkpt lat="47.8698" lon="3.76515">
        <ele>141</ele>
        <time>2019-10-26T10:11:11.000Z</time>
      </trkpt>
      <trkpt lat="47.86981" lon="3.76514">
        <ele>141</ele>
        <time>2019-10-26T10:11:12.000Z</time>
      </trkpt>
      <trkpt lat="47.86981" lon="3.76514">
        <ele>141</ele>
        <time>2019-10-26T10:11:13.000Z</time>
      </trkpt>
      <trkpt lat="47.86981" lon="3.76513">
        <ele>141</ele>
        <time>2019-10-26T10:11:14.000Z</time>
      </trkpt>
      <trkpt lat="47.86981" lon="3.76513">
        <ele>141</ele>
        <time>2019-10-26T10:11:15.000Z</time>
      </trkpt>
      <trkpt lat="47.86981" lon="3.76512">
        <ele>141</ele>
        <time>2019-10-26T10:11:16.000Z</time>
      </trkpt>
      <trkpt lat="47.86981" lon="3.76512">
        <ele>141</ele>
        <time>2019-10-26T10:11:17.000Z</time>
      </trkpt>
      <trkpt lat="47.86981" lon="3.76512">
        <ele>141</ele>
        <time>2019-10-26T10:11:18.000Z</time>
      </trkpt>
      <trkpt lat="47.86981" lon="3.76512">
        <ele>141</ele>
        <time>2019-10-26T10:11:19.000Z</time>
      </trkpt>
      <trkpt lat="47.86981" lon="3.76513">
        <ele>141</ele>
        <time>2019-10-26T10:11:20.000Z</time>
      </trkpt>
      <trkpt lat="47.86981" lon="3.76513">
        <ele>141</ele>
        <time>2019-10-26T10:11:21.000Z</time>
      </trkpt>
      <trkpt lat="47.86981" lon="3.76513">
        <ele>141</ele>
        <time>2019-10-26T10:11:22.000Z</time>
      </trkpt>
      <trkpt lat="47.86981" lon="3.76513">
        <ele>141</ele>
        <time>2019-10-26T10:11:23.000Z</time>
      </trkpt>
      <trkpt lat="47.86981" lon="3.76512">
        <ele>141</ele>
        <time>2019-10-26T10:11:24.000Z</time>
      </trkpt>
      <trkpt lat="47.86981" lon="3.76512">
        <ele>141</ele>
        <time>2019-10-26T10:11:25.000Z</time>
      </trkpt>
      <trkpt lat="47.86981" lon="3.76512">
        <ele>141</ele>
        <time>2019-10-26T10:11:26.000Z</time>
      </trkpt>
      <trkpt lat="47.8698" lon="3.76512">
        <ele>141</ele>
        <time>2019-10-26T10:11:27.000Z</time>
      </trkpt>
      <trkpt lat="47.8698" lon="3.76512">
        <ele>141</ele>
        <time>2019-10-26T10:11:28.000Z</time>
      </trkpt>
      <trkpt lat="47.8698" lon="3.76511">
        <ele>141</ele>
        <time>2019-10-26T10:11:29.000Z</time>
      </trkpt>
      <trkpt lat="47.8698" lon="3.7651">
        <ele>141</ele>
        <time>2019-10-26T10:11:30.000Z</time>
      </trkpt>
      <trkpt lat="47.8698" lon="3.7651">
        <ele>141</ele>
        <time>2019-10-26T10:11:31.000Z</time>
      </trkpt>
      <trkpt lat="47.8698" lon="3.7651">
        <ele>141</ele>
        <time>2019-10-26T10:11:32.000Z</time>
      </trkpt>
      <trkpt lat="47.8698" lon="3.76509">
        <ele>141</ele>
        <time>2019-10-26T10:11:33.000Z</time>
      </trkpt>
      <trkpt lat="47.8698" lon="3.7651">
        <ele>141</ele>
        <time>2019-10-26T10:11:34.000Z</time>
      </trkpt>
      <trkpt lat="47.8698" lon="3.7651">
        <ele>141</ele>
        <time>2019-10-26T10:11:35.000Z</time>
      </trkpt>
      <trkpt lat="47.8698" lon="3.7651">
        <ele>141</ele>
        <time>2019-10-26T10:11:36.000Z</time>
      </trkpt>
      <trkpt lat="47.8698" lon="3.7651">
        <ele>141</ele>
        <time>2019-10-26T10:11:37.000Z</time>
      </trkpt>
      <trkpt lat="47.8698" lon="3.76511">
        <ele>141</ele>
        <time>2019-10-26T10:11:38.000Z</time>
      </trkpt>
      <trkpt lat="47.8698" lon="3.76511">
        <ele>142</ele>
        <time>2019-10-26T10:11:39.000Z</time>
      </trkpt>
      <trkpt lat="47.8698" lon="3.76511">
        <ele>142</ele>
        <time>2019-10-26T10:11:40.000Z</time>
      </trkpt>
      <trkpt lat="47.8698" lon="3.76511">
        <ele>142</ele>
        <time>2019-10-26T10:11:41.000Z</time>
      </trkpt>
      <trkpt lat="47.8698" lon="3.76511">
        <ele>142</ele>
        <time>2019-10-26T10:11:42.000Z</time>
      </trkpt>
      <trkpt lat="47.8698" lon="3.76511">
        <ele>142</ele>
        <time>2019-10-26T10:11:43.000Z</time>
      </trkpt>
      <trkpt lat="47.8698" lon="3.76511">
        <ele>142</ele>
        <time>2019-10-26T10:11:44.000Z</time>
      </trkpt>
      <trkpt lat="47.8698" lon="3.7651">
        <ele>142</ele>
        <time>2019-10-26T10:11:45.000Z</time>
      </trkpt>
      <trkpt lat="47.8698" lon="3.76511">
        <ele>142</ele>
        <time>2019-10-26T10:11:46.000Z</time>
      </trkpt>
      <trkpt lat="47.8698" lon="3.7651">
        <ele>142</ele>
        <time>2019-10-26T10:11:47.000Z</time>
      </trkpt>
      <trkpt lat="47.8698" lon="3.7651">
        <ele>142</ele>
        <time>2019-10-26T10:11:48.000Z</time>
      </trkpt>
      <trkpt lat="47.8698" lon="3.7651">
        <ele>142</ele>
        <time>2019-10-26T10:11:49.000Z</time>
      </trkpt>
      <trkpt lat="47.8698" lon="3.7651">
        <ele>142</ele>
        <time>2019-10-26T10:11:50.000Z</time>
      </trkpt>
      <trkpt lat="47.8698" lon="3.7651">
        <ele>141</ele>
        <time>2019-10-26T10:11:51.000Z</time>
      </trkpt>
      <trkpt lat="47.8698" lon="3.7651">
        <ele>141</ele>
        <time>2019-10-26T10:11:52.000Z</time>
      </trkpt>
      <trkpt lat="47.8698" lon="3.7651">
        <ele>141</ele>
        <time>2019-10-26T10:11:53.000Z</time>
      </trkpt>
      <trkpt lat="47.8698" lon="3.7651">
        <ele>141</ele>
        <time>2019-10-26T10:11:54.000Z</time>
      </trkpt>
      <trkpt lat="47.8698" lon="3.76511">
        <ele>141</ele>
        <time>2019-10-26T10:11:55.000Z</time>
      </trkpt>
      <trkpt lat="47.86979" lon="3.76511">
        <ele>141</ele>
        <time>2019-10-26T10:11:56.000Z</time>
      </trkpt>
      <trkpt lat="47.86979" lon="3.76511">
        <ele>141</ele>
        <time>2019-10-26T10:11:57.000Z</time>
      </trkpt>
      <trkpt lat="47.86978" lon="3.76511">
        <ele>141</ele>
        <time>2019-10-26T10:11:58.000Z</time>
      </trkpt>
      <trkpt lat="47.86977" lon="3.76512">
        <ele>141</ele>
        <time>2019-10-26T10:11:59.000Z</time>
      </trkpt>
      <trkpt lat="47.86976" lon="3.76513">
        <ele>141</ele>
        <time>2019-10-26T10:12:00.000Z</time>
      </trkpt>
      <trkpt lat="47.86975" lon="3.76514">
        <ele>141</ele>
        <time>2019-10-26T10:12:01.000Z</time>
      </trkpt>
      <trkpt lat="47.86973" lon="3.76514">
        <ele>141</ele>
        <time>2019-10-26T10:12:02.000Z</time>
      </trkpt>
      <trkpt lat="47.86972" lon="3.76513">
        <ele>141</ele>
        <time>2019-10-26T10:12:03.000Z</time>
      </trkpt>
      <trkpt lat="47.86971" lon="3.76512">
        <ele>141</ele>
        <time>2019-10-26T10:12:04.000Z</time>
      </trkpt>
      <trkpt lat="47.86971" lon="3.7651">
        <ele>141</ele>
        <time>2019-10-26T10:12:05.000Z</time>
      </trkpt>
      <trkpt lat="47.8697" lon="3.76508">
        <ele>141</ele>
        <time>2019-10-26T10:12:06.000Z</time>
      </trkpt>
      <trkpt lat="47.8697" lon="3.76506">
        <ele>141</ele>
        <time>2019-10-26T10:12:07.000Z</time>
      </trkpt>
      <trkpt lat="47.8697" lon="3.76504">
        <ele>141</ele>
        <time>2019-10-26T10:12:08.000Z</time>
      </trkpt>
      <trkpt lat="47.8697" lon="3.76502">
        <ele>141</ele>
        <time>2019-10-26T10:12:09.000Z</time>
      </trkpt>
      <trkpt lat="47.8697" lon="3.765">
        <ele>141</ele>
        <time>2019-10-26T10:12:10.000Z</time>
      </trkpt>
      <trkpt lat="47.8697" lon="3.76498">
        <ele>141</ele>
        <time>2019-10-26T10:12:11.000Z</time>
      </trkpt>
      <trkpt lat="47.8697" lon="3.76496">
        <ele>141</ele>
        <time>2019-10-26T10:12:12.000Z</time>
      </trkpt>
      <trkpt lat="47.8697" lon="3.76493">
        <ele>140</ele>
        <time>2019-10-26T10:12:13.000Z</time>
      </trkpt>
      <trkpt lat="47.8697" lon="3.76491">
        <ele>140</ele>
        <time>2019-10-26T10:12:14.000Z</time>
      </trkpt>
      <trkpt lat="47.8697" lon="3.76489">
        <ele>140</ele>
        <time>2019-10-26T10:12:15.000Z</time>
      </trkpt>
      <trkpt lat="47.8697" lon="3.76486">
        <ele>140</ele>
        <time>2019-10-26T10:12:16.000Z</time>
      </trkpt>
      <trkpt lat="47.8697" lon="3.76484">
        <ele>140</ele>
        <time>2019-10-26T10:12:17.000Z</time>
      </trkpt>
      <trkpt lat="47.8697" lon="3.76482">
        <ele>140</ele>
        <time>2019-10-26T10:12:18.000Z</time>
      </trkpt>
      <trkpt lat="47.8697" lon="3.76479">
        <ele>140</ele>
        <time>2019-10-26T10:12:19.000Z</time>
      </trkpt>
      <trkpt lat="47.86969" lon="3.76477">
        <ele>139</ele>
        <time>2019-10-26T10:12:20.000Z</time>
      </trkpt>
      <trkpt lat="47.86969" lon="3.76475">
        <ele>139</ele>
        <time>2019-10-26T10:12:21.000Z</time>
      </trkpt>
      <trkpt lat="47.86969" lon="3.76472">
        <ele>139</ele>
        <time>2019-10-26T10:12:22.000Z</time>
      </trkpt>
      <trkpt lat="47.86969" lon="3.7647">
        <ele>139</ele>
        <time>2019-10-26T10:12:23.000Z</time>
      </trkpt>
      <trkpt lat="47.86968" lon="3.76468">
        <ele>139</ele>
        <time>2019-10-26T10:12:24.000Z</time>
      </trkpt>
      <trkpt lat="47.86968" lon="3.76466">
        <ele>139</ele>
        <time>2019-10-26T10:12:25.000Z</time>
      </trkpt>
      <trkpt lat="47.86968" lon="3.76463">
        <ele>139</ele>
        <time>2019-10-26T10:12:26.000Z</time>
      </trkpt>
      <trkpt lat="47.86968" lon="3.76461">
        <ele>138</ele>
        <time>2019-10-26T10:12:27.000Z</time>
      </trkpt>
      <trkpt lat="47.86968" lon="3.76458">
        <ele>138</ele>
        <time>2019-10-26T10:12:28.000Z</time>
      </trkpt>
      <trkpt lat="47.86967" lon="3.76456">
        <ele>138</ele>
        <time>2019-10-26T10:12:29.000Z</time>
      </trkpt>
      <trkpt lat="47.86967" lon="3.76454">
        <ele>138</ele>
        <time>2019-10-26T10:12:30.000Z</time>
      </trkpt>
      <trkpt lat="47.86967" lon="3.76451">
        <ele>138</ele>
        <time>2019-10-26T10:12:31.000Z</time>
      </trkpt>
      <trkpt lat="47.86966" lon="3.76449">
        <ele>138</ele>
        <time>2019-10-26T10:12:32.000Z</time>
      </trkpt>
      <trkpt lat="47.86966" lon="3.76447">
        <ele>138</ele>
        <time>2019-10-26T10:12:33.000Z</time>
      </trkpt>
      <trkpt lat="47.86965" lon="3.76444">
        <ele>138</ele>
        <time>2019-10-26T10:12:34.000Z</time>
      </trkpt>
      <trkpt lat="47.86965" lon="3.76441">
        <ele>137</ele>
        <time>2019-10-26T10:12:35.000Z</time>
      </trkpt>
      <trkpt lat="47.86964" lon="3.76438">
        <ele>137</ele>
        <time>2019-10-26T10:12:36.000Z</time>
      </trkpt>
      <trkpt lat="47.86964" lon="3.76434">
        <ele>137</ele>
        <time>2019-10-26T10:12:37.000Z</time>
      </trkpt>
      <trkpt lat="47.86963" lon="3.76431">
        <ele>137</ele>
        <time>2019-10-26T10:12:38.000Z</time>
      </trkpt>
      <trkpt lat="47.86962" lon="3.76427">
        <ele>137</ele>
        <time>2019-10-26T10:12:39.000Z</time>
      </trkpt>
      <trkpt lat="47.86962" lon="3.76424">
        <ele>137</ele>
        <time>2019-10-26T10:12:40.000Z</time>
      </trkpt>
      <trkpt lat="47.86961" lon="3.7642">
        <ele>137</ele>
        <time>2019-10-26T10:12:41.000Z</time>
      </trkpt>
      <trkpt lat="47.8696" lon="3.76417">
        <ele>137</ele>
        <time>2019-10-26T10:12:42.000Z</time>
      </trkpt>
      <trkpt lat="47.86959" lon="3.76414">
        <ele>137</ele>
        <time>2019-10-26T10:12:43.000Z</time>
      </trkpt>
      <trkpt lat="47.86958" lon="3.7641">
        <ele>137</ele>
        <time>2019-10-26T10:12:44.000Z</time>
      </trkpt>
      <trkpt lat="47.86957" lon="3.76407">
        <ele>137</ele>
        <time>2019-10-26T10:12:45.000Z</time>
      </trkpt>
      <trkpt lat="47.86955" lon="3.76405">
        <ele>136</ele>
        <time>2019-10-26T10:12:46.000Z</time>
      </trkpt>
      <trkpt lat="47.86954" lon="3.76403">
        <ele>136</ele>
        <time>2019-10-26T10:12:47.000Z</time>
      </trkpt>
      <trkpt lat="47.86952" lon="3.76402">
        <ele>136</ele>
        <time>2019-10-26T10:12:48.000Z</time>
      </trkpt>
      <trkpt lat="47.86949" lon="3.76402">
        <ele>136</ele>
        <time>2019-10-26T10:12:49.000Z</time>
      </trkpt>
      <trkpt lat="47.86947" lon="3.76403">
        <ele>136</ele>
        <time>2019-10-26T10:12:50.000Z</time>
      </trkpt>
      <trkpt lat="47.86945" lon="3.76404">
        <ele>136</ele>
        <time>2019-10-26T10:12:51.000Z</time>
      </trkpt>
      <trkpt lat="47.86943" lon="3.76406">
        <ele>136</ele>
        <time>2019-10-26T10:12:52.000Z</time>
      </trkpt>
      <trkpt lat="47.8694" lon="3.76408">
        <ele>135</ele>
        <time>2019-10-26T10:12:53.000Z</time>
      </trkpt>
      <trkpt lat="47.86938" lon="3.7641">
        <ele>135</ele>
        <time>2019-10-26T10:12:54.000Z</time>
      </trkpt>
      <trkpt lat="47.86936" lon="3.76412">
        <ele>135</ele>
        <time>2019-10-26T10:12:55.000Z</time>
      </trkpt>
      <trkpt lat="47.86934" lon="3.76414">
        <ele>135</ele>
        <time>2019-10-26T10:12:56.000Z</time>
      </trkpt>
      <trkpt lat="47.86932" lon="3.76417">
        <ele>135</ele>
        <time>2019-10-26T10:12:57.000Z</time>
      </trkpt>
      <trkpt lat="47.8693" lon="3.7642">
        <ele>135</ele>
        <time>2019-10-26T10:12:58.000Z</time>
      </trkpt>
      <trkpt lat="47.86929" lon="3.76424">
        <ele>135</ele>
        <time>2019-10-26T10:12:59.000Z</time>
      </trkpt>
      <trkpt lat="47.86928" lon="3.76428">
        <ele>135</ele>
        <time>2019-10-26T10:13:00.000Z</time>
      </trkpt>
      <trkpt lat="47.86927" lon="3.76432">
        <ele>135</ele>
        <time>2019-10-26T10:13:01.000Z</time>
      </trkpt>
      <trkpt lat="47.86927" lon="3.76436">
        <ele>135</ele>
        <time>2019-10-26T10:13:02.000Z</time>
      </trkpt>
      <trkpt lat="47.86928" lon="3.76439">
        <ele>135</ele>
        <time>2019-10-26T10:13:03.000Z</time>
      </trkpt>
      <trkpt lat="47.86928" lon="3.76443">
        <ele>134</ele>
        <time>2019-10-26T10:13:04.000Z</time>
      </trkpt>
      <trkpt lat="47.86928" lon="3.76447">
        <ele>134</ele>
        <time>2019-10-26T10:13:05.000Z</time>
      </trkpt>
      <trkpt lat="47.86929" lon="3.76451">
        <ele>134</ele>
        <time>2019-10-26T10:13:06.000Z</time>
      </trkpt>
      <trkpt lat="47.86929" lon="3.76455">
        <ele>134</ele>
        <time>2019-10-26T10:13:07.000Z</time>
      </trkpt>
      <trkpt lat="47.8693" lon="3.76459">
        <ele>134</ele>
        <time>2019-10-26T10:13:08.000Z</time>
      </trkpt>
      <trkpt lat="47.8693" lon="3.76462">
        <ele>134</ele>
        <time>2019-10-26T10:13:09.000Z</time>
      </trkpt>
      <trkpt lat="47.8693" lon="3.76466">
        <ele>134</ele>
        <time>2019-10-26T10:13:10.000Z</time>
      </trkpt>
      <trkpt lat="47.86931" lon="3.7647">
        <ele>134</ele>
        <time>2019-10-26T10:13:11.000Z</time>
      </trkpt>
      <trkpt lat="47.86931" lon="3.76474">
        <ele>134</ele>
        <time>2019-10-26T10:13:12.000Z</time>
      </trkpt>
      <trkpt lat="47.86931" lon="3.76478">
        <ele>134</ele>
        <time>2019-10-26T10:13:13.000Z</time>
      </trkpt>
      <trkpt lat="47.86931" lon="3.76483">
        <ele>134</ele>
        <time>2019-10-26T10:13:14.000Z</time>
      </trkpt>
      <trkpt lat="47.86931" lon="3.76487">
        <ele>134</ele>
        <time>2019-10-26T10:13:15.000Z</time>
      </trkpt>
      <trkpt lat="47.86932" lon="3.76491">
        <ele>134</ele>
        <time>2019-10-26T10:13:16.000Z</time>
      </trkpt>
      <trkpt lat="47.86932" lon="3.76495">
        <ele>135</ele>
        <time>2019-10-26T10:13:17.000Z</time>
      </trkpt>
      <trkpt lat="47.86932" lon="3.76498">
        <ele>135</ele>
        <time>2019-10-26T10:13:18.000Z</time>
      </trkpt>
      <trkpt lat="47.86932" lon="3.76502">
        <ele>135</ele>
        <time>2019-10-26T10:13:19.000Z</time>
      </trkpt>
      <trkpt lat="47.86932" lon="3.76506">
        <ele>135</ele>
        <time>2019-10-26T10:13:20.000Z</time>
      </trkpt>
      <trkpt lat="47.86932" lon="3.76509">
        <ele>135</ele>
        <time>2019-10-26T10:13:21.000Z</time>
      </trkpt>
      <trkpt lat="47.86932" lon="3.76513">
        <ele>135</ele>
        <time>2019-10-26T10:13:22.000Z</time>
      </trkpt>
      <trkpt lat="47.86932" lon="3.76516">
        <ele>135</ele>
        <time>2019-10-26T10:13:23.000Z</time>
      </trkpt>
      <trkpt lat="47.86932" lon="3.7652">
        <ele>135</ele>
        <time>2019-10-26T10:13:24.000Z</time>
      </trkpt>
      <trkpt lat="47.86932" lon="3.76524">
        <ele>135</ele>
        <time>2019-10-26T10:13:25.000Z</time>
      </trkpt>
      <trkpt lat="47.86932" lon="3.76527">
        <ele>135</ele>
        <time>2019-10-26T10:13:26.000Z</time>
      </trkpt>
      <trkpt lat="47.86932" lon="3.76531">
        <ele>135</ele>
        <time>2019-10-26T10:13:27.000Z</time>
      </trkpt>
      <trkpt lat="47.86932" lon="3.76534">
        <ele>135</ele>
        <time>2019-10-26T10:13:28.000Z</time>
      </trkpt>
      <trkpt lat="47.86932" lon="3.76537">
        <ele>135</ele>
        <time>2019-10-26T10:13:29.000Z</time>
      </trkpt>
      <trkpt lat="47.86931" lon="3.76541">
        <ele>136</ele>
        <time>2019-10-26T10:13:30.000Z</time>
      </trkpt>
      <trkpt lat="47.86931" lon="3.76544">
        <ele>136</ele>
        <time>2019-10-26T10:13:31.000Z</time>
      </trkpt>
      <trkpt lat="47.86931" lon="3.76548">
        <ele>136</ele>
        <time>2019-10-26T10:13:32.000Z</time>
      </trkpt>
      <trkpt lat="47.86931" lon="3.76551">
        <ele>136</ele>
        <time>2019-10-26T10:13:33.000Z</time>
      </trkpt>
      <trkpt lat="47.8693" lon="3.76555">
        <ele>136</ele>
        <time>2019-10-26T10:13:34.000Z</time>
      </trkpt>
      <trkpt lat="47.8693" lon="3.76558">
        <ele>136</ele>
        <time>2019-10-26T10:13:35.000Z</time>
      </trkpt>
      <trkpt lat="47.8693" lon="3.76562">
        <ele>136</ele>
        <time>2019-10-26T10:13:36.000Z</time>
      </trkpt>
      <trkpt lat="47.86929" lon="3.76565">
        <ele>137</ele>
        <time>2019-10-26T10:13:37.000Z</time>
      </trkpt>
      <trkpt lat="47.86928" lon="3.76568">
        <ele>137</ele>
        <time>2019-10-26T10:13:38.000Z</time>
      </trkpt>
      <trkpt lat="47.86927" lon="3.76571">
        <ele>137</ele>
        <time>2019-10-26T10:13:39.000Z</time>
      </trkpt>
      <trkpt lat="47.86925" lon="3.76573">
        <ele>137</ele>
        <time>2019-10-26T10:13:40.000Z</time>
      </trkpt>
      <trkpt lat="47.86923" lon="3.76575">
        <ele>137</ele>
        <time>2019-10-26T10:13:41.000Z</time>
      </trkpt>
      <trkpt lat="47.86921" lon="3.76577">
        <ele>137</ele>
        <time>2019-10-26T10:13:42.000Z</time>
      </trkpt>
      <trkpt lat="47.86919" lon="3.76579">
        <ele>137</ele>
        <time>2019-10-26T10:13:43.000Z</time>
      </trkpt>
      <trkpt lat="47.86917" lon="3.7658">
        <ele>137</ele>
        <time>2019-10-26T10:13:44.000Z</time>
      </trkpt>
      <trkpt lat="47.86914" lon="3.76581">
        <ele>137</ele>
        <time>2019-10-26T10:13:45.000Z</time>
      </trkpt>
      <trkpt lat="47.86912" lon="3.76582">
        <ele>137</ele>
        <time>2019-10-26T10:13:46.000Z</time>
      </trkpt>
      <trkpt lat="47.8691" lon="3.76583">
        <ele>138</ele>
        <time>2019-10-26T10:13:47.000Z</time>
      </trkpt>
      <trkpt lat="47.86907" lon="3.76584">
        <ele>138</ele>
        <time>2019-10-26T10:13:48.000Z</time>
      </trkpt>
      <trkpt lat="47.86905" lon="3.76584">
        <ele>138</ele>
        <time>2019-10-26T10:13:49.000Z</time>
      </trkpt>
      <trkpt lat="47.86903" lon="3.76585">
        <ele>138</ele>
        <time>2019-10-26T10:13:50.000Z</time>
      </trkpt>
      <trkpt lat="47.86901" lon="3.76586">
        <ele>138</ele>
        <time>2019-10-26T10:13:51.000Z</time>
      </trkpt>
      <trkpt lat="47.86898" lon="3.76587">
        <ele>138</ele>
        <time>2019-10-26T10:13:52.000Z</time>
      </trkpt>
      <trkpt lat="47.86896" lon="3.76588">
        <ele>138</ele>
        <time>2019-10-26T10:13:53.000Z</time>
      </trkpt>
      <trkpt lat="47.86894" lon="3.76588">
        <ele>138</ele>
        <time>2019-10-26T10:13:54.000Z</time>
      </trkpt>
      <trkpt lat="47.86892" lon="3.76589">
        <ele>138</ele>
        <time>2019-10-26T10:13:55.000Z</time>
      </trkpt>
      <trkpt lat="47.8689" lon="3.7659">
        <ele>138</ele>
        <time>2019-10-26T10:13:56.000Z</time>
      </trkpt>
      <trkpt lat="47.86887" lon="3.7659">
        <ele>139</ele>
        <time>2019-10-26T10:13:57.000Z</time>
      </trkpt>
      <trkpt lat="47.86885" lon="3.76591">
        <ele>139</ele>
        <time>2019-10-26T10:13:58.000Z</time>
      </trkpt>
      <trkpt lat="47.86883" lon="3.76592">
        <ele>139</ele>
        <time>2019-10-26T10:13:59.000Z</time>
      </trkpt>
      <trkpt lat="47.8688" lon="3.76593">
        <ele>139</ele>
        <time>2019-10-26T10:14:00.000Z</time>
      </trkpt>
      <trkpt lat="47.86878" lon="3.76594">
        <ele>139</ele>
        <time>2019-10-26T10:14:01.000Z</time>
      </trkpt>
      <trkpt lat="47.86876" lon="3.76594">
        <ele>139</ele>
        <time>2019-10-26T10:14:02.000Z</time>
      </trkpt>
      <trkpt lat="47.86873" lon="3.76595">
        <ele>139</ele>
        <time>2019-10-26T10:14:03.000Z</time>
      </trkpt>
      <trkpt lat="47.86871" lon="3.76596">
        <ele>139</ele>
        <time>2019-10-26T10:14:04.000Z</time>
      </trkpt>
      <trkpt lat="47.86869" lon="3.76596">
        <ele>139</ele>
        <time>2019-10-26T10:14:05.000Z</time>
      </trkpt>
      <trkpt lat="47.86867" lon="3.76597">
        <ele>139</ele>
        <time>2019-10-26T10:14:06.000Z</time>
      </trkpt>
      <trkpt lat="47.86865" lon="3.76598">
        <ele>139</ele>
        <time>2019-10-26T10:14:07.000Z</time>
      </trkpt>
      <trkpt lat="47.86863" lon="3.76599">
        <ele>139</ele>
        <time>2019-10-26T10:14:08.000Z</time>
      </trkpt>
      <trkpt lat="47.86861" lon="3.766">
        <ele>139</ele>
        <time>2019-10-26T10:14:09.000Z</time>
      </trkpt>
      <trkpt lat="47.86859" lon="3.766">
        <ele>139</ele>
        <time>2019-10-26T10:14:10.000Z</time>
      </trkpt>
      <trkpt lat="47.86857" lon="3.76601">
        <ele>140</ele>
        <time>2019-10-26T10:14:11.000Z</time>
      </trkpt>
      <trkpt lat="47.86855" lon="3.76602">
        <ele>140</ele>
        <time>2019-10-26T10:14:12.000Z</time>
      </trkpt>
      <trkpt lat="47.86853" lon="3.76603">
        <ele>140</ele>
        <time>2019-10-26T10:14:13.000Z</time>
      </trkpt>
      <trkpt lat="47.86851" lon="3.76603">
        <ele>140</ele>
        <time>2019-10-26T10:14:14.000Z</time>
      </trkpt>
      <trkpt lat="47.86849" lon="3.76604">
        <ele>140</ele>
        <time>2019-10-26T10:14:15.000Z</time>
      </trkpt>
      <trkpt lat="47.86847" lon="3.76604">
        <ele>140</ele>
        <time>2019-10-26T10:14:16.000Z</time>
      </trkpt>
      <trkpt lat="47.86845" lon="3.76605">
        <ele>140</ele>
        <time>2019-10-26T10:14:17.000Z</time>
      </trkpt>
      <trkpt lat="47.86843" lon="3.76606">
        <ele>140</ele>
        <time>2019-10-26T10:14:18.000Z</time>
      </trkpt>
      <trkpt lat="47.8684" lon="3.76607">
        <ele>140</ele>
        <time>2019-10-26T10:14:19.000Z</time>
      </trkpt>
      <trkpt lat="47.86838" lon="3.76607">
        <ele>140</ele>
        <time>2019-10-26T10:14:20.000Z</time>
      </trkpt>
      <trkpt lat="47.86836" lon="3.76608">
        <ele>140</ele>
        <time>2019-10-26T10:14:21.000Z</time>
      </trkpt>
      <trkpt lat="47.86834" lon="3.76608">
        <ele>140</ele>
        <time>2019-10-26T10:14:22.000Z</time>
      </trkpt>
      <trkpt lat="47.86832" lon="3.76609">
        <ele>141</ele>
        <time>2019-10-26T10:14:23.000Z</time>
      </trkpt>
      <trkpt lat="47.8683" lon="3.76609">
        <ele>141</ele>
        <time>2019-10-26T10:14:24.000Z</time>
      </trkpt>
      <trkpt lat="47.86828" lon="3.7661">
        <ele>141</ele>
        <time>2019-10-26T10:14:25.000Z</time>
      </trkpt>
      <trkpt lat="47.86826" lon="3.7661">
        <ele>141</ele>
        <time>2019-10-26T10:14:26.000Z</time>
      </trkpt>
      <trkpt lat="47.86824" lon="3.76611">
        <ele>141</ele>
        <time>2019-10-26T10:14:27.000Z</time>
      </trkpt>
      <trkpt lat="47.86822" lon="3.76611">
        <ele>141</ele>
        <time>2019-10-26T10:14:28.000Z</time>
      </trkpt>
      <trkpt lat="47.8682" lon="3.76612">
        <ele>141</ele>
        <time>2019-10-26T10:14:29.000Z</time>
      </trkpt>
      <trkpt lat="47.86818" lon="3.76613">
        <ele>141</ele>
        <time>2019-10-26T10:14:30.000Z</time>
      </trkpt>
      <trkpt lat="47.86816" lon="3.76613">
        <ele>141</ele>
        <time>2019-10-26T10:14:31.000Z</time>
      </trkpt>
      <trkpt lat="47.86814" lon="3.76614">
        <ele>141</ele>
        <time>2019-10-26T10:14:32.000Z</time>
      </trkpt>
      <trkpt lat="47.86811" lon="3.76614">
        <ele>141</ele>
        <time>2019-10-26T10:14:33.000Z</time>
      </trkpt>
      <trkpt lat="47.86809" lon="3.76615">
        <ele>141</ele>
        <time>2019-10-26T10:14:34.000Z</time>
      </trkpt>
      <trkpt lat="47.86807" lon="3.76616">
        <ele>141</ele>
        <time>2019-10-26T10:14:35.000Z</time>
      </trkpt>
      <trkpt lat="47.86804" lon="3.76617">
        <ele>141</ele>
        <time>2019-10-26T10:14:36.000Z</time>
      </trkpt>
      <trkpt lat="47.86802" lon="3.76617">
        <ele>141</ele>
        <time>2019-10-26T10:14:37.000Z</time>
      </trkpt>
      <trkpt lat="47.868" lon="3.76618">
        <ele>141</ele>
        <time>2019-10-26T10:14:38.000Z</time>
      </trkpt>
      <trkpt lat="47.86798" lon="3.76618">
        <ele>141</ele>
        <time>2019-10-26T10:14:39.000Z</time>
      </trkpt>
      <trkpt lat="47.86795" lon="3.76619">
        <ele>141</ele>
        <time>2019-10-26T10:14:40.000Z</time>
      </trkpt>
      <trkpt lat="47.86793" lon="3.7662">
        <ele>141</ele>
        <time>2019-10-26T10:14:41.000Z</time>
      </trkpt>
      <trkpt lat="47.86791" lon="3.76621">
        <ele>141</ele>
        <time>2019-10-26T10:14:42.000Z</time>
      </trkpt>
      <trkpt lat="47.86788" lon="3.76622">
        <ele>141</ele>
        <time>2019-10-26T10:14:43.000Z</time>
      </trkpt>
      <trkpt lat="47.86786" lon="3.76622">
        <ele>141</ele>
        <time>2019-10-26T10:14:44.000Z</time>
      </trkpt>
      <trkpt lat="47.86783" lon="3.76623">
        <ele>141</ele>
        <time>2019-10-26T10:14:45.000Z</time>
      </trkpt>
      <trkpt lat="47.86781" lon="3.76624">
        <ele>141</ele>
        <time>2019-10-26T10:14:46.000Z</time>
      </trkpt>
      <trkpt lat="47.86779" lon="3.76625">
        <ele>142</ele>
        <time>2019-10-26T10:14:47.000Z</time>
      </trkpt>
      <trkpt lat="47.86777" lon="3.76626">
        <ele>142</ele>
        <time>2019-10-26T10:14:48.000Z</time>
      </trkpt>
      <trkpt lat="47.86774" lon="3.76628">
        <ele>142</ele>
        <time>2019-10-26T10:14:49.000Z</time>
      </trkpt>
      <trkpt lat="47.86772" lon="3.76629">
        <ele>142</ele>
        <time>2019-10-26T10:14:50.000Z</time>
      </trkpt>
      <trkpt lat="47.8677" lon="3.76631">
        <ele>142</ele>
        <time>2019-10-26T10:14:51.000Z</time>
      </trkpt>
      <trkpt lat="47.86767" lon="3.76632">
        <ele>142</ele>
        <time>2019-10-26T10:14:52.000Z</time>
      </trkpt>
      <trkpt lat="47.86765" lon="3.76634">
        <ele>142</ele>
        <time>2019-10-26T10:14:53.000Z</time>
      </trkpt>
      <trkpt lat="47.86763" lon="3.76635">
        <ele>142</ele>
        <time>2019-10-26T10:14:54.000Z</time>
      </trkpt>
      <trkpt lat="47.8676" lon="3.76637">
        <ele>142</ele>
        <time>2019-10-26T10:14:55.000Z</time>
      </trkpt>
      <trkpt lat="47.86758" lon="3.76638">
        <ele>142</ele>
        <time>2019-10-26T10:14:56.000Z</time>
      </trkpt>
      <trkpt lat="47.86756" lon="3.76639">
        <ele>142</ele>
        <time>2019-10-26T10:14:57.000Z</time>
      </trkpt>
      <trkpt lat="47.86754" lon="3.7664">
        <ele>143</ele>
        <time>2019-10-26T10:14:58.000Z</time>
      </trkpt>
      <trkpt lat="47.86752" lon="3.76642">
        <ele>143</ele>
        <time>2019-10-26T10:14:59.000Z</time>
      </trkpt>
      <trkpt lat="47.8675" lon="3.76643">
        <ele>143</ele>
        <time>2019-10-26T10:15:00.000Z</time>
      </trkpt>
      <trkpt lat="47.86747" lon="3.76644">
        <ele>143</ele>
        <time>2019-10-26T10:15:01.000Z</time>
      </trkpt>
      <trkpt lat="47.86745" lon="3.76645">
        <ele>143</ele>
        <time>2019-10-26T10:15:02.000Z</time>
      </trkpt>
      <trkpt lat="47.86743" lon="3.76646">
        <ele>143</ele>
        <time>2019-10-26T10:15:03.000Z</time>
      </trkpt>
      <trkpt lat="47.86741" lon="3.76647">
        <ele>143</ele>
        <time>2019-10-26T10:15:04.000Z</time>
      </trkpt>
      <trkpt lat="47.86739" lon="3.76649">
        <ele>143</ele>
        <time>2019-10-26T10:15:05.000Z</time>
      </trkpt>
      <trkpt lat="47.86736" lon="3.7665">
        <ele>143</ele>
        <time>2019-10-26T10:15:06.000Z</time>
      </trkpt>
      <trkpt lat="47.86734" lon="3.76651">
        <ele>144</ele>
        <time>2019-10-26T10:15:07.000Z</time>
      </trkpt>
      <trkpt lat="47.86732" lon="3.76653">
        <ele>144</ele>
        <time>2019-10-26T10:15:08.000Z</time>
      </trkpt>
      <trkpt lat="47.8673" lon="3.76654">
        <ele>144</ele>
        <time>2019-10-26T10:15:09.000Z</time>
      </trkpt>
      <trkpt lat="47.86727" lon="3.76655">
        <ele>144</ele>
        <time>2019-10-26T10:15:10.000Z</time>
      </trkpt>
      <trkpt lat="47.86725" lon="3.76656">
        <ele>144</ele>
        <time>2019-10-26T10:15:11.000Z</time>
      </trkpt>
      <trkpt lat="47.86723" lon="3.76658">
        <ele>144</ele>
        <time>2019-10-26T10:15:12.000Z</time>
      </trkpt>
      <trkpt lat="47.86721" lon="3.76659">
        <ele>144</ele>
        <time>2019-10-26T10:15:13.000Z</time>
      </trkpt>
      <trkpt lat="47.86718" lon="3.76659">
        <ele>144</ele>
        <time>2019-10-26T10:15:14.000Z</time>
      </trkpt>
      <trkpt lat="47.86716" lon="3.7666">
        <ele>144</ele>
        <time>2019-10-26T10:15:15.000Z</time>
      </trkpt>
      <trkpt lat="47.86714" lon="3.76661">
        <ele>144</ele>
        <time>2019-10-26T10:15:16.000Z</time>
      </trkpt>
      <trkpt lat="47.86711" lon="3.76661">
        <ele>144</ele>
        <time>2019-10-26T10:15:17.000Z</time>
      </trkpt>
      <trkpt lat="47.86709" lon="3.76661">
        <ele>144</ele>
        <time>2019-10-26T10:15:18.000Z</time>
      </trkpt>
      <trkpt lat="47.86706" lon="3.76662">
        <ele>144</ele>
        <time>2019-10-26T10:15:19.000Z</time>
      </trkpt>
      <trkpt lat="47.86704" lon="3.76662">
        <ele>144</ele>
        <time>2019-10-26T10:15:20.000Z</time>
      </trkpt>
      <trkpt lat="47.86701" lon="3.76661">
        <ele>144</ele>
        <time>2019-10-26T10:15:21.000Z</time>
      </trkpt>
      <trkpt lat="47.86698" lon="3.76661">
        <ele>144</ele>
        <time>2019-10-26T10:15:22.000Z</time>
      </trkpt>
      <trkpt lat="47.86696" lon="3.76661">
        <ele>144</ele>
        <time>2019-10-26T10:15:23.000Z</time>
      </trkpt>
      <trkpt lat="47.86693" lon="3.7666">
        <ele>144</ele>
        <time>2019-10-26T10:15:24.000Z</time>
      </trkpt>
      <trkpt lat="47.86691" lon="3.7666">
        <ele>144</ele>
        <time>2019-10-26T10:15:25.000Z</time>
      </trkpt>
      <trkpt lat="47.86688" lon="3.7666">
        <ele>144</ele>
        <time>2019-10-26T10:15:26.000Z</time>
      </trkpt>
      <trkpt lat="47.86686" lon="3.7666">
        <ele>144</ele>
        <time>2019-10-26T10:15:27.000Z</time>
      </trkpt>
      <trkpt lat="47.86683" lon="3.7666">
        <ele>144</ele>
        <time>2019-10-26T10:15:28.000Z</time>
      </trkpt>
      <trkpt lat="47.86681" lon="3.76659">
        <ele>143</ele>
        <time>2019-10-26T10:15:29.000Z</time>
      </trkpt>
      <trkpt lat="47.86678" lon="3.76659">
        <ele>143</ele>
        <time>2019-10-26T10:15:30.000Z</time>
      </trkpt>
      <trkpt lat="47.86676" lon="3.76659">
        <ele>143</ele>
        <time>2019-10-26T10:15:31.000Z</time>
      </trkpt>
      <trkpt lat="47.86673" lon="3.76658">
        <ele>143</ele>
        <time>2019-10-26T10:15:32.000Z</time>
      </trkpt>
      <trkpt lat="47.86671" lon="3.76658">
        <ele>143</ele>
        <time>2019-10-26T10:15:33.000Z</time>
      </trkpt>
      <trkpt lat="47.86668" lon="3.76657">
        <ele>143</ele>
        <time>2019-10-26T10:15:34.000Z</time>
      </trkpt>
      <trkpt lat="47.86666" lon="3.76657">
        <ele>143</ele>
        <time>2019-10-26T10:15:35.000Z</time>
      </trkpt>
      <trkpt lat="47.86664" lon="3.76656">
        <ele>143</ele>
        <time>2019-10-26T10:15:36.000Z</time>
      </trkpt>
      <trkpt lat="47.86661" lon="3.76656">
        <ele>143</ele>
        <time>2019-10-26T10:15:37.000Z</time>
      </trkpt>
      <trkpt lat="47.86659" lon="3.76656">
        <ele>143</ele>
        <time>2019-10-26T10:15:38.000Z</time>
      </trkpt>
      <trkpt lat="47.86656" lon="3.76656">
        <ele>142</ele>
        <time>2019-10-26T10:15:39.000Z</time>
      </trkpt>
      <trkpt lat="47.86654" lon="3.76655">
        <ele>142</ele>
        <time>2019-10-26T10:15:40.000Z</time>
      </trkpt>
      <trkpt lat="47.86652" lon="3.76655">
        <ele>142</ele>
        <time>2019-10-26T10:15:41.000Z</time>
      </trkpt>
      <trkpt lat="47.86649" lon="3.76655">
        <ele>142</ele>
        <time>2019-10-26T10:15:42.000Z</time>
      </trkpt>
      <trkpt lat="47.86647" lon="3.76654">
        <ele>142</ele>
        <time>2019-10-26T10:15:43.000Z</time>
      </trkpt>
      <trkpt lat="47.86644" lon="3.76654">
        <ele>142</ele>
        <time>2019-10-26T10:15:44.000Z</time>
      </trkpt>
      <trkpt lat="47.86642" lon="3.76654">
        <ele>142</ele>
        <time>2019-10-26T10:15:45.000Z</time>
      </trkpt>
      <trkpt lat="47.86639" lon="3.76653">
        <ele>142</ele>
        <time>2019-10-26T10:15:46.000Z</time>
      </trkpt>
      <trkpt lat="47.86637" lon="3.76652">
        <ele>142</ele>
        <time>2019-10-26T10:15:47.000Z</time>
      </trkpt>
      <trkpt lat="47.86634" lon="3.76652">
        <ele>142</ele>
        <time>2019-10-26T10:15:48.000Z</time>
      </trkpt>
      <trkpt lat="47.86632" lon="3.76651">
        <ele>142</ele>
        <time>2019-10-26T10:15:49.000Z</time>
      </trkpt>
      <trkpt lat="47.8663" lon="3.7665">
        <ele>142</ele>
        <time>2019-10-26T10:15:50.000Z</time>
      </trkpt>
      <trkpt lat="47.86627" lon="3.76649">
        <ele>142</ele>
        <time>2019-10-26T10:15:51.000Z</time>
      </trkpt>
      <trkpt lat="47.86625" lon="3.76649">
        <ele>142</ele>
        <time>2019-10-26T10:15:52.000Z</time>
      </trkpt>
      <trkpt lat="47.86622" lon="3.76648">
        <ele>142</ele>
        <time>2019-10-26T10:15:53.000Z</time>
      </trkpt>
      <trkpt lat="47.8662" lon="3.76647">
        <ele>142</ele>
        <time>2019-10-26T10:15:54.000Z</time>
      </trkpt>
      <trkpt lat="47.86618" lon="3.76646">
        <ele>142</ele>
        <time>2019-10-26T10:15:55.000Z</time>
      </trkpt>
      <trkpt lat="47.86615" lon="3.76646">
        <ele>142</ele>
        <time>2019-10-26T10:15:56.000Z</time>
      </trkpt>
      <trkpt lat="47.86613" lon="3.76646">
        <ele>142</ele>
        <time>2019-10-26T10:15:57.000Z</time>
      </trkpt>
      <trkpt lat="47.8661" lon="3.76645">
        <ele>142</ele>
        <time>2019-10-26T10:15:58.000Z</time>
      </trkpt>
      <trkpt lat="47.86608" lon="3.76644">
        <ele>142</ele>
        <time>2019-10-26T10:15:59.000Z</time>
      </trkpt>
      <trkpt lat="47.86605" lon="3.76644">
        <ele>142</ele>
        <time>2019-10-26T10:16:00.000Z</time>
      </trkpt>
      <trkpt lat="47.86602" lon="3.76643">
        <ele>142</ele>
        <time>2019-10-26T10:16:01.000Z</time>
      </trkpt>
      <trkpt lat="47.866" lon="3.76643">
        <ele>142</ele>
        <time>2019-10-26T10:16:02.000Z</time>
      </trkpt>
      <trkpt lat="47.86598" lon="3.76642">
        <ele>142</ele>
        <time>2019-10-26T10:16:03.000Z</time>
      </trkpt>
      <trkpt lat="47.86595" lon="3.76641">
        <ele>142</ele>
        <time>2019-10-26T10:16:04.000Z</time>
      </trkpt>
      <trkpt lat="47.86593" lon="3.76641">
        <ele>142</ele>
        <time>2019-10-26T10:16:05.000Z</time>
      </trkpt>
      <trkpt lat="47.8659" lon="3.7664">
        <ele>142</ele>
        <time>2019-10-26T10:16:06.000Z</time>
      </trkpt>
      <trkpt lat="47.86588" lon="3.7664">
        <ele>142</ele>
        <time>2019-10-26T10:16:07.000Z</time>
      </trkpt>
      <trkpt lat="47.86585" lon="3.76639">
        <ele>142</ele>
        <time>2019-10-26T10:16:08.000Z</time>
      </trkpt>
      <trkpt lat="47.86583" lon="3.76638">
        <ele>141</ele>
        <time>2019-10-26T10:16:09.000Z</time>
      </trkpt>
      <trkpt lat="47.86581" lon="3.76638">
        <ele>141</ele>
        <time>2019-10-26T10:16:10.000Z</time>
      </trkpt>
      <trkpt lat="47.86578" lon="3.76637">
        <ele>141</ele>
        <time>2019-10-26T10:16:11.000Z</time>
      </trkpt>
      <trkpt lat="47.86576" lon="3.76637">
        <ele>141</ele>
        <time>2019-10-26T10:16:12.000Z</time>
      </trkpt>
      <trkpt lat="47.86573" lon="3.76636">
        <ele>141</ele>
        <time>2019-10-26T10:16:13.000Z</time>
      </trkpt>
      <trkpt lat="47.8657" lon="3.76636">
        <ele>141</ele>
        <time>2019-10-26T10:16:14.000Z</time>
      </trkpt>
      <trkpt lat="47.86568" lon="3.76636">
        <ele>141</ele>
        <time>2019-10-26T10:16:15.000Z</time>
      </trkpt>
      <trkpt lat="47.86565" lon="3.76635">
        <ele>141</ele>
        <time>2019-10-26T10:16:16.000Z</time>
      </trkpt>
      <trkpt lat="47.86563" lon="3.76635">
        <ele>141</ele>
        <time>2019-10-26T10:16:17.000Z</time>
      </trkpt>
      <trkpt lat="47.8656" lon="3.76635">
        <ele>141</ele>
        <time>2019-10-26T10:16:18.000Z</time>
      </trkpt>
      <trkpt lat="47.86557" lon="3.76634">
        <ele>141</ele>
        <time>2019-10-26T10:16:19.000Z</time>
      </trkpt>
      <trkpt lat="47.86555" lon="3.76634">
        <ele>141</ele>
        <time>2019-10-26T10:16:20.000Z</time>
      </trkpt>
      <trkpt lat="47.86552" lon="3.76634">
        <ele>141</ele>
        <time>2019-10-26T10:16:21.000Z</time>
      </trkpt>
      <trkpt lat="47.86549" lon="3.76633">
        <ele>141</ele>
        <time>2019-10-26T10:16:22.000Z</time>
      </trkpt>
      <trkpt lat="47.86547" lon="3.76633">
        <ele>141</ele>
        <time>2019-10-26T10:16:23.000Z</time>
      </trkpt>
      <trkpt lat="47.86544" lon="3.76633">
        <ele>140</ele>
        <time>2019-10-26T10:16:24.000Z</time>
      </trkpt>
      <trkpt lat="47.86541" lon="3.76633">
        <ele>140</ele>
        <time>2019-10-26T10:16:25.000Z</time>
      </trkpt>
      <trkpt lat="47.86539" lon="3.76633">
        <ele>140</ele>
        <time>2019-10-26T10:16:26.000Z</time>
      </trkpt>
      <trkpt lat="47.86536" lon="3.76633">
        <ele>140</ele>
        <time>2019-10-26T10:16:27.000Z</time>
      </trkpt>
      <trkpt lat="47.86534" lon="3.76633">
        <ele>140</ele>
        <time>2019-10-26T10:16:28.000Z</time>
      </trkpt>
      <trkpt lat="47.86531" lon="3.76633">
        <ele>140</ele>
        <time>2019-10-26T10:16:29.000Z</time>
      </trkpt>
      <trkpt lat="47.86529" lon="3.76633">
        <ele>140</ele>
        <time>2019-10-26T10:16:30.000Z</time>
      </trkpt>
      <trkpt lat="47.86526" lon="3.76633">
        <ele>140</ele>
        <time>2019-10-26T10:16:31.000Z</time>
      </trkpt>
      <trkpt lat="47.86524" lon="3.76634">
        <ele>140</ele>
        <time>2019-10-26T10:16:32.000Z</time>
      </trkpt>
      <trkpt lat="47.86522" lon="3.76634">
        <ele>140</ele>
        <time>2019-10-26T10:16:33.000Z</time>
      </trkpt>
      <trkpt lat="47.86519" lon="3.76634">
        <ele>139</ele>
        <time>2019-10-26T10:16:34.000Z</time>
      </trkpt>
      <trkpt lat="47.86517" lon="3.76635">
        <ele>139</ele>
        <time>2019-10-26T10:16:35.000Z</time>
      </trkpt>
      <trkpt lat="47.86514" lon="3.76635">
        <ele>139</ele>
        <time>2019-10-26T10:16:36.000Z</time>
      </trkpt>
      <trkpt lat="47.86512" lon="3.76636">
        <ele>139</ele>
        <time>2019-10-26T10:16:37.000Z</time>
      </trkpt>
      <trkpt lat="47.86509" lon="3.76637">
        <ele>139</ele>
        <time>2019-10-26T10:16:38.000Z</time>
      </trkpt>
      <trkpt lat="47.86507" lon="3.76637">
        <ele>139</ele>
        <time>2019-10-26T10:16:39.000Z</time>
      </trkpt>
      <trkpt lat="47.86504" lon="3.76638">
        <ele>139</ele>
        <time>2019-10-26T10:16:40.000Z</time>
      </trkpt>
      <trkpt lat="47.86502" lon="3.76639">
        <ele>139</ele>
        <time>2019-10-26T10:16:41.000Z</time>
      </trkpt>
      <trkpt lat="47.86499" lon="3.76639">
        <ele>139</ele>
        <time>2019-10-26T10:16:42.000Z</time>
      </trkpt>
      <trkpt lat="47.86497" lon="3.7664">
        <ele>139</ele>
        <time>2019-10-26T10:16:43.000Z</time>
      </trkpt>
      <trkpt lat="47.86494" lon="3.7664">
        <ele>139</ele>
        <time>2019-10-26T10:16:44.000Z</time>
      </trkpt>
      <trkpt lat="47.86492" lon="3.76641">
        <ele>139</ele>
        <time>2019-10-26T10:16:45.000Z</time>
      </trkpt>
      <trkpt lat="47.86489" lon="3.76642">
        <ele>138</ele>
        <time>2019-10-26T10:16:46.000Z</time>
      </trkpt>
      <trkpt lat="47.86487" lon="3.76643">
        <ele>138</ele>
        <time>2019-10-26T10:16:47.000Z</time>
      </trkpt>
      <trkpt lat="47.86484" lon="3.76644">
        <ele>138</ele>
        <time>2019-10-26T10:16:48.000Z</time>
      </trkpt>
      <trkpt lat="47.86482" lon="3.76645">
        <ele>138</ele>
        <time>2019-10-26T10:16:49.000Z</time>
      </trkpt>
      <trkpt lat="47.86479" lon="3.76646">
        <ele>138</ele>
        <time>2019-10-26T10:16:50.000Z</time>
      </trkpt>
      <trkpt lat="47.86477" lon="3.76647">
        <ele>138</ele>
        <time>2019-10-26T10:16:51.000Z</time>
      </trkpt>
      <trkpt lat="47.86474" lon="3.76648">
        <ele>138</ele>
        <time>2019-10-26T10:16:52.000Z</time>
      </trkpt>
      <trkpt lat="47.86472" lon="3.76649">
        <ele>138</ele>
        <time>2019-10-26T10:16:53.000Z</time>
      </trkpt>
      <trkpt lat="47.8647" lon="3.7665">
        <ele>138</ele>
        <time>2019-10-26T10:16:54.000Z</time>
      </trkpt>
      <trkpt lat="47.86468" lon="3.76652">
        <ele>138</ele>
        <time>2019-10-26T10:16:55.000Z</time>
      </trkpt>
      <trkpt lat="47.86466" lon="3.76653">
        <ele>138</ele>
        <time>2019-10-26T10:16:56.000Z</time>
      </trkpt>
      <trkpt lat="47.86464" lon="3.76655">
        <ele>138</ele>
        <time>2019-10-26T10:16:57.000Z</time>
      </trkpt>
      <trkpt lat="47.86462" lon="3.76656">
        <ele>138</ele>
        <time>2019-10-26T10:16:58.000Z</time>
      </trkpt>
      <trkpt lat="47.8646" lon="3.76657">
        <ele>138</ele>
        <time>2019-10-26T10:16:59.000Z</time>
      </trkpt>
      <trkpt lat="47.86458" lon="3.76659">
        <ele>138</ele>
        <time>2019-10-26T10:17:00.000Z</time>
      </trkpt>
      <trkpt lat="47.86456" lon="3.7666">
        <ele>138</ele>
        <time>2019-10-26T10:17:01.000Z</time>
      </trkpt>
      <trkpt lat="47.86454" lon="3.76662">
        <ele>138</ele>
        <time>2019-10-26T10:17:02.000Z</time>
      </trkpt>
      <trkpt lat="47.86452" lon="3.76663">
        <ele>138</ele>
        <time>2019-10-26T10:17:03.000Z</time>
      </trkpt>
      <trkpt lat="47.8645" lon="3.76665">
        <ele>138</ele>
        <time>2019-10-26T10:17:04.000Z</time>
      </trkpt>
      <trkpt lat="47.86447" lon="3.76667">
        <ele>138</ele>
        <time>2019-10-26T10:17:05.000Z</time>
      </trkpt>
      <trkpt lat="47.86445" lon="3.76668">
        <ele>138</ele>
        <time>2019-10-26T10:17:06.000Z</time>
      </trkpt>
      <trkpt lat="47.86443" lon="3.7667">
        <ele>138</ele>
        <time>2019-10-26T10:17:07.000Z</time>
      </trkpt>
      <trkpt lat="47.86441" lon="3.76672">
        <ele>138</ele>
        <time>2019-10-26T10:17:08.000Z</time>
      </trkpt>
      <trkpt lat="47.86439" lon="3.76674">
        <ele>138</ele>
        <time>2019-10-26T10:17:09.000Z</time>
      </trkpt>
      <trkpt lat="47.86437" lon="3.76676">
        <ele>138</ele>
        <time>2019-10-26T10:17:10.000Z</time>
      </trkpt>
      <trkpt lat="47.86435" lon="3.76678">
        <ele>138</ele>
        <time>2019-10-26T10:17:11.000Z</time>
      </trkpt>
      <trkpt lat="47.86433" lon="3.7668">
        <ele>138</ele>
        <time>2019-10-26T10:17:12.000Z</time>
      </trkpt>
      <trkpt lat="47.86431" lon="3.76683">
        <ele>138</ele>
        <time>2019-10-26T10:17:13.000Z</time>
      </trkpt>
      <trkpt lat="47.86429" lon="3.76685">
        <ele>138</ele>
        <time>2019-10-26T10:17:14.000Z</time>
      </trkpt>
      <trkpt lat="47.86427" lon="3.76687">
        <ele>139</ele>
        <time>2019-10-26T10:17:15.000Z</time>
      </trkpt>
      <trkpt lat="47.86425" lon="3.7669">
        <ele>139</ele>
        <time>2019-10-26T10:17:16.000Z</time>
      </trkpt>
      <trkpt lat="47.86423" lon="3.76692">
        <ele>139</ele>
        <time>2019-10-26T10:17:17.000Z</time>
      </trkpt>
      <trkpt lat="47.86421" lon="3.76695">
        <ele>139</ele>
        <time>2019-10-26T10:17:18.000Z</time>
      </trkpt>
      <trkpt lat="47.86419" lon="3.76697">
        <ele>138</ele>
        <time>2019-10-26T10:17:19.000Z</time>
      </trkpt>
      <trkpt lat="47.86417" lon="3.767">
        <ele>138</ele>
        <time>2019-10-26T10:17:20.000Z</time>
      </trkpt>
      <trkpt lat="47.86415" lon="3.76702">
        <ele>138</ele>
        <time>2019-10-26T10:17:21.000Z</time>
      </trkpt>
      <trkpt lat="47.86413" lon="3.76705">
        <ele>138</ele>
        <time>2019-10-26T10:17:22.000Z</time>
      </trkpt>
      <trkpt lat="47.86411" lon="3.76708">
        <ele>138</ele>
        <time>2019-10-26T10:17:23.000Z</time>
      </trkpt>
      <trkpt lat="47.8641" lon="3.76711">
        <ele>138</ele>
        <time>2019-10-26T10:17:24.000Z</time>
      </trkpt>
      <trkpt lat="47.86408" lon="3.76713">
        <ele>138</ele>
        <time>2019-10-26T10:17:25.000Z</time>
      </trkpt>
      <trkpt lat="47.86407" lon="3.76716">
        <ele>138</ele>
        <time>2019-10-26T10:17:26.000Z</time>
      </trkpt>
      <trkpt lat="47.86405" lon="3.76719">
        <ele>138</ele>
        <time>2019-10-26T10:17:27.000Z</time>
      </trkpt>
      <trkpt lat="47.86404" lon="3.76722">
        <ele>138</ele>
        <time>2019-10-26T10:17:28.000Z</time>
      </trkpt>
      <trkpt lat="47.86402" lon="3.76725">
        <ele>138</ele>
        <time>2019-10-26T10:17:29.000Z</time>
      </trkpt>
      <trkpt lat="47.864" lon="3.76728">
        <ele>138</ele>
        <time>2019-10-26T10:17:30.000Z</time>
      </trkpt>
      <trkpt lat="47.86399" lon="3.76731">
        <ele>138</ele>
        <time>2019-10-26T10:17:31.000Z</time>
      </trkpt>
      <trkpt lat="47.86397" lon="3.76734">
        <ele>138</ele>
        <time>2019-10-26T10:17:32.000Z</time>
      </trkpt>
      <trkpt lat="47.86396" lon="3.76737">
        <ele>138</ele>
        <time>2019-10-26T10:17:33.000Z</time>
      </trkpt>
      <trkpt lat="47.86395" lon="3.76741">
        <ele>138</ele>
        <time>2019-10-26T10:17:34.000Z</time>
      </trkpt>
      <trkpt lat="47.86394" lon="3.76744">
        <ele>138</ele>
        <time>2019-10-26T10:17:35.000Z</time>
      </trkpt>
      <trkpt lat="47.86392" lon="3.76748">
        <ele>138</ele>
        <time>2019-10-26T10:17:36.000Z</time>
      </trkpt>
      <trkpt lat="47.86391" lon="3.76751">
        <ele>138</ele>
        <time>2019-10-26T10:17:37.000Z</time>
      </trkpt>
      <trkpt lat="47.8639" lon="3.76754">
        <ele>138</ele>
        <time>2019-10-26T10:17:38.000Z</time>
      </trkpt>
      <trkpt lat="47.86389" lon="3.76757">
        <ele>138</ele>
        <time>2019-10-26T10:17:39.000Z</time>
      </trkpt>
      <trkpt lat="47.86387" lon="3.7676">
        <ele>138</ele>
        <time>2019-10-26T10:17:40.000Z</time>
      </trkpt>
      <trkpt lat="47.86386" lon="3.76763">
        <ele>138</ele>
        <time>2019-10-26T10:17:41.000Z</time>
      </trkpt>
      <trkpt lat="47.86385" lon="3.76766">
        <ele>138</ele>
        <time>2019-10-26T10:17:42.000Z</time>
      </trkpt>
      <trkpt lat="47.86383" lon="3.76768">
        <ele>138</ele>
        <time>2019-10-26T10:17:43.000Z</time>
      </trkpt>
      <trkpt lat="47.86382" lon="3.76771">
        <ele>138</ele>
        <time>2019-10-26T10:17:44.000Z</time>
      </trkpt>
      <trkpt lat="47.86381" lon="3.76774">
        <ele>138</ele>
        <time>2019-10-26T10:17:45.000Z</time>
      </trkpt>
      <trkpt lat="47.86379" lon="3.76778">
        <ele>138</ele>
        <time>2019-10-26T10:17:46.000Z</time>
      </trkpt>
      <trkpt lat="47.86378" lon="3.76781">
        <ele>138</ele>
        <time>2019-10-26T10:17:47.000Z</time>
      </trkpt>
      <trkpt lat="47.86377" lon="3.76785">
        <ele>138</ele>
        <time>2019-10-26T10:17:48.000Z</time>
      </trkpt>
      <trkpt lat="47.86376" lon="3.76788">
        <ele>138</ele>
        <time>2019-10-26T10:17:49.000Z</time>
      </trkpt>
      <trkpt lat="47.86375" lon="3.76792">
        <ele>138</ele>
        <time>2019-10-26T10:17:50.000Z</time>
      </trkpt>
      <trkpt lat="47.86374" lon="3.76795">
        <ele>138</ele>
        <time>2019-10-26T10:17:51.000Z</time>
      </trkpt>
      <trkpt lat="47.86373" lon="3.76798">
        <ele>138</ele>
        <time>2019-10-26T10:17:52.000Z</time>
      </trkpt>
      <trkpt lat="47.86372" lon="3.76801">
        <ele>138</ele>
        <time>2019-10-26T10:17:53.000Z</time>
      </trkpt>
      <trkpt lat="47.8637" lon="3.76804">
        <ele>138</ele>
        <time>2019-10-26T10:17:54.000Z</time>
      </trkpt>
      <trkpt lat="47.86369" lon="3.76808">
        <ele>138</ele>
        <time>2019-10-26T10:17:55.000Z</time>
      </trkpt>
      <trkpt lat="47.86368" lon="3.76811">
        <ele>138</ele>
        <time>2019-10-26T10:17:56.000Z</time>
      </trkpt>
      <trkpt lat="47.86367" lon="3.76814">
        <ele>137</ele>
        <time>2019-10-26T10:17:57.000Z</time>
      </trkpt>
      <trkpt lat="47.86366" lon="3.76818">
        <ele>137</ele>
        <time>2019-10-26T10:17:58.000Z</time>
      </trkpt>
      <trkpt lat="47.86364" lon="3.76821">
        <ele>137</ele>
        <time>2019-10-26T10:17:59.000Z</time>
      </trkpt>
      <trkpt lat="47.86364" lon="3.76824">
        <ele>137</ele>
        <time>2019-10-26T10:18:00.000Z</time>
      </trkpt>
      <trkpt lat="47.86363" lon="3.76828">
        <ele>136</ele>
        <time>2019-10-26T10:18:01.000Z</time>
      </trkpt>
      <trkpt lat="47.86362" lon="3.76831">
        <ele>136</ele>
        <time>2019-10-26T10:18:02.000Z</time>
      </trkpt>
      <trkpt lat="47.8636" lon="3.76835">
        <ele>136</ele>
        <time>2019-10-26T10:18:03.000Z</time>
      </trkpt>
      <trkpt lat="47.86359" lon="3.76838">
        <ele>136</ele>
        <time>2019-10-26T10:18:04.000Z</time>
      </trkpt>
      <trkpt lat="47.86358" lon="3.76842">
        <ele>136</ele>
        <time>2019-10-26T10:18:05.000Z</time>
      </trkpt>
      <trkpt lat="47.86357" lon="3.76845">
        <ele>136</ele>
        <time>2019-10-26T10:18:06.000Z</time>
      </trkpt>
      <trkpt lat="47.86356" lon="3.76848">
        <ele>135</ele>
        <time>2019-10-26T10:18:07.000Z</time>
      </trkpt>
      <trkpt lat="47.86354" lon="3.76851">
        <ele>135</ele>
        <time>2019-10-26T10:18:08.000Z</time>
      </trkpt>
      <trkpt lat="47.86353" lon="3.76855">
        <ele>135</ele>
        <time>2019-10-26T10:18:09.000Z</time>
      </trkpt>
      <trkpt lat="47.86352" lon="3.76858">
        <ele>135</ele>
        <time>2019-10-26T10:18:10.000Z</time>
      </trkpt>
      <trkpt lat="47.86351" lon="3.76861">
        <ele>135</ele>
        <time>2019-10-26T10:18:11.000Z</time>
      </trkpt>
      <trkpt lat="47.8635" lon="3.76865">
        <ele>135</ele>
        <time>2019-10-26T10:18:12.000Z</time>
      </trkpt>
      <trkpt lat="47.86348" lon="3.76868">
        <ele>135</ele>
        <time>2019-10-26T10:18:13.000Z</time>
      </trkpt>
      <trkpt lat="47.86347" lon="3.76872">
        <ele>135</ele>
        <time>2019-10-26T10:18:14.000Z</time>
      </trkpt>
      <trkpt lat="47.86346" lon="3.76875">
        <ele>134</ele>
        <time>2019-10-26T10:18:15.000Z</time>
      </trkpt>
      <trkpt lat="47.86345" lon="3.76878">
        <ele>134</ele>
        <time>2019-10-26T10:18:16.000Z</time>
      </trkpt>
      <trkpt lat="47.86343" lon="3.76882">
        <ele>134</ele>
        <time>2019-10-26T10:18:17.000Z</time>
      </trkpt>
      <trkpt lat="47.86342" lon="3.76885">
        <ele>134</ele>
        <time>2019-10-26T10:18:18.000Z</time>
      </trkpt>
      <trkpt lat="47.86341" lon="3.76889">
        <ele>134</ele>
        <time>2019-10-26T10:18:19.000Z</time>
      </trkpt>
      <trkpt lat="47.8634" lon="3.76893">
        <ele>134</ele>
        <time>2019-10-26T10:18:20.000Z</time>
      </trkpt>
      <trkpt lat="47.86339" lon="3.76896">
        <ele>134</ele>
        <time>2019-10-26T10:18:21.000Z</time>
      </trkpt>
      <trkpt lat="47.86337" lon="3.769">
        <ele>134</ele>
        <time>2019-10-26T10:18:22.000Z</time>
      </trkpt>
      <trkpt lat="47.86336" lon="3.76904">
        <ele>134</ele>
        <time>2019-10-26T10:18:23.000Z</time>
      </trkpt>
      <trkpt lat="47.86335" lon="3.76907">
        <ele>134</ele>
        <time>2019-10-26T10:18:24.000Z</time>
      </trkpt>
      <trkpt lat="47.86334" lon="3.76911">
        <ele>134</ele>
        <time>2019-10-26T10:18:25.000Z</time>
      </trkpt>
      <trkpt lat="47.86333" lon="3.76914">
        <ele>134</ele>
        <time>2019-10-26T10:18:26.000Z</time>
      </trkpt>
      <trkpt lat="47.86332" lon="3.76917">
        <ele>134</ele>
        <time>2019-10-26T10:18:27.000Z</time>
      </trkpt>
      <trkpt lat="47.8633" lon="3.7692">
        <ele>134</ele>
        <time>2019-10-26T10:18:28.000Z</time>
      </trkpt>
      <trkpt lat="47.86329" lon="3.76923">
        <ele>134</ele>
        <time>2019-10-26T10:18:29.000Z</time>
      </trkpt>
      <trkpt lat="47.86328" lon="3.76926">
        <ele>134</ele>
        <time>2019-10-26T10:18:30.000Z</time>
      </trkpt>
      <trkpt lat="47.86326" lon="3.76929">
        <ele>134</ele>
        <time>2019-10-26T10:18:31.000Z</time>
      </trkpt>
      <trkpt lat="47.86325" lon="3.76932">
        <ele>133</ele>
        <time>2019-10-26T10:18:32.000Z</time>
      </trkpt>
      <trkpt lat="47.86323" lon="3.76935">
        <ele>133</ele>
        <time>2019-10-26T10:18:33.000Z</time>
      </trkpt>
      <trkpt lat="47.86321" lon="3.76938">
        <ele>133</ele>
        <time>2019-10-26T10:18:34.000Z</time>
      </trkpt>
      <trkpt lat="47.86319" lon="3.76941">
        <ele>133</ele>
        <time>2019-10-26T10:18:35.000Z</time>
      </trkpt>
      <trkpt lat="47.86318" lon="3.76944">
        <ele>133</ele>
        <time>2019-10-26T10:18:36.000Z</time>
      </trkpt>
      <trkpt lat="47.86316" lon="3.76947">
        <ele>133</ele>
        <time>2019-10-26T10:18:37.000Z</time>
      </trkpt>
      <trkpt lat="47.86315" lon="3.7695">
        <ele>133</ele>
        <time>2019-10-26T10:18:38.000Z</time>
      </trkpt>
      <trkpt lat="47.86314" lon="3.76953">
        <ele>133</ele>
        <time>2019-10-26T10:18:39.000Z</time>
      </trkpt>
      <trkpt lat="47.86312" lon="3.76956">
        <ele>133</ele>
        <time>2019-10-26T10:18:40.000Z</time>
      </trkpt>
      <trkpt lat="47.86311" lon="3.76959">
        <ele>133</ele>
        <time>2019-10-26T10:18:41.000Z</time>
      </trkpt>
      <trkpt lat="47.86309" lon="3.76962">
        <ele>133</ele>
        <time>2019-10-26T10:18:42.000Z</time>
      </trkpt>
      <trkpt lat="47.86307" lon="3.76965">
        <ele>132</ele>
        <time>2019-10-26T10:18:43.000Z</time>
      </trkpt>
      <trkpt lat="47.86306" lon="3.76968">
        <ele>132</ele>
        <time>2019-10-26T10:18:44.000Z</time>
      </trkpt>
      <trkpt lat="47.86304" lon="3.7697">
        <ele>132</ele>
        <time>2019-10-26T10:18:45.000Z</time>
      </trkpt>
      <trkpt lat="47.86303" lon="3.76973">
        <ele>132</ele>
        <time>2019-10-26T10:18:46.000Z</time>
      </trkpt>
      <trkpt lat="47.86301" lon="3.76975">
        <ele>132</ele>
        <time>2019-10-26T10:18:47.000Z</time>
      </trkpt>
      <trkpt lat="47.86299" lon="3.76977">
        <ele>132</ele>
        <time>2019-10-26T10:18:48.000Z</time>
      </trkpt>
      <trkpt lat="47.86297" lon="3.7698">
        <ele>132</ele>
        <time>2019-10-26T10:18:49.000Z</time>
      </trkpt>
      <trkpt lat="47.86295" lon="3.76982">
        <ele>132</ele>
        <time>2019-10-26T10:18:50.000Z</time>
      </trkpt>
      <trkpt lat="47.86292" lon="3.76983">
        <ele>132</ele>
        <time>2019-10-26T10:18:51.000Z</time>
      </trkpt>
      <trkpt lat="47.8629" lon="3.76984">
        <ele>132</ele>
        <time>2019-10-26T10:18:52.000Z</time>
      </trkpt>
      <trkpt lat="47.86287" lon="3.76985">
        <ele>132</ele>
        <time>2019-10-26T10:18:53.000Z</time>
      </trkpt>
      <trkpt lat="47.86285" lon="3.76984">
        <ele>132</ele>
        <time>2019-10-26T10:18:54.000Z</time>
      </trkpt>
      <trkpt lat="47.86282" lon="3.76983">
        <ele>132</ele>
        <time>2019-10-26T10:18:55.000Z</time>
      </trkpt>
      <trkpt lat="47.8628" lon="3.76981">
        <ele>132</ele>
        <time>2019-10-26T10:18:56.000Z</time>
      </trkpt>
      <trkpt lat="47.86278" lon="3.76979">
        <ele>132</ele>
        <time>2019-10-26T10:18:57.000Z</time>
      </trkpt>
      <trkpt lat="47.86276" lon="3.76976">
        <ele>131</ele>
        <time>2019-10-26T10:18:58.000Z</time>
      </trkpt>
      <trkpt lat="47.86274" lon="3.76973">
        <ele>131</ele>
        <time>2019-10-26T10:18:59.000Z</time>
      </trkpt>
      <trkpt lat="47.86273" lon="3.7697">
        <ele>131</ele>
        <time>2019-10-26T10:19:00.000Z</time>
      </trkpt>
      <trkpt lat="47.86271" lon="3.76966">
        <ele>131</ele>
        <time>2019-10-26T10:19:01.000Z</time>
      </trkpt>
      <trkpt lat="47.8627" lon="3.76963">
        <ele>131</ele>
        <time>2019-10-26T10:19:02.000Z</time>
      </trkpt>
      <trkpt lat="47.86269" lon="3.76959">
        <ele>131</ele>
        <time>2019-10-26T10:19:03.000Z</time>
      </trkpt>
      <trkpt lat="47.86268" lon="3.76956">
        <ele>131</ele>
        <time>2019-10-26T10:19:04.000Z</time>
      </trkpt>
      <trkpt lat="47.86267" lon="3.76953">
        <ele>130</ele>
        <time>2019-10-26T10:19:05.000Z</time>
      </trkpt>
      <trkpt lat="47.86266" lon="3.76949">
        <ele>130</ele>
        <time>2019-10-26T10:19:06.000Z</time>
      </trkpt>
      <trkpt lat="47.86265" lon="3.76945">
        <ele>130</ele>
        <time>2019-10-26T10:19:07.000Z</time>
      </trkpt>
      <trkpt lat="47.86264" lon="3.76941">
        <ele>130</ele>
        <time>2019-10-26T10:19:08.000Z</time>
      </trkpt>
      <trkpt lat="47.86263" lon="3.76937">
        <ele>130</ele>
        <time>2019-10-26T10:19:09.000Z</time>
      </trkpt>
      <trkpt lat="47.86263" lon="3.76934">
        <ele>130</ele>
        <time>2019-10-26T10:19:10.000Z</time>
      </trkpt>
      <trkpt lat="47.86262" lon="3.7693">
        <ele>130</ele>
        <time>2019-10-26T10:19:11.000Z</time>
      </trkpt>
      <trkpt lat="47.86261" lon="3.76926">
        <ele>130</ele>
        <time>2019-10-26T10:19:12.000Z</time>
      </trkpt>
      <trkpt lat="47.8626" lon="3.76922">
        <ele>130</ele>
        <time>2019-10-26T10:19:13.000Z</time>
      </trkpt>
      <trkpt lat="47.86259" lon="3.76919">
        <ele>130</ele>
        <time>2019-10-26T10:19:14.000Z</time>
      </trkpt>
      <trkpt lat="47.86258" lon="3.76916">
        <ele>130</ele>
        <time>2019-10-26T10:19:15.000Z</time>
      </trkpt>
      <trkpt lat="47.86257" lon="3.76912">
        <ele>130</ele>
        <time>2019-10-26T10:19:16.000Z</time>
      </trkpt>
      <trkpt lat="47.86255" lon="3.76909">
        <ele>130</ele>
        <time>2019-10-26T10:19:17.000Z</time>
      </trkpt>
      <trkpt lat="47.86253" lon="3.76907">
        <ele>129</ele>
        <time>2019-10-26T10:19:18.000Z</time>
      </trkpt>
      <trkpt lat="47.86251" lon="3.76905">
        <ele>129</ele>
        <time>2019-10-26T10:19:19.000Z</time>
      </trkpt>
      <trkpt lat="47.86249" lon="3.76905">
        <ele>129</ele>
        <time>2019-10-26T10:19:20.000Z</time>
      </trkpt>
      <trkpt lat="47.86247" lon="3.76906">
        <ele>129</ele>
        <time>2019-10-26T10:19:21.000Z</time>
      </trkpt>
      <trkpt lat="47.86245" lon="3.76907">
        <ele>129</ele>
        <time>2019-10-26T10:19:22.000Z</time>
      </trkpt>
      <trkpt lat="47.86243" lon="3.76909">
        <ele>129</ele>
        <time>2019-10-26T10:19:23.000Z</time>
      </trkpt>
      <trkpt lat="47.86241" lon="3.76911">
        <ele>129</ele>
        <time>2019-10-26T10:19:24.000Z</time>
      </trkpt>
      <trkpt lat="47.86239" lon="3.76913">
        <ele>129</ele>
        <time>2019-10-26T10:19:25.000Z</time>
      </trkpt>
      <trkpt lat="47.86237" lon="3.76915">
        <ele>129</ele>
        <time>2019-10-26T10:19:26.000Z</time>
      </trkpt>
      <trkpt lat="47.86235" lon="3.76918">
        <ele>129</ele>
        <time>2019-10-26T10:19:27.000Z</time>
      </trkpt>
      <trkpt lat="47.86233" lon="3.7692">
        <ele>129</ele>
        <time>2019-10-26T10:19:28.000Z</time>
      </trkpt>
      <trkpt lat="47.86231" lon="3.76923">
        <ele>129</ele>
        <time>2019-10-26T10:19:29.000Z</time>
      </trkpt>
      <trkpt lat="47.86229" lon="3.76925">
        <ele>129</ele>
        <time>2019-10-26T10:19:30.000Z</time>
      </trkpt>
      <trkpt lat="47.86227" lon="3.76927">
        <ele>129</ele>
        <time>2019-10-26T10:19:31.000Z</time>
      </trkpt>
      <trkpt lat="47.86225" lon="3.76929">
        <ele>129</ele>
        <time>2019-10-26T10:19:32.000Z</time>
      </trkpt>
      <trkpt lat="47.86223" lon="3.76932">
        <ele>129</ele>
        <time>2019-10-26T10:19:33.000Z</time>
      </trkpt>
      <trkpt lat="47.86221" lon="3.76934">
        <ele>129</ele>
        <time>2019-10-26T10:19:34.000Z</time>
      </trkpt>
      <trkpt lat="47.86219" lon="3.76936">
        <ele>129</ele>
        <time>2019-10-26T10:19:35.000Z</time>
      </trkpt>
      <trkpt lat="47.86217" lon="3.76938">
        <ele>129</ele>
        <time>2019-10-26T10:19:36.000Z</time>
      </trkpt>
      <trkpt lat="47.86215" lon="3.76941">
        <ele>129</ele>
        <time>2019-10-26T10:19:37.000Z</time>
      </trkpt>
      <trkpt lat="47.86213" lon="3.76943">
        <ele>129</ele>
        <time>2019-10-26T10:19:38.000Z</time>
      </trkpt>
      <trkpt lat="47.86212" lon="3.76945">
        <ele>129</ele>
        <time>2019-10-26T10:19:39.000Z</time>
      </trkpt>
      <trkpt lat="47.8621" lon="3.76947">
        <ele>129</ele>
        <time>2019-10-26T10:19:40.000Z</time>
      </trkpt>
      <trkpt lat="47.86208" lon="3.76949">
        <ele>129</ele>
        <time>2019-10-26T10:19:41.000Z</time>
      </trkpt>
      <trkpt lat="47.86206" lon="3.76951">
        <ele>129</ele>
        <time>2019-10-26T10:19:42.000Z</time>
      </trkpt>
      <trkpt lat="47.86204" lon="3.76953">
        <ele>129</ele>
        <time>2019-10-26T10:19:43.000Z</time>
      </trkpt>
      <trkpt lat="47.86202" lon="3.76956">
        <ele>129</ele>
        <time>2019-10-26T10:19:44.000Z</time>
      </trkpt>
      <trkpt lat="47.862" lon="3.76958">
        <ele>129</ele>
        <time>2019-10-26T10:19:45.000Z</time>
      </trkpt>
      <trkpt lat="47.86198" lon="3.7696">
        <ele>129</ele>
        <time>2019-10-26T10:19:46.000Z</time>
      </trkpt>
      <trkpt lat="47.86196" lon="3.76962">
        <ele>129</ele>
        <time>2019-10-26T10:19:47.000Z</time>
      </trkpt>
      <trkpt lat="47.86194" lon="3.76964">
        <ele>129</ele>
        <time>2019-10-26T10:19:48.000Z</time>
      </trkpt>
      <trkpt lat="47.86192" lon="3.76966">
        <ele>129</ele>
        <time>2019-10-26T10:19:49.000Z</time>
      </trkpt>
      <trkpt lat="47.8619" lon="3.76969">
        <ele>129</ele>
        <time>2019-10-26T10:19:50.000Z</time>
      </trkpt>
      <trkpt lat="47.86189" lon="3.76971">
        <ele>130</ele>
        <time>2019-10-26T10:19:51.000Z</time>
      </trkpt>
      <trkpt lat="47.86187" lon="3.76973">
        <ele>130</ele>
        <time>2019-10-26T10:19:52.000Z</time>
      </trkpt>
      <trkpt lat="47.86185" lon="3.76975">
        <ele>130</ele>
        <time>2019-10-26T10:19:53.000Z</time>
      </trkpt>
      <trkpt lat="47.86183" lon="3.76977">
        <ele>130</ele>
        <time>2019-10-26T10:19:54.000Z</time>
      </trkpt>
      <trkpt lat="47.86181" lon="3.76979">
        <ele>130</ele>
        <time>2019-10-26T10:19:55.000Z</time>
      </trkpt>
      <trkpt lat="47.86179" lon="3.76981">
        <ele>130</ele>
        <time>2019-10-26T10:19:56.000Z</time>
      </trkpt>
      <trkpt lat="47.86177" lon="3.76983">
        <ele>130</ele>
        <time>2019-10-26T10:19:57.000Z</time>
      </trkpt>
      <trkpt lat="47.86175" lon="3.76985">
        <ele>130</ele>
        <time>2019-10-26T10:19:58.000Z</time>
      </trkpt>
      <trkpt lat="47.86174" lon="3.76987">
        <ele>130</ele>
        <time>2019-10-26T10:19:59.000Z</time>
      </trkpt>
      <trkpt lat="47.86172" lon="3.76989">
        <ele>130</ele>
        <time>2019-10-26T10:20:00.000Z</time>
      </trkpt>
      <trkpt lat="47.8617" lon="3.76991">
        <ele>130</ele>
        <time>2019-10-26T10:20:01.000Z</time>
      </trkpt>
      <trkpt lat="47.86168" lon="3.76993">
        <ele>130</ele>
        <time>2019-10-26T10:20:02.000Z</time>
      </trkpt>
      <trkpt lat="47.86166" lon="3.76994">
        <ele>130</ele>
        <time>2019-10-26T10:20:03.000Z</time>
      </trkpt>
      <trkpt lat="47.86164" lon="3.76996">
        <ele>130</ele>
        <time>2019-10-26T10:20:04.000Z</time>
      </trkpt>
      <trkpt lat="47.86162" lon="3.76998">
        <ele>130</ele>
        <time>2019-10-26T10:20:05.000Z</time>
      </trkpt>
      <trkpt lat="47.8616" lon="3.77">
        <ele>130</ele>
        <time>2019-10-26T10:20:06.000Z</time>
      </trkpt>
      <trkpt lat="47.86158" lon="3.77002">
        <ele>130</ele>
        <time>2019-10-26T10:20:07.000Z</time>
      </trkpt>
      <trkpt lat="47.86156" lon="3.77004">
        <ele>130</ele>
        <time>2019-10-26T10:20:08.000Z</time>
      </trkpt>
      <trkpt lat="47.86155" lon="3.77006">
        <ele>130</ele>
        <time>2019-10-26T10:20:09.000Z</time>
      </trkpt>
      <trkpt lat="47.86153" lon="3.77008">
        <ele>130</ele>
        <time>2019-10-26T10:20:10.000Z</time>
      </trkpt>
      <trkpt lat="47.86151" lon="3.7701">
        <ele>131</ele>
        <time>2019-10-26T10:20:11.000Z</time>
      </trkpt>
      <trkpt lat="47.86149" lon="3.77012">
        <ele>131</ele>
        <time>2019-10-26T10:20:12.000Z</time>
      </trkpt>
      <trkpt lat="47.86147" lon="3.77014">
        <ele>131</ele>
        <time>2019-10-26T10:20:13.000Z</time>
      </trkpt>
      <trkpt lat="47.86145" lon="3.77016">
        <ele>131</ele>
        <time>2019-10-26T10:20:14.000Z</time>
      </trkpt>
      <trkpt lat="47.86143" lon="3.77018">
        <ele>131</ele>
        <time>2019-10-26T10:20:15.000Z</time>
      </trkpt>
      <trkpt lat="47.86142" lon="3.7702">
        <ele>131</ele>
        <time>2019-10-26T10:20:16.000Z</time>
      </trkpt>
      <trkpt lat="47.8614" lon="3.77022">
        <ele>131</ele>
        <time>2019-10-26T10:20:17.000Z</time>
      </trkpt>
      <trkpt lat="47.86138" lon="3.77024">
        <ele>131</ele>
        <time>2019-10-26T10:20:18.000Z</time>
      </trkpt>
      <trkpt lat="47.86136" lon="3.77026">
        <ele>131</ele>
        <time>2019-10-26T10:20:19.000Z</time>
      </trkpt>
      <trkpt lat="47.86135" lon="3.77027">
        <ele>131</ele>
        <time>2019-10-26T10:20:20.000Z</time>
      </trkpt>
      <trkpt lat="47.86133" lon="3.77029">
        <ele>131</ele>
        <time>2019-10-26T10:20:21.000Z</time>
      </trkpt>
      <trkpt lat="47.86131" lon="3.77031">
        <ele>131</ele>
        <time>2019-10-26T10:20:22.000Z</time>
      </trkpt>
      <trkpt lat="47.86129" lon="3.77033">
        <ele>131</ele>
        <time>2019-10-26T10:20:23.000Z</time>
      </trkpt>
      <trkpt lat="47.86128" lon="3.77035">
        <ele>131</ele>
        <time>2019-10-26T10:20:24.000Z</time>
      </trkpt>
      <trkpt lat="47.86126" lon="3.77036">
        <ele>131</ele>
        <time>2019-10-26T10:20:25.000Z</time>
      </trkpt>
      <trkpt lat="47.86124" lon="3.77038">
        <ele>131</ele>
        <time>2019-10-26T10:20:26.000Z</time>
      </trkpt>
      <trkpt lat="47.86122" lon="3.7704">
        <ele>131</ele>
        <time>2019-10-26T10:20:27.000Z</time>
      </trkpt>
      <trkpt lat="47.8612" lon="3.77042">
        <ele>131</ele>
        <time>2019-10-26T10:20:28.000Z</time>
      </trkpt>
      <trkpt lat="47.86118" lon="3.77045">
        <ele>131</ele>
        <time>2019-10-26T10:20:29.000Z</time>
      </trkpt>
      <trkpt lat="47.86116" lon="3.77047">
        <ele>131</ele>
        <time>2019-10-26T10:20:30.000Z</time>
      </trkpt>
      <trkpt lat="47.86115" lon="3.77049">
        <ele>131</ele>
        <time>2019-10-26T10:20:31.000Z</time>
      </trkpt>
      <trkpt lat="47.86113" lon="3.77051">
        <ele>131</ele>
        <time>2019-10-26T10:20:32.000Z</time>
      </trkpt>
      <trkpt lat="47.86111" lon="3.77053">
        <ele>131</ele>
        <time>2019-10-26T10:20:33.000Z</time>
      </trkpt>
      <trkpt lat="47.8611" lon="3.77055">
        <ele>131</ele>
        <time>2019-10-26T10:20:34.000Z</time>
      </trkpt>
      <trkpt lat="47.86108" lon="3.77057">
        <ele>131</ele>
        <time>2019-10-26T10:20:35.000Z</time>
      </trkpt>
      <trkpt lat="47.86106" lon="3.77059">
        <ele>131</ele>
        <time>2019-10-26T10:20:36.000Z</time>
      </trkpt>
      <trkpt lat="47.86104" lon="3.77061">
        <ele>131</ele>
        <time>2019-10-26T10:20:37.000Z</time>
      </trkpt>
      <trkpt lat="47.86102" lon="3.77063">
        <ele>131</ele>
        <time>2019-10-26T10:20:38.000Z</time>
      </trkpt>
      <trkpt lat="47.861" lon="3.77064">
        <ele>131</ele>
        <time>2019-10-26T10:20:39.000Z</time>
      </trkpt>
      <trkpt lat="47.86098" lon="3.77066">
        <ele>131</ele>
        <time>2019-10-26T10:20:40.000Z</time>
      </trkpt>
      <trkpt lat="47.86096" lon="3.77068">
        <ele>131</ele>
        <time>2019-10-26T10:20:41.000Z</time>
      </trkpt>
      <trkpt lat="47.86094" lon="3.77069">
        <ele>131</ele>
        <time>2019-10-26T10:20:42.000Z</time>
      </trkpt>
      <trkpt lat="47.86092" lon="3.77071">
        <ele>131</ele>
        <time>2019-10-26T10:20:43.000Z</time>
      </trkpt>
      <trkpt lat="47.8609" lon="3.77073">
        <ele>131</ele>
        <time>2019-10-26T10:20:44.000Z</time>
      </trkpt>
      <trkpt lat="47.86088" lon="3.77074">
        <ele>131</ele>
        <time>2019-10-26T10:20:45.000Z</time>
      </trkpt>
      <trkpt lat="47.86086" lon="3.77076">
        <ele>131</ele>
        <time>2019-10-26T10:20:46.000Z</time>
      </trkpt>
      <trkpt lat="47.86084" lon="3.77078">
        <ele>131</ele>
        <time>2019-10-26T10:20:47.000Z</time>
      </trkpt>
      <trkpt lat="47.86083" lon="3.77079">
        <ele>131</ele>
        <time>2019-10-26T10:20:48.000Z</time>
      </trkpt>
      <trkpt lat="47.86081" lon="3.77081">
        <ele>131</ele>
        <time>2019-10-26T10:20:49.000Z</time>
      </trkpt>
      <trkpt lat="47.86079" lon="3.77083">
        <ele>132</ele>
        <time>2019-10-26T10:20:50.000Z</time>
      </trkpt>
      <trkpt lat="47.86078" lon="3.77084">
        <ele>132</ele>
        <time>2019-10-26T10:20:51.000Z</time>
      </trkpt>
      <trkpt lat="47.86076" lon="3.77086">
        <ele>132</ele>
        <time>2019-10-26T10:20:52.000Z</time>
      </trkpt>
      <trkpt lat="47.86074" lon="3.77088">
        <ele>132</ele>
        <time>2019-10-26T10:20:53.000Z</time>
      </trkpt>
      <trkpt lat="47.86072" lon="3.77089">
        <ele>132</ele>
        <time>2019-10-26T10:20:54.000Z</time>
      </trkpt>
      <trkpt lat="47.86071" lon="3.77091">
        <ele>133</ele>
        <time>2019-10-26T10:20:55.000Z</time>
      </trkpt>
      <trkpt lat="47.86069" lon="3.77093">
        <ele>133</ele>
        <time>2019-10-26T10:20:56.000Z</time>
      </trkpt>
      <trkpt lat="47.86068" lon="3.77094">
        <ele>133</ele>
        <time>2019-10-26T10:20:57.000Z</time>
      </trkpt>
      <trkpt lat="47.86066" lon="3.77095">
        <ele>133</ele>
        <time>2019-10-26T10:20:58.000Z</time>
      </trkpt>
      <trkpt lat="47.86065" lon="3.77097">
        <ele>133</ele>
        <time>2019-10-26T10:20:59.000Z</time>
      </trkpt>
      <trkpt lat="47.86064" lon="3.77098">
        <ele>133</ele>
        <time>2019-10-26T10:21:00.000Z</time>
      </trkpt>
      <trkpt lat="47.86062" lon="3.771">
        <ele>133</ele>
        <time>2019-10-26T10:21:01.000Z</time>
      </trkpt>
      <trkpt lat="47.86061" lon="3.77101">
        <ele>134</ele>
        <time>2019-10-26T10:21:02.000Z</time>
      </trkpt>
      <trkpt lat="47.8606" lon="3.77103">
        <ele>134</ele>
        <time>2019-10-26T10:21:03.000Z</time>
      </trkpt>
      <trkpt lat="47.86058" lon="3.77104">
        <ele>134</ele>
        <time>2019-10-26T10:21:04.000Z</time>
      </trkpt>
      <trkpt lat="47.86057" lon="3.77106">
        <ele>134</ele>
        <time>2019-10-26T10:21:05.000Z</time>
      </trkpt>
      <trkpt lat="47.86056" lon="3.77107">
        <ele>134</ele>
        <time>2019-10-26T10:21:06.000Z</time>
      </trkpt>
      <trkpt lat="47.86055" lon="3.77109">
        <ele>134</ele>
        <time>2019-10-26T10:21:07.000Z</time>
      </trkpt>
      <trkpt lat="47.86054" lon="3.7711">
        <ele>134</ele>
        <time>2019-10-26T10:21:08.000Z</time>
      </trkpt>
      <trkpt lat="47.86053" lon="3.77111">
        <ele>135</ele>
        <time>2019-10-26T10:21:09.000Z</time>
      </trkpt>
      <trkpt lat="47.86051" lon="3.77113">
        <ele>135</ele>
        <time>2019-10-26T10:21:10.000Z</time>
      </trkpt>
      <trkpt lat="47.8605" lon="3.77114">
        <ele>135</ele>
        <time>2019-10-26T10:21:11.000Z</time>
      </trkpt>
      <trkpt lat="47.86049" lon="3.77115">
        <ele>135</ele>
        <time>2019-10-26T10:21:12.000Z</time>
      </trkpt>
      <trkpt lat="47.86048" lon="3.77117">
        <ele>135</ele>
        <time>2019-10-26T10:21:13.000Z</time>
      </trkpt>
      <trkpt lat="47.86047" lon="3.77118">
        <ele>135</ele>
        <time>2019-10-26T10:21:14.000Z</time>
      </trkpt>
      <trkpt lat="47.86045" lon="3.7712">
        <ele>135</ele>
        <time>2019-10-26T10:21:15.000Z</time>
      </trkpt>
      <trkpt lat="47.86044" lon="3.77121">
        <ele>135</ele>
        <time>2019-10-26T10:21:16.000Z</time>
      </trkpt>
      <trkpt lat="47.86043" lon="3.77123">
        <ele>135</ele>
        <time>2019-10-26T10:21:17.000Z</time>
      </trkpt>
      <trkpt lat="47.86041" lon="3.77124">
        <ele>135</ele>
        <time>2019-10-26T10:21:18.000Z</time>
      </trkpt>
      <trkpt lat="47.8604" lon="3.77125">
        <ele>135</ele>
        <time>2019-10-26T10:21:19.000Z</time>
      </trkpt>
      <trkpt lat="47.86039" lon="3.77127">
        <ele>135</ele>
        <time>2019-10-26T10:21:20.000Z</time>
      </trkpt>
      <trkpt lat="47.86038" lon="3.77128">
        <ele>135</ele>
        <time>2019-10-26T10:21:21.000Z</time>
      </trkpt>
      <trkpt lat="47.86037" lon="3.7713">
        <ele>135</ele>
        <time>2019-10-26T10:21:22.000Z</time>
      </trkpt>
      <trkpt lat="47.86036" lon="3.77131">
        <ele>136</ele>
        <time>2019-10-26T10:21:23.000Z</time>
      </trkpt>
      <trkpt lat="47.86035" lon="3.77132">
        <ele>136</ele>
        <time>2019-10-26T10:21:24.000Z</time>
      </trkpt>
      <trkpt lat="47.86034" lon="3.77134">
        <ele>136</ele>
        <time>2019-10-26T10:21:25.000Z</time>
      </trkpt>
      <trkpt lat="47.86033" lon="3.77135">
        <ele>136</ele>
        <time>2019-10-26T10:21:26.000Z</time>
      </trkpt>
      <trkpt lat="47.86031" lon="3.77136">
        <ele>136</ele>
        <time>2019-10-26T10:21:27.000Z</time>
      </trkpt>
      <trkpt lat="47.8603" lon="3.77138">
        <ele>136</ele>
        <time>2019-10-26T10:21:28.000Z</time>
      </trkpt>
      <trkpt lat="47.86029" lon="3.7714">
        <ele>136</ele>
        <time>2019-10-26T10:21:29.000Z</time>
      </trkpt>
      <trkpt lat="47.86028" lon="3.77142">
        <ele>136</ele>
        <time>2019-10-26T10:21:30.000Z</time>
      </trkpt>
      <trkpt lat="47.86027" lon="3.77143">
        <ele>136</ele>
        <time>2019-10-26T10:21:31.000Z</time>
      </trkpt>
      <trkpt lat="47.86025" lon="3.77145">
        <ele>137</ele>
        <time>2019-10-26T10:21:32.000Z</time>
      </trkpt>
      <trkpt lat="47.86024" lon="3.77146">
        <ele>137</ele>
        <time>2019-10-26T10:21:33.000Z</time>
      </trkpt>
      <trkpt lat="47.86023" lon="3.77148">
        <ele>137</ele>
        <time>2019-10-26T10:21:34.000Z</time>
      </trkpt>
      <trkpt lat="47.86022" lon="3.77149">
        <ele>137</ele>
        <time>2019-10-26T10:21:35.000Z</time>
      </trkpt>
      <trkpt lat="47.8602" lon="3.77151">
        <ele>137</ele>
        <time>2019-10-26T10:21:36.000Z</time>
      </trkpt>
      <trkpt lat="47.86019" lon="3.77153">
        <ele>138</ele>
        <time>2019-10-26T10:21:37.000Z</time>
      </trkpt>
      <trkpt lat="47.86018" lon="3.77154">
        <ele>138</ele>
        <time>2019-10-26T10:21:38.000Z</time>
      </trkpt>
      <trkpt lat="47.86017" lon="3.77156">
        <ele>138</ele>
        <time>2019-10-26T10:21:39.000Z</time>
      </trkpt>
      <trkpt lat="47.86015" lon="3.77158">
        <ele>138</ele>
        <time>2019-10-26T10:21:40.000Z</time>
      </trkpt>
      <trkpt lat="47.86014" lon="3.77159">
        <ele>138</ele>
        <time>2019-10-26T10:21:41.000Z</time>
      </trkpt>
      <trkpt lat="47.86013" lon="3.77161">
        <ele>139</ele>
        <time>2019-10-26T10:21:42.000Z</time>
      </trkpt>
      <trkpt lat="47.86011" lon="3.77162">
        <ele>139</ele>
        <time>2019-10-26T10:21:43.000Z</time>
      </trkpt>
      <trkpt lat="47.8601" lon="3.77163">
        <ele>139</ele>
        <time>2019-10-26T10:21:44.000Z</time>
      </trkpt>
      <trkpt lat="47.86009" lon="3.77165">
        <ele>139</ele>
        <time>2019-10-26T10:21:45.000Z</time>
      </trkpt>
      <trkpt lat="47.86007" lon="3.77166">
        <ele>140</ele>
        <time>2019-10-26T10:21:46.000Z</time>
      </trkpt>
      <trkpt lat="47.86006" lon="3.77167">
        <ele>140</ele>
        <time>2019-10-26T10:21:47.000Z</time>
      </trkpt>
      <trkpt lat="47.86005" lon="3.77169">
        <ele>140</ele>
        <time>2019-10-26T10:21:48.000Z</time>
      </trkpt>
      <trkpt lat="47.86004" lon="3.7717">
        <ele>140</ele>
        <time>2019-10-26T10:21:49.000Z</time>
      </trkpt>
      <trkpt lat="47.86002" lon="3.77171">
        <ele>140</ele>
        <time>2019-10-26T10:21:50.000Z</time>
      </trkpt>
      <trkpt lat="47.86001" lon="3.77172">
        <ele>140</ele>
        <time>2019-10-26T10:21:51.000Z</time>
      </trkpt>
      <trkpt lat="47.86" lon="3.77174">
        <ele>140</ele>
        <time>2019-10-26T10:21:52.000Z</time>
      </trkpt>
      <trkpt lat="47.85998" lon="3.77175">
        <ele>140</ele>
        <time>2019-10-26T10:21:53.000Z</time>
      </trkpt>
      <trkpt lat="47.85997" lon="3.77176">
        <ele>140</ele>
        <time>2019-10-26T10:21:54.000Z</time>
      </trkpt>
      <trkpt lat="47.85996" lon="3.77178">
        <ele>141</ele>
        <time>2019-10-26T10:21:55.000Z</time>
      </trkpt>
      <trkpt lat="47.85995" lon="3.77179">
        <ele>141</ele>
        <time>2019-10-26T10:21:56.000Z</time>
      </trkpt>
      <trkpt lat="47.85993" lon="3.77181">
        <ele>141</ele>
        <time>2019-10-26T10:21:57.000Z</time>
      </trkpt>
      <trkpt lat="47.85992" lon="3.77182">
        <ele>141</ele>
        <time>2019-10-26T10:21:58.000Z</time>
      </trkpt>
      <trkpt lat="47.85991" lon="3.77183">
        <ele>141</ele>
        <time>2019-10-26T10:21:59.000Z</time>
      </trkpt>
      <trkpt lat="47.85989" lon="3.77185">
        <ele>141</ele>
        <time>2019-10-26T10:22:00.000Z</time>
      </trkpt>
      <trkpt lat="47.85988" lon="3.77186">
        <ele>142</ele>
        <time>2019-10-26T10:22:01.000Z</time>
      </trkpt>
      <trkpt lat="47.85987" lon="3.77187">
        <ele>142</ele>
        <time>2019-10-26T10:22:02.000Z</time>
      </trkpt>
      <trkpt lat="47.85986" lon="3.77189">
        <ele>142</ele>
        <time>2019-10-26T10:22:03.000Z</time>
      </trkpt>
      <trkpt lat="47.85984" lon="3.7719">
        <ele>142</ele>
        <time>2019-10-26T10:22:04.000Z</time>
      </trkpt>
      <trkpt lat="47.85983" lon="3.77192">
        <ele>143</ele>
        <time>2019-10-26T10:22:05.000Z</time>
      </trkpt>
      <trkpt lat="47.85982" lon="3.77193">
        <ele>143</ele>
        <time>2019-10-26T10:22:06.000Z</time>
      </trkpt>
      <trkpt lat="47.8598" lon="3.77194">
        <ele>143</ele>
        <time>2019-10-26T10:22:07.000Z</time>
      </trkpt>
      <trkpt lat="47.85979" lon="3.77195">
        <ele>143</ele>
        <time>2019-10-26T10:22:08.000Z</time>
      </trkpt>
      <trkpt lat="47.85978" lon="3.77196">
        <ele>143</ele>
        <time>2019-10-26T10:22:09.000Z</time>
      </trkpt>
      <trkpt lat="47.85976" lon="3.77198">
        <ele>143</ele>
        <time>2019-10-26T10:22:10.000Z</time>
      </trkpt>
      <trkpt lat="47.85975" lon="3.77199">
        <ele>143</ele>
        <time>2019-10-26T10:22:11.000Z</time>
      </trkpt>
      <trkpt lat="47.85974" lon="3.772">
        <ele>143</ele>
        <time>2019-10-26T10:22:12.000Z</time>
      </trkpt>
      <trkpt lat="47.85972" lon="3.77201">
        <ele>143</ele>
        <time>2019-10-26T10:22:13.000Z</time>
      </trkpt>
      <trkpt lat="47.85971" lon="3.77203">
        <ele>143</ele>
        <time>2019-10-26T10:22:14.000Z</time>
      </trkpt>
      <trkpt lat="47.8597" lon="3.77204">
        <ele>144</ele>
        <time>2019-10-26T10:22:15.000Z</time>
      </trkpt>
      <trkpt lat="47.85968" lon="3.77205">
        <ele>144</ele>
        <time>2019-10-26T10:22:16.000Z</time>
      </trkpt>
      <trkpt lat="47.85967" lon="3.77206">
        <ele>144</ele>
        <time>2019-10-26T10:22:17.000Z</time>
      </trkpt>
      <trkpt lat="47.85966" lon="3.77207">
        <ele>144</ele>
        <time>2019-10-26T10:22:18.000Z</time>
      </trkpt>
      <trkpt lat="47.85964" lon="3.77209">
        <ele>144</ele>
        <time>2019-10-26T10:22:19.000Z</time>
      </trkpt>
      <trkpt lat="47.85963" lon="3.7721">
        <ele>144</ele>
        <time>2019-10-26T10:22:20.000Z</time>
      </trkpt>
      <trkpt lat="47.85961" lon="3.77212">
        <ele>144</ele>
        <time>2019-10-26T10:22:21.000Z</time>
      </trkpt>
      <trkpt lat="47.85959" lon="3.77214">
        <ele>144</ele>
        <time>2019-10-26T10:22:22.000Z</time>
      </trkpt>
      <trkpt lat="47.85957" lon="3.77215">
        <ele>144</ele>
        <time>2019-10-26T10:22:23.000Z</time>
      </trkpt>
      <trkpt lat="47.85955" lon="3.77217">
        <ele>144</ele>
        <time>2019-10-26T10:22:24.000Z</time>
      </trkpt>
      <trkpt lat="47.85953" lon="3.77218">
        <ele>144</ele>
        <time>2019-10-26T10:22:25.000Z</time>
      </trkpt>
      <trkpt lat="47.85952" lon="3.7722">
        <ele>144</ele>
        <time>2019-10-26T10:22:26.000Z</time>
      </trkpt>
      <trkpt lat="47.8595" lon="3.77222">
        <ele>144</ele>
        <time>2019-10-26T10:22:27.000Z</time>
      </trkpt>
      <trkpt lat="47.85948" lon="3.77223">
        <ele>144</ele>
        <time>2019-10-26T10:22:28.000Z</time>
      </trkpt>
      <trkpt lat="47.85946" lon="3.77225">
        <ele>144</ele>
        <time>2019-10-26T10:22:29.000Z</time>
      </trkpt>
      <trkpt lat="47.85944" lon="3.77227">
        <ele>144</ele>
        <time>2019-10-26T10:22:30.000Z</time>
      </trkpt>
      <trkpt lat="47.85942" lon="3.77229">
        <ele>144</ele>
        <time>2019-10-26T10:22:31.000Z</time>
      </trkpt>
      <trkpt lat="47.8594" lon="3.7723">
        <ele>144</ele>
        <time>2019-10-26T10:22:32.000Z</time>
      </trkpt>
      <trkpt lat="47.85938" lon="3.77232">
        <ele>144</ele>
        <time>2019-10-26T10:22:33.000Z</time>
      </trkpt>
      <trkpt lat="47.85936" lon="3.77234">
        <ele>144</ele>
        <time>2019-10-26T10:22:34.000Z</time>
      </trkpt>
      <trkpt lat="47.85934" lon="3.77236">
        <ele>144</ele>
        <time>2019-10-26T10:22:35.000Z</time>
      </trkpt>
      <trkpt lat="47.85932" lon="3.77238">
        <ele>144</ele>
        <time>2019-10-26T10:22:36.000Z</time>
      </trkpt>
      <trkpt lat="47.85929" lon="3.7724">
        <ele>145</ele>
        <time>2019-10-26T10:22:37.000Z</time>
      </trkpt>
      <trkpt lat="47.85927" lon="3.77242">
        <ele>145</ele>
        <time>2019-10-26T10:22:38.000Z</time>
      </trkpt>
      <trkpt lat="47.85926" lon="3.77244">
        <ele>145</ele>
        <time>2019-10-26T10:22:39.000Z</time>
      </trkpt>
      <trkpt lat="47.85924" lon="3.77246">
        <ele>145</ele>
        <time>2019-10-26T10:22:40.000Z</time>
      </trkpt>
      <trkpt lat="47.85921" lon="3.77247">
        <ele>145</ele>
        <time>2019-10-26T10:22:41.000Z</time>
      </trkpt>
      <trkpt lat="47.85919" lon="3.77249">
        <ele>145</ele>
        <time>2019-10-26T10:22:42.000Z</time>
      </trkpt>
      <trkpt lat="47.85917" lon="3.77251">
        <ele>145</ele>
        <time>2019-10-26T10:22:43.000Z</time>
      </trkpt>
      <trkpt lat="47.85915" lon="3.77253">
        <ele>145</ele>
        <time>2019-10-26T10:22:44.000Z</time>
      </trkpt>
      <trkpt lat="47.85913" lon="3.77255">
        <ele>145</ele>
        <time>2019-10-26T10:22:45.000Z</time>
      </trkpt>
      <trkpt lat="47.85911" lon="3.77257">
        <ele>145</ele>
        <time>2019-10-26T10:22:46.000Z</time>
      </trkpt>
      <trkpt lat="47.85909" lon="3.77258">
        <ele>145</ele>
        <time>2019-10-26T10:22:47.000Z</time>
      </trkpt>
      <trkpt lat="47.85907" lon="3.7726">
        <ele>145</ele>
        <time>2019-10-26T10:22:48.000Z</time>
      </trkpt>
      <trkpt lat="47.85905" lon="3.77262">
        <ele>145</ele>
        <time>2019-10-26T10:22:49.000Z</time>
      </trkpt>
      <trkpt lat="47.85903" lon="3.77264">
        <ele>145</ele>
        <time>2019-10-26T10:22:50.000Z</time>
      </trkpt>
      <trkpt lat="47.859" lon="3.77266">
        <ele>145</ele>
        <time>2019-10-26T10:22:51.000Z</time>
      </trkpt>
      <trkpt lat="47.85898" lon="3.77267">
        <ele>145</ele>
        <time>2019-10-26T10:22:52.000Z</time>
      </trkpt>
      <trkpt lat="47.85897" lon="3.77269">
        <ele>145</ele>
        <time>2019-10-26T10:22:53.000Z</time>
      </trkpt>
      <trkpt lat="47.85894" lon="3.77271">
        <ele>145</ele>
        <time>2019-10-26T10:22:54.000Z</time>
      </trkpt>
      <trkpt lat="47.85893" lon="3.77273">
        <ele>145</ele>
        <time>2019-10-26T10:22:55.000Z</time>
      </trkpt>
      <trkpt lat="47.85891" lon="3.77275">
        <ele>145</ele>
        <time>2019-10-26T10:22:56.000Z</time>
      </trkpt>
      <trkpt lat="47.85889" lon="3.77277">
        <ele>145</ele>
        <time>2019-10-26T10:22:57.000Z</time>
      </trkpt>
      <trkpt lat="47.85886" lon="3.77279">
        <ele>145</ele>
        <time>2019-10-26T10:22:58.000Z</time>
      </trkpt>
      <trkpt lat="47.85884" lon="3.77281">
        <ele>145</ele>
        <time>2019-10-26T10:22:59.000Z</time>
      </trkpt>
      <trkpt lat="47.85882" lon="3.77283">
        <ele>145</ele>
        <time>2019-10-26T10:23:00.000Z</time>
      </trkpt>
      <trkpt lat="47.8588" lon="3.77285">
        <ele>146</ele>
        <time>2019-10-26T10:23:01.000Z</time>
      </trkpt>
      <trkpt lat="47.85878" lon="3.77287">
        <ele>146</ele>
        <time>2019-10-26T10:23:02.000Z</time>
      </trkpt>
      <trkpt lat="47.85876" lon="3.77289">
        <ele>146</ele>
        <time>2019-10-26T10:23:03.000Z</time>
      </trkpt>
      <trkpt lat="47.85874" lon="3.77291">
        <ele>146</ele>
        <time>2019-10-26T10:23:04.000Z</time>
      </trkpt>
      <trkpt lat="47.85872" lon="3.77293">
        <ele>146</ele>
        <time>2019-10-26T10:23:05.000Z</time>
      </trkpt>
      <trkpt lat="47.85869" lon="3.77294">
        <ele>146</ele>
        <time>2019-10-26T10:23:06.000Z</time>
      </trkpt>
      <trkpt lat="47.85867" lon="3.77296">
        <ele>146</ele>
        <time>2019-10-26T10:23:07.000Z</time>
      </trkpt>
      <trkpt lat="47.85865" lon="3.77298">
        <ele>146</ele>
        <time>2019-10-26T10:23:08.000Z</time>
      </trkpt>
      <trkpt lat="47.85863" lon="3.773">
        <ele>146</ele>
        <time>2019-10-26T10:23:09.000Z</time>
      </trkpt>
      <trkpt lat="47.85861" lon="3.77302">
        <ele>146</ele>
        <time>2019-10-26T10:23:10.000Z</time>
      </trkpt>
      <trkpt lat="47.85858" lon="3.77303">
        <ele>146</ele>
        <time>2019-10-26T10:23:11.000Z</time>
      </trkpt>
      <trkpt lat="47.85856" lon="3.77305">
        <ele>146</ele>
        <time>2019-10-26T10:23:12.000Z</time>
      </trkpt>
      <trkpt lat="47.85854" lon="3.77307">
        <ele>146</ele>
        <time>2019-10-26T10:23:13.000Z</time>
      </trkpt>
      <trkpt lat="47.85852" lon="3.77309">
        <ele>146</ele>
        <time>2019-10-26T10:23:14.000Z</time>
      </trkpt>
      <trkpt lat="47.85849" lon="3.77311">
        <ele>146</ele>
        <time>2019-10-26T10:23:15.000Z</time>
      </trkpt>
      <trkpt lat="47.85847" lon="3.77312">
        <ele>146</ele>
        <time>2019-10-26T10:23:16.000Z</time>
      </trkpt>
      <trkpt lat="47.85845" lon="3.77314">
        <ele>145</ele>
        <time>2019-10-26T10:23:17.000Z</time>
      </trkpt>
      <trkpt lat="47.85843" lon="3.77316">
        <ele>145</ele>
        <time>2019-10-26T10:23:18.000Z</time>
      </trkpt>
      <trkpt lat="47.8584" lon="3.77317">
        <ele>145</ele>
        <time>2019-10-26T10:23:19.000Z</time>
      </trkpt>
      <trkpt lat="47.85838" lon="3.77319">
        <ele>145</ele>
        <time>2019-10-26T10:23:20.000Z</time>
      </trkpt>
      <trkpt lat="47.85836" lon="3.7732">
        <ele>145</ele>
        <time>2019-10-26T10:23:21.000Z</time>
      </trkpt>
      <trkpt lat="47.85833" lon="3.77321">
        <ele>145</ele>
        <time>2019-10-26T10:23:22.000Z</time>
      </trkpt>
      <trkpt lat="47.85831" lon="3.77322">
        <ele>145</ele>
        <time>2019-10-26T10:23:23.000Z</time>
      </trkpt>
      <trkpt lat="47.85829" lon="3.77324">
        <ele>145</ele>
        <time>2019-10-26T10:23:24.000Z</time>
      </trkpt>
      <trkpt lat="47.85826" lon="3.77325">
        <ele>145</ele>
        <time>2019-10-26T10:23:25.000Z</time>
      </trkpt>
      <trkpt lat="47.85824" lon="3.77327">
        <ele>145</ele>
        <time>2019-10-26T10:23:26.000Z</time>
      </trkpt>
      <trkpt lat="47.85822" lon="3.77328">
        <ele>145</ele>
        <time>2019-10-26T10:23:27.000Z</time>
      </trkpt>
      <trkpt lat="47.8582" lon="3.7733">
        <ele>145</ele>
        <time>2019-10-26T10:23:28.000Z</time>
      </trkpt>
      <trkpt lat="47.85818" lon="3.77331">
        <ele>145</ele>
        <time>2019-10-26T10:23:29.000Z</time>
      </trkpt>
      <trkpt lat="47.85815" lon="3.77333">
        <ele>145</ele>
        <time>2019-10-26T10:23:30.000Z</time>
      </trkpt>
      <trkpt lat="47.85813" lon="3.77334">
        <ele>145</ele>
        <time>2019-10-26T10:23:31.000Z</time>
      </trkpt>
      <trkpt lat="47.85811" lon="3.77334">
        <ele>145</ele>
        <time>2019-10-26T10:23:32.000Z</time>
      </trkpt>
      <trkpt lat="47.85809" lon="3.77334">
        <ele>145</ele>
        <time>2019-10-26T10:23:33.000Z</time>
      </trkpt>
      <trkpt lat="47.85808" lon="3.77333">
        <ele>145</ele>
        <time>2019-10-26T10:23:34.000Z</time>
      </trkpt>
      <trkpt lat="47.85807" lon="3.77333">
        <ele>145</ele>
        <time>2019-10-26T10:23:35.000Z</time>
      </trkpt>
      <trkpt lat="47.85807" lon="3.77332">
        <ele>145</ele>
        <time>2019-10-26T10:23:36.000Z</time>
      </trkpt>
      <trkpt lat="47.85806" lon="3.77332">
        <ele>144</ele>
        <time>2019-10-26T10:23:37.000Z</time>
      </trkpt>
      <trkpt lat="47.85806" lon="3.77332">
        <ele>144</ele>
        <time>2019-10-26T10:23:38.000Z</time>
      </trkpt>
      <trkpt lat="47.85806" lon="3.77331">
        <ele>144</ele>
        <time>2019-10-26T10:23:39.000Z</time>
      </trkpt>
      <trkpt lat="47.85806" lon="3.77331">
        <ele>144</ele>
        <time>2019-10-26T10:23:40.000Z</time>
      </trkpt>
      <trkpt lat="47.85807" lon="3.77332">
        <ele>144</ele>
        <time>2019-10-26T10:23:41.000Z</time>
      </trkpt>
      <trkpt lat="47.85807" lon="3.77333">
        <ele>144</ele>
        <time>2019-10-26T10:23:42.000Z</time>
      </trkpt>
      <trkpt lat="47.85806" lon="3.77335">
        <ele>144</ele>
        <time>2019-10-26T10:23:43.000Z</time>
      </trkpt>
      <trkpt lat="47.85805" lon="3.77337">
        <ele>144</ele>
        <time>2019-10-26T10:23:44.000Z</time>
      </trkpt>
      <trkpt lat="47.85804" lon="3.77339">
        <ele>144</ele>
        <time>2019-10-26T10:23:45.000Z</time>
      </trkpt>
      <trkpt lat="47.85802" lon="3.77341">
        <ele>143</ele>
        <time>2019-10-26T10:23:46.000Z</time>
      </trkpt>
      <trkpt lat="47.85801" lon="3.77343">
        <ele>143</ele>
        <time>2019-10-26T10:23:47.000Z</time>
      </trkpt>
      <trkpt lat="47.85799" lon="3.77345">
        <ele>143</ele>
        <time>2019-10-26T10:23:48.000Z</time>
      </trkpt>
      <trkpt lat="47.85797" lon="3.77346">
        <ele>143</ele>
        <time>2019-10-26T10:23:49.000Z</time>
      </trkpt>
      <trkpt lat="47.85795" lon="3.77348">
        <ele>143</ele>
        <time>2019-10-26T10:23:50.000Z</time>
      </trkpt>
      <trkpt lat="47.85793" lon="3.77349">
        <ele>143</ele>
        <time>2019-10-26T10:23:51.000Z</time>
      </trkpt>
      <trkpt lat="47.85791" lon="3.77351">
        <ele>143</ele>
        <time>2019-10-26T10:23:52.000Z</time>
      </trkpt>
      <trkpt lat="47.85789" lon="3.77353">
        <ele>143</ele>
        <time>2019-10-26T10:23:53.000Z</time>
      </trkpt>
      <trkpt lat="47.85787" lon="3.77354">
        <ele>143</ele>
        <time>2019-10-26T10:23:54.000Z</time>
      </trkpt>
      <trkpt lat="47.85785" lon="3.77356">
        <ele>143</ele>
        <time>2019-10-26T10:23:55.000Z</time>
      </trkpt>
      <trkpt lat="47.85783" lon="3.77358">
        <ele>143</ele>
        <time>2019-10-26T10:23:56.000Z</time>
      </trkpt>
      <trkpt lat="47.85781" lon="3.77359">
        <ele>143</ele>
        <time>2019-10-26T10:23:57.000Z</time>
      </trkpt>
      <trkpt lat="47.85779" lon="3.77361">
        <ele>143</ele>
        <time>2019-10-26T10:23:58.000Z</time>
      </trkpt>
      <trkpt lat="47.85777" lon="3.77362">
        <ele>143</ele>
        <time>2019-10-26T10:23:59.000Z</time>
      </trkpt>
      <trkpt lat="47.85775" lon="3.77364">
        <ele>143</ele>
        <time>2019-10-26T10:24:00.000Z</time>
      </trkpt>
      <trkpt lat="47.85773" lon="3.77365">
        <ele>143</ele>
        <time>2019-10-26T10:24:01.000Z</time>
      </trkpt>
      <trkpt lat="47.8577" lon="3.77367">
        <ele>143</ele>
        <time>2019-10-26T10:24:02.000Z</time>
      </trkpt>
      <trkpt lat="47.85768" lon="3.77368">
        <ele>143</ele>
        <time>2019-10-26T10:24:03.000Z</time>
      </trkpt>
      <trkpt lat="47.85766" lon="3.7737">
        <ele>143</ele>
        <time>2019-10-26T10:24:04.000Z</time>
      </trkpt>
      <trkpt lat="47.85764" lon="3.77371">
        <ele>143</ele>
        <time>2019-10-26T10:24:05.000Z</time>
      </trkpt>
      <trkpt lat="47.85762" lon="3.77373">
        <ele>143</ele>
        <time>2019-10-26T10:24:06.000Z</time>
      </trkpt>
      <trkpt lat="47.8576" lon="3.77375">
        <ele>144</ele>
        <time>2019-10-26T10:24:07.000Z</time>
      </trkpt>
      <trkpt lat="47.85757" lon="3.77376">
        <ele>144</ele>
        <time>2019-10-26T10:24:08.000Z</time>
      </trkpt>
      <trkpt lat="47.85755" lon="3.77378">
        <ele>144</ele>
        <time>2019-10-26T10:24:09.000Z</time>
      </trkpt>
      <trkpt lat="47.85753" lon="3.7738">
        <ele>144</ele>
        <time>2019-10-26T10:24:10.000Z</time>
      </trkpt>
      <trkpt lat="47.85751" lon="3.77381">
        <ele>144</ele>
        <time>2019-10-26T10:24:11.000Z</time>
      </trkpt>
      <trkpt lat="47.85749" lon="3.77383">
        <ele>144</ele>
        <time>2019-10-26T10:24:12.000Z</time>
      </trkpt>
      <trkpt lat="47.85747" lon="3.77384">
        <ele>144</ele>
        <time>2019-10-26T10:24:13.000Z</time>
      </trkpt>
      <trkpt lat="47.85745" lon="3.77386">
        <ele>144</ele>
        <time>2019-10-26T10:24:14.000Z</time>
      </trkpt>
      <trkpt lat="47.85743" lon="3.77387">
        <ele>144</ele>
        <time>2019-10-26T10:24:15.000Z</time>
      </trkpt>
      <trkpt lat="47.85741" lon="3.77389">
        <ele>144</ele>
        <time>2019-10-26T10:24:16.000Z</time>
      </trkpt>
      <trkpt lat="47.85739" lon="3.7739">
        <ele>144</ele>
        <time>2019-10-26T10:24:17.000Z</time>
      </trkpt>
      <trkpt lat="47.85737" lon="3.77392">
        <ele>144</ele>
        <time>2019-10-26T10:24:18.000Z</time>
      </trkpt>
      <trkpt lat="47.85735" lon="3.77393">
        <ele>144</ele>
        <time>2019-10-26T10:24:19.000Z</time>
      </trkpt>
      <trkpt lat="47.85733" lon="3.77395">
        <ele>144</ele>
        <time>2019-10-26T10:24:20.000Z</time>
      </trkpt>
      <trkpt lat="47.85731" lon="3.77396">
        <ele>144</ele>
        <time>2019-10-26T10:24:21.000Z</time>
      </trkpt>
      <trkpt lat="47.85729" lon="3.77397">
        <ele>145</ele>
        <time>2019-10-26T10:24:22.000Z</time>
      </trkpt>
      <trkpt lat="47.85727" lon="3.77399">
        <ele>145</ele>
        <time>2019-10-26T10:24:23.000Z</time>
      </trkpt>
      <trkpt lat="47.85725" lon="3.774">
        <ele>145</ele>
        <time>2019-10-26T10:24:24.000Z</time>
      </trkpt>
      <trkpt lat="47.85723" lon="3.77402">
        <ele>145</ele>
        <time>2019-10-26T10:24:25.000Z</time>
      </trkpt>
      <trkpt lat="47.85721" lon="3.77404">
        <ele>145</ele>
        <time>2019-10-26T10:24:26.000Z</time>
      </trkpt>
      <trkpt lat="47.85719" lon="3.77406">
        <ele>145</ele>
        <time>2019-10-26T10:24:27.000Z</time>
      </trkpt>
      <trkpt lat="47.85717" lon="3.77408">
        <ele>145</ele>
        <time>2019-10-26T10:24:28.000Z</time>
      </trkpt>
      <trkpt lat="47.85715" lon="3.77409">
        <ele>145</ele>
        <time>2019-10-26T10:24:29.000Z</time>
      </trkpt>
      <trkpt lat="47.85713" lon="3.77411">
        <ele>145</ele>
        <time>2019-10-26T10:24:30.000Z</time>
      </trkpt>
      <trkpt lat="47.85711" lon="3.77413">
        <ele>145</ele>
        <time>2019-10-26T10:24:31.000Z</time>
      </trkpt>
      <trkpt lat="47.85709" lon="3.77414">
        <ele>145</ele>
        <time>2019-10-26T10:24:32.000Z</time>
      </trkpt>
      <trkpt lat="47.85708" lon="3.77416">
        <ele>145</ele>
        <time>2019-10-26T10:24:33.000Z</time>
      </trkpt>
      <trkpt lat="47.85705" lon="3.77418">
        <ele>146</ele>
        <time>2019-10-26T10:24:34.000Z</time>
      </trkpt>
      <trkpt lat="47.85704" lon="3.7742">
        <ele>146</ele>
        <time>2019-10-26T10:24:35.000Z</time>
      </trkpt>
      <trkpt lat="47.85702" lon="3.77422">
        <ele>146</ele>
        <time>2019-10-26T10:24:36.000Z</time>
      </trkpt>
      <trkpt lat="47.857" lon="3.77424">
        <ele>146</ele>
        <time>2019-10-26T10:24:37.000Z</time>
      </trkpt>
      <trkpt lat="47.85699" lon="3.77425">
        <ele>146</ele>
        <time>2019-10-26T10:24:38.000Z</time>
      </trkpt>
      <trkpt lat="47.85697" lon="3.77426">
        <ele>146</ele>
        <time>2019-10-26T10:24:39.000Z</time>
      </trkpt>
      <trkpt lat="47.85696" lon="3.77427">
        <ele>146</ele>
        <time>2019-10-26T10:24:40.000Z</time>
      </trkpt>
      <trkpt lat="47.85695" lon="3.77429">
        <ele>146</ele>
        <time>2019-10-26T10:24:41.000Z</time>
      </trkpt>
      <trkpt lat="47.85694" lon="3.7743">
        <ele>146</ele>
        <time>2019-10-26T10:24:42.000Z</time>
      </trkpt>
      <trkpt lat="47.85692" lon="3.77431">
        <ele>146</ele>
        <time>2019-10-26T10:24:43.000Z</time>
      </trkpt>
      <trkpt lat="47.85691" lon="3.77432">
        <ele>146</ele>
        <time>2019-10-26T10:24:44.000Z</time>
      </trkpt>
      <trkpt lat="47.8569" lon="3.77433">
        <ele>146</ele>
        <time>2019-10-26T10:24:45.000Z</time>
      </trkpt>
      <trkpt lat="47.85689" lon="3.77434">
        <ele>147</ele>
        <time>2019-10-26T10:24:46.000Z</time>
      </trkpt>
      <trkpt lat="47.85688" lon="3.77436">
        <ele>147</ele>
        <time>2019-10-26T10:24:47.000Z</time>
      </trkpt>
      <trkpt lat="47.85687" lon="3.77437">
        <ele>147</ele>
        <time>2019-10-26T10:24:48.000Z</time>
      </trkpt>
      <trkpt lat="47.85686" lon="3.77438">
        <ele>147</ele>
        <time>2019-10-26T10:24:49.000Z</time>
      </trkpt>
      <trkpt lat="47.85685" lon="3.77439">
        <ele>147</ele>
        <time>2019-10-26T10:24:50.000Z</time>
      </trkpt>
      <trkpt lat="47.85683" lon="3.77441">
        <ele>147</ele>
        <time>2019-10-26T10:24:51.000Z</time>
      </trkpt>
      <trkpt lat="47.85682" lon="3.77442">
        <ele>147</ele>
        <time>2019-10-26T10:24:52.000Z</time>
      </trkpt>
      <trkpt lat="47.85681" lon="3.77443">
        <ele>147</ele>
        <time>2019-10-26T10:24:53.000Z</time>
      </trkpt>
      <trkpt lat="47.8568" lon="3.77445">
        <ele>147</ele>
        <time>2019-10-26T10:24:54.000Z</time>
      </trkpt>
      <trkpt lat="47.85679" lon="3.77446">
        <ele>148</ele>
        <time>2019-10-26T10:24:55.000Z</time>
      </trkpt>
      <trkpt lat="47.85677" lon="3.77447">
        <ele>148</ele>
        <time>2019-10-26T10:24:56.000Z</time>
      </trkpt>
      <trkpt lat="47.85676" lon="3.77449">
        <ele>148</ele>
        <time>2019-10-26T10:24:57.000Z</time>
      </trkpt>
      <trkpt lat="47.85675" lon="3.7745">
        <ele>148</ele>
        <time>2019-10-26T10:24:58.000Z</time>
      </trkpt>
      <trkpt lat="47.85674" lon="3.77451">
        <ele>148</ele>
        <time>2019-10-26T10:24:59.000Z</time>
      </trkpt>
      <trkpt lat="47.85672" lon="3.77453">
        <ele>148</ele>
        <time>2019-10-26T10:25:00.000Z</time>
      </trkpt>
      <trkpt lat="47.85671" lon="3.77454">
        <ele>148</ele>
        <time>2019-10-26T10:25:01.000Z</time>
      </trkpt>
      <trkpt lat="47.8567" lon="3.77455">
        <ele>148</ele>
        <time>2019-10-26T10:25:02.000Z</time>
      </trkpt>
      <trkpt lat="47.85669" lon="3.77457">
        <ele>149</ele>
        <time>2019-10-26T10:25:03.000Z</time>
      </trkpt>
      <trkpt lat="47.85667" lon="3.77458">
        <ele>149</ele>
        <time>2019-10-26T10:25:04.000Z</time>
      </trkpt>
      <trkpt lat="47.85666" lon="3.7746">
        <ele>149</ele>
        <time>2019-10-26T10:25:05.000Z</time>
      </trkpt>
      <trkpt lat="47.85665" lon="3.77461">
        <ele>149</ele>
        <time>2019-10-26T10:25:06.000Z</time>
      </trkpt>
      <trkpt lat="47.85664" lon="3.77463">
        <ele>149</ele>
        <time>2019-10-26T10:25:07.000Z</time>
      </trkpt>
      <trkpt lat="47.85663" lon="3.77464">
        <ele>150</ele>
        <time>2019-10-26T10:25:08.000Z</time>
      </trkpt>
      <trkpt lat="47.85661" lon="3.77465">
        <ele>150</ele>
        <time>2019-10-26T10:25:09.000Z</time>
      </trkpt>
      <trkpt lat="47.8566" lon="3.77467">
        <ele>150</ele>
        <time>2019-10-26T10:25:10.000Z</time>
      </trkpt>
      <trkpt lat="47.85659" lon="3.77468">
        <ele>150</ele>
        <time>2019-10-26T10:25:11.000Z</time>
      </trkpt>
      <trkpt lat="47.85658" lon="3.7747">
        <ele>150</ele>
        <time>2019-10-26T10:25:12.000Z</time>
      </trkpt>
      <trkpt lat="47.85657" lon="3.77471">
        <ele>150</ele>
        <time>2019-10-26T10:25:13.000Z</time>
      </trkpt>
      <trkpt lat="47.85655" lon="3.77473">
        <ele>150</ele>
        <time>2019-10-26T10:25:14.000Z</time>
      </trkpt>
      <trkpt lat="47.85654" lon="3.77474">
        <ele>151</ele>
        <time>2019-10-26T10:25:15.000Z</time>
      </trkpt>
      <trkpt lat="47.85653" lon="3.77476">
        <ele>151</ele>
        <time>2019-10-26T10:25:16.000Z</time>
      </trkpt>
      <trkpt lat="47.85652" lon="3.77478">
        <ele>151</ele>
        <time>2019-10-26T10:25:17.000Z</time>
      </trkpt>
      <trkpt lat="47.85651" lon="3.77479">
        <ele>151</ele>
        <time>2019-10-26T10:25:18.000Z</time>
      </trkpt>
      <trkpt lat="47.85649" lon="3.77481">
        <ele>151</ele>
        <time>2019-10-26T10:25:19.000Z</time>
      </trkpt>
      <trkpt lat="47.85648" lon="3.77482">
        <ele>151</ele>
        <time>2019-10-26T10:25:20.000Z</time>
      </trkpt>
      <trkpt lat="47.85647" lon="3.77484">
        <ele>152</ele>
        <time>2019-10-26T10:25:21.000Z</time>
      </trkpt>
      <trkpt lat="47.85646" lon="3.77486">
        <ele>152</ele>
        <time>2019-10-26T10:25:22.000Z</time>
      </trkpt>
      <trkpt lat="47.85644" lon="3.77488">
        <ele>152</ele>
        <time>2019-10-26T10:25:23.000Z</time>
      </trkpt>
      <trkpt lat="47.85643" lon="3.7749">
        <ele>152</ele>
        <time>2019-10-26T10:25:24.000Z</time>
      </trkpt>
      <trkpt lat="47.85642" lon="3.77492">
        <ele>152</ele>
        <time>2019-10-26T10:25:25.000Z</time>
      </trkpt>
      <trkpt lat="47.85641" lon="3.77493">
        <ele>152</ele>
        <time>2019-10-26T10:25:26.000Z</time>
      </trkpt>
      <trkpt lat="47.85639" lon="3.77495">
        <ele>152</ele>
        <time>2019-10-26T10:25:27.000Z</time>
      </trkpt>
      <trkpt lat="47.85638" lon="3.77497">
        <ele>152</ele>
        <time>2019-10-26T10:25:28.000Z</time>
      </trkpt>
      <trkpt lat="47.85636" lon="3.77499">
        <ele>152</ele>
        <time>2019-10-26T10:25:29.000Z</time>
      </trkpt>
      <trkpt lat="47.85635" lon="3.775">
        <ele>152</ele>
        <time>2019-10-26T10:25:30.000Z</time>
      </trkpt>
      <trkpt lat="47.85634" lon="3.77502">
        <ele>152</ele>
        <time>2019-10-26T10:25:31.000Z</time>
      </trkpt>
      <trkpt lat="47.85632" lon="3.77504">
        <ele>152</ele>
        <time>2019-10-26T10:25:32.000Z</time>
      </trkpt>
      <trkpt lat="47.85631" lon="3.77506">
        <ele>153</ele>
        <time>2019-10-26T10:25:33.000Z</time>
      </trkpt>
      <trkpt lat="47.8563" lon="3.77507">
        <ele>153</ele>
        <time>2019-10-26T10:25:34.000Z</time>
      </trkpt>
      <trkpt lat="47.85629" lon="3.77509">
        <ele>153</ele>
        <time>2019-10-26T10:25:35.000Z</time>
      </trkpt>
      <trkpt lat="47.85628" lon="3.77511">
        <ele>153</ele>
        <time>2019-10-26T10:25:36.000Z</time>
      </trkpt>
      <trkpt lat="47.85627" lon="3.77512">
        <ele>153</ele>
        <time>2019-10-26T10:25:37.000Z</time>
      </trkpt>
      <trkpt lat="47.85626" lon="3.77514">
        <ele>153</ele>
        <time>2019-10-26T10:25:38.000Z</time>
      </trkpt>
      <trkpt lat="47.85624" lon="3.77516">
        <ele>153</ele>
        <time>2019-10-26T10:25:39.000Z</time>
      </trkpt>
      <trkpt lat="47.85623" lon="3.77517">
        <ele>153</ele>
        <time>2019-10-26T10:25:40.000Z</time>
      </trkpt>
      <trkpt lat="47.85622" lon="3.77519">
        <ele>153</ele>
        <time>2019-10-26T10:25:41.000Z</time>
      </trkpt>
      <trkpt lat="47.85621" lon="3.7752">
        <ele>153</ele>
        <time>2019-10-26T10:25:42.000Z</time>
      </trkpt>
      <trkpt lat="47.8562" lon="3.77522">
        <ele>154</ele>
        <time>2019-10-26T10:25:43.000Z</time>
      </trkpt>
      <trkpt lat="47.85619" lon="3.77524">
        <ele>154</ele>
        <time>2019-10-26T10:25:44.000Z</time>
      </trkpt>
      <trkpt lat="47.85617" lon="3.77526">
        <ele>154</ele>
        <time>2019-10-26T10:25:45.000Z</time>
      </trkpt>
      <trkpt lat="47.85616" lon="3.77527">
        <ele>154</ele>
        <time>2019-10-26T10:25:46.000Z</time>
      </trkpt>
      <trkpt lat="47.85615" lon="3.77529">
        <ele>154</ele>
        <time>2019-10-26T10:25:47.000Z</time>
      </trkpt>
      <trkpt lat="47.85614" lon="3.77531">
        <ele>154</ele>
        <time>2019-10-26T10:25:48.000Z</time>
      </trkpt>
      <trkpt lat="47.85612" lon="3.77532">
        <ele>154</ele>
        <time>2019-10-26T10:25:49.000Z</time>
      </trkpt>
      <trkpt lat="47.85611" lon="3.77534">
        <ele>154</ele>
        <time>2019-10-26T10:25:50.000Z</time>
      </trkpt>
      <trkpt lat="47.8561" lon="3.77536">
        <ele>154</ele>
        <time>2019-10-26T10:25:51.000Z</time>
      </trkpt>
      <trkpt lat="47.85609" lon="3.77537">
        <ele>154</ele>
        <time>2019-10-26T10:25:52.000Z</time>
      </trkpt>
      <trkpt lat="47.85608" lon="3.77539">
        <ele>154</ele>
        <time>2019-10-26T10:25:53.000Z</time>
      </trkpt>
      <trkpt lat="47.85606" lon="3.7754">
        <ele>155</ele>
        <time>2019-10-26T10:25:54.000Z</time>
      </trkpt>
      <trkpt lat="47.85605" lon="3.77542">
        <ele>155</ele>
        <time>2019-10-26T10:25:55.000Z</time>
      </trkpt>
      <trkpt lat="47.85604" lon="3.77543">
        <ele>155</ele>
        <time>2019-10-26T10:25:56.000Z</time>
      </trkpt>
      <trkpt lat="47.85602" lon="3.77545">
        <ele>155</ele>
        <time>2019-10-26T10:25:57.000Z</time>
      </trkpt>
      <trkpt lat="47.85601" lon="3.77546">
        <ele>155</ele>
        <time>2019-10-26T10:25:58.000Z</time>
      </trkpt>
      <trkpt lat="47.856" lon="3.77548">
        <ele>155</ele>
        <time>2019-10-26T10:25:59.000Z</time>
      </trkpt>
      <trkpt lat="47.85598" lon="3.77549">
        <ele>155</ele>
        <time>2019-10-26T10:26:00.000Z</time>
      </trkpt>
      <trkpt lat="47.85597" lon="3.77551">
        <ele>155</ele>
        <time>2019-10-26T10:26:01.000Z</time>
      </trkpt>
      <trkpt lat="47.85596" lon="3.77552">
        <ele>155</ele>
        <time>2019-10-26T10:26:02.000Z</time>
      </trkpt>
      <trkpt lat="47.85595" lon="3.77554">
        <ele>155</ele>
        <time>2019-10-26T10:26:03.000Z</time>
      </trkpt>
      <trkpt lat="47.85594" lon="3.77555">
        <ele>155</ele>
        <time>2019-10-26T10:26:04.000Z</time>
      </trkpt>
      <trkpt lat="47.85592" lon="3.77557">
        <ele>155</ele>
        <time>2019-10-26T10:26:05.000Z</time>
      </trkpt>
      <trkpt lat="47.85591" lon="3.77558">
        <ele>155</ele>
        <time>2019-10-26T10:26:06.000Z</time>
      </trkpt>
      <trkpt lat="47.8559" lon="3.7756">
        <ele>155</ele>
        <time>2019-10-26T10:26:07.000Z</time>
      </trkpt>
      <trkpt lat="47.85588" lon="3.77561">
        <ele>155</ele>
        <time>2019-10-26T10:26:08.000Z</time>
      </trkpt>
      <trkpt lat="47.85587" lon="3.77563">
        <ele>156</ele>
        <time>2019-10-26T10:26:09.000Z</time>
      </trkpt>
      <trkpt lat="47.85586" lon="3.77564">
        <ele>156</ele>
        <time>2019-10-26T10:26:10.000Z</time>
      </trkpt>
      <trkpt lat="47.85584" lon="3.77566">
        <ele>156</ele>
        <time>2019-10-26T10:26:11.000Z</time>
      </trkpt>
      <trkpt lat="47.85583" lon="3.77568">
        <ele>156</ele>
        <time>2019-10-26T10:26:12.000Z</time>
      </trkpt>
      <trkpt lat="47.85582" lon="3.77569">
        <ele>156</ele>
        <time>2019-10-26T10:26:13.000Z</time>
      </trkpt>
      <trkpt lat="47.85581" lon="3.77571">
        <ele>156</ele>
        <time>2019-10-26T10:26:14.000Z</time>
      </trkpt>
      <trkpt lat="47.85579" lon="3.77573">
        <ele>157</ele>
        <time>2019-10-26T10:26:15.000Z</time>
      </trkpt>
      <trkpt lat="47.85578" lon="3.77574">
        <ele>157</ele>
        <time>2019-10-26T10:26:16.000Z</time>
      </trkpt>
      <trkpt lat="47.85577" lon="3.77576">
        <ele>157</ele>
        <time>2019-10-26T10:26:17.000Z</time>
      </trkpt>
      <trkpt lat="47.85576" lon="3.77577">
        <ele>157</ele>
        <time>2019-10-26T10:26:18.000Z</time>
      </trkpt>
      <trkpt lat="47.85574" lon="3.77579">
        <ele>157</ele>
        <time>2019-10-26T10:26:19.000Z</time>
      </trkpt>
      <trkpt lat="47.85573" lon="3.7758">
        <ele>157</ele>
        <time>2019-10-26T10:26:20.000Z</time>
      </trkpt>
      <trkpt lat="47.85572" lon="3.77582">
        <ele>157</ele>
        <time>2019-10-26T10:26:21.000Z</time>
      </trkpt>
      <trkpt lat="47.85571" lon="3.77583">
        <ele>157</ele>
        <time>2019-10-26T10:26:22.000Z</time>
      </trkpt>
      <trkpt lat="47.85569" lon="3.77585">
        <ele>157</ele>
        <time>2019-10-26T10:26:23.000Z</time>
      </trkpt>
      <trkpt lat="47.85568" lon="3.77586">
        <ele>157</ele>
        <time>2019-10-26T10:26:24.000Z</time>
      </trkpt>
      <trkpt lat="47.85567" lon="3.77588">
        <ele>157</ele>
        <time>2019-10-26T10:26:25.000Z</time>
      </trkpt>
      <trkpt lat="47.85566" lon="3.77589">
        <ele>158</ele>
        <time>2019-10-26T10:26:26.000Z</time>
      </trkpt>
      <trkpt lat="47.85565" lon="3.77591">
        <ele>158</ele>
        <time>2019-10-26T10:26:27.000Z</time>
      </trkpt>
      <trkpt lat="47.85563" lon="3.77592">
        <ele>158</ele>
        <time>2019-10-26T10:26:28.000Z</time>
      </trkpt>
      <trkpt lat="47.85562" lon="3.77594">
        <ele>158</ele>
        <time>2019-10-26T10:26:29.000Z</time>
      </trkpt>
      <trkpt lat="47.85561" lon="3.77596">
        <ele>158</ele>
        <time>2019-10-26T10:26:30.000Z</time>
      </trkpt>
      <trkpt lat="47.8556" lon="3.77597">
        <ele>159</ele>
        <time>2019-10-26T10:26:31.000Z</time>
      </trkpt>
      <trkpt lat="47.85559" lon="3.77599">
        <ele>159</ele>
        <time>2019-10-26T10:26:32.000Z</time>
      </trkpt>
      <trkpt lat="47.85558" lon="3.77601">
        <ele>159</ele>
        <time>2019-10-26T10:26:33.000Z</time>
      </trkpt>
      <trkpt lat="47.85557" lon="3.77602">
        <ele>159</ele>
        <time>2019-10-26T10:26:34.000Z</time>
      </trkpt>
      <trkpt lat="47.85556" lon="3.77603">
        <ele>159</ele>
        <time>2019-10-26T10:26:35.000Z</time>
      </trkpt>
      <trkpt lat="47.85555" lon="3.77605">
        <ele>159</ele>
        <time>2019-10-26T10:26:36.000Z</time>
      </trkpt>
      <trkpt lat="47.85554" lon="3.77606">
        <ele>159</ele>
        <time>2019-10-26T10:26:37.000Z</time>
      </trkpt>
      <trkpt lat="47.85552" lon="3.77608">
        <ele>159</ele>
        <time>2019-10-26T10:26:38.000Z</time>
      </trkpt>
      <trkpt lat="47.85551" lon="3.77609">
        <ele>158</ele>
        <time>2019-10-26T10:26:39.000Z</time>
      </trkpt>
      <trkpt lat="47.8555" lon="3.77611">
        <ele>158</ele>
        <time>2019-10-26T10:26:40.000Z</time>
      </trkpt>
      <trkpt lat="47.85549" lon="3.77613">
        <ele>158</ele>
        <time>2019-10-26T10:26:41.000Z</time>
      </trkpt>
      <trkpt lat="47.85547" lon="3.77614">
        <ele>158</ele>
        <time>2019-10-26T10:26:42.000Z</time>
      </trkpt>
      <trkpt lat="47.85546" lon="3.77616">
        <ele>158</ele>
        <time>2019-10-26T10:26:43.000Z</time>
      </trkpt>
      <trkpt lat="47.85545" lon="3.77618">
        <ele>159</ele>
        <time>2019-10-26T10:26:44.000Z</time>
      </trkpt>
      <trkpt lat="47.85544" lon="3.77619">
        <ele>159</ele>
        <time>2019-10-26T10:26:45.000Z</time>
      </trkpt>
      <trkpt lat="47.85542" lon="3.77621">
        <ele>159</ele>
        <time>2019-10-26T10:26:46.000Z</time>
      </trkpt>
      <trkpt lat="47.85541" lon="3.77622">
        <ele>159</ele>
        <time>2019-10-26T10:26:47.000Z</time>
      </trkpt>
      <trkpt lat="47.8554" lon="3.77624">
        <ele>159</ele>
        <time>2019-10-26T10:26:48.000Z</time>
      </trkpt>
      <trkpt lat="47.85539" lon="3.77626">
        <ele>159</ele>
        <time>2019-10-26T10:26:49.000Z</time>
      </trkpt>
      <trkpt lat="47.85538" lon="3.77627">
        <ele>159</ele>
        <time>2019-10-26T10:26:50.000Z</time>
      </trkpt>
      <trkpt lat="47.85537" lon="3.77629">
        <ele>159</ele>
        <time>2019-10-26T10:26:51.000Z</time>
      </trkpt>
      <trkpt lat="47.85535" lon="3.7763">
        <ele>159</ele>
        <time>2019-10-26T10:26:52.000Z</time>
      </trkpt>
      <trkpt lat="47.85534" lon="3.77632">
        <ele>159</ele>
        <time>2019-10-26T10:26:53.000Z</time>
      </trkpt>
      <trkpt lat="47.85533" lon="3.77634">
        <ele>160</ele>
        <time>2019-10-26T10:26:54.000Z</time>
      </trkpt>
      <trkpt lat="47.85532" lon="3.77636">
        <ele>160</ele>
        <time>2019-10-26T10:26:55.000Z</time>
      </trkpt>
      <trkpt lat="47.85531" lon="3.77637">
        <ele>160</ele>
        <time>2019-10-26T10:26:56.000Z</time>
      </trkpt>
      <trkpt lat="47.8553" lon="3.77639">
        <ele>160</ele>
        <time>2019-10-26T10:26:57.000Z</time>
      </trkpt>
      <trkpt lat="47.85528" lon="3.77641">
        <ele>160</ele>
        <time>2019-10-26T10:26:58.000Z</time>
      </trkpt>
      <trkpt lat="47.85527" lon="3.77643">
        <ele>160</ele>
        <time>2019-10-26T10:26:59.000Z</time>
      </trkpt>
      <trkpt lat="47.85526" lon="3.77644">
        <ele>160</ele>
        <time>2019-10-26T10:27:00.000Z</time>
      </trkpt>
      <trkpt lat="47.85525" lon="3.77646">
        <ele>161</ele>
        <time>2019-10-26T10:27:01.000Z</time>
      </trkpt>
      <trkpt lat="47.85524" lon="3.77648">
        <ele>161</ele>
        <time>2019-10-26T10:27:02.000Z</time>
      </trkpt>
      <trkpt lat="47.85523" lon="3.77649">
        <ele>161</ele>
        <time>2019-10-26T10:27:03.000Z</time>
      </trkpt>
      <trkpt lat="47.85522" lon="3.77651">
        <ele>161</ele>
        <time>2019-10-26T10:27:04.000Z</time>
      </trkpt>
      <trkpt lat="47.85521" lon="3.77652">
        <ele>161</ele>
        <time>2019-10-26T10:27:05.000Z</time>
      </trkpt>
      <trkpt lat="47.85519" lon="3.77654">
        <ele>161</ele>
        <time>2019-10-26T10:27:06.000Z</time>
      </trkpt>
      <trkpt lat="47.85518" lon="3.77656">
        <ele>161</ele>
        <time>2019-10-26T10:27:07.000Z</time>
      </trkpt>
      <trkpt lat="47.85517" lon="3.77657">
        <ele>161</ele>
        <time>2019-10-26T10:27:08.000Z</time>
      </trkpt>
      <trkpt lat="47.85516" lon="3.77659">
        <ele>161</ele>
        <time>2019-10-26T10:27:09.000Z</time>
      </trkpt>
      <trkpt lat="47.85515" lon="3.77661">
        <ele>162</ele>
        <time>2019-10-26T10:27:10.000Z</time>
      </trkpt>
      <trkpt lat="47.85514" lon="3.77662">
        <ele>162</ele>
        <time>2019-10-26T10:27:11.000Z</time>
      </trkpt>
      <trkpt lat="47.85513" lon="3.77664">
        <ele>162</ele>
        <time>2019-10-26T10:27:12.000Z</time>
      </trkpt>
      <trkpt lat="47.85512" lon="3.77666">
        <ele>162</ele>
        <time>2019-10-26T10:27:13.000Z</time>
      </trkpt>
      <trkpt lat="47.85511" lon="3.77667">
        <ele>162</ele>
        <time>2019-10-26T10:27:14.000Z</time>
      </trkpt>
      <trkpt lat="47.85509" lon="3.77669">
        <ele>162</ele>
        <time>2019-10-26T10:27:15.000Z</time>
      </trkpt>
      <trkpt lat="47.85508" lon="3.77671">
        <ele>162</ele>
        <time>2019-10-26T10:27:16.000Z</time>
      </trkpt>
      <trkpt lat="47.85507" lon="3.77672">
        <ele>162</ele>
        <time>2019-10-26T10:27:17.000Z</time>
      </trkpt>
      <trkpt lat="47.85506" lon="3.77674">
        <ele>162</ele>
        <time>2019-10-26T10:27:18.000Z</time>
      </trkpt>
      <trkpt lat="47.85505" lon="3.77675">
        <ele>162</ele>
        <time>2019-10-26T10:27:19.000Z</time>
      </trkpt>
      <trkpt lat="47.85504" lon="3.77677">
        <ele>162</ele>
        <time>2019-10-26T10:27:20.000Z</time>
      </trkpt>
      <trkpt lat="47.85502" lon="3.77678">
        <ele>163</ele>
        <time>2019-10-26T10:27:21.000Z</time>
      </trkpt>
      <trkpt lat="47.85501" lon="3.7768">
        <ele>163</ele>
        <time>2019-10-26T10:27:22.000Z</time>
      </trkpt>
      <trkpt lat="47.855" lon="3.77681">
        <ele>163</ele>
        <time>2019-10-26T10:27:23.000Z</time>
      </trkpt>
      <trkpt lat="47.85499" lon="3.77683">
        <ele>163</ele>
        <time>2019-10-26T10:27:24.000Z</time>
      </trkpt>
      <trkpt lat="47.85498" lon="3.77685">
        <ele>163</ele>
        <time>2019-10-26T10:27:25.000Z</time>
      </trkpt>
      <trkpt lat="47.85497" lon="3.77686">
        <ele>163</ele>
        <time>2019-10-26T10:27:26.000Z</time>
      </trkpt>
      <trkpt lat="47.85495" lon="3.77688">
        <ele>163</ele>
        <time>2019-10-26T10:27:27.000Z</time>
      </trkpt>
      <trkpt lat="47.85494" lon="3.77689">
        <ele>164</ele>
        <time>2019-10-26T10:27:28.000Z</time>
      </trkpt>
      <trkpt lat="47.85492" lon="3.7769">
        <ele>164</ele>
        <time>2019-10-26T10:27:29.000Z</time>
      </trkpt>
      <trkpt lat="47.85491" lon="3.77692">
        <ele>164</ele>
        <time>2019-10-26T10:27:30.000Z</time>
      </trkpt>
      <trkpt lat="47.8549" lon="3.77693">
        <ele>164</ele>
        <time>2019-10-26T10:27:31.000Z</time>
      </trkpt>
      <trkpt lat="47.85489" lon="3.77695">
        <ele>164</ele>
        <time>2019-10-26T10:27:32.000Z</time>
      </trkpt>
      <trkpt lat="47.85487" lon="3.77697">
        <ele>164</ele>
        <time>2019-10-26T10:27:33.000Z</time>
      </trkpt>
      <trkpt lat="47.85486" lon="3.77698">
        <ele>164</ele>
        <time>2019-10-26T10:27:34.000Z</time>
      </trkpt>
      <trkpt lat="47.85485" lon="3.777">
        <ele>164</ele>
        <time>2019-10-26T10:27:35.000Z</time>
      </trkpt>
      <trkpt lat="47.85483" lon="3.77701">
        <ele>164</ele>
        <time>2019-10-26T10:27:36.000Z</time>
      </trkpt>
      <trkpt lat="47.85482" lon="3.77703">
        <ele>164</ele>
        <time>2019-10-26T10:27:37.000Z</time>
      </trkpt>
      <trkpt lat="47.85481" lon="3.77704">
        <ele>164</ele>
        <time>2019-10-26T10:27:38.000Z</time>
      </trkpt>
      <trkpt lat="47.85479" lon="3.77705">
        <ele>165</ele>
        <time>2019-10-26T10:27:39.000Z</time>
      </trkpt>
      <trkpt lat="47.85478" lon="3.77707">
        <ele>165</ele>
        <time>2019-10-26T10:27:40.000Z</time>
      </trkpt>
      <trkpt lat="47.85477" lon="3.77709">
        <ele>165</ele>
        <time>2019-10-26T10:27:41.000Z</time>
      </trkpt>
      <trkpt lat="47.85476" lon="3.7771">
        <ele>165</ele>
        <time>2019-10-26T10:27:42.000Z</time>
      </trkpt>
      <trkpt lat="47.85474" lon="3.77712">
        <ele>165</ele>
        <time>2019-10-26T10:27:43.000Z</time>
      </trkpt>
      <trkpt lat="47.85473" lon="3.77713">
        <ele>165</ele>
        <time>2019-10-26T10:27:44.000Z</time>
      </trkpt>
      <trkpt lat="47.85472" lon="3.77715">
        <ele>165</ele>
        <time>2019-10-26T10:27:45.000Z</time>
      </trkpt>
      <trkpt lat="47.85471" lon="3.77716">
        <ele>165</ele>
        <time>2019-10-26T10:27:46.000Z</time>
      </trkpt>
      <trkpt lat="47.85469" lon="3.77717">
        <ele>165</ele>
        <time>2019-10-26T10:27:47.000Z</time>
      </trkpt>
      <trkpt lat="47.85468" lon="3.77719">
        <ele>165</ele>
        <time>2019-10-26T10:27:48.000Z</time>
      </trkpt>
      <trkpt lat="47.85467" lon="3.7772">
        <ele>165</ele>
        <time>2019-10-26T10:27:49.000Z</time>
      </trkpt>
      <trkpt lat="47.85466" lon="3.77722">
        <ele>165</ele>
        <time>2019-10-26T10:27:50.000Z</time>
      </trkpt>
      <trkpt lat="47.85465" lon="3.77724">
        <ele>166</ele>
        <time>2019-10-26T10:27:51.000Z</time>
      </trkpt>
      <trkpt lat="47.85464" lon="3.77726">
        <ele>166</ele>
        <time>2019-10-26T10:27:52.000Z</time>
      </trkpt>
      <trkpt lat="47.85463" lon="3.77728">
        <ele>166</ele>
        <time>2019-10-26T10:27:53.000Z</time>
      </trkpt>
      <trkpt lat="47.85462" lon="3.7773">
        <ele>166</ele>
        <time>2019-10-26T10:27:54.000Z</time>
      </trkpt>
      <trkpt lat="47.85461" lon="3.77731">
        <ele>166</ele>
        <time>2019-10-26T10:27:55.000Z</time>
      </trkpt>
      <trkpt lat="47.8546" lon="3.77733">
        <ele>167</ele>
        <time>2019-10-26T10:27:56.000Z</time>
      </trkpt>
      <trkpt lat="47.85459" lon="3.77735">
        <ele>167</ele>
        <time>2019-10-26T10:27:57.000Z</time>
      </trkpt>
      <trkpt lat="47.85458" lon="3.77737">
        <ele>167</ele>
        <time>2019-10-26T10:27:58.000Z</time>
      </trkpt>
      <trkpt lat="47.85457" lon="3.77739">
        <ele>167</ele>
        <time>2019-10-26T10:27:59.000Z</time>
      </trkpt>
      <trkpt lat="47.85456" lon="3.77741">
        <ele>167</ele>
        <time>2019-10-26T10:28:00.000Z</time>
      </trkpt>
      <trkpt lat="47.85456" lon="3.77743">
        <ele>167</ele>
        <time>2019-10-26T10:28:01.000Z</time>
      </trkpt>
      <trkpt lat="47.85455" lon="3.77745">
        <ele>167</ele>
        <time>2019-10-26T10:28:02.000Z</time>
      </trkpt>
      <trkpt lat="47.85454" lon="3.77747">
        <ele>167</ele>
        <time>2019-10-26T10:28:03.000Z</time>
      </trkpt>
      <trkpt lat="47.85453" lon="3.77749">
        <ele>167</ele>
        <time>2019-10-26T10:28:04.000Z</time>
      </trkpt>
      <trkpt lat="47.85452" lon="3.77751">
        <ele>167</ele>
        <time>2019-10-26T10:28:05.000Z</time>
      </trkpt>
      <trkpt lat="47.85451" lon="3.77753">
        <ele>167</ele>
        <time>2019-10-26T10:28:06.000Z</time>
      </trkpt>
      <trkpt lat="47.8545" lon="3.77755">
        <ele>167</ele>
        <time>2019-10-26T10:28:07.000Z</time>
      </trkpt>
      <trkpt lat="47.85449" lon="3.77757">
        <ele>167</ele>
        <time>2019-10-26T10:28:08.000Z</time>
      </trkpt>
      <trkpt lat="47.85448" lon="3.77759">
        <ele>168</ele>
        <time>2019-10-26T10:28:09.000Z</time>
      </trkpt>
      <trkpt lat="47.85447" lon="3.77762">
        <ele>168</ele>
        <time>2019-10-26T10:28:10.000Z</time>
      </trkpt>
      <trkpt lat="47.85446" lon="3.77764">
        <ele>168</ele>
        <time>2019-10-26T10:28:11.000Z</time>
      </trkpt>
      <trkpt lat="47.85445" lon="3.77766">
        <ele>168</ele>
        <time>2019-10-26T10:28:12.000Z</time>
      </trkpt>
      <trkpt lat="47.85444" lon="3.77768">
        <ele>168</ele>
        <time>2019-10-26T10:28:13.000Z</time>
      </trkpt>
      <trkpt lat="47.85444" lon="3.7777">
        <ele>168</ele>
        <time>2019-10-26T10:28:14.000Z</time>
      </trkpt>
      <trkpt lat="47.85443" lon="3.77772">
        <ele>168</ele>
        <time>2019-10-26T10:28:15.000Z</time>
      </trkpt>
      <trkpt lat="47.85442" lon="3.77774">
        <ele>168</ele>
        <time>2019-10-26T10:28:16.000Z</time>
      </trkpt>
      <trkpt lat="47.85441" lon="3.77776">
        <ele>168</ele>
        <time>2019-10-26T10:28:17.000Z</time>
      </trkpt>
      <trkpt lat="47.8544" lon="3.77778">
        <ele>168</ele>
        <time>2019-10-26T10:28:18.000Z</time>
      </trkpt>
      <trkpt lat="47.85439" lon="3.7778">
        <ele>169</ele>
        <time>2019-10-26T10:28:19.000Z</time>
      </trkpt>
      <trkpt lat="47.85438" lon="3.77782">
        <ele>169</ele>
        <time>2019-10-26T10:28:20.000Z</time>
      </trkpt>
      <trkpt lat="47.85438" lon="3.77784">
        <ele>169</ele>
        <time>2019-10-26T10:28:21.000Z</time>
      </trkpt>
      <trkpt lat="47.85437" lon="3.77786">
        <ele>169</ele>
        <time>2019-10-26T10:28:22.000Z</time>
      </trkpt>
      <trkpt lat="47.85436" lon="3.77788">
        <ele>169</ele>
        <time>2019-10-26T10:28:23.000Z</time>
      </trkpt>
      <trkpt lat="47.85435" lon="3.7779">
        <ele>169</ele>
        <time>2019-10-26T10:28:24.000Z</time>
      </trkpt>
      <trkpt lat="47.85434" lon="3.77792">
        <ele>169</ele>
        <time>2019-10-26T10:28:25.000Z</time>
      </trkpt>
      <trkpt lat="47.85434" lon="3.77794">
        <ele>169</ele>
        <time>2019-10-26T10:28:26.000Z</time>
      </trkpt>
      <trkpt lat="47.85433" lon="3.77796">
        <ele>169</ele>
        <time>2019-10-26T10:28:27.000Z</time>
      </trkpt>
      <trkpt lat="47.85432" lon="3.77798">
        <ele>169</ele>
        <time>2019-10-26T10:28:28.000Z</time>
      </trkpt>
      <trkpt lat="47.85431" lon="3.778">
        <ele>169</ele>
        <time>2019-10-26T10:28:29.000Z</time>
      </trkpt>
      <trkpt lat="47.8543" lon="3.77802">
        <ele>169</ele>
        <time>2019-10-26T10:28:30.000Z</time>
      </trkpt>
      <trkpt lat="47.8543" lon="3.77804">
        <ele>169</ele>
        <time>2019-10-26T10:28:31.000Z</time>
      </trkpt>
      <trkpt lat="47.85429" lon="3.77806">
        <ele>169</ele>
        <time>2019-10-26T10:28:32.000Z</time>
      </trkpt>
      <trkpt lat="47.85428" lon="3.77808">
        <ele>170</ele>
        <time>2019-10-26T10:28:33.000Z</time>
      </trkpt>
      <trkpt lat="47.85427" lon="3.7781">
        <ele>170</ele>
        <time>2019-10-26T10:28:34.000Z</time>
      </trkpt>
      <trkpt lat="47.85426" lon="3.77812">
        <ele>170</ele>
        <time>2019-10-26T10:28:35.000Z</time>
      </trkpt>
      <trkpt lat="47.85425" lon="3.77814">
        <ele>170</ele>
        <time>2019-10-26T10:28:36.000Z</time>
      </trkpt>
      <trkpt lat="47.85425" lon="3.77816">
        <ele>170</ele>
        <time>2019-10-26T10:28:37.000Z</time>
      </trkpt>
      <trkpt lat="47.85424" lon="3.77818">
        <ele>170</ele>
        <time>2019-10-26T10:28:38.000Z</time>
      </trkpt>
      <trkpt lat="47.85423" lon="3.7782">
        <ele>170</ele>
        <time>2019-10-26T10:28:39.000Z</time>
      </trkpt>
      <trkpt lat="47.85422" lon="3.77822">
        <ele>171</ele>
        <time>2019-10-26T10:28:40.000Z</time>
      </trkpt>
      <trkpt lat="47.85421" lon="3.77824">
        <ele>171</ele>
        <time>2019-10-26T10:28:41.000Z</time>
      </trkpt>
      <trkpt lat="47.8542" lon="3.77826">
        <ele>171</ele>
        <time>2019-10-26T10:28:42.000Z</time>
      </trkpt>
      <trkpt lat="47.85419" lon="3.77828">
        <ele>171</ele>
        <time>2019-10-26T10:28:43.000Z</time>
      </trkpt>
      <trkpt lat="47.85418" lon="3.7783">
        <ele>171</ele>
        <time>2019-10-26T10:28:44.000Z</time>
      </trkpt>
      <trkpt lat="47.85417" lon="3.77832">
        <ele>171</ele>
        <time>2019-10-26T10:28:45.000Z</time>
      </trkpt>
      <trkpt lat="47.85416" lon="3.77834">
        <ele>171</ele>
        <time>2019-10-26T10:28:46.000Z</time>
      </trkpt>
      <trkpt lat="47.85414" lon="3.77836">
        <ele>171</ele>
        <time>2019-10-26T10:28:47.000Z</time>
      </trkpt>
      <trkpt lat="47.85413" lon="3.77838">
        <ele>172</ele>
        <time>2019-10-26T10:28:48.000Z</time>
      </trkpt>
      <trkpt lat="47.85412" lon="3.7784">
        <ele>172</ele>
        <time>2019-10-26T10:28:49.000Z</time>
      </trkpt>
      <trkpt lat="47.85411" lon="3.77842">
        <ele>172</ele>
        <time>2019-10-26T10:28:50.000Z</time>
      </trkpt>
      <trkpt lat="47.8541" lon="3.77844">
        <ele>172</ele>
        <time>2019-10-26T10:28:51.000Z</time>
      </trkpt>
      <trkpt lat="47.85409" lon="3.77846">
        <ele>172</ele>
        <time>2019-10-26T10:28:52.000Z</time>
      </trkpt>
      <trkpt lat="47.85408" lon="3.77848">
        <ele>172</ele>
        <time>2019-10-26T10:28:53.000Z</time>
      </trkpt>
      <trkpt lat="47.85407" lon="3.7785">
        <ele>172</ele>
        <time>2019-10-26T10:28:54.000Z</time>
      </trkpt>
      <trkpt lat="47.85406" lon="3.77852">
        <ele>172</ele>
        <time>2019-10-26T10:28:55.000Z</time>
      </trkpt>
      <trkpt lat="47.85405" lon="3.77854">
        <ele>172</ele>
        <time>2019-10-26T10:28:56.000Z</time>
      </trkpt>
      <trkpt lat="47.85404" lon="3.77856">
        <ele>172</ele>
        <time>2019-10-26T10:28:57.000Z</time>
      </trkpt>
      <trkpt lat="47.85403" lon="3.77858">
        <ele>172</ele>
        <time>2019-10-26T10:28:58.000Z</time>
      </trkpt>
      <trkpt lat="47.85402" lon="3.7786">
        <ele>172</ele>
        <time>2019-10-26T10:28:59.000Z</time>
      </trkpt>
      <trkpt lat="47.85401" lon="3.77862">
        <ele>172</ele>
        <time>2019-10-26T10:29:00.000Z</time>
      </trkpt>
      <trkpt lat="47.854" lon="3.77864">
        <ele>172</ele>
        <time>2019-10-26T10:29:01.000Z</time>
      </trkpt>
      <trkpt lat="47.85399" lon="3.77866">
        <ele>172</ele>
        <time>2019-10-26T10:29:02.000Z</time>
      </trkpt>
      <trkpt lat="47.85398" lon="3.77868">
        <ele>173</ele>
        <time>2019-10-26T10:29:03.000Z</time>
      </trkpt>
      <trkpt lat="47.85397" lon="3.7787">
        <ele>173</ele>
        <time>2019-10-26T10:29:04.000Z</time>
      </trkpt>
      <trkpt lat="47.85396" lon="3.77872">
        <ele>173</ele>
        <time>2019-10-26T10:29:05.000Z</time>
      </trkpt>
      <trkpt lat="47.85395" lon="3.77874">
        <ele>173</ele>
        <time>2019-10-26T10:29:06.000Z</time>
      </trkpt>
      <trkpt lat="47.85394" lon="3.77876">
        <ele>173</ele>
        <time>2019-10-26T10:29:07.000Z</time>
      </trkpt>
      <trkpt lat="47.85393" lon="3.77878">
        <ele>173</ele>
        <time>2019-10-26T10:29:08.000Z</time>
      </trkpt>
      <trkpt lat="47.85392" lon="3.7788">
        <ele>173</ele>
        <time>2019-10-26T10:29:09.000Z</time>
      </trkpt>
      <trkpt lat="47.85391" lon="3.77882">
        <ele>173</ele>
        <time>2019-10-26T10:29:10.000Z</time>
      </trkpt>
      <trkpt lat="47.8539" lon="3.77884">
        <ele>173</ele>
        <time>2019-10-26T10:29:11.000Z</time>
      </trkpt>
      <trkpt lat="47.85389" lon="3.77886">
        <ele>173</ele>
        <time>2019-10-26T10:29:12.000Z</time>
      </trkpt>
      <trkpt lat="47.85388" lon="3.77887">
        <ele>173</ele>
        <time>2019-10-26T10:29:13.000Z</time>
      </trkpt>
      <trkpt lat="47.85387" lon="3.77889">
        <ele>173</ele>
        <time>2019-10-26T10:29:14.000Z</time>
      </trkpt>
      <trkpt lat="47.85386" lon="3.77891">
        <ele>174</ele>
        <time>2019-10-26T10:29:15.000Z</time>
      </trkpt>
      <trkpt lat="47.85385" lon="3.77893">
        <ele>174</ele>
        <time>2019-10-26T10:29:16.000Z</time>
      </trkpt>
      <trkpt lat="47.85384" lon="3.77895">
        <ele>174</ele>
        <time>2019-10-26T10:29:17.000Z</time>
      </trkpt>
      <trkpt lat="47.85383" lon="3.77897">
        <ele>174</ele>
        <time>2019-10-26T10:29:18.000Z</time>
      </trkpt>
      <trkpt lat="47.85382" lon="3.77899">
        <ele>174</ele>
        <time>2019-10-26T10:29:19.000Z</time>
      </trkpt>
      <trkpt lat="47.85381" lon="3.77901">
        <ele>174</ele>
        <time>2019-10-26T10:29:20.000Z</time>
      </trkpt>
      <trkpt lat="47.8538" lon="3.77903">
        <ele>174</ele>
        <time>2019-10-26T10:29:21.000Z</time>
      </trkpt>
      <trkpt lat="47.85379" lon="3.77905">
        <ele>174</ele>
        <time>2019-10-26T10:29:22.000Z</time>
      </trkpt>
      <trkpt lat="47.85378" lon="3.77908">
        <ele>174</ele>
        <time>2019-10-26T10:29:23.000Z</time>
      </trkpt>
      <trkpt lat="47.85377" lon="3.77909">
        <ele>174</ele>
        <time>2019-10-26T10:29:24.000Z</time>
      </trkpt>
      <trkpt lat="47.85376" lon="3.77911">
        <ele>174</ele>
        <time>2019-10-26T10:29:25.000Z</time>
      </trkpt>
      <trkpt lat="47.85375" lon="3.77913">
        <ele>174</ele>
        <time>2019-10-26T10:29:26.000Z</time>
      </trkpt>
      <trkpt lat="47.85374" lon="3.77915">
        <ele>174</ele>
        <time>2019-10-26T10:29:27.000Z</time>
      </trkpt>
      <trkpt lat="47.85373" lon="3.77917">
        <ele>174</ele>
        <time>2019-10-26T10:29:28.000Z</time>
      </trkpt>
      <trkpt lat="47.85372" lon="3.77919">
        <ele>175</ele>
        <time>2019-10-26T10:29:29.000Z</time>
      </trkpt>
      <trkpt lat="47.85371" lon="3.77921">
        <ele>175</ele>
        <time>2019-10-26T10:29:30.000Z</time>
      </trkpt>
      <trkpt lat="47.8537" lon="3.77923">
        <ele>175</ele>
        <time>2019-10-26T10:29:31.000Z</time>
      </trkpt>
      <trkpt lat="47.8537" lon="3.77925">
        <ele>175</ele>
        <time>2019-10-26T10:29:32.000Z</time>
      </trkpt>
      <trkpt lat="47.85369" lon="3.77927">
        <ele>175</ele>
        <time>2019-10-26T10:29:33.000Z</time>
      </trkpt>
      <trkpt lat="47.85368" lon="3.77929">
        <ele>175</ele>
        <time>2019-10-26T10:29:34.000Z</time>
      </trkpt>
      <trkpt lat="47.85367" lon="3.77931">
        <ele>175</ele>
        <time>2019-10-26T10:29:35.000Z</time>
      </trkpt>
      <trkpt lat="47.85366" lon="3.77933">
        <ele>175</ele>
        <time>2019-10-26T10:29:36.000Z</time>
      </trkpt>
      <trkpt lat="47.85365" lon="3.77935">
        <ele>175</ele>
        <time>2019-10-26T10:29:37.000Z</time>
      </trkpt>
      <trkpt lat="47.85364" lon="3.77937">
        <ele>175</ele>
        <time>2019-10-26T10:29:38.000Z</time>
      </trkpt>
      <trkpt lat="47.85363" lon="3.77939">
        <ele>175</ele>
        <time>2019-10-26T10:29:39.000Z</time>
      </trkpt>
      <trkpt lat="47.85363" lon="3.77941">
        <ele>176</ele>
        <time>2019-10-26T10:29:40.000Z</time>
      </trkpt>
      <trkpt lat="47.85362" lon="3.77943">
        <ele>176</ele>
        <time>2019-10-26T10:29:41.000Z</time>
      </trkpt>
      <trkpt lat="47.85361" lon="3.77945">
        <ele>176</ele>
        <time>2019-10-26T10:29:42.000Z</time>
      </trkpt>
      <trkpt lat="47.8536" lon="3.77948">
        <ele>176</ele>
        <time>2019-10-26T10:29:43.000Z</time>
      </trkpt>
      <trkpt lat="47.85359" lon="3.7795">
        <ele>176</ele>
        <time>2019-10-26T10:29:44.000Z</time>
      </trkpt>
      <trkpt lat="47.85358" lon="3.77952">
        <ele>176</ele>
        <time>2019-10-26T10:29:45.000Z</time>
      </trkpt>
      <trkpt lat="47.85358" lon="3.77954">
        <ele>176</ele>
        <time>2019-10-26T10:29:46.000Z</time>
      </trkpt>
      <trkpt lat="47.85357" lon="3.77956">
        <ele>176</ele>
        <time>2019-10-26T10:29:47.000Z</time>
      </trkpt>
      <trkpt lat="47.85356" lon="3.77958">
        <ele>176</ele>
        <time>2019-10-26T10:29:48.000Z</time>
      </trkpt>
      <trkpt lat="47.85355" lon="3.7796">
        <ele>177</ele>
        <time>2019-10-26T10:29:49.000Z</time>
      </trkpt>
      <trkpt lat="47.85354" lon="3.77962">
        <ele>177</ele>
        <time>2019-10-26T10:29:50.000Z</time>
      </trkpt>
      <trkpt lat="47.85353" lon="3.77964">
        <ele>177</ele>
        <time>2019-10-26T10:29:51.000Z</time>
      </trkpt>
      <trkpt lat="47.85352" lon="3.77966">
        <ele>177</ele>
        <time>2019-10-26T10:29:52.000Z</time>
      </trkpt>
      <trkpt lat="47.85351" lon="3.77968">
        <ele>177</ele>
        <time>2019-10-26T10:29:53.000Z</time>
      </trkpt>
      <trkpt lat="47.8535" lon="3.77969">
        <ele>177</ele>
        <time>2019-10-26T10:29:54.000Z</time>
      </trkpt>
      <trkpt lat="47.85349" lon="3.77971">
        <ele>177</ele>
        <time>2019-10-26T10:29:55.000Z</time>
      </trkpt>
      <trkpt lat="47.85348" lon="3.77973">
        <ele>177</ele>
        <time>2019-10-26T10:29:56.000Z</time>
      </trkpt>
      <trkpt lat="47.85347" lon="3.77975">
        <ele>177</ele>
        <time>2019-10-26T10:29:57.000Z</time>
      </trkpt>
      <trkpt lat="47.85346" lon="3.77977">
        <ele>177</ele>
        <time>2019-10-26T10:29:58.000Z</time>
      </trkpt>
      <trkpt lat="47.85344" lon="3.77978">
        <ele>178</ele>
        <time>2019-10-26T10:29:59.000Z</time>
      </trkpt>
      <trkpt lat="47.85343" lon="3.7798">
        <ele>178</ele>
        <time>2019-10-26T10:30:00.000Z</time>
      </trkpt>
      <trkpt lat="47.85342" lon="3.77982">
        <ele>178</ele>
        <time>2019-10-26T10:30:01.000Z</time>
      </trkpt>
      <trkpt lat="47.85341" lon="3.77984">
        <ele>178</ele>
        <time>2019-10-26T10:30:02.000Z</time>
      </trkpt>
      <trkpt lat="47.8534" lon="3.77985">
        <ele>178</ele>
        <time>2019-10-26T10:30:03.000Z</time>
      </trkpt>
      <trkpt lat="47.85339" lon="3.77987">
        <ele>178</ele>
        <time>2019-10-26T10:30:04.000Z</time>
      </trkpt>
      <trkpt lat="47.85338" lon="3.77989">
        <ele>178</ele>
        <time>2019-10-26T10:30:05.000Z</time>
      </trkpt>
      <trkpt lat="47.85337" lon="3.77991">
        <ele>178</ele>
        <time>2019-10-26T10:30:06.000Z</time>
      </trkpt>
      <trkpt lat="47.85336" lon="3.77993">
        <ele>178</ele>
        <time>2019-10-26T10:30:07.000Z</time>
      </trkpt>
      <trkpt lat="47.85335" lon="3.77995">
        <ele>179</ele>
        <time>2019-10-26T10:30:08.000Z</time>
      </trkpt>
      <trkpt lat="47.85334" lon="3.77997">
        <ele>179</ele>
        <time>2019-10-26T10:30:09.000Z</time>
      </trkpt>
      <trkpt lat="47.85333" lon="3.77999">
        <ele>179</ele>
        <time>2019-10-26T10:30:10.000Z</time>
      </trkpt>
      <trkpt lat="47.85333" lon="3.78001">
        <ele>179</ele>
        <time>2019-10-26T10:30:11.000Z</time>
      </trkpt>
      <trkpt lat="47.85332" lon="3.78002">
        <ele>179</ele>
        <time>2019-10-26T10:30:12.000Z</time>
      </trkpt>
      <trkpt lat="47.85331" lon="3.78004">
        <ele>180</ele>
        <time>2019-10-26T10:30:13.000Z</time>
      </trkpt>
      <trkpt lat="47.85329" lon="3.78006">
        <ele>180</ele>
        <time>2019-10-26T10:30:14.000Z</time>
      </trkpt>
      <trkpt lat="47.85328" lon="3.78008">
        <ele>180</ele>
        <time>2019-10-26T10:30:15.000Z</time>
      </trkpt>
      <trkpt lat="47.85327" lon="3.78009">
        <ele>180</ele>
        <time>2019-10-26T10:30:16.000Z</time>
      </trkpt>
      <trkpt lat="47.85326" lon="3.78011">
        <ele>180</ele>
        <time>2019-10-26T10:30:17.000Z</time>
      </trkpt>
      <trkpt lat="47.85325" lon="3.78013">
        <ele>180</ele>
        <time>2019-10-26T10:30:18.000Z</time>
      </trkpt>
      <trkpt lat="47.85324" lon="3.78015">
        <ele>180</ele>
        <time>2019-10-26T10:30:19.000Z</time>
      </trkpt>
      <trkpt lat="47.85323" lon="3.78016">
        <ele>180</ele>
        <time>2019-10-26T10:30:20.000Z</time>
      </trkpt>
      <trkpt lat="47.85322" lon="3.78018">
        <ele>180</ele>
        <time>2019-10-26T10:30:21.000Z</time>
      </trkpt>
      <trkpt lat="47.85321" lon="3.7802">
        <ele>181</ele>
        <time>2019-10-26T10:30:22.000Z</time>
      </trkpt>
      <trkpt lat="47.8532" lon="3.78021">
        <ele>181</ele>
        <time>2019-10-26T10:30:23.000Z</time>
      </trkpt>
      <trkpt lat="47.85319" lon="3.78023">
        <ele>181</ele>
        <time>2019-10-26T10:30:24.000Z</time>
      </trkpt>
      <trkpt lat="47.85318" lon="3.78024">
        <ele>181</ele>
        <time>2019-10-26T10:30:25.000Z</time>
      </trkpt>
      <trkpt lat="47.85317" lon="3.78026">
        <ele>181</ele>
        <time>2019-10-26T10:30:26.000Z</time>
      </trkpt>
      <trkpt lat="47.85316" lon="3.78027">
        <ele>181</ele>
        <time>2019-10-26T10:30:27.000Z</time>
      </trkpt>
      <trkpt lat="47.85315" lon="3.78029">
        <ele>181</ele>
        <time>2019-10-26T10:30:28.000Z</time>
      </trkpt>
      <trkpt lat="47.85314" lon="3.78031">
        <ele>181</ele>
        <time>2019-10-26T10:30:29.000Z</time>
      </trkpt>
      <trkpt lat="47.85312" lon="3.78032">
        <ele>181</ele>
        <time>2019-10-26T10:30:30.000Z</time>
      </trkpt>
      <trkpt lat="47.85311" lon="3.78034">
        <ele>182</ele>
        <time>2019-10-26T10:30:31.000Z</time>
      </trkpt>
      <trkpt lat="47.85309" lon="3.78035">
        <ele>182</ele>
        <time>2019-10-26T10:30:32.000Z</time>
      </trkpt>
      <trkpt lat="47.85308" lon="3.78036">
        <ele>182</ele>
        <time>2019-10-26T10:30:33.000Z</time>
      </trkpt>
      <trkpt lat="47.85307" lon="3.78037">
        <ele>182</ele>
        <time>2019-10-26T10:30:34.000Z</time>
      </trkpt>
      <trkpt lat="47.85305" lon="3.78039">
        <ele>182</ele>
        <time>2019-10-26T10:30:35.000Z</time>
      </trkpt>
      <trkpt lat="47.85304" lon="3.7804">
        <ele>182</ele>
        <time>2019-10-26T10:30:36.000Z</time>
      </trkpt>
      <trkpt lat="47.85302" lon="3.78041">
        <ele>182</ele>
        <time>2019-10-26T10:30:37.000Z</time>
      </trkpt>
      <trkpt lat="47.85301" lon="3.78043">
        <ele>182</ele>
        <time>2019-10-26T10:30:38.000Z</time>
      </trkpt>
      <trkpt lat="47.853" lon="3.78044">
        <ele>183</ele>
        <time>2019-10-26T10:30:39.000Z</time>
      </trkpt>
      <trkpt lat="47.85298" lon="3.78046">
        <ele>183</ele>
        <time>2019-10-26T10:30:40.000Z</time>
      </trkpt>
      <trkpt lat="47.85297" lon="3.78048">
        <ele>183</ele>
        <time>2019-10-26T10:30:41.000Z</time>
      </trkpt>
      <trkpt lat="47.85296" lon="3.78049">
        <ele>183</ele>
        <time>2019-10-26T10:30:42.000Z</time>
      </trkpt>
      <trkpt lat="47.85294" lon="3.7805">
        <ele>184</ele>
        <time>2019-10-26T10:30:43.000Z</time>
      </trkpt>
      <trkpt lat="47.85293" lon="3.78051">
        <ele>184</ele>
        <time>2019-10-26T10:30:44.000Z</time>
      </trkpt>
      <trkpt lat="47.85292" lon="3.78052">
        <ele>184</ele>
        <time>2019-10-26T10:30:45.000Z</time>
      </trkpt>
      <trkpt lat="47.8529" lon="3.78053">
        <ele>184</ele>
        <time>2019-10-26T10:30:46.000Z</time>
      </trkpt>
      <trkpt lat="47.85289" lon="3.78055">
        <ele>184</ele>
        <time>2019-10-26T10:30:47.000Z</time>
      </trkpt>
      <trkpt lat="47.85288" lon="3.78056">
        <ele>184</ele>
        <time>2019-10-26T10:30:48.000Z</time>
      </trkpt>
      <trkpt lat="47.85287" lon="3.78058">
        <ele>185</ele>
        <time>2019-10-26T10:30:49.000Z</time>
      </trkpt>
      <trkpt lat="47.85286" lon="3.78059">
        <ele>185</ele>
        <time>2019-10-26T10:30:50.000Z</time>
      </trkpt>
      <trkpt lat="47.85285" lon="3.78061">
        <ele>185</ele>
        <time>2019-10-26T10:30:51.000Z</time>
      </trkpt>
      <trkpt lat="47.85284" lon="3.78062">
        <ele>185</ele>
        <time>2019-10-26T10:30:52.000Z</time>
      </trkpt>
      <trkpt lat="47.85283" lon="3.78064">
        <ele>186</ele>
        <time>2019-10-26T10:30:53.000Z</time>
      </trkpt>
      <trkpt lat="47.85282" lon="3.78065">
        <ele>186</ele>
        <time>2019-10-26T10:30:54.000Z</time>
      </trkpt>
      <trkpt lat="47.85281" lon="3.78066">
        <ele>186</ele>
        <time>2019-10-26T10:30:55.000Z</time>
      </trkpt>
      <trkpt lat="47.85279" lon="3.78067">
        <ele>186</ele>
        <time>2019-10-26T10:30:56.000Z</time>
      </trkpt>
      <trkpt lat="47.85278" lon="3.78069">
        <ele>187</ele>
        <time>2019-10-26T10:30:57.000Z</time>
      </trkpt>
      <trkpt lat="47.85277" lon="3.7807">
        <ele>187</ele>
        <time>2019-10-26T10:30:58.000Z</time>
      </trkpt>
      <trkpt lat="47.85276" lon="3.78071">
        <ele>187</ele>
        <time>2019-10-26T10:30:59.000Z</time>
      </trkpt>
      <trkpt lat="47.85275" lon="3.78073">
        <ele>187</ele>
        <time>2019-10-26T10:31:00.000Z</time>
      </trkpt>
      <trkpt lat="47.85273" lon="3.78074">
        <ele>188</ele>
        <time>2019-10-26T10:31:01.000Z</time>
      </trkpt>
      <trkpt lat="47.85272" lon="3.78075">
        <ele>188</ele>
        <time>2019-10-26T10:31:02.000Z</time>
      </trkpt>
      <trkpt lat="47.85271" lon="3.78077">
        <ele>188</ele>
        <time>2019-10-26T10:31:03.000Z</time>
      </trkpt>
      <trkpt lat="47.8527" lon="3.78078">
        <ele>188</ele>
        <time>2019-10-26T10:31:04.000Z</time>
      </trkpt>
      <trkpt lat="47.85269" lon="3.7808">
        <ele>188</ele>
        <time>2019-10-26T10:31:05.000Z</time>
      </trkpt>
      <trkpt lat="47.85267" lon="3.78081">
        <ele>188</ele>
        <time>2019-10-26T10:31:06.000Z</time>
      </trkpt>
      <trkpt lat="47.85266" lon="3.78083">
        <ele>189</ele>
        <time>2019-10-26T10:31:07.000Z</time>
      </trkpt>
      <trkpt lat="47.85265" lon="3.78084">
        <ele>189</ele>
        <time>2019-10-26T10:31:08.000Z</time>
      </trkpt>
      <trkpt lat="47.85264" lon="3.78086">
        <ele>189</ele>
        <time>2019-10-26T10:31:09.000Z</time>
      </trkpt>
      <trkpt lat="47.85263" lon="3.78088">
        <ele>189</ele>
        <time>2019-10-26T10:31:10.000Z</time>
      </trkpt>
      <trkpt lat="47.85262" lon="3.78089">
        <ele>189</ele>
        <time>2019-10-26T10:31:11.000Z</time>
      </trkpt>
      <trkpt lat="47.85261" lon="3.78091">
        <ele>189</ele>
        <time>2019-10-26T10:31:12.000Z</time>
      </trkpt>
      <trkpt lat="47.85259" lon="3.78092">
        <ele>189</ele>
        <time>2019-10-26T10:31:13.000Z</time>
      </trkpt>
      <trkpt lat="47.85258" lon="3.78094">
        <ele>189</ele>
        <time>2019-10-26T10:31:14.000Z</time>
      </trkpt>
      <trkpt lat="47.85257" lon="3.78095">
        <ele>189</ele>
        <time>2019-10-26T10:31:15.000Z</time>
      </trkpt>
      <trkpt lat="47.85255" lon="3.78097">
        <ele>189</ele>
        <time>2019-10-26T10:31:16.000Z</time>
      </trkpt>
      <trkpt lat="47.85254" lon="3.78098">
        <ele>189</ele>
        <time>2019-10-26T10:31:17.000Z</time>
      </trkpt>
      <trkpt lat="47.85253" lon="3.781">
        <ele>189</ele>
        <time>2019-10-26T10:31:18.000Z</time>
      </trkpt>
      <trkpt lat="47.85252" lon="3.78102">
        <ele>189</ele>
        <time>2019-10-26T10:31:19.000Z</time>
      </trkpt>
      <trkpt lat="47.85251" lon="3.78103">
        <ele>189</ele>
        <time>2019-10-26T10:31:20.000Z</time>
      </trkpt>
      <trkpt lat="47.85249" lon="3.78104">
        <ele>189</ele>
        <time>2019-10-26T10:31:21.000Z</time>
      </trkpt>
      <trkpt lat="47.85248" lon="3.78106">
        <ele>189</ele>
        <time>2019-10-26T10:31:22.000Z</time>
      </trkpt>
      <trkpt lat="47.85247" lon="3.78107">
        <ele>189</ele>
        <time>2019-10-26T10:31:23.000Z</time>
      </trkpt>
      <trkpt lat="47.85245" lon="3.78109">
        <ele>189</ele>
        <time>2019-10-26T10:31:24.000Z</time>
      </trkpt>
      <trkpt lat="47.85244" lon="3.7811">
        <ele>189</ele>
        <time>2019-10-26T10:31:25.000Z</time>
      </trkpt>
      <trkpt lat="47.85243" lon="3.78112">
        <ele>189</ele>
        <time>2019-10-26T10:31:26.000Z</time>
      </trkpt>
      <trkpt lat="47.85242" lon="3.78113">
        <ele>189</ele>
        <time>2019-10-26T10:31:27.000Z</time>
      </trkpt>
      <trkpt lat="47.85241" lon="3.78115">
        <ele>189</ele>
        <time>2019-10-26T10:31:28.000Z</time>
      </trkpt>
      <trkpt lat="47.85239" lon="3.78116">
        <ele>189</ele>
        <time>2019-10-26T10:31:29.000Z</time>
      </trkpt>
      <trkpt lat="47.85238" lon="3.78118">
        <ele>190</ele>
        <time>2019-10-26T10:31:30.000Z</time>
      </trkpt>
      <trkpt lat="47.85237" lon="3.7812">
        <ele>190</ele>
        <time>2019-10-26T10:31:31.000Z</time>
      </trkpt>
      <trkpt lat="47.85236" lon="3.78121">
        <ele>190</ele>
        <time>2019-10-26T10:31:32.000Z</time>
      </trkpt>
      <trkpt lat="47.85235" lon="3.78123">
        <ele>190</ele>
        <time>2019-10-26T10:31:33.000Z</time>
      </trkpt>
      <trkpt lat="47.85234" lon="3.78124">
        <ele>190</ele>
        <time>2019-10-26T10:31:34.000Z</time>
      </trkpt>
      <trkpt lat="47.85233" lon="3.78126">
        <ele>190</ele>
        <time>2019-10-26T10:31:35.000Z</time>
      </trkpt>
      <trkpt lat="47.85231" lon="3.78127">
        <ele>190</ele>
        <time>2019-10-26T10:31:36.000Z</time>
      </trkpt>
      <trkpt lat="47.8523" lon="3.78129">
        <ele>190</ele>
        <time>2019-10-26T10:31:37.000Z</time>
      </trkpt>
      <trkpt lat="47.85229" lon="3.7813">
        <ele>190</ele>
        <time>2019-10-26T10:31:38.000Z</time>
      </trkpt>
      <trkpt lat="47.85228" lon="3.78132">
        <ele>190</ele>
        <time>2019-10-26T10:31:39.000Z</time>
      </trkpt>
      <trkpt lat="47.85227" lon="3.78134">
        <ele>190</ele>
        <time>2019-10-26T10:31:40.000Z</time>
      </trkpt>
      <trkpt lat="47.85226" lon="3.78135">
        <ele>190</ele>
        <time>2019-10-26T10:31:41.000Z</time>
      </trkpt>
      <trkpt lat="47.85224" lon="3.78137">
        <ele>190</ele>
        <time>2019-10-26T10:31:42.000Z</time>
      </trkpt>
      <trkpt lat="47.85223" lon="3.78139">
        <ele>190</ele>
        <time>2019-10-26T10:31:43.000Z</time>
      </trkpt>
      <trkpt lat="47.85222" lon="3.7814">
        <ele>190</ele>
        <time>2019-10-26T10:31:44.000Z</time>
      </trkpt>
      <trkpt lat="47.85221" lon="3.78142">
        <ele>190</ele>
        <time>2019-10-26T10:31:45.000Z</time>
      </trkpt>
      <trkpt lat="47.8522" lon="3.78144">
        <ele>190</ele>
        <time>2019-10-26T10:31:46.000Z</time>
      </trkpt>
      <trkpt lat="47.85219" lon="3.78145">
        <ele>190</ele>
        <time>2019-10-26T10:31:47.000Z</time>
      </trkpt>
      <trkpt lat="47.85218" lon="3.78147">
        <ele>190</ele>
        <time>2019-10-26T10:31:48.000Z</time>
      </trkpt>
      <trkpt lat="47.85217" lon="3.78149">
        <ele>190</ele>
        <time>2019-10-26T10:31:49.000Z</time>
      </trkpt>
      <trkpt lat="47.85216" lon="3.7815">
        <ele>190</ele>
        <time>2019-10-26T10:31:50.000Z</time>
      </trkpt>
      <trkpt lat="47.85215" lon="3.78152">
        <ele>190</ele>
        <time>2019-10-26T10:31:51.000Z</time>
      </trkpt>
      <trkpt lat="47.85214" lon="3.78154">
        <ele>190</ele>
        <time>2019-10-26T10:31:52.000Z</time>
      </trkpt>
      <trkpt lat="47.85213" lon="3.78156">
        <ele>190</ele>
        <time>2019-10-26T10:31:53.000Z</time>
      </trkpt>
      <trkpt lat="47.85211" lon="3.78157">
        <ele>191</ele>
        <time>2019-10-26T10:31:54.000Z</time>
      </trkpt>
      <trkpt lat="47.8521" lon="3.78159">
        <ele>191</ele>
        <time>2019-10-26T10:31:55.000Z</time>
      </trkpt>
      <trkpt lat="47.85209" lon="3.78161">
        <ele>191</ele>
        <time>2019-10-26T10:31:56.000Z</time>
      </trkpt>
      <trkpt lat="47.85208" lon="3.78163">
        <ele>191</ele>
        <time>2019-10-26T10:31:57.000Z</time>
      </trkpt>
      <trkpt lat="47.85207" lon="3.78165">
        <ele>191</ele>
        <time>2019-10-26T10:31:58.000Z</time>
      </trkpt>
      <trkpt lat="47.85206" lon="3.78167">
        <ele>191</ele>
        <time>2019-10-26T10:31:59.000Z</time>
      </trkpt>
      <trkpt lat="47.85205" lon="3.78169">
        <ele>191</ele>
        <time>2019-10-26T10:32:00.000Z</time>
      </trkpt>
      <trkpt lat="47.85204" lon="3.78171">
        <ele>191</ele>
        <time>2019-10-26T10:32:01.000Z</time>
      </trkpt>
      <trkpt lat="47.85203" lon="3.78172">
        <ele>192</ele>
        <time>2019-10-26T10:32:02.000Z</time>
      </trkpt>
      <trkpt lat="47.85202" lon="3.78174">
        <ele>192</ele>
        <time>2019-10-26T10:32:03.000Z</time>
      </trkpt>
      <trkpt lat="47.852" lon="3.78176">
        <ele>192</ele>
        <time>2019-10-26T10:32:04.000Z</time>
      </trkpt>
      <trkpt lat="47.85199" lon="3.78178">
        <ele>192</ele>
        <time>2019-10-26T10:32:05.000Z</time>
      </trkpt>
      <trkpt lat="47.85198" lon="3.7818">
        <ele>192</ele>
        <time>2019-10-26T10:32:06.000Z</time>
      </trkpt>
      <trkpt lat="47.85197" lon="3.78182">
        <ele>192</ele>
        <time>2019-10-26T10:32:07.000Z</time>
      </trkpt>
      <trkpt lat="47.85197" lon="3.78184">
        <ele>192</ele>
        <time>2019-10-26T10:32:08.000Z</time>
      </trkpt>
      <trkpt lat="47.85196" lon="3.78186">
        <ele>192</ele>
        <time>2019-10-26T10:32:09.000Z</time>
      </trkpt>
      <trkpt lat="47.85195" lon="3.78187">
        <ele>192</ele>
        <time>2019-10-26T10:32:10.000Z</time>
      </trkpt>
      <trkpt lat="47.85194" lon="3.78189">
        <ele>192</ele>
        <time>2019-10-26T10:32:11.000Z</time>
      </trkpt>
      <trkpt lat="47.85193" lon="3.78191">
        <ele>193</ele>
        <time>2019-10-26T10:32:12.000Z</time>
      </trkpt>
      <trkpt lat="47.85192" lon="3.78193">
        <ele>193</ele>
        <time>2019-10-26T10:32:13.000Z</time>
      </trkpt>
      <trkpt lat="47.85191" lon="3.78195">
        <ele>193</ele>
        <time>2019-10-26T10:32:14.000Z</time>
      </trkpt>
      <trkpt lat="47.8519" lon="3.78197">
        <ele>193</ele>
        <time>2019-10-26T10:32:15.000Z</time>
      </trkpt>
      <trkpt lat="47.85189" lon="3.78199">
        <ele>193</ele>
        <time>2019-10-26T10:32:16.000Z</time>
      </trkpt>
      <trkpt lat="47.85188" lon="3.782">
        <ele>193</ele>
        <time>2019-10-26T10:32:17.000Z</time>
      </trkpt>
      <trkpt lat="47.85187" lon="3.78202">
        <ele>194</ele>
        <time>2019-10-26T10:32:18.000Z</time>
      </trkpt>
      <trkpt lat="47.85186" lon="3.78204">
        <ele>194</ele>
        <time>2019-10-26T10:32:19.000Z</time>
      </trkpt>
      <trkpt lat="47.85185" lon="3.78206">
        <ele>194</ele>
        <time>2019-10-26T10:32:20.000Z</time>
      </trkpt>
      <trkpt lat="47.85184" lon="3.78208">
        <ele>194</ele>
        <time>2019-10-26T10:32:21.000Z</time>
      </trkpt>
      <trkpt lat="47.85183" lon="3.7821">
        <ele>194</ele>
        <time>2019-10-26T10:32:22.000Z</time>
      </trkpt>
      <trkpt lat="47.85182" lon="3.78212">
        <ele>195</ele>
        <time>2019-10-26T10:32:23.000Z</time>
      </trkpt>
      <trkpt lat="47.85181" lon="3.78214">
        <ele>195</ele>
        <time>2019-10-26T10:32:24.000Z</time>
      </trkpt>
      <trkpt lat="47.8518" lon="3.78216">
        <ele>195</ele>
        <time>2019-10-26T10:32:25.000Z</time>
      </trkpt>
      <trkpt lat="47.85179" lon="3.78218">
        <ele>195</ele>
        <time>2019-10-26T10:32:26.000Z</time>
      </trkpt>
      <trkpt lat="47.85179" lon="3.78219">
        <ele>195</ele>
        <time>2019-10-26T10:32:27.000Z</time>
      </trkpt>
      <trkpt lat="47.85178" lon="3.78221">
        <ele>195</ele>
        <time>2019-10-26T10:32:28.000Z</time>
      </trkpt>
      <trkpt lat="47.85177" lon="3.78223">
        <ele>195</ele>
        <time>2019-10-26T10:32:29.000Z</time>
      </trkpt>
      <trkpt lat="47.85176" lon="3.78225">
        <ele>195</ele>
        <time>2019-10-26T10:32:30.000Z</time>
      </trkpt>
      <trkpt lat="47.85175" lon="3.78227">
        <ele>195</ele>
        <time>2019-10-26T10:32:31.000Z</time>
      </trkpt>
      <trkpt lat="47.85174" lon="3.78229">
        <ele>195</ele>
        <time>2019-10-26T10:32:32.000Z</time>
      </trkpt>
      <trkpt lat="47.85173" lon="3.78231">
        <ele>195</ele>
        <time>2019-10-26T10:32:33.000Z</time>
      </trkpt>
      <trkpt lat="47.85172" lon="3.78233">
        <ele>195</ele>
        <time>2019-10-26T10:32:34.000Z</time>
      </trkpt>
      <trkpt lat="47.85171" lon="3.78235">
        <ele>195</ele>
        <time>2019-10-26T10:32:35.000Z</time>
      </trkpt>
      <trkpt lat="47.8517" lon="3.78237">
        <ele>195</ele>
        <time>2019-10-26T10:32:36.000Z</time>
      </trkpt>
      <trkpt lat="47.85169" lon="3.78239">
        <ele>195</ele>
        <time>2019-10-26T10:32:37.000Z</time>
      </trkpt>
      <trkpt lat="47.85168" lon="3.78241">
        <ele>195</ele>
        <time>2019-10-26T10:32:38.000Z</time>
      </trkpt>
      <trkpt lat="47.85167" lon="3.78243">
        <ele>196</ele>
        <time>2019-10-26T10:32:39.000Z</time>
      </trkpt>
      <trkpt lat="47.85166" lon="3.78245">
        <ele>196</ele>
        <time>2019-10-26T10:32:40.000Z</time>
      </trkpt>
      <trkpt lat="47.85165" lon="3.78247">
        <ele>196</ele>
        <time>2019-10-26T10:32:41.000Z</time>
      </trkpt>
      <trkpt lat="47.85164" lon="3.78248">
        <ele>196</ele>
        <time>2019-10-26T10:32:42.000Z</time>
      </trkpt>
      <trkpt lat="47.85163" lon="3.7825">
        <ele>196</ele>
        <time>2019-10-26T10:32:43.000Z</time>
      </trkpt>
      <trkpt lat="47.85162" lon="3.78252">
        <ele>196</ele>
        <time>2019-10-26T10:32:44.000Z</time>
      </trkpt>
      <trkpt lat="47.85161" lon="3.78254">
        <ele>196</ele>
        <time>2019-10-26T10:32:45.000Z</time>
      </trkpt>
      <trkpt lat="47.8516" lon="3.78256">
        <ele>197</ele>
        <time>2019-10-26T10:32:46.000Z</time>
      </trkpt>
      <trkpt lat="47.85159" lon="3.78258">
        <ele>197</ele>
        <time>2019-10-26T10:32:47.000Z</time>
      </trkpt>
      <trkpt lat="47.85158" lon="3.7826">
        <ele>197</ele>
        <time>2019-10-26T10:32:48.000Z</time>
      </trkpt>
      <trkpt lat="47.85157" lon="3.78262">
        <ele>197</ele>
        <time>2019-10-26T10:32:49.000Z</time>
      </trkpt>
      <trkpt lat="47.85156" lon="3.78264">
        <ele>197</ele>
        <time>2019-10-26T10:32:50.000Z</time>
      </trkpt>
      <trkpt lat="47.85156" lon="3.78266">
        <ele>197</ele>
        <time>2019-10-26T10:32:51.000Z</time>
      </trkpt>
      <trkpt lat="47.85155" lon="3.78268">
        <ele>197</ele>
        <time>2019-10-26T10:32:52.000Z</time>
      </trkpt>
      <trkpt lat="47.85154" lon="3.7827">
        <ele>198</ele>
        <time>2019-10-26T10:32:53.000Z</time>
      </trkpt>
      <trkpt lat="47.85153" lon="3.78272">
        <ele>198</ele>
        <time>2019-10-26T10:32:54.000Z</time>
      </trkpt>
      <trkpt lat="47.85153" lon="3.78273">
        <ele>198</ele>
        <time>2019-10-26T10:32:55.000Z</time>
      </trkpt>
      <trkpt lat="47.85152" lon="3.78275">
        <ele>198</ele>
        <time>2019-10-26T10:32:56.000Z</time>
      </trkpt>
      <trkpt lat="47.85151" lon="3.78277">
        <ele>198</ele>
        <time>2019-10-26T10:32:57.000Z</time>
      </trkpt>
      <trkpt lat="47.8515" lon="3.78279">
        <ele>198</ele>
        <time>2019-10-26T10:32:58.000Z</time>
      </trkpt>
      <trkpt lat="47.85149" lon="3.78282">
        <ele>199</ele>
        <time>2019-10-26T10:32:59.000Z</time>
      </trkpt>
      <trkpt lat="47.85149" lon="3.78284">
        <ele>199</ele>
        <time>2019-10-26T10:33:00.000Z</time>
      </trkpt>
      <trkpt lat="47.85148" lon="3.78286">
        <ele>199</ele>
        <time>2019-10-26T10:33:01.000Z</time>
      </trkpt>
      <trkpt lat="47.85147" lon="3.78288">
        <ele>199</ele>
        <time>2019-10-26T10:33:02.000Z</time>
      </trkpt>
      <trkpt lat="47.85146" lon="3.7829">
        <ele>200</ele>
        <time>2019-10-26T10:33:03.000Z</time>
      </trkpt>
      <trkpt lat="47.85145" lon="3.78292">
        <ele>200</ele>
        <time>2019-10-26T10:33:04.000Z</time>
      </trkpt>
      <trkpt lat="47.85144" lon="3.78294">
        <ele>200</ele>
        <time>2019-10-26T10:33:05.000Z</time>
      </trkpt>
      <trkpt lat="47.85144" lon="3.78296">
        <ele>200</ele>
        <time>2019-10-26T10:33:06.000Z</time>
      </trkpt>
      <trkpt lat="47.85143" lon="3.78298">
        <ele>200</ele>
        <time>2019-10-26T10:33:07.000Z</time>
      </trkpt>
      <trkpt lat="47.85142" lon="3.783">
        <ele>200</ele>
        <time>2019-10-26T10:33:08.000Z</time>
      </trkpt>
      <trkpt lat="47.85141" lon="3.78302">
        <ele>200</ele>
        <time>2019-10-26T10:33:09.000Z</time>
      </trkpt>
      <trkpt lat="47.85141" lon="3.78304">
        <ele>200</ele>
        <time>2019-10-26T10:33:10.000Z</time>
      </trkpt>
      <trkpt lat="47.8514" lon="3.78306">
        <ele>200</ele>
        <time>2019-10-26T10:33:11.000Z</time>
      </trkpt>
      <trkpt lat="47.85139" lon="3.78308">
        <ele>201</ele>
        <time>2019-10-26T10:33:12.000Z</time>
      </trkpt>
      <trkpt lat="47.85138" lon="3.78309">
        <ele>201</ele>
        <time>2019-10-26T10:33:13.000Z</time>
      </trkpt>
      <trkpt lat="47.85138" lon="3.78311">
        <ele>201</ele>
        <time>2019-10-26T10:33:14.000Z</time>
      </trkpt>
      <trkpt lat="47.85137" lon="3.78313">
        <ele>201</ele>
        <time>2019-10-26T10:33:15.000Z</time>
      </trkpt>
      <trkpt lat="47.85136" lon="3.78316">
        <ele>201</ele>
        <time>2019-10-26T10:33:16.000Z</time>
      </trkpt>
      <trkpt lat="47.85135" lon="3.78317">
        <ele>201</ele>
        <time>2019-10-26T10:33:17.000Z</time>
      </trkpt>
      <trkpt lat="47.85135" lon="3.78319">
        <ele>201</ele>
        <time>2019-10-26T10:33:18.000Z</time>
      </trkpt>
      <trkpt lat="47.85134" lon="3.78322">
        <ele>201</ele>
        <time>2019-10-26T10:33:19.000Z</time>
      </trkpt>
      <trkpt lat="47.85133" lon="3.78324">
        <ele>201</ele>
        <time>2019-10-26T10:33:20.000Z</time>
      </trkpt>
      <trkpt lat="47.85132" lon="3.78326">
        <ele>201</ele>
        <time>2019-10-26T10:33:21.000Z</time>
      </trkpt>
      <trkpt lat="47.85131" lon="3.78328">
        <ele>201</ele>
        <time>2019-10-26T10:33:22.000Z</time>
      </trkpt>
      <trkpt lat="47.85131" lon="3.7833">
        <ele>201</ele>
        <time>2019-10-26T10:33:23.000Z</time>
      </trkpt>
      <trkpt lat="47.8513" lon="3.78332">
        <ele>201</ele>
        <time>2019-10-26T10:33:24.000Z</time>
      </trkpt>
      <trkpt lat="47.8513" lon="3.78334">
        <ele>201</ele>
        <time>2019-10-26T10:33:25.000Z</time>
      </trkpt>
      <trkpt lat="47.85129" lon="3.78337">
        <ele>201</ele>
        <time>2019-10-26T10:33:26.000Z</time>
      </trkpt>
      <trkpt lat="47.85129" lon="3.78339">
        <ele>201</ele>
        <time>2019-10-26T10:33:27.000Z</time>
      </trkpt>
      <trkpt lat="47.85128" lon="3.78341">
        <ele>201</ele>
        <time>2019-10-26T10:33:28.000Z</time>
      </trkpt>
      <trkpt lat="47.85127" lon="3.78344">
        <ele>201</ele>
        <time>2019-10-26T10:33:29.000Z</time>
      </trkpt>
      <trkpt lat="47.85127" lon="3.78347">
        <ele>202</ele>
        <time>2019-10-26T10:33:30.000Z</time>
      </trkpt>
      <trkpt lat="47.85126" lon="3.78351">
        <ele>202</ele>
        <time>2019-10-26T10:33:31.000Z</time>
      </trkpt>
      <trkpt lat="47.85125" lon="3.78354">
        <ele>202</ele>
        <time>2019-10-26T10:33:32.000Z</time>
      </trkpt>
      <trkpt lat="47.85124" lon="3.78358">
        <ele>202</ele>
        <time>2019-10-26T10:33:33.000Z</time>
      </trkpt>
      <trkpt lat="47.85124" lon="3.78361">
        <ele>202</ele>
        <time>2019-10-26T10:33:34.000Z</time>
      </trkpt>
      <trkpt lat="47.85123" lon="3.78364">
        <ele>202</ele>
        <time>2019-10-26T10:33:35.000Z</time>
      </trkpt>
      <trkpt lat="47.85123" lon="3.78367">
        <ele>202</ele>
        <time>2019-10-26T10:33:36.000Z</time>
      </trkpt>
      <trkpt lat="47.85122" lon="3.78371">
        <ele>202</ele>
        <time>2019-10-26T10:33:37.000Z</time>
      </trkpt>
      <trkpt lat="47.85122" lon="3.78374">
        <ele>202</ele>
        <time>2019-10-26T10:33:38.000Z</time>
      </trkpt>
      <trkpt lat="47.85121" lon="3.78377">
        <ele>203</ele>
        <time>2019-10-26T10:33:39.000Z</time>
      </trkpt>
      <trkpt lat="47.8512" lon="3.7838">
        <ele>203</ele>
        <time>2019-10-26T10:33:40.000Z</time>
      </trkpt>
      <trkpt lat="47.8512" lon="3.78384">
        <ele>203</ele>
        <time>2019-10-26T10:33:41.000Z</time>
      </trkpt>
      <trkpt lat="47.85119" lon="3.78388">
        <ele>203</ele>
        <time>2019-10-26T10:33:42.000Z</time>
      </trkpt>
      <trkpt lat="47.85119" lon="3.78391">
        <ele>203</ele>
        <time>2019-10-26T10:33:43.000Z</time>
      </trkpt>
      <trkpt lat="47.85118" lon="3.78394">
        <ele>203</ele>
        <time>2019-10-26T10:33:44.000Z</time>
      </trkpt>
      <trkpt lat="47.85117" lon="3.78397">
        <ele>203</ele>
        <time>2019-10-26T10:33:45.000Z</time>
      </trkpt>
      <trkpt lat="47.85117" lon="3.784">
        <ele>204</ele>
        <time>2019-10-26T10:33:46.000Z</time>
      </trkpt>
      <trkpt lat="47.85116" lon="3.78404">
        <ele>204</ele>
        <time>2019-10-26T10:33:47.000Z</time>
      </trkpt>
      <trkpt lat="47.85116" lon="3.78407">
        <ele>204</ele>
        <time>2019-10-26T10:33:48.000Z</time>
      </trkpt>
      <trkpt lat="47.85115" lon="3.7841">
        <ele>204</ele>
        <time>2019-10-26T10:33:49.000Z</time>
      </trkpt>
      <trkpt lat="47.85114" lon="3.78414">
        <ele>204</ele>
        <time>2019-10-26T10:33:50.000Z</time>
      </trkpt>
      <trkpt lat="47.85114" lon="3.78417">
        <ele>204</ele>
        <time>2019-10-26T10:33:51.000Z</time>
      </trkpt>
      <trkpt lat="47.85113" lon="3.7842">
        <ele>204</ele>
        <time>2019-10-26T10:33:52.000Z</time>
      </trkpt>
      <trkpt lat="47.85113" lon="3.78424">
        <ele>204</ele>
        <time>2019-10-26T10:33:53.000Z</time>
      </trkpt>
      <trkpt lat="47.85112" lon="3.78428">
        <ele>204</ele>
        <time>2019-10-26T10:33:54.000Z</time>
      </trkpt>
      <trkpt lat="47.85112" lon="3.78431">
        <ele>205</ele>
        <time>2019-10-26T10:33:55.000Z</time>
      </trkpt>
      <trkpt lat="47.85111" lon="3.78435">
        <ele>205</ele>
        <time>2019-10-26T10:33:56.000Z</time>
      </trkpt>
      <trkpt lat="47.8511" lon="3.78438">
        <ele>205</ele>
        <time>2019-10-26T10:33:57.000Z</time>
      </trkpt>
      <trkpt lat="47.85109" lon="3.78442">
        <ele>205</ele>
        <time>2019-10-26T10:33:58.000Z</time>
      </trkpt>
      <trkpt lat="47.85109" lon="3.78445">
        <ele>205</ele>
        <time>2019-10-26T10:33:59.000Z</time>
      </trkpt>
      <trkpt lat="47.85108" lon="3.78448">
        <ele>205</ele>
        <time>2019-10-26T10:34:00.000Z</time>
      </trkpt>
      <trkpt lat="47.85107" lon="3.78451">
        <ele>205</ele>
        <time>2019-10-26T10:34:01.000Z</time>
      </trkpt>
      <trkpt lat="47.85106" lon="3.78455">
        <ele>205</ele>
        <time>2019-10-26T10:34:02.000Z</time>
      </trkpt>
      <trkpt lat="47.85106" lon="3.78458">
        <ele>206</ele>
        <time>2019-10-26T10:34:03.000Z</time>
      </trkpt>
      <trkpt lat="47.85105" lon="3.78461">
        <ele>206</ele>
        <time>2019-10-26T10:34:04.000Z</time>
      </trkpt>
      <trkpt lat="47.85105" lon="3.78464">
        <ele>206</ele>
        <time>2019-10-26T10:34:05.000Z</time>
      </trkpt>
      <trkpt lat="47.85104" lon="3.78467">
        <ele>206</ele>
        <time>2019-10-26T10:34:06.000Z</time>
      </trkpt>
      <trkpt lat="47.85103" lon="3.7847">
        <ele>206</ele>
        <time>2019-10-26T10:34:07.000Z</time>
      </trkpt>
      <trkpt lat="47.85103" lon="3.78473">
        <ele>206</ele>
        <time>2019-10-26T10:34:08.000Z</time>
      </trkpt>
      <trkpt lat="47.85102" lon="3.78476">
        <ele>206</ele>
        <time>2019-10-26T10:34:09.000Z</time>
      </trkpt>
      <trkpt lat="47.85101" lon="3.78479">
        <ele>207</ele>
        <time>2019-10-26T10:34:10.000Z</time>
      </trkpt>
      <trkpt lat="47.851" lon="3.78483">
        <ele>207</ele>
        <time>2019-10-26T10:34:11.000Z</time>
      </trkpt>
      <trkpt lat="47.85099" lon="3.78486">
        <ele>207</ele>
        <time>2019-10-26T10:34:12.000Z</time>
      </trkpt>
      <trkpt lat="47.85099" lon="3.78489">
        <ele>207</ele>
        <time>2019-10-26T10:34:13.000Z</time>
      </trkpt>
      <trkpt lat="47.85098" lon="3.78493">
        <ele>207</ele>
        <time>2019-10-26T10:34:14.000Z</time>
      </trkpt>
      <trkpt lat="47.85097" lon="3.78496">
        <ele>207</ele>
        <time>2019-10-26T10:34:15.000Z</time>
      </trkpt>
      <trkpt lat="47.85096" lon="3.78499">
        <ele>207</ele>
        <time>2019-10-26T10:34:16.000Z</time>
      </trkpt>
      <trkpt lat="47.85095" lon="3.78502">
        <ele>207</ele>
        <time>2019-10-26T10:34:17.000Z</time>
      </trkpt>
      <trkpt lat="47.85094" lon="3.78505">
        <ele>208</ele>
        <time>2019-10-26T10:34:18.000Z</time>
      </trkpt>
      <trkpt lat="47.85093" lon="3.78507">
        <ele>208</ele>
        <time>2019-10-26T10:34:19.000Z</time>
      </trkpt>
      <trkpt lat="47.85092" lon="3.7851">
        <ele>208</ele>
        <time>2019-10-26T10:34:20.000Z</time>
      </trkpt>
      <trkpt lat="47.85091" lon="3.78513">
        <ele>208</ele>
        <time>2019-10-26T10:34:21.000Z</time>
      </trkpt>
      <trkpt lat="47.8509" lon="3.78516">
        <ele>208</ele>
        <time>2019-10-26T10:34:22.000Z</time>
      </trkpt>
      <trkpt lat="47.8509" lon="3.78519">
        <ele>208</ele>
        <time>2019-10-26T10:34:23.000Z</time>
      </trkpt>
      <trkpt lat="47.85089" lon="3.78522">
        <ele>208</ele>
        <time>2019-10-26T10:34:24.000Z</time>
      </trkpt>
      <trkpt lat="47.85088" lon="3.78526">
        <ele>208</ele>
        <time>2019-10-26T10:34:25.000Z</time>
      </trkpt>
      <trkpt lat="47.85088" lon="3.78529">
        <ele>208</ele>
        <time>2019-10-26T10:34:26.000Z</time>
      </trkpt>
      <trkpt lat="47.85088" lon="3.78532">
        <ele>209</ele>
        <time>2019-10-26T10:34:27.000Z</time>
      </trkpt>
      <trkpt lat="47.85087" lon="3.78535">
        <ele>209</ele>
        <time>2019-10-26T10:34:28.000Z</time>
      </trkpt>
      <trkpt lat="47.85087" lon="3.78539">
        <ele>209</ele>
        <time>2019-10-26T10:34:29.000Z</time>
      </trkpt>
      <trkpt lat="47.85086" lon="3.78542">
        <ele>209</ele>
        <time>2019-10-26T10:34:30.000Z</time>
      </trkpt>
      <trkpt lat="47.85085" lon="3.78545">
        <ele>209</ele>
        <time>2019-10-26T10:34:31.000Z</time>
      </trkpt>
      <trkpt lat="47.85084" lon="3.78548">
        <ele>209</ele>
        <time>2019-10-26T10:34:32.000Z</time>
      </trkpt>
      <trkpt lat="47.85084" lon="3.78552">
        <ele>210</ele>
        <time>2019-10-26T10:34:33.000Z</time>
      </trkpt>
      <trkpt lat="47.85083" lon="3.78555">
        <ele>210</ele>
        <time>2019-10-26T10:34:34.000Z</time>
      </trkpt>
      <trkpt lat="47.85083" lon="3.78558">
        <ele>210</ele>
        <time>2019-10-26T10:34:35.000Z</time>
      </trkpt>
      <trkpt lat="47.85082" lon="3.78562">
        <ele>210</ele>
        <time>2019-10-26T10:34:36.000Z</time>
      </trkpt>
      <trkpt lat="47.85082" lon="3.78565">
        <ele>210</ele>
        <time>2019-10-26T10:34:37.000Z</time>
      </trkpt>
      <trkpt lat="47.85081" lon="3.78568">
        <ele>210</ele>
        <time>2019-10-26T10:34:38.000Z</time>
      </trkpt>
      <trkpt lat="47.8508" lon="3.78572">
        <ele>210</ele>
        <time>2019-10-26T10:34:39.000Z</time>
      </trkpt>
      <trkpt lat="47.8508" lon="3.78575">
        <ele>210</ele>
        <time>2019-10-26T10:34:40.000Z</time>
      </trkpt>
      <trkpt lat="47.85079" lon="3.78578">
        <ele>210</ele>
        <time>2019-10-26T10:34:41.000Z</time>
      </trkpt>
      <trkpt lat="47.85078" lon="3.78581">
        <ele>210</ele>
        <time>2019-10-26T10:34:42.000Z</time>
      </trkpt>
      <trkpt lat="47.85077" lon="3.78585">
        <ele>210</ele>
        <time>2019-10-26T10:34:43.000Z</time>
      </trkpt>
      <trkpt lat="47.85077" lon="3.78588">
        <ele>210</ele>
        <time>2019-10-26T10:34:44.000Z</time>
      </trkpt>
      <trkpt lat="47.85076" lon="3.78591">
        <ele>211</ele>
        <time>2019-10-26T10:34:45.000Z</time>
      </trkpt>
      <trkpt lat="47.85075" lon="3.78594">
        <ele>211</ele>
        <time>2019-10-26T10:34:46.000Z</time>
      </trkpt>
      <trkpt lat="47.85075" lon="3.78597">
        <ele>211</ele>
        <time>2019-10-26T10:34:47.000Z</time>
      </trkpt>
      <trkpt lat="47.85075" lon="3.78599">
        <ele>211</ele>
        <time>2019-10-26T10:34:48.000Z</time>
      </trkpt>
      <trkpt lat="47.85074" lon="3.78601">
        <ele>211</ele>
        <time>2019-10-26T10:34:49.000Z</time>
      </trkpt>
      <trkpt lat="47.85074" lon="3.78604">
        <ele>211</ele>
        <time>2019-10-26T10:34:50.000Z</time>
      </trkpt>
      <trkpt lat="47.85074" lon="3.78606">
        <ele>211</ele>
        <time>2019-10-26T10:34:51.000Z</time>
      </trkpt>
      <trkpt lat="47.85073" lon="3.78608">
        <ele>211</ele>
        <time>2019-10-26T10:34:52.000Z</time>
      </trkpt>
      <trkpt lat="47.85073" lon="3.78611">
        <ele>211</ele>
        <time>2019-10-26T10:34:53.000Z</time>
      </trkpt>
      <trkpt lat="47.85072" lon="3.78613">
        <ele>210</ele>
        <time>2019-10-26T10:34:54.000Z</time>
      </trkpt>
      <trkpt lat="47.85072" lon="3.78614">
        <ele>210</ele>
        <time>2019-10-26T10:34:55.000Z</time>
      </trkpt>
      <trkpt lat="47.85071" lon="3.78616">
        <ele>210</ele>
        <time>2019-10-26T10:34:56.000Z</time>
      </trkpt>
      <trkpt lat="47.8507" lon="3.78619">
        <ele>210</ele>
        <time>2019-10-26T10:34:57.000Z</time>
      </trkpt>
      <trkpt lat="47.8507" lon="3.78621">
        <ele>210</ele>
        <time>2019-10-26T10:34:58.000Z</time>
      </trkpt>
      <trkpt lat="47.8507" lon="3.78623">
        <ele>210</ele>
        <time>2019-10-26T10:34:59.000Z</time>
      </trkpt>
      <trkpt lat="47.85069" lon="3.78626">
        <ele>211</ele>
        <time>2019-10-26T10:35:00.000Z</time>
      </trkpt>
      <trkpt lat="47.85068" lon="3.78628">
        <ele>211</ele>
        <time>2019-10-26T10:35:01.000Z</time>
      </trkpt>
      <trkpt lat="47.85067" lon="3.78631">
        <ele>211</ele>
        <time>2019-10-26T10:35:02.000Z</time>
      </trkpt>
      <trkpt lat="47.85067" lon="3.78633">
        <ele>211</ele>
        <time>2019-10-26T10:35:03.000Z</time>
      </trkpt>
      <trkpt lat="47.85066" lon="3.78635">
        <ele>211</ele>
        <time>2019-10-26T10:35:04.000Z</time>
      </trkpt>
      <trkpt lat="47.85066" lon="3.78637">
        <ele>211</ele>
        <time>2019-10-26T10:35:05.000Z</time>
      </trkpt>
      <trkpt lat="47.85066" lon="3.78639">
        <ele>211</ele>
        <time>2019-10-26T10:35:06.000Z</time>
      </trkpt>
      <trkpt lat="47.85066" lon="3.78641">
        <ele>211</ele>
        <time>2019-10-26T10:35:07.000Z</time>
      </trkpt>
      <trkpt lat="47.85065" lon="3.78643">
        <ele>211</ele>
        <time>2019-10-26T10:35:08.000Z</time>
      </trkpt>
      <trkpt lat="47.85065" lon="3.78646">
        <ele>211</ele>
        <time>2019-10-26T10:35:09.000Z</time>
      </trkpt>
      <trkpt lat="47.85064" lon="3.78648">
        <ele>211</ele>
        <time>2019-10-26T10:35:10.000Z</time>
      </trkpt>
      <trkpt lat="47.85064" lon="3.7865">
        <ele>212</ele>
        <time>2019-10-26T10:35:11.000Z</time>
      </trkpt>
      <trkpt lat="47.85063" lon="3.78653">
        <ele>212</ele>
        <time>2019-10-26T10:35:12.000Z</time>
      </trkpt>
      <trkpt lat="47.85063" lon="3.78655">
        <ele>212</ele>
        <time>2019-10-26T10:35:13.000Z</time>
      </trkpt>
      <trkpt lat="47.85062" lon="3.78658">
        <ele>212</ele>
        <time>2019-10-26T10:35:14.000Z</time>
      </trkpt>
      <trkpt lat="47.85061" lon="3.7866">
        <ele>212</ele>
        <time>2019-10-26T10:35:15.000Z</time>
      </trkpt>
      <trkpt lat="47.8506" lon="3.78663">
        <ele>212</ele>
        <time>2019-10-26T10:35:16.000Z</time>
      </trkpt>
      <trkpt lat="47.85059" lon="3.78665">
        <ele>212</ele>
        <time>2019-10-26T10:35:17.000Z</time>
      </trkpt>
      <trkpt lat="47.85058" lon="3.78668">
        <ele>212</ele>
        <time>2019-10-26T10:35:18.000Z</time>
      </trkpt>
      <trkpt lat="47.85058" lon="3.7867">
        <ele>212</ele>
        <time>2019-10-26T10:35:19.000Z</time>
      </trkpt>
      <trkpt lat="47.85057" lon="3.78672">
        <ele>212</ele>
        <time>2019-10-26T10:35:20.000Z</time>
      </trkpt>
      <trkpt lat="47.85057" lon="3.78674">
        <ele>212</ele>
        <time>2019-10-26T10:35:21.000Z</time>
      </trkpt>
      <trkpt lat="47.85057" lon="3.78677">
        <ele>213</ele>
        <time>2019-10-26T10:35:22.000Z</time>
      </trkpt>
      <trkpt lat="47.85056" lon="3.78679">
        <ele>213</ele>
        <time>2019-10-26T10:35:23.000Z</time>
      </trkpt>
      <trkpt lat="47.85056" lon="3.78681">
        <ele>213</ele>
        <time>2019-10-26T10:35:24.000Z</time>
      </trkpt>
      <trkpt lat="47.85055" lon="3.78684">
        <ele>213</ele>
        <time>2019-10-26T10:35:25.000Z</time>
      </trkpt>
      <trkpt lat="47.85055" lon="3.78686">
        <ele>213</ele>
        <time>2019-10-26T10:35:26.000Z</time>
      </trkpt>
      <trkpt lat="47.85054" lon="3.78689">
        <ele>213</ele>
        <time>2019-10-26T10:35:27.000Z</time>
      </trkpt>
      <trkpt lat="47.85053" lon="3.78691">
        <ele>213</ele>
        <time>2019-10-26T10:35:28.000Z</time>
      </trkpt>
      <trkpt lat="47.85053" lon="3.78694">
        <ele>213</ele>
        <time>2019-10-26T10:35:29.000Z</time>
      </trkpt>
      <trkpt lat="47.85052" lon="3.78696">
        <ele>214</ele>
        <time>2019-10-26T10:35:30.000Z</time>
      </trkpt>
      <trkpt lat="47.85051" lon="3.78698">
        <ele>214</ele>
        <time>2019-10-26T10:35:31.000Z</time>
      </trkpt>
      <trkpt lat="47.85051" lon="3.78701">
        <ele>214</ele>
        <time>2019-10-26T10:35:32.000Z</time>
      </trkpt>
      <trkpt lat="47.8505" lon="3.78703">
        <ele>214</ele>
        <time>2019-10-26T10:35:33.000Z</time>
      </trkpt>
      <trkpt lat="47.8505" lon="3.78705">
        <ele>214</ele>
        <time>2019-10-26T10:35:34.000Z</time>
      </trkpt>
      <trkpt lat="47.85049" lon="3.78707">
        <ele>214</ele>
        <time>2019-10-26T10:35:35.000Z</time>
      </trkpt>
      <trkpt lat="47.85048" lon="3.7871">
        <ele>214</ele>
        <time>2019-10-26T10:35:36.000Z</time>
      </trkpt>
      <trkpt lat="47.85047" lon="3.78712">
        <ele>214</ele>
        <time>2019-10-26T10:35:37.000Z</time>
      </trkpt>
      <trkpt lat="47.85046" lon="3.78714">
        <ele>214</ele>
        <time>2019-10-26T10:35:38.000Z</time>
      </trkpt>
      <trkpt lat="47.85046" lon="3.78717">
        <ele>214</ele>
        <time>2019-10-26T10:35:39.000Z</time>
      </trkpt>
      <trkpt lat="47.85045" lon="3.78719">
        <ele>214</ele>
        <time>2019-10-26T10:35:40.000Z</time>
      </trkpt>
      <trkpt lat="47.85044" lon="3.78722">
        <ele>214</ele>
        <time>2019-10-26T10:35:41.000Z</time>
      </trkpt>
      <trkpt lat="47.85044" lon="3.78724">
        <ele>214</ele>
        <time>2019-10-26T10:35:42.000Z</time>
      </trkpt>
      <trkpt lat="47.85043" lon="3.78726">
        <ele>215</ele>
        <time>2019-10-26T10:35:43.000Z</time>
      </trkpt>
      <trkpt lat="47.85042" lon="3.78728">
        <ele>215</ele>
        <time>2019-10-26T10:35:44.000Z</time>
      </trkpt>
      <trkpt lat="47.85042" lon="3.78731">
        <ele>215</ele>
        <time>2019-10-26T10:35:45.000Z</time>
      </trkpt>
      <trkpt lat="47.85041" lon="3.78733">
        <ele>215</ele>
        <time>2019-10-26T10:35:46.000Z</time>
      </trkpt>
      <trkpt lat="47.85041" lon="3.78735">
        <ele>215</ele>
        <time>2019-10-26T10:35:47.000Z</time>
      </trkpt>
      <trkpt lat="47.8504" lon="3.78737">
        <ele>215</ele>
        <time>2019-10-26T10:35:48.000Z</time>
      </trkpt>
      <trkpt lat="47.8504" lon="3.7874">
        <ele>215</ele>
        <time>2019-10-26T10:35:49.000Z</time>
      </trkpt>
      <trkpt lat="47.8504" lon="3.78742">
        <ele>215</ele>
        <time>2019-10-26T10:35:50.000Z</time>
      </trkpt>
      <trkpt lat="47.85039" lon="3.78745">
        <ele>216</ele>
        <time>2019-10-26T10:35:51.000Z</time>
      </trkpt>
      <trkpt lat="47.85038" lon="3.78747">
        <ele>216</ele>
        <time>2019-10-26T10:35:52.000Z</time>
      </trkpt>
      <trkpt lat="47.85038" lon="3.78749">
        <ele>216</ele>
        <time>2019-10-26T10:35:53.000Z</time>
      </trkpt>
      <trkpt lat="47.85037" lon="3.78752">
        <ele>216</ele>
        <time>2019-10-26T10:35:54.000Z</time>
      </trkpt>
      <trkpt lat="47.85036" lon="3.78754">
        <ele>216</ele>
        <time>2019-10-26T10:35:55.000Z</time>
      </trkpt>
      <trkpt lat="47.85035" lon="3.78757">
        <ele>216</ele>
        <time>2019-10-26T10:35:56.000Z</time>
      </trkpt>
      <trkpt lat="47.85035" lon="3.78759">
        <ele>216</ele>
        <time>2019-10-26T10:35:57.000Z</time>
      </trkpt>
      <trkpt lat="47.85034" lon="3.78762">
        <ele>216</ele>
        <time>2019-10-26T10:35:58.000Z</time>
      </trkpt>
      <trkpt lat="47.85033" lon="3.78764">
        <ele>216</ele>
        <time>2019-10-26T10:35:59.000Z</time>
      </trkpt>
      <trkpt lat="47.85033" lon="3.78767">
        <ele>216</ele>
        <time>2019-10-26T10:36:00.000Z</time>
      </trkpt>
      <trkpt lat="47.85033" lon="3.78769">
        <ele>216</ele>
        <time>2019-10-26T10:36:01.000Z</time>
      </trkpt>
      <trkpt lat="47.85032" lon="3.78772">
        <ele>216</ele>
        <time>2019-10-26T10:36:02.000Z</time>
      </trkpt>
      <trkpt lat="47.85031" lon="3.78774">
        <ele>216</ele>
        <time>2019-10-26T10:36:03.000Z</time>
      </trkpt>
      <trkpt lat="47.85031" lon="3.78777">
        <ele>217</ele>
        <time>2019-10-26T10:36:04.000Z</time>
      </trkpt>
      <trkpt lat="47.8503" lon="3.7878">
        <ele>217</ele>
        <time>2019-10-26T10:36:05.000Z</time>
      </trkpt>
      <trkpt lat="47.85029" lon="3.78782">
        <ele>217</ele>
        <time>2019-10-26T10:36:06.000Z</time>
      </trkpt>
      <trkpt lat="47.85029" lon="3.78785">
        <ele>217</ele>
        <time>2019-10-26T10:36:07.000Z</time>
      </trkpt>
      <trkpt lat="47.85028" lon="3.78787">
        <ele>217</ele>
        <time>2019-10-26T10:36:08.000Z</time>
      </trkpt>
      <trkpt lat="47.85027" lon="3.7879">
        <ele>217</ele>
        <time>2019-10-26T10:36:09.000Z</time>
      </trkpt>
      <trkpt lat="47.85027" lon="3.78792">
        <ele>217</ele>
        <time>2019-10-26T10:36:10.000Z</time>
      </trkpt>
      <trkpt lat="47.85027" lon="3.78795">
        <ele>217</ele>
        <time>2019-10-26T10:36:11.000Z</time>
      </trkpt>
      <trkpt lat="47.85026" lon="3.78797">
        <ele>217</ele>
        <time>2019-10-26T10:36:12.000Z</time>
      </trkpt>
      <trkpt lat="47.85026" lon="3.78799">
        <ele>217</ele>
        <time>2019-10-26T10:36:13.000Z</time>
      </trkpt>
      <trkpt lat="47.85025" lon="3.78802">
        <ele>217</ele>
        <time>2019-10-26T10:36:14.000Z</time>
      </trkpt>
      <trkpt lat="47.85025" lon="3.78805">
        <ele>217</ele>
        <time>2019-10-26T10:36:15.000Z</time>
      </trkpt>
      <trkpt lat="47.85024" lon="3.78807">
        <ele>217</ele>
        <time>2019-10-26T10:36:16.000Z</time>
      </trkpt>
      <trkpt lat="47.85024" lon="3.7881">
        <ele>217</ele>
        <time>2019-10-26T10:36:17.000Z</time>
      </trkpt>
      <trkpt lat="47.85023" lon="3.78812">
        <ele>217</ele>
        <time>2019-10-26T10:36:18.000Z</time>
      </trkpt>
      <trkpt lat="47.85023" lon="3.78814">
        <ele>217</ele>
        <time>2019-10-26T10:36:19.000Z</time>
      </trkpt>
      <trkpt lat="47.85023" lon="3.78817">
        <ele>217</ele>
        <time>2019-10-26T10:36:20.000Z</time>
      </trkpt>
      <trkpt lat="47.85022" lon="3.78819">
        <ele>217</ele>
        <time>2019-10-26T10:36:21.000Z</time>
      </trkpt>
      <trkpt lat="47.85022" lon="3.78821">
        <ele>217</ele>
        <time>2019-10-26T10:36:22.000Z</time>
      </trkpt>
      <trkpt lat="47.85021" lon="3.78823">
        <ele>217</ele>
        <time>2019-10-26T10:36:23.000Z</time>
      </trkpt>
      <trkpt lat="47.8502" lon="3.78826">
        <ele>217</ele>
        <time>2019-10-26T10:36:24.000Z</time>
      </trkpt>
      <trkpt lat="47.8502" lon="3.78828">
        <ele>218</ele>
        <time>2019-10-26T10:36:25.000Z</time>
      </trkpt>
      <trkpt lat="47.85019" lon="3.78831">
        <ele>218</ele>
        <time>2019-10-26T10:36:26.000Z</time>
      </trkpt>
      <trkpt lat="47.85018" lon="3.78834">
        <ele>218</ele>
        <time>2019-10-26T10:36:27.000Z</time>
      </trkpt>
      <trkpt lat="47.85017" lon="3.78837">
        <ele>218</ele>
        <time>2019-10-26T10:36:28.000Z</time>
      </trkpt>
      <trkpt lat="47.85017" lon="3.7884">
        <ele>218</ele>
        <time>2019-10-26T10:36:29.000Z</time>
      </trkpt>
      <trkpt lat="47.85016" lon="3.78843">
        <ele>218</ele>
        <time>2019-10-26T10:36:30.000Z</time>
      </trkpt>
      <trkpt lat="47.85015" lon="3.78846">
        <ele>218</ele>
        <time>2019-10-26T10:36:31.000Z</time>
      </trkpt>
      <trkpt lat="47.85014" lon="3.78849">
        <ele>218</ele>
        <time>2019-10-26T10:36:32.000Z</time>
      </trkpt>
      <trkpt lat="47.85013" lon="3.78853">
        <ele>218</ele>
        <time>2019-10-26T10:36:33.000Z</time>
      </trkpt>
      <trkpt lat="47.85012" lon="3.78856">
        <ele>218</ele>
        <time>2019-10-26T10:36:34.000Z</time>
      </trkpt>
      <trkpt lat="47.85011" lon="3.78859">
        <ele>219</ele>
        <time>2019-10-26T10:36:35.000Z</time>
      </trkpt>
      <trkpt lat="47.8501" lon="3.78862">
        <ele>219</ele>
        <time>2019-10-26T10:36:36.000Z</time>
      </trkpt>
      <trkpt lat="47.85009" lon="3.78866">
        <ele>219</ele>
        <time>2019-10-26T10:36:37.000Z</time>
      </trkpt>
      <trkpt lat="47.85008" lon="3.78869">
        <ele>219</ele>
        <time>2019-10-26T10:36:38.000Z</time>
      </trkpt>
      <trkpt lat="47.85007" lon="3.78872">
        <ele>219</ele>
        <time>2019-10-26T10:36:39.000Z</time>
      </trkpt>
      <trkpt lat="47.85006" lon="3.78876">
        <ele>219</ele>
        <time>2019-10-26T10:36:40.000Z</time>
      </trkpt>
      <trkpt lat="47.85005" lon="3.78879">
        <ele>219</ele>
        <time>2019-10-26T10:36:41.000Z</time>
      </trkpt>
      <trkpt lat="47.85004" lon="3.78882">
        <ele>219</ele>
        <time>2019-10-26T10:36:42.000Z</time>
      </trkpt>
      <trkpt lat="47.85003" lon="3.78886">
        <ele>220</ele>
        <time>2019-10-26T10:36:43.000Z</time>
      </trkpt>
      <trkpt lat="47.85002" lon="3.78889">
        <ele>220</ele>
        <time>2019-10-26T10:36:44.000Z</time>
      </trkpt>
      <trkpt lat="47.85001" lon="3.78892">
        <ele>220</ele>
        <time>2019-10-26T10:36:45.000Z</time>
      </trkpt>
      <trkpt lat="47.85" lon="3.78896">
        <ele>220</ele>
        <time>2019-10-26T10:36:46.000Z</time>
      </trkpt>
      <trkpt lat="47.84999" lon="3.78899">
        <ele>220</ele>
        <time>2019-10-26T10:36:47.000Z</time>
      </trkpt>
      <trkpt lat="47.84998" lon="3.78902">
        <ele>220</ele>
        <time>2019-10-26T10:36:48.000Z</time>
      </trkpt>
      <trkpt lat="47.84997" lon="3.78905">
        <ele>220</ele>
        <time>2019-10-26T10:36:49.000Z</time>
      </trkpt>
      <trkpt lat="47.84996" lon="3.78909">
        <ele>220</ele>
        <time>2019-10-26T10:36:50.000Z</time>
      </trkpt>
      <trkpt lat="47.84996" lon="3.78912">
        <ele>220</ele>
        <time>2019-10-26T10:36:51.000Z</time>
      </trkpt>
      <trkpt lat="47.84995" lon="3.78916">
        <ele>220</ele>
        <time>2019-10-26T10:36:52.000Z</time>
      </trkpt>
      <trkpt lat="47.84994" lon="3.78919">
        <ele>220</ele>
        <time>2019-10-26T10:36:53.000Z</time>
      </trkpt>
      <trkpt lat="47.84993" lon="3.78922">
        <ele>220</ele>
        <time>2019-10-26T10:36:54.000Z</time>
      </trkpt>
      <trkpt lat="47.84992" lon="3.78925">
        <ele>220</ele>
        <time>2019-10-26T10:36:55.000Z</time>
      </trkpt>
      <trkpt lat="47.84991" lon="3.78929">
        <ele>220</ele>
        <time>2019-10-26T10:36:56.000Z</time>
      </trkpt>
      <trkpt lat="47.8499" lon="3.78932">
        <ele>220</ele>
        <time>2019-10-26T10:36:57.000Z</time>
      </trkpt>
      <trkpt lat="47.84989" lon="3.78935">
        <ele>221</ele>
        <time>2019-10-26T10:36:58.000Z</time>
      </trkpt>
      <trkpt lat="47.84988" lon="3.78938">
        <ele>221</ele>
        <time>2019-10-26T10:36:59.000Z</time>
      </trkpt>
      <trkpt lat="47.84987" lon="3.78942">
        <ele>221</ele>
        <time>2019-10-26T10:37:00.000Z</time>
      </trkpt>
      <trkpt lat="47.84987" lon="3.78945">
        <ele>221</ele>
        <time>2019-10-26T10:37:01.000Z</time>
      </trkpt>
      <trkpt lat="47.84986" lon="3.78948">
        <ele>221</ele>
        <time>2019-10-26T10:37:02.000Z</time>
      </trkpt>
      <trkpt lat="47.84985" lon="3.78952">
        <ele>221</ele>
        <time>2019-10-26T10:37:03.000Z</time>
      </trkpt>
      <trkpt lat="47.84984" lon="3.78955">
        <ele>221</ele>
        <time>2019-10-26T10:37:04.000Z</time>
      </trkpt>
      <trkpt lat="47.84983" lon="3.78959">
        <ele>221</ele>
        <time>2019-10-26T10:37:05.000Z</time>
      </trkpt>
      <trkpt lat="47.84982" lon="3.78962">
        <ele>221</ele>
        <time>2019-10-26T10:37:06.000Z</time>
      </trkpt>
      <trkpt lat="47.84981" lon="3.78965">
        <ele>221</ele>
        <time>2019-10-26T10:37:07.000Z</time>
      </trkpt>
      <trkpt lat="47.84981" lon="3.78969">
        <ele>221</ele>
        <time>2019-10-26T10:37:08.000Z</time>
      </trkpt>
      <trkpt lat="47.8498" lon="3.78972">
        <ele>221</ele>
        <time>2019-10-26T10:37:09.000Z</time>
      </trkpt>
      <trkpt lat="47.84979" lon="3.78975">
        <ele>222</ele>
        <time>2019-10-26T10:37:10.000Z</time>
      </trkpt>
      <trkpt lat="47.84978" lon="3.78978">
        <ele>222</ele>
        <time>2019-10-26T10:37:11.000Z</time>
      </trkpt>
      <trkpt lat="47.84977" lon="3.78982">
        <ele>222</ele>
        <time>2019-10-26T10:37:12.000Z</time>
      </trkpt>
      <trkpt lat="47.84976" lon="3.78985">
        <ele>222</ele>
        <time>2019-10-26T10:37:13.000Z</time>
      </trkpt>
      <trkpt lat="47.84975" lon="3.78989">
        <ele>222</ele>
        <time>2019-10-26T10:37:14.000Z</time>
      </trkpt>
      <trkpt lat="47.84974" lon="3.78992">
        <ele>222</ele>
        <time>2019-10-26T10:37:15.000Z</time>
      </trkpt>
      <trkpt lat="47.84973" lon="3.78995">
        <ele>222</ele>
        <time>2019-10-26T10:37:16.000Z</time>
      </trkpt>
      <trkpt lat="47.84973" lon="3.78998">
        <ele>222</ele>
        <time>2019-10-26T10:37:17.000Z</time>
      </trkpt>
      <trkpt lat="47.84972" lon="3.79001">
        <ele>223</ele>
        <time>2019-10-26T10:37:18.000Z</time>
      </trkpt>
      <trkpt lat="47.84971" lon="3.79004">
        <ele>223</ele>
        <time>2019-10-26T10:37:19.000Z</time>
      </trkpt>
      <trkpt lat="47.8497" lon="3.79007">
        <ele>223</ele>
        <time>2019-10-26T10:37:20.000Z</time>
      </trkpt>
      <trkpt lat="47.84969" lon="3.7901">
        <ele>223</ele>
        <time>2019-10-26T10:37:21.000Z</time>
      </trkpt>
      <trkpt lat="47.84969" lon="3.79013">
        <ele>223</ele>
        <time>2019-10-26T10:37:22.000Z</time>
      </trkpt>
      <trkpt lat="47.84968" lon="3.79015">
        <ele>223</ele>
        <time>2019-10-26T10:37:23.000Z</time>
      </trkpt>
      <trkpt lat="47.84967" lon="3.79017">
        <ele>223</ele>
        <time>2019-10-26T10:37:24.000Z</time>
      </trkpt>
      <trkpt lat="47.84967" lon="3.79019">
        <ele>223</ele>
        <time>2019-10-26T10:37:25.000Z</time>
      </trkpt>
      <trkpt lat="47.84966" lon="3.79022">
        <ele>223</ele>
        <time>2019-10-26T10:37:26.000Z</time>
      </trkpt>
      <trkpt lat="47.84965" lon="3.79024">
        <ele>223</ele>
        <time>2019-10-26T10:37:27.000Z</time>
      </trkpt>
      <trkpt lat="47.84965" lon="3.79026">
        <ele>224</ele>
        <time>2019-10-26T10:37:28.000Z</time>
      </trkpt>
      <trkpt lat="47.84964" lon="3.79029">
        <ele>224</ele>
        <time>2019-10-26T10:37:29.000Z</time>
      </trkpt>
      <trkpt lat="47.84964" lon="3.79031">
        <ele>224</ele>
        <time>2019-10-26T10:37:30.000Z</time>
      </trkpt>
      <trkpt lat="47.84963" lon="3.79033">
        <ele>224</ele>
        <time>2019-10-26T10:37:31.000Z</time>
      </trkpt>
      <trkpt lat="47.84963" lon="3.79036">
        <ele>224</ele>
        <time>2019-10-26T10:37:32.000Z</time>
      </trkpt>
      <trkpt lat="47.84962" lon="3.79038">
        <ele>224</ele>
        <time>2019-10-26T10:37:33.000Z</time>
      </trkpt>
      <trkpt lat="47.84962" lon="3.79041">
        <ele>225</ele>
        <time>2019-10-26T10:37:34.000Z</time>
      </trkpt>
      <trkpt lat="47.84962" lon="3.79043">
        <ele>225</ele>
        <time>2019-10-26T10:37:35.000Z</time>
      </trkpt>
      <trkpt lat="47.84961" lon="3.79045">
        <ele>225</ele>
        <time>2019-10-26T10:37:36.000Z</time>
      </trkpt>
      <trkpt lat="47.84961" lon="3.79047">
        <ele>225</ele>
        <time>2019-10-26T10:37:37.000Z</time>
      </trkpt>
      <trkpt lat="47.8496" lon="3.79049">
        <ele>225</ele>
        <time>2019-10-26T10:37:38.000Z</time>
      </trkpt>
      <trkpt lat="47.84959" lon="3.79052">
        <ele>225</ele>
        <time>2019-10-26T10:37:39.000Z</time>
      </trkpt>
      <trkpt lat="47.84959" lon="3.79054">
        <ele>226</ele>
        <time>2019-10-26T10:37:40.000Z</time>
      </trkpt>
      <trkpt lat="47.84958" lon="3.79056">
        <ele>226</ele>
        <time>2019-10-26T10:37:41.000Z</time>
      </trkpt>
      <trkpt lat="47.84958" lon="3.79058">
        <ele>226</ele>
        <time>2019-10-26T10:37:42.000Z</time>
      </trkpt>
      <trkpt lat="47.84957" lon="3.79061">
        <ele>226</ele>
        <time>2019-10-26T10:37:43.000Z</time>
      </trkpt>
      <trkpt lat="47.84956" lon="3.79063">
        <ele>226</ele>
        <time>2019-10-26T10:37:44.000Z</time>
      </trkpt>
      <trkpt lat="47.84956" lon="3.79066">
        <ele>226</ele>
        <time>2019-10-26T10:37:45.000Z</time>
      </trkpt>
      <trkpt lat="47.84955" lon="3.79068">
        <ele>226</ele>
        <time>2019-10-26T10:37:46.000Z</time>
      </trkpt>
      <trkpt lat="47.84954" lon="3.79071">
        <ele>226</ele>
        <time>2019-10-26T10:37:47.000Z</time>
      </trkpt>
      <trkpt lat="47.84953" lon="3.79073">
        <ele>227</ele>
        <time>2019-10-26T10:37:48.000Z</time>
      </trkpt>
      <trkpt lat="47.84953" lon="3.79075">
        <ele>227</ele>
        <time>2019-10-26T10:37:49.000Z</time>
      </trkpt>
      <trkpt lat="47.84952" lon="3.79078">
        <ele>227</ele>
        <time>2019-10-26T10:37:50.000Z</time>
      </trkpt>
      <trkpt lat="47.84951" lon="3.7908">
        <ele>227</ele>
        <time>2019-10-26T10:37:51.000Z</time>
      </trkpt>
      <trkpt lat="47.84951" lon="3.79082">
        <ele>227</ele>
        <time>2019-10-26T10:37:52.000Z</time>
      </trkpt>
      <trkpt lat="47.8495" lon="3.79084">
        <ele>227</ele>
        <time>2019-10-26T10:37:53.000Z</time>
      </trkpt>
      <trkpt lat="47.8495" lon="3.79087">
        <ele>227</ele>
        <time>2019-10-26T10:37:54.000Z</time>
      </trkpt>
      <trkpt lat="47.84949" lon="3.79089">
        <ele>227</ele>
        <time>2019-10-26T10:37:55.000Z</time>
      </trkpt>
      <trkpt lat="47.84949" lon="3.79091">
        <ele>227</ele>
        <time>2019-10-26T10:37:56.000Z</time>
      </trkpt>
      <trkpt lat="47.84949" lon="3.79094">
        <ele>227</ele>
        <time>2019-10-26T10:37:57.000Z</time>
      </trkpt>
      <trkpt lat="47.84948" lon="3.79096">
        <ele>228</ele>
        <time>2019-10-26T10:37:58.000Z</time>
      </trkpt>
      <trkpt lat="47.84948" lon="3.79099">
        <ele>228</ele>
        <time>2019-10-26T10:37:59.000Z</time>
      </trkpt>
      <trkpt lat="47.84947" lon="3.79101">
        <ele>228</ele>
        <time>2019-10-26T10:38:00.000Z</time>
      </trkpt>
      <trkpt lat="47.84946" lon="3.79103">
        <ele>228</ele>
        <time>2019-10-26T10:38:01.000Z</time>
      </trkpt>
      <trkpt lat="47.84946" lon="3.79106">
        <ele>228</ele>
        <time>2019-10-26T10:38:02.000Z</time>
      </trkpt>
      <trkpt lat="47.84945" lon="3.79108">
        <ele>228</ele>
        <time>2019-10-26T10:38:03.000Z</time>
      </trkpt>
      <trkpt lat="47.84944" lon="3.79111">
        <ele>228</ele>
        <time>2019-10-26T10:38:04.000Z</time>
      </trkpt>
      <trkpt lat="47.84944" lon="3.79113">
        <ele>228</ele>
        <time>2019-10-26T10:38:05.000Z</time>
      </trkpt>
      <trkpt lat="47.84943" lon="3.79115">
        <ele>228</ele>
        <time>2019-10-26T10:38:06.000Z</time>
      </trkpt>
      <trkpt lat="47.84942" lon="3.79118">
        <ele>228</ele>
        <time>2019-10-26T10:38:07.000Z</time>
      </trkpt>
      <trkpt lat="47.84941" lon="3.7912">
        <ele>228</ele>
        <time>2019-10-26T10:38:08.000Z</time>
      </trkpt>
      <trkpt lat="47.84941" lon="3.79122">
        <ele>228</ele>
        <time>2019-10-26T10:38:09.000Z</time>
      </trkpt>
      <trkpt lat="47.8494" lon="3.79124">
        <ele>228</ele>
        <time>2019-10-26T10:38:10.000Z</time>
      </trkpt>
      <trkpt lat="47.8494" lon="3.79126">
        <ele>229</ele>
        <time>2019-10-26T10:38:11.000Z</time>
      </trkpt>
      <trkpt lat="47.84939" lon="3.79128">
        <ele>229</ele>
        <time>2019-10-26T10:38:12.000Z</time>
      </trkpt>
      <trkpt lat="47.84938" lon="3.79131">
        <ele>229</ele>
        <time>2019-10-26T10:38:13.000Z</time>
      </trkpt>
      <trkpt lat="47.84938" lon="3.79133">
        <ele>229</ele>
        <time>2019-10-26T10:38:14.000Z</time>
      </trkpt>
      <trkpt lat="47.84937" lon="3.79135">
        <ele>229</ele>
        <time>2019-10-26T10:38:15.000Z</time>
      </trkpt>
      <trkpt lat="47.84937" lon="3.79138">
        <ele>229</ele>
        <time>2019-10-26T10:38:16.000Z</time>
      </trkpt>
      <trkpt lat="47.84936" lon="3.7914">
        <ele>229</ele>
        <time>2019-10-26T10:38:17.000Z</time>
      </trkpt>
      <trkpt lat="47.84936" lon="3.79142">
        <ele>229</ele>
        <time>2019-10-26T10:38:18.000Z</time>
      </trkpt>
      <trkpt lat="47.84935" lon="3.79145">
        <ele>229</ele>
        <time>2019-10-26T10:38:19.000Z</time>
      </trkpt>
      <trkpt lat="47.84934" lon="3.79147">
        <ele>229</ele>
        <time>2019-10-26T10:38:20.000Z</time>
      </trkpt>
      <trkpt lat="47.84934" lon="3.79149">
        <ele>229</ele>
        <time>2019-10-26T10:38:21.000Z</time>
      </trkpt>
      <trkpt lat="47.84933" lon="3.79151">
        <ele>229</ele>
        <time>2019-10-26T10:38:22.000Z</time>
      </trkpt>
      <trkpt lat="47.84933" lon="3.79153">
        <ele>229</ele>
        <time>2019-10-26T10:38:23.000Z</time>
      </trkpt>
      <trkpt lat="47.84932" lon="3.79155">
        <ele>229</ele>
        <time>2019-10-26T10:38:24.000Z</time>
      </trkpt>
      <trkpt lat="47.84931" lon="3.79157">
        <ele>229</ele>
        <time>2019-10-26T10:38:25.000Z</time>
      </trkpt>
      <trkpt lat="47.84931" lon="3.79159">
        <ele>229</ele>
        <time>2019-10-26T10:38:26.000Z</time>
      </trkpt>
      <trkpt lat="47.8493" lon="3.7916">
        <ele>230</ele>
        <time>2019-10-26T10:38:27.000Z</time>
      </trkpt>
      <trkpt lat="47.8493" lon="3.79162">
        <ele>230</ele>
        <time>2019-10-26T10:38:28.000Z</time>
      </trkpt>
      <trkpt lat="47.84929" lon="3.79164">
        <ele>230</ele>
        <time>2019-10-26T10:38:29.000Z</time>
      </trkpt>
      <trkpt lat="47.84929" lon="3.79166">
        <ele>230</ele>
        <time>2019-10-26T10:38:30.000Z</time>
      </trkpt>
      <trkpt lat="47.84929" lon="3.79169">
        <ele>230</ele>
        <time>2019-10-26T10:38:31.000Z</time>
      </trkpt>
      <trkpt lat="47.84928" lon="3.79171">
        <ele>230</ele>
        <time>2019-10-26T10:38:32.000Z</time>
      </trkpt>
      <trkpt lat="47.84927" lon="3.79174">
        <ele>230</ele>
        <time>2019-10-26T10:38:33.000Z</time>
      </trkpt>
      <trkpt lat="47.84927" lon="3.79176">
        <ele>231</ele>
        <time>2019-10-26T10:38:34.000Z</time>
      </trkpt>
      <trkpt lat="47.84926" lon="3.79178">
        <ele>231</ele>
        <time>2019-10-26T10:38:35.000Z</time>
      </trkpt>
      <trkpt lat="47.84926" lon="3.79181">
        <ele>231</ele>
        <time>2019-10-26T10:38:36.000Z</time>
      </trkpt>
      <trkpt lat="47.84925" lon="3.79183">
        <ele>231</ele>
        <time>2019-10-26T10:38:37.000Z</time>
      </trkpt>
      <trkpt lat="47.84925" lon="3.79185">
        <ele>231</ele>
        <time>2019-10-26T10:38:38.000Z</time>
      </trkpt>
      <trkpt lat="47.84925" lon="3.79188">
        <ele>232</ele>
        <time>2019-10-26T10:38:39.000Z</time>
      </trkpt>
      <trkpt lat="47.84924" lon="3.7919">
        <ele>232</ele>
        <time>2019-10-26T10:38:40.000Z</time>
      </trkpt>
      <trkpt lat="47.84923" lon="3.79193">
        <ele>232</ele>
        <time>2019-10-26T10:38:41.000Z</time>
      </trkpt>
      <trkpt lat="47.84923" lon="3.79195">
        <ele>232</ele>
        <time>2019-10-26T10:38:42.000Z</time>
      </trkpt>
      <trkpt lat="47.84922" lon="3.79197">
        <ele>232</ele>
        <time>2019-10-26T10:38:43.000Z</time>
      </trkpt>
      <trkpt lat="47.84922" lon="3.79199">
        <ele>232</ele>
        <time>2019-10-26T10:38:44.000Z</time>
      </trkpt>
      <trkpt lat="47.84922" lon="3.79201">
        <ele>232</ele>
        <time>2019-10-26T10:38:45.000Z</time>
      </trkpt>
      <trkpt lat="47.84921" lon="3.79203">
        <ele>232</ele>
        <time>2019-10-26T10:38:46.000Z</time>
      </trkpt>
      <trkpt lat="47.8492" lon="3.79205">
        <ele>232</ele>
        <time>2019-10-26T10:38:47.000Z</time>
      </trkpt>
      <trkpt lat="47.8492" lon="3.79208">
        <ele>232</ele>
        <time>2019-10-26T10:38:48.000Z</time>
      </trkpt>
      <trkpt lat="47.84919" lon="3.7921">
        <ele>233</ele>
        <time>2019-10-26T10:38:49.000Z</time>
      </trkpt>
      <trkpt lat="47.84918" lon="3.79212">
        <ele>233</ele>
        <time>2019-10-26T10:38:50.000Z</time>
      </trkpt>
      <trkpt lat="47.84918" lon="3.79215">
        <ele>233</ele>
        <time>2019-10-26T10:38:51.000Z</time>
      </trkpt>
      <trkpt lat="47.84917" lon="3.79218">
        <ele>233</ele>
        <time>2019-10-26T10:38:52.000Z</time>
      </trkpt>
      <trkpt lat="47.84917" lon="3.79221">
        <ele>233</ele>
        <time>2019-10-26T10:38:53.000Z</time>
      </trkpt>
      <trkpt lat="47.84916" lon="3.79223">
        <ele>233</ele>
        <time>2019-10-26T10:38:54.000Z</time>
      </trkpt>
      <trkpt lat="47.84916" lon="3.79226">
        <ele>233</ele>
        <time>2019-10-26T10:38:55.000Z</time>
      </trkpt>
      <trkpt lat="47.84915" lon="3.79228">
        <ele>233</ele>
        <time>2019-10-26T10:38:56.000Z</time>
      </trkpt>
      <trkpt lat="47.84914" lon="3.79231">
        <ele>233</ele>
        <time>2019-10-26T10:38:57.000Z</time>
      </trkpt>
      <trkpt lat="47.84914" lon="3.79233">
        <ele>233</ele>
        <time>2019-10-26T10:38:58.000Z</time>
      </trkpt>
      <trkpt lat="47.84913" lon="3.79235">
        <ele>234</ele>
        <time>2019-10-26T10:38:59.000Z</time>
      </trkpt>
      <trkpt lat="47.84912" lon="3.79237">
        <ele>234</ele>
        <time>2019-10-26T10:39:00.000Z</time>
      </trkpt>
      <trkpt lat="47.84912" lon="3.7924">
        <ele>234</ele>
        <time>2019-10-26T10:39:01.000Z</time>
      </trkpt>
      <trkpt lat="47.84912" lon="3.79242">
        <ele>234</ele>
        <time>2019-10-26T10:39:02.000Z</time>
      </trkpt>
      <trkpt lat="47.84911" lon="3.79244">
        <ele>234</ele>
        <time>2019-10-26T10:39:03.000Z</time>
      </trkpt>
      <trkpt lat="47.84911" lon="3.79246">
        <ele>234</ele>
        <time>2019-10-26T10:39:04.000Z</time>
      </trkpt>
      <trkpt lat="47.84911" lon="3.79249">
        <ele>234</ele>
        <time>2019-10-26T10:39:05.000Z</time>
      </trkpt>
      <trkpt lat="47.8491" lon="3.79252">
        <ele>235</ele>
        <time>2019-10-26T10:39:06.000Z</time>
      </trkpt>
      <trkpt lat="47.84909" lon="3.79254">
        <ele>235</ele>
        <time>2019-10-26T10:39:07.000Z</time>
      </trkpt>
      <trkpt lat="47.84908" lon="3.79256">
        <ele>235</ele>
        <time>2019-10-26T10:39:08.000Z</time>
      </trkpt>
      <trkpt lat="47.84908" lon="3.79259">
        <ele>235</ele>
        <time>2019-10-26T10:39:09.000Z</time>
      </trkpt>
      <trkpt lat="47.84907" lon="3.79261">
        <ele>235</ele>
        <time>2019-10-26T10:39:10.000Z</time>
      </trkpt>
      <trkpt lat="47.84906" lon="3.79263">
        <ele>235</ele>
        <time>2019-10-26T10:39:11.000Z</time>
      </trkpt>
      <trkpt lat="47.84906" lon="3.79266">
        <ele>235</ele>
        <time>2019-10-26T10:39:12.000Z</time>
      </trkpt>
      <trkpt lat="47.84905" lon="3.79268">
        <ele>235</ele>
        <time>2019-10-26T10:39:13.000Z</time>
      </trkpt>
      <trkpt lat="47.84905" lon="3.79271">
        <ele>235</ele>
        <time>2019-10-26T10:39:14.000Z</time>
      </trkpt>
      <trkpt lat="47.84905" lon="3.79273">
        <ele>235</ele>
        <time>2019-10-26T10:39:15.000Z</time>
      </trkpt>
      <trkpt lat="47.84904" lon="3.79276">
        <ele>235</ele>
        <time>2019-10-26T10:39:16.000Z</time>
      </trkpt>
      <trkpt lat="47.84903" lon="3.79278">
        <ele>235</ele>
        <time>2019-10-26T10:39:17.000Z</time>
      </trkpt>
      <trkpt lat="47.84902" lon="3.79281">
        <ele>236</ele>
        <time>2019-10-26T10:39:18.000Z</time>
      </trkpt>
      <trkpt lat="47.84902" lon="3.79283">
        <ele>236</ele>
        <time>2019-10-26T10:39:19.000Z</time>
      </trkpt>
      <trkpt lat="47.84901" lon="3.79286">
        <ele>236</ele>
        <time>2019-10-26T10:39:20.000Z</time>
      </trkpt>
      <trkpt lat="47.849" lon="3.79288">
        <ele>236</ele>
        <time>2019-10-26T10:39:21.000Z</time>
      </trkpt>
      <trkpt lat="47.84899" lon="3.79291">
        <ele>236</ele>
        <time>2019-10-26T10:39:22.000Z</time>
      </trkpt>
      <trkpt lat="47.84898" lon="3.79293">
        <ele>236</ele>
        <time>2019-10-26T10:39:23.000Z</time>
      </trkpt>
      <trkpt lat="47.84898" lon="3.79295">
        <ele>236</ele>
        <time>2019-10-26T10:39:24.000Z</time>
      </trkpt>
      <trkpt lat="47.84897" lon="3.79298">
        <ele>236</ele>
        <time>2019-10-26T10:39:25.000Z</time>
      </trkpt>
      <trkpt lat="47.84896" lon="3.793">
        <ele>236</ele>
        <time>2019-10-26T10:39:26.000Z</time>
      </trkpt>
      <trkpt lat="47.84896" lon="3.79302">
        <ele>236</ele>
        <time>2019-10-26T10:39:27.000Z</time>
      </trkpt>
      <trkpt lat="47.84895" lon="3.79305">
        <ele>236</ele>
        <time>2019-10-26T10:39:28.000Z</time>
      </trkpt>
      <trkpt lat="47.84895" lon="3.79307">
        <ele>236</ele>
        <time>2019-10-26T10:39:29.000Z</time>
      </trkpt>
      <trkpt lat="47.84894" lon="3.79309">
        <ele>236</ele>
        <time>2019-10-26T10:39:30.000Z</time>
      </trkpt>
      <trkpt lat="47.84894" lon="3.79312">
        <ele>236</ele>
        <time>2019-10-26T10:39:31.000Z</time>
      </trkpt>
      <trkpt lat="47.84893" lon="3.79314">
        <ele>236</ele>
        <time>2019-10-26T10:39:32.000Z</time>
      </trkpt>
      <trkpt lat="47.84892" lon="3.79316">
        <ele>236</ele>
        <time>2019-10-26T10:39:33.000Z</time>
      </trkpt>
      <trkpt lat="47.84892" lon="3.79319">
        <ele>236</ele>
        <time>2019-10-26T10:39:34.000Z</time>
      </trkpt>
      <trkpt lat="47.84891" lon="3.79321">
        <ele>236</ele>
        <time>2019-10-26T10:39:35.000Z</time>
      </trkpt>
      <trkpt lat="47.8489" lon="3.79324">
        <ele>236</ele>
        <time>2019-10-26T10:39:36.000Z</time>
      </trkpt>
      <trkpt lat="47.8489" lon="3.79326">
        <ele>236</ele>
        <time>2019-10-26T10:39:37.000Z</time>
      </trkpt>
      <trkpt lat="47.8489" lon="3.79328">
        <ele>236</ele>
        <time>2019-10-26T10:39:38.000Z</time>
      </trkpt>
      <trkpt lat="47.84889" lon="3.79331">
        <ele>236</ele>
        <time>2019-10-26T10:39:39.000Z</time>
      </trkpt>
      <trkpt lat="47.84889" lon="3.79333">
        <ele>236</ele>
        <time>2019-10-26T10:39:40.000Z</time>
      </trkpt>
      <trkpt lat="47.84889" lon="3.79335">
        <ele>236</ele>
        <time>2019-10-26T10:39:41.000Z</time>
      </trkpt>
      <trkpt lat="47.84889" lon="3.79338">
        <ele>236</ele>
        <time>2019-10-26T10:39:42.000Z</time>
      </trkpt>
      <trkpt lat="47.84888" lon="3.7934">
        <ele>236</ele>
        <time>2019-10-26T10:39:43.000Z</time>
      </trkpt>
      <trkpt lat="47.84888" lon="3.79343">
        <ele>237</ele>
        <time>2019-10-26T10:39:44.000Z</time>
      </trkpt>
      <trkpt lat="47.84887" lon="3.79345">
        <ele>237</ele>
        <time>2019-10-26T10:39:45.000Z</time>
      </trkpt>
      <trkpt lat="47.84887" lon="3.79348">
        <ele>237</ele>
        <time>2019-10-26T10:39:46.000Z</time>
      </trkpt>
      <trkpt lat="47.84887" lon="3.79351">
        <ele>237</ele>
        <time>2019-10-26T10:39:47.000Z</time>
      </trkpt>
      <trkpt lat="47.84886" lon="3.79353">
        <ele>237</ele>
        <time>2019-10-26T10:39:48.000Z</time>
      </trkpt>
      <trkpt lat="47.84886" lon="3.79356">
        <ele>237</ele>
        <time>2019-10-26T10:39:49.000Z</time>
      </trkpt>
      <trkpt lat="47.84886" lon="3.79358">
        <ele>237</ele>
        <time>2019-10-26T10:39:50.000Z</time>
      </trkpt>
      <trkpt lat="47.84885" lon="3.79361">
        <ele>237</ele>
        <time>2019-10-26T10:39:51.000Z</time>
      </trkpt>
      <trkpt lat="47.84885" lon="3.79363">
        <ele>237</ele>
        <time>2019-10-26T10:39:52.000Z</time>
      </trkpt>
      <trkpt lat="47.84886" lon="3.79366">
        <ele>237</ele>
        <time>2019-10-26T10:39:53.000Z</time>
      </trkpt>
      <trkpt lat="47.84886" lon="3.79368">
        <ele>237</ele>
        <time>2019-10-26T10:39:54.000Z</time>
      </trkpt>
      <trkpt lat="47.84886" lon="3.7937">
        <ele>237</ele>
        <time>2019-10-26T10:39:55.000Z</time>
      </trkpt>
      <trkpt lat="47.84886" lon="3.79372">
        <ele>237</ele>
        <time>2019-10-26T10:39:56.000Z</time>
      </trkpt>
      <trkpt lat="47.84886" lon="3.79375">
        <ele>237</ele>
        <time>2019-10-26T10:39:57.000Z</time>
      </trkpt>
      <trkpt lat="47.84885" lon="3.79377">
        <ele>237</ele>
        <time>2019-10-26T10:39:58.000Z</time>
      </trkpt>
      <trkpt lat="47.84885" lon="3.79379">
        <ele>238</ele>
        <time>2019-10-26T10:39:59.000Z</time>
      </trkpt>
      <trkpt lat="47.84886" lon="3.79381">
        <ele>238</ele>
        <time>2019-10-26T10:40:00.000Z</time>
      </trkpt>
      <trkpt lat="47.84886" lon="3.79383">
        <ele>238</ele>
        <time>2019-10-26T10:40:01.000Z</time>
      </trkpt>
      <trkpt lat="47.84886" lon="3.79385">
        <ele>239</ele>
        <time>2019-10-26T10:40:02.000Z</time>
      </trkpt>
      <trkpt lat="47.84885" lon="3.79388">
        <ele>239</ele>
        <time>2019-10-26T10:40:03.000Z</time>
      </trkpt>
      <trkpt lat="47.84885" lon="3.7939">
        <ele>239</ele>
        <time>2019-10-26T10:40:04.000Z</time>
      </trkpt>
      <trkpt lat="47.84885" lon="3.79392">
        <ele>240</ele>
        <time>2019-10-26T10:40:05.000Z</time>
      </trkpt>
      <trkpt lat="47.84885" lon="3.79394">
        <ele>240</ele>
        <time>2019-10-26T10:40:06.000Z</time>
      </trkpt>
      <trkpt lat="47.84885" lon="3.79397">
        <ele>240</ele>
        <time>2019-10-26T10:40:07.000Z</time>
      </trkpt>
      <trkpt lat="47.84885" lon="3.79399">
        <ele>240</ele>
        <time>2019-10-26T10:40:08.000Z</time>
      </trkpt>
      <trkpt lat="47.84886" lon="3.79401">
        <ele>241</ele>
        <time>2019-10-26T10:40:09.000Z</time>
      </trkpt>
      <trkpt lat="47.84886" lon="3.79403">
        <ele>241</ele>
        <time>2019-10-26T10:40:10.000Z</time>
      </trkpt>
      <trkpt lat="47.84886" lon="3.79405">
        <ele>241</ele>
        <time>2019-10-26T10:40:11.000Z</time>
      </trkpt>
      <trkpt lat="47.84886" lon="3.79408">
        <ele>241</ele>
        <time>2019-10-26T10:40:12.000Z</time>
      </trkpt>
      <trkpt lat="47.84886" lon="3.7941">
        <ele>241</ele>
        <time>2019-10-26T10:40:13.000Z</time>
      </trkpt>
      <trkpt lat="47.84886" lon="3.79413">
        <ele>242</ele>
        <time>2019-10-26T10:40:14.000Z</time>
      </trkpt>
      <trkpt lat="47.84886" lon="3.79415">
        <ele>242</ele>
        <time>2019-10-26T10:40:15.000Z</time>
      </trkpt>
      <trkpt lat="47.84887" lon="3.79418">
        <ele>242</ele>
        <time>2019-10-26T10:40:16.000Z</time>
      </trkpt>
      <trkpt lat="47.84887" lon="3.79421">
        <ele>242</ele>
        <time>2019-10-26T10:40:17.000Z</time>
      </trkpt>
      <trkpt lat="47.84887" lon="3.79423">
        <ele>242</ele>
        <time>2019-10-26T10:40:18.000Z</time>
      </trkpt>
      <trkpt lat="47.84887" lon="3.79426">
        <ele>242</ele>
        <time>2019-10-26T10:40:19.000Z</time>
      </trkpt>
      <trkpt lat="47.84887" lon="3.79428">
        <ele>242</ele>
        <time>2019-10-26T10:40:20.000Z</time>
      </trkpt>
      <trkpt lat="47.84887" lon="3.7943">
        <ele>242</ele>
        <time>2019-10-26T10:40:21.000Z</time>
      </trkpt>
      <trkpt lat="47.84887" lon="3.79433">
        <ele>242</ele>
        <time>2019-10-26T10:40:22.000Z</time>
      </trkpt>
      <trkpt lat="47.84886" lon="3.79435">
        <ele>242</ele>
        <time>2019-10-26T10:40:23.000Z</time>
      </trkpt>
      <trkpt lat="47.84886" lon="3.79437">
        <ele>242</ele>
        <time>2019-10-26T10:40:24.000Z</time>
      </trkpt>
      <trkpt lat="47.84885" lon="3.7944">
        <ele>242</ele>
        <time>2019-10-26T10:40:25.000Z</time>
      </trkpt>
      <trkpt lat="47.84885" lon="3.79442">
        <ele>242</ele>
        <time>2019-10-26T10:40:26.000Z</time>
      </trkpt>
      <trkpt lat="47.84885" lon="3.79444">
        <ele>242</ele>
        <time>2019-10-26T10:40:27.000Z</time>
      </trkpt>
      <trkpt lat="47.84884" lon="3.79447">
        <ele>242</ele>
        <time>2019-10-26T10:40:28.000Z</time>
      </trkpt>
      <trkpt lat="47.84884" lon="3.7945">
        <ele>242</ele>
        <time>2019-10-26T10:40:29.000Z</time>
      </trkpt>
      <trkpt lat="47.84883" lon="3.79453">
        <ele>242</ele>
        <time>2019-10-26T10:40:30.000Z</time>
      </trkpt>
      <trkpt lat="47.84882" lon="3.79455">
        <ele>242</ele>
        <time>2019-10-26T10:40:31.000Z</time>
      </trkpt>
      <trkpt lat="47.84881" lon="3.79458">
        <ele>242</ele>
        <time>2019-10-26T10:40:32.000Z</time>
      </trkpt>
      <trkpt lat="47.84881" lon="3.7946">
        <ele>242</ele>
        <time>2019-10-26T10:40:33.000Z</time>
      </trkpt>
      <trkpt lat="47.8488" lon="3.79463">
        <ele>242</ele>
        <time>2019-10-26T10:40:34.000Z</time>
      </trkpt>
      <trkpt lat="47.84879" lon="3.79466">
        <ele>242</ele>
        <time>2019-10-26T10:40:35.000Z</time>
      </trkpt>
      <trkpt lat="47.84878" lon="3.79468">
        <ele>242</ele>
        <time>2019-10-26T10:40:36.000Z</time>
      </trkpt>
      <trkpt lat="47.84877" lon="3.79471">
        <ele>242</ele>
        <time>2019-10-26T10:40:37.000Z</time>
      </trkpt>
      <trkpt lat="47.84876" lon="3.79474">
        <ele>242</ele>
        <time>2019-10-26T10:40:38.000Z</time>
      </trkpt>
      <trkpt lat="47.84875" lon="3.79477">
        <ele>242</ele>
        <time>2019-10-26T10:40:39.000Z</time>
      </trkpt>
      <trkpt lat="47.84875" lon="3.7948">
        <ele>243</ele>
        <time>2019-10-26T10:40:40.000Z</time>
      </trkpt>
      <trkpt lat="47.84874" lon="3.79483">
        <ele>243</ele>
        <time>2019-10-26T10:40:41.000Z</time>
      </trkpt>
      <trkpt lat="47.84873" lon="3.79485">
        <ele>243</ele>
        <time>2019-10-26T10:40:42.000Z</time>
      </trkpt>
      <trkpt lat="47.84872" lon="3.79487">
        <ele>243</ele>
        <time>2019-10-26T10:40:43.000Z</time>
      </trkpt>
      <trkpt lat="47.84871" lon="3.7949">
        <ele>243</ele>
        <time>2019-10-26T10:40:44.000Z</time>
      </trkpt>
      <trkpt lat="47.8487" lon="3.79492">
        <ele>243</ele>
        <time>2019-10-26T10:40:45.000Z</time>
      </trkpt>
      <trkpt lat="47.84869" lon="3.79494">
        <ele>243</ele>
        <time>2019-10-26T10:40:46.000Z</time>
      </trkpt>
      <trkpt lat="47.84868" lon="3.79497">
        <ele>243</ele>
        <time>2019-10-26T10:40:47.000Z</time>
      </trkpt>
      <trkpt lat="47.84868" lon="3.79499">
        <ele>243</ele>
        <time>2019-10-26T10:40:48.000Z</time>
      </trkpt>
      <trkpt lat="47.84867" lon="3.79501">
        <ele>243</ele>
        <time>2019-10-26T10:40:49.000Z</time>
      </trkpt>
      <trkpt lat="47.84866" lon="3.79503">
        <ele>243</ele>
        <time>2019-10-26T10:40:50.000Z</time>
      </trkpt>
      <trkpt lat="47.84865" lon="3.79505">
        <ele>243</ele>
        <time>2019-10-26T10:40:51.000Z</time>
      </trkpt>
      <trkpt lat="47.84864" lon="3.79508">
        <ele>243</ele>
        <time>2019-10-26T10:40:52.000Z</time>
      </trkpt>
      <trkpt lat="47.84863" lon="3.7951">
        <ele>243</ele>
        <time>2019-10-26T10:40:53.000Z</time>
      </trkpt>
      <trkpt lat="47.84863" lon="3.79513">
        <ele>243</ele>
        <time>2019-10-26T10:40:54.000Z</time>
      </trkpt>
      <trkpt lat="47.84862" lon="3.79515">
        <ele>243</ele>
        <time>2019-10-26T10:40:55.000Z</time>
      </trkpt>
      <trkpt lat="47.84861" lon="3.79516">
        <ele>243</ele>
        <time>2019-10-26T10:40:56.000Z</time>
      </trkpt>
      <trkpt lat="47.84861" lon="3.79519">
        <ele>243</ele>
        <time>2019-10-26T10:40:57.000Z</time>
      </trkpt>
      <trkpt lat="47.8486" lon="3.79521">
        <ele>243</ele>
        <time>2019-10-26T10:40:58.000Z</time>
      </trkpt>
      <trkpt lat="47.84859" lon="3.79523">
        <ele>244</ele>
        <time>2019-10-26T10:40:59.000Z</time>
      </trkpt>
      <trkpt lat="47.84859" lon="3.79525">
        <ele>244</ele>
        <time>2019-10-26T10:41:00.000Z</time>
      </trkpt>
      <trkpt lat="47.84858" lon="3.79527">
        <ele>244</ele>
        <time>2019-10-26T10:41:01.000Z</time>
      </trkpt>
      <trkpt lat="47.84857" lon="3.79529">
        <ele>244</ele>
        <time>2019-10-26T10:41:02.000Z</time>
      </trkpt>
      <trkpt lat="47.84857" lon="3.79531">
        <ele>244</ele>
        <time>2019-10-26T10:41:03.000Z</time>
      </trkpt>
      <trkpt lat="47.84856" lon="3.79534">
        <ele>244</ele>
        <time>2019-10-26T10:41:04.000Z</time>
      </trkpt>
      <trkpt lat="47.84855" lon="3.79536">
        <ele>244</ele>
        <time>2019-10-26T10:41:05.000Z</time>
      </trkpt>
      <trkpt lat="47.84854" lon="3.79538">
        <ele>244</ele>
        <time>2019-10-26T10:41:06.000Z</time>
      </trkpt>
      <trkpt lat="47.84853" lon="3.7954">
        <ele>244</ele>
        <time>2019-10-26T10:41:07.000Z</time>
      </trkpt>
      <trkpt lat="47.84853" lon="3.79543">
        <ele>244</ele>
        <time>2019-10-26T10:41:08.000Z</time>
      </trkpt>
      <trkpt lat="47.84852" lon="3.79545">
        <ele>244</ele>
        <time>2019-10-26T10:41:09.000Z</time>
      </trkpt>
      <trkpt lat="47.84852" lon="3.79548">
        <ele>244</ele>
        <time>2019-10-26T10:41:10.000Z</time>
      </trkpt>
      <trkpt lat="47.84851" lon="3.7955">
        <ele>244</ele>
        <time>2019-10-26T10:41:11.000Z</time>
      </trkpt>
      <trkpt lat="47.84851" lon="3.79552">
        <ele>244</ele>
        <time>2019-10-26T10:41:12.000Z</time>
      </trkpt>
      <trkpt lat="47.8485" lon="3.79555">
        <ele>244</ele>
        <time>2019-10-26T10:41:13.000Z</time>
      </trkpt>
      <trkpt lat="47.8485" lon="3.79557">
        <ele>244</ele>
        <time>2019-10-26T10:41:14.000Z</time>
      </trkpt>
      <trkpt lat="47.8485" lon="3.7956">
        <ele>244</ele>
        <time>2019-10-26T10:41:15.000Z</time>
      </trkpt>
      <trkpt lat="47.84849" lon="3.79562">
        <ele>244</ele>
        <time>2019-10-26T10:41:16.000Z</time>
      </trkpt>
      <trkpt lat="47.84849" lon="3.79565">
        <ele>244</ele>
        <time>2019-10-26T10:41:17.000Z</time>
      </trkpt>
      <trkpt lat="47.84848" lon="3.79568">
        <ele>244</ele>
        <time>2019-10-26T10:41:18.000Z</time>
      </trkpt>
      <trkpt lat="47.84848" lon="3.7957">
        <ele>244</ele>
        <time>2019-10-26T10:41:19.000Z</time>
      </trkpt>
      <trkpt lat="47.84847" lon="3.79573">
        <ele>244</ele>
        <time>2019-10-26T10:41:20.000Z</time>
      </trkpt>
      <trkpt lat="47.84846" lon="3.79575">
        <ele>244</ele>
        <time>2019-10-26T10:41:21.000Z</time>
      </trkpt>
      <trkpt lat="47.84846" lon="3.79578">
        <ele>244</ele>
        <time>2019-10-26T10:41:22.000Z</time>
      </trkpt>
      <trkpt lat="47.84845" lon="3.7958">
        <ele>244</ele>
        <time>2019-10-26T10:41:23.000Z</time>
      </trkpt>
      <trkpt lat="47.84845" lon="3.79583">
        <ele>244</ele>
        <time>2019-10-26T10:41:24.000Z</time>
      </trkpt>
      <trkpt lat="47.84844" lon="3.79585">
        <ele>244</ele>
        <time>2019-10-26T10:41:25.000Z</time>
      </trkpt>
      <trkpt lat="47.84843" lon="3.79588">
        <ele>244</ele>
        <time>2019-10-26T10:41:26.000Z</time>
      </trkpt>
      <trkpt lat="47.84842" lon="3.79591">
        <ele>244</ele>
        <time>2019-10-26T10:41:27.000Z</time>
      </trkpt>
      <trkpt lat="47.84842" lon="3.79594">
        <ele>244</ele>
        <time>2019-10-26T10:41:28.000Z</time>
      </trkpt>
      <trkpt lat="47.84842" lon="3.79596">
        <ele>243</ele>
        <time>2019-10-26T10:41:29.000Z</time>
      </trkpt>
      <trkpt lat="47.84842" lon="3.79599">
        <ele>243</ele>
        <time>2019-10-26T10:41:30.000Z</time>
      </trkpt>
      <trkpt lat="47.84841" lon="3.79602">
        <ele>243</ele>
        <time>2019-10-26T10:41:31.000Z</time>
      </trkpt>
      <trkpt lat="47.84841" lon="3.79604">
        <ele>243</ele>
        <time>2019-10-26T10:41:32.000Z</time>
      </trkpt>
      <trkpt lat="47.84841" lon="3.79607">
        <ele>243</ele>
        <time>2019-10-26T10:41:33.000Z</time>
      </trkpt>
      <trkpt lat="47.84841" lon="3.79609">
        <ele>243</ele>
        <time>2019-10-26T10:41:34.000Z</time>
      </trkpt>
      <trkpt lat="47.8484" lon="3.79612">
        <ele>243</ele>
        <time>2019-10-26T10:41:35.000Z</time>
      </trkpt>
      <trkpt lat="47.8484" lon="3.79615">
        <ele>244</ele>
        <time>2019-10-26T10:41:36.000Z</time>
      </trkpt>
      <trkpt lat="47.8484" lon="3.79618">
        <ele>244</ele>
        <time>2019-10-26T10:41:37.000Z</time>
      </trkpt>
      <trkpt lat="47.8484" lon="3.79621">
        <ele>244</ele>
        <time>2019-10-26T10:41:38.000Z</time>
      </trkpt>
      <trkpt lat="47.8484" lon="3.79623">
        <ele>244</ele>
        <time>2019-10-26T10:41:39.000Z</time>
      </trkpt>
      <trkpt lat="47.8484" lon="3.79626">
        <ele>244</ele>
        <time>2019-10-26T10:41:40.000Z</time>
      </trkpt>
      <trkpt lat="47.8484" lon="3.79628">
        <ele>244</ele>
        <time>2019-10-26T10:41:41.000Z</time>
      </trkpt>
      <trkpt lat="47.8484" lon="3.79631">
        <ele>244</ele>
        <time>2019-10-26T10:41:42.000Z</time>
      </trkpt>
      <trkpt lat="47.8484" lon="3.79633">
        <ele>244</ele>
        <time>2019-10-26T10:41:43.000Z</time>
      </trkpt>
      <trkpt lat="47.84841" lon="3.79636">
        <ele>244</ele>
        <time>2019-10-26T10:41:44.000Z</time>
      </trkpt>
      <trkpt lat="47.84841" lon="3.79638">
        <ele>244</ele>
        <time>2019-10-26T10:41:45.000Z</time>
      </trkpt>
      <trkpt lat="47.84841" lon="3.7964">
        <ele>244</ele>
        <time>2019-10-26T10:41:46.000Z</time>
      </trkpt>
      <trkpt lat="47.84841" lon="3.79643">
        <ele>244</ele>
        <time>2019-10-26T10:41:47.000Z</time>
      </trkpt>
      <trkpt lat="47.84841" lon="3.79645">
        <ele>244</ele>
        <time>2019-10-26T10:41:48.000Z</time>
      </trkpt>
      <trkpt lat="47.84842" lon="3.79648">
        <ele>244</ele>
        <time>2019-10-26T10:41:49.000Z</time>
      </trkpt>
      <trkpt lat="47.84842" lon="3.79651">
        <ele>244</ele>
        <time>2019-10-26T10:41:50.000Z</time>
      </trkpt>
      <trkpt lat="47.84842" lon="3.79653">
        <ele>244</ele>
        <time>2019-10-26T10:41:51.000Z</time>
      </trkpt>
      <trkpt lat="47.84842" lon="3.79655">
        <ele>244</ele>
        <time>2019-10-26T10:41:52.000Z</time>
      </trkpt>
      <trkpt lat="47.84842" lon="3.79657">
        <ele>244</ele>
        <time>2019-10-26T10:41:53.000Z</time>
      </trkpt>
      <trkpt lat="47.84843" lon="3.7966">
        <ele>244</ele>
        <time>2019-10-26T10:41:54.000Z</time>
      </trkpt>
      <trkpt lat="47.84843" lon="3.79663">
        <ele>244</ele>
        <time>2019-10-26T10:41:55.000Z</time>
      </trkpt>
      <trkpt lat="47.84843" lon="3.79666">
        <ele>244</ele>
        <time>2019-10-26T10:41:56.000Z</time>
      </trkpt>
      <trkpt lat="47.84843" lon="3.79668">
        <ele>244</ele>
        <time>2019-10-26T10:41:57.000Z</time>
      </trkpt>
      <trkpt lat="47.84843" lon="3.79671">
        <ele>244</ele>
        <time>2019-10-26T10:41:58.000Z</time>
      </trkpt>
      <trkpt lat="47.84843" lon="3.79674">
        <ele>243</ele>
        <time>2019-10-26T10:41:59.000Z</time>
      </trkpt>
      <trkpt lat="47.84843" lon="3.79677">
        <ele>243</ele>
        <time>2019-10-26T10:42:00.000Z</time>
      </trkpt>
      <trkpt lat="47.84843" lon="3.79679">
        <ele>243</ele>
        <time>2019-10-26T10:42:01.000Z</time>
      </trkpt>
      <trkpt lat="47.84844" lon="3.79682">
        <ele>243</ele>
        <time>2019-10-26T10:42:02.000Z</time>
      </trkpt>
      <trkpt lat="47.84844" lon="3.79685">
        <ele>243</ele>
        <time>2019-10-26T10:42:03.000Z</time>
      </trkpt>
      <trkpt lat="47.84844" lon="3.79687">
        <ele>242</ele>
        <time>2019-10-26T10:42:04.000Z</time>
      </trkpt>
      <trkpt lat="47.84845" lon="3.7969">
        <ele>242</ele>
        <time>2019-10-26T10:42:05.000Z</time>
      </trkpt>
      <trkpt lat="47.84846" lon="3.79693">
        <ele>242</ele>
        <time>2019-10-26T10:42:06.000Z</time>
      </trkpt>
      <trkpt lat="47.84846" lon="3.79696">
        <ele>242</ele>
        <time>2019-10-26T10:42:07.000Z</time>
      </trkpt>
      <trkpt lat="47.84847" lon="3.79698">
        <ele>242</ele>
        <time>2019-10-26T10:42:08.000Z</time>
      </trkpt>
      <trkpt lat="47.84847" lon="3.79701">
        <ele>242</ele>
        <time>2019-10-26T10:42:09.000Z</time>
      </trkpt>
      <trkpt lat="47.84848" lon="3.79704">
        <ele>241</ele>
        <time>2019-10-26T10:42:10.000Z</time>
      </trkpt>
      <trkpt lat="47.84849" lon="3.79707">
        <ele>241</ele>
        <time>2019-10-26T10:42:11.000Z</time>
      </trkpt>
      <trkpt lat="47.84849" lon="3.79709">
        <ele>241</ele>
        <time>2019-10-26T10:42:12.000Z</time>
      </trkpt>
      <trkpt lat="47.84849" lon="3.79712">
        <ele>241</ele>
        <time>2019-10-26T10:42:13.000Z</time>
      </trkpt>
      <trkpt lat="47.84849" lon="3.79714">
        <ele>241</ele>
        <time>2019-10-26T10:42:14.000Z</time>
      </trkpt>
      <trkpt lat="47.84849" lon="3.79716">
        <ele>241</ele>
        <time>2019-10-26T10:42:15.000Z</time>
      </trkpt>
      <trkpt lat="47.8485" lon="3.79719">
        <ele>241</ele>
        <time>2019-10-26T10:42:16.000Z</time>
      </trkpt>
      <trkpt lat="47.8485" lon="3.79721">
        <ele>241</ele>
        <time>2019-10-26T10:42:17.000Z</time>
      </trkpt>
      <trkpt lat="47.84851" lon="3.79724">
        <ele>241</ele>
        <time>2019-10-26T10:42:18.000Z</time>
      </trkpt>
      <trkpt lat="47.84851" lon="3.79727">
        <ele>241</ele>
        <time>2019-10-26T10:42:19.000Z</time>
      </trkpt>
      <trkpt lat="47.84851" lon="3.7973">
        <ele>241</ele>
        <time>2019-10-26T10:42:20.000Z</time>
      </trkpt>
      <trkpt lat="47.84851" lon="3.79733">
        <ele>241</ele>
        <time>2019-10-26T10:42:21.000Z</time>
      </trkpt>
      <trkpt lat="47.84851" lon="3.79735">
        <ele>241</ele>
        <time>2019-10-26T10:42:22.000Z</time>
      </trkpt>
      <trkpt lat="47.84851" lon="3.79738">
        <ele>241</ele>
        <time>2019-10-26T10:42:23.000Z</time>
      </trkpt>
      <trkpt lat="47.84852" lon="3.79741">
        <ele>241</ele>
        <time>2019-10-26T10:42:24.000Z</time>
      </trkpt>
      <trkpt lat="47.84852" lon="3.79744">
        <ele>241</ele>
        <time>2019-10-26T10:42:25.000Z</time>
      </trkpt>
      <trkpt lat="47.84852" lon="3.79746">
        <ele>242</ele>
        <time>2019-10-26T10:42:26.000Z</time>
      </trkpt>
      <trkpt lat="47.84852" lon="3.79749">
        <ele>242</ele>
        <time>2019-10-26T10:42:27.000Z</time>
      </trkpt>
      <trkpt lat="47.84853" lon="3.79752">
        <ele>242</ele>
        <time>2019-10-26T10:42:28.000Z</time>
      </trkpt>
      <trkpt lat="47.84853" lon="3.79755">
        <ele>242</ele>
        <time>2019-10-26T10:42:29.000Z</time>
      </trkpt>
      <trkpt lat="47.84853" lon="3.79758">
        <ele>242</ele>
        <time>2019-10-26T10:42:30.000Z</time>
      </trkpt>
      <trkpt lat="47.84853" lon="3.7976">
        <ele>242</ele>
        <time>2019-10-26T10:42:31.000Z</time>
      </trkpt>
      <trkpt lat="47.84853" lon="3.79763">
        <ele>242</ele>
        <time>2019-10-26T10:42:32.000Z</time>
      </trkpt>
      <trkpt lat="47.84853" lon="3.79765">
        <ele>242</ele>
        <time>2019-10-26T10:42:33.000Z</time>
      </trkpt>
      <trkpt lat="47.84853" lon="3.79768">
        <ele>243</ele>
        <time>2019-10-26T10:42:34.000Z</time>
      </trkpt>
      <trkpt lat="47.84853" lon="3.79771">
        <ele>243</ele>
        <time>2019-10-26T10:42:35.000Z</time>
      </trkpt>
      <trkpt lat="47.84853" lon="3.79773">
        <ele>243</ele>
        <time>2019-10-26T10:42:36.000Z</time>
      </trkpt>
      <trkpt lat="47.84854" lon="3.79775">
        <ele>243</ele>
        <time>2019-10-26T10:42:37.000Z</time>
      </trkpt>
      <trkpt lat="47.84854" lon="3.79778">
        <ele>243</ele>
        <time>2019-10-26T10:42:38.000Z</time>
      </trkpt>
      <trkpt lat="47.84854" lon="3.79781">
        <ele>243</ele>
        <time>2019-10-26T10:42:39.000Z</time>
      </trkpt>
      <trkpt lat="47.84854" lon="3.79784">
        <ele>243</ele>
        <time>2019-10-26T10:42:40.000Z</time>
      </trkpt>
      <trkpt lat="47.84855" lon="3.79787">
        <ele>243</ele>
        <time>2019-10-26T10:42:41.000Z</time>
      </trkpt>
      <trkpt lat="47.84855" lon="3.79789">
        <ele>243</ele>
        <time>2019-10-26T10:42:42.000Z</time>
      </trkpt>
      <trkpt lat="47.84855" lon="3.79792">
        <ele>243</ele>
        <time>2019-10-26T10:42:43.000Z</time>
      </trkpt>
      <trkpt lat="47.84855" lon="3.79794">
        <ele>243</ele>
        <time>2019-10-26T10:42:44.000Z</time>
      </trkpt>
      <trkpt lat="47.84855" lon="3.79797">
        <ele>243</ele>
        <time>2019-10-26T10:42:45.000Z</time>
      </trkpt>
      <trkpt lat="47.84855" lon="3.798">
        <ele>243</ele>
        <time>2019-10-26T10:42:46.000Z</time>
      </trkpt>
      <trkpt lat="47.84855" lon="3.79803">
        <ele>243</ele>
        <time>2019-10-26T10:42:47.000Z</time>
      </trkpt>
      <trkpt lat="47.84855" lon="3.79806">
        <ele>243</ele>
        <time>2019-10-26T10:42:48.000Z</time>
      </trkpt>
      <trkpt lat="47.84854" lon="3.79809">
        <ele>243</ele>
        <time>2019-10-26T10:42:49.000Z</time>
      </trkpt>
      <trkpt lat="47.84854" lon="3.79811">
        <ele>243</ele>
        <time>2019-10-26T10:42:50.000Z</time>
      </trkpt>
      <trkpt lat="47.84854" lon="3.79814">
        <ele>243</ele>
        <time>2019-10-26T10:42:51.000Z</time>
      </trkpt>
      <trkpt lat="47.84854" lon="3.79817">
        <ele>243</ele>
        <time>2019-10-26T10:42:52.000Z</time>
      </trkpt>
      <trkpt lat="47.84854" lon="3.79819">
        <ele>243</ele>
        <time>2019-10-26T10:42:53.000Z</time>
      </trkpt>
      <trkpt lat="47.84854" lon="3.79822">
        <ele>242</ele>
        <time>2019-10-26T10:42:54.000Z</time>
      </trkpt>
      <trkpt lat="47.84854" lon="3.79825">
        <ele>242</ele>
        <time>2019-10-26T10:42:55.000Z</time>
      </trkpt>
      <trkpt lat="47.84853" lon="3.79828">
        <ele>242</ele>
        <time>2019-10-26T10:42:56.000Z</time>
      </trkpt>
      <trkpt lat="47.84853" lon="3.7983">
        <ele>242</ele>
        <time>2019-10-26T10:42:57.000Z</time>
      </trkpt>
      <trkpt lat="47.84853" lon="3.79833">
        <ele>242</ele>
        <time>2019-10-26T10:42:58.000Z</time>
      </trkpt>
      <trkpt lat="47.84853" lon="3.79836">
        <ele>242</ele>
        <time>2019-10-26T10:42:59.000Z</time>
      </trkpt>
      <trkpt lat="47.84853" lon="3.79839">
        <ele>242</ele>
        <time>2019-10-26T10:43:00.000Z</time>
      </trkpt>
      <trkpt lat="47.84853" lon="3.79841">
        <ele>242</ele>
        <time>2019-10-26T10:43:01.000Z</time>
      </trkpt>
      <trkpt lat="47.84853" lon="3.79844">
        <ele>242</ele>
        <time>2019-10-26T10:43:02.000Z</time>
      </trkpt>
      <trkpt lat="47.84853" lon="3.79846">
        <ele>242</ele>
        <time>2019-10-26T10:43:03.000Z</time>
      </trkpt>
      <trkpt lat="47.84852" lon="3.79849">
        <ele>242</ele>
        <time>2019-10-26T10:43:04.000Z</time>
      </trkpt>
      <trkpt lat="47.84852" lon="3.79852">
        <ele>242</ele>
        <time>2019-10-26T10:43:05.000Z</time>
      </trkpt>
      <trkpt lat="47.84852" lon="3.79854">
        <ele>242</ele>
        <time>2019-10-26T10:43:06.000Z</time>
      </trkpt>
      <trkpt lat="47.84852" lon="3.79857">
        <ele>242</ele>
        <time>2019-10-26T10:43:07.000Z</time>
      </trkpt>
      <trkpt lat="47.84852" lon="3.7986">
        <ele>242</ele>
        <time>2019-10-26T10:43:08.000Z</time>
      </trkpt>
      <trkpt lat="47.84852" lon="3.79863">
        <ele>242</ele>
        <time>2019-10-26T10:43:09.000Z</time>
      </trkpt>
      <trkpt lat="47.84852" lon="3.79865">
        <ele>242</ele>
        <time>2019-10-26T10:43:10.000Z</time>
      </trkpt>
      <trkpt lat="47.84852" lon="3.79867">
        <ele>242</ele>
        <time>2019-10-26T10:43:11.000Z</time>
      </trkpt>
      <trkpt lat="47.84852" lon="3.7987">
        <ele>242</ele>
        <time>2019-10-26T10:43:12.000Z</time>
      </trkpt>
      <trkpt lat="47.84852" lon="3.79873">
        <ele>242</ele>
        <time>2019-10-26T10:43:13.000Z</time>
      </trkpt>
      <trkpt lat="47.84852" lon="3.79875">
        <ele>242</ele>
        <time>2019-10-26T10:43:14.000Z</time>
      </trkpt>
      <trkpt lat="47.84852" lon="3.79878">
        <ele>242</ele>
        <time>2019-10-26T10:43:15.000Z</time>
      </trkpt>
      <trkpt lat="47.84852" lon="3.79881">
        <ele>241</ele>
        <time>2019-10-26T10:43:16.000Z</time>
      </trkpt>
      <trkpt lat="47.84852" lon="3.79884">
        <ele>242</ele>
        <time>2019-10-26T10:43:17.000Z</time>
      </trkpt>
      <trkpt lat="47.84853" lon="3.79887">
        <ele>242</ele>
        <time>2019-10-26T10:43:18.000Z</time>
      </trkpt>
      <trkpt lat="47.84853" lon="3.79889">
        <ele>242</ele>
        <time>2019-10-26T10:43:19.000Z</time>
      </trkpt>
      <trkpt lat="47.84853" lon="3.79892">
        <ele>242</ele>
        <time>2019-10-26T10:43:20.000Z</time>
      </trkpt>
      <trkpt lat="47.84854" lon="3.79896">
        <ele>242</ele>
        <time>2019-10-26T10:43:21.000Z</time>
      </trkpt>
      <trkpt lat="47.84854" lon="3.79899">
        <ele>242</ele>
        <time>2019-10-26T10:43:22.000Z</time>
      </trkpt>
      <trkpt lat="47.84854" lon="3.79903">
        <ele>242</ele>
        <time>2019-10-26T10:43:23.000Z</time>
      </trkpt>
      <trkpt lat="47.84855" lon="3.79907">
        <ele>242</ele>
        <time>2019-10-26T10:43:24.000Z</time>
      </trkpt>
      <trkpt lat="47.84855" lon="3.7991">
        <ele>242</ele>
        <time>2019-10-26T10:43:25.000Z</time>
      </trkpt>
      <trkpt lat="47.84855" lon="3.79914">
        <ele>242</ele>
        <time>2019-10-26T10:43:26.000Z</time>
      </trkpt>
      <trkpt lat="47.84856" lon="3.79918">
        <ele>242</ele>
        <time>2019-10-26T10:43:27.000Z</time>
      </trkpt>
      <trkpt lat="47.84856" lon="3.79921">
        <ele>242</ele>
        <time>2019-10-26T10:43:28.000Z</time>
      </trkpt>
      <trkpt lat="47.84857" lon="3.79925">
        <ele>242</ele>
        <time>2019-10-26T10:43:29.000Z</time>
      </trkpt>
      <trkpt lat="47.84858" lon="3.79928">
        <ele>243</ele>
        <time>2019-10-26T10:43:30.000Z</time>
      </trkpt>
      <trkpt lat="47.84858" lon="3.79932">
        <ele>243</ele>
        <time>2019-10-26T10:43:31.000Z</time>
      </trkpt>
      <trkpt lat="47.84859" lon="3.79935">
        <ele>243</ele>
        <time>2019-10-26T10:43:32.000Z</time>
      </trkpt>
      <trkpt lat="47.8486" lon="3.79939">
        <ele>243</ele>
        <time>2019-10-26T10:43:33.000Z</time>
      </trkpt>
      <trkpt lat="47.8486" lon="3.79942">
        <ele>243</ele>
        <time>2019-10-26T10:43:34.000Z</time>
      </trkpt>
      <trkpt lat="47.84861" lon="3.79946">
        <ele>243</ele>
        <time>2019-10-26T10:43:35.000Z</time>
      </trkpt>
      <trkpt lat="47.84862" lon="3.79949">
        <ele>243</ele>
        <time>2019-10-26T10:43:36.000Z</time>
      </trkpt>
      <trkpt lat="47.84862" lon="3.79953">
        <ele>243</ele>
        <time>2019-10-26T10:43:37.000Z</time>
      </trkpt>
      <trkpt lat="47.84863" lon="3.79956">
        <ele>243</ele>
        <time>2019-10-26T10:43:38.000Z</time>
      </trkpt>
      <trkpt lat="47.84864" lon="3.7996">
        <ele>243</ele>
        <time>2019-10-26T10:43:39.000Z</time>
      </trkpt>
      <trkpt lat="47.84865" lon="3.79963">
        <ele>243</ele>
        <time>2019-10-26T10:43:40.000Z</time>
      </trkpt>
      <trkpt lat="47.84866" lon="3.79966">
        <ele>243</ele>
        <time>2019-10-26T10:43:41.000Z</time>
      </trkpt>
      <trkpt lat="47.84867" lon="3.79969">
        <ele>243</ele>
        <time>2019-10-26T10:43:42.000Z</time>
      </trkpt>
      <trkpt lat="47.84867" lon="3.79972">
        <ele>243</ele>
        <time>2019-10-26T10:43:43.000Z</time>
      </trkpt>
      <trkpt lat="47.84868" lon="3.79976">
        <ele>243</ele>
        <time>2019-10-26T10:43:44.000Z</time>
      </trkpt>
      <trkpt lat="47.84869" lon="3.79979">
        <ele>243</ele>
        <time>2019-10-26T10:43:45.000Z</time>
      </trkpt>
      <trkpt lat="47.8487" lon="3.79982">
        <ele>243</ele>
        <time>2019-10-26T10:43:46.000Z</time>
      </trkpt>
      <trkpt lat="47.84871" lon="3.79985">
        <ele>243</ele>
        <time>2019-10-26T10:43:47.000Z</time>
      </trkpt>
      <trkpt lat="47.84872" lon="3.79988">
        <ele>244</ele>
        <time>2019-10-26T10:43:48.000Z</time>
      </trkpt>
      <trkpt lat="47.84873" lon="3.79991">
        <ele>244</ele>
        <time>2019-10-26T10:43:49.000Z</time>
      </trkpt>
      <trkpt lat="47.84874" lon="3.79995">
        <ele>244</ele>
        <time>2019-10-26T10:43:50.000Z</time>
      </trkpt>
      <trkpt lat="47.84875" lon="3.79998">
        <ele>244</ele>
        <time>2019-10-26T10:43:51.000Z</time>
      </trkpt>
      <trkpt lat="47.84876" lon="3.80001">
        <ele>244</ele>
        <time>2019-10-26T10:43:52.000Z</time>
      </trkpt>
      <trkpt lat="47.84877" lon="3.80005">
        <ele>244</ele>
        <time>2019-10-26T10:43:53.000Z</time>
      </trkpt>
      <trkpt lat="47.84878" lon="3.80008">
        <ele>244</ele>
        <time>2019-10-26T10:43:54.000Z</time>
      </trkpt>
      <trkpt lat="47.84879" lon="3.80011">
        <ele>244</ele>
        <time>2019-10-26T10:43:55.000Z</time>
      </trkpt>
      <trkpt lat="47.8488" lon="3.80014">
        <ele>244</ele>
        <time>2019-10-26T10:43:56.000Z</time>
      </trkpt>
      <trkpt lat="47.84881" lon="3.80017">
        <ele>244</ele>
        <time>2019-10-26T10:43:57.000Z</time>
      </trkpt>
      <trkpt lat="47.84882" lon="3.8002">
        <ele>244</ele>
        <time>2019-10-26T10:43:58.000Z</time>
      </trkpt>
      <trkpt lat="47.84883" lon="3.80024">
        <ele>244</ele>
        <time>2019-10-26T10:43:59.000Z</time>
      </trkpt>
      <trkpt lat="47.84884" lon="3.80027">
        <ele>244</ele>
        <time>2019-10-26T10:44:00.000Z</time>
      </trkpt>
      <trkpt lat="47.84885" lon="3.8003">
        <ele>244</ele>
        <time>2019-10-26T10:44:01.000Z</time>
      </trkpt>
      <trkpt lat="47.84886" lon="3.80033">
        <ele>244</ele>
        <time>2019-10-26T10:44:02.000Z</time>
      </trkpt>
      <trkpt lat="47.84887" lon="3.80036">
        <ele>244</ele>
        <time>2019-10-26T10:44:03.000Z</time>
      </trkpt>
      <trkpt lat="47.84888" lon="3.80039">
        <ele>245</ele>
        <time>2019-10-26T10:44:04.000Z</time>
      </trkpt>
      <trkpt lat="47.84889" lon="3.80042">
        <ele>245</ele>
        <time>2019-10-26T10:44:05.000Z</time>
      </trkpt>
      <trkpt lat="47.84891" lon="3.80045">
        <ele>245</ele>
        <time>2019-10-26T10:44:06.000Z</time>
      </trkpt>
      <trkpt lat="47.84892" lon="3.80048">
        <ele>245</ele>
        <time>2019-10-26T10:44:07.000Z</time>
      </trkpt>
      <trkpt lat="47.84893" lon="3.80051">
        <ele>245</ele>
        <time>2019-10-26T10:44:08.000Z</time>
      </trkpt>
      <trkpt lat="47.84894" lon="3.80054">
        <ele>245</ele>
        <time>2019-10-26T10:44:09.000Z</time>
      </trkpt>
      <trkpt lat="47.84895" lon="3.80057">
        <ele>245</ele>
        <time>2019-10-26T10:44:10.000Z</time>
      </trkpt>
      <trkpt lat="47.84896" lon="3.8006">
        <ele>245</ele>
        <time>2019-10-26T10:44:11.000Z</time>
      </trkpt>
      <trkpt lat="47.84897" lon="3.80063">
        <ele>245</ele>
        <time>2019-10-26T10:44:12.000Z</time>
      </trkpt>
      <trkpt lat="47.84898" lon="3.80066">
        <ele>245</ele>
        <time>2019-10-26T10:44:13.000Z</time>
      </trkpt>
      <trkpt lat="47.84899" lon="3.80069">
        <ele>245</ele>
        <time>2019-10-26T10:44:14.000Z</time>
      </trkpt>
      <trkpt lat="47.849" lon="3.80072">
        <ele>245</ele>
        <time>2019-10-26T10:44:15.000Z</time>
      </trkpt>
      <trkpt lat="47.84901" lon="3.80075">
        <ele>245</ele>
        <time>2019-10-26T10:44:16.000Z</time>
      </trkpt>
      <trkpt lat="47.84902" lon="3.80078">
        <ele>246</ele>
        <time>2019-10-26T10:44:17.000Z</time>
      </trkpt>
      <trkpt lat="47.84903" lon="3.80081">
        <ele>246</ele>
        <time>2019-10-26T10:44:18.000Z</time>
      </trkpt>
      <trkpt lat="47.84904" lon="3.80084">
        <ele>246</ele>
        <time>2019-10-26T10:44:19.000Z</time>
      </trkpt>
      <trkpt lat="47.84905" lon="3.80087">
        <ele>245</ele>
        <time>2019-10-26T10:44:20.000Z</time>
      </trkpt>
      <trkpt lat="47.84906" lon="3.8009">
        <ele>245</ele>
        <time>2019-10-26T10:44:21.000Z</time>
      </trkpt>
      <trkpt lat="47.84907" lon="3.80093">
        <ele>245</ele>
        <time>2019-10-26T10:44:22.000Z</time>
      </trkpt>
      <trkpt lat="47.84908" lon="3.80096">
        <ele>246</ele>
        <time>2019-10-26T10:44:23.000Z</time>
      </trkpt>
      <trkpt lat="47.8491" lon="3.80099">
        <ele>246</ele>
        <time>2019-10-26T10:44:24.000Z</time>
      </trkpt>
      <trkpt lat="47.84911" lon="3.80102">
        <ele>246</ele>
        <time>2019-10-26T10:44:25.000Z</time>
      </trkpt>
      <trkpt lat="47.84912" lon="3.80106">
        <ele>246</ele>
        <time>2019-10-26T10:44:26.000Z</time>
      </trkpt>
      <trkpt lat="47.84913" lon="3.80108">
        <ele>246</ele>
        <time>2019-10-26T10:44:27.000Z</time>
      </trkpt>
      <trkpt lat="47.84915" lon="3.80111">
        <ele>246</ele>
        <time>2019-10-26T10:44:28.000Z</time>
      </trkpt>
      <trkpt lat="47.84916" lon="3.80115">
        <ele>246</ele>
        <time>2019-10-26T10:44:29.000Z</time>
      </trkpt>
      <trkpt lat="47.84917" lon="3.80118">
        <ele>246</ele>
        <time>2019-10-26T10:44:30.000Z</time>
      </trkpt>
      <trkpt lat="47.84918" lon="3.80121">
        <ele>246</ele>
        <time>2019-10-26T10:44:31.000Z</time>
      </trkpt>
      <trkpt lat="47.84919" lon="3.80124">
        <ele>246</ele>
        <time>2019-10-26T10:44:32.000Z</time>
      </trkpt>
      <trkpt lat="47.8492" lon="3.80127">
        <ele>246</ele>
        <time>2019-10-26T10:44:33.000Z</time>
      </trkpt>
      <trkpt lat="47.84921" lon="3.8013">
        <ele>246</ele>
        <time>2019-10-26T10:44:34.000Z</time>
      </trkpt>
      <trkpt lat="47.84922" lon="3.80133">
        <ele>246</ele>
        <time>2019-10-26T10:44:35.000Z</time>
      </trkpt>
      <trkpt lat="47.84923" lon="3.80136">
        <ele>246</ele>
        <time>2019-10-26T10:44:36.000Z</time>
      </trkpt>
      <trkpt lat="47.84924" lon="3.80139">
        <ele>246</ele>
        <time>2019-10-26T10:44:37.000Z</time>
      </trkpt>
      <trkpt lat="47.84925" lon="3.80142">
        <ele>246</ele>
        <time>2019-10-26T10:44:38.000Z</time>
      </trkpt>
      <trkpt lat="47.84926" lon="3.80145">
        <ele>246</ele>
        <time>2019-10-26T10:44:39.000Z</time>
      </trkpt>
      <trkpt lat="47.84927" lon="3.80148">
        <ele>246</ele>
        <time>2019-10-26T10:44:40.000Z</time>
      </trkpt>
      <trkpt lat="47.84928" lon="3.80151">
        <ele>246</ele>
        <time>2019-10-26T10:44:41.000Z</time>
      </trkpt>
      <trkpt lat="47.84929" lon="3.80154">
        <ele>246</ele>
        <time>2019-10-26T10:44:42.000Z</time>
      </trkpt>
      <trkpt lat="47.8493" lon="3.80157">
        <ele>246</ele>
        <time>2019-10-26T10:44:43.000Z</time>
      </trkpt>
      <trkpt lat="47.84931" lon="3.8016">
        <ele>246</ele>
        <time>2019-10-26T10:44:44.000Z</time>
      </trkpt>
      <trkpt lat="47.84933" lon="3.80163">
        <ele>246</ele>
        <time>2019-10-26T10:44:45.000Z</time>
      </trkpt>
      <trkpt lat="47.84934" lon="3.80165">
        <ele>246</ele>
        <time>2019-10-26T10:44:46.000Z</time>
      </trkpt>
      <trkpt lat="47.84935" lon="3.80169">
        <ele>246</ele>
        <time>2019-10-26T10:44:47.000Z</time>
      </trkpt>
      <trkpt lat="47.84936" lon="3.80172">
        <ele>246</ele>
        <time>2019-10-26T10:44:48.000Z</time>
      </trkpt>
      <trkpt lat="47.84937" lon="3.80175">
        <ele>246</ele>
        <time>2019-10-26T10:44:49.000Z</time>
      </trkpt>
      <trkpt lat="47.84939" lon="3.80178">
        <ele>246</ele>
        <time>2019-10-26T10:44:50.000Z</time>
      </trkpt>
      <trkpt lat="47.8494" lon="3.8018">
        <ele>246</ele>
        <time>2019-10-26T10:44:51.000Z</time>
      </trkpt>
      <trkpt lat="47.84941" lon="3.80184">
        <ele>246</ele>
        <time>2019-10-26T10:44:52.000Z</time>
      </trkpt>
      <trkpt lat="47.84942" lon="3.80186">
        <ele>246</ele>
        <time>2019-10-26T10:44:53.000Z</time>
      </trkpt>
      <trkpt lat="47.84943" lon="3.8019">
        <ele>246</ele>
        <time>2019-10-26T10:44:54.000Z</time>
      </trkpt>
      <trkpt lat="47.84944" lon="3.80192">
        <ele>246</ele>
        <time>2019-10-26T10:44:55.000Z</time>
      </trkpt>
      <trkpt lat="47.84945" lon="3.80196">
        <ele>246</ele>
        <time>2019-10-26T10:44:56.000Z</time>
      </trkpt>
      <trkpt lat="47.84946" lon="3.80199">
        <ele>246</ele>
        <time>2019-10-26T10:44:57.000Z</time>
      </trkpt>
      <trkpt lat="47.84946" lon="3.80202">
        <ele>246</ele>
        <time>2019-10-26T10:44:58.000Z</time>
      </trkpt>
      <trkpt lat="47.84947" lon="3.80205">
        <ele>247</ele>
        <time>2019-10-26T10:44:59.000Z</time>
      </trkpt>
      <trkpt lat="47.84948" lon="3.80208">
        <ele>247</ele>
        <time>2019-10-26T10:45:00.000Z</time>
      </trkpt>
      <trkpt lat="47.84949" lon="3.80211">
        <ele>247</ele>
        <time>2019-10-26T10:45:01.000Z</time>
      </trkpt>
      <trkpt lat="47.84949" lon="3.80215">
        <ele>247</ele>
        <time>2019-10-26T10:45:02.000Z</time>
      </trkpt>
      <trkpt lat="47.8495" lon="3.80218">
        <ele>247</ele>
        <time>2019-10-26T10:45:03.000Z</time>
      </trkpt>
      <trkpt lat="47.8495" lon="3.80222">
        <ele>247</ele>
        <time>2019-10-26T10:45:04.000Z</time>
      </trkpt>
      <trkpt lat="47.84951" lon="3.80225">
        <ele>247</ele>
        <time>2019-10-26T10:45:05.000Z</time>
      </trkpt>
      <trkpt lat="47.84951" lon="3.80228">
        <ele>247</ele>
        <time>2019-10-26T10:45:06.000Z</time>
      </trkpt>
      <trkpt lat="47.84951" lon="3.80231">
        <ele>247</ele>
        <time>2019-10-26T10:45:07.000Z</time>
      </trkpt>
      <trkpt lat="47.84951" lon="3.80234">
        <ele>247</ele>
        <time>2019-10-26T10:45:08.000Z</time>
      </trkpt>
      <trkpt lat="47.8495" lon="3.80237">
        <ele>248</ele>
        <time>2019-10-26T10:45:09.000Z</time>
      </trkpt>
      <trkpt lat="47.8495" lon="3.80241">
        <ele>248</ele>
        <time>2019-10-26T10:45:10.000Z</time>
      </trkpt>
      <trkpt lat="47.8495" lon="3.80244">
        <ele>248</ele>
        <time>2019-10-26T10:45:11.000Z</time>
      </trkpt>
      <trkpt lat="47.8495" lon="3.80247">
        <ele>248</ele>
        <time>2019-10-26T10:45:12.000Z</time>
      </trkpt>
      <trkpt lat="47.84949" lon="3.8025">
        <ele>248</ele>
        <time>2019-10-26T10:45:13.000Z</time>
      </trkpt>
      <trkpt lat="47.84949" lon="3.80253">
        <ele>248</ele>
        <time>2019-10-26T10:45:14.000Z</time>
      </trkpt>
      <trkpt lat="47.84948" lon="3.80257">
        <ele>248</ele>
        <time>2019-10-26T10:45:15.000Z</time>
      </trkpt>
      <trkpt lat="47.84948" lon="3.8026">
        <ele>249</ele>
        <time>2019-10-26T10:45:16.000Z</time>
      </trkpt>
      <trkpt lat="47.84947" lon="3.80263">
        <ele>249</ele>
        <time>2019-10-26T10:45:17.000Z</time>
      </trkpt>
      <trkpt lat="47.84946" lon="3.80266">
        <ele>249</ele>
        <time>2019-10-26T10:45:18.000Z</time>
      </trkpt>
      <trkpt lat="47.84946" lon="3.8027">
        <ele>249</ele>
        <time>2019-10-26T10:45:19.000Z</time>
      </trkpt>
      <trkpt lat="47.84945" lon="3.80273">
        <ele>249</ele>
        <time>2019-10-26T10:45:20.000Z</time>
      </trkpt>
      <trkpt lat="47.84944" lon="3.80276">
        <ele>249</ele>
        <time>2019-10-26T10:45:21.000Z</time>
      </trkpt>
      <trkpt lat="47.84944" lon="3.80279">
        <ele>250</ele>
        <time>2019-10-26T10:45:22.000Z</time>
      </trkpt>
      <trkpt lat="47.84943" lon="3.80283">
        <ele>250</ele>
        <time>2019-10-26T10:45:23.000Z</time>
      </trkpt>
      <trkpt lat="47.84942" lon="3.80286">
        <ele>250</ele>
        <time>2019-10-26T10:45:24.000Z</time>
      </trkpt>
      <trkpt lat="47.84941" lon="3.80289">
        <ele>250</ele>
        <time>2019-10-26T10:45:25.000Z</time>
      </trkpt>
      <trkpt lat="47.84941" lon="3.80292">
        <ele>250</ele>
        <time>2019-10-26T10:45:26.000Z</time>
      </trkpt>
      <trkpt lat="47.8494" lon="3.80295">
        <ele>250</ele>
        <time>2019-10-26T10:45:27.000Z</time>
      </trkpt>
      <trkpt lat="47.8494" lon="3.80298">
        <ele>250</ele>
        <time>2019-10-26T10:45:28.000Z</time>
      </trkpt>
      <trkpt lat="47.84939" lon="3.80301">
        <ele>250</ele>
        <time>2019-10-26T10:45:29.000Z</time>
      </trkpt>
      <trkpt lat="47.84938" lon="3.80304">
        <ele>250</ele>
        <time>2019-10-26T10:45:30.000Z</time>
      </trkpt>
      <trkpt lat="47.84938" lon="3.80307">
        <ele>250</ele>
        <time>2019-10-26T10:45:31.000Z</time>
      </trkpt>
      <trkpt lat="47.84937" lon="3.8031">
        <ele>250</ele>
        <time>2019-10-26T10:45:32.000Z</time>
      </trkpt>
      <trkpt lat="47.84936" lon="3.80312">
        <ele>250</ele>
        <time>2019-10-26T10:45:33.000Z</time>
      </trkpt>
      <trkpt lat="47.84936" lon="3.80314">
        <ele>250</ele>
        <time>2019-10-26T10:45:34.000Z</time>
      </trkpt>
      <trkpt lat="47.84935" lon="3.80317">
        <ele>250</ele>
        <time>2019-10-26T10:45:35.000Z</time>
      </trkpt>
      <trkpt lat="47.84934" lon="3.80319">
        <ele>251</ele>
        <time>2019-10-26T10:45:36.000Z</time>
      </trkpt>
      <trkpt lat="47.84934" lon="3.80322">
        <ele>250</ele>
        <time>2019-10-26T10:45:37.000Z</time>
      </trkpt>
      <trkpt lat="47.84933" lon="3.80324">
        <ele>250</ele>
        <time>2019-10-26T10:45:38.000Z</time>
      </trkpt>
      <trkpt lat="47.84932" lon="3.80327">
        <ele>250</ele>
        <time>2019-10-26T10:45:39.000Z</time>
      </trkpt>
      <trkpt lat="47.84931" lon="3.80329">
        <ele>250</ele>
        <time>2019-10-26T10:45:40.000Z</time>
      </trkpt>
      <trkpt lat="47.84931" lon="3.80331">
        <ele>250</ele>
        <time>2019-10-26T10:45:41.000Z</time>
      </trkpt>
      <trkpt lat="47.8493" lon="3.80334">
        <ele>250</ele>
        <time>2019-10-26T10:45:42.000Z</time>
      </trkpt>
      <trkpt lat="47.84929" lon="3.80337">
        <ele>250</ele>
        <time>2019-10-26T10:45:43.000Z</time>
      </trkpt>
      <trkpt lat="47.84928" lon="3.80339">
        <ele>250</ele>
        <time>2019-10-26T10:45:44.000Z</time>
      </trkpt>
      <trkpt lat="47.84927" lon="3.80342">
        <ele>250</ele>
        <time>2019-10-26T10:45:45.000Z</time>
      </trkpt>
      <trkpt lat="47.84926" lon="3.80344">
        <ele>250</ele>
        <time>2019-10-26T10:45:46.000Z</time>
      </trkpt>
      <trkpt lat="47.84925" lon="3.80347">
        <ele>250</ele>
        <time>2019-10-26T10:45:47.000Z</time>
      </trkpt>
      <trkpt lat="47.84924" lon="3.8035">
        <ele>250</ele>
        <time>2019-10-26T10:45:48.000Z</time>
      </trkpt>
      <trkpt lat="47.84923" lon="3.80352">
        <ele>250</ele>
        <time>2019-10-26T10:45:49.000Z</time>
      </trkpt>
      <trkpt lat="47.84922" lon="3.80355">
        <ele>250</ele>
        <time>2019-10-26T10:45:50.000Z</time>
      </trkpt>
      <trkpt lat="47.84921" lon="3.80358">
        <ele>250</ele>
        <time>2019-10-26T10:45:51.000Z</time>
      </trkpt>
      <trkpt lat="47.8492" lon="3.80361">
        <ele>250</ele>
        <time>2019-10-26T10:45:52.000Z</time>
      </trkpt>
      <trkpt lat="47.84919" lon="3.80364">
        <ele>250</ele>
        <time>2019-10-26T10:45:53.000Z</time>
      </trkpt>
      <trkpt lat="47.84918" lon="3.80367">
        <ele>250</ele>
        <time>2019-10-26T10:45:54.000Z</time>
      </trkpt>
      <trkpt lat="47.84917" lon="3.80371">
        <ele>250</ele>
        <time>2019-10-26T10:45:55.000Z</time>
      </trkpt>
      <trkpt lat="47.84915" lon="3.80374">
        <ele>250</ele>
        <time>2019-10-26T10:45:56.000Z</time>
      </trkpt>
      <trkpt lat="47.84914" lon="3.80377">
        <ele>250</ele>
        <time>2019-10-26T10:45:57.000Z</time>
      </trkpt>
      <trkpt lat="47.84913" lon="3.8038">
        <ele>250</ele>
        <time>2019-10-26T10:45:58.000Z</time>
      </trkpt>
      <trkpt lat="47.84912" lon="3.80383">
        <ele>249</ele>
        <time>2019-10-26T10:45:59.000Z</time>
      </trkpt>
      <trkpt lat="47.84911" lon="3.80386">
        <ele>249</ele>
        <time>2019-10-26T10:46:00.000Z</time>
      </trkpt>
      <trkpt lat="47.8491" lon="3.80389">
        <ele>249</ele>
        <time>2019-10-26T10:46:01.000Z</time>
      </trkpt>
      <trkpt lat="47.84909" lon="3.80392">
        <ele>249</ele>
        <time>2019-10-26T10:46:02.000Z</time>
      </trkpt>
      <trkpt lat="47.84908" lon="3.80395">
        <ele>249</ele>
        <time>2019-10-26T10:46:03.000Z</time>
      </trkpt>
      <trkpt lat="47.84907" lon="3.80398">
        <ele>249</ele>
        <time>2019-10-26T10:46:04.000Z</time>
      </trkpt>
      <trkpt lat="47.84906" lon="3.80401">
        <ele>249</ele>
        <time>2019-10-26T10:46:05.000Z</time>
      </trkpt>
      <trkpt lat="47.84905" lon="3.80404">
        <ele>249</ele>
        <time>2019-10-26T10:46:06.000Z</time>
      </trkpt>
      <trkpt lat="47.84904" lon="3.80407">
        <ele>249</ele>
        <time>2019-10-26T10:46:07.000Z</time>
      </trkpt>
      <trkpt lat="47.84903" lon="3.80411">
        <ele>249</ele>
        <time>2019-10-26T10:46:08.000Z</time>
      </trkpt>
      <trkpt lat="47.84902" lon="3.80414">
        <ele>249</ele>
        <time>2019-10-26T10:46:09.000Z</time>
      </trkpt>
      <trkpt lat="47.84901" lon="3.80417">
        <ele>248</ele>
        <time>2019-10-26T10:46:10.000Z</time>
      </trkpt>
      <trkpt lat="47.84901" lon="3.8042">
        <ele>248</ele>
        <time>2019-10-26T10:46:11.000Z</time>
      </trkpt>
      <trkpt lat="47.849" lon="3.80423">
        <ele>248</ele>
        <time>2019-10-26T10:46:12.000Z</time>
      </trkpt>
      <trkpt lat="47.84899" lon="3.80426">
        <ele>248</ele>
        <time>2019-10-26T10:46:13.000Z</time>
      </trkpt>
      <trkpt lat="47.84897" lon="3.8043">
        <ele>248</ele>
        <time>2019-10-26T10:46:14.000Z</time>
      </trkpt>
      <trkpt lat="47.84896" lon="3.80433">
        <ele>248</ele>
        <time>2019-10-26T10:46:15.000Z</time>
      </trkpt>
      <trkpt lat="47.84895" lon="3.80436">
        <ele>248</ele>
        <time>2019-10-26T10:46:16.000Z</time>
      </trkpt>
      <trkpt lat="47.84894" lon="3.80439">
        <ele>248</ele>
        <time>2019-10-26T10:46:17.000Z</time>
      </trkpt>
      <trkpt lat="47.84893" lon="3.80443">
        <ele>248</ele>
        <time>2019-10-26T10:46:18.000Z</time>
      </trkpt>
      <trkpt lat="47.84892" lon="3.80446">
        <ele>248</ele>
        <time>2019-10-26T10:46:19.000Z</time>
      </trkpt>
      <trkpt lat="47.84892" lon="3.80449">
        <ele>248</ele>
        <time>2019-10-26T10:46:20.000Z</time>
      </trkpt>
      <trkpt lat="47.84891" lon="3.80452">
        <ele>248</ele>
        <time>2019-10-26T10:46:21.000Z</time>
      </trkpt>
      <trkpt lat="47.84891" lon="3.80456">
        <ele>247</ele>
        <time>2019-10-26T10:46:22.000Z</time>
      </trkpt>
      <trkpt lat="47.8489" lon="3.80459">
        <ele>247</ele>
        <time>2019-10-26T10:46:23.000Z</time>
      </trkpt>
      <trkpt lat="47.84889" lon="3.80463">
        <ele>247</ele>
        <time>2019-10-26T10:46:24.000Z</time>
      </trkpt>
      <trkpt lat="47.84887" lon="3.80466">
        <ele>247</ele>
        <time>2019-10-26T10:46:25.000Z</time>
      </trkpt>
      <trkpt lat="47.84886" lon="3.80469">
        <ele>247</ele>
        <time>2019-10-26T10:46:26.000Z</time>
      </trkpt>
      <trkpt lat="47.84885" lon="3.80473">
        <ele>247</ele>
        <time>2019-10-26T10:46:27.000Z</time>
      </trkpt>
      <trkpt lat="47.84884" lon="3.80476">
        <ele>247</ele>
        <time>2019-10-26T10:46:28.000Z</time>
      </trkpt>
      <trkpt lat="47.84883" lon="3.80479">
        <ele>246</ele>
        <time>2019-10-26T10:46:29.000Z</time>
      </trkpt>
      <trkpt lat="47.84882" lon="3.80482">
        <ele>246</ele>
        <time>2019-10-26T10:46:30.000Z</time>
      </trkpt>
      <trkpt lat="47.84881" lon="3.80485">
        <ele>246</ele>
        <time>2019-10-26T10:46:31.000Z</time>
      </trkpt>
      <trkpt lat="47.8488" lon="3.80488">
        <ele>246</ele>
        <time>2019-10-26T10:46:32.000Z</time>
      </trkpt>
      <trkpt lat="47.84879" lon="3.80491">
        <ele>246</ele>
        <time>2019-10-26T10:46:33.000Z</time>
      </trkpt>
      <trkpt lat="47.84877" lon="3.80495">
        <ele>246</ele>
        <time>2019-10-26T10:46:34.000Z</time>
      </trkpt>
      <trkpt lat="47.84876" lon="3.80498">
        <ele>246</ele>
        <time>2019-10-26T10:46:35.000Z</time>
      </trkpt>
      <trkpt lat="47.84875" lon="3.80501">
        <ele>246</ele>
        <time>2019-10-26T10:46:36.000Z</time>
      </trkpt>
      <trkpt lat="47.84874" lon="3.80504">
        <ele>246</ele>
        <time>2019-10-26T10:46:37.000Z</time>
      </trkpt>
      <trkpt lat="47.84873" lon="3.80507">
        <ele>246</ele>
        <time>2019-10-26T10:46:38.000Z</time>
      </trkpt>
      <trkpt lat="47.84871" lon="3.8051">
        <ele>246</ele>
        <time>2019-10-26T10:46:39.000Z</time>
      </trkpt>
      <trkpt lat="47.8487" lon="3.80513">
        <ele>246</ele>
        <time>2019-10-26T10:46:40.000Z</time>
      </trkpt>
      <trkpt lat="47.84868" lon="3.80516">
        <ele>245</ele>
        <time>2019-10-26T10:46:41.000Z</time>
      </trkpt>
      <trkpt lat="47.84867" lon="3.80518">
        <ele>245</ele>
        <time>2019-10-26T10:46:42.000Z</time>
      </trkpt>
      <trkpt lat="47.84865" lon="3.80521">
        <ele>245</ele>
        <time>2019-10-26T10:46:43.000Z</time>
      </trkpt>
      <trkpt lat="47.84863" lon="3.80523">
        <ele>245</ele>
        <time>2019-10-26T10:46:44.000Z</time>
      </trkpt>
      <trkpt lat="47.84861" lon="3.80525">
        <ele>245</ele>
        <time>2019-10-26T10:46:45.000Z</time>
      </trkpt>
      <trkpt lat="47.84859" lon="3.80526">
        <ele>244</ele>
        <time>2019-10-26T10:46:46.000Z</time>
      </trkpt>
      <trkpt lat="47.84856" lon="3.80527">
        <ele>244</ele>
        <time>2019-10-26T10:46:47.000Z</time>
      </trkpt>
      <trkpt lat="47.84855" lon="3.80528">
        <ele>244</ele>
        <time>2019-10-26T10:46:48.000Z</time>
      </trkpt>
      <trkpt lat="47.84853" lon="3.80528">
        <ele>244</ele>
        <time>2019-10-26T10:46:49.000Z</time>
      </trkpt>
      <trkpt lat="47.84853" lon="3.80528">
        <ele>244</ele>
        <time>2019-10-26T10:46:50.000Z</time>
      </trkpt>
      <trkpt lat="47.84853" lon="3.80528">
        <ele>243</ele>
        <time>2019-10-26T10:46:51.000Z</time>
      </trkpt>
      <trkpt lat="47.84853" lon="3.80528">
        <ele>243</ele>
        <time>2019-10-26T10:46:52.000Z</time>
      </trkpt>
      <trkpt lat="47.84853" lon="3.80528">
        <ele>243</ele>
        <time>2019-10-26T10:46:53.000Z</time>
      </trkpt>
      <trkpt lat="47.84853" lon="3.80528">
        <ele>243</ele>
        <time>2019-10-26T10:46:54.000Z</time>
      </trkpt>
      <trkpt lat="47.84853" lon="3.80529">
        <ele>243</ele>
        <time>2019-10-26T10:46:55.000Z</time>
      </trkpt>
      <trkpt lat="47.84853" lon="3.80531">
        <ele>243</ele>
        <time>2019-10-26T10:46:56.000Z</time>
      </trkpt>
      <trkpt lat="47.84853" lon="3.80533">
        <ele>243</ele>
        <time>2019-10-26T10:46:57.000Z</time>
      </trkpt>
      <trkpt lat="47.84852" lon="3.80535">
        <ele>243</ele>
        <time>2019-10-26T10:46:58.000Z</time>
      </trkpt>
      <trkpt lat="47.84851" lon="3.80538">
        <ele>243</ele>
        <time>2019-10-26T10:46:59.000Z</time>
      </trkpt>
      <trkpt lat="47.8485" lon="3.80541">
        <ele>243</ele>
        <time>2019-10-26T10:47:00.000Z</time>
      </trkpt>
      <trkpt lat="47.84848" lon="3.80544">
        <ele>243</ele>
        <time>2019-10-26T10:47:01.000Z</time>
      </trkpt>
      <trkpt lat="47.84846" lon="3.80546">
        <ele>242</ele>
        <time>2019-10-26T10:47:02.000Z</time>
      </trkpt>
      <trkpt lat="47.84844" lon="3.80549">
        <ele>242</ele>
        <time>2019-10-26T10:47:03.000Z</time>
      </trkpt>
      <trkpt lat="47.84841" lon="3.80551">
        <ele>242</ele>
        <time>2019-10-26T10:47:04.000Z</time>
      </trkpt>
      <trkpt lat="47.84839" lon="3.80555">
        <ele>242</ele>
        <time>2019-10-26T10:47:05.000Z</time>
      </trkpt>
      <trkpt lat="47.84837" lon="3.80558">
        <ele>242</ele>
        <time>2019-10-26T10:47:06.000Z</time>
      </trkpt>
      <trkpt lat="47.84835" lon="3.8056">
        <ele>241</ele>
        <time>2019-10-26T10:47:07.000Z</time>
      </trkpt>
      <trkpt lat="47.84832" lon="3.80563">
        <ele>241</ele>
        <time>2019-10-26T10:47:08.000Z</time>
      </trkpt>
      <trkpt lat="47.8483" lon="3.80566">
        <ele>241</ele>
        <time>2019-10-26T10:47:09.000Z</time>
      </trkpt>
      <trkpt lat="47.84828" lon="3.80569">
        <ele>241</ele>
        <time>2019-10-26T10:47:10.000Z</time>
      </trkpt>
      <trkpt lat="47.84825" lon="3.80571">
        <ele>240</ele>
        <time>2019-10-26T10:47:11.000Z</time>
      </trkpt>
      <trkpt lat="47.84823" lon="3.80574">
        <ele>240</ele>
        <time>2019-10-26T10:47:12.000Z</time>
      </trkpt>
      <trkpt lat="47.8482" lon="3.80576">
        <ele>240</ele>
        <time>2019-10-26T10:47:13.000Z</time>
      </trkpt>
      <trkpt lat="47.84818" lon="3.80578">
        <ele>239</ele>
        <time>2019-10-26T10:47:14.000Z</time>
      </trkpt>
      <trkpt lat="47.84815" lon="3.8058">
        <ele>239</ele>
        <time>2019-10-26T10:47:15.000Z</time>
      </trkpt>
      <trkpt lat="47.84813" lon="3.80582">
        <ele>239</ele>
        <time>2019-10-26T10:47:16.000Z</time>
      </trkpt>
      <trkpt lat="47.8481" lon="3.80583">
        <ele>238</ele>
        <time>2019-10-26T10:47:17.000Z</time>
      </trkpt>
      <trkpt lat="47.84807" lon="3.80584">
        <ele>238</ele>
        <time>2019-10-26T10:47:18.000Z</time>
      </trkpt>
      <trkpt lat="47.84804" lon="3.80585">
        <ele>237</ele>
        <time>2019-10-26T10:47:19.000Z</time>
      </trkpt>
      <trkpt lat="47.84801" lon="3.80586">
        <ele>237</ele>
        <time>2019-10-26T10:47:20.000Z</time>
      </trkpt>
      <trkpt lat="47.84798" lon="3.80586">
        <ele>237</ele>
        <time>2019-10-26T10:47:21.000Z</time>
      </trkpt>
      <trkpt lat="47.84795" lon="3.80586">
        <ele>236</ele>
        <time>2019-10-26T10:47:22.000Z</time>
      </trkpt>
      <trkpt lat="47.84793" lon="3.80586">
        <ele>236</ele>
        <time>2019-10-26T10:47:23.000Z</time>
      </trkpt>
      <trkpt lat="47.8479" lon="3.80586">
        <ele>236</ele>
        <time>2019-10-26T10:47:24.000Z</time>
      </trkpt>
      <trkpt lat="47.84787" lon="3.80586">
        <ele>236</ele>
        <time>2019-10-26T10:47:25.000Z</time>
      </trkpt>
      <trkpt lat="47.84785" lon="3.80585">
        <ele>235</ele>
        <time>2019-10-26T10:47:26.000Z</time>
      </trkpt>
      <trkpt lat="47.84782" lon="3.80584">
        <ele>235</ele>
        <time>2019-10-26T10:47:27.000Z</time>
      </trkpt>
      <trkpt lat="47.84779" lon="3.80583">
        <ele>235</ele>
        <time>2019-10-26T10:47:28.000Z</time>
      </trkpt>
      <trkpt lat="47.84776" lon="3.80582">
        <ele>234</ele>
        <time>2019-10-26T10:47:29.000Z</time>
      </trkpt>
      <trkpt lat="47.84774" lon="3.8058">
        <ele>234</ele>
        <time>2019-10-26T10:47:30.000Z</time>
      </trkpt>
      <trkpt lat="47.84772" lon="3.80578">
        <ele>234</ele>
        <time>2019-10-26T10:47:31.000Z</time>
      </trkpt>
      <trkpt lat="47.84769" lon="3.80577">
        <ele>233</ele>
        <time>2019-10-26T10:47:32.000Z</time>
      </trkpt>
      <trkpt lat="47.84767" lon="3.80575">
        <ele>233</ele>
        <time>2019-10-26T10:47:33.000Z</time>
      </trkpt>
      <trkpt lat="47.84765" lon="3.80572">
        <ele>233</ele>
        <time>2019-10-26T10:47:34.000Z</time>
      </trkpt>
      <trkpt lat="47.84763" lon="3.8057">
        <ele>233</ele>
        <time>2019-10-26T10:47:35.000Z</time>
      </trkpt>
      <trkpt lat="47.84761" lon="3.80567">
        <ele>232</ele>
        <time>2019-10-26T10:47:36.000Z</time>
      </trkpt>
      <trkpt lat="47.84759" lon="3.80564">
        <ele>232</ele>
        <time>2019-10-26T10:47:37.000Z</time>
      </trkpt>
      <trkpt lat="47.84757" lon="3.80561">
        <ele>232</ele>
        <time>2019-10-26T10:47:38.000Z</time>
      </trkpt>
      <trkpt lat="47.84755" lon="3.80559">
        <ele>232</ele>
        <time>2019-10-26T10:47:39.000Z</time>
      </trkpt>
      <trkpt lat="47.84753" lon="3.80556">
        <ele>232</ele>
        <time>2019-10-26T10:47:40.000Z</time>
      </trkpt>
      <trkpt lat="47.84752" lon="3.80553">
        <ele>231</ele>
        <time>2019-10-26T10:47:41.000Z</time>
      </trkpt>
      <trkpt lat="47.8475" lon="3.8055">
        <ele>231</ele>
        <time>2019-10-26T10:47:42.000Z</time>
      </trkpt>
      <trkpt lat="47.84748" lon="3.80547">
        <ele>231</ele>
        <time>2019-10-26T10:47:43.000Z</time>
      </trkpt>
      <trkpt lat="47.84747" lon="3.80545">
        <ele>231</ele>
        <time>2019-10-26T10:47:44.000Z</time>
      </trkpt>
      <trkpt lat="47.84745" lon="3.80542">
        <ele>230</ele>
        <time>2019-10-26T10:47:45.000Z</time>
      </trkpt>
      <trkpt lat="47.84743" lon="3.8054">
        <ele>230</ele>
        <time>2019-10-26T10:47:46.000Z</time>
      </trkpt>
      <trkpt lat="47.84742" lon="3.80537">
        <ele>230</ele>
        <time>2019-10-26T10:47:47.000Z</time>
      </trkpt>
      <trkpt lat="47.8474" lon="3.80534">
        <ele>230</ele>
        <time>2019-10-26T10:47:48.000Z</time>
      </trkpt>
      <trkpt lat="47.84738" lon="3.80531">
        <ele>230</ele>
        <time>2019-10-26T10:47:49.000Z</time>
      </trkpt>
      <trkpt lat="47.84736" lon="3.80528">
        <ele>230</ele>
        <time>2019-10-26T10:47:50.000Z</time>
      </trkpt>
      <trkpt lat="47.84735" lon="3.80525">
        <ele>229</ele>
        <time>2019-10-26T10:47:51.000Z</time>
      </trkpt>
      <trkpt lat="47.84733" lon="3.80522">
        <ele>229</ele>
        <time>2019-10-26T10:47:52.000Z</time>
      </trkpt>
      <trkpt lat="47.84731" lon="3.80519">
        <ele>229</ele>
        <time>2019-10-26T10:47:53.000Z</time>
      </trkpt>
      <trkpt lat="47.84729" lon="3.80517">
        <ele>229</ele>
        <time>2019-10-26T10:47:54.000Z</time>
      </trkpt>
      <trkpt lat="47.84728" lon="3.80514">
        <ele>228</ele>
        <time>2019-10-26T10:47:55.000Z</time>
      </trkpt>
      <trkpt lat="47.84726" lon="3.80511">
        <ele>228</ele>
        <time>2019-10-26T10:47:56.000Z</time>
      </trkpt>
      <trkpt lat="47.84724" lon="3.80508">
        <ele>228</ele>
        <time>2019-10-26T10:47:57.000Z</time>
      </trkpt>
      <trkpt lat="47.84723" lon="3.80505">
        <ele>228</ele>
        <time>2019-10-26T10:47:58.000Z</time>
      </trkpt>
      <trkpt lat="47.84721" lon="3.80502">
        <ele>227</ele>
        <time>2019-10-26T10:47:59.000Z</time>
      </trkpt>
      <trkpt lat="47.84719" lon="3.80499">
        <ele>227</ele>
        <time>2019-10-26T10:48:00.000Z</time>
      </trkpt>
      <trkpt lat="47.84717" lon="3.80496">
        <ele>227</ele>
        <time>2019-10-26T10:48:01.000Z</time>
      </trkpt>
      <trkpt lat="47.84716" lon="3.80494">
        <ele>226</ele>
        <time>2019-10-26T10:48:02.000Z</time>
      </trkpt>
      <trkpt lat="47.84714" lon="3.80491">
        <ele>226</ele>
        <time>2019-10-26T10:48:03.000Z</time>
      </trkpt>
      <trkpt lat="47.84712" lon="3.80488">
        <ele>226</ele>
        <time>2019-10-26T10:48:04.000Z</time>
      </trkpt>
      <trkpt lat="47.8471" lon="3.80485">
        <ele>225</ele>
        <time>2019-10-26T10:48:05.000Z</time>
      </trkpt>
      <trkpt lat="47.84708" lon="3.80482">
        <ele>225</ele>
        <time>2019-10-26T10:48:06.000Z</time>
      </trkpt>
      <trkpt lat="47.84707" lon="3.80479">
        <ele>225</ele>
        <time>2019-10-26T10:48:07.000Z</time>
      </trkpt>
      <trkpt lat="47.84705" lon="3.80476">
        <ele>224</ele>
        <time>2019-10-26T10:48:08.000Z</time>
      </trkpt>
      <trkpt lat="47.84703" lon="3.80472">
        <ele>224</ele>
        <time>2019-10-26T10:48:09.000Z</time>
      </trkpt>
      <trkpt lat="47.84701" lon="3.80469">
        <ele>223</ele>
        <time>2019-10-26T10:48:10.000Z</time>
      </trkpt>
      <trkpt lat="47.847" lon="3.80466">
        <ele>223</ele>
        <time>2019-10-26T10:48:11.000Z</time>
      </trkpt>
      <trkpt lat="47.84698" lon="3.80463">
        <ele>222</ele>
        <time>2019-10-26T10:48:12.000Z</time>
      </trkpt>
      <trkpt lat="47.84696" lon="3.80461">
        <ele>222</ele>
        <time>2019-10-26T10:48:13.000Z</time>
      </trkpt>
      <trkpt lat="47.84694" lon="3.80458">
        <ele>221</ele>
        <time>2019-10-26T10:48:14.000Z</time>
      </trkpt>
      <trkpt lat="47.84692" lon="3.80455">
        <ele>221</ele>
        <time>2019-10-26T10:48:15.000Z</time>
      </trkpt>
      <trkpt lat="47.84691" lon="3.80452">
        <ele>220</ele>
        <time>2019-10-26T10:48:16.000Z</time>
      </trkpt>
      <trkpt lat="47.84689" lon="3.80449">
        <ele>220</ele>
        <time>2019-10-26T10:48:17.000Z</time>
      </trkpt>
      <trkpt lat="47.84687" lon="3.80446">
        <ele>219</ele>
        <time>2019-10-26T10:48:18.000Z</time>
      </trkpt>
      <trkpt lat="47.84685" lon="3.80443">
        <ele>218</ele>
        <time>2019-10-26T10:48:19.000Z</time>
      </trkpt>
      <trkpt lat="47.84684" lon="3.8044">
        <ele>218</ele>
        <time>2019-10-26T10:48:20.000Z</time>
      </trkpt>
      <trkpt lat="47.84682" lon="3.80437">
        <ele>218</ele>
        <time>2019-10-26T10:48:21.000Z</time>
      </trkpt>
      <trkpt lat="47.8468" lon="3.80434">
        <ele>217</ele>
        <time>2019-10-26T10:48:22.000Z</time>
      </trkpt>
      <trkpt lat="47.84679" lon="3.8043">
        <ele>217</ele>
        <time>2019-10-26T10:48:23.000Z</time>
      </trkpt>
      <trkpt lat="47.84677" lon="3.80427">
        <ele>216</ele>
        <time>2019-10-26T10:48:24.000Z</time>
      </trkpt>
      <trkpt lat="47.84675" lon="3.80425">
        <ele>216</ele>
        <time>2019-10-26T10:48:25.000Z</time>
      </trkpt>
      <trkpt lat="47.84673" lon="3.80422">
        <ele>216</ele>
        <time>2019-10-26T10:48:26.000Z</time>
      </trkpt>
      <trkpt lat="47.84672" lon="3.80419">
        <ele>215</ele>
        <time>2019-10-26T10:48:27.000Z</time>
      </trkpt>
      <trkpt lat="47.8467" lon="3.80416">
        <ele>215</ele>
        <time>2019-10-26T10:48:28.000Z</time>
      </trkpt>
      <trkpt lat="47.84668" lon="3.80414">
        <ele>215</ele>
        <time>2019-10-26T10:48:29.000Z</time>
      </trkpt>
      <trkpt lat="47.84666" lon="3.80411">
        <ele>214</ele>
        <time>2019-10-26T10:48:30.000Z</time>
      </trkpt>
      <trkpt lat="47.84664" lon="3.8041">
        <ele>214</ele>
        <time>2019-10-26T10:48:31.000Z</time>
      </trkpt>
      <trkpt lat="47.84661" lon="3.80408">
        <ele>214</ele>
        <time>2019-10-26T10:48:32.000Z</time>
      </trkpt>
      <trkpt lat="47.84659" lon="3.80407">
        <ele>214</ele>
        <time>2019-10-26T10:48:33.000Z</time>
      </trkpt>
      <trkpt lat="47.84657" lon="3.80406">
        <ele>213</ele>
        <time>2019-10-26T10:48:34.000Z</time>
      </trkpt>
      <trkpt lat="47.84654" lon="3.80405">
        <ele>213</ele>
        <time>2019-10-26T10:48:35.000Z</time>
      </trkpt>
      <trkpt lat="47.84651" lon="3.80405">
        <ele>213</ele>
        <time>2019-10-26T10:48:36.000Z</time>
      </trkpt>
      <trkpt lat="47.84648" lon="3.80405">
        <ele>213</ele>
        <time>2019-10-26T10:48:37.000Z</time>
      </trkpt>
      <trkpt lat="47.84645" lon="3.80405">
        <ele>213</ele>
        <time>2019-10-26T10:48:38.000Z</time>
      </trkpt>
      <trkpt lat="47.84642" lon="3.80406">
        <ele>212</ele>
        <time>2019-10-26T10:48:39.000Z</time>
      </trkpt>
      <trkpt lat="47.8464" lon="3.80407">
        <ele>212</ele>
        <time>2019-10-26T10:48:40.000Z</time>
      </trkpt>
      <trkpt lat="47.84637" lon="3.80408">
        <ele>212</ele>
        <time>2019-10-26T10:48:41.000Z</time>
      </trkpt>
      <trkpt lat="47.84634" lon="3.80409">
        <ele>212</ele>
        <time>2019-10-26T10:48:42.000Z</time>
      </trkpt>
      <trkpt lat="47.84632" lon="3.8041">
        <ele>211</ele>
        <time>2019-10-26T10:48:43.000Z</time>
      </trkpt>
      <trkpt lat="47.84629" lon="3.80411">
        <ele>211</ele>
        <time>2019-10-26T10:48:44.000Z</time>
      </trkpt>
      <trkpt lat="47.84626" lon="3.80412">
        <ele>211</ele>
        <time>2019-10-26T10:48:45.000Z</time>
      </trkpt>
      <trkpt lat="47.84624" lon="3.80413">
        <ele>211</ele>
        <time>2019-10-26T10:48:46.000Z</time>
      </trkpt>
      <trkpt lat="47.84621" lon="3.80414">
        <ele>211</ele>
        <time>2019-10-26T10:48:47.000Z</time>
      </trkpt>
      <trkpt lat="47.84619" lon="3.80416">
        <ele>210</ele>
        <time>2019-10-26T10:48:48.000Z</time>
      </trkpt>
      <trkpt lat="47.84616" lon="3.80418">
        <ele>210</ele>
        <time>2019-10-26T10:48:49.000Z</time>
      </trkpt>
      <trkpt lat="47.84613" lon="3.8042">
        <ele>210</ele>
        <time>2019-10-26T10:48:50.000Z</time>
      </trkpt>
      <trkpt lat="47.84611" lon="3.80421">
        <ele>210</ele>
        <time>2019-10-26T10:48:51.000Z</time>
      </trkpt>
      <trkpt lat="47.84608" lon="3.80423">
        <ele>210</ele>
        <time>2019-10-26T10:48:52.000Z</time>
      </trkpt>
      <trkpt lat="47.84605" lon="3.80424">
        <ele>210</ele>
        <time>2019-10-26T10:48:53.000Z</time>
      </trkpt>
      <trkpt lat="47.84603" lon="3.80426">
        <ele>209</ele>
        <time>2019-10-26T10:48:54.000Z</time>
      </trkpt>
      <trkpt lat="47.846" lon="3.80428">
        <ele>209</ele>
        <time>2019-10-26T10:48:55.000Z</time>
      </trkpt>
      <trkpt lat="47.84597" lon="3.80429">
        <ele>209</ele>
        <time>2019-10-26T10:48:56.000Z</time>
      </trkpt>
      <trkpt lat="47.84595" lon="3.80431">
        <ele>209</ele>
        <time>2019-10-26T10:48:57.000Z</time>
      </trkpt>
      <trkpt lat="47.84592" lon="3.80433">
        <ele>208</ele>
        <time>2019-10-26T10:48:58.000Z</time>
      </trkpt>
      <trkpt lat="47.84589" lon="3.80434">
        <ele>208</ele>
        <time>2019-10-26T10:48:59.000Z</time>
      </trkpt>
      <trkpt lat="47.84586" lon="3.80436">
        <ele>208</ele>
        <time>2019-10-26T10:49:00.000Z</time>
      </trkpt>
      <trkpt lat="47.84584" lon="3.80437">
        <ele>207</ele>
        <time>2019-10-26T10:49:01.000Z</time>
      </trkpt>
      <trkpt lat="47.84581" lon="3.80438">
        <ele>207</ele>
        <time>2019-10-26T10:49:02.000Z</time>
      </trkpt>
      <trkpt lat="47.84578" lon="3.8044">
        <ele>206</ele>
        <time>2019-10-26T10:49:03.000Z</time>
      </trkpt>
      <trkpt lat="47.84576" lon="3.80442">
        <ele>206</ele>
        <time>2019-10-26T10:49:04.000Z</time>
      </trkpt>
      <trkpt lat="47.84573" lon="3.80443">
        <ele>206</ele>
        <time>2019-10-26T10:49:05.000Z</time>
      </trkpt>
      <trkpt lat="47.84571" lon="3.80445">
        <ele>205</ele>
        <time>2019-10-26T10:49:06.000Z</time>
      </trkpt>
      <trkpt lat="47.84569" lon="3.80447">
        <ele>205</ele>
        <time>2019-10-26T10:49:07.000Z</time>
      </trkpt>
      <trkpt lat="47.84567" lon="3.80449">
        <ele>205</ele>
        <time>2019-10-26T10:49:08.000Z</time>
      </trkpt>
      <trkpt lat="47.84564" lon="3.80451">
        <ele>205</ele>
        <time>2019-10-26T10:49:09.000Z</time>
      </trkpt>
      <trkpt lat="47.84562" lon="3.80453">
        <ele>204</ele>
        <time>2019-10-26T10:49:10.000Z</time>
      </trkpt>
      <trkpt lat="47.8456" lon="3.80456">
        <ele>204</ele>
        <time>2019-10-26T10:49:11.000Z</time>
      </trkpt>
      <trkpt lat="47.84557" lon="3.80458">
        <ele>204</ele>
        <time>2019-10-26T10:49:12.000Z</time>
      </trkpt>
      <trkpt lat="47.84555" lon="3.8046">
        <ele>204</ele>
        <time>2019-10-26T10:49:13.000Z</time>
      </trkpt>
      <trkpt lat="47.84553" lon="3.80463">
        <ele>203</ele>
        <time>2019-10-26T10:49:14.000Z</time>
      </trkpt>
      <trkpt lat="47.84551" lon="3.80466">
        <ele>203</ele>
        <time>2019-10-26T10:49:15.000Z</time>
      </trkpt>
      <trkpt lat="47.84548" lon="3.80468">
        <ele>203</ele>
        <time>2019-10-26T10:49:16.000Z</time>
      </trkpt>
      <trkpt lat="47.84546" lon="3.80471">
        <ele>203</ele>
        <time>2019-10-26T10:49:17.000Z</time>
      </trkpt>
      <trkpt lat="47.84544" lon="3.80474">
        <ele>202</ele>
        <time>2019-10-26T10:49:18.000Z</time>
      </trkpt>
      <trkpt lat="47.84542" lon="3.80477">
        <ele>202</ele>
        <time>2019-10-26T10:49:19.000Z</time>
      </trkpt>
      <trkpt lat="47.8454" lon="3.8048">
        <ele>202</ele>
        <time>2019-10-26T10:49:20.000Z</time>
      </trkpt>
      <trkpt lat="47.84538" lon="3.80483">
        <ele>202</ele>
        <time>2019-10-26T10:49:21.000Z</time>
      </trkpt>
      <trkpt lat="47.84536" lon="3.80486">
        <ele>202</ele>
        <time>2019-10-26T10:49:22.000Z</time>
      </trkpt>
      <trkpt lat="47.84534" lon="3.80489">
        <ele>202</ele>
        <time>2019-10-26T10:49:23.000Z</time>
      </trkpt>
      <trkpt lat="47.84532" lon="3.80492">
        <ele>201</ele>
        <time>2019-10-26T10:49:24.000Z</time>
      </trkpt>
      <trkpt lat="47.8453" lon="3.80495">
        <ele>201</ele>
        <time>2019-10-26T10:49:25.000Z</time>
      </trkpt>
      <trkpt lat="47.84528" lon="3.80498">
        <ele>201</ele>
        <time>2019-10-26T10:49:26.000Z</time>
      </trkpt>
      <trkpt lat="47.84526" lon="3.80502">
        <ele>201</ele>
        <time>2019-10-26T10:49:27.000Z</time>
      </trkpt>
      <trkpt lat="47.84524" lon="3.80505">
        <ele>201</ele>
        <time>2019-10-26T10:49:28.000Z</time>
      </trkpt>
      <trkpt lat="47.84522" lon="3.80508">
        <ele>201</ele>
        <time>2019-10-26T10:49:29.000Z</time>
      </trkpt>
      <trkpt lat="47.8452" lon="3.80512">
        <ele>200</ele>
        <time>2019-10-26T10:49:30.000Z</time>
      </trkpt>
      <trkpt lat="47.84518" lon="3.80515">
        <ele>200</ele>
        <time>2019-10-26T10:49:31.000Z</time>
      </trkpt>
      <trkpt lat="47.84517" lon="3.80519">
        <ele>200</ele>
        <time>2019-10-26T10:49:32.000Z</time>
      </trkpt>
      <trkpt lat="47.84515" lon="3.80523">
        <ele>199</ele>
        <time>2019-10-26T10:49:33.000Z</time>
      </trkpt>
      <trkpt lat="47.84513" lon="3.80526">
        <ele>199</ele>
        <time>2019-10-26T10:49:34.000Z</time>
      </trkpt>
      <trkpt lat="47.84512" lon="3.8053">
        <ele>199</ele>
        <time>2019-10-26T10:49:35.000Z</time>
      </trkpt>
      <trkpt lat="47.8451" lon="3.80534">
        <ele>198</ele>
        <time>2019-10-26T10:49:36.000Z</time>
      </trkpt>
      <trkpt lat="47.84509" lon="3.80537">
        <ele>198</ele>
        <time>2019-10-26T10:49:37.000Z</time>
      </trkpt>
      <trkpt lat="47.84507" lon="3.80541">
        <ele>198</ele>
        <time>2019-10-26T10:49:38.000Z</time>
      </trkpt>
      <trkpt lat="47.84505" lon="3.80544">
        <ele>197</ele>
        <time>2019-10-26T10:49:39.000Z</time>
      </trkpt>
      <trkpt lat="47.84503" lon="3.80548">
        <ele>197</ele>
        <time>2019-10-26T10:49:40.000Z</time>
      </trkpt>
      <trkpt lat="47.84502" lon="3.80551">
        <ele>197</ele>
        <time>2019-10-26T10:49:41.000Z</time>
      </trkpt>
      <trkpt lat="47.845" lon="3.80554">
        <ele>196</ele>
        <time>2019-10-26T10:49:42.000Z</time>
      </trkpt>
      <trkpt lat="47.84499" lon="3.80558">
        <ele>196</ele>
        <time>2019-10-26T10:49:43.000Z</time>
      </trkpt>
      <trkpt lat="47.84497" lon="3.80561">
        <ele>195</ele>
        <time>2019-10-26T10:49:44.000Z</time>
      </trkpt>
      <trkpt lat="47.84496" lon="3.80565">
        <ele>195</ele>
        <time>2019-10-26T10:49:45.000Z</time>
      </trkpt>
      <trkpt lat="47.84494" lon="3.80568">
        <ele>195</ele>
        <time>2019-10-26T10:49:46.000Z</time>
      </trkpt>
      <trkpt lat="47.84493" lon="3.80572">
        <ele>194</ele>
        <time>2019-10-26T10:49:47.000Z</time>
      </trkpt>
      <trkpt lat="47.84491" lon="3.80576">
        <ele>194</ele>
        <time>2019-10-26T10:49:48.000Z</time>
      </trkpt>
      <trkpt lat="47.8449" lon="3.8058">
        <ele>194</ele>
        <time>2019-10-26T10:49:49.000Z</time>
      </trkpt>
      <trkpt lat="47.84489" lon="3.80583">
        <ele>194</ele>
        <time>2019-10-26T10:49:50.000Z</time>
      </trkpt>
      <trkpt lat="47.84487" lon="3.80587">
        <ele>193</ele>
        <time>2019-10-26T10:49:51.000Z</time>
      </trkpt>
      <trkpt lat="47.84486" lon="3.80591">
        <ele>193</ele>
        <time>2019-10-26T10:49:52.000Z</time>
      </trkpt>
      <trkpt lat="47.84485" lon="3.80594">
        <ele>193</ele>
        <time>2019-10-26T10:49:53.000Z</time>
      </trkpt>
      <trkpt lat="47.84484" lon="3.80598">
        <ele>193</ele>
        <time>2019-10-26T10:49:54.000Z</time>
      </trkpt>
      <trkpt lat="47.84483" lon="3.80601">
        <ele>193</ele>
        <time>2019-10-26T10:49:55.000Z</time>
      </trkpt>
      <trkpt lat="47.84481" lon="3.80605">
        <ele>193</ele>
        <time>2019-10-26T10:49:56.000Z</time>
      </trkpt>
      <trkpt lat="47.8448" lon="3.80608">
        <ele>192</ele>
        <time>2019-10-26T10:49:57.000Z</time>
      </trkpt>
      <trkpt lat="47.84479" lon="3.80612">
        <ele>192</ele>
        <time>2019-10-26T10:49:58.000Z</time>
      </trkpt>
      <trkpt lat="47.84478" lon="3.80615">
        <ele>192</ele>
        <time>2019-10-26T10:49:59.000Z</time>
      </trkpt>
      <trkpt lat="47.84476" lon="3.80619">
        <ele>191</ele>
        <time>2019-10-26T10:50:00.000Z</time>
      </trkpt>
      <trkpt lat="47.84475" lon="3.80622">
        <ele>191</ele>
        <time>2019-10-26T10:50:01.000Z</time>
      </trkpt>
      <trkpt lat="47.84474" lon="3.80626">
        <ele>191</ele>
        <time>2019-10-26T10:50:02.000Z</time>
      </trkpt>
      <trkpt lat="47.84473" lon="3.80629">
        <ele>191</ele>
        <time>2019-10-26T10:50:03.000Z</time>
      </trkpt>
      <trkpt lat="47.84472" lon="3.80632">
        <ele>190</ele>
        <time>2019-10-26T10:50:04.000Z</time>
      </trkpt>
      <trkpt lat="47.84471" lon="3.80635">
        <ele>190</ele>
        <time>2019-10-26T10:50:05.000Z</time>
      </trkpt>
      <trkpt lat="47.8447" lon="3.80639">
        <ele>190</ele>
        <time>2019-10-26T10:50:06.000Z</time>
      </trkpt>
      <trkpt lat="47.84469" lon="3.80643">
        <ele>190</ele>
        <time>2019-10-26T10:50:07.000Z</time>
      </trkpt>
      <trkpt lat="47.84468" lon="3.80646">
        <ele>189</ele>
        <time>2019-10-26T10:50:08.000Z</time>
      </trkpt>
      <trkpt lat="47.84467" lon="3.8065">
        <ele>189</ele>
        <time>2019-10-26T10:50:09.000Z</time>
      </trkpt>
      <trkpt lat="47.84467" lon="3.80654">
        <ele>189</ele>
        <time>2019-10-26T10:50:10.000Z</time>
      </trkpt>
      <trkpt lat="47.84466" lon="3.80658">
        <ele>189</ele>
        <time>2019-10-26T10:50:11.000Z</time>
      </trkpt>
      <trkpt lat="47.84465" lon="3.80661">
        <ele>189</ele>
        <time>2019-10-26T10:50:12.000Z</time>
      </trkpt>
      <trkpt lat="47.84464" lon="3.80665">
        <ele>188</ele>
        <time>2019-10-26T10:50:13.000Z</time>
      </trkpt>
      <trkpt lat="47.84463" lon="3.80669">
        <ele>188</ele>
        <time>2019-10-26T10:50:14.000Z</time>
      </trkpt>
      <trkpt lat="47.84461" lon="3.80674">
        <ele>188</ele>
        <time>2019-10-26T10:50:15.000Z</time>
      </trkpt>
      <trkpt lat="47.8446" lon="3.80678">
        <ele>188</ele>
        <time>2019-10-26T10:50:16.000Z</time>
      </trkpt>
      <trkpt lat="47.84459" lon="3.80682">
        <ele>188</ele>
        <time>2019-10-26T10:50:17.000Z</time>
      </trkpt>
      <trkpt lat="47.84459" lon="3.80686">
        <ele>188</ele>
        <time>2019-10-26T10:50:18.000Z</time>
      </trkpt>
      <trkpt lat="47.84458" lon="3.8069">
        <ele>188</ele>
        <time>2019-10-26T10:50:19.000Z</time>
      </trkpt>
      <trkpt lat="47.84457" lon="3.80694">
        <ele>187</ele>
        <time>2019-10-26T10:50:20.000Z</time>
      </trkpt>
      <trkpt lat="47.84457" lon="3.80698">
        <ele>187</ele>
        <time>2019-10-26T10:50:21.000Z</time>
      </trkpt>
      <trkpt lat="47.84457" lon="3.80702">
        <ele>187</ele>
        <time>2019-10-26T10:50:22.000Z</time>
      </trkpt>
      <trkpt lat="47.84456" lon="3.80706">
        <ele>186</ele>
        <time>2019-10-26T10:50:23.000Z</time>
      </trkpt>
      <trkpt lat="47.84456" lon="3.8071">
        <ele>186</ele>
        <time>2019-10-26T10:50:24.000Z</time>
      </trkpt>
      <trkpt lat="47.84455" lon="3.80714">
        <ele>186</ele>
        <time>2019-10-26T10:50:25.000Z</time>
      </trkpt>
      <trkpt lat="47.84454" lon="3.80719">
        <ele>186</ele>
        <time>2019-10-26T10:50:26.000Z</time>
      </trkpt>
      <trkpt lat="47.84453" lon="3.80723">
        <ele>186</ele>
        <time>2019-10-26T10:50:27.000Z</time>
      </trkpt>
      <trkpt lat="47.84453" lon="3.80727">
        <ele>185</ele>
        <time>2019-10-26T10:50:28.000Z</time>
      </trkpt>
      <trkpt lat="47.84452" lon="3.80732">
        <ele>185</ele>
        <time>2019-10-26T10:50:29.000Z</time>
      </trkpt>
      <trkpt lat="47.84451" lon="3.80736">
        <ele>185</ele>
        <time>2019-10-26T10:50:30.000Z</time>
      </trkpt>
      <trkpt lat="47.8445" lon="3.8074">
        <ele>185</ele>
        <time>2019-10-26T10:50:31.000Z</time>
      </trkpt>
      <trkpt lat="47.8445" lon="3.80744">
        <ele>185</ele>
        <time>2019-10-26T10:50:32.000Z</time>
      </trkpt>
      <trkpt lat="47.8445" lon="3.80747">
        <ele>184</ele>
        <time>2019-10-26T10:50:33.000Z</time>
      </trkpt>
      <trkpt lat="47.84449" lon="3.80751">
        <ele>184</ele>
        <time>2019-10-26T10:50:34.000Z</time>
      </trkpt>
      <trkpt lat="47.84449" lon="3.80756">
        <ele>184</ele>
        <time>2019-10-26T10:50:35.000Z</time>
      </trkpt>
      <trkpt lat="47.84449" lon="3.8076">
        <ele>184</ele>
        <time>2019-10-26T10:50:36.000Z</time>
      </trkpt>
      <trkpt lat="47.84449" lon="3.80764">
        <ele>183</ele>
        <time>2019-10-26T10:50:37.000Z</time>
      </trkpt>
      <trkpt lat="47.84449" lon="3.80768">
        <ele>183</ele>
        <time>2019-10-26T10:50:38.000Z</time>
      </trkpt>
      <trkpt lat="47.84449" lon="3.80772">
        <ele>183</ele>
        <time>2019-10-26T10:50:39.000Z</time>
      </trkpt>
      <trkpt lat="47.8445" lon="3.80776">
        <ele>182</ele>
        <time>2019-10-26T10:50:40.000Z</time>
      </trkpt>
      <trkpt lat="47.8445" lon="3.8078">
        <ele>182</ele>
        <time>2019-10-26T10:50:41.000Z</time>
      </trkpt>
      <trkpt lat="47.84451" lon="3.80784">
        <ele>182</ele>
        <time>2019-10-26T10:50:42.000Z</time>
      </trkpt>
      <trkpt lat="47.84452" lon="3.80787">
        <ele>181</ele>
        <time>2019-10-26T10:50:43.000Z</time>
      </trkpt>
      <trkpt lat="47.84453" lon="3.80791">
        <ele>181</ele>
        <time>2019-10-26T10:50:44.000Z</time>
      </trkpt>
      <trkpt lat="47.84454" lon="3.80794">
        <ele>181</ele>
        <time>2019-10-26T10:50:45.000Z</time>
      </trkpt>
      <trkpt lat="47.84455" lon="3.80797">
        <ele>180</ele>
        <time>2019-10-26T10:50:46.000Z</time>
      </trkpt>
      <trkpt lat="47.84457" lon="3.80801">
        <ele>180</ele>
        <time>2019-10-26T10:50:47.000Z</time>
      </trkpt>
      <trkpt lat="47.84458" lon="3.80804">
        <ele>180</ele>
        <time>2019-10-26T10:50:48.000Z</time>
      </trkpt>
      <trkpt lat="47.8446" lon="3.80807">
        <ele>180</ele>
        <time>2019-10-26T10:50:49.000Z</time>
      </trkpt>
      <trkpt lat="47.84461" lon="3.80811">
        <ele>179</ele>
        <time>2019-10-26T10:50:50.000Z</time>
      </trkpt>
      <trkpt lat="47.84462" lon="3.80814">
        <ele>179</ele>
        <time>2019-10-26T10:50:51.000Z</time>
      </trkpt>
      <trkpt lat="47.84464" lon="3.80817">
        <ele>179</ele>
        <time>2019-10-26T10:50:52.000Z</time>
      </trkpt>
      <trkpt lat="47.84465" lon="3.8082">
        <ele>179</ele>
        <time>2019-10-26T10:50:53.000Z</time>
      </trkpt>
      <trkpt lat="47.84467" lon="3.80823">
        <ele>178</ele>
        <time>2019-10-26T10:50:54.000Z</time>
      </trkpt>
      <trkpt lat="47.84469" lon="3.80826">
        <ele>178</ele>
        <time>2019-10-26T10:50:55.000Z</time>
      </trkpt>
      <trkpt lat="47.8447" lon="3.80829">
        <ele>178</ele>
        <time>2019-10-26T10:50:56.000Z</time>
      </trkpt>
      <trkpt lat="47.84472" lon="3.80832">
        <ele>178</ele>
        <time>2019-10-26T10:50:57.000Z</time>
      </trkpt>
      <trkpt lat="47.84474" lon="3.80835">
        <ele>178</ele>
        <time>2019-10-26T10:50:58.000Z</time>
      </trkpt>
      <trkpt lat="47.84475" lon="3.80838">
        <ele>178</ele>
        <time>2019-10-26T10:50:59.000Z</time>
      </trkpt>
      <trkpt lat="47.84477" lon="3.80842">
        <ele>178</ele>
        <time>2019-10-26T10:51:00.000Z</time>
      </trkpt>
      <trkpt lat="47.84479" lon="3.80845">
        <ele>177</ele>
        <time>2019-10-26T10:51:01.000Z</time>
      </trkpt>
      <trkpt lat="47.8448" lon="3.80848">
        <ele>177</ele>
        <time>2019-10-26T10:51:02.000Z</time>
      </trkpt>
      <trkpt lat="47.84482" lon="3.80851">
        <ele>177</ele>
        <time>2019-10-26T10:51:03.000Z</time>
      </trkpt>
      <trkpt lat="47.84483" lon="3.80855">
        <ele>177</ele>
        <time>2019-10-26T10:51:04.000Z</time>
      </trkpt>
      <trkpt lat="47.84485" lon="3.80858">
        <ele>177</ele>
        <time>2019-10-26T10:51:05.000Z</time>
      </trkpt>
      <trkpt lat="47.84486" lon="3.80861">
        <ele>177</ele>
        <time>2019-10-26T10:51:06.000Z</time>
      </trkpt>
      <trkpt lat="47.84488" lon="3.80864">
        <ele>177</ele>
        <time>2019-10-26T10:51:07.000Z</time>
      </trkpt>
      <trkpt lat="47.8449" lon="3.80867">
        <ele>177</ele>
        <time>2019-10-26T10:51:08.000Z</time>
      </trkpt>
      <trkpt lat="47.84492" lon="3.8087">
        <ele>177</ele>
        <time>2019-10-26T10:51:09.000Z</time>
      </trkpt>
      <trkpt lat="47.84494" lon="3.80872">
        <ele>177</ele>
        <time>2019-10-26T10:51:10.000Z</time>
      </trkpt>
      <trkpt lat="47.84496" lon="3.80874">
        <ele>177</ele>
        <time>2019-10-26T10:51:11.000Z</time>
      </trkpt>
      <trkpt lat="47.84498" lon="3.80877">
        <ele>177</ele>
        <time>2019-10-26T10:51:12.000Z</time>
      </trkpt>
      <trkpt lat="47.845" lon="3.80879">
        <ele>177</ele>
        <time>2019-10-26T10:51:13.000Z</time>
      </trkpt>
      <trkpt lat="47.84502" lon="3.80881">
        <ele>177</ele>
        <time>2019-10-26T10:51:14.000Z</time>
      </trkpt>
      <trkpt lat="47.84504" lon="3.80884">
        <ele>177</ele>
        <time>2019-10-26T10:51:15.000Z</time>
      </trkpt>
      <trkpt lat="47.84506" lon="3.80886">
        <ele>176</ele>
        <time>2019-10-26T10:51:16.000Z</time>
      </trkpt>
      <trkpt lat="47.84508" lon="3.80888">
        <ele>176</ele>
        <time>2019-10-26T10:51:17.000Z</time>
      </trkpt>
      <trkpt lat="47.8451" lon="3.8089">
        <ele>176</ele>
        <time>2019-10-26T10:51:18.000Z</time>
      </trkpt>
      <trkpt lat="47.84512" lon="3.80892">
        <ele>176</ele>
        <time>2019-10-26T10:51:19.000Z</time>
      </trkpt>
      <trkpt lat="47.84514" lon="3.80893">
        <ele>176</ele>
        <time>2019-10-26T10:51:20.000Z</time>
      </trkpt>
      <trkpt lat="47.84516" lon="3.80895">
        <ele>177</ele>
        <time>2019-10-26T10:51:21.000Z</time>
      </trkpt>
      <trkpt lat="47.84518" lon="3.80897">
        <ele>177</ele>
        <time>2019-10-26T10:51:22.000Z</time>
      </trkpt>
      <trkpt lat="47.8452" lon="3.80898">
        <ele>177</ele>
        <time>2019-10-26T10:51:23.000Z</time>
      </trkpt>
      <trkpt lat="47.84523" lon="3.809">
        <ele>177</ele>
        <time>2019-10-26T10:51:24.000Z</time>
      </trkpt>
      <trkpt lat="47.84525" lon="3.80902">
        <ele>177</ele>
        <time>2019-10-26T10:51:25.000Z</time>
      </trkpt>
      <trkpt lat="47.84527" lon="3.80904">
        <ele>177</ele>
        <time>2019-10-26T10:51:26.000Z</time>
      </trkpt>
      <trkpt lat="47.84529" lon="3.80906">
        <ele>177</ele>
        <time>2019-10-26T10:51:27.000Z</time>
      </trkpt>
      <trkpt lat="47.84531" lon="3.80907">
        <ele>177</ele>
        <time>2019-10-26T10:51:28.000Z</time>
      </trkpt>
      <trkpt lat="47.84533" lon="3.80909">
        <ele>177</ele>
        <time>2019-10-26T10:51:29.000Z</time>
      </trkpt>
      <trkpt lat="47.84535" lon="3.80912">
        <ele>178</ele>
        <time>2019-10-26T10:51:30.000Z</time>
      </trkpt>
      <trkpt lat="47.84538" lon="3.80914">
        <ele>178</ele>
        <time>2019-10-26T10:51:31.000Z</time>
      </trkpt>
      <trkpt lat="47.8454" lon="3.80916">
        <ele>178</ele>
        <time>2019-10-26T10:51:32.000Z</time>
      </trkpt>
      <trkpt lat="47.84542" lon="3.80918">
        <ele>178</ele>
        <time>2019-10-26T10:51:33.000Z</time>
      </trkpt>
      <trkpt lat="47.84544" lon="3.80919">
        <ele>178</ele>
        <time>2019-10-26T10:51:34.000Z</time>
      </trkpt>
      <trkpt lat="47.84546" lon="3.80921">
        <ele>178</ele>
        <time>2019-10-26T10:51:35.000Z</time>
      </trkpt>
      <trkpt lat="47.84549" lon="3.80923">
        <ele>178</ele>
        <time>2019-10-26T10:51:36.000Z</time>
      </trkpt>
      <trkpt lat="47.84551" lon="3.80924">
        <ele>178</ele>
        <time>2019-10-26T10:51:37.000Z</time>
      </trkpt>
      <trkpt lat="47.84553" lon="3.80926">
        <ele>178</ele>
        <time>2019-10-26T10:51:38.000Z</time>
      </trkpt>
      <trkpt lat="47.84555" lon="3.80927">
        <ele>178</ele>
        <time>2019-10-26T10:51:39.000Z</time>
      </trkpt>
      <trkpt lat="47.84558" lon="3.80928">
        <ele>178</ele>
        <time>2019-10-26T10:51:40.000Z</time>
      </trkpt>
      <trkpt lat="47.8456" lon="3.8093">
        <ele>178</ele>
        <time>2019-10-26T10:51:41.000Z</time>
      </trkpt>
      <trkpt lat="47.84562" lon="3.80931">
        <ele>179</ele>
        <time>2019-10-26T10:51:42.000Z</time>
      </trkpt>
      <trkpt lat="47.84565" lon="3.80932">
        <ele>179</ele>
        <time>2019-10-26T10:51:43.000Z</time>
      </trkpt>
      <trkpt lat="47.84567" lon="3.80933">
        <ele>179</ele>
        <time>2019-10-26T10:51:44.000Z</time>
      </trkpt>
      <trkpt lat="47.84569" lon="3.80934">
        <ele>179</ele>
        <time>2019-10-26T10:51:45.000Z</time>
      </trkpt>
      <trkpt lat="47.84571" lon="3.80936">
        <ele>179</ele>
        <time>2019-10-26T10:51:46.000Z</time>
      </trkpt>
      <trkpt lat="47.84574" lon="3.80937">
        <ele>179</ele>
        <time>2019-10-26T10:51:47.000Z</time>
      </trkpt>
      <trkpt lat="47.84576" lon="3.80939">
        <ele>179</ele>
        <time>2019-10-26T10:51:48.000Z</time>
      </trkpt>
      <trkpt lat="47.84579" lon="3.8094">
        <ele>179</ele>
        <time>2019-10-26T10:51:49.000Z</time>
      </trkpt>
      <trkpt lat="47.84581" lon="3.80941">
        <ele>179</ele>
        <time>2019-10-26T10:51:50.000Z</time>
      </trkpt>
      <trkpt lat="47.84584" lon="3.80943">
        <ele>180</ele>
        <time>2019-10-26T10:51:51.000Z</time>
      </trkpt>
      <trkpt lat="47.84586" lon="3.80944">
        <ele>180</ele>
        <time>2019-10-26T10:51:52.000Z</time>
      </trkpt>
      <trkpt lat="47.84589" lon="3.80945">
        <ele>180</ele>
        <time>2019-10-26T10:51:53.000Z</time>
      </trkpt>
      <trkpt lat="47.84591" lon="3.80946">
        <ele>180</ele>
        <time>2019-10-26T10:51:54.000Z</time>
      </trkpt>
      <trkpt lat="47.84593" lon="3.80947">
        <ele>180</ele>
        <time>2019-10-26T10:51:55.000Z</time>
      </trkpt>
      <trkpt lat="47.84595" lon="3.80949">
        <ele>180</ele>
        <time>2019-10-26T10:51:56.000Z</time>
      </trkpt>
      <trkpt lat="47.84597" lon="3.80951">
        <ele>180</ele>
        <time>2019-10-26T10:51:57.000Z</time>
      </trkpt>
      <trkpt lat="47.84599" lon="3.80954">
        <ele>180</ele>
        <time>2019-10-26T10:51:58.000Z</time>
      </trkpt>
      <trkpt lat="47.846" lon="3.80957">
        <ele>180</ele>
        <time>2019-10-26T10:51:59.000Z</time>
      </trkpt>
      <trkpt lat="47.84601" lon="3.8096">
        <ele>181</ele>
        <time>2019-10-26T10:52:00.000Z</time>
      </trkpt>
      <trkpt lat="47.84602" lon="3.80964">
        <ele>181</ele>
        <time>2019-10-26T10:52:01.000Z</time>
      </trkpt>
      <trkpt lat="47.84602" lon="3.80968">
        <ele>181</ele>
        <time>2019-10-26T10:52:02.000Z</time>
      </trkpt>
      <trkpt lat="47.84601" lon="3.80973">
        <ele>181</ele>
        <time>2019-10-26T10:52:03.000Z</time>
      </trkpt>
      <trkpt lat="47.846" lon="3.80977">
        <ele>181</ele>
        <time>2019-10-26T10:52:04.000Z</time>
      </trkpt>
      <trkpt lat="47.84599" lon="3.80982">
        <ele>180</ele>
        <time>2019-10-26T10:52:05.000Z</time>
      </trkpt>
      <trkpt lat="47.84597" lon="3.80986">
        <ele>180</ele>
        <time>2019-10-26T10:52:06.000Z</time>
      </trkpt>
      <trkpt lat="47.84596" lon="3.8099">
        <ele>180</ele>
        <time>2019-10-26T10:52:07.000Z</time>
      </trkpt>
      <trkpt lat="47.84595" lon="3.80994">
        <ele>180</ele>
        <time>2019-10-26T10:52:08.000Z</time>
      </trkpt>
      <trkpt lat="47.84593" lon="3.80998">
        <ele>180</ele>
        <time>2019-10-26T10:52:09.000Z</time>
      </trkpt>
      <trkpt lat="47.84592" lon="3.81002">
        <ele>180</ele>
        <time>2019-10-26T10:52:10.000Z</time>
      </trkpt>
      <trkpt lat="47.8459" lon="3.81005">
        <ele>179</ele>
        <time>2019-10-26T10:52:11.000Z</time>
      </trkpt>
      <trkpt lat="47.84589" lon="3.81009">
        <ele>179</ele>
        <time>2019-10-26T10:52:12.000Z</time>
      </trkpt>
      <trkpt lat="47.84587" lon="3.81013">
        <ele>179</ele>
        <time>2019-10-26T10:52:13.000Z</time>
      </trkpt>
      <trkpt lat="47.84586" lon="3.81016">
        <ele>179</ele>
        <time>2019-10-26T10:52:14.000Z</time>
      </trkpt>
      <trkpt lat="47.84584" lon="3.81019">
        <ele>179</ele>
        <time>2019-10-26T10:52:15.000Z</time>
      </trkpt>
      <trkpt lat="47.84583" lon="3.81022">
        <ele>179</ele>
        <time>2019-10-26T10:52:16.000Z</time>
      </trkpt>
      <trkpt lat="47.84582" lon="3.81024">
        <ele>178</ele>
        <time>2019-10-26T10:52:17.000Z</time>
      </trkpt>
      <trkpt lat="47.8458" lon="3.81026">
        <ele>178</ele>
        <time>2019-10-26T10:52:18.000Z</time>
      </trkpt>
      <trkpt lat="47.84579" lon="3.81028">
        <ele>178</ele>
        <time>2019-10-26T10:52:19.000Z</time>
      </trkpt>
      <trkpt lat="47.84578" lon="3.8103">
        <ele>179</ele>
        <time>2019-10-26T10:52:20.000Z</time>
      </trkpt>
      <trkpt lat="47.84577" lon="3.81032">
        <ele>178</ele>
        <time>2019-10-26T10:52:21.000Z</time>
      </trkpt>
      <trkpt lat="47.84576" lon="3.81033">
        <ele>178</ele>
        <time>2019-10-26T10:52:22.000Z</time>
      </trkpt>
      <trkpt lat="47.84575" lon="3.81034">
        <ele>179</ele>
        <time>2019-10-26T10:52:23.000Z</time>
      </trkpt>
      <trkpt lat="47.84574" lon="3.81034">
        <ele>178</ele>
        <time>2019-10-26T10:52:24.000Z</time>
      </trkpt>
      <trkpt lat="47.84574" lon="3.81034">
        <ele>178</ele>
        <time>2019-10-26T10:52:25.000Z</time>
      </trkpt>
      <trkpt lat="47.84574" lon="3.81034">
        <ele>178</ele>
        <time>2019-10-26T10:52:26.000Z</time>
      </trkpt>
      <trkpt lat="47.84574" lon="3.81035">
        <ele>179</ele>
        <time>2019-10-26T10:52:27.000Z</time>
      </trkpt>
      <trkpt lat="47.84574" lon="3.81035">
        <ele>179</ele>
        <time>2019-10-26T10:52:28.000Z</time>
      </trkpt>
      <trkpt lat="47.84574" lon="3.81035">
        <ele>179</ele>
        <time>2019-10-26T10:52:29.000Z</time>
      </trkpt>
      <trkpt lat="47.84574" lon="3.81035">
        <ele>179</ele>
        <time>2019-10-26T10:52:30.000Z</time>
      </trkpt>
      <trkpt lat="47.84574" lon="3.81035">
        <ele>179</ele>
        <time>2019-10-26T10:52:31.000Z</time>
      </trkpt>
      <trkpt lat="47.84574" lon="3.81035">
        <ele>179</ele>
        <time>2019-10-26T10:52:32.000Z</time>
      </trkpt>
      <trkpt lat="47.84574" lon="3.81035">
        <ele>179</ele>
        <time>2019-10-26T10:52:33.000Z</time>
      </trkpt>
      <trkpt lat="47.84574" lon="3.81035">
        <ele>179</ele>
        <time>2019-10-26T10:52:34.000Z</time>
      </trkpt>
      <trkpt lat="47.84573" lon="3.81036">
        <ele>179</ele>
        <time>2019-10-26T10:52:35.000Z</time>
      </trkpt>
      <trkpt lat="47.84573" lon="3.81036">
        <ele>179</ele>
        <time>2019-10-26T10:52:36.000Z</time>
      </trkpt>
      <trkpt lat="47.84573" lon="3.81036">
        <ele>179</ele>
        <time>2019-10-26T10:52:37.000Z</time>
      </trkpt>
      <trkpt lat="47.84573" lon="3.81036">
        <ele>179</ele>
        <time>2019-10-26T10:52:38.000Z</time>
      </trkpt>
      <trkpt lat="47.84573" lon="3.81037">
        <ele>179</ele>
        <time>2019-10-26T10:52:39.000Z</time>
      </trkpt>
      <trkpt lat="47.84572" lon="3.81037">
        <ele>179</ele>
        <time>2019-10-26T10:52:40.000Z</time>
      </trkpt>
      <trkpt lat="47.84572" lon="3.81037">
        <ele>179</ele>
        <time>2019-10-26T10:52:41.000Z</time>
      </trkpt>
      <trkpt lat="47.84572" lon="3.81037">
        <ele>179</ele>
        <time>2019-10-26T10:52:42.000Z</time>
      </trkpt>
      <trkpt lat="47.84572" lon="3.81037">
        <ele>179</ele>
        <time>2019-10-26T10:52:43.000Z</time>
      </trkpt>
      <trkpt lat="47.84572" lon="3.81037">
        <ele>179</ele>
        <time>2019-10-26T10:52:44.000Z</time>
      </trkpt>
      <trkpt lat="47.84572" lon="3.81037">
        <ele>179</ele>
        <time>2019-10-26T10:52:45.000Z</time>
      </trkpt>
      <trkpt lat="47.84572" lon="3.81037">
        <ele>179</ele>
        <time>2019-10-26T10:52:46.000Z</time>
      </trkpt>
      <trkpt lat="47.84572" lon="3.81037">
        <ele>179</ele>
        <time>2019-10-26T10:52:47.000Z</time>
      </trkpt>
      <trkpt lat="47.84572" lon="3.81037">
        <ele>179</ele>
        <time>2019-10-26T10:52:48.000Z</time>
      </trkpt>
      <trkpt lat="47.84572" lon="3.81037">
        <ele>179</ele>
        <time>2019-10-26T10:52:49.000Z</time>
      </trkpt>
      <trkpt lat="47.84573" lon="3.81038">
        <ele>179</ele>
        <time>2019-10-26T10:52:50.000Z</time>
      </trkpt>
      <trkpt lat="47.84573" lon="3.81038">
        <ele>179</ele>
        <time>2019-10-26T10:52:51.000Z</time>
      </trkpt>
      <trkpt lat="47.84573" lon="3.81038">
        <ele>179</ele>
        <time>2019-10-26T10:52:52.000Z</time>
      </trkpt>
      <trkpt lat="47.84573" lon="3.81039">
        <ele>179</ele>
        <time>2019-10-26T10:52:53.000Z</time>
      </trkpt>
      <trkpt lat="47.84573" lon="3.81039">
        <ele>179</ele>
        <time>2019-10-26T10:52:54.000Z</time>
      </trkpt>
      <trkpt lat="47.84573" lon="3.8104">
        <ele>179</ele>
        <time>2019-10-26T10:52:55.000Z</time>
      </trkpt>
      <trkpt lat="47.84572" lon="3.8104">
        <ele>179</ele>
        <time>2019-10-26T10:52:56.000Z</time>
      </trkpt>
      <trkpt lat="47.84572" lon="3.81041">
        <ele>179</ele>
        <time>2019-10-26T10:52:57.000Z</time>
      </trkpt>
      <trkpt lat="47.84572" lon="3.81042">
        <ele>179</ele>
        <time>2019-10-26T10:52:58.000Z</time>
      </trkpt>
      <trkpt lat="47.84573" lon="3.81042">
        <ele>179</ele>
        <time>2019-10-26T10:52:59.000Z</time>
      </trkpt>
      <trkpt lat="47.84572" lon="3.81042">
        <ele>179</ele>
        <time>2019-10-26T10:53:00.000Z</time>
      </trkpt>
      <trkpt lat="47.84572" lon="3.81042">
        <ele>179</ele>
        <time>2019-10-26T10:53:01.000Z</time>
      </trkpt>
      <trkpt lat="47.84572" lon="3.81042">
        <ele>179</ele>
        <time>2019-10-26T10:53:02.000Z</time>
      </trkpt>
      <trkpt lat="47.84572" lon="3.81042">
        <ele>179</ele>
        <time>2019-10-26T10:53:03.000Z</time>
      </trkpt>
      <trkpt lat="47.84571" lon="3.81041">
        <ele>179</ele>
        <time>2019-10-26T10:53:04.000Z</time>
      </trkpt>
      <trkpt lat="47.84571" lon="3.81041">
        <ele>179</ele>
        <time>2019-10-26T10:53:05.000Z</time>
      </trkpt>
      <trkpt lat="47.84571" lon="3.8104">
        <ele>179</ele>
        <time>2019-10-26T10:53:06.000Z</time>
      </trkpt>
      <trkpt lat="47.84571" lon="3.81039">
        <ele>179</ele>
        <time>2019-10-26T10:53:07.000Z</time>
      </trkpt>
      <trkpt lat="47.84572" lon="3.81039">
        <ele>179</ele>
        <time>2019-10-26T10:53:08.000Z</time>
      </trkpt>
      <trkpt lat="47.84572" lon="3.81039">
        <ele>179</ele>
        <time>2019-10-26T10:53:09.000Z</time>
      </trkpt>
      <trkpt lat="47.84572" lon="3.81039">
        <ele>179</ele>
        <time>2019-10-26T10:53:10.000Z</time>
      </trkpt>
      <trkpt lat="47.84572" lon="3.81039">
        <ele>179</ele>
        <time>2019-10-26T10:53:11.000Z</time>
      </trkpt>
      <trkpt lat="47.84572" lon="3.81039">
        <ele>179</ele>
        <time>2019-10-26T10:53:12.000Z</time>
      </trkpt>
      <trkpt lat="47.84572" lon="3.81039">
        <ele>179</ele>
        <time>2019-10-26T10:53:13.000Z</time>
      </trkpt>
      <trkpt lat="47.84572" lon="3.81039">
        <ele>179</ele>
        <time>2019-10-26T10:53:14.000Z</time>
      </trkpt>
      <trkpt lat="47.84572" lon="3.81039">
        <ele>179</ele>
        <time>2019-10-26T10:53:15.000Z</time>
      </trkpt>
      <trkpt lat="47.84572" lon="3.8104">
        <ele>179</ele>
        <time>2019-10-26T10:53:16.000Z</time>
      </trkpt>
      <trkpt lat="47.84572" lon="3.8104">
        <ele>179</ele>
        <time>2019-10-26T10:53:17.000Z</time>
      </trkpt>
      <trkpt lat="47.84572" lon="3.81041">
        <ele>179</ele>
        <time>2019-10-26T10:53:18.000Z</time>
      </trkpt>
      <trkpt lat="47.84572" lon="3.81041">
        <ele>179</ele>
        <time>2019-10-26T10:53:19.000Z</time>
      </trkpt>
      <trkpt lat="47.84573" lon="3.81042">
        <ele>179</ele>
        <time>2019-10-26T10:53:20.000Z</time>
      </trkpt>
      <trkpt lat="47.84573" lon="3.81042">
        <ele>179</ele>
        <time>2019-10-26T10:53:21.000Z</time>
      </trkpt>
      <trkpt lat="47.84573" lon="3.81042">
        <ele>179</ele>
        <time>2019-10-26T10:53:22.000Z</time>
      </trkpt>
      <trkpt lat="47.84574" lon="3.81042">
        <ele>179</ele>
        <time>2019-10-26T10:53:23.000Z</time>
      </trkpt>
      <trkpt lat="47.84574" lon="3.81042">
        <ele>179</ele>
        <time>2019-10-26T10:53:24.000Z</time>
      </trkpt>
      <trkpt lat="47.84574" lon="3.81042">
        <ele>179</ele>
        <time>2019-10-26T10:53:25.000Z</time>
      </trkpt>
      <trkpt lat="47.84574" lon="3.81043">
        <ele>180</ele>
        <time>2019-10-26T10:53:26.000Z</time>
      </trkpt>
      <trkpt lat="47.84574" lon="3.81043">
        <ele>180</ele>
        <time>2019-10-26T10:53:27.000Z</time>
      </trkpt>
      <trkpt lat="47.84574" lon="3.81042">
        <ele>180</ele>
        <time>2019-10-26T10:53:28.000Z</time>
      </trkpt>
      <trkpt lat="47.84574" lon="3.81042">
        <ele>180</ele>
        <time>2019-10-26T10:53:29.000Z</time>
      </trkpt>
      <trkpt lat="47.84574" lon="3.8104">
        <ele>180</ele>
        <time>2019-10-26T10:53:30.000Z</time>
      </trkpt>
      <trkpt lat="47.84574" lon="3.81039">
        <ele>180</ele>
        <time>2019-10-26T10:53:31.000Z</time>
      </trkpt>
      <trkpt lat="47.84574" lon="3.81038">
        <ele>180</ele>
        <time>2019-10-26T10:53:32.000Z</time>
      </trkpt>
      <trkpt lat="47.84574" lon="3.81037">
        <ele>180</ele>
        <time>2019-10-26T10:53:33.000Z</time>
      </trkpt>
      <trkpt lat="47.84574" lon="3.81036">
        <ele>180</ele>
        <time>2019-10-26T10:53:34.000Z</time>
      </trkpt>
      <trkpt lat="47.84574" lon="3.81036">
        <ele>180</ele>
        <time>2019-10-26T10:53:35.000Z</time>
      </trkpt>
      <trkpt lat="47.84574" lon="3.81036">
        <ele>180</ele>
        <time>2019-10-26T10:53:36.000Z</time>
      </trkpt>
      <trkpt lat="47.84574" lon="3.81036">
        <ele>180</ele>
        <time>2019-10-26T10:53:37.000Z</time>
      </trkpt>
      <trkpt lat="47.84574" lon="3.81036">
        <ele>180</ele>
        <time>2019-10-26T10:53:38.000Z</time>
      </trkpt>
      <trkpt lat="47.84574" lon="3.81036">
        <ele>180</ele>
        <time>2019-10-26T10:53:39.000Z</time>
      </trkpt>
      <trkpt lat="47.84574" lon="3.81035">
        <ele>181</ele>
        <time>2019-10-26T10:53:40.000Z</time>
      </trkpt>
      <trkpt lat="47.84574" lon="3.81035">
        <ele>181</ele>
        <time>2019-10-26T10:53:41.000Z</time>
      </trkpt>
      <trkpt lat="47.84574" lon="3.81036">
        <ele>181</ele>
        <time>2019-10-26T10:53:42.000Z</time>
      </trkpt>
      <trkpt lat="47.84574" lon="3.81036">
        <ele>181</ele>
        <time>2019-10-26T10:53:43.000Z</time>
      </trkpt>
      <trkpt lat="47.84574" lon="3.81036">
        <ele>181</ele>
        <time>2019-10-26T10:53:44.000Z</time>
      </trkpt>
      <trkpt lat="47.84574" lon="3.81036">
        <ele>181</ele>
        <time>2019-10-26T10:53:45.000Z</time>
      </trkpt>
      <trkpt lat="47.84574" lon="3.81037">
        <ele>181</ele>
        <time>2019-10-26T10:53:46.000Z</time>
      </trkpt>
      <trkpt lat="47.84573" lon="3.81037">
        <ele>180</ele>
        <time>2019-10-26T10:53:47.000Z</time>
      </trkpt>
      <trkpt lat="47.84573" lon="3.81037">
        <ele>180</ele>
        <time>2019-10-26T10:53:48.000Z</time>
      </trkpt>
      <trkpt lat="47.84573" lon="3.81037">
        <ele>180</ele>
        <time>2019-10-26T10:53:49.000Z</time>
      </trkpt>
      <trkpt lat="47.84573" lon="3.81037">
        <ele>180</ele>
        <time>2019-10-26T10:53:50.000Z</time>
      </trkpt>
      <trkpt lat="47.84573" lon="3.81037">
        <ele>180</ele>
        <time>2019-10-26T10:53:51.000Z</time>
      </trkpt>
      <trkpt lat="47.84573" lon="3.81037">
        <ele>180</ele>
        <time>2019-10-26T10:53:52.000Z</time>
      </trkpt>
      <trkpt lat="47.84573" lon="3.81037">
        <ele>180</ele>
        <time>2019-10-26T10:53:53.000Z</time>
      </trkpt>
      <trkpt lat="47.84573" lon="3.81037">
        <ele>180</ele>
        <time>2019-10-26T10:53:54.000Z</time>
      </trkpt>
      <trkpt lat="47.84572" lon="3.81037">
        <ele>180</ele>
        <time>2019-10-26T10:53:55.000Z</time>
      </trkpt>
      <trkpt lat="47.84572" lon="3.81037">
        <ele>180</ele>
        <time>2019-10-26T10:53:56.000Z</time>
      </trkpt>
      <trkpt lat="47.84572" lon="3.81037">
        <ele>180</ele>
        <time>2019-10-26T10:53:57.000Z</time>
      </trkpt>
      <trkpt lat="47.84572" lon="3.81037">
        <ele>180</ele>
        <time>2019-10-26T10:53:58.000Z</time>
      </trkpt>
      <trkpt lat="47.84572" lon="3.81037">
        <ele>180</ele>
        <time>2019-10-26T10:53:59.000Z</time>
      </trkpt>
      <trkpt lat="47.84572" lon="3.81037">
        <ele>180</ele>
        <time>2019-10-26T10:54:00.000Z</time>
      </trkpt>
      <trkpt lat="47.84572" lon="3.81037">
        <ele>180</ele>
        <time>2019-10-26T10:54:01.000Z</time>
      </trkpt>
      <trkpt lat="47.84572" lon="3.81037">
        <ele>180</ele>
        <time>2019-10-26T10:54:02.000Z</time>
      </trkpt>
      <trkpt lat="47.84572" lon="3.81038">
        <ele>180</ele>
        <time>2019-10-26T10:54:03.000Z</time>
      </trkpt>
      <trkpt lat="47.84573" lon="3.81038">
        <ele>180</ele>
        <time>2019-10-26T10:54:04.000Z</time>
      </trkpt>
      <trkpt lat="47.84573" lon="3.81038">
        <ele>180</ele>
        <time>2019-10-26T10:54:05.000Z</time>
      </trkpt>
      <trkpt lat="47.84573" lon="3.81039">
        <ele>180</ele>
        <time>2019-10-26T10:54:06.000Z</time>
      </trkpt>
      <trkpt lat="47.84573" lon="3.81039">
        <ele>180</ele>
        <time>2019-10-26T10:54:07.000Z</time>
      </trkpt>
      <trkpt lat="47.84573" lon="3.81039">
        <ele>180</ele>
        <time>2019-10-26T10:54:08.000Z</time>
      </trkpt>
      <trkpt lat="47.84573" lon="3.81039">
        <ele>180</ele>
        <time>2019-10-26T10:54:09.000Z</time>
      </trkpt>
      <trkpt lat="47.84573" lon="3.8104">
        <ele>180</ele>
        <time>2019-10-26T10:54:10.000Z</time>
      </trkpt>
      <trkpt lat="47.84572" lon="3.8104">
        <ele>180</ele>
        <time>2019-10-26T10:54:11.000Z</time>
      </trkpt>
      <trkpt lat="47.84572" lon="3.8104">
        <ele>179</ele>
        <time>2019-10-26T10:54:12.000Z</time>
      </trkpt>
      <trkpt lat="47.84572" lon="3.8104">
        <ele>179</ele>
        <time>2019-10-26T10:54:13.000Z</time>
      </trkpt>
      <trkpt lat="47.84571" lon="3.81041">
        <ele>179</ele>
        <time>2019-10-26T10:54:14.000Z</time>
      </trkpt>
      <trkpt lat="47.84571" lon="3.81041">
        <ele>179</ele>
        <time>2019-10-26T10:54:15.000Z</time>
      </trkpt>
      <trkpt lat="47.8457" lon="3.81041">
        <ele>179</ele>
        <time>2019-10-26T10:54:16.000Z</time>
      </trkpt>
      <trkpt lat="47.8457" lon="3.81042">
        <ele>179</ele>
        <time>2019-10-26T10:54:17.000Z</time>
      </trkpt>
      <trkpt lat="47.8457" lon="3.81042">
        <ele>179</ele>
        <time>2019-10-26T10:54:18.000Z</time>
      </trkpt>
      <trkpt lat="47.8457" lon="3.81042">
        <ele>178</ele>
        <time>2019-10-26T10:54:19.000Z</time>
      </trkpt>
      <trkpt lat="47.84569" lon="3.81042">
        <ele>178</ele>
        <time>2019-10-26T10:54:20.000Z</time>
      </trkpt>
      <trkpt lat="47.8457" lon="3.81042">
        <ele>178</ele>
        <time>2019-10-26T10:54:21.000Z</time>
      </trkpt>
      <trkpt lat="47.8457" lon="3.81041">
        <ele>178</ele>
        <time>2019-10-26T10:54:22.000Z</time>
      </trkpt>
      <trkpt lat="47.8457" lon="3.81041">
        <ele>178</ele>
        <time>2019-10-26T10:54:23.000Z</time>
      </trkpt>
      <trkpt lat="47.8457" lon="3.8104">
        <ele>178</ele>
        <time>2019-10-26T10:54:24.000Z</time>
      </trkpt>
      <trkpt lat="47.84571" lon="3.8104">
        <ele>178</ele>
        <time>2019-10-26T10:54:25.000Z</time>
      </trkpt>
      <trkpt lat="47.84571" lon="3.81039">
        <ele>178</ele>
        <time>2019-10-26T10:54:26.000Z</time>
      </trkpt>
      <trkpt lat="47.84572" lon="3.81038">
        <ele>178</ele>
        <time>2019-10-26T10:54:27.000Z</time>
      </trkpt>
      <trkpt lat="47.84572" lon="3.81038">
        <ele>178</ele>
        <time>2019-10-26T10:54:28.000Z</time>
      </trkpt>
      <trkpt lat="47.84572" lon="3.81038">
        <ele>178</ele>
        <time>2019-10-26T10:54:29.000Z</time>
      </trkpt>
      <trkpt lat="47.84572" lon="3.81038">
        <ele>178</ele>
        <time>2019-10-26T10:54:30.000Z</time>
      </trkpt>
      <trkpt lat="47.84572" lon="3.81038">
        <ele>178</ele>
        <time>2019-10-26T10:54:31.000Z</time>
      </trkpt>
      <trkpt lat="47.84572" lon="3.81038">
        <ele>178</ele>
        <time>2019-10-26T10:54:32.000Z</time>
      </trkpt>
      <trkpt lat="47.84572" lon="3.81038">
        <ele>178</ele>
        <time>2019-10-26T10:54:33.000Z</time>
      </trkpt>
      <trkpt lat="47.84572" lon="3.81038">
        <ele>178</ele>
        <time>2019-10-26T10:54:34.000Z</time>
      </trkpt>
      <trkpt lat="47.84572" lon="3.81039">
        <ele>178</ele>
        <time>2019-10-26T10:54:35.000Z</time>
      </trkpt>
      <trkpt lat="47.84572" lon="3.81039">
        <ele>178</ele>
        <time>2019-10-26T10:54:36.000Z</time>
      </trkpt>
      <trkpt lat="47.84572" lon="3.8104">
        <ele>178</ele>
        <time>2019-10-26T10:54:37.000Z</time>
      </trkpt>
      <trkpt lat="47.84572" lon="3.81041">
        <ele>178</ele>
        <time>2019-10-26T10:54:38.000Z</time>
      </trkpt>
      <trkpt lat="47.84573" lon="3.81043">
        <ele>178</ele>
        <time>2019-10-26T10:54:39.000Z</time>
      </trkpt>
      <trkpt lat="47.84572" lon="3.81043">
        <ele>178</ele>
        <time>2019-10-26T10:54:40.000Z</time>
      </trkpt>
      <trkpt lat="47.84572" lon="3.81044">
        <ele>178</ele>
        <time>2019-10-26T10:54:41.000Z</time>
      </trkpt>
      <trkpt lat="47.84571" lon="3.81045">
        <ele>178</ele>
        <time>2019-10-26T10:54:42.000Z</time>
      </trkpt>
      <trkpt lat="47.84571" lon="3.81046">
        <ele>178</ele>
        <time>2019-10-26T10:54:43.000Z</time>
      </trkpt>
      <trkpt lat="47.8457" lon="3.81047">
        <ele>178</ele>
        <time>2019-10-26T10:54:44.000Z</time>
      </trkpt>
      <trkpt lat="47.8457" lon="3.81047">
        <ele>178</ele>
        <time>2019-10-26T10:54:45.000Z</time>
      </trkpt>
      <trkpt lat="47.8457" lon="3.81048">
        <ele>178</ele>
        <time>2019-10-26T10:54:46.000Z</time>
      </trkpt>
      <trkpt lat="47.8457" lon="3.81049">
        <ele>178</ele>
        <time>2019-10-26T10:54:47.000Z</time>
      </trkpt>
      <trkpt lat="47.8457" lon="3.81049">
        <ele>178</ele>
        <time>2019-10-26T10:54:48.000Z</time>
      </trkpt>
      <trkpt lat="47.84569" lon="3.8105">
        <ele>178</ele>
        <time>2019-10-26T10:54:49.000Z</time>
      </trkpt>
      <trkpt lat="47.84569" lon="3.8105">
        <ele>178</ele>
        <time>2019-10-26T10:54:50.000Z</time>
      </trkpt>
      <trkpt lat="47.84568" lon="3.8105">
        <ele>178</ele>
        <time>2019-10-26T10:54:51.000Z</time>
      </trkpt>
      <trkpt lat="47.84568" lon="3.8105">
        <ele>177</ele>
        <time>2019-10-26T10:54:52.000Z</time>
      </trkpt>
      <trkpt lat="47.84568" lon="3.81051">
        <ele>177</ele>
        <time>2019-10-26T10:54:53.000Z</time>
      </trkpt>
      <trkpt lat="47.84568" lon="3.81051">
        <ele>177</ele>
        <time>2019-10-26T10:54:54.000Z</time>
      </trkpt>
      <trkpt lat="47.84567" lon="3.81051">
        <ele>177</ele>
        <time>2019-10-26T10:54:55.000Z</time>
      </trkpt>
      <trkpt lat="47.84566" lon="3.81051">
        <ele>177</ele>
        <time>2019-10-26T10:54:56.000Z</time>
      </trkpt>
      <trkpt lat="47.84565" lon="3.81051">
        <ele>177</ele>
        <time>2019-10-26T10:54:57.000Z</time>
      </trkpt>
      <trkpt lat="47.84564" lon="3.81051">
        <ele>177</ele>
        <time>2019-10-26T10:54:58.000Z</time>
      </trkpt>
      <trkpt lat="47.84562" lon="3.8105">
        <ele>177</ele>
        <time>2019-10-26T10:54:59.000Z</time>
      </trkpt>
      <trkpt lat="47.8456" lon="3.81049">
        <ele>177</ele>
        <time>2019-10-26T10:55:00.000Z</time>
      </trkpt>
      <trkpt lat="47.84558" lon="3.81049">
        <ele>176</ele>
        <time>2019-10-26T10:55:01.000Z</time>
      </trkpt>
      <trkpt lat="47.84556" lon="3.81048">
        <ele>176</ele>
        <time>2019-10-26T10:55:02.000Z</time>
      </trkpt>
      <trkpt lat="47.84554" lon="3.81047">
        <ele>176</ele>
        <time>2019-10-26T10:55:03.000Z</time>
      </trkpt>
      <trkpt lat="47.84552" lon="3.81046">
        <ele>176</ele>
        <time>2019-10-26T10:55:04.000Z</time>
      </trkpt>
      <trkpt lat="47.8455" lon="3.81045">
        <ele>176</ele>
        <time>2019-10-26T10:55:05.000Z</time>
      </trkpt>
      <trkpt lat="47.84548" lon="3.81044">
        <ele>175</ele>
        <time>2019-10-26T10:55:06.000Z</time>
      </trkpt>
      <trkpt lat="47.84546" lon="3.81043">
        <ele>175</ele>
        <time>2019-10-26T10:55:07.000Z</time>
      </trkpt>
      <trkpt lat="47.84543" lon="3.81042">
        <ele>175</ele>
        <time>2019-10-26T10:55:08.000Z</time>
      </trkpt>
      <trkpt lat="47.84541" lon="3.81041">
        <ele>175</ele>
        <time>2019-10-26T10:55:09.000Z</time>
      </trkpt>
      <trkpt lat="47.84539" lon="3.81039">
        <ele>175</ele>
        <time>2019-10-26T10:55:10.000Z</time>
      </trkpt>
      <trkpt lat="47.84536" lon="3.81037">
        <ele>175</ele>
        <time>2019-10-26T10:55:11.000Z</time>
      </trkpt>
      <trkpt lat="47.84534" lon="3.81036">
        <ele>174</ele>
        <time>2019-10-26T10:55:12.000Z</time>
      </trkpt>
      <trkpt lat="47.84532" lon="3.81034">
        <ele>174</ele>
        <time>2019-10-26T10:55:13.000Z</time>
      </trkpt>
      <trkpt lat="47.8453" lon="3.81032">
        <ele>174</ele>
        <time>2019-10-26T10:55:14.000Z</time>
      </trkpt>
      <trkpt lat="47.84527" lon="3.81031">
        <ele>174</ele>
        <time>2019-10-26T10:55:15.000Z</time>
      </trkpt>
      <trkpt lat="47.84525" lon="3.81029">
        <ele>174</ele>
        <time>2019-10-26T10:55:16.000Z</time>
      </trkpt>
      <trkpt lat="47.84523" lon="3.81028">
        <ele>174</ele>
        <time>2019-10-26T10:55:17.000Z</time>
      </trkpt>
      <trkpt lat="47.8452" lon="3.81026">
        <ele>174</ele>
        <time>2019-10-26T10:55:18.000Z</time>
      </trkpt>
      <trkpt lat="47.84518" lon="3.81025">
        <ele>174</ele>
        <time>2019-10-26T10:55:19.000Z</time>
      </trkpt>
      <trkpt lat="47.84516" lon="3.81024">
        <ele>174</ele>
        <time>2019-10-26T10:55:20.000Z</time>
      </trkpt>
      <trkpt lat="47.84513" lon="3.81022">
        <ele>174</ele>
        <time>2019-10-26T10:55:21.000Z</time>
      </trkpt>
      <trkpt lat="47.84511" lon="3.81021">
        <ele>174</ele>
        <time>2019-10-26T10:55:22.000Z</time>
      </trkpt>
      <trkpt lat="47.84509" lon="3.81019">
        <ele>174</ele>
        <time>2019-10-26T10:55:23.000Z</time>
      </trkpt>
      <trkpt lat="47.84506" lon="3.81018">
        <ele>174</ele>
        <time>2019-10-26T10:55:24.000Z</time>
      </trkpt>
      <trkpt lat="47.84504" lon="3.81017">
        <ele>173</ele>
        <time>2019-10-26T10:55:25.000Z</time>
      </trkpt>
      <trkpt lat="47.84502" lon="3.81015">
        <ele>173</ele>
        <time>2019-10-26T10:55:26.000Z</time>
      </trkpt>
      <trkpt lat="47.84499" lon="3.81014">
        <ele>173</ele>
        <time>2019-10-26T10:55:27.000Z</time>
      </trkpt>
      <trkpt lat="47.84497" lon="3.81013">
        <ele>173</ele>
        <time>2019-10-26T10:55:28.000Z</time>
      </trkpt>
      <trkpt lat="47.84495" lon="3.81012">
        <ele>173</ele>
        <time>2019-10-26T10:55:29.000Z</time>
      </trkpt>
      <trkpt lat="47.84492" lon="3.8101">
        <ele>173</ele>
        <time>2019-10-26T10:55:30.000Z</time>
      </trkpt>
      <trkpt lat="47.8449" lon="3.81009">
        <ele>173</ele>
        <time>2019-10-26T10:55:31.000Z</time>
      </trkpt>
      <trkpt lat="47.84488" lon="3.81007">
        <ele>173</ele>
        <time>2019-10-26T10:55:32.000Z</time>
      </trkpt>
      <trkpt lat="47.84485" lon="3.81005">
        <ele>173</ele>
        <time>2019-10-26T10:55:33.000Z</time>
      </trkpt>
      <trkpt lat="47.84483" lon="3.81004">
        <ele>172</ele>
        <time>2019-10-26T10:55:34.000Z</time>
      </trkpt>
      <trkpt lat="47.8448" lon="3.81002">
        <ele>172</ele>
        <time>2019-10-26T10:55:35.000Z</time>
      </trkpt>
      <trkpt lat="47.84478" lon="3.81001">
        <ele>172</ele>
        <time>2019-10-26T10:55:36.000Z</time>
      </trkpt>
      <trkpt lat="47.84476" lon="3.80999">
        <ele>172</ele>
        <time>2019-10-26T10:55:37.000Z</time>
      </trkpt>
      <trkpt lat="47.84473" lon="3.80997">
        <ele>172</ele>
        <time>2019-10-26T10:55:38.000Z</time>
      </trkpt>
      <trkpt lat="47.84471" lon="3.80996">
        <ele>172</ele>
        <time>2019-10-26T10:55:39.000Z</time>
      </trkpt>
      <trkpt lat="47.84468" lon="3.80994">
        <ele>172</ele>
        <time>2019-10-26T10:55:40.000Z</time>
      </trkpt>
      <trkpt lat="47.84466" lon="3.80993">
        <ele>172</ele>
        <time>2019-10-26T10:55:41.000Z</time>
      </trkpt>
      <trkpt lat="47.84464" lon="3.80991">
        <ele>172</ele>
        <time>2019-10-26T10:55:42.000Z</time>
      </trkpt>
      <trkpt lat="47.84461" lon="3.8099">
        <ele>172</ele>
        <time>2019-10-26T10:55:43.000Z</time>
      </trkpt>
      <trkpt lat="47.84459" lon="3.80988">
        <ele>172</ele>
        <time>2019-10-26T10:55:44.000Z</time>
      </trkpt>
      <trkpt lat="47.84457" lon="3.80987">
        <ele>172</ele>
        <time>2019-10-26T10:55:45.000Z</time>
      </trkpt>
      <trkpt lat="47.84454" lon="3.80985">
        <ele>172</ele>
        <time>2019-10-26T10:55:46.000Z</time>
      </trkpt>
      <trkpt lat="47.84452" lon="3.80984">
        <ele>172</ele>
        <time>2019-10-26T10:55:47.000Z</time>
      </trkpt>
      <trkpt lat="47.84449" lon="3.80982">
        <ele>172</ele>
        <time>2019-10-26T10:55:48.000Z</time>
      </trkpt>
      <trkpt lat="47.84447" lon="3.8098">
        <ele>172</ele>
        <time>2019-10-26T10:55:49.000Z</time>
      </trkpt>
      <trkpt lat="47.84445" lon="3.80979">
        <ele>172</ele>
        <time>2019-10-26T10:55:50.000Z</time>
      </trkpt>
      <trkpt lat="47.84442" lon="3.80977">
        <ele>172</ele>
        <time>2019-10-26T10:55:51.000Z</time>
      </trkpt>
      <trkpt lat="47.8444" lon="3.80975">
        <ele>172</ele>
        <time>2019-10-26T10:55:52.000Z</time>
      </trkpt>
      <trkpt lat="47.84438" lon="3.80974">
        <ele>172</ele>
        <time>2019-10-26T10:55:53.000Z</time>
      </trkpt>
      <trkpt lat="47.84435" lon="3.80972">
        <ele>172</ele>
        <time>2019-10-26T10:55:54.000Z</time>
      </trkpt>
      <trkpt lat="47.84433" lon="3.80971">
        <ele>171</ele>
        <time>2019-10-26T10:55:55.000Z</time>
      </trkpt>
      <trkpt lat="47.8443" lon="3.80969">
        <ele>171</ele>
        <time>2019-10-26T10:55:56.000Z</time>
      </trkpt>
      <trkpt lat="47.84428" lon="3.80967">
        <ele>171</ele>
        <time>2019-10-26T10:55:57.000Z</time>
      </trkpt>
      <trkpt lat="47.84425" lon="3.80966">
        <ele>171</ele>
        <time>2019-10-26T10:55:58.000Z</time>
      </trkpt>
      <trkpt lat="47.84423" lon="3.80964">
        <ele>171</ele>
        <time>2019-10-26T10:55:59.000Z</time>
      </trkpt>
      <trkpt lat="47.84421" lon="3.80963">
        <ele>171</ele>
        <time>2019-10-26T10:56:00.000Z</time>
      </trkpt>
      <trkpt lat="47.84418" lon="3.80962">
        <ele>171</ele>
        <time>2019-10-26T10:56:01.000Z</time>
      </trkpt>
      <trkpt lat="47.84416" lon="3.80961">
        <ele>171</ele>
        <time>2019-10-26T10:56:02.000Z</time>
      </trkpt>
      <trkpt lat="47.84413" lon="3.8096">
        <ele>171</ele>
        <time>2019-10-26T10:56:03.000Z</time>
      </trkpt>
      <trkpt lat="47.84411" lon="3.80958">
        <ele>171</ele>
        <time>2019-10-26T10:56:04.000Z</time>
      </trkpt>
      <trkpt lat="47.84408" lon="3.80957">
        <ele>171</ele>
        <time>2019-10-26T10:56:05.000Z</time>
      </trkpt>
      <trkpt lat="47.84406" lon="3.80956">
        <ele>171</ele>
        <time>2019-10-26T10:56:06.000Z</time>
      </trkpt>
      <trkpt lat="47.84404" lon="3.80954">
        <ele>171</ele>
        <time>2019-10-26T10:56:07.000Z</time>
      </trkpt>
      <trkpt lat="47.84401" lon="3.80953">
        <ele>171</ele>
        <time>2019-10-26T10:56:08.000Z</time>
      </trkpt>
      <trkpt lat="47.84399" lon="3.80952">
        <ele>171</ele>
        <time>2019-10-26T10:56:09.000Z</time>
      </trkpt>
      <trkpt lat="47.84396" lon="3.80951">
        <ele>171</ele>
        <time>2019-10-26T10:56:10.000Z</time>
      </trkpt>
      <trkpt lat="47.84394" lon="3.8095">
        <ele>171</ele>
        <time>2019-10-26T10:56:11.000Z</time>
      </trkpt>
      <trkpt lat="47.84391" lon="3.80948">
        <ele>171</ele>
        <time>2019-10-26T10:56:12.000Z</time>
      </trkpt>
      <trkpt lat="47.84389" lon="3.80947">
        <ele>171</ele>
        <time>2019-10-26T10:56:13.000Z</time>
      </trkpt>
      <trkpt lat="47.84387" lon="3.80946">
        <ele>171</ele>
        <time>2019-10-26T10:56:14.000Z</time>
      </trkpt>
      <trkpt lat="47.84384" lon="3.80946">
        <ele>171</ele>
        <time>2019-10-26T10:56:15.000Z</time>
      </trkpt>
      <trkpt lat="47.84382" lon="3.80945">
        <ele>171</ele>
        <time>2019-10-26T10:56:16.000Z</time>
      </trkpt>
      <trkpt lat="47.8438" lon="3.80944">
        <ele>171</ele>
        <time>2019-10-26T10:56:17.000Z</time>
      </trkpt>
      <trkpt lat="47.84378" lon="3.80943">
        <ele>171</ele>
        <time>2019-10-26T10:56:18.000Z</time>
      </trkpt>
      <trkpt lat="47.84376" lon="3.80942">
        <ele>171</ele>
        <time>2019-10-26T10:56:19.000Z</time>
      </trkpt>
      <trkpt lat="47.84373" lon="3.80941">
        <ele>171</ele>
        <time>2019-10-26T10:56:20.000Z</time>
      </trkpt>
      <trkpt lat="47.84371" lon="3.8094">
        <ele>171</ele>
        <time>2019-10-26T10:56:21.000Z</time>
      </trkpt>
      <trkpt lat="47.84369" lon="3.80939">
        <ele>171</ele>
        <time>2019-10-26T10:56:22.000Z</time>
      </trkpt>
      <trkpt lat="47.84366" lon="3.80938">
        <ele>171</ele>
        <time>2019-10-26T10:56:23.000Z</time>
      </trkpt>
      <trkpt lat="47.84364" lon="3.80937">
        <ele>171</ele>
        <time>2019-10-26T10:56:24.000Z</time>
      </trkpt>
      <trkpt lat="47.84361" lon="3.80935">
        <ele>170</ele>
        <time>2019-10-26T10:56:25.000Z</time>
      </trkpt>
      <trkpt lat="47.84359" lon="3.80934">
        <ele>170</ele>
        <time>2019-10-26T10:56:26.000Z</time>
      </trkpt>
      <trkpt lat="47.84356" lon="3.80932">
        <ele>170</ele>
        <time>2019-10-26T10:56:27.000Z</time>
      </trkpt>
      <trkpt lat="47.84353" lon="3.80931">
        <ele>170</ele>
        <time>2019-10-26T10:56:28.000Z</time>
      </trkpt>
      <trkpt lat="47.8435" lon="3.8093">
        <ele>170</ele>
        <time>2019-10-26T10:56:29.000Z</time>
      </trkpt>
      <trkpt lat="47.84348" lon="3.80929">
        <ele>170</ele>
        <time>2019-10-26T10:56:30.000Z</time>
      </trkpt>
      <trkpt lat="47.84345" lon="3.80927">
        <ele>170</ele>
        <time>2019-10-26T10:56:31.000Z</time>
      </trkpt>
      <trkpt lat="47.84342" lon="3.80926">
        <ele>170</ele>
        <time>2019-10-26T10:56:32.000Z</time>
      </trkpt>
      <trkpt lat="47.8434" lon="3.80925">
        <ele>170</ele>
        <time>2019-10-26T10:56:33.000Z</time>
      </trkpt>
      <trkpt lat="47.84337" lon="3.80924">
        <ele>169</ele>
        <time>2019-10-26T10:56:34.000Z</time>
      </trkpt>
      <trkpt lat="47.84335" lon="3.80923">
        <ele>169</ele>
        <time>2019-10-26T10:56:35.000Z</time>
      </trkpt>
      <trkpt lat="47.84332" lon="3.80922">
        <ele>169</ele>
        <time>2019-10-26T10:56:36.000Z</time>
      </trkpt>
      <trkpt lat="47.8433" lon="3.8092">
        <ele>169</ele>
        <time>2019-10-26T10:56:37.000Z</time>
      </trkpt>
      <trkpt lat="47.84327" lon="3.80919">
        <ele>169</ele>
        <time>2019-10-26T10:56:38.000Z</time>
      </trkpt>
      <trkpt lat="47.84324" lon="3.80918">
        <ele>169</ele>
        <time>2019-10-26T10:56:39.000Z</time>
      </trkpt>
      <trkpt lat="47.84322" lon="3.80917">
        <ele>168</ele>
        <time>2019-10-26T10:56:40.000Z</time>
      </trkpt>
      <trkpt lat="47.84319" lon="3.80915">
        <ele>168</ele>
        <time>2019-10-26T10:56:41.000Z</time>
      </trkpt>
      <trkpt lat="47.84317" lon="3.80914">
        <ele>168</ele>
        <time>2019-10-26T10:56:42.000Z</time>
      </trkpt>
      <trkpt lat="47.84314" lon="3.80912">
        <ele>168</ele>
        <time>2019-10-26T10:56:43.000Z</time>
      </trkpt>
      <trkpt lat="47.84312" lon="3.80911">
        <ele>168</ele>
        <time>2019-10-26T10:56:44.000Z</time>
      </trkpt>
      <trkpt lat="47.84309" lon="3.80909">
        <ele>168</ele>
        <time>2019-10-26T10:56:45.000Z</time>
      </trkpt>
      <trkpt lat="47.84307" lon="3.80907">
        <ele>168</ele>
        <time>2019-10-26T10:56:46.000Z</time>
      </trkpt>
      <trkpt lat="47.84305" lon="3.80905">
        <ele>168</ele>
        <time>2019-10-26T10:56:47.000Z</time>
      </trkpt>
      <trkpt lat="47.84302" lon="3.80903">
        <ele>168</ele>
        <time>2019-10-26T10:56:48.000Z</time>
      </trkpt>
      <trkpt lat="47.843" lon="3.80901">
        <ele>168</ele>
        <time>2019-10-26T10:56:49.000Z</time>
      </trkpt>
      <trkpt lat="47.84298" lon="3.80899">
        <ele>168</ele>
        <time>2019-10-26T10:56:50.000Z</time>
      </trkpt>
      <trkpt lat="47.84295" lon="3.80897">
        <ele>168</ele>
        <time>2019-10-26T10:56:51.000Z</time>
      </trkpt>
      <trkpt lat="47.84293" lon="3.80895">
        <ele>168</ele>
        <time>2019-10-26T10:56:52.000Z</time>
      </trkpt>
      <trkpt lat="47.84291" lon="3.80893">
        <ele>168</ele>
        <time>2019-10-26T10:56:53.000Z</time>
      </trkpt>
      <trkpt lat="47.84289" lon="3.80891">
        <ele>168</ele>
        <time>2019-10-26T10:56:54.000Z</time>
      </trkpt>
      <trkpt lat="47.84286" lon="3.80889">
        <ele>168</ele>
        <time>2019-10-26T10:56:55.000Z</time>
      </trkpt>
      <trkpt lat="47.84284" lon="3.80887">
        <ele>168</ele>
        <time>2019-10-26T10:56:56.000Z</time>
      </trkpt>
      <trkpt lat="47.84282" lon="3.80885">
        <ele>168</ele>
        <time>2019-10-26T10:56:57.000Z</time>
      </trkpt>
      <trkpt lat="47.8428" lon="3.80884">
        <ele>168</ele>
        <time>2019-10-26T10:56:58.000Z</time>
      </trkpt>
      <trkpt lat="47.84278" lon="3.80882">
        <ele>168</ele>
        <time>2019-10-26T10:56:59.000Z</time>
      </trkpt>
      <trkpt lat="47.84276" lon="3.8088">
        <ele>168</ele>
        <time>2019-10-26T10:57:00.000Z</time>
      </trkpt>
      <trkpt lat="47.84274" lon="3.80879">
        <ele>168</ele>
        <time>2019-10-26T10:57:01.000Z</time>
      </trkpt>
      <trkpt lat="47.84272" lon="3.80877">
        <ele>168</ele>
        <time>2019-10-26T10:57:02.000Z</time>
      </trkpt>
      <trkpt lat="47.8427" lon="3.80877">
        <ele>168</ele>
        <time>2019-10-26T10:57:03.000Z</time>
      </trkpt>
      <trkpt lat="47.84268" lon="3.80877">
        <ele>167</ele>
        <time>2019-10-26T10:57:04.000Z</time>
      </trkpt>
      <trkpt lat="47.84266" lon="3.80878">
        <ele>167</ele>
        <time>2019-10-26T10:57:05.000Z</time>
      </trkpt>
      <trkpt lat="47.84264" lon="3.80879">
        <ele>167</ele>
        <time>2019-10-26T10:57:06.000Z</time>
      </trkpt>
      <trkpt lat="47.84262" lon="3.80881">
        <ele>167</ele>
        <time>2019-10-26T10:57:07.000Z</time>
      </trkpt>
      <trkpt lat="47.8426" lon="3.80883">
        <ele>167</ele>
        <time>2019-10-26T10:57:08.000Z</time>
      </trkpt>
      <trkpt lat="47.84259" lon="3.80885">
        <ele>167</ele>
        <time>2019-10-26T10:57:09.000Z</time>
      </trkpt>
      <trkpt lat="47.84257" lon="3.80888">
        <ele>167</ele>
        <time>2019-10-26T10:57:10.000Z</time>
      </trkpt>
      <trkpt lat="47.84256" lon="3.8089">
        <ele>167</ele>
        <time>2019-10-26T10:57:11.000Z</time>
      </trkpt>
      <trkpt lat="47.84254" lon="3.80893">
        <ele>167</ele>
        <time>2019-10-26T10:57:12.000Z</time>
      </trkpt>
      <trkpt lat="47.84253" lon="3.80896">
        <ele>167</ele>
        <time>2019-10-26T10:57:13.000Z</time>
      </trkpt>
      <trkpt lat="47.84252" lon="3.80898">
        <ele>168</ele>
        <time>2019-10-26T10:57:14.000Z</time>
      </trkpt>
      <trkpt lat="47.8425" lon="3.80901">
        <ele>168</ele>
        <time>2019-10-26T10:57:15.000Z</time>
      </trkpt>
      <trkpt lat="47.84249" lon="3.80903">
        <ele>168</ele>
        <time>2019-10-26T10:57:16.000Z</time>
      </trkpt>
      <trkpt lat="47.84248" lon="3.80906">
        <ele>168</ele>
        <time>2019-10-26T10:57:17.000Z</time>
      </trkpt>
      <trkpt lat="47.84246" lon="3.80909">
        <ele>169</ele>
        <time>2019-10-26T10:57:18.000Z</time>
      </trkpt>
      <trkpt lat="47.84245" lon="3.80911">
        <ele>169</ele>
        <time>2019-10-26T10:57:19.000Z</time>
      </trkpt>
      <trkpt lat="47.84244" lon="3.80914">
        <ele>169</ele>
        <time>2019-10-26T10:57:20.000Z</time>
      </trkpt>
      <trkpt lat="47.84242" lon="3.80916">
        <ele>170</ele>
        <time>2019-10-26T10:57:21.000Z</time>
      </trkpt>
      <trkpt lat="47.84241" lon="3.80918">
        <ele>170</ele>
        <time>2019-10-26T10:57:22.000Z</time>
      </trkpt>
      <trkpt lat="47.8424" lon="3.80921">
        <ele>170</ele>
        <time>2019-10-26T10:57:23.000Z</time>
      </trkpt>
      <trkpt lat="47.84238" lon="3.80923">
        <ele>170</ele>
        <time>2019-10-26T10:57:24.000Z</time>
      </trkpt>
      <trkpt lat="47.84237" lon="3.80925">
        <ele>170</ele>
        <time>2019-10-26T10:57:25.000Z</time>
      </trkpt>
      <trkpt lat="47.84236" lon="3.80928">
        <ele>171</ele>
        <time>2019-10-26T10:57:26.000Z</time>
      </trkpt>
      <trkpt lat="47.84235" lon="3.80929">
        <ele>171</ele>
        <time>2019-10-26T10:57:27.000Z</time>
      </trkpt>
      <trkpt lat="47.84234" lon="3.80931">
        <ele>171</ele>
        <time>2019-10-26T10:57:28.000Z</time>
      </trkpt>
      <trkpt lat="47.84232" lon="3.80933">
        <ele>171</ele>
        <time>2019-10-26T10:57:29.000Z</time>
      </trkpt>
      <trkpt lat="47.84231" lon="3.80934">
        <ele>171</ele>
        <time>2019-10-26T10:57:30.000Z</time>
      </trkpt>
      <trkpt lat="47.8423" lon="3.80936">
        <ele>172</ele>
        <time>2019-10-26T10:57:31.000Z</time>
      </trkpt>
      <trkpt lat="47.84229" lon="3.80938">
        <ele>172</ele>
        <time>2019-10-26T10:57:32.000Z</time>
      </trkpt>
      <trkpt lat="47.84228" lon="3.8094">
        <ele>172</ele>
        <time>2019-10-26T10:57:33.000Z</time>
      </trkpt>
      <trkpt lat="47.84227" lon="3.80942">
        <ele>172</ele>
        <time>2019-10-26T10:57:34.000Z</time>
      </trkpt>
      <trkpt lat="47.84226" lon="3.80943">
        <ele>173</ele>
        <time>2019-10-26T10:57:35.000Z</time>
      </trkpt>
      <trkpt lat="47.84225" lon="3.80945">
        <ele>173</ele>
        <time>2019-10-26T10:57:36.000Z</time>
      </trkpt>
      <trkpt lat="47.84224" lon="3.80947">
        <ele>173</ele>
        <time>2019-10-26T10:57:37.000Z</time>
      </trkpt>
      <trkpt lat="47.84223" lon="3.80948">
        <ele>174</ele>
        <time>2019-10-26T10:57:38.000Z</time>
      </trkpt>
      <trkpt lat="47.84223" lon="3.8095">
        <ele>174</ele>
        <time>2019-10-26T10:57:39.000Z</time>
      </trkpt>
      <trkpt lat="47.84222" lon="3.80951">
        <ele>174</ele>
        <time>2019-10-26T10:57:40.000Z</time>
      </trkpt>
      <trkpt lat="47.84221" lon="3.80953">
        <ele>175</ele>
        <time>2019-10-26T10:57:41.000Z</time>
      </trkpt>
      <trkpt lat="47.8422" lon="3.80955">
        <ele>175</ele>
        <time>2019-10-26T10:57:42.000Z</time>
      </trkpt>
      <trkpt lat="47.8422" lon="3.80956">
        <ele>175</ele>
        <time>2019-10-26T10:57:43.000Z</time>
      </trkpt>
      <trkpt lat="47.84219" lon="3.80958">
        <ele>176</ele>
        <time>2019-10-26T10:57:44.000Z</time>
      </trkpt>
      <trkpt lat="47.84218" lon="3.8096">
        <ele>176</ele>
        <time>2019-10-26T10:57:45.000Z</time>
      </trkpt>
      <trkpt lat="47.84217" lon="3.80962">
        <ele>177</ele>
        <time>2019-10-26T10:57:46.000Z</time>
      </trkpt>
      <trkpt lat="47.84216" lon="3.80964">
        <ele>177</ele>
        <time>2019-10-26T10:57:47.000Z</time>
      </trkpt>
      <trkpt lat="47.84215" lon="3.80966">
        <ele>178</ele>
        <time>2019-10-26T10:57:48.000Z</time>
      </trkpt>
      <trkpt lat="47.84214" lon="3.80968">
        <ele>178</ele>
        <time>2019-10-26T10:57:49.000Z</time>
      </trkpt>
      <trkpt lat="47.84213" lon="3.80969">
        <ele>178</ele>
        <time>2019-10-26T10:57:50.000Z</time>
      </trkpt>
      <trkpt lat="47.84212" lon="3.80971">
        <ele>179</ele>
        <time>2019-10-26T10:57:51.000Z</time>
      </trkpt>
      <trkpt lat="47.84211" lon="3.80972">
        <ele>179</ele>
        <time>2019-10-26T10:57:52.000Z</time>
      </trkpt>
      <trkpt lat="47.8421" lon="3.80974">
        <ele>179</ele>
        <time>2019-10-26T10:57:53.000Z</time>
      </trkpt>
      <trkpt lat="47.84209" lon="3.80975">
        <ele>179</ele>
        <time>2019-10-26T10:57:54.000Z</time>
      </trkpt>
      <trkpt lat="47.84208" lon="3.80977">
        <ele>179</ele>
        <time>2019-10-26T10:57:55.000Z</time>
      </trkpt>
      <trkpt lat="47.84207" lon="3.80979">
        <ele>179</ele>
        <time>2019-10-26T10:57:56.000Z</time>
      </trkpt>
      <trkpt lat="47.84206" lon="3.80981">
        <ele>180</ele>
        <time>2019-10-26T10:57:57.000Z</time>
      </trkpt>
      <trkpt lat="47.84205" lon="3.80982">
        <ele>180</ele>
        <time>2019-10-26T10:57:58.000Z</time>
      </trkpt>
      <trkpt lat="47.84204" lon="3.80984">
        <ele>180</ele>
        <time>2019-10-26T10:57:59.000Z</time>
      </trkpt>
      <trkpt lat="47.84203" lon="3.80986">
        <ele>180</ele>
        <time>2019-10-26T10:58:00.000Z</time>
      </trkpt>
      <trkpt lat="47.84202" lon="3.80987">
        <ele>180</ele>
        <time>2019-10-26T10:58:01.000Z</time>
      </trkpt>
      <trkpt lat="47.84201" lon="3.80989">
        <ele>180</ele>
        <time>2019-10-26T10:58:02.000Z</time>
      </trkpt>
      <trkpt lat="47.842" lon="3.80991">
        <ele>180</ele>
        <time>2019-10-26T10:58:03.000Z</time>
      </trkpt>
      <trkpt lat="47.84198" lon="3.80992">
        <ele>180</ele>
        <time>2019-10-26T10:58:04.000Z</time>
      </trkpt>
      <trkpt lat="47.84197" lon="3.80994">
        <ele>181</ele>
        <time>2019-10-26T10:58:05.000Z</time>
      </trkpt>
      <trkpt lat="47.84196" lon="3.80995">
        <ele>181</ele>
        <time>2019-10-26T10:58:06.000Z</time>
      </trkpt>
      <trkpt lat="47.84195" lon="3.80996">
        <ele>181</ele>
        <time>2019-10-26T10:58:07.000Z</time>
      </trkpt>
      <trkpt lat="47.84194" lon="3.80997">
        <ele>181</ele>
        <time>2019-10-26T10:58:08.000Z</time>
      </trkpt>
      <trkpt lat="47.84193" lon="3.80999">
        <ele>181</ele>
        <time>2019-10-26T10:58:09.000Z</time>
      </trkpt>
      <trkpt lat="47.84192" lon="3.81">
        <ele>181</ele>
        <time>2019-10-26T10:58:10.000Z</time>
      </trkpt>
      <trkpt lat="47.84191" lon="3.81001">
        <ele>182</ele>
        <time>2019-10-26T10:58:11.000Z</time>
      </trkpt>
      <trkpt lat="47.8419" lon="3.81002">
        <ele>182</ele>
        <time>2019-10-26T10:58:12.000Z</time>
      </trkpt>
      <trkpt lat="47.84189" lon="3.81003">
        <ele>182</ele>
        <time>2019-10-26T10:58:13.000Z</time>
      </trkpt>
      <trkpt lat="47.84188" lon="3.81004">
        <ele>182</ele>
        <time>2019-10-26T10:58:14.000Z</time>
      </trkpt>
      <trkpt lat="47.84187" lon="3.81006">
        <ele>182</ele>
        <time>2019-10-26T10:58:15.000Z</time>
      </trkpt>
      <trkpt lat="47.84186" lon="3.81007">
        <ele>182</ele>
        <time>2019-10-26T10:58:16.000Z</time>
      </trkpt>
      <trkpt lat="47.84185" lon="3.81008">
        <ele>182</ele>
        <time>2019-10-26T10:58:17.000Z</time>
      </trkpt>
      <trkpt lat="47.84184" lon="3.8101">
        <ele>182</ele>
        <time>2019-10-26T10:58:18.000Z</time>
      </trkpt>
      <trkpt lat="47.84183" lon="3.81011">
        <ele>182</ele>
        <time>2019-10-26T10:58:19.000Z</time>
      </trkpt>
      <trkpt lat="47.84182" lon="3.81012">
        <ele>182</ele>
        <time>2019-10-26T10:58:20.000Z</time>
      </trkpt>
      <trkpt lat="47.84181" lon="3.81013">
        <ele>183</ele>
        <time>2019-10-26T10:58:21.000Z</time>
      </trkpt>
      <trkpt lat="47.8418" lon="3.81014">
        <ele>183</ele>
        <time>2019-10-26T10:58:22.000Z</time>
      </trkpt>
      <trkpt lat="47.8418" lon="3.81015">
        <ele>183</ele>
        <time>2019-10-26T10:58:23.000Z</time>
      </trkpt>
      <trkpt lat="47.84179" lon="3.81017">
        <ele>183</ele>
        <time>2019-10-26T10:58:24.000Z</time>
      </trkpt>
      <trkpt lat="47.84178" lon="3.81018">
        <ele>183</ele>
        <time>2019-10-26T10:58:25.000Z</time>
      </trkpt>
      <trkpt lat="47.84176" lon="3.81019">
        <ele>183</ele>
        <time>2019-10-26T10:58:26.000Z</time>
      </trkpt>
      <trkpt lat="47.84175" lon="3.81021">
        <ele>183</ele>
        <time>2019-10-26T10:58:27.000Z</time>
      </trkpt>
      <trkpt lat="47.84175" lon="3.81022">
        <ele>184</ele>
        <time>2019-10-26T10:58:28.000Z</time>
      </trkpt>
      <trkpt lat="47.84174" lon="3.81023">
        <ele>184</ele>
        <time>2019-10-26T10:58:29.000Z</time>
      </trkpt>
      <trkpt lat="47.84173" lon="3.81024">
        <ele>184</ele>
        <time>2019-10-26T10:58:30.000Z</time>
      </trkpt>
      <trkpt lat="47.84172" lon="3.81025">
        <ele>184</ele>
        <time>2019-10-26T10:58:31.000Z</time>
      </trkpt>
      <trkpt lat="47.84171" lon="3.81026">
        <ele>184</ele>
        <time>2019-10-26T10:58:32.000Z</time>
      </trkpt>
      <trkpt lat="47.84169" lon="3.81028">
        <ele>185</ele>
        <time>2019-10-26T10:58:33.000Z</time>
      </trkpt>
      <trkpt lat="47.84168" lon="3.81029">
        <ele>185</ele>
        <time>2019-10-26T10:58:34.000Z</time>
      </trkpt>
      <trkpt lat="47.84167" lon="3.8103">
        <ele>185</ele>
        <time>2019-10-26T10:58:35.000Z</time>
      </trkpt>
      <trkpt lat="47.84166" lon="3.81031">
        <ele>185</ele>
        <time>2019-10-26T10:58:36.000Z</time>
      </trkpt>
      <trkpt lat="47.84165" lon="3.81032">
        <ele>185</ele>
        <time>2019-10-26T10:58:37.000Z</time>
      </trkpt>
      <trkpt lat="47.84164" lon="3.81034">
        <ele>185</ele>
        <time>2019-10-26T10:58:38.000Z</time>
      </trkpt>
      <trkpt lat="47.84163" lon="3.81035">
        <ele>185</ele>
        <time>2019-10-26T10:58:39.000Z</time>
      </trkpt>
      <trkpt lat="47.84162" lon="3.81036">
        <ele>185</ele>
        <time>2019-10-26T10:58:40.000Z</time>
      </trkpt>
      <trkpt lat="47.84161" lon="3.81037">
        <ele>186</ele>
        <time>2019-10-26T10:58:41.000Z</time>
      </trkpt>
      <trkpt lat="47.84161" lon="3.81037">
        <ele>186</ele>
        <time>2019-10-26T10:58:42.000Z</time>
      </trkpt>
      <trkpt lat="47.8416" lon="3.81038">
        <ele>186</ele>
        <time>2019-10-26T10:58:43.000Z</time>
      </trkpt>
      <trkpt lat="47.84159" lon="3.81039">
        <ele>186</ele>
        <time>2019-10-26T10:58:44.000Z</time>
      </trkpt>
      <trkpt lat="47.84158" lon="3.81041">
        <ele>186</ele>
        <time>2019-10-26T10:58:45.000Z</time>
      </trkpt>
      <trkpt lat="47.84157" lon="3.81041">
        <ele>186</ele>
        <time>2019-10-26T10:58:46.000Z</time>
      </trkpt>
      <trkpt lat="47.84156" lon="3.81042">
        <ele>187</ele>
        <time>2019-10-26T10:58:47.000Z</time>
      </trkpt>
      <trkpt lat="47.84155" lon="3.81044">
        <ele>187</ele>
        <time>2019-10-26T10:58:48.000Z</time>
      </trkpt>
      <trkpt lat="47.84154" lon="3.81045">
        <ele>187</ele>
        <time>2019-10-26T10:58:49.000Z</time>
      </trkpt>
      <trkpt lat="47.84153" lon="3.81046">
        <ele>187</ele>
        <time>2019-10-26T10:58:50.000Z</time>
      </trkpt>
      <trkpt lat="47.84152" lon="3.81046">
        <ele>187</ele>
        <time>2019-10-26T10:58:51.000Z</time>
      </trkpt>
      <trkpt lat="47.84151" lon="3.81047">
        <ele>187</ele>
        <time>2019-10-26T10:58:52.000Z</time>
      </trkpt>
      <trkpt lat="47.8415" lon="3.81048">
        <ele>187</ele>
        <time>2019-10-26T10:58:53.000Z</time>
      </trkpt>
      <trkpt lat="47.8415" lon="3.81049">
        <ele>187</ele>
        <time>2019-10-26T10:58:54.000Z</time>
      </trkpt>
      <trkpt lat="47.84149" lon="3.8105">
        <ele>187</ele>
        <time>2019-10-26T10:58:55.000Z</time>
      </trkpt>
      <trkpt lat="47.84148" lon="3.81051">
        <ele>188</ele>
        <time>2019-10-26T10:58:56.000Z</time>
      </trkpt>
      <trkpt lat="47.84147" lon="3.81052">
        <ele>188</ele>
        <time>2019-10-26T10:58:57.000Z</time>
      </trkpt>
      <trkpt lat="47.84146" lon="3.81053">
        <ele>188</ele>
        <time>2019-10-26T10:58:58.000Z</time>
      </trkpt>
      <trkpt lat="47.84145" lon="3.81054">
        <ele>188</ele>
        <time>2019-10-26T10:58:59.000Z</time>
      </trkpt>
      <trkpt lat="47.84144" lon="3.81055">
        <ele>188</ele>
        <time>2019-10-26T10:59:00.000Z</time>
      </trkpt>
      <trkpt lat="47.84143" lon="3.81056">
        <ele>188</ele>
        <time>2019-10-26T10:59:01.000Z</time>
      </trkpt>
      <trkpt lat="47.84142" lon="3.81057">
        <ele>188</ele>
        <time>2019-10-26T10:59:02.000Z</time>
      </trkpt>
      <trkpt lat="47.84141" lon="3.81058">
        <ele>188</ele>
        <time>2019-10-26T10:59:03.000Z</time>
      </trkpt>
      <trkpt lat="47.8414" lon="3.81059">
        <ele>189</ele>
        <time>2019-10-26T10:59:04.000Z</time>
      </trkpt>
      <trkpt lat="47.84139" lon="3.8106">
        <ele>189</ele>
        <time>2019-10-26T10:59:05.000Z</time>
      </trkpt>
      <trkpt lat="47.84138" lon="3.81061">
        <ele>189</ele>
        <time>2019-10-26T10:59:06.000Z</time>
      </trkpt>
      <trkpt lat="47.84137" lon="3.81061">
        <ele>189</ele>
        <time>2019-10-26T10:59:07.000Z</time>
      </trkpt>
      <trkpt lat="47.84136" lon="3.81063">
        <ele>189</ele>
        <time>2019-10-26T10:59:08.000Z</time>
      </trkpt>
      <trkpt lat="47.84135" lon="3.81064">
        <ele>189</ele>
        <time>2019-10-26T10:59:09.000Z</time>
      </trkpt>
      <trkpt lat="47.84134" lon="3.81065">
        <ele>189</ele>
        <time>2019-10-26T10:59:10.000Z</time>
      </trkpt>
      <trkpt lat="47.84133" lon="3.81065">
        <ele>189</ele>
        <time>2019-10-26T10:59:11.000Z</time>
      </trkpt>
      <trkpt lat="47.84132" lon="3.81066">
        <ele>189</ele>
        <time>2019-10-26T10:59:12.000Z</time>
      </trkpt>
      <trkpt lat="47.84131" lon="3.81067">
        <ele>189</ele>
        <time>2019-10-26T10:59:13.000Z</time>
      </trkpt>
      <trkpt lat="47.8413" lon="3.81067">
        <ele>190</ele>
        <time>2019-10-26T10:59:14.000Z</time>
      </trkpt>
      <trkpt lat="47.84129" lon="3.81068">
        <ele>190</ele>
        <time>2019-10-26T10:59:15.000Z</time>
      </trkpt>
      <trkpt lat="47.84128" lon="3.81069">
        <ele>190</ele>
        <time>2019-10-26T10:59:16.000Z</time>
      </trkpt>
      <trkpt lat="47.84127" lon="3.8107">
        <ele>190</ele>
        <time>2019-10-26T10:59:17.000Z</time>
      </trkpt>
      <trkpt lat="47.84126" lon="3.8107">
        <ele>190</ele>
        <time>2019-10-26T10:59:18.000Z</time>
      </trkpt>
      <trkpt lat="47.84125" lon="3.81071">
        <ele>190</ele>
        <time>2019-10-26T10:59:19.000Z</time>
      </trkpt>
      <trkpt lat="47.84124" lon="3.81072">
        <ele>190</ele>
        <time>2019-10-26T10:59:20.000Z</time>
      </trkpt>
      <trkpt lat="47.84123" lon="3.81073">
        <ele>190</ele>
        <time>2019-10-26T10:59:21.000Z</time>
      </trkpt>
      <trkpt lat="47.84121" lon="3.81074">
        <ele>190</ele>
        <time>2019-10-26T10:59:22.000Z</time>
      </trkpt>
      <trkpt lat="47.84121" lon="3.81074">
        <ele>191</ele>
        <time>2019-10-26T10:59:23.000Z</time>
      </trkpt>
      <trkpt lat="47.8412" lon="3.81075">
        <ele>191</ele>
        <time>2019-10-26T10:59:24.000Z</time>
      </trkpt>
      <trkpt lat="47.84118" lon="3.81076">
        <ele>191</ele>
        <time>2019-10-26T10:59:25.000Z</time>
      </trkpt>
      <trkpt lat="47.84117" lon="3.81077">
        <ele>192</ele>
        <time>2019-10-26T10:59:26.000Z</time>
      </trkpt>
      <trkpt lat="47.84116" lon="3.81077">
        <ele>192</ele>
        <time>2019-10-26T10:59:27.000Z</time>
      </trkpt>
      <trkpt lat="47.84115" lon="3.81078">
        <ele>192</ele>
        <time>2019-10-26T10:59:28.000Z</time>
      </trkpt>
      <trkpt lat="47.84114" lon="3.81078">
        <ele>192</ele>
        <time>2019-10-26T10:59:29.000Z</time>
      </trkpt>
      <trkpt lat="47.84113" lon="3.81079">
        <ele>193</ele>
        <time>2019-10-26T10:59:30.000Z</time>
      </trkpt>
      <trkpt lat="47.84112" lon="3.8108">
        <ele>193</ele>
        <time>2019-10-26T10:59:31.000Z</time>
      </trkpt>
      <trkpt lat="47.84111" lon="3.81081">
        <ele>193</ele>
        <time>2019-10-26T10:59:32.000Z</time>
      </trkpt>
      <trkpt lat="47.8411" lon="3.81082">
        <ele>193</ele>
        <time>2019-10-26T10:59:33.000Z</time>
      </trkpt>
      <trkpt lat="47.84109" lon="3.81082">
        <ele>193</ele>
        <time>2019-10-26T10:59:34.000Z</time>
      </trkpt>
      <trkpt lat="47.84108" lon="3.81083">
        <ele>193</ele>
        <time>2019-10-26T10:59:35.000Z</time>
      </trkpt>
      <trkpt lat="47.84107" lon="3.81084">
        <ele>194</ele>
        <time>2019-10-26T10:59:36.000Z</time>
      </trkpt>
      <trkpt lat="47.84106" lon="3.81084">
        <ele>194</ele>
        <time>2019-10-26T10:59:37.000Z</time>
      </trkpt>
      <trkpt lat="47.84105" lon="3.81084">
        <ele>194</ele>
        <time>2019-10-26T10:59:38.000Z</time>
      </trkpt>
      <trkpt lat="47.84104" lon="3.81085">
        <ele>194</ele>
        <time>2019-10-26T10:59:39.000Z</time>
      </trkpt>
      <trkpt lat="47.84104" lon="3.81085">
        <ele>194</ele>
        <time>2019-10-26T10:59:40.000Z</time>
      </trkpt>
      <trkpt lat="47.84103" lon="3.81086">
        <ele>195</ele>
        <time>2019-10-26T10:59:41.000Z</time>
      </trkpt>
      <trkpt lat="47.84102" lon="3.81086">
        <ele>195</ele>
        <time>2019-10-26T10:59:42.000Z</time>
      </trkpt>
      <trkpt lat="47.841" lon="3.81087">
        <ele>195</ele>
        <time>2019-10-26T10:59:43.000Z</time>
      </trkpt>
      <trkpt lat="47.84099" lon="3.81087">
        <ele>195</ele>
        <time>2019-10-26T10:59:44.000Z</time>
      </trkpt>
      <trkpt lat="47.84099" lon="3.81088">
        <ele>195</ele>
        <time>2019-10-26T10:59:45.000Z</time>
      </trkpt>
      <trkpt lat="47.84098" lon="3.81088">
        <ele>196</ele>
        <time>2019-10-26T10:59:46.000Z</time>
      </trkpt>
      <trkpt lat="47.84097" lon="3.81089">
        <ele>196</ele>
        <time>2019-10-26T10:59:47.000Z</time>
      </trkpt>
      <trkpt lat="47.84096" lon="3.81089">
        <ele>196</ele>
        <time>2019-10-26T10:59:48.000Z</time>
      </trkpt>
      <trkpt lat="47.84095" lon="3.81089">
        <ele>196</ele>
        <time>2019-10-26T10:59:49.000Z</time>
      </trkpt>
      <trkpt lat="47.84094" lon="3.8109">
        <ele>196</ele>
        <time>2019-10-26T10:59:50.000Z</time>
      </trkpt>
      <trkpt lat="47.84094" lon="3.81091">
        <ele>196</ele>
        <time>2019-10-26T10:59:51.000Z</time>
      </trkpt>
      <trkpt lat="47.84093" lon="3.81091">
        <ele>197</ele>
        <time>2019-10-26T10:59:52.000Z</time>
      </trkpt>
      <trkpt lat="47.84092" lon="3.81092">
        <ele>197</ele>
        <time>2019-10-26T10:59:53.000Z</time>
      </trkpt>
      <trkpt lat="47.84091" lon="3.81093">
        <ele>197</ele>
        <time>2019-10-26T10:59:54.000Z</time>
      </trkpt>
      <trkpt lat="47.84091" lon="3.81093">
        <ele>197</ele>
        <time>2019-10-26T10:59:55.000Z</time>
      </trkpt>
      <trkpt lat="47.8409" lon="3.81094">
        <ele>197</ele>
        <time>2019-10-26T10:59:56.000Z</time>
      </trkpt>
      <trkpt lat="47.84089" lon="3.81095">
        <ele>197</ele>
        <time>2019-10-26T10:59:57.000Z</time>
      </trkpt>
      <trkpt lat="47.84088" lon="3.81095">
        <ele>197</ele>
        <time>2019-10-26T10:59:58.000Z</time>
      </trkpt>
      <trkpt lat="47.84087" lon="3.81095">
        <ele>198</ele>
        <time>2019-10-26T10:59:59.000Z</time>
      </trkpt>
      <trkpt lat="47.84086" lon="3.81096">
        <ele>198</ele>
        <time>2019-10-26T11:00:00.000Z</time>
      </trkpt>
      <trkpt lat="47.84085" lon="3.81096">
        <ele>198</ele>
        <time>2019-10-26T11:00:01.000Z</time>
      </trkpt>
      <trkpt lat="47.84084" lon="3.81097">
        <ele>198</ele>
        <time>2019-10-26T11:00:02.000Z</time>
      </trkpt>
      <trkpt lat="47.84084" lon="3.81097">
        <ele>198</ele>
        <time>2019-10-26T11:00:03.000Z</time>
      </trkpt>
      <trkpt lat="47.84083" lon="3.81098">
        <ele>198</ele>
        <time>2019-10-26T11:00:04.000Z</time>
      </trkpt>
      <trkpt lat="47.84081" lon="3.81098">
        <ele>199</ele>
        <time>2019-10-26T11:00:05.000Z</time>
      </trkpt>
      <trkpt lat="47.84081" lon="3.81099">
        <ele>199</ele>
        <time>2019-10-26T11:00:06.000Z</time>
      </trkpt>
      <trkpt lat="47.8408" lon="3.81099">
        <ele>199</ele>
        <time>2019-10-26T11:00:07.000Z</time>
      </trkpt>
      <trkpt lat="47.84079" lon="3.811">
        <ele>199</ele>
        <time>2019-10-26T11:00:08.000Z</time>
      </trkpt>
      <trkpt lat="47.84078" lon="3.811">
        <ele>199</ele>
        <time>2019-10-26T11:00:09.000Z</time>
      </trkpt>
      <trkpt lat="47.84077" lon="3.81101">
        <ele>199</ele>
        <time>2019-10-26T11:00:10.000Z</time>
      </trkpt>
      <trkpt lat="47.84076" lon="3.81102">
        <ele>199</ele>
        <time>2019-10-26T11:00:11.000Z</time>
      </trkpt>
      <trkpt lat="47.84076" lon="3.81102">
        <ele>200</ele>
        <time>2019-10-26T11:00:12.000Z</time>
      </trkpt>
      <trkpt lat="47.84075" lon="3.81103">
        <ele>200</ele>
        <time>2019-10-26T11:00:13.000Z</time>
      </trkpt>
      <trkpt lat="47.84074" lon="3.81103">
        <ele>200</ele>
        <time>2019-10-26T11:00:14.000Z</time>
      </trkpt>
      <trkpt lat="47.84073" lon="3.81103">
        <ele>200</ele>
        <time>2019-10-26T11:00:15.000Z</time>
      </trkpt>
      <trkpt lat="47.84072" lon="3.81104">
        <ele>200</ele>
        <time>2019-10-26T11:00:16.000Z</time>
      </trkpt>
      <trkpt lat="47.84071" lon="3.81105">
        <ele>200</ele>
        <time>2019-10-26T11:00:17.000Z</time>
      </trkpt>
      <trkpt lat="47.8407" lon="3.81105">
        <ele>201</ele>
        <time>2019-10-26T11:00:18.000Z</time>
      </trkpt>
      <trkpt lat="47.84069" lon="3.81106">
        <ele>201</ele>
        <time>2019-10-26T11:00:19.000Z</time>
      </trkpt>
      <trkpt lat="47.84069" lon="3.81107">
        <ele>201</ele>
        <time>2019-10-26T11:00:20.000Z</time>
      </trkpt>
      <trkpt lat="47.84068" lon="3.81108">
        <ele>201</ele>
        <time>2019-10-26T11:00:21.000Z</time>
      </trkpt>
      <trkpt lat="47.84067" lon="3.81109">
        <ele>201</ele>
        <time>2019-10-26T11:00:22.000Z</time>
      </trkpt>
      <trkpt lat="47.84067" lon="3.81109">
        <ele>201</ele>
        <time>2019-10-26T11:00:23.000Z</time>
      </trkpt>
      <trkpt lat="47.84066" lon="3.8111">
        <ele>201</ele>
        <time>2019-10-26T11:00:24.000Z</time>
      </trkpt>
      <trkpt lat="47.84065" lon="3.81111">
        <ele>202</ele>
        <time>2019-10-26T11:00:25.000Z</time>
      </trkpt>
      <trkpt lat="47.84064" lon="3.81112">
        <ele>202</ele>
        <time>2019-10-26T11:00:26.000Z</time>
      </trkpt>
      <trkpt lat="47.84064" lon="3.81112">
        <ele>202</ele>
        <time>2019-10-26T11:00:27.000Z</time>
      </trkpt>
      <trkpt lat="47.84063" lon="3.81113">
        <ele>202</ele>
        <time>2019-10-26T11:00:28.000Z</time>
      </trkpt>
      <trkpt lat="47.84062" lon="3.81114">
        <ele>203</ele>
        <time>2019-10-26T11:00:29.000Z</time>
      </trkpt>
      <trkpt lat="47.84061" lon="3.81115">
        <ele>203</ele>
        <time>2019-10-26T11:00:30.000Z</time>
      </trkpt>
      <trkpt lat="47.8406" lon="3.81116">
        <ele>203</ele>
        <time>2019-10-26T11:00:31.000Z</time>
      </trkpt>
      <trkpt lat="47.84059" lon="3.81117">
        <ele>204</ele>
        <time>2019-10-26T11:00:32.000Z</time>
      </trkpt>
      <trkpt lat="47.84058" lon="3.81118">
        <ele>204</ele>
        <time>2019-10-26T11:00:33.000Z</time>
      </trkpt>
      <trkpt lat="47.84058" lon="3.81118">
        <ele>204</ele>
        <time>2019-10-26T11:00:34.000Z</time>
      </trkpt>
      <trkpt lat="47.84057" lon="3.81119">
        <ele>205</ele>
        <time>2019-10-26T11:00:35.000Z</time>
      </trkpt>
      <trkpt lat="47.84056" lon="3.8112">
        <ele>205</ele>
        <time>2019-10-26T11:00:36.000Z</time>
      </trkpt>
      <trkpt lat="47.84055" lon="3.81121">
        <ele>205</ele>
        <time>2019-10-26T11:00:37.000Z</time>
      </trkpt>
      <trkpt lat="47.84055" lon="3.81122">
        <ele>206</ele>
        <time>2019-10-26T11:00:38.000Z</time>
      </trkpt>
      <trkpt lat="47.84054" lon="3.81123">
        <ele>206</ele>
        <time>2019-10-26T11:00:39.000Z</time>
      </trkpt>
      <trkpt lat="47.84053" lon="3.81124">
        <ele>206</ele>
        <time>2019-10-26T11:00:40.000Z</time>
      </trkpt>
      <trkpt lat="47.84052" lon="3.81125">
        <ele>206</ele>
        <time>2019-10-26T11:00:41.000Z</time>
      </trkpt>
      <trkpt lat="47.84052" lon="3.81125">
        <ele>206</ele>
        <time>2019-10-26T11:00:42.000Z</time>
      </trkpt>
      <trkpt lat="47.84051" lon="3.81126">
        <ele>207</ele>
        <time>2019-10-26T11:00:43.000Z</time>
      </trkpt>
      <trkpt lat="47.8405" lon="3.81127">
        <ele>207</ele>
        <time>2019-10-26T11:00:44.000Z</time>
      </trkpt>
      <trkpt lat="47.84049" lon="3.81128">
        <ele>207</ele>
        <time>2019-10-26T11:00:45.000Z</time>
      </trkpt>
      <trkpt lat="47.84048" lon="3.8113">
        <ele>207</ele>
        <time>2019-10-26T11:00:46.000Z</time>
      </trkpt>
      <trkpt lat="47.84047" lon="3.81131">
        <ele>207</ele>
        <time>2019-10-26T11:00:47.000Z</time>
      </trkpt>
      <trkpt lat="47.84047" lon="3.81132">
        <ele>208</ele>
        <time>2019-10-26T11:00:48.000Z</time>
      </trkpt>
      <trkpt lat="47.84046" lon="3.81133">
        <ele>208</ele>
        <time>2019-10-26T11:00:49.000Z</time>
      </trkpt>
      <trkpt lat="47.84045" lon="3.81134">
        <ele>208</ele>
        <time>2019-10-26T11:00:50.000Z</time>
      </trkpt>
      <trkpt lat="47.84044" lon="3.81135">
        <ele>208</ele>
        <time>2019-10-26T11:00:51.000Z</time>
      </trkpt>
      <trkpt lat="47.84043" lon="3.81136">
        <ele>208</ele>
        <time>2019-10-26T11:00:52.000Z</time>
      </trkpt>
      <trkpt lat="47.84042" lon="3.81137">
        <ele>208</ele>
        <time>2019-10-26T11:00:53.000Z</time>
      </trkpt>
      <trkpt lat="47.84041" lon="3.81138">
        <ele>209</ele>
        <time>2019-10-26T11:00:54.000Z</time>
      </trkpt>
      <trkpt lat="47.84041" lon="3.81139">
        <ele>209</ele>
        <time>2019-10-26T11:00:55.000Z</time>
      </trkpt>
      <trkpt lat="47.8404" lon="3.81141">
        <ele>209</ele>
        <time>2019-10-26T11:00:56.000Z</time>
      </trkpt>
      <trkpt lat="47.84039" lon="3.81142">
        <ele>209</ele>
        <time>2019-10-26T11:00:57.000Z</time>
      </trkpt>
      <trkpt lat="47.84038" lon="3.81143">
        <ele>210</ele>
        <time>2019-10-26T11:00:58.000Z</time>
      </trkpt>
      <trkpt lat="47.84038" lon="3.81143">
        <ele>210</ele>
        <time>2019-10-26T11:00:59.000Z</time>
      </trkpt>
      <trkpt lat="47.84037" lon="3.81145">
        <ele>210</ele>
        <time>2019-10-26T11:01:00.000Z</time>
      </trkpt>
      <trkpt lat="47.84036" lon="3.81146">
        <ele>210</ele>
        <time>2019-10-26T11:01:01.000Z</time>
      </trkpt>
      <trkpt lat="47.84035" lon="3.81147">
        <ele>211</ele>
        <time>2019-10-26T11:01:02.000Z</time>
      </trkpt>
      <trkpt lat="47.84034" lon="3.81148">
        <ele>211</ele>
        <time>2019-10-26T11:01:03.000Z</time>
      </trkpt>
      <trkpt lat="47.84034" lon="3.81149">
        <ele>211</ele>
        <time>2019-10-26T11:01:04.000Z</time>
      </trkpt>
      <trkpt lat="47.84033" lon="3.8115">
        <ele>212</ele>
        <time>2019-10-26T11:01:05.000Z</time>
      </trkpt>
      <trkpt lat="47.84032" lon="3.81152">
        <ele>212</ele>
        <time>2019-10-26T11:01:06.000Z</time>
      </trkpt>
      <trkpt lat="47.84031" lon="3.81152">
        <ele>212</ele>
        <time>2019-10-26T11:01:07.000Z</time>
      </trkpt>
      <trkpt lat="47.8403" lon="3.81153">
        <ele>212</ele>
        <time>2019-10-26T11:01:08.000Z</time>
      </trkpt>
      <trkpt lat="47.84029" lon="3.81154">
        <ele>213</ele>
        <time>2019-10-26T11:01:09.000Z</time>
      </trkpt>
      <trkpt lat="47.84028" lon="3.81155">
        <ele>213</ele>
        <time>2019-10-26T11:01:10.000Z</time>
      </trkpt>
      <trkpt lat="47.84028" lon="3.81157">
        <ele>213</ele>
        <time>2019-10-26T11:01:11.000Z</time>
      </trkpt>
      <trkpt lat="47.84027" lon="3.81158">
        <ele>213</ele>
        <time>2019-10-26T11:01:12.000Z</time>
      </trkpt>
      <trkpt lat="47.84026" lon="3.81159">
        <ele>213</ele>
        <time>2019-10-26T11:01:13.000Z</time>
      </trkpt>
      <trkpt lat="47.84025" lon="3.8116">
        <ele>214</ele>
        <time>2019-10-26T11:01:14.000Z</time>
      </trkpt>
      <trkpt lat="47.84024" lon="3.81162">
        <ele>214</ele>
        <time>2019-10-26T11:01:15.000Z</time>
      </trkpt>
      <trkpt lat="47.84024" lon="3.81163">
        <ele>214</ele>
        <time>2019-10-26T11:01:16.000Z</time>
      </trkpt>
      <trkpt lat="47.84023" lon="3.81165">
        <ele>214</ele>
        <time>2019-10-26T11:01:17.000Z</time>
      </trkpt>
      <trkpt lat="47.84022" lon="3.81166">
        <ele>214</ele>
        <time>2019-10-26T11:01:18.000Z</time>
      </trkpt>
      <trkpt lat="47.84021" lon="3.81167">
        <ele>214</ele>
        <time>2019-10-26T11:01:19.000Z</time>
      </trkpt>
      <trkpt lat="47.8402" lon="3.81169">
        <ele>215</ele>
        <time>2019-10-26T11:01:20.000Z</time>
      </trkpt>
      <trkpt lat="47.84019" lon="3.8117">
        <ele>215</ele>
        <time>2019-10-26T11:01:21.000Z</time>
      </trkpt>
      <trkpt lat="47.84019" lon="3.81172">
        <ele>215</ele>
        <time>2019-10-26T11:01:22.000Z</time>
      </trkpt>
      <trkpt lat="47.84018" lon="3.81173">
        <ele>215</ele>
        <time>2019-10-26T11:01:23.000Z</time>
      </trkpt>
      <trkpt lat="47.84017" lon="3.81175">
        <ele>215</ele>
        <time>2019-10-26T11:01:24.000Z</time>
      </trkpt>
      <trkpt lat="47.84016" lon="3.81176">
        <ele>216</ele>
        <time>2019-10-26T11:01:25.000Z</time>
      </trkpt>
      <trkpt lat="47.84015" lon="3.81178">
        <ele>216</ele>
        <time>2019-10-26T11:01:26.000Z</time>
      </trkpt>
      <trkpt lat="47.84015" lon="3.81179">
        <ele>216</ele>
        <time>2019-10-26T11:01:27.000Z</time>
      </trkpt>
      <trkpt lat="47.84014" lon="3.8118">
        <ele>216</ele>
        <time>2019-10-26T11:01:28.000Z</time>
      </trkpt>
      <trkpt lat="47.84013" lon="3.81182">
        <ele>216</ele>
        <time>2019-10-26T11:01:29.000Z</time>
      </trkpt>
      <trkpt lat="47.84012" lon="3.81183">
        <ele>217</ele>
        <time>2019-10-26T11:01:30.000Z</time>
      </trkpt>
      <trkpt lat="47.84011" lon="3.81185">
        <ele>217</ele>
        <time>2019-10-26T11:01:31.000Z</time>
      </trkpt>
      <trkpt lat="47.8401" lon="3.81187">
        <ele>217</ele>
        <time>2019-10-26T11:01:32.000Z</time>
      </trkpt>
      <trkpt lat="47.8401" lon="3.81188">
        <ele>217</ele>
        <time>2019-10-26T11:01:33.000Z</time>
      </trkpt>
      <trkpt lat="47.84009" lon="3.81189">
        <ele>217</ele>
        <time>2019-10-26T11:01:34.000Z</time>
      </trkpt>
      <trkpt lat="47.84008" lon="3.81191">
        <ele>217</ele>
        <time>2019-10-26T11:01:35.000Z</time>
      </trkpt>
      <trkpt lat="47.84007" lon="3.81193">
        <ele>217</ele>
        <time>2019-10-26T11:01:36.000Z</time>
      </trkpt>
      <trkpt lat="47.84006" lon="3.81194">
        <ele>218</ele>
        <time>2019-10-26T11:01:37.000Z</time>
      </trkpt>
      <trkpt lat="47.84005" lon="3.81196">
        <ele>218</ele>
        <time>2019-10-26T11:01:38.000Z</time>
      </trkpt>
      <trkpt lat="47.84005" lon="3.81198">
        <ele>218</ele>
        <time>2019-10-26T11:01:39.000Z</time>
      </trkpt>
      <trkpt lat="47.84004" lon="3.812">
        <ele>218</ele>
        <time>2019-10-26T11:01:40.000Z</time>
      </trkpt>
      <trkpt lat="47.84003" lon="3.81201">
        <ele>218</ele>
        <time>2019-10-26T11:01:41.000Z</time>
      </trkpt>
      <trkpt lat="47.84002" lon="3.81203">
        <ele>218</ele>
        <time>2019-10-26T11:01:42.000Z</time>
      </trkpt>
      <trkpt lat="47.84002" lon="3.81205">
        <ele>219</ele>
        <time>2019-10-26T11:01:43.000Z</time>
      </trkpt>
      <trkpt lat="47.84001" lon="3.81206">
        <ele>219</ele>
        <time>2019-10-26T11:01:44.000Z</time>
      </trkpt>
      <trkpt lat="47.84" lon="3.81208">
        <ele>219</ele>
        <time>2019-10-26T11:01:45.000Z</time>
      </trkpt>
      <trkpt lat="47.83999" lon="3.8121">
        <ele>219</ele>
        <time>2019-10-26T11:01:46.000Z</time>
      </trkpt>
      <trkpt lat="47.83998" lon="3.81211">
        <ele>219</ele>
        <time>2019-10-26T11:01:47.000Z</time>
      </trkpt>
      <trkpt lat="47.83998" lon="3.81213">
        <ele>220</ele>
        <time>2019-10-26T11:01:48.000Z</time>
      </trkpt>
      <trkpt lat="47.83997" lon="3.81215">
        <ele>220</ele>
        <time>2019-10-26T11:01:49.000Z</time>
      </trkpt>
      <trkpt lat="47.83996" lon="3.81217">
        <ele>220</ele>
        <time>2019-10-26T11:01:50.000Z</time>
      </trkpt>
      <trkpt lat="47.83995" lon="3.81218">
        <ele>220</ele>
        <time>2019-10-26T11:01:51.000Z</time>
      </trkpt>
      <trkpt lat="47.83995" lon="3.8122">
        <ele>220</ele>
        <time>2019-10-26T11:01:52.000Z</time>
      </trkpt>
      <trkpt lat="47.83994" lon="3.81221">
        <ele>221</ele>
        <time>2019-10-26T11:01:53.000Z</time>
      </trkpt>
      <trkpt lat="47.83993" lon="3.81223">
        <ele>221</ele>
        <time>2019-10-26T11:01:54.000Z</time>
      </trkpt>
      <trkpt lat="47.83992" lon="3.81224">
        <ele>221</ele>
        <time>2019-10-26T11:01:55.000Z</time>
      </trkpt>
      <trkpt lat="47.83991" lon="3.81226">
        <ele>221</ele>
        <time>2019-10-26T11:01:56.000Z</time>
      </trkpt>
      <trkpt lat="47.83991" lon="3.81227">
        <ele>221</ele>
        <time>2019-10-26T11:01:57.000Z</time>
      </trkpt>
      <trkpt lat="47.8399" lon="3.81229">
        <ele>221</ele>
        <time>2019-10-26T11:01:58.000Z</time>
      </trkpt>
      <trkpt lat="47.8399" lon="3.81231">
        <ele>222</ele>
        <time>2019-10-26T11:01:59.000Z</time>
      </trkpt>
      <trkpt lat="47.83989" lon="3.81232">
        <ele>222</ele>
        <time>2019-10-26T11:02:00.000Z</time>
      </trkpt>
      <trkpt lat="47.83988" lon="3.81234">
        <ele>222</ele>
        <time>2019-10-26T11:02:01.000Z</time>
      </trkpt>
      <trkpt lat="47.83987" lon="3.81235">
        <ele>222</ele>
        <time>2019-10-26T11:02:02.000Z</time>
      </trkpt>
      <trkpt lat="47.83987" lon="3.81237">
        <ele>222</ele>
        <time>2019-10-26T11:02:03.000Z</time>
      </trkpt>
      <trkpt lat="47.83986" lon="3.81239">
        <ele>222</ele>
        <time>2019-10-26T11:02:04.000Z</time>
      </trkpt>
      <trkpt lat="47.83985" lon="3.8124">
        <ele>222</ele>
        <time>2019-10-26T11:02:05.000Z</time>
      </trkpt>
      <trkpt lat="47.83984" lon="3.81242">
        <ele>222</ele>
        <time>2019-10-26T11:02:06.000Z</time>
      </trkpt>
      <trkpt lat="47.83983" lon="3.81243">
        <ele>223</ele>
        <time>2019-10-26T11:02:07.000Z</time>
      </trkpt>
      <trkpt lat="47.83982" lon="3.81245">
        <ele>223</ele>
        <time>2019-10-26T11:02:08.000Z</time>
      </trkpt>
      <trkpt lat="47.83981" lon="3.81247">
        <ele>223</ele>
        <time>2019-10-26T11:02:09.000Z</time>
      </trkpt>
      <trkpt lat="47.8398" lon="3.81248">
        <ele>223</ele>
        <time>2019-10-26T11:02:10.000Z</time>
      </trkpt>
      <trkpt lat="47.8398" lon="3.8125">
        <ele>223</ele>
        <time>2019-10-26T11:02:11.000Z</time>
      </trkpt>
      <trkpt lat="47.83979" lon="3.81252">
        <ele>223</ele>
        <time>2019-10-26T11:02:12.000Z</time>
      </trkpt>
      <trkpt lat="47.83978" lon="3.81253">
        <ele>223</ele>
        <time>2019-10-26T11:02:13.000Z</time>
      </trkpt>
      <trkpt lat="47.83978" lon="3.81255">
        <ele>223</ele>
        <time>2019-10-26T11:02:14.000Z</time>
      </trkpt>
      <trkpt lat="47.83977" lon="3.81257">
        <ele>223</ele>
        <time>2019-10-26T11:02:15.000Z</time>
      </trkpt>
      <trkpt lat="47.83976" lon="3.81258">
        <ele>223</ele>
        <time>2019-10-26T11:02:16.000Z</time>
      </trkpt>
      <trkpt lat="47.83975" lon="3.8126">
        <ele>223</ele>
        <time>2019-10-26T11:02:17.000Z</time>
      </trkpt>
      <trkpt lat="47.83974" lon="3.81262">
        <ele>223</ele>
        <time>2019-10-26T11:02:18.000Z</time>
      </trkpt>
      <trkpt lat="47.83974" lon="3.81264">
        <ele>223</ele>
        <time>2019-10-26T11:02:19.000Z</time>
      </trkpt>
      <trkpt lat="47.83973" lon="3.81266">
        <ele>223</ele>
        <time>2019-10-26T11:02:20.000Z</time>
      </trkpt>
      <trkpt lat="47.83972" lon="3.81268">
        <ele>223</ele>
        <time>2019-10-26T11:02:21.000Z</time>
      </trkpt>
      <trkpt lat="47.83972" lon="3.8127">
        <ele>224</ele>
        <time>2019-10-26T11:02:22.000Z</time>
      </trkpt>
      <trkpt lat="47.83971" lon="3.81272">
        <ele>224</ele>
        <time>2019-10-26T11:02:23.000Z</time>
      </trkpt>
      <trkpt lat="47.83971" lon="3.81274">
        <ele>224</ele>
        <time>2019-10-26T11:02:24.000Z</time>
      </trkpt>
      <trkpt lat="47.8397" lon="3.81275">
        <ele>224</ele>
        <time>2019-10-26T11:02:25.000Z</time>
      </trkpt>
      <trkpt lat="47.83969" lon="3.81277">
        <ele>224</ele>
        <time>2019-10-26T11:02:26.000Z</time>
      </trkpt>
      <trkpt lat="47.83968" lon="3.81279">
        <ele>224</ele>
        <time>2019-10-26T11:02:27.000Z</time>
      </trkpt>
      <trkpt lat="47.83967" lon="3.81281">
        <ele>224</ele>
        <time>2019-10-26T11:02:28.000Z</time>
      </trkpt>
      <trkpt lat="47.83966" lon="3.81283">
        <ele>224</ele>
        <time>2019-10-26T11:02:29.000Z</time>
      </trkpt>
      <trkpt lat="47.83966" lon="3.81284">
        <ele>224</ele>
        <time>2019-10-26T11:02:30.000Z</time>
      </trkpt>
      <trkpt lat="47.83965" lon="3.81286">
        <ele>225</ele>
        <time>2019-10-26T11:02:31.000Z</time>
      </trkpt>
      <trkpt lat="47.83964" lon="3.81288">
        <ele>225</ele>
        <time>2019-10-26T11:02:32.000Z</time>
      </trkpt>
      <trkpt lat="47.83963" lon="3.81289">
        <ele>225</ele>
        <time>2019-10-26T11:02:33.000Z</time>
      </trkpt>
      <trkpt lat="47.83962" lon="3.81291">
        <ele>225</ele>
        <time>2019-10-26T11:02:34.000Z</time>
      </trkpt>
      <trkpt lat="47.83962" lon="3.81293">
        <ele>225</ele>
        <time>2019-10-26T11:02:35.000Z</time>
      </trkpt>
      <trkpt lat="47.83961" lon="3.81295">
        <ele>225</ele>
        <time>2019-10-26T11:02:36.000Z</time>
      </trkpt>
      <trkpt lat="47.8396" lon="3.81296">
        <ele>225</ele>
        <time>2019-10-26T11:02:37.000Z</time>
      </trkpt>
      <trkpt lat="47.8396" lon="3.81298">
        <ele>225</ele>
        <time>2019-10-26T11:02:38.000Z</time>
      </trkpt>
      <trkpt lat="47.83959" lon="3.813">
        <ele>225</ele>
        <time>2019-10-26T11:02:39.000Z</time>
      </trkpt>
      <trkpt lat="47.83958" lon="3.81303">
        <ele>225</ele>
        <time>2019-10-26T11:02:40.000Z</time>
      </trkpt>
      <trkpt lat="47.83957" lon="3.81305">
        <ele>225</ele>
        <time>2019-10-26T11:02:41.000Z</time>
      </trkpt>
      <trkpt lat="47.83956" lon="3.81307">
        <ele>225</ele>
        <time>2019-10-26T11:02:42.000Z</time>
      </trkpt>
      <trkpt lat="47.83955" lon="3.8131">
        <ele>226</ele>
        <time>2019-10-26T11:02:43.000Z</time>
      </trkpt>
      <trkpt lat="47.83954" lon="3.81312">
        <ele>226</ele>
        <time>2019-10-26T11:02:44.000Z</time>
      </trkpt>
      <trkpt lat="47.83954" lon="3.81315">
        <ele>226</ele>
        <time>2019-10-26T11:02:45.000Z</time>
      </trkpt>
      <trkpt lat="47.83953" lon="3.81318">
        <ele>226</ele>
        <time>2019-10-26T11:02:46.000Z</time>
      </trkpt>
      <trkpt lat="47.83952" lon="3.81321">
        <ele>226</ele>
        <time>2019-10-26T11:02:47.000Z</time>
      </trkpt>
      <trkpt lat="47.83951" lon="3.81323">
        <ele>226</ele>
        <time>2019-10-26T11:02:48.000Z</time>
      </trkpt>
      <trkpt lat="47.8395" lon="3.81327">
        <ele>226</ele>
        <time>2019-10-26T11:02:49.000Z</time>
      </trkpt>
      <trkpt lat="47.83949" lon="3.8133">
        <ele>226</ele>
        <time>2019-10-26T11:02:50.000Z</time>
      </trkpt>
      <trkpt lat="47.83948" lon="3.81333">
        <ele>226</ele>
        <time>2019-10-26T11:02:51.000Z</time>
      </trkpt>
      <trkpt lat="47.83947" lon="3.81337">
        <ele>226</ele>
        <time>2019-10-26T11:02:52.000Z</time>
      </trkpt>
      <trkpt lat="47.83946" lon="3.8134">
        <ele>227</ele>
        <time>2019-10-26T11:02:53.000Z</time>
      </trkpt>
      <trkpt lat="47.83946" lon="3.81343">
        <ele>227</ele>
        <time>2019-10-26T11:02:54.000Z</time>
      </trkpt>
      <trkpt lat="47.83945" lon="3.81346">
        <ele>227</ele>
        <time>2019-10-26T11:02:55.000Z</time>
      </trkpt>
      <trkpt lat="47.83944" lon="3.81349">
        <ele>227</ele>
        <time>2019-10-26T11:02:56.000Z</time>
      </trkpt>
      <trkpt lat="47.83943" lon="3.81352">
        <ele>227</ele>
        <time>2019-10-26T11:02:57.000Z</time>
      </trkpt>
      <trkpt lat="47.83942" lon="3.81355">
        <ele>227</ele>
        <time>2019-10-26T11:02:58.000Z</time>
      </trkpt>
      <trkpt lat="47.83941" lon="3.81358">
        <ele>227</ele>
        <time>2019-10-26T11:02:59.000Z</time>
      </trkpt>
      <trkpt lat="47.8394" lon="3.81362">
        <ele>227</ele>
        <time>2019-10-26T11:03:00.000Z</time>
      </trkpt>
      <trkpt lat="47.83939" lon="3.81365">
        <ele>227</ele>
        <time>2019-10-26T11:03:01.000Z</time>
      </trkpt>
      <trkpt lat="47.83938" lon="3.81368">
        <ele>227</ele>
        <time>2019-10-26T11:03:02.000Z</time>
      </trkpt>
      <trkpt lat="47.83937" lon="3.81372">
        <ele>227</ele>
        <time>2019-10-26T11:03:03.000Z</time>
      </trkpt>
      <trkpt lat="47.83935" lon="3.81375">
        <ele>227</ele>
        <time>2019-10-26T11:03:04.000Z</time>
      </trkpt>
      <trkpt lat="47.83935" lon="3.81378">
        <ele>227</ele>
        <time>2019-10-26T11:03:05.000Z</time>
      </trkpt>
      <trkpt lat="47.83934" lon="3.81381">
        <ele>227</ele>
        <time>2019-10-26T11:03:06.000Z</time>
      </trkpt>
      <trkpt lat="47.83933" lon="3.81384">
        <ele>228</ele>
        <time>2019-10-26T11:03:07.000Z</time>
      </trkpt>
      <trkpt lat="47.83932" lon="3.81388">
        <ele>228</ele>
        <time>2019-10-26T11:03:08.000Z</time>
      </trkpt>
      <trkpt lat="47.83931" lon="3.81391">
        <ele>228</ele>
        <time>2019-10-26T11:03:09.000Z</time>
      </trkpt>
      <trkpt lat="47.83931" lon="3.81394">
        <ele>228</ele>
        <time>2019-10-26T11:03:10.000Z</time>
      </trkpt>
      <trkpt lat="47.8393" lon="3.81398">
        <ele>228</ele>
        <time>2019-10-26T11:03:11.000Z</time>
      </trkpt>
      <trkpt lat="47.83929" lon="3.81401">
        <ele>228</ele>
        <time>2019-10-26T11:03:12.000Z</time>
      </trkpt>
      <trkpt lat="47.83929" lon="3.81404">
        <ele>228</ele>
        <time>2019-10-26T11:03:13.000Z</time>
      </trkpt>
      <trkpt lat="47.83928" lon="3.81408">
        <ele>229</ele>
        <time>2019-10-26T11:03:14.000Z</time>
      </trkpt>
      <trkpt lat="47.83927" lon="3.8141">
        <ele>229</ele>
        <time>2019-10-26T11:03:15.000Z</time>
      </trkpt>
      <trkpt lat="47.83927" lon="3.81413">
        <ele>229</ele>
        <time>2019-10-26T11:03:16.000Z</time>
      </trkpt>
      <trkpt lat="47.83926" lon="3.81416">
        <ele>229</ele>
        <time>2019-10-26T11:03:17.000Z</time>
      </trkpt>
      <trkpt lat="47.83925" lon="3.81418">
        <ele>229</ele>
        <time>2019-10-26T11:03:18.000Z</time>
      </trkpt>
      <trkpt lat="47.83925" lon="3.8142">
        <ele>229</ele>
        <time>2019-10-26T11:03:19.000Z</time>
      </trkpt>
      <trkpt lat="47.83924" lon="3.81422">
        <ele>230</ele>
        <time>2019-10-26T11:03:20.000Z</time>
      </trkpt>
      <trkpt lat="47.83923" lon="3.81424">
        <ele>230</ele>
        <time>2019-10-26T11:03:21.000Z</time>
      </trkpt>
      <trkpt lat="47.83923" lon="3.81426">
        <ele>230</ele>
        <time>2019-10-26T11:03:22.000Z</time>
      </trkpt>
      <trkpt lat="47.83922" lon="3.81428">
        <ele>230</ele>
        <time>2019-10-26T11:03:23.000Z</time>
      </trkpt>
      <trkpt lat="47.83921" lon="3.8143">
        <ele>230</ele>
        <time>2019-10-26T11:03:24.000Z</time>
      </trkpt>
      <trkpt lat="47.83921" lon="3.81433">
        <ele>230</ele>
        <time>2019-10-26T11:03:25.000Z</time>
      </trkpt>
      <trkpt lat="47.8392" lon="3.81435">
        <ele>230</ele>
        <time>2019-10-26T11:03:26.000Z</time>
      </trkpt>
      <trkpt lat="47.8392" lon="3.81438">
        <ele>230</ele>
        <time>2019-10-26T11:03:27.000Z</time>
      </trkpt>
      <trkpt lat="47.83919" lon="3.8144">
        <ele>230</ele>
        <time>2019-10-26T11:03:28.000Z</time>
      </trkpt>
      <trkpt lat="47.83919" lon="3.81443">
        <ele>230</ele>
        <time>2019-10-26T11:03:29.000Z</time>
      </trkpt>
      <trkpt lat="47.83918" lon="3.81445">
        <ele>230</ele>
        <time>2019-10-26T11:03:30.000Z</time>
      </trkpt>
      <trkpt lat="47.83918" lon="3.81447">
        <ele>230</ele>
        <time>2019-10-26T11:03:31.000Z</time>
      </trkpt>
      <trkpt lat="47.83917" lon="3.81449">
        <ele>230</ele>
        <time>2019-10-26T11:03:32.000Z</time>
      </trkpt>
      <trkpt lat="47.83917" lon="3.81451">
        <ele>230</ele>
        <time>2019-10-26T11:03:33.000Z</time>
      </trkpt>
      <trkpt lat="47.83916" lon="3.81454">
        <ele>230</ele>
        <time>2019-10-26T11:03:34.000Z</time>
      </trkpt>
      <trkpt lat="47.83915" lon="3.81456">
        <ele>230</ele>
        <time>2019-10-26T11:03:35.000Z</time>
      </trkpt>
      <trkpt lat="47.83915" lon="3.81459">
        <ele>230</ele>
        <time>2019-10-26T11:03:36.000Z</time>
      </trkpt>
      <trkpt lat="47.83914" lon="3.81461">
        <ele>230</ele>
        <time>2019-10-26T11:03:37.000Z</time>
      </trkpt>
      <trkpt lat="47.83913" lon="3.81464">
        <ele>230</ele>
        <time>2019-10-26T11:03:38.000Z</time>
      </trkpt>
      <trkpt lat="47.83913" lon="3.81466">
        <ele>230</ele>
        <time>2019-10-26T11:03:39.000Z</time>
      </trkpt>
      <trkpt lat="47.83912" lon="3.81469">
        <ele>230</ele>
        <time>2019-10-26T11:03:40.000Z</time>
      </trkpt>
      <trkpt lat="47.83911" lon="3.81471">
        <ele>230</ele>
        <time>2019-10-26T11:03:41.000Z</time>
      </trkpt>
      <trkpt lat="47.8391" lon="3.81473">
        <ele>230</ele>
        <time>2019-10-26T11:03:42.000Z</time>
      </trkpt>
      <trkpt lat="47.8391" lon="3.81476">
        <ele>230</ele>
        <time>2019-10-26T11:03:43.000Z</time>
      </trkpt>
      <trkpt lat="47.8391" lon="3.81478">
        <ele>230</ele>
        <time>2019-10-26T11:03:44.000Z</time>
      </trkpt>
      <trkpt lat="47.83909" lon="3.8148">
        <ele>230</ele>
        <time>2019-10-26T11:03:45.000Z</time>
      </trkpt>
      <trkpt lat="47.83909" lon="3.81483">
        <ele>230</ele>
        <time>2019-10-26T11:03:46.000Z</time>
      </trkpt>
      <trkpt lat="47.83908" lon="3.81485">
        <ele>230</ele>
        <time>2019-10-26T11:03:47.000Z</time>
      </trkpt>
      <trkpt lat="47.83908" lon="3.81488">
        <ele>229</ele>
        <time>2019-10-26T11:03:48.000Z</time>
      </trkpt>
      <trkpt lat="47.83908" lon="3.8149">
        <ele>229</ele>
        <time>2019-10-26T11:03:49.000Z</time>
      </trkpt>
      <trkpt lat="47.83907" lon="3.81493">
        <ele>229</ele>
        <time>2019-10-26T11:03:50.000Z</time>
      </trkpt>
      <trkpt lat="47.83906" lon="3.81495">
        <ele>229</ele>
        <time>2019-10-26T11:03:51.000Z</time>
      </trkpt>
      <trkpt lat="47.83906" lon="3.81498">
        <ele>229</ele>
        <time>2019-10-26T11:03:52.000Z</time>
      </trkpt>
      <trkpt lat="47.83905" lon="3.81501">
        <ele>228</ele>
        <time>2019-10-26T11:03:53.000Z</time>
      </trkpt>
      <trkpt lat="47.83904" lon="3.81504">
        <ele>228</ele>
        <time>2019-10-26T11:03:54.000Z</time>
      </trkpt>
      <trkpt lat="47.83903" lon="3.81507">
        <ele>228</ele>
        <time>2019-10-26T11:03:55.000Z</time>
      </trkpt>
      <trkpt lat="47.83903" lon="3.81509">
        <ele>228</ele>
        <time>2019-10-26T11:03:56.000Z</time>
      </trkpt>
      <trkpt lat="47.83902" lon="3.81512">
        <ele>228</ele>
        <time>2019-10-26T11:03:57.000Z</time>
      </trkpt>
      <trkpt lat="47.83901" lon="3.81514">
        <ele>228</ele>
        <time>2019-10-26T11:03:58.000Z</time>
      </trkpt>
      <trkpt lat="47.839" lon="3.81517">
        <ele>228</ele>
        <time>2019-10-26T11:03:59.000Z</time>
      </trkpt>
      <trkpt lat="47.839" lon="3.81519">
        <ele>228</ele>
        <time>2019-10-26T11:04:00.000Z</time>
      </trkpt>
      <trkpt lat="47.83899" lon="3.81521">
        <ele>228</ele>
        <time>2019-10-26T11:04:01.000Z</time>
      </trkpt>
      <trkpt lat="47.83898" lon="3.81524">
        <ele>228</ele>
        <time>2019-10-26T11:04:02.000Z</time>
      </trkpt>
      <trkpt lat="47.83898" lon="3.81526">
        <ele>228</ele>
        <time>2019-10-26T11:04:03.000Z</time>
      </trkpt>
      <trkpt lat="47.83897" lon="3.81528">
        <ele>228</ele>
        <time>2019-10-26T11:04:04.000Z</time>
      </trkpt>
      <trkpt lat="47.83896" lon="3.8153">
        <ele>228</ele>
        <time>2019-10-26T11:04:05.000Z</time>
      </trkpt>
      <trkpt lat="47.83896" lon="3.81532">
        <ele>228</ele>
        <time>2019-10-26T11:04:06.000Z</time>
      </trkpt>
      <trkpt lat="47.83895" lon="3.81535">
        <ele>229</ele>
        <time>2019-10-26T11:04:07.000Z</time>
      </trkpt>
      <trkpt lat="47.83895" lon="3.81537">
        <ele>229</ele>
        <time>2019-10-26T11:04:08.000Z</time>
      </trkpt>
      <trkpt lat="47.83894" lon="3.81539">
        <ele>229</ele>
        <time>2019-10-26T11:04:09.000Z</time>
      </trkpt>
      <trkpt lat="47.83893" lon="3.81541">
        <ele>229</ele>
        <time>2019-10-26T11:04:10.000Z</time>
      </trkpt>
      <trkpt lat="47.83893" lon="3.81543">
        <ele>229</ele>
        <time>2019-10-26T11:04:11.000Z</time>
      </trkpt>
      <trkpt lat="47.83892" lon="3.81545">
        <ele>229</ele>
        <time>2019-10-26T11:04:12.000Z</time>
      </trkpt>
      <trkpt lat="47.83891" lon="3.81547">
        <ele>229</ele>
        <time>2019-10-26T11:04:13.000Z</time>
      </trkpt>
      <trkpt lat="47.8389" lon="3.81549">
        <ele>229</ele>
        <time>2019-10-26T11:04:14.000Z</time>
      </trkpt>
      <trkpt lat="47.83889" lon="3.81551">
        <ele>230</ele>
        <time>2019-10-26T11:04:15.000Z</time>
      </trkpt>
      <trkpt lat="47.83888" lon="3.81552">
        <ele>230</ele>
        <time>2019-10-26T11:04:16.000Z</time>
      </trkpt>
      <trkpt lat="47.83887" lon="3.81554">
        <ele>230</ele>
        <time>2019-10-26T11:04:17.000Z</time>
      </trkpt>
      <trkpt lat="47.83887" lon="3.81556">
        <ele>230</ele>
        <time>2019-10-26T11:04:18.000Z</time>
      </trkpt>
      <trkpt lat="47.83886" lon="3.81558">
        <ele>230</ele>
        <time>2019-10-26T11:04:19.000Z</time>
      </trkpt>
      <trkpt lat="47.83885" lon="3.8156">
        <ele>230</ele>
        <time>2019-10-26T11:04:20.000Z</time>
      </trkpt>
      <trkpt lat="47.83884" lon="3.81562">
        <ele>230</ele>
        <time>2019-10-26T11:04:21.000Z</time>
      </trkpt>
      <trkpt lat="47.83883" lon="3.81564">
        <ele>230</ele>
        <time>2019-10-26T11:04:22.000Z</time>
      </trkpt>
      <trkpt lat="47.83882" lon="3.81566">
        <ele>230</ele>
        <time>2019-10-26T11:04:23.000Z</time>
      </trkpt>
      <trkpt lat="47.83881" lon="3.81568">
        <ele>230</ele>
        <time>2019-10-26T11:04:24.000Z</time>
      </trkpt>
      <trkpt lat="47.8388" lon="3.8157">
        <ele>230</ele>
        <time>2019-10-26T11:04:25.000Z</time>
      </trkpt>
      <trkpt lat="47.83879" lon="3.81572">
        <ele>230</ele>
        <time>2019-10-26T11:04:26.000Z</time>
      </trkpt>
      <trkpt lat="47.83879" lon="3.81574">
        <ele>230</ele>
        <time>2019-10-26T11:04:27.000Z</time>
      </trkpt>
      <trkpt lat="47.83878" lon="3.81576">
        <ele>230</ele>
        <time>2019-10-26T11:04:28.000Z</time>
      </trkpt>
      <trkpt lat="47.83877" lon="3.81578">
        <ele>230</ele>
        <time>2019-10-26T11:04:29.000Z</time>
      </trkpt>
      <trkpt lat="47.83875" lon="3.8158">
        <ele>230</ele>
        <time>2019-10-26T11:04:30.000Z</time>
      </trkpt>
      <trkpt lat="47.83875" lon="3.81582">
        <ele>231</ele>
        <time>2019-10-26T11:04:31.000Z</time>
      </trkpt>
      <trkpt lat="47.83874" lon="3.81584">
        <ele>231</ele>
        <time>2019-10-26T11:04:32.000Z</time>
      </trkpt>
      <trkpt lat="47.83873" lon="3.81586">
        <ele>231</ele>
        <time>2019-10-26T11:04:33.000Z</time>
      </trkpt>
      <trkpt lat="47.83871" lon="3.81587">
        <ele>231</ele>
        <time>2019-10-26T11:04:34.000Z</time>
      </trkpt>
      <trkpt lat="47.8387" lon="3.81589">
        <ele>231</ele>
        <time>2019-10-26T11:04:35.000Z</time>
      </trkpt>
      <trkpt lat="47.83869" lon="3.81591">
        <ele>231</ele>
        <time>2019-10-26T11:04:36.000Z</time>
      </trkpt>
      <trkpt lat="47.83868" lon="3.81593">
        <ele>231</ele>
        <time>2019-10-26T11:04:37.000Z</time>
      </trkpt>
      <trkpt lat="47.83867" lon="3.81595">
        <ele>231</ele>
        <time>2019-10-26T11:04:38.000Z</time>
      </trkpt>
      <trkpt lat="47.83866" lon="3.81597">
        <ele>231</ele>
        <time>2019-10-26T11:04:39.000Z</time>
      </trkpt>
      <trkpt lat="47.83865" lon="3.81598">
        <ele>231</ele>
        <time>2019-10-26T11:04:40.000Z</time>
      </trkpt>
      <trkpt lat="47.83864" lon="3.816">
        <ele>231</ele>
        <time>2019-10-26T11:04:41.000Z</time>
      </trkpt>
      <trkpt lat="47.83862" lon="3.81602">
        <ele>231</ele>
        <time>2019-10-26T11:04:42.000Z</time>
      </trkpt>
      <trkpt lat="47.83861" lon="3.81604">
        <ele>231</ele>
        <time>2019-10-26T11:04:43.000Z</time>
      </trkpt>
      <trkpt lat="47.83859" lon="3.81605">
        <ele>231</ele>
        <time>2019-10-26T11:04:44.000Z</time>
      </trkpt>
      <trkpt lat="47.83858" lon="3.81606">
        <ele>231</ele>
        <time>2019-10-26T11:04:45.000Z</time>
      </trkpt>
      <trkpt lat="47.83857" lon="3.81608">
        <ele>231</ele>
        <time>2019-10-26T11:04:46.000Z</time>
      </trkpt>
      <trkpt lat="47.83855" lon="3.81609">
        <ele>231</ele>
        <time>2019-10-26T11:04:47.000Z</time>
      </trkpt>
      <trkpt lat="47.83854" lon="3.81611">
        <ele>231</ele>
        <time>2019-10-26T11:04:48.000Z</time>
      </trkpt>
      <trkpt lat="47.83852" lon="3.81612">
        <ele>231</ele>
        <time>2019-10-26T11:04:49.000Z</time>
      </trkpt>
      <trkpt lat="47.83851" lon="3.81613">
        <ele>231</ele>
        <time>2019-10-26T11:04:50.000Z</time>
      </trkpt>
      <trkpt lat="47.83849" lon="3.81614">
        <ele>231</ele>
        <time>2019-10-26T11:04:51.000Z</time>
      </trkpt>
      <trkpt lat="47.83848" lon="3.81615">
        <ele>231</ele>
        <time>2019-10-26T11:04:52.000Z</time>
      </trkpt>
      <trkpt lat="47.83846" lon="3.81616">
        <ele>231</ele>
        <time>2019-10-26T11:04:53.000Z</time>
      </trkpt>
      <trkpt lat="47.83844" lon="3.81617">
        <ele>231</ele>
        <time>2019-10-26T11:04:54.000Z</time>
      </trkpt>
      <trkpt lat="47.83843" lon="3.81617">
        <ele>231</ele>
        <time>2019-10-26T11:04:55.000Z</time>
      </trkpt>
      <trkpt lat="47.83841" lon="3.81618">
        <ele>231</ele>
        <time>2019-10-26T11:04:56.000Z</time>
      </trkpt>
      <trkpt lat="47.83839" lon="3.81618">
        <ele>231</ele>
        <time>2019-10-26T11:04:57.000Z</time>
      </trkpt>
      <trkpt lat="47.83837" lon="3.81619">
        <ele>231</ele>
        <time>2019-10-26T11:04:58.000Z</time>
      </trkpt>
      <trkpt lat="47.83836" lon="3.81619">
        <ele>230</ele>
        <time>2019-10-26T11:04:59.000Z</time>
      </trkpt>
      <trkpt lat="47.83834" lon="3.8162">
        <ele>230</ele>
        <time>2019-10-26T11:05:00.000Z</time>
      </trkpt>
      <trkpt lat="47.83832" lon="3.8162">
        <ele>230</ele>
        <time>2019-10-26T11:05:01.000Z</time>
      </trkpt>
      <trkpt lat="47.83831" lon="3.81621">
        <ele>230</ele>
        <time>2019-10-26T11:05:02.000Z</time>
      </trkpt>
      <trkpt lat="47.83829" lon="3.81621">
        <ele>230</ele>
        <time>2019-10-26T11:05:03.000Z</time>
      </trkpt>
      <trkpt lat="47.83827" lon="3.81621">
        <ele>230</ele>
        <time>2019-10-26T11:05:04.000Z</time>
      </trkpt>
      <trkpt lat="47.83825" lon="3.81621">
        <ele>230</ele>
        <time>2019-10-26T11:05:05.000Z</time>
      </trkpt>
      <trkpt lat="47.83823" lon="3.81621">
        <ele>230</ele>
        <time>2019-10-26T11:05:06.000Z</time>
      </trkpt>
      <trkpt lat="47.83822" lon="3.81622">
        <ele>230</ele>
        <time>2019-10-26T11:05:07.000Z</time>
      </trkpt>
      <trkpt lat="47.8382" lon="3.81622">
        <ele>230</ele>
        <time>2019-10-26T11:05:08.000Z</time>
      </trkpt>
      <trkpt lat="47.83819" lon="3.81622">
        <ele>230</ele>
        <time>2019-10-26T11:05:09.000Z</time>
      </trkpt>
      <trkpt lat="47.83817" lon="3.81622">
        <ele>230</ele>
        <time>2019-10-26T11:05:10.000Z</time>
      </trkpt>
      <trkpt lat="47.83815" lon="3.81622">
        <ele>230</ele>
        <time>2019-10-26T11:05:11.000Z</time>
      </trkpt>
      <trkpt lat="47.83813" lon="3.81622">
        <ele>230</ele>
        <time>2019-10-26T11:05:12.000Z</time>
      </trkpt>
      <trkpt lat="47.83812" lon="3.81622">
        <ele>230</ele>
        <time>2019-10-26T11:05:13.000Z</time>
      </trkpt>
      <trkpt lat="47.8381" lon="3.81622">
        <ele>230</ele>
        <time>2019-10-26T11:05:14.000Z</time>
      </trkpt>
      <trkpt lat="47.83808" lon="3.81622">
        <ele>230</ele>
        <time>2019-10-26T11:05:15.000Z</time>
      </trkpt>
      <trkpt lat="47.83806" lon="3.81622">
        <ele>230</ele>
        <time>2019-10-26T11:05:16.000Z</time>
      </trkpt>
      <trkpt lat="47.83804" lon="3.81622">
        <ele>230</ele>
        <time>2019-10-26T11:05:17.000Z</time>
      </trkpt>
      <trkpt lat="47.83803" lon="3.81622">
        <ele>230</ele>
        <time>2019-10-26T11:05:18.000Z</time>
      </trkpt>
      <trkpt lat="47.83801" lon="3.81622">
        <ele>231</ele>
        <time>2019-10-26T11:05:19.000Z</time>
      </trkpt>
      <trkpt lat="47.83799" lon="3.81623">
        <ele>231</ele>
        <time>2019-10-26T11:05:20.000Z</time>
      </trkpt>
      <trkpt lat="47.83797" lon="3.81623">
        <ele>231</ele>
        <time>2019-10-26T11:05:21.000Z</time>
      </trkpt>
      <trkpt lat="47.83796" lon="3.81623">
        <ele>231</ele>
        <time>2019-10-26T11:05:22.000Z</time>
      </trkpt>
      <trkpt lat="47.83794" lon="3.81623">
        <ele>231</ele>
        <time>2019-10-26T11:05:23.000Z</time>
      </trkpt>
      <trkpt lat="47.83793" lon="3.81623">
        <ele>231</ele>
        <time>2019-10-26T11:05:24.000Z</time>
      </trkpt>
      <trkpt lat="47.83791" lon="3.81623">
        <ele>231</ele>
        <time>2019-10-26T11:05:25.000Z</time>
      </trkpt>
      <trkpt lat="47.8379" lon="3.81623">
        <ele>231</ele>
        <time>2019-10-26T11:05:26.000Z</time>
      </trkpt>
      <trkpt lat="47.83789" lon="3.81623">
        <ele>231</ele>
        <time>2019-10-26T11:05:27.000Z</time>
      </trkpt>
      <trkpt lat="47.83787" lon="3.81623">
        <ele>231</ele>
        <time>2019-10-26T11:05:28.000Z</time>
      </trkpt>
      <trkpt lat="47.83785" lon="3.81624">
        <ele>231</ele>
        <time>2019-10-26T11:05:29.000Z</time>
      </trkpt>
      <trkpt lat="47.83784" lon="3.81624">
        <ele>231</ele>
        <time>2019-10-26T11:05:30.000Z</time>
      </trkpt>
      <trkpt lat="47.83782" lon="3.81624">
        <ele>231</ele>
        <time>2019-10-26T11:05:31.000Z</time>
      </trkpt>
      <trkpt lat="47.8378" lon="3.81624">
        <ele>231</ele>
        <time>2019-10-26T11:05:32.000Z</time>
      </trkpt>
      <trkpt lat="47.83779" lon="3.81624">
        <ele>231</ele>
        <time>2019-10-26T11:05:33.000Z</time>
      </trkpt>
      <trkpt lat="47.83777" lon="3.81624">
        <ele>231</ele>
        <time>2019-10-26T11:05:34.000Z</time>
      </trkpt>
      <trkpt lat="47.83775" lon="3.81624">
        <ele>231</ele>
        <time>2019-10-26T11:05:35.000Z</time>
      </trkpt>
      <trkpt lat="47.83774" lon="3.81625">
        <ele>232</ele>
        <time>2019-10-26T11:05:36.000Z</time>
      </trkpt>
      <trkpt lat="47.83772" lon="3.81625">
        <ele>232</ele>
        <time>2019-10-26T11:05:37.000Z</time>
      </trkpt>
      <trkpt lat="47.8377" lon="3.81625">
        <ele>232</ele>
        <time>2019-10-26T11:05:38.000Z</time>
      </trkpt>
      <trkpt lat="47.83768" lon="3.81625">
        <ele>231</ele>
        <time>2019-10-26T11:05:39.000Z</time>
      </trkpt>
      <trkpt lat="47.83767" lon="3.81625">
        <ele>231</ele>
        <time>2019-10-26T11:05:40.000Z</time>
      </trkpt>
      <trkpt lat="47.83765" lon="3.81626">
        <ele>231</ele>
        <time>2019-10-26T11:05:41.000Z</time>
      </trkpt>
      <trkpt lat="47.83763" lon="3.81626">
        <ele>231</ele>
        <time>2019-10-26T11:05:42.000Z</time>
      </trkpt>
      <trkpt lat="47.83761" lon="3.81626">
        <ele>231</ele>
        <time>2019-10-26T11:05:43.000Z</time>
      </trkpt>
      <trkpt lat="47.8376" lon="3.81626">
        <ele>231</ele>
        <time>2019-10-26T11:05:44.000Z</time>
      </trkpt>
      <trkpt lat="47.83758" lon="3.81626">
        <ele>231</ele>
        <time>2019-10-26T11:05:45.000Z</time>
      </trkpt>
      <trkpt lat="47.83757" lon="3.81626">
        <ele>231</ele>
        <time>2019-10-26T11:05:46.000Z</time>
      </trkpt>
      <trkpt lat="47.83755" lon="3.81626">
        <ele>231</ele>
        <time>2019-10-26T11:05:47.000Z</time>
      </trkpt>
      <trkpt lat="47.83753" lon="3.81626">
        <ele>231</ele>
        <time>2019-10-26T11:05:48.000Z</time>
      </trkpt>
      <trkpt lat="47.83751" lon="3.81626">
        <ele>231</ele>
        <time>2019-10-26T11:05:49.000Z</time>
      </trkpt>
      <trkpt lat="47.83749" lon="3.81626">
        <ele>231</ele>
        <time>2019-10-26T11:05:50.000Z</time>
      </trkpt>
      <trkpt lat="47.83748" lon="3.81626">
        <ele>231</ele>
        <time>2019-10-26T11:05:51.000Z</time>
      </trkpt>
      <trkpt lat="47.83746" lon="3.81627">
        <ele>231</ele>
        <time>2019-10-26T11:05:52.000Z</time>
      </trkpt>
      <trkpt lat="47.83744" lon="3.81627">
        <ele>231</ele>
        <time>2019-10-26T11:05:53.000Z</time>
      </trkpt>
      <trkpt lat="47.83742" lon="3.81628">
        <ele>231</ele>
        <time>2019-10-26T11:05:54.000Z</time>
      </trkpt>
      <trkpt lat="47.8374" lon="3.81628">
        <ele>231</ele>
        <time>2019-10-26T11:05:55.000Z</time>
      </trkpt>
      <trkpt lat="47.83739" lon="3.81628">
        <ele>231</ele>
        <time>2019-10-26T11:05:56.000Z</time>
      </trkpt>
      <trkpt lat="47.83737" lon="3.81628">
        <ele>231</ele>
        <time>2019-10-26T11:05:57.000Z</time>
      </trkpt>
      <trkpt lat="47.83735" lon="3.81629">
        <ele>231</ele>
        <time>2019-10-26T11:05:58.000Z</time>
      </trkpt>
      <trkpt lat="47.83734" lon="3.81629">
        <ele>231</ele>
        <time>2019-10-26T11:05:59.000Z</time>
      </trkpt>
      <trkpt lat="47.83732" lon="3.81629">
        <ele>231</ele>
        <time>2019-10-26T11:06:00.000Z</time>
      </trkpt>
      <trkpt lat="47.8373" lon="3.81629">
        <ele>231</ele>
        <time>2019-10-26T11:06:01.000Z</time>
      </trkpt>
      <trkpt lat="47.83729" lon="3.81629">
        <ele>231</ele>
        <time>2019-10-26T11:06:02.000Z</time>
      </trkpt>
      <trkpt lat="47.83727" lon="3.8163">
        <ele>231</ele>
        <time>2019-10-26T11:06:03.000Z</time>
      </trkpt>
      <trkpt lat="47.83725" lon="3.8163">
        <ele>231</ele>
        <time>2019-10-26T11:06:04.000Z</time>
      </trkpt>
      <trkpt lat="47.83724" lon="3.81631">
        <ele>231</ele>
        <time>2019-10-26T11:06:05.000Z</time>
      </trkpt>
      <trkpt lat="47.83722" lon="3.81631">
        <ele>231</ele>
        <time>2019-10-26T11:06:06.000Z</time>
      </trkpt>
      <trkpt lat="47.8372" lon="3.81631">
        <ele>231</ele>
        <time>2019-10-26T11:06:07.000Z</time>
      </trkpt>
      <trkpt lat="47.83718" lon="3.81631">
        <ele>231</ele>
        <time>2019-10-26T11:06:08.000Z</time>
      </trkpt>
      <trkpt lat="47.83717" lon="3.81632">
        <ele>231</ele>
        <time>2019-10-26T11:06:09.000Z</time>
      </trkpt>
      <trkpt lat="47.83715" lon="3.81632">
        <ele>231</ele>
        <time>2019-10-26T11:06:10.000Z</time>
      </trkpt>
      <trkpt lat="47.83714" lon="3.81632">
        <ele>231</ele>
        <time>2019-10-26T11:06:11.000Z</time>
      </trkpt>
      <trkpt lat="47.83712" lon="3.81632">
        <ele>231</ele>
        <time>2019-10-26T11:06:12.000Z</time>
      </trkpt>
      <trkpt lat="47.8371" lon="3.81633">
        <ele>231</ele>
        <time>2019-10-26T11:06:13.000Z</time>
      </trkpt>
      <trkpt lat="47.83708" lon="3.81634">
        <ele>231</ele>
        <time>2019-10-26T11:06:14.000Z</time>
      </trkpt>
      <trkpt lat="47.83706" lon="3.81634">
        <ele>231</ele>
        <time>2019-10-26T11:06:15.000Z</time>
      </trkpt>
      <trkpt lat="47.83704" lon="3.81634">
        <ele>231</ele>
        <time>2019-10-26T11:06:16.000Z</time>
      </trkpt>
      <trkpt lat="47.83703" lon="3.81635">
        <ele>231</ele>
        <time>2019-10-26T11:06:17.000Z</time>
      </trkpt>
      <trkpt lat="47.83701" lon="3.81635">
        <ele>231</ele>
        <time>2019-10-26T11:06:18.000Z</time>
      </trkpt>
      <trkpt lat="47.83699" lon="3.81635">
        <ele>231</ele>
        <time>2019-10-26T11:06:19.000Z</time>
      </trkpt>
      <trkpt lat="47.83698" lon="3.81635">
        <ele>231</ele>
        <time>2019-10-26T11:06:20.000Z</time>
      </trkpt>
      <trkpt lat="47.83696" lon="3.81635">
        <ele>231</ele>
        <time>2019-10-26T11:06:21.000Z</time>
      </trkpt>
      <trkpt lat="47.83695" lon="3.81636">
        <ele>231</ele>
        <time>2019-10-26T11:06:22.000Z</time>
      </trkpt>
      <trkpt lat="47.83693" lon="3.81636">
        <ele>232</ele>
        <time>2019-10-26T11:06:23.000Z</time>
      </trkpt>
      <trkpt lat="47.83691" lon="3.81636">
        <ele>232</ele>
        <time>2019-10-26T11:06:24.000Z</time>
      </trkpt>
      <trkpt lat="47.8369" lon="3.81636">
        <ele>232</ele>
        <time>2019-10-26T11:06:25.000Z</time>
      </trkpt>
      <trkpt lat="47.83688" lon="3.81636">
        <ele>232</ele>
        <time>2019-10-26T11:06:26.000Z</time>
      </trkpt>
      <trkpt lat="47.83687" lon="3.81637">
        <ele>232</ele>
        <time>2019-10-26T11:06:27.000Z</time>
      </trkpt>
      <trkpt lat="47.83685" lon="3.81637">
        <ele>232</ele>
        <time>2019-10-26T11:06:28.000Z</time>
      </trkpt>
      <trkpt lat="47.83684" lon="3.81637">
        <ele>232</ele>
        <time>2019-10-26T11:06:29.000Z</time>
      </trkpt>
      <trkpt lat="47.83682" lon="3.81637">
        <ele>232</ele>
        <time>2019-10-26T11:06:30.000Z</time>
      </trkpt>
      <trkpt lat="47.8368" lon="3.81637">
        <ele>232</ele>
        <time>2019-10-26T11:06:31.000Z</time>
      </trkpt>
      <trkpt lat="47.83679" lon="3.81638">
        <ele>232</ele>
        <time>2019-10-26T11:06:32.000Z</time>
      </trkpt>
      <trkpt lat="47.83677" lon="3.81638">
        <ele>232</ele>
        <time>2019-10-26T11:06:33.000Z</time>
      </trkpt>
      <trkpt lat="47.83675" lon="3.81639">
        <ele>232</ele>
        <time>2019-10-26T11:06:34.000Z</time>
      </trkpt>
      <trkpt lat="47.83673" lon="3.81639">
        <ele>232</ele>
        <time>2019-10-26T11:06:35.000Z</time>
      </trkpt>
      <trkpt lat="47.83671" lon="3.8164">
        <ele>232</ele>
        <time>2019-10-26T11:06:36.000Z</time>
      </trkpt>
      <trkpt lat="47.8367" lon="3.8164">
        <ele>232</ele>
        <time>2019-10-26T11:06:37.000Z</time>
      </trkpt>
      <trkpt lat="47.83669" lon="3.8164">
        <ele>232</ele>
        <time>2019-10-26T11:06:38.000Z</time>
      </trkpt>
      <trkpt lat="47.83667" lon="3.81641">
        <ele>232</ele>
        <time>2019-10-26T11:06:39.000Z</time>
      </trkpt>
      <trkpt lat="47.83666" lon="3.8164">
        <ele>232</ele>
        <time>2019-10-26T11:06:40.000Z</time>
      </trkpt>
      <trkpt lat="47.83665" lon="3.8164">
        <ele>232</ele>
        <time>2019-10-26T11:06:41.000Z</time>
      </trkpt>
      <trkpt lat="47.83663" lon="3.81641">
        <ele>232</ele>
        <time>2019-10-26T11:06:42.000Z</time>
      </trkpt>
      <trkpt lat="47.83662" lon="3.81641">
        <ele>232</ele>
        <time>2019-10-26T11:06:43.000Z</time>
      </trkpt>
      <trkpt lat="47.8366" lon="3.81641">
        <ele>232</ele>
        <time>2019-10-26T11:06:44.000Z</time>
      </trkpt>
      <trkpt lat="47.83658" lon="3.81641">
        <ele>232</ele>
        <time>2019-10-26T11:06:45.000Z</time>
      </trkpt>
      <trkpt lat="47.83657" lon="3.81642">
        <ele>232</ele>
        <time>2019-10-26T11:06:46.000Z</time>
      </trkpt>
      <trkpt lat="47.83655" lon="3.81642">
        <ele>232</ele>
        <time>2019-10-26T11:06:47.000Z</time>
      </trkpt>
      <trkpt lat="47.83653" lon="3.81642">
        <ele>232</ele>
        <time>2019-10-26T11:06:48.000Z</time>
      </trkpt>
      <trkpt lat="47.83652" lon="3.81643">
        <ele>232</ele>
        <time>2019-10-26T11:06:49.000Z</time>
      </trkpt>
      <trkpt lat="47.8365" lon="3.81643">
        <ele>232</ele>
        <time>2019-10-26T11:06:50.000Z</time>
      </trkpt>
      <trkpt lat="47.83648" lon="3.81643">
        <ele>232</ele>
        <time>2019-10-26T11:06:51.000Z</time>
      </trkpt>
      <trkpt lat="47.83646" lon="3.81644">
        <ele>232</ele>
        <time>2019-10-26T11:06:52.000Z</time>
      </trkpt>
      <trkpt lat="47.83645" lon="3.81643">
        <ele>233</ele>
        <time>2019-10-26T11:06:53.000Z</time>
      </trkpt>
      <trkpt lat="47.83643" lon="3.81643">
        <ele>233</ele>
        <time>2019-10-26T11:06:54.000Z</time>
      </trkpt>
      <trkpt lat="47.83641" lon="3.81643">
        <ele>233</ele>
        <time>2019-10-26T11:06:55.000Z</time>
      </trkpt>
      <trkpt lat="47.83639" lon="3.81643">
        <ele>233</ele>
        <time>2019-10-26T11:06:56.000Z</time>
      </trkpt>
      <trkpt lat="47.83638" lon="3.81644">
        <ele>233</ele>
        <time>2019-10-26T11:06:57.000Z</time>
      </trkpt>
      <trkpt lat="47.83636" lon="3.81644">
        <ele>233</ele>
        <time>2019-10-26T11:06:58.000Z</time>
      </trkpt>
      <trkpt lat="47.83634" lon="3.81645">
        <ele>233</ele>
        <time>2019-10-26T11:06:59.000Z</time>
      </trkpt>
      <trkpt lat="47.83632" lon="3.81645">
        <ele>233</ele>
        <time>2019-10-26T11:07:00.000Z</time>
      </trkpt>
      <trkpt lat="47.83631" lon="3.81645">
        <ele>233</ele>
        <time>2019-10-26T11:07:01.000Z</time>
      </trkpt>
      <trkpt lat="47.83629" lon="3.81645">
        <ele>233</ele>
        <time>2019-10-26T11:07:02.000Z</time>
      </trkpt>
      <trkpt lat="47.83628" lon="3.81645">
        <ele>234</ele>
        <time>2019-10-26T11:07:03.000Z</time>
      </trkpt>
      <trkpt lat="47.83626" lon="3.81646">
        <ele>234</ele>
        <time>2019-10-26T11:07:04.000Z</time>
      </trkpt>
      <trkpt lat="47.83624" lon="3.81646">
        <ele>234</ele>
        <time>2019-10-26T11:07:05.000Z</time>
      </trkpt>
      <trkpt lat="47.83623" lon="3.81646">
        <ele>234</ele>
        <time>2019-10-26T11:07:06.000Z</time>
      </trkpt>
      <trkpt lat="47.83621" lon="3.81646">
        <ele>234</ele>
        <time>2019-10-26T11:07:07.000Z</time>
      </trkpt>
      <trkpt lat="47.8362" lon="3.81646">
        <ele>234</ele>
        <time>2019-10-26T11:07:08.000Z</time>
      </trkpt>
      <trkpt lat="47.83618" lon="3.81646">
        <ele>234</ele>
        <time>2019-10-26T11:07:09.000Z</time>
      </trkpt>
      <trkpt lat="47.83616" lon="3.81647">
        <ele>234</ele>
        <time>2019-10-26T11:07:10.000Z</time>
      </trkpt>
      <trkpt lat="47.83614" lon="3.81647">
        <ele>234</ele>
        <time>2019-10-26T11:07:11.000Z</time>
      </trkpt>
      <trkpt lat="47.83613" lon="3.81647">
        <ele>234</ele>
        <time>2019-10-26T11:07:12.000Z</time>
      </trkpt>
      <trkpt lat="47.83611" lon="3.81647">
        <ele>234</ele>
        <time>2019-10-26T11:07:13.000Z</time>
      </trkpt>
      <trkpt lat="47.83609" lon="3.81647">
        <ele>234</ele>
        <time>2019-10-26T11:07:14.000Z</time>
      </trkpt>
      <trkpt lat="47.83608" lon="3.81648">
        <ele>234</ele>
        <time>2019-10-26T11:07:15.000Z</time>
      </trkpt>
      <trkpt lat="47.83607" lon="3.81648">
        <ele>234</ele>
        <time>2019-10-26T11:07:16.000Z</time>
      </trkpt>
      <trkpt lat="47.83605" lon="3.81648">
        <ele>234</ele>
        <time>2019-10-26T11:07:17.000Z</time>
      </trkpt>
      <trkpt lat="47.83604" lon="3.81648">
        <ele>235</ele>
        <time>2019-10-26T11:07:18.000Z</time>
      </trkpt>
      <trkpt lat="47.83602" lon="3.81648">
        <ele>235</ele>
        <time>2019-10-26T11:07:19.000Z</time>
      </trkpt>
      <trkpt lat="47.83601" lon="3.81649">
        <ele>235</ele>
        <time>2019-10-26T11:07:20.000Z</time>
      </trkpt>
      <trkpt lat="47.83599" lon="3.81649">
        <ele>235</ele>
        <time>2019-10-26T11:07:21.000Z</time>
      </trkpt>
      <trkpt lat="47.83598" lon="3.81649">
        <ele>236</ele>
        <time>2019-10-26T11:07:22.000Z</time>
      </trkpt>
      <trkpt lat="47.83596" lon="3.81649">
        <ele>236</ele>
        <time>2019-10-26T11:07:23.000Z</time>
      </trkpt>
      <trkpt lat="47.83594" lon="3.81649">
        <ele>236</ele>
        <time>2019-10-26T11:07:24.000Z</time>
      </trkpt>
      <trkpt lat="47.83593" lon="3.81649">
        <ele>236</ele>
        <time>2019-10-26T11:07:25.000Z</time>
      </trkpt>
      <trkpt lat="47.83591" lon="3.81649">
        <ele>236</ele>
        <time>2019-10-26T11:07:26.000Z</time>
      </trkpt>
      <trkpt lat="47.83589" lon="3.81649">
        <ele>236</ele>
        <time>2019-10-26T11:07:27.000Z</time>
      </trkpt>
      <trkpt lat="47.83588" lon="3.81649">
        <ele>236</ele>
        <time>2019-10-26T11:07:28.000Z</time>
      </trkpt>
      <trkpt lat="47.83587" lon="3.81649">
        <ele>236</ele>
        <time>2019-10-26T11:07:29.000Z</time>
      </trkpt>
      <trkpt lat="47.83585" lon="3.81649">
        <ele>236</ele>
        <time>2019-10-26T11:07:30.000Z</time>
      </trkpt>
      <trkpt lat="47.83583" lon="3.81649">
        <ele>236</ele>
        <time>2019-10-26T11:07:31.000Z</time>
      </trkpt>
      <trkpt lat="47.83582" lon="3.81649">
        <ele>236</ele>
        <time>2019-10-26T11:07:32.000Z</time>
      </trkpt>
      <trkpt lat="47.8358" lon="3.81649">
        <ele>236</ele>
        <time>2019-10-26T11:07:33.000Z</time>
      </trkpt>
      <trkpt lat="47.83578" lon="3.81649">
        <ele>236</ele>
        <time>2019-10-26T11:07:34.000Z</time>
      </trkpt>
      <trkpt lat="47.83577" lon="3.81649">
        <ele>236</ele>
        <time>2019-10-26T11:07:35.000Z</time>
      </trkpt>
      <trkpt lat="47.83575" lon="3.81649">
        <ele>236</ele>
        <time>2019-10-26T11:07:36.000Z</time>
      </trkpt>
      <trkpt lat="47.83573" lon="3.81649">
        <ele>236</ele>
        <time>2019-10-26T11:07:37.000Z</time>
      </trkpt>
      <trkpt lat="47.83571" lon="3.8165">
        <ele>236</ele>
        <time>2019-10-26T11:07:38.000Z</time>
      </trkpt>
      <trkpt lat="47.83569" lon="3.8165">
        <ele>236</ele>
        <time>2019-10-26T11:07:39.000Z</time>
      </trkpt>
      <trkpt lat="47.83567" lon="3.8165">
        <ele>236</ele>
        <time>2019-10-26T11:07:40.000Z</time>
      </trkpt>
      <trkpt lat="47.83566" lon="3.8165">
        <ele>237</ele>
        <time>2019-10-26T11:07:41.000Z</time>
      </trkpt>
      <trkpt lat="47.83564" lon="3.8165">
        <ele>237</ele>
        <time>2019-10-26T11:07:42.000Z</time>
      </trkpt>
      <trkpt lat="47.83562" lon="3.81651">
        <ele>236</ele>
        <time>2019-10-26T11:07:43.000Z</time>
      </trkpt>
      <trkpt lat="47.8356" lon="3.81651">
        <ele>236</ele>
        <time>2019-10-26T11:07:44.000Z</time>
      </trkpt>
      <trkpt lat="47.83559" lon="3.81651">
        <ele>236</ele>
        <time>2019-10-26T11:07:45.000Z</time>
      </trkpt>
      <trkpt lat="47.83557" lon="3.81651">
        <ele>236</ele>
        <time>2019-10-26T11:07:46.000Z</time>
      </trkpt>
      <trkpt lat="47.83556" lon="3.81652">
        <ele>237</ele>
        <time>2019-10-26T11:07:47.000Z</time>
      </trkpt>
      <trkpt lat="47.83554" lon="3.81652">
        <ele>237</ele>
        <time>2019-10-26T11:07:48.000Z</time>
      </trkpt>
      <trkpt lat="47.83552" lon="3.81652">
        <ele>236</ele>
        <time>2019-10-26T11:07:49.000Z</time>
      </trkpt>
      <trkpt lat="47.8355" lon="3.81652">
        <ele>236</ele>
        <time>2019-10-26T11:07:50.000Z</time>
      </trkpt>
      <trkpt lat="47.83549" lon="3.81653">
        <ele>236</ele>
        <time>2019-10-26T11:07:51.000Z</time>
      </trkpt>
      <trkpt lat="47.83547" lon="3.81653">
        <ele>237</ele>
        <time>2019-10-26T11:07:52.000Z</time>
      </trkpt>
      <trkpt lat="47.83545" lon="3.81653">
        <ele>237</ele>
        <time>2019-10-26T11:07:53.000Z</time>
      </trkpt>
      <trkpt lat="47.83543" lon="3.81654">
        <ele>236</ele>
        <time>2019-10-26T11:07:54.000Z</time>
      </trkpt>
      <trkpt lat="47.83541" lon="3.81654">
        <ele>236</ele>
        <time>2019-10-26T11:07:55.000Z</time>
      </trkpt>
      <trkpt lat="47.8354" lon="3.81655">
        <ele>236</ele>
        <time>2019-10-26T11:07:56.000Z</time>
      </trkpt>
      <trkpt lat="47.83538" lon="3.81655">
        <ele>236</ele>
        <time>2019-10-26T11:07:57.000Z</time>
      </trkpt>
      <trkpt lat="47.83536" lon="3.81655">
        <ele>236</ele>
        <time>2019-10-26T11:07:58.000Z</time>
      </trkpt>
      <trkpt lat="47.83535" lon="3.81656">
        <ele>237</ele>
        <time>2019-10-26T11:07:59.000Z</time>
      </trkpt>
      <trkpt lat="47.83533" lon="3.81656">
        <ele>237</ele>
        <time>2019-10-26T11:08:00.000Z</time>
      </trkpt>
      <trkpt lat="47.83531" lon="3.81657">
        <ele>237</ele>
        <time>2019-10-26T11:08:01.000Z</time>
      </trkpt>
      <trkpt lat="47.83529" lon="3.81657">
        <ele>237</ele>
        <time>2019-10-26T11:08:02.000Z</time>
      </trkpt>
      <trkpt lat="47.83527" lon="3.81658">
        <ele>237</ele>
        <time>2019-10-26T11:08:03.000Z</time>
      </trkpt>
      <trkpt lat="47.83524" lon="3.81659">
        <ele>237</ele>
        <time>2019-10-26T11:08:04.000Z</time>
      </trkpt>
      <trkpt lat="47.83522" lon="3.8166">
        <ele>237</ele>
        <time>2019-10-26T11:08:05.000Z</time>
      </trkpt>
      <trkpt lat="47.8352" lon="3.8166">
        <ele>237</ele>
        <time>2019-10-26T11:08:06.000Z</time>
      </trkpt>
      <trkpt lat="47.83518" lon="3.81661">
        <ele>237</ele>
        <time>2019-10-26T11:08:07.000Z</time>
      </trkpt>
      <trkpt lat="47.83515" lon="3.81662">
        <ele>237</ele>
        <time>2019-10-26T11:08:08.000Z</time>
      </trkpt>
      <trkpt lat="47.83513" lon="3.81662">
        <ele>237</ele>
        <time>2019-10-26T11:08:09.000Z</time>
      </trkpt>
      <trkpt lat="47.83511" lon="3.81663">
        <ele>237</ele>
        <time>2019-10-26T11:08:10.000Z</time>
      </trkpt>
      <trkpt lat="47.83509" lon="3.81664">
        <ele>237</ele>
        <time>2019-10-26T11:08:11.000Z</time>
      </trkpt>
      <trkpt lat="47.83507" lon="3.81666">
        <ele>237</ele>
        <time>2019-10-26T11:08:12.000Z</time>
      </trkpt>
      <trkpt lat="47.83505" lon="3.81667">
        <ele>237</ele>
        <time>2019-10-26T11:08:13.000Z</time>
      </trkpt>
      <trkpt lat="47.83502" lon="3.81668">
        <ele>237</ele>
        <time>2019-10-26T11:08:14.000Z</time>
      </trkpt>
      <trkpt lat="47.835" lon="3.81669">
        <ele>237</ele>
        <time>2019-10-26T11:08:15.000Z</time>
      </trkpt>
      <trkpt lat="47.83498" lon="3.81671">
        <ele>237</ele>
        <time>2019-10-26T11:08:16.000Z</time>
      </trkpt>
      <trkpt lat="47.83496" lon="3.81673">
        <ele>238</ele>
        <time>2019-10-26T11:08:17.000Z</time>
      </trkpt>
      <trkpt lat="47.83494" lon="3.81675">
        <ele>238</ele>
        <time>2019-10-26T11:08:18.000Z</time>
      </trkpt>
      <trkpt lat="47.83492" lon="3.81677">
        <ele>238</ele>
        <time>2019-10-26T11:08:19.000Z</time>
      </trkpt>
      <trkpt lat="47.8349" lon="3.81679">
        <ele>238</ele>
        <time>2019-10-26T11:08:20.000Z</time>
      </trkpt>
      <trkpt lat="47.83488" lon="3.81681">
        <ele>238</ele>
        <time>2019-10-26T11:08:21.000Z</time>
      </trkpt>
      <trkpt lat="47.83485" lon="3.81682">
        <ele>238</ele>
        <time>2019-10-26T11:08:22.000Z</time>
      </trkpt>
      <trkpt lat="47.83483" lon="3.81683">
        <ele>238</ele>
        <time>2019-10-26T11:08:23.000Z</time>
      </trkpt>
      <trkpt lat="47.83481" lon="3.81685">
        <ele>238</ele>
        <time>2019-10-26T11:08:24.000Z</time>
      </trkpt>
      <trkpt lat="47.83479" lon="3.81686">
        <ele>238</ele>
        <time>2019-10-26T11:08:25.000Z</time>
      </trkpt>
      <trkpt lat="47.83476" lon="3.81687">
        <ele>238</ele>
        <time>2019-10-26T11:08:26.000Z</time>
      </trkpt>
      <trkpt lat="47.83474" lon="3.81689">
        <ele>238</ele>
        <time>2019-10-26T11:08:27.000Z</time>
      </trkpt>
      <trkpt lat="47.83472" lon="3.8169">
        <ele>238</ele>
        <time>2019-10-26T11:08:28.000Z</time>
      </trkpt>
      <trkpt lat="47.8347" lon="3.81692">
        <ele>238</ele>
        <time>2019-10-26T11:08:29.000Z</time>
      </trkpt>
      <trkpt lat="47.83468" lon="3.81694">
        <ele>239</ele>
        <time>2019-10-26T11:08:30.000Z</time>
      </trkpt>
      <trkpt lat="47.83466" lon="3.81696">
        <ele>239</ele>
        <time>2019-10-26T11:08:31.000Z</time>
      </trkpt>
      <trkpt lat="47.83464" lon="3.81697">
        <ele>239</ele>
        <time>2019-10-26T11:08:32.000Z</time>
      </trkpt>
      <trkpt lat="47.83461" lon="3.81699">
        <ele>239</ele>
        <time>2019-10-26T11:08:33.000Z</time>
      </trkpt>
      <trkpt lat="47.83459" lon="3.81701">
        <ele>239</ele>
        <time>2019-10-26T11:08:34.000Z</time>
      </trkpt>
      <trkpt lat="47.83457" lon="3.81702">
        <ele>239</ele>
        <time>2019-10-26T11:08:35.000Z</time>
      </trkpt>
      <trkpt lat="47.83455" lon="3.81704">
        <ele>239</ele>
        <time>2019-10-26T11:08:36.000Z</time>
      </trkpt>
      <trkpt lat="47.83453" lon="3.81706">
        <ele>239</ele>
        <time>2019-10-26T11:08:37.000Z</time>
      </trkpt>
      <trkpt lat="47.83451" lon="3.81708">
        <ele>239</ele>
        <time>2019-10-26T11:08:38.000Z</time>
      </trkpt>
      <trkpt lat="47.83449" lon="3.8171">
        <ele>239</ele>
        <time>2019-10-26T11:08:39.000Z</time>
      </trkpt>
      <trkpt lat="47.83447" lon="3.81712">
        <ele>239</ele>
        <time>2019-10-26T11:08:40.000Z</time>
      </trkpt>
      <trkpt lat="47.83445" lon="3.81714">
        <ele>240</ele>
        <time>2019-10-26T11:08:41.000Z</time>
      </trkpt>
      <trkpt lat="47.83443" lon="3.81715">
        <ele>240</ele>
        <time>2019-10-26T11:08:42.000Z</time>
      </trkpt>
      <trkpt lat="47.83441" lon="3.81717">
        <ele>240</ele>
        <time>2019-10-26T11:08:43.000Z</time>
      </trkpt>
      <trkpt lat="47.83439" lon="3.81719">
        <ele>240</ele>
        <time>2019-10-26T11:08:44.000Z</time>
      </trkpt>
      <trkpt lat="47.83437" lon="3.81721">
        <ele>240</ele>
        <time>2019-10-26T11:08:45.000Z</time>
      </trkpt>
      <trkpt lat="47.83435" lon="3.81723">
        <ele>240</ele>
        <time>2019-10-26T11:08:46.000Z</time>
      </trkpt>
      <trkpt lat="47.83433" lon="3.81725">
        <ele>240</ele>
        <time>2019-10-26T11:08:47.000Z</time>
      </trkpt>
      <trkpt lat="47.83431" lon="3.81726">
        <ele>240</ele>
        <time>2019-10-26T11:08:48.000Z</time>
      </trkpt>
      <trkpt lat="47.83429" lon="3.81728">
        <ele>240</ele>
        <time>2019-10-26T11:08:49.000Z</time>
      </trkpt>
      <trkpt lat="47.83427" lon="3.8173">
        <ele>240</ele>
        <time>2019-10-26T11:08:50.000Z</time>
      </trkpt>
      <trkpt lat="47.83425" lon="3.81732">
        <ele>240</ele>
        <time>2019-10-26T11:08:51.000Z</time>
      </trkpt>
      <trkpt lat="47.83423" lon="3.81733">
        <ele>240</ele>
        <time>2019-10-26T11:08:52.000Z</time>
      </trkpt>
      <trkpt lat="47.83421" lon="3.81735">
        <ele>241</ele>
        <time>2019-10-26T11:08:53.000Z</time>
      </trkpt>
      <trkpt lat="47.83419" lon="3.81737">
        <ele>241</ele>
        <time>2019-10-26T11:08:54.000Z</time>
      </trkpt>
      <trkpt lat="47.83417" lon="3.81739">
        <ele>241</ele>
        <time>2019-10-26T11:08:55.000Z</time>
      </trkpt>
      <trkpt lat="47.83415" lon="3.8174">
        <ele>241</ele>
        <time>2019-10-26T11:08:56.000Z</time>
      </trkpt>
      <trkpt lat="47.83414" lon="3.81742">
        <ele>241</ele>
        <time>2019-10-26T11:08:57.000Z</time>
      </trkpt>
      <trkpt lat="47.83412" lon="3.81743">
        <ele>241</ele>
        <time>2019-10-26T11:08:58.000Z</time>
      </trkpt>
      <trkpt lat="47.8341" lon="3.81745">
        <ele>241</ele>
        <time>2019-10-26T11:08:59.000Z</time>
      </trkpt>
      <trkpt lat="47.83408" lon="3.81747">
        <ele>241</ele>
        <time>2019-10-26T11:09:00.000Z</time>
      </trkpt>
      <trkpt lat="47.83406" lon="3.81749">
        <ele>241</ele>
        <time>2019-10-26T11:09:01.000Z</time>
      </trkpt>
      <trkpt lat="47.83403" lon="3.8175">
        <ele>241</ele>
        <time>2019-10-26T11:09:02.000Z</time>
      </trkpt>
      <trkpt lat="47.83401" lon="3.81752">
        <ele>241</ele>
        <time>2019-10-26T11:09:03.000Z</time>
      </trkpt>
      <trkpt lat="47.83399" lon="3.81753">
        <ele>241</ele>
        <time>2019-10-26T11:09:04.000Z</time>
      </trkpt>
      <trkpt lat="47.83397" lon="3.81755">
        <ele>241</ele>
        <time>2019-10-26T11:09:05.000Z</time>
      </trkpt>
      <trkpt lat="47.83395" lon="3.81756">
        <ele>241</ele>
        <time>2019-10-26T11:09:06.000Z</time>
      </trkpt>
      <trkpt lat="47.83393" lon="3.81758">
        <ele>241</ele>
        <time>2019-10-26T11:09:07.000Z</time>
      </trkpt>
      <trkpt lat="47.83391" lon="3.8176">
        <ele>241</ele>
        <time>2019-10-26T11:09:08.000Z</time>
      </trkpt>
      <trkpt lat="47.8339" lon="3.81761">
        <ele>240</ele>
        <time>2019-10-26T11:09:09.000Z</time>
      </trkpt>
      <trkpt lat="47.83389" lon="3.81762">
        <ele>240</ele>
        <time>2019-10-26T11:09:10.000Z</time>
      </trkpt>
      <trkpt lat="47.83387" lon="3.81764">
        <ele>240</ele>
        <time>2019-10-26T11:09:11.000Z</time>
      </trkpt>
      <trkpt lat="47.83386" lon="3.81764">
        <ele>240</ele>
        <time>2019-10-26T11:09:12.000Z</time>
      </trkpt>
      <trkpt lat="47.83385" lon="3.81765">
        <ele>240</ele>
        <time>2019-10-26T11:09:13.000Z</time>
      </trkpt>
      <trkpt lat="47.83384" lon="3.81765">
        <ele>240</ele>
        <time>2019-10-26T11:09:14.000Z</time>
      </trkpt>
      <trkpt lat="47.83383" lon="3.81766">
        <ele>240</ele>
        <time>2019-10-26T11:09:15.000Z</time>
      </trkpt>
      <trkpt lat="47.83382" lon="3.81767">
        <ele>240</ele>
        <time>2019-10-26T11:09:16.000Z</time>
      </trkpt>
      <trkpt lat="47.83381" lon="3.81768">
        <ele>240</ele>
        <time>2019-10-26T11:09:17.000Z</time>
      </trkpt>
      <trkpt lat="47.83379" lon="3.81769">
        <ele>239</ele>
        <time>2019-10-26T11:09:18.000Z</time>
      </trkpt>
      <trkpt lat="47.83378" lon="3.8177">
        <ele>239</ele>
        <time>2019-10-26T11:09:19.000Z</time>
      </trkpt>
      <trkpt lat="47.83377" lon="3.81772">
        <ele>239</ele>
        <time>2019-10-26T11:09:20.000Z</time>
      </trkpt>
      <trkpt lat="47.83376" lon="3.81773">
        <ele>239</ele>
        <time>2019-10-26T11:09:21.000Z</time>
      </trkpt>
      <trkpt lat="47.83374" lon="3.81774">
        <ele>239</ele>
        <time>2019-10-26T11:09:22.000Z</time>
      </trkpt>
      <trkpt lat="47.83373" lon="3.81775">
        <ele>239</ele>
        <time>2019-10-26T11:09:23.000Z</time>
      </trkpt>
      <trkpt lat="47.83372" lon="3.81776">
        <ele>239</ele>
        <time>2019-10-26T11:09:24.000Z</time>
      </trkpt>
      <trkpt lat="47.8337" lon="3.81777">
        <ele>239</ele>
        <time>2019-10-26T11:09:25.000Z</time>
      </trkpt>
      <trkpt lat="47.83369" lon="3.81779">
        <ele>239</ele>
        <time>2019-10-26T11:09:26.000Z</time>
      </trkpt>
      <trkpt lat="47.83367" lon="3.8178">
        <ele>239</ele>
        <time>2019-10-26T11:09:27.000Z</time>
      </trkpt>
      <trkpt lat="47.83365" lon="3.81782">
        <ele>238</ele>
        <time>2019-10-26T11:09:28.000Z</time>
      </trkpt>
      <trkpt lat="47.83363" lon="3.81784">
        <ele>238</ele>
        <time>2019-10-26T11:09:29.000Z</time>
      </trkpt>
      <trkpt lat="47.83361" lon="3.81786">
        <ele>238</ele>
        <time>2019-10-26T11:09:30.000Z</time>
      </trkpt>
      <trkpt lat="47.83359" lon="3.81788">
        <ele>238</ele>
        <time>2019-10-26T11:09:31.000Z</time>
      </trkpt>
      <trkpt lat="47.83357" lon="3.8179">
        <ele>238</ele>
        <time>2019-10-26T11:09:32.000Z</time>
      </trkpt>
      <trkpt lat="47.83355" lon="3.81792">
        <ele>238</ele>
        <time>2019-10-26T11:09:33.000Z</time>
      </trkpt>
      <trkpt lat="47.83352" lon="3.81794">
        <ele>238</ele>
        <time>2019-10-26T11:09:34.000Z</time>
      </trkpt>
      <trkpt lat="47.8335" lon="3.81796">
        <ele>237</ele>
        <time>2019-10-26T11:09:35.000Z</time>
      </trkpt>
      <trkpt lat="47.83347" lon="3.81797">
        <ele>237</ele>
        <time>2019-10-26T11:09:36.000Z</time>
      </trkpt>
      <trkpt lat="47.83345" lon="3.81799">
        <ele>237</ele>
        <time>2019-10-26T11:09:37.000Z</time>
      </trkpt>
      <trkpt lat="47.83343" lon="3.81801">
        <ele>237</ele>
        <time>2019-10-26T11:09:38.000Z</time>
      </trkpt>
      <trkpt lat="47.83341" lon="3.81803">
        <ele>237</ele>
        <time>2019-10-26T11:09:39.000Z</time>
      </trkpt>
      <trkpt lat="47.83339" lon="3.81804">
        <ele>237</ele>
        <time>2019-10-26T11:09:40.000Z</time>
      </trkpt>
      <trkpt lat="47.83337" lon="3.81806">
        <ele>237</ele>
        <time>2019-10-26T11:09:41.000Z</time>
      </trkpt>
      <trkpt lat="47.83335" lon="3.81807">
        <ele>237</ele>
        <time>2019-10-26T11:09:42.000Z</time>
      </trkpt>
      <trkpt lat="47.83333" lon="3.81809">
        <ele>237</ele>
        <time>2019-10-26T11:09:43.000Z</time>
      </trkpt>
      <trkpt lat="47.83332" lon="3.81811">
        <ele>237</ele>
        <time>2019-10-26T11:09:44.000Z</time>
      </trkpt>
      <trkpt lat="47.8333" lon="3.81812">
        <ele>237</ele>
        <time>2019-10-26T11:09:45.000Z</time>
      </trkpt>
      <trkpt lat="47.83328" lon="3.81813">
        <ele>237</ele>
        <time>2019-10-26T11:09:46.000Z</time>
      </trkpt>
      <trkpt lat="47.83327" lon="3.81815">
        <ele>237</ele>
        <time>2019-10-26T11:09:47.000Z</time>
      </trkpt>
      <trkpt lat="47.83325" lon="3.81816">
        <ele>237</ele>
        <time>2019-10-26T11:09:48.000Z</time>
      </trkpt>
      <trkpt lat="47.83324" lon="3.81818">
        <ele>237</ele>
        <time>2019-10-26T11:09:49.000Z</time>
      </trkpt>
      <trkpt lat="47.83323" lon="3.81819">
        <ele>237</ele>
        <time>2019-10-26T11:09:50.000Z</time>
      </trkpt>
      <trkpt lat="47.83321" lon="3.8182">
        <ele>237</ele>
        <time>2019-10-26T11:09:51.000Z</time>
      </trkpt>
      <trkpt lat="47.83321" lon="3.8182">
        <ele>237</ele>
        <time>2019-10-26T11:09:52.000Z</time>
      </trkpt>
      <trkpt lat="47.83321" lon="3.8182">
        <ele>237</ele>
        <time>2019-10-26T11:09:53.000Z</time>
      </trkpt>
      <trkpt lat="47.8332" lon="3.81821">
        <ele>237</ele>
        <time>2019-10-26T11:09:54.000Z</time>
      </trkpt>
      <trkpt lat="47.83319" lon="3.81822">
        <ele>237</ele>
        <time>2019-10-26T11:09:55.000Z</time>
      </trkpt>
      <trkpt lat="47.83317" lon="3.81823">
        <ele>237</ele>
        <time>2019-10-26T11:09:56.000Z</time>
      </trkpt>
      <trkpt lat="47.83316" lon="3.81824">
        <ele>237</ele>
        <time>2019-10-26T11:09:57.000Z</time>
      </trkpt>
      <trkpt lat="47.83315" lon="3.81825">
        <ele>238</ele>
        <time>2019-10-26T11:09:58.000Z</time>
      </trkpt>
      <trkpt lat="47.83313" lon="3.81826">
        <ele>238</ele>
        <time>2019-10-26T11:09:59.000Z</time>
      </trkpt>
      <trkpt lat="47.83312" lon="3.81827">
        <ele>238</ele>
        <time>2019-10-26T11:10:00.000Z</time>
      </trkpt>
      <trkpt lat="47.8331" lon="3.81828">
        <ele>238</ele>
        <time>2019-10-26T11:10:01.000Z</time>
      </trkpt>
      <trkpt lat="47.83309" lon="3.8183">
        <ele>238</ele>
        <time>2019-10-26T11:10:02.000Z</time>
      </trkpt>
      <trkpt lat="47.83308" lon="3.81831">
        <ele>238</ele>
        <time>2019-10-26T11:10:03.000Z</time>
      </trkpt>
      <trkpt lat="47.83306" lon="3.81832">
        <ele>238</ele>
        <time>2019-10-26T11:10:04.000Z</time>
      </trkpt>
      <trkpt lat="47.83305" lon="3.81833">
        <ele>238</ele>
        <time>2019-10-26T11:10:05.000Z</time>
      </trkpt>
      <trkpt lat="47.83304" lon="3.81834">
        <ele>238</ele>
        <time>2019-10-26T11:10:06.000Z</time>
      </trkpt>
      <trkpt lat="47.83302" lon="3.81835">
        <ele>238</ele>
        <time>2019-10-26T11:10:07.000Z</time>
      </trkpt>
      <trkpt lat="47.83301" lon="3.81836">
        <ele>238</ele>
        <time>2019-10-26T11:10:08.000Z</time>
      </trkpt>
      <trkpt lat="47.83299" lon="3.81837">
        <ele>239</ele>
        <time>2019-10-26T11:10:09.000Z</time>
      </trkpt>
      <trkpt lat="47.83298" lon="3.81838">
        <ele>239</ele>
        <time>2019-10-26T11:10:10.000Z</time>
      </trkpt>
      <trkpt lat="47.83297" lon="3.81839">
        <ele>239</ele>
        <time>2019-10-26T11:10:11.000Z</time>
      </trkpt>
      <trkpt lat="47.83295" lon="3.8184">
        <ele>239</ele>
        <time>2019-10-26T11:10:12.000Z</time>
      </trkpt>
      <trkpt lat="47.83294" lon="3.81842">
        <ele>239</ele>
        <time>2019-10-26T11:10:13.000Z</time>
      </trkpt>
      <trkpt lat="47.83293" lon="3.81843">
        <ele>239</ele>
        <time>2019-10-26T11:10:14.000Z</time>
      </trkpt>
      <trkpt lat="47.83291" lon="3.81844">
        <ele>239</ele>
        <time>2019-10-26T11:10:15.000Z</time>
      </trkpt>
      <trkpt lat="47.8329" lon="3.81845">
        <ele>239</ele>
        <time>2019-10-26T11:10:16.000Z</time>
      </trkpt>
      <trkpt lat="47.83289" lon="3.81847">
        <ele>239</ele>
        <time>2019-10-26T11:10:17.000Z</time>
      </trkpt>
      <trkpt lat="47.83287" lon="3.81848">
        <ele>239</ele>
        <time>2019-10-26T11:10:18.000Z</time>
      </trkpt>
      <trkpt lat="47.83286" lon="3.81849">
        <ele>240</ele>
        <time>2019-10-26T11:10:19.000Z</time>
      </trkpt>
      <trkpt lat="47.83284" lon="3.8185">
        <ele>240</ele>
        <time>2019-10-26T11:10:20.000Z</time>
      </trkpt>
      <trkpt lat="47.83283" lon="3.81852">
        <ele>240</ele>
        <time>2019-10-26T11:10:21.000Z</time>
      </trkpt>
      <trkpt lat="47.83282" lon="3.81853">
        <ele>240</ele>
        <time>2019-10-26T11:10:22.000Z</time>
      </trkpt>
      <trkpt lat="47.8328" lon="3.81854">
        <ele>240</ele>
        <time>2019-10-26T11:10:23.000Z</time>
      </trkpt>
      <trkpt lat="47.83279" lon="3.81855">
        <ele>241</ele>
        <time>2019-10-26T11:10:24.000Z</time>
      </trkpt>
      <trkpt lat="47.83278" lon="3.81856">
        <ele>241</ele>
        <time>2019-10-26T11:10:25.000Z</time>
      </trkpt>
      <trkpt lat="47.83276" lon="3.81857">
        <ele>241</ele>
        <time>2019-10-26T11:10:26.000Z</time>
      </trkpt>
      <trkpt lat="47.83275" lon="3.81859">
        <ele>241</ele>
        <time>2019-10-26T11:10:27.000Z</time>
      </trkpt>
      <trkpt lat="47.83274" lon="3.8186">
        <ele>241</ele>
        <time>2019-10-26T11:10:28.000Z</time>
      </trkpt>
      <trkpt lat="47.83272" lon="3.81861">
        <ele>242</ele>
        <time>2019-10-26T11:10:29.000Z</time>
      </trkpt>
      <trkpt lat="47.83271" lon="3.81863">
        <ele>242</ele>
        <time>2019-10-26T11:10:30.000Z</time>
      </trkpt>
      <trkpt lat="47.8327" lon="3.81864">
        <ele>242</ele>
        <time>2019-10-26T11:10:31.000Z</time>
      </trkpt>
      <trkpt lat="47.83268" lon="3.81865">
        <ele>242</ele>
        <time>2019-10-26T11:10:32.000Z</time>
      </trkpt>
      <trkpt lat="47.83267" lon="3.81867">
        <ele>242</ele>
        <time>2019-10-26T11:10:33.000Z</time>
      </trkpt>
      <trkpt lat="47.83266" lon="3.81868">
        <ele>243</ele>
        <time>2019-10-26T11:10:34.000Z</time>
      </trkpt>
      <trkpt lat="47.83264" lon="3.81869">
        <ele>243</ele>
        <time>2019-10-26T11:10:35.000Z</time>
      </trkpt>
      <trkpt lat="47.83263" lon="3.8187">
        <ele>243</ele>
        <time>2019-10-26T11:10:36.000Z</time>
      </trkpt>
      <trkpt lat="47.83262" lon="3.81871">
        <ele>243</ele>
        <time>2019-10-26T11:10:37.000Z</time>
      </trkpt>
      <trkpt lat="47.8326" lon="3.81872">
        <ele>244</ele>
        <time>2019-10-26T11:10:38.000Z</time>
      </trkpt>
      <trkpt lat="47.83259" lon="3.81873">
        <ele>244</ele>
        <time>2019-10-26T11:10:39.000Z</time>
      </trkpt>
      <trkpt lat="47.83258" lon="3.81874">
        <ele>244</ele>
        <time>2019-10-26T11:10:40.000Z</time>
      </trkpt>
      <trkpt lat="47.83257" lon="3.81875">
        <ele>244</ele>
        <time>2019-10-26T11:10:41.000Z</time>
      </trkpt>
      <trkpt lat="47.83255" lon="3.81877">
        <ele>244</ele>
        <time>2019-10-26T11:10:42.000Z</time>
      </trkpt>
      <trkpt lat="47.83254" lon="3.81878">
        <ele>244</ele>
        <time>2019-10-26T11:10:43.000Z</time>
      </trkpt>
      <trkpt lat="47.83252" lon="3.81879">
        <ele>245</ele>
        <time>2019-10-26T11:10:44.000Z</time>
      </trkpt>
      <trkpt lat="47.83251" lon="3.8188">
        <ele>245</ele>
        <time>2019-10-26T11:10:45.000Z</time>
      </trkpt>
      <trkpt lat="47.8325" lon="3.81882">
        <ele>245</ele>
        <time>2019-10-26T11:10:46.000Z</time>
      </trkpt>
      <trkpt lat="47.83248" lon="3.81883">
        <ele>245</ele>
        <time>2019-10-26T11:10:47.000Z</time>
      </trkpt>
      <trkpt lat="47.83247" lon="3.81884">
        <ele>245</ele>
        <time>2019-10-26T11:10:48.000Z</time>
      </trkpt>
      <trkpt lat="47.83246" lon="3.81885">
        <ele>245</ele>
        <time>2019-10-26T11:10:49.000Z</time>
      </trkpt>
      <trkpt lat="47.83244" lon="3.81886">
        <ele>245</ele>
        <time>2019-10-26T11:10:50.000Z</time>
      </trkpt>
      <trkpt lat="47.83243" lon="3.81887">
        <ele>246</ele>
        <time>2019-10-26T11:10:51.000Z</time>
      </trkpt>
      <trkpt lat="47.83242" lon="3.81888">
        <ele>246</ele>
        <time>2019-10-26T11:10:52.000Z</time>
      </trkpt>
      <trkpt lat="47.8324" lon="3.81889">
        <ele>246</ele>
        <time>2019-10-26T11:10:53.000Z</time>
      </trkpt>
      <trkpt lat="47.83239" lon="3.8189">
        <ele>246</ele>
        <time>2019-10-26T11:10:54.000Z</time>
      </trkpt>
      <trkpt lat="47.83238" lon="3.81891">
        <ele>245</ele>
        <time>2019-10-26T11:10:55.000Z</time>
      </trkpt>
      <trkpt lat="47.83237" lon="3.81892">
        <ele>245</ele>
        <time>2019-10-26T11:10:56.000Z</time>
      </trkpt>
      <trkpt lat="47.83235" lon="3.81893">
        <ele>245</ele>
        <time>2019-10-26T11:10:57.000Z</time>
      </trkpt>
      <trkpt lat="47.83234" lon="3.81894">
        <ele>245</ele>
        <time>2019-10-26T11:10:58.000Z</time>
      </trkpt>
      <trkpt lat="47.83233" lon="3.81895">
        <ele>245</ele>
        <time>2019-10-26T11:10:59.000Z</time>
      </trkpt>
      <trkpt lat="47.83232" lon="3.81896">
        <ele>245</ele>
        <time>2019-10-26T11:11:00.000Z</time>
      </trkpt>
      <trkpt lat="47.83231" lon="3.81897">
        <ele>246</ele>
        <time>2019-10-26T11:11:01.000Z</time>
      </trkpt>
      <trkpt lat="47.83229" lon="3.81898">
        <ele>246</ele>
        <time>2019-10-26T11:11:02.000Z</time>
      </trkpt>
      <trkpt lat="47.83228" lon="3.81899">
        <ele>246</ele>
        <time>2019-10-26T11:11:03.000Z</time>
      </trkpt>
      <trkpt lat="47.83227" lon="3.819">
        <ele>246</ele>
        <time>2019-10-26T11:11:04.000Z</time>
      </trkpt>
      <trkpt lat="47.83225" lon="3.81901">
        <ele>246</ele>
        <time>2019-10-26T11:11:05.000Z</time>
      </trkpt>
      <trkpt lat="47.83224" lon="3.81902">
        <ele>246</ele>
        <time>2019-10-26T11:11:06.000Z</time>
      </trkpt>
      <trkpt lat="47.83223" lon="3.81903">
        <ele>246</ele>
        <time>2019-10-26T11:11:07.000Z</time>
      </trkpt>
      <trkpt lat="47.83221" lon="3.81904">
        <ele>246</ele>
        <time>2019-10-26T11:11:08.000Z</time>
      </trkpt>
      <trkpt lat="47.8322" lon="3.81905">
        <ele>246</ele>
        <time>2019-10-26T11:11:09.000Z</time>
      </trkpt>
      <trkpt lat="47.83219" lon="3.81906">
        <ele>246</ele>
        <time>2019-10-26T11:11:10.000Z</time>
      </trkpt>
      <trkpt lat="47.83217" lon="3.81907">
        <ele>246</ele>
        <time>2019-10-26T11:11:11.000Z</time>
      </trkpt>
      <trkpt lat="47.83216" lon="3.81908">
        <ele>247</ele>
        <time>2019-10-26T11:11:12.000Z</time>
      </trkpt>
      <trkpt lat="47.83215" lon="3.81909">
        <ele>247</ele>
        <time>2019-10-26T11:11:13.000Z</time>
      </trkpt>
      <trkpt lat="47.83213" lon="3.8191">
        <ele>247</ele>
        <time>2019-10-26T11:11:14.000Z</time>
      </trkpt>
      <trkpt lat="47.83212" lon="3.81911">
        <ele>247</ele>
        <time>2019-10-26T11:11:15.000Z</time>
      </trkpt>
      <trkpt lat="47.8321" lon="3.81913">
        <ele>247</ele>
        <time>2019-10-26T11:11:16.000Z</time>
      </trkpt>
      <trkpt lat="47.83209" lon="3.81914">
        <ele>247</ele>
        <time>2019-10-26T11:11:17.000Z</time>
      </trkpt>
      <trkpt lat="47.83207" lon="3.81915">
        <ele>247</ele>
        <time>2019-10-26T11:11:18.000Z</time>
      </trkpt>
      <trkpt lat="47.83206" lon="3.81916">
        <ele>247</ele>
        <time>2019-10-26T11:11:19.000Z</time>
      </trkpt>
      <trkpt lat="47.83205" lon="3.81917">
        <ele>248</ele>
        <time>2019-10-26T11:11:20.000Z</time>
      </trkpt>
      <trkpt lat="47.83203" lon="3.81917">
        <ele>248</ele>
        <time>2019-10-26T11:11:21.000Z</time>
      </trkpt>
      <trkpt lat="47.83202" lon="3.81918">
        <ele>248</ele>
        <time>2019-10-26T11:11:22.000Z</time>
      </trkpt>
      <trkpt lat="47.83201" lon="3.81918">
        <ele>248</ele>
        <time>2019-10-26T11:11:23.000Z</time>
      </trkpt>
      <trkpt lat="47.83199" lon="3.81919">
        <ele>248</ele>
        <time>2019-10-26T11:11:24.000Z</time>
      </trkpt>
      <trkpt lat="47.83198" lon="3.8192">
        <ele>248</ele>
        <time>2019-10-26T11:11:25.000Z</time>
      </trkpt>
      <trkpt lat="47.83197" lon="3.8192">
        <ele>248</ele>
        <time>2019-10-26T11:11:26.000Z</time>
      </trkpt>
      <trkpt lat="47.83196" lon="3.81921">
        <ele>248</ele>
        <time>2019-10-26T11:11:27.000Z</time>
      </trkpt>
      <trkpt lat="47.83195" lon="3.81922">
        <ele>248</ele>
        <time>2019-10-26T11:11:28.000Z</time>
      </trkpt>
      <trkpt lat="47.83193" lon="3.81923">
        <ele>248</ele>
        <time>2019-10-26T11:11:29.000Z</time>
      </trkpt>
      <trkpt lat="47.83191" lon="3.81924">
        <ele>248</ele>
        <time>2019-10-26T11:11:30.000Z</time>
      </trkpt>
      <trkpt lat="47.8319" lon="3.81925">
        <ele>248</ele>
        <time>2019-10-26T11:11:31.000Z</time>
      </trkpt>
      <trkpt lat="47.83189" lon="3.81926">
        <ele>248</ele>
        <time>2019-10-26T11:11:32.000Z</time>
      </trkpt>
      <trkpt lat="47.83187" lon="3.81927">
        <ele>248</ele>
        <time>2019-10-26T11:11:33.000Z</time>
      </trkpt>
      <trkpt lat="47.83186" lon="3.81928">
        <ele>248</ele>
        <time>2019-10-26T11:11:34.000Z</time>
      </trkpt>
      <trkpt lat="47.83184" lon="3.81929">
        <ele>249</ele>
        <time>2019-10-26T11:11:35.000Z</time>
      </trkpt>
      <trkpt lat="47.83183" lon="3.8193">
        <ele>249</ele>
        <time>2019-10-26T11:11:36.000Z</time>
      </trkpt>
      <trkpt lat="47.83181" lon="3.81931">
        <ele>249</ele>
        <time>2019-10-26T11:11:37.000Z</time>
      </trkpt>
      <trkpt lat="47.8318" lon="3.81932">
        <ele>249</ele>
        <time>2019-10-26T11:11:38.000Z</time>
      </trkpt>
      <trkpt lat="47.83178" lon="3.81933">
        <ele>249</ele>
        <time>2019-10-26T11:11:39.000Z</time>
      </trkpt>
      <trkpt lat="47.83177" lon="3.81933">
        <ele>249</ele>
        <time>2019-10-26T11:11:40.000Z</time>
      </trkpt>
      <trkpt lat="47.83175" lon="3.81934">
        <ele>249</ele>
        <time>2019-10-26T11:11:41.000Z</time>
      </trkpt>
      <trkpt lat="47.83174" lon="3.81935">
        <ele>249</ele>
        <time>2019-10-26T11:11:42.000Z</time>
      </trkpt>
      <trkpt lat="47.83172" lon="3.81936">
        <ele>249</ele>
        <time>2019-10-26T11:11:43.000Z</time>
      </trkpt>
      <trkpt lat="47.83171" lon="3.81937">
        <ele>250</ele>
        <time>2019-10-26T11:11:44.000Z</time>
      </trkpt>
      <trkpt lat="47.83169" lon="3.81938">
        <ele>250</ele>
        <time>2019-10-26T11:11:45.000Z</time>
      </trkpt>
      <trkpt lat="47.83168" lon="3.81939">
        <ele>250</ele>
        <time>2019-10-26T11:11:46.000Z</time>
      </trkpt>
      <trkpt lat="47.83166" lon="3.8194">
        <ele>250</ele>
        <time>2019-10-26T11:11:47.000Z</time>
      </trkpt>
      <trkpt lat="47.83164" lon="3.8194">
        <ele>250</ele>
        <time>2019-10-26T11:11:48.000Z</time>
      </trkpt>
      <trkpt lat="47.83163" lon="3.8194">
        <ele>250</ele>
        <time>2019-10-26T11:11:49.000Z</time>
      </trkpt>
      <trkpt lat="47.83161" lon="3.81941">
        <ele>250</ele>
        <time>2019-10-26T11:11:50.000Z</time>
      </trkpt>
      <trkpt lat="47.83159" lon="3.81941">
        <ele>250</ele>
        <time>2019-10-26T11:11:51.000Z</time>
      </trkpt>
      <trkpt lat="47.83157" lon="3.8194">
        <ele>250</ele>
        <time>2019-10-26T11:11:52.000Z</time>
      </trkpt>
      <trkpt lat="47.83156" lon="3.8194">
        <ele>250</ele>
        <time>2019-10-26T11:11:53.000Z</time>
      </trkpt>
      <trkpt lat="47.83154" lon="3.81939">
        <ele>250</ele>
        <time>2019-10-26T11:11:54.000Z</time>
      </trkpt>
      <trkpt lat="47.83153" lon="3.81938">
        <ele>250</ele>
        <time>2019-10-26T11:11:55.000Z</time>
      </trkpt>
      <trkpt lat="47.83151" lon="3.81936">
        <ele>250</ele>
        <time>2019-10-26T11:11:56.000Z</time>
      </trkpt>
      <trkpt lat="47.83149" lon="3.81935">
        <ele>250</ele>
        <time>2019-10-26T11:11:57.000Z</time>
      </trkpt>
      <trkpt lat="47.83147" lon="3.81933">
        <ele>250</ele>
        <time>2019-10-26T11:11:58.000Z</time>
      </trkpt>
      <trkpt lat="47.83145" lon="3.81931">
        <ele>250</ele>
        <time>2019-10-26T11:11:59.000Z</time>
      </trkpt>
      <trkpt lat="47.83143" lon="3.81929">
        <ele>250</ele>
        <time>2019-10-26T11:12:00.000Z</time>
      </trkpt>
      <trkpt lat="47.83141" lon="3.81927">
        <ele>251</ele>
        <time>2019-10-26T11:12:01.000Z</time>
      </trkpt>
      <trkpt lat="47.83139" lon="3.81925">
        <ele>251</ele>
        <time>2019-10-26T11:12:02.000Z</time>
      </trkpt>
      <trkpt lat="47.83136" lon="3.81923">
        <ele>251</ele>
        <time>2019-10-26T11:12:03.000Z</time>
      </trkpt>
      <trkpt lat="47.83134" lon="3.81921">
        <ele>251</ele>
        <time>2019-10-26T11:12:04.000Z</time>
      </trkpt>
      <trkpt lat="47.83132" lon="3.81919">
        <ele>251</ele>
        <time>2019-10-26T11:12:05.000Z</time>
      </trkpt>
      <trkpt lat="47.8313" lon="3.81917">
        <ele>251</ele>
        <time>2019-10-26T11:12:06.000Z</time>
      </trkpt>
      <trkpt lat="47.83128" lon="3.81915">
        <ele>251</ele>
        <time>2019-10-26T11:12:07.000Z</time>
      </trkpt>
      <trkpt lat="47.83126" lon="3.81912">
        <ele>251</ele>
        <time>2019-10-26T11:12:08.000Z</time>
      </trkpt>
      <trkpt lat="47.83124" lon="3.8191">
        <ele>251</ele>
        <time>2019-10-26T11:12:09.000Z</time>
      </trkpt>
      <trkpt lat="47.83121" lon="3.81908">
        <ele>251</ele>
        <time>2019-10-26T11:12:10.000Z</time>
      </trkpt>
      <trkpt lat="47.83119" lon="3.81906">
        <ele>251</ele>
        <time>2019-10-26T11:12:11.000Z</time>
      </trkpt>
      <trkpt lat="47.83117" lon="3.81903">
        <ele>251</ele>
        <time>2019-10-26T11:12:12.000Z</time>
      </trkpt>
      <trkpt lat="47.83115" lon="3.81901">
        <ele>251</ele>
        <time>2019-10-26T11:12:13.000Z</time>
      </trkpt>
      <trkpt lat="47.83114" lon="3.81898">
        <ele>251</ele>
        <time>2019-10-26T11:12:14.000Z</time>
      </trkpt>
      <trkpt lat="47.83112" lon="3.81896">
        <ele>251</ele>
        <time>2019-10-26T11:12:15.000Z</time>
      </trkpt>
      <trkpt lat="47.8311" lon="3.81894">
        <ele>251</ele>
        <time>2019-10-26T11:12:16.000Z</time>
      </trkpt>
      <trkpt lat="47.83108" lon="3.81892">
        <ele>251</ele>
        <time>2019-10-26T11:12:17.000Z</time>
      </trkpt>
      <trkpt lat="47.83106" lon="3.81889">
        <ele>251</ele>
        <time>2019-10-26T11:12:18.000Z</time>
      </trkpt>
      <trkpt lat="47.83104" lon="3.81887">
        <ele>251</ele>
        <time>2019-10-26T11:12:19.000Z</time>
      </trkpt>
      <trkpt lat="47.83102" lon="3.81885">
        <ele>251</ele>
        <time>2019-10-26T11:12:20.000Z</time>
      </trkpt>
      <trkpt lat="47.831" lon="3.81882">
        <ele>251</ele>
        <time>2019-10-26T11:12:21.000Z</time>
      </trkpt>
      <trkpt lat="47.83098" lon="3.8188">
        <ele>251</ele>
        <time>2019-10-26T11:12:22.000Z</time>
      </trkpt>
      <trkpt lat="47.83096" lon="3.81878">
        <ele>251</ele>
        <time>2019-10-26T11:12:23.000Z</time>
      </trkpt>
      <trkpt lat="47.83093" lon="3.81876">
        <ele>251</ele>
        <time>2019-10-26T11:12:24.000Z</time>
      </trkpt>
      <trkpt lat="47.83091" lon="3.81874">
        <ele>251</ele>
        <time>2019-10-26T11:12:25.000Z</time>
      </trkpt>
      <trkpt lat="47.83089" lon="3.81871">
        <ele>251</ele>
        <time>2019-10-26T11:12:26.000Z</time>
      </trkpt>
      <trkpt lat="47.83087" lon="3.81869">
        <ele>251</ele>
        <time>2019-10-26T11:12:27.000Z</time>
      </trkpt>
      <trkpt lat="47.83085" lon="3.81867">
        <ele>251</ele>
        <time>2019-10-26T11:12:28.000Z</time>
      </trkpt>
      <trkpt lat="47.83083" lon="3.81865">
        <ele>251</ele>
        <time>2019-10-26T11:12:29.000Z</time>
      </trkpt>
      <trkpt lat="47.83081" lon="3.81863">
        <ele>251</ele>
        <time>2019-10-26T11:12:30.000Z</time>
      </trkpt>
      <trkpt lat="47.83079" lon="3.81861">
        <ele>251</ele>
        <time>2019-10-26T11:12:31.000Z</time>
      </trkpt>
      <trkpt lat="47.83078" lon="3.8186">
        <ele>251</ele>
        <time>2019-10-26T11:12:32.000Z</time>
      </trkpt>
      <trkpt lat="47.83076" lon="3.81857">
        <ele>251</ele>
        <time>2019-10-26T11:12:33.000Z</time>
      </trkpt>
      <trkpt lat="47.83074" lon="3.81855">
        <ele>251</ele>
        <time>2019-10-26T11:12:34.000Z</time>
      </trkpt>
      <trkpt lat="47.83072" lon="3.81853">
        <ele>251</ele>
        <time>2019-10-26T11:12:35.000Z</time>
      </trkpt>
      <trkpt lat="47.8307" lon="3.81851">
        <ele>251</ele>
        <time>2019-10-26T11:12:36.000Z</time>
      </trkpt>
      <trkpt lat="47.83069" lon="3.81849">
        <ele>251</ele>
        <time>2019-10-26T11:12:37.000Z</time>
      </trkpt>
      <trkpt lat="47.83067" lon="3.81848">
        <ele>251</ele>
        <time>2019-10-26T11:12:38.000Z</time>
      </trkpt>
      <trkpt lat="47.83066" lon="3.81847">
        <ele>251</ele>
        <time>2019-10-26T11:12:39.000Z</time>
      </trkpt>
      <trkpt lat="47.83065" lon="3.81846">
        <ele>251</ele>
        <time>2019-10-26T11:12:40.000Z</time>
      </trkpt>
      <trkpt lat="47.83064" lon="3.81845">
        <ele>251</ele>
        <time>2019-10-26T11:12:41.000Z</time>
      </trkpt>
      <trkpt lat="47.83063" lon="3.81844">
        <ele>251</ele>
        <time>2019-10-26T11:12:42.000Z</time>
      </trkpt>
      <trkpt lat="47.83061" lon="3.81842">
        <ele>251</ele>
        <time>2019-10-26T11:12:43.000Z</time>
      </trkpt>
      <trkpt lat="47.8306" lon="3.81841">
        <ele>251</ele>
        <time>2019-10-26T11:12:44.000Z</time>
      </trkpt>
      <trkpt lat="47.83059" lon="3.81839">
        <ele>251</ele>
        <time>2019-10-26T11:12:45.000Z</time>
      </trkpt>
      <trkpt lat="47.83058" lon="3.81838">
        <ele>251</ele>
        <time>2019-10-26T11:12:46.000Z</time>
      </trkpt>
      <trkpt lat="47.83057" lon="3.81837">
        <ele>251</ele>
        <time>2019-10-26T11:12:47.000Z</time>
      </trkpt>
      <trkpt lat="47.83055" lon="3.81836">
        <ele>252</ele>
        <time>2019-10-26T11:12:48.000Z</time>
      </trkpt>
      <trkpt lat="47.83054" lon="3.81834">
        <ele>252</ele>
        <time>2019-10-26T11:12:49.000Z</time>
      </trkpt>
      <trkpt lat="47.83053" lon="3.81833">
        <ele>252</ele>
        <time>2019-10-26T11:12:50.000Z</time>
      </trkpt>
      <trkpt lat="47.83052" lon="3.81831">
        <ele>252</ele>
        <time>2019-10-26T11:12:51.000Z</time>
      </trkpt>
      <trkpt lat="47.83051" lon="3.8183">
        <ele>252</ele>
        <time>2019-10-26T11:12:52.000Z</time>
      </trkpt>
      <trkpt lat="47.83049" lon="3.81829">
        <ele>252</ele>
        <time>2019-10-26T11:12:53.000Z</time>
      </trkpt>
      <trkpt lat="47.83048" lon="3.81827">
        <ele>251</ele>
        <time>2019-10-26T11:12:54.000Z</time>
      </trkpt>
      <trkpt lat="47.83047" lon="3.81826">
        <ele>251</ele>
        <time>2019-10-26T11:12:55.000Z</time>
      </trkpt>
      <trkpt lat="47.83045" lon="3.81824">
        <ele>251</ele>
        <time>2019-10-26T11:12:56.000Z</time>
      </trkpt>
      <trkpt lat="47.83044" lon="3.81822">
        <ele>251</ele>
        <time>2019-10-26T11:12:57.000Z</time>
      </trkpt>
      <trkpt lat="47.83042" lon="3.81821">
        <ele>251</ele>
        <time>2019-10-26T11:12:58.000Z</time>
      </trkpt>
      <trkpt lat="47.8304" lon="3.81819">
        <ele>251</ele>
        <time>2019-10-26T11:12:59.000Z</time>
      </trkpt>
      <trkpt lat="47.83038" lon="3.81817">
        <ele>251</ele>
        <time>2019-10-26T11:13:00.000Z</time>
      </trkpt>
      <trkpt lat="47.83036" lon="3.81815">
        <ele>252</ele>
        <time>2019-10-26T11:13:01.000Z</time>
      </trkpt>
      <trkpt lat="47.83034" lon="3.81813">
        <ele>252</ele>
        <time>2019-10-26T11:13:02.000Z</time>
      </trkpt>
      <trkpt lat="47.83032" lon="3.81811">
        <ele>252</ele>
        <time>2019-10-26T11:13:03.000Z</time>
      </trkpt>
      <trkpt lat="47.8303" lon="3.81809">
        <ele>252</ele>
        <time>2019-10-26T11:13:04.000Z</time>
      </trkpt>
      <trkpt lat="47.83028" lon="3.81807">
        <ele>252</ele>
        <time>2019-10-26T11:13:05.000Z</time>
      </trkpt>
      <trkpt lat="47.83026" lon="3.81805">
        <ele>252</ele>
        <time>2019-10-26T11:13:06.000Z</time>
      </trkpt>
      <trkpt lat="47.83024" lon="3.81804">
        <ele>253</ele>
        <time>2019-10-26T11:13:07.000Z</time>
      </trkpt>
      <trkpt lat="47.83022" lon="3.81802">
        <ele>253</ele>
        <time>2019-10-26T11:13:08.000Z</time>
      </trkpt>
      <trkpt lat="47.8302" lon="3.818">
        <ele>253</ele>
        <time>2019-10-26T11:13:09.000Z</time>
      </trkpt>
      <trkpt lat="47.83018" lon="3.81798">
        <ele>253</ele>
        <time>2019-10-26T11:13:10.000Z</time>
      </trkpt>
      <trkpt lat="47.83015" lon="3.81796">
        <ele>253</ele>
        <time>2019-10-26T11:13:11.000Z</time>
      </trkpt>
      <trkpt lat="47.83013" lon="3.81794">
        <ele>253</ele>
        <time>2019-10-26T11:13:12.000Z</time>
      </trkpt>
      <trkpt lat="47.83011" lon="3.81792">
        <ele>254</ele>
        <time>2019-10-26T11:13:13.000Z</time>
      </trkpt>
      <trkpt lat="47.83009" lon="3.8179">
        <ele>254</ele>
        <time>2019-10-26T11:13:14.000Z</time>
      </trkpt>
      <trkpt lat="47.83007" lon="3.81788">
        <ele>254</ele>
        <time>2019-10-26T11:13:15.000Z</time>
      </trkpt>
      <trkpt lat="47.83005" lon="3.81786">
        <ele>254</ele>
        <time>2019-10-26T11:13:16.000Z</time>
      </trkpt>
      <trkpt lat="47.83003" lon="3.81784">
        <ele>254</ele>
        <time>2019-10-26T11:13:17.000Z</time>
      </trkpt>
      <trkpt lat="47.83001" lon="3.81783">
        <ele>254</ele>
        <time>2019-10-26T11:13:18.000Z</time>
      </trkpt>
      <trkpt lat="47.82999" lon="3.81781">
        <ele>254</ele>
        <time>2019-10-26T11:13:19.000Z</time>
      </trkpt>
      <trkpt lat="47.82997" lon="3.81779">
        <ele>254</ele>
        <time>2019-10-26T11:13:20.000Z</time>
      </trkpt>
      <trkpt lat="47.82994" lon="3.81777">
        <ele>254</ele>
        <time>2019-10-26T11:13:21.000Z</time>
      </trkpt>
      <trkpt lat="47.82993" lon="3.81776">
        <ele>254</ele>
        <time>2019-10-26T11:13:22.000Z</time>
      </trkpt>
      <trkpt lat="47.82991" lon="3.81774">
        <ele>254</ele>
        <time>2019-10-26T11:13:23.000Z</time>
      </trkpt>
      <trkpt lat="47.8299" lon="3.81773">
        <ele>254</ele>
        <time>2019-10-26T11:13:24.000Z</time>
      </trkpt>
      <trkpt lat="47.82988" lon="3.81772">
        <ele>254</ele>
        <time>2019-10-26T11:13:25.000Z</time>
      </trkpt>
      <trkpt lat="47.82987" lon="3.81771">
        <ele>254</ele>
        <time>2019-10-26T11:13:26.000Z</time>
      </trkpt>
      <trkpt lat="47.82986" lon="3.8177">
        <ele>254</ele>
        <time>2019-10-26T11:13:27.000Z</time>
      </trkpt>
      <trkpt lat="47.82984" lon="3.81769">
        <ele>254</ele>
        <time>2019-10-26T11:13:28.000Z</time>
      </trkpt>
      <trkpt lat="47.82983" lon="3.81768">
        <ele>253</ele>
        <time>2019-10-26T11:13:29.000Z</time>
      </trkpt>
      <trkpt lat="47.82982" lon="3.81767">
        <ele>253</ele>
        <time>2019-10-26T11:13:30.000Z</time>
      </trkpt>
      <trkpt lat="47.82981" lon="3.81766">
        <ele>253</ele>
        <time>2019-10-26T11:13:31.000Z</time>
      </trkpt>
      <trkpt lat="47.82979" lon="3.81765">
        <ele>253</ele>
        <time>2019-10-26T11:13:32.000Z</time>
      </trkpt>
      <trkpt lat="47.82978" lon="3.81764">
        <ele>253</ele>
        <time>2019-10-26T11:13:33.000Z</time>
      </trkpt>
      <trkpt lat="47.82976" lon="3.81762">
        <ele>253</ele>
        <time>2019-10-26T11:13:34.000Z</time>
      </trkpt>
      <trkpt lat="47.82975" lon="3.81761">
        <ele>253</ele>
        <time>2019-10-26T11:13:35.000Z</time>
      </trkpt>
      <trkpt lat="47.82975" lon="3.81759">
        <ele>253</ele>
        <time>2019-10-26T11:13:36.000Z</time>
      </trkpt>
      <trkpt lat="47.82974" lon="3.81758">
        <ele>253</ele>
        <time>2019-10-26T11:13:37.000Z</time>
      </trkpt>
      <trkpt lat="47.82973" lon="3.81757">
        <ele>253</ele>
        <time>2019-10-26T11:13:38.000Z</time>
      </trkpt>
      <trkpt lat="47.82972" lon="3.81756">
        <ele>253</ele>
        <time>2019-10-26T11:13:39.000Z</time>
      </trkpt>
      <trkpt lat="47.82971" lon="3.81755">
        <ele>253</ele>
        <time>2019-10-26T11:13:40.000Z</time>
      </trkpt>
      <trkpt lat="47.82969" lon="3.81754">
        <ele>252</ele>
        <time>2019-10-26T11:13:41.000Z</time>
      </trkpt>
      <trkpt lat="47.82968" lon="3.81753">
        <ele>253</ele>
        <time>2019-10-26T11:13:42.000Z</time>
      </trkpt>
      <trkpt lat="47.82967" lon="3.81752">
        <ele>252</ele>
        <time>2019-10-26T11:13:43.000Z</time>
      </trkpt>
      <trkpt lat="47.82965" lon="3.81752">
        <ele>252</ele>
        <time>2019-10-26T11:13:44.000Z</time>
      </trkpt>
      <trkpt lat="47.82964" lon="3.81751">
        <ele>252</ele>
        <time>2019-10-26T11:13:45.000Z</time>
      </trkpt>
      <trkpt lat="47.82962" lon="3.8175">
        <ele>252</ele>
        <time>2019-10-26T11:13:46.000Z</time>
      </trkpt>
      <trkpt lat="47.82961" lon="3.81749">
        <ele>252</ele>
        <time>2019-10-26T11:13:47.000Z</time>
      </trkpt>
      <trkpt lat="47.8296" lon="3.81748">
        <ele>252</ele>
        <time>2019-10-26T11:13:48.000Z</time>
      </trkpt>
      <trkpt lat="47.82959" lon="3.81747">
        <ele>252</ele>
        <time>2019-10-26T11:13:49.000Z</time>
      </trkpt>
      <trkpt lat="47.82957" lon="3.81746">
        <ele>253</ele>
        <time>2019-10-26T11:13:50.000Z</time>
      </trkpt>
      <trkpt lat="47.82956" lon="3.81745">
        <ele>253</ele>
        <time>2019-10-26T11:13:51.000Z</time>
      </trkpt>
      <trkpt lat="47.82954" lon="3.81744">
        <ele>253</ele>
        <time>2019-10-26T11:13:52.000Z</time>
      </trkpt>
      <trkpt lat="47.82953" lon="3.81744">
        <ele>253</ele>
        <time>2019-10-26T11:13:53.000Z</time>
      </trkpt>
      <trkpt lat="47.82951" lon="3.81743">
        <ele>253</ele>
        <time>2019-10-26T11:13:54.000Z</time>
      </trkpt>
      <trkpt lat="47.8295" lon="3.81742">
        <ele>253</ele>
        <time>2019-10-26T11:13:55.000Z</time>
      </trkpt>
      <trkpt lat="47.82949" lon="3.81742">
        <ele>252</ele>
        <time>2019-10-26T11:13:56.000Z</time>
      </trkpt>
      <trkpt lat="47.82947" lon="3.81741">
        <ele>252</ele>
        <time>2019-10-26T11:13:57.000Z</time>
      </trkpt>
      <trkpt lat="47.82946" lon="3.8174">
        <ele>252</ele>
        <time>2019-10-26T11:13:58.000Z</time>
      </trkpt>
      <trkpt lat="47.82944" lon="3.81739">
        <ele>252</ele>
        <time>2019-10-26T11:13:59.000Z</time>
      </trkpt>
      <trkpt lat="47.82943" lon="3.81738">
        <ele>252</ele>
        <time>2019-10-26T11:14:00.000Z</time>
      </trkpt>
      <trkpt lat="47.82941" lon="3.81738">
        <ele>252</ele>
        <time>2019-10-26T11:14:01.000Z</time>
      </trkpt>
      <trkpt lat="47.82939" lon="3.81737">
        <ele>252</ele>
        <time>2019-10-26T11:14:02.000Z</time>
      </trkpt>
      <trkpt lat="47.82937" lon="3.81736">
        <ele>252</ele>
        <time>2019-10-26T11:14:03.000Z</time>
      </trkpt>
      <trkpt lat="47.82935" lon="3.81735">
        <ele>252</ele>
        <time>2019-10-26T11:14:04.000Z</time>
      </trkpt>
      <trkpt lat="47.82933" lon="3.81734">
        <ele>253</ele>
        <time>2019-10-26T11:14:05.000Z</time>
      </trkpt>
      <trkpt lat="47.8293" lon="3.81732">
        <ele>253</ele>
        <time>2019-10-26T11:14:06.000Z</time>
      </trkpt>
      <trkpt lat="47.82928" lon="3.81731">
        <ele>253</ele>
        <time>2019-10-26T11:14:07.000Z</time>
      </trkpt>
      <trkpt lat="47.82926" lon="3.81731">
        <ele>253</ele>
        <time>2019-10-26T11:14:08.000Z</time>
      </trkpt>
      <trkpt lat="47.82923" lon="3.8173">
        <ele>253</ele>
        <time>2019-10-26T11:14:09.000Z</time>
      </trkpt>
      <trkpt lat="47.82921" lon="3.81729">
        <ele>253</ele>
        <time>2019-10-26T11:14:10.000Z</time>
      </trkpt>
      <trkpt lat="47.82919" lon="3.81728">
        <ele>253</ele>
        <time>2019-10-26T11:14:11.000Z</time>
      </trkpt>
      <trkpt lat="47.82916" lon="3.81727">
        <ele>253</ele>
        <time>2019-10-26T11:14:12.000Z</time>
      </trkpt>
      <trkpt lat="47.82914" lon="3.81726">
        <ele>253</ele>
        <time>2019-10-26T11:14:13.000Z</time>
      </trkpt>
      <trkpt lat="47.82911" lon="3.81724">
        <ele>253</ele>
        <time>2019-10-26T11:14:14.000Z</time>
      </trkpt>
      <trkpt lat="47.82909" lon="3.81723">
        <ele>253</ele>
        <time>2019-10-26T11:14:15.000Z</time>
      </trkpt>
      <trkpt lat="47.82907" lon="3.81722">
        <ele>253</ele>
        <time>2019-10-26T11:14:16.000Z</time>
      </trkpt>
      <trkpt lat="47.82904" lon="3.81721">
        <ele>253</ele>
        <time>2019-10-26T11:14:17.000Z</time>
      </trkpt>
      <trkpt lat="47.82902" lon="3.8172">
        <ele>253</ele>
        <time>2019-10-26T11:14:18.000Z</time>
      </trkpt>
      <trkpt lat="47.829" lon="3.8172">
        <ele>253</ele>
        <time>2019-10-26T11:14:19.000Z</time>
      </trkpt>
      <trkpt lat="47.82897" lon="3.81718">
        <ele>253</ele>
        <time>2019-10-26T11:14:20.000Z</time>
      </trkpt>
      <trkpt lat="47.82895" lon="3.81717">
        <ele>253</ele>
        <time>2019-10-26T11:14:21.000Z</time>
      </trkpt>
      <trkpt lat="47.82892" lon="3.81716">
        <ele>253</ele>
        <time>2019-10-26T11:14:22.000Z</time>
      </trkpt>
      <trkpt lat="47.8289" lon="3.81715">
        <ele>253</ele>
        <time>2019-10-26T11:14:23.000Z</time>
      </trkpt>
      <trkpt lat="47.82887" lon="3.81714">
        <ele>253</ele>
        <time>2019-10-26T11:14:24.000Z</time>
      </trkpt>
      <trkpt lat="47.82885" lon="3.81713">
        <ele>253</ele>
        <time>2019-10-26T11:14:25.000Z</time>
      </trkpt>
      <trkpt lat="47.82883" lon="3.81712">
        <ele>253</ele>
        <time>2019-10-26T11:14:26.000Z</time>
      </trkpt>
      <trkpt lat="47.8288" lon="3.8171">
        <ele>253</ele>
        <time>2019-10-26T11:14:27.000Z</time>
      </trkpt>
      <trkpt lat="47.82878" lon="3.8171">
        <ele>253</ele>
        <time>2019-10-26T11:14:28.000Z</time>
      </trkpt>
      <trkpt lat="47.82875" lon="3.81709">
        <ele>253</ele>
        <time>2019-10-26T11:14:29.000Z</time>
      </trkpt>
      <trkpt lat="47.82873" lon="3.81707">
        <ele>253</ele>
        <time>2019-10-26T11:14:30.000Z</time>
      </trkpt>
      <trkpt lat="47.82871" lon="3.81706">
        <ele>253</ele>
        <time>2019-10-26T11:14:31.000Z</time>
      </trkpt>
      <trkpt lat="47.82868" lon="3.81705">
        <ele>253</ele>
        <time>2019-10-26T11:14:32.000Z</time>
      </trkpt>
      <trkpt lat="47.82866" lon="3.81704">
        <ele>253</ele>
        <time>2019-10-26T11:14:33.000Z</time>
      </trkpt>
      <trkpt lat="47.82864" lon="3.81703">
        <ele>253</ele>
        <time>2019-10-26T11:14:34.000Z</time>
      </trkpt>
      <trkpt lat="47.82861" lon="3.81702">
        <ele>252</ele>
        <time>2019-10-26T11:14:35.000Z</time>
      </trkpt>
      <trkpt lat="47.82859" lon="3.81701">
        <ele>252</ele>
        <time>2019-10-26T11:14:36.000Z</time>
      </trkpt>
      <trkpt lat="47.82856" lon="3.817">
        <ele>252</ele>
        <time>2019-10-26T11:14:37.000Z</time>
      </trkpt>
      <trkpt lat="47.82854" lon="3.81699">
        <ele>252</ele>
        <time>2019-10-26T11:14:38.000Z</time>
      </trkpt>
      <trkpt lat="47.82852" lon="3.81698">
        <ele>252</ele>
        <time>2019-10-26T11:14:39.000Z</time>
      </trkpt>
      <trkpt lat="47.8285" lon="3.81697">
        <ele>252</ele>
        <time>2019-10-26T11:14:40.000Z</time>
      </trkpt>
      <trkpt lat="47.82847" lon="3.81696">
        <ele>252</ele>
        <time>2019-10-26T11:14:41.000Z</time>
      </trkpt>
      <trkpt lat="47.82845" lon="3.81695">
        <ele>252</ele>
        <time>2019-10-26T11:14:42.000Z</time>
      </trkpt>
      <trkpt lat="47.82843" lon="3.81694">
        <ele>252</ele>
        <time>2019-10-26T11:14:43.000Z</time>
      </trkpt>
      <trkpt lat="47.8284" lon="3.81693">
        <ele>252</ele>
        <time>2019-10-26T11:14:44.000Z</time>
      </trkpt>
      <trkpt lat="47.82838" lon="3.81692">
        <ele>252</ele>
        <time>2019-10-26T11:14:45.000Z</time>
      </trkpt>
      <trkpt lat="47.82836" lon="3.81691">
        <ele>252</ele>
        <time>2019-10-26T11:14:46.000Z</time>
      </trkpt>
      <trkpt lat="47.82833" lon="3.8169">
        <ele>252</ele>
        <time>2019-10-26T11:14:47.000Z</time>
      </trkpt>
      <trkpt lat="47.82831" lon="3.81688">
        <ele>252</ele>
        <time>2019-10-26T11:14:48.000Z</time>
      </trkpt>
      <trkpt lat="47.82828" lon="3.81687">
        <ele>251</ele>
        <time>2019-10-26T11:14:49.000Z</time>
      </trkpt>
      <trkpt lat="47.82826" lon="3.81686">
        <ele>251</ele>
        <time>2019-10-26T11:14:50.000Z</time>
      </trkpt>
      <trkpt lat="47.82824" lon="3.81685">
        <ele>251</ele>
        <time>2019-10-26T11:14:51.000Z</time>
      </trkpt>
      <trkpt lat="47.82821" lon="3.81684">
        <ele>251</ele>
        <time>2019-10-26T11:14:52.000Z</time>
      </trkpt>
      <trkpt lat="47.82819" lon="3.81683">
        <ele>251</ele>
        <time>2019-10-26T11:14:53.000Z</time>
      </trkpt>
      <trkpt lat="47.82817" lon="3.81682">
        <ele>251</ele>
        <time>2019-10-26T11:14:54.000Z</time>
      </trkpt>
      <trkpt lat="47.82814" lon="3.81681">
        <ele>251</ele>
        <time>2019-10-26T11:14:55.000Z</time>
      </trkpt>
      <trkpt lat="47.82812" lon="3.8168">
        <ele>251</ele>
        <time>2019-10-26T11:14:56.000Z</time>
      </trkpt>
      <trkpt lat="47.8281" lon="3.81678">
        <ele>251</ele>
        <time>2019-10-26T11:14:57.000Z</time>
      </trkpt>
      <trkpt lat="47.82807" lon="3.81677">
        <ele>251</ele>
        <time>2019-10-26T11:14:58.000Z</time>
      </trkpt>
      <trkpt lat="47.82805" lon="3.81676">
        <ele>251</ele>
        <time>2019-10-26T11:14:59.000Z</time>
      </trkpt>
      <trkpt lat="47.82802" lon="3.81675">
        <ele>251</ele>
        <time>2019-10-26T11:15:00.000Z</time>
      </trkpt>
      <trkpt lat="47.828" lon="3.81674">
        <ele>251</ele>
        <time>2019-10-26T11:15:01.000Z</time>
      </trkpt>
      <trkpt lat="47.82798" lon="3.81673">
        <ele>251</ele>
        <time>2019-10-26T11:15:02.000Z</time>
      </trkpt>
      <trkpt lat="47.82795" lon="3.81671">
        <ele>251</ele>
        <time>2019-10-26T11:15:03.000Z</time>
      </trkpt>
      <trkpt lat="47.82793" lon="3.8167">
        <ele>251</ele>
        <time>2019-10-26T11:15:04.000Z</time>
      </trkpt>
      <trkpt lat="47.82791" lon="3.81669">
        <ele>251</ele>
        <time>2019-10-26T11:15:05.000Z</time>
      </trkpt>
      <trkpt lat="47.82789" lon="3.81668">
        <ele>251</ele>
        <time>2019-10-26T11:15:06.000Z</time>
      </trkpt>
      <trkpt lat="47.82786" lon="3.81667">
        <ele>251</ele>
        <time>2019-10-26T11:15:07.000Z</time>
      </trkpt>
      <trkpt lat="47.82784" lon="3.81666">
        <ele>250</ele>
        <time>2019-10-26T11:15:08.000Z</time>
      </trkpt>
      <trkpt lat="47.82781" lon="3.81665">
        <ele>250</ele>
        <time>2019-10-26T11:15:09.000Z</time>
      </trkpt>
      <trkpt lat="47.82779" lon="3.81664">
        <ele>250</ele>
        <time>2019-10-26T11:15:10.000Z</time>
      </trkpt>
      <trkpt lat="47.82776" lon="3.81663">
        <ele>250</ele>
        <time>2019-10-26T11:15:11.000Z</time>
      </trkpt>
      <trkpt lat="47.82774" lon="3.81662">
        <ele>250</ele>
        <time>2019-10-26T11:15:12.000Z</time>
      </trkpt>
      <trkpt lat="47.82771" lon="3.81661">
        <ele>250</ele>
        <time>2019-10-26T11:15:13.000Z</time>
      </trkpt>
      <trkpt lat="47.82769" lon="3.8166">
        <ele>250</ele>
        <time>2019-10-26T11:15:14.000Z</time>
      </trkpt>
      <trkpt lat="47.82767" lon="3.81658">
        <ele>250</ele>
        <time>2019-10-26T11:15:15.000Z</time>
      </trkpt>
      <trkpt lat="47.82764" lon="3.81656">
        <ele>250</ele>
        <time>2019-10-26T11:15:16.000Z</time>
      </trkpt>
      <trkpt lat="47.82762" lon="3.81655">
        <ele>250</ele>
        <time>2019-10-26T11:15:17.000Z</time>
      </trkpt>
      <trkpt lat="47.8276" lon="3.81653">
        <ele>250</ele>
        <time>2019-10-26T11:15:18.000Z</time>
      </trkpt>
      <trkpt lat="47.82758" lon="3.81652">
        <ele>250</ele>
        <time>2019-10-26T11:15:19.000Z</time>
      </trkpt>
      <trkpt lat="47.82755" lon="3.81651">
        <ele>250</ele>
        <time>2019-10-26T11:15:20.000Z</time>
      </trkpt>
      <trkpt lat="47.82753" lon="3.8165">
        <ele>250</ele>
        <time>2019-10-26T11:15:21.000Z</time>
      </trkpt>
      <trkpt lat="47.82751" lon="3.81648">
        <ele>250</ele>
        <time>2019-10-26T11:15:22.000Z</time>
      </trkpt>
      <trkpt lat="47.82748" lon="3.81647">
        <ele>250</ele>
        <time>2019-10-26T11:15:23.000Z</time>
      </trkpt>
      <trkpt lat="47.82746" lon="3.81646">
        <ele>250</ele>
        <time>2019-10-26T11:15:24.000Z</time>
      </trkpt>
      <trkpt lat="47.82744" lon="3.81645">
        <ele>250</ele>
        <time>2019-10-26T11:15:25.000Z</time>
      </trkpt>
      <trkpt lat="47.82741" lon="3.81644">
        <ele>249</ele>
        <time>2019-10-26T11:15:26.000Z</time>
      </trkpt>
      <trkpt lat="47.82739" lon="3.81643">
        <ele>249</ele>
        <time>2019-10-26T11:15:27.000Z</time>
      </trkpt>
      <trkpt lat="47.82737" lon="3.81643">
        <ele>249</ele>
        <time>2019-10-26T11:15:28.000Z</time>
      </trkpt>
      <trkpt lat="47.82735" lon="3.81641">
        <ele>249</ele>
        <time>2019-10-26T11:15:29.000Z</time>
      </trkpt>
      <trkpt lat="47.82732" lon="3.8164">
        <ele>249</ele>
        <time>2019-10-26T11:15:30.000Z</time>
      </trkpt>
      <trkpt lat="47.8273" lon="3.81639">
        <ele>249</ele>
        <time>2019-10-26T11:15:31.000Z</time>
      </trkpt>
      <trkpt lat="47.82728" lon="3.81638">
        <ele>249</ele>
        <time>2019-10-26T11:15:32.000Z</time>
      </trkpt>
      <trkpt lat="47.82725" lon="3.81637">
        <ele>249</ele>
        <time>2019-10-26T11:15:33.000Z</time>
      </trkpt>
      <trkpt lat="47.82723" lon="3.81636">
        <ele>249</ele>
        <time>2019-10-26T11:15:34.000Z</time>
      </trkpt>
      <trkpt lat="47.8272" lon="3.81635">
        <ele>249</ele>
        <time>2019-10-26T11:15:35.000Z</time>
      </trkpt>
      <trkpt lat="47.82718" lon="3.81634">
        <ele>249</ele>
        <time>2019-10-26T11:15:36.000Z</time>
      </trkpt>
      <trkpt lat="47.82716" lon="3.81633">
        <ele>249</ele>
        <time>2019-10-26T11:15:37.000Z</time>
      </trkpt>
      <trkpt lat="47.82713" lon="3.81632">
        <ele>249</ele>
        <time>2019-10-26T11:15:38.000Z</time>
      </trkpt>
      <trkpt lat="47.82711" lon="3.81632">
        <ele>249</ele>
        <time>2019-10-26T11:15:39.000Z</time>
      </trkpt>
      <trkpt lat="47.82709" lon="3.81631">
        <ele>249</ele>
        <time>2019-10-26T11:15:40.000Z</time>
      </trkpt>
      <trkpt lat="47.82706" lon="3.8163">
        <ele>249</ele>
        <time>2019-10-26T11:15:41.000Z</time>
      </trkpt>
      <trkpt lat="47.82704" lon="3.81629">
        <ele>249</ele>
        <time>2019-10-26T11:15:42.000Z</time>
      </trkpt>
      <trkpt lat="47.82702" lon="3.81629">
        <ele>249</ele>
        <time>2019-10-26T11:15:43.000Z</time>
      </trkpt>
      <trkpt lat="47.82699" lon="3.81628">
        <ele>249</ele>
        <time>2019-10-26T11:15:44.000Z</time>
      </trkpt>
      <trkpt lat="47.82697" lon="3.81627">
        <ele>249</ele>
        <time>2019-10-26T11:15:45.000Z</time>
      </trkpt>
      <trkpt lat="47.82694" lon="3.81627">
        <ele>249</ele>
        <time>2019-10-26T11:15:46.000Z</time>
      </trkpt>
      <trkpt lat="47.82692" lon="3.81627">
        <ele>248</ele>
        <time>2019-10-26T11:15:47.000Z</time>
      </trkpt>
      <trkpt lat="47.82689" lon="3.81626">
        <ele>248</ele>
        <time>2019-10-26T11:15:48.000Z</time>
      </trkpt>
      <trkpt lat="47.82687" lon="3.81625">
        <ele>248</ele>
        <time>2019-10-26T11:15:49.000Z</time>
      </trkpt>
      <trkpt lat="47.82685" lon="3.81625">
        <ele>248</ele>
        <time>2019-10-26T11:15:50.000Z</time>
      </trkpt>
      <trkpt lat="47.82682" lon="3.81624">
        <ele>248</ele>
        <time>2019-10-26T11:15:51.000Z</time>
      </trkpt>
      <trkpt lat="47.8268" lon="3.81623">
        <ele>248</ele>
        <time>2019-10-26T11:15:52.000Z</time>
      </trkpt>
      <trkpt lat="47.82677" lon="3.81623">
        <ele>248</ele>
        <time>2019-10-26T11:15:53.000Z</time>
      </trkpt>
      <trkpt lat="47.82675" lon="3.81622">
        <ele>248</ele>
        <time>2019-10-26T11:15:54.000Z</time>
      </trkpt>
      <trkpt lat="47.82673" lon="3.81622">
        <ele>248</ele>
        <time>2019-10-26T11:15:55.000Z</time>
      </trkpt>
      <trkpt lat="47.8267" lon="3.81621">
        <ele>248</ele>
        <time>2019-10-26T11:15:56.000Z</time>
      </trkpt>
      <trkpt lat="47.82668" lon="3.8162">
        <ele>248</ele>
        <time>2019-10-26T11:15:57.000Z</time>
      </trkpt>
      <trkpt lat="47.82665" lon="3.8162">
        <ele>248</ele>
        <time>2019-10-26T11:15:58.000Z</time>
      </trkpt>
      <trkpt lat="47.82663" lon="3.8162">
        <ele>248</ele>
        <time>2019-10-26T11:15:59.000Z</time>
      </trkpt>
      <trkpt lat="47.8266" lon="3.81619">
        <ele>248</ele>
        <time>2019-10-26T11:16:00.000Z</time>
      </trkpt>
      <trkpt lat="47.82658" lon="3.81619">
        <ele>248</ele>
        <time>2019-10-26T11:16:01.000Z</time>
      </trkpt>
      <trkpt lat="47.82655" lon="3.81618">
        <ele>248</ele>
        <time>2019-10-26T11:16:02.000Z</time>
      </trkpt>
      <trkpt lat="47.82653" lon="3.81617">
        <ele>248</ele>
        <time>2019-10-26T11:16:03.000Z</time>
      </trkpt>
      <trkpt lat="47.82651" lon="3.81617">
        <ele>248</ele>
        <time>2019-10-26T11:16:04.000Z</time>
      </trkpt>
      <trkpt lat="47.82648" lon="3.81617">
        <ele>248</ele>
        <time>2019-10-26T11:16:05.000Z</time>
      </trkpt>
      <trkpt lat="47.82646" lon="3.81617">
        <ele>248</ele>
        <time>2019-10-26T11:16:06.000Z</time>
      </trkpt>
      <trkpt lat="47.82644" lon="3.81617">
        <ele>248</ele>
        <time>2019-10-26T11:16:07.000Z</time>
      </trkpt>
      <trkpt lat="47.82641" lon="3.81617">
        <ele>247</ele>
        <time>2019-10-26T11:16:08.000Z</time>
      </trkpt>
      <trkpt lat="47.82639" lon="3.81617">
        <ele>247</ele>
        <time>2019-10-26T11:16:09.000Z</time>
      </trkpt>
      <trkpt lat="47.82636" lon="3.81616">
        <ele>247</ele>
        <time>2019-10-26T11:16:10.000Z</time>
      </trkpt>
      <trkpt lat="47.82634" lon="3.81616">
        <ele>247</ele>
        <time>2019-10-26T11:16:11.000Z</time>
      </trkpt>
      <trkpt lat="47.82632" lon="3.81616">
        <ele>247</ele>
        <time>2019-10-26T11:16:12.000Z</time>
      </trkpt>
      <trkpt lat="47.82629" lon="3.81616">
        <ele>247</ele>
        <time>2019-10-26T11:16:13.000Z</time>
      </trkpt>
      <trkpt lat="47.82627" lon="3.81616">
        <ele>247</ele>
        <time>2019-10-26T11:16:14.000Z</time>
      </trkpt>
      <trkpt lat="47.82625" lon="3.81616">
        <ele>247</ele>
        <time>2019-10-26T11:16:15.000Z</time>
      </trkpt>
      <trkpt lat="47.82622" lon="3.81615">
        <ele>247</ele>
        <time>2019-10-26T11:16:16.000Z</time>
      </trkpt>
      <trkpt lat="47.8262" lon="3.81615">
        <ele>247</ele>
        <time>2019-10-26T11:16:17.000Z</time>
      </trkpt>
      <trkpt lat="47.82618" lon="3.81615">
        <ele>247</ele>
        <time>2019-10-26T11:16:18.000Z</time>
      </trkpt>
      <trkpt lat="47.82615" lon="3.81615">
        <ele>247</ele>
        <time>2019-10-26T11:16:19.000Z</time>
      </trkpt>
      <trkpt lat="47.82613" lon="3.81615">
        <ele>247</ele>
        <time>2019-10-26T11:16:20.000Z</time>
      </trkpt>
      <trkpt lat="47.8261" lon="3.81615">
        <ele>247</ele>
        <time>2019-10-26T11:16:21.000Z</time>
      </trkpt>
      <trkpt lat="47.82608" lon="3.81615">
        <ele>247</ele>
        <time>2019-10-26T11:16:22.000Z</time>
      </trkpt>
      <trkpt lat="47.82605" lon="3.81616">
        <ele>247</ele>
        <time>2019-10-26T11:16:23.000Z</time>
      </trkpt>
      <trkpt lat="47.82603" lon="3.81616">
        <ele>247</ele>
        <time>2019-10-26T11:16:24.000Z</time>
      </trkpt>
      <trkpt lat="47.82601" lon="3.81616">
        <ele>247</ele>
        <time>2019-10-26T11:16:25.000Z</time>
      </trkpt>
      <trkpt lat="47.82598" lon="3.81616">
        <ele>247</ele>
        <time>2019-10-26T11:16:26.000Z</time>
      </trkpt>
      <trkpt lat="47.82596" lon="3.81616">
        <ele>246</ele>
        <time>2019-10-26T11:16:27.000Z</time>
      </trkpt>
      <trkpt lat="47.82593" lon="3.81616">
        <ele>246</ele>
        <time>2019-10-26T11:16:28.000Z</time>
      </trkpt>
      <trkpt lat="47.82591" lon="3.81616">
        <ele>246</ele>
        <time>2019-10-26T11:16:29.000Z</time>
      </trkpt>
      <trkpt lat="47.82588" lon="3.81616">
        <ele>246</ele>
        <time>2019-10-26T11:16:30.000Z</time>
      </trkpt>
      <trkpt lat="47.82586" lon="3.81616">
        <ele>246</ele>
        <time>2019-10-26T11:16:31.000Z</time>
      </trkpt>
      <trkpt lat="47.82584" lon="3.81616">
        <ele>246</ele>
        <time>2019-10-26T11:16:32.000Z</time>
      </trkpt>
      <trkpt lat="47.82581" lon="3.81616">
        <ele>246</ele>
        <time>2019-10-26T11:16:33.000Z</time>
      </trkpt>
      <trkpt lat="47.82579" lon="3.81616">
        <ele>246</ele>
        <time>2019-10-26T11:16:34.000Z</time>
      </trkpt>
      <trkpt lat="47.82577" lon="3.81616">
        <ele>246</ele>
        <time>2019-10-26T11:16:35.000Z</time>
      </trkpt>
      <trkpt lat="47.82576" lon="3.81616">
        <ele>245</ele>
        <time>2019-10-26T11:16:36.000Z</time>
      </trkpt>
      <trkpt lat="47.82573" lon="3.81616">
        <ele>245</ele>
        <time>2019-10-26T11:16:37.000Z</time>
      </trkpt>
      <trkpt lat="47.82571" lon="3.81616">
        <ele>246</ele>
        <time>2019-10-26T11:16:38.000Z</time>
      </trkpt>
      <trkpt lat="47.82569" lon="3.81616">
        <ele>246</ele>
        <time>2019-10-26T11:16:39.000Z</time>
      </trkpt>
      <trkpt lat="47.82567" lon="3.81616">
        <ele>246</ele>
        <time>2019-10-26T11:16:40.000Z</time>
      </trkpt>
      <trkpt lat="47.82565" lon="3.81615">
        <ele>246</ele>
        <time>2019-10-26T11:16:41.000Z</time>
      </trkpt>
      <trkpt lat="47.82562" lon="3.81615">
        <ele>246</ele>
        <time>2019-10-26T11:16:42.000Z</time>
      </trkpt>
      <trkpt lat="47.8256" lon="3.81615">
        <ele>246</ele>
        <time>2019-10-26T11:16:43.000Z</time>
      </trkpt>
      <trkpt lat="47.82558" lon="3.81615">
        <ele>246</ele>
        <time>2019-10-26T11:16:44.000Z</time>
      </trkpt>
      <trkpt lat="47.82556" lon="3.81615">
        <ele>246</ele>
        <time>2019-10-26T11:16:45.000Z</time>
      </trkpt>
      <trkpt lat="47.82554" lon="3.81614">
        <ele>246</ele>
        <time>2019-10-26T11:16:46.000Z</time>
      </trkpt>
      <trkpt lat="47.82552" lon="3.81615">
        <ele>246</ele>
        <time>2019-10-26T11:16:47.000Z</time>
      </trkpt>
      <trkpt lat="47.8255" lon="3.81615">
        <ele>246</ele>
        <time>2019-10-26T11:16:48.000Z</time>
      </trkpt>
      <trkpt lat="47.82549" lon="3.81615">
        <ele>246</ele>
        <time>2019-10-26T11:16:49.000Z</time>
      </trkpt>
      <trkpt lat="47.82547" lon="3.81615">
        <ele>247</ele>
        <time>2019-10-26T11:16:50.000Z</time>
      </trkpt>
      <trkpt lat="47.82545" lon="3.81615">
        <ele>247</ele>
        <time>2019-10-26T11:16:51.000Z</time>
      </trkpt>
      <trkpt lat="47.82543" lon="3.81615">
        <ele>246</ele>
        <time>2019-10-26T11:16:52.000Z</time>
      </trkpt>
      <trkpt lat="47.82542" lon="3.81615">
        <ele>246</ele>
        <time>2019-10-26T11:16:53.000Z</time>
      </trkpt>
      <trkpt lat="47.8254" lon="3.81615">
        <ele>246</ele>
        <time>2019-10-26T11:16:54.000Z</time>
      </trkpt>
      <trkpt lat="47.82539" lon="3.81615">
        <ele>246</ele>
        <time>2019-10-26T11:16:55.000Z</time>
      </trkpt>
      <trkpt lat="47.82538" lon="3.81614">
        <ele>246</ele>
        <time>2019-10-26T11:16:56.000Z</time>
      </trkpt>
      <trkpt lat="47.82536" lon="3.81614">
        <ele>246</ele>
        <time>2019-10-26T11:16:57.000Z</time>
      </trkpt>
      <trkpt lat="47.82535" lon="3.81614">
        <ele>247</ele>
        <time>2019-10-26T11:16:58.000Z</time>
      </trkpt>
      <trkpt lat="47.82533" lon="3.81614">
        <ele>247</ele>
        <time>2019-10-26T11:16:59.000Z</time>
      </trkpt>
      <trkpt lat="47.82532" lon="3.81614">
        <ele>247</ele>
        <time>2019-10-26T11:17:00.000Z</time>
      </trkpt>
      <trkpt lat="47.82531" lon="3.81614">
        <ele>247</ele>
        <time>2019-10-26T11:17:01.000Z</time>
      </trkpt>
      <trkpt lat="47.82529" lon="3.81614">
        <ele>247</ele>
        <time>2019-10-26T11:17:02.000Z</time>
      </trkpt>
      <trkpt lat="47.82527" lon="3.81613">
        <ele>247</ele>
        <time>2019-10-26T11:17:03.000Z</time>
      </trkpt>
      <trkpt lat="47.82526" lon="3.81613">
        <ele>247</ele>
        <time>2019-10-26T11:17:04.000Z</time>
      </trkpt>
      <trkpt lat="47.82524" lon="3.81613">
        <ele>247</ele>
        <time>2019-10-26T11:17:05.000Z</time>
      </trkpt>
      <trkpt lat="47.82523" lon="3.81613">
        <ele>247</ele>
        <time>2019-10-26T11:17:06.000Z</time>
      </trkpt>
      <trkpt lat="47.82521" lon="3.81612">
        <ele>247</ele>
        <time>2019-10-26T11:17:07.000Z</time>
      </trkpt>
      <trkpt lat="47.8252" lon="3.81612">
        <ele>247</ele>
        <time>2019-10-26T11:17:08.000Z</time>
      </trkpt>
      <trkpt lat="47.82518" lon="3.81612">
        <ele>247</ele>
        <time>2019-10-26T11:17:09.000Z</time>
      </trkpt>
      <trkpt lat="47.82516" lon="3.81611">
        <ele>247</ele>
        <time>2019-10-26T11:17:10.000Z</time>
      </trkpt>
      <trkpt lat="47.82515" lon="3.81611">
        <ele>247</ele>
        <time>2019-10-26T11:17:11.000Z</time>
      </trkpt>
      <trkpt lat="47.82512" lon="3.81611">
        <ele>247</ele>
        <time>2019-10-26T11:17:12.000Z</time>
      </trkpt>
      <trkpt lat="47.8251" lon="3.8161">
        <ele>247</ele>
        <time>2019-10-26T11:17:13.000Z</time>
      </trkpt>
      <trkpt lat="47.82508" lon="3.8161">
        <ele>247</ele>
        <time>2019-10-26T11:17:14.000Z</time>
      </trkpt>
      <trkpt lat="47.82506" lon="3.81611">
        <ele>247</ele>
        <time>2019-10-26T11:17:15.000Z</time>
      </trkpt>
      <trkpt lat="47.82503" lon="3.8161">
        <ele>247</ele>
        <time>2019-10-26T11:17:16.000Z</time>
      </trkpt>
      <trkpt lat="47.82501" lon="3.8161">
        <ele>247</ele>
        <time>2019-10-26T11:17:17.000Z</time>
      </trkpt>
      <trkpt lat="47.82498" lon="3.8161">
        <ele>247</ele>
        <time>2019-10-26T11:17:18.000Z</time>
      </trkpt>
      <trkpt lat="47.82496" lon="3.8161">
        <ele>247</ele>
        <time>2019-10-26T11:17:19.000Z</time>
      </trkpt>
      <trkpt lat="47.82493" lon="3.8161">
        <ele>247</ele>
        <time>2019-10-26T11:17:20.000Z</time>
      </trkpt>
      <trkpt lat="47.82491" lon="3.8161">
        <ele>246</ele>
        <time>2019-10-26T11:17:21.000Z</time>
      </trkpt>
      <trkpt lat="47.82488" lon="3.8161">
        <ele>246</ele>
        <time>2019-10-26T11:17:22.000Z</time>
      </trkpt>
      <trkpt lat="47.82486" lon="3.8161">
        <ele>246</ele>
        <time>2019-10-26T11:17:23.000Z</time>
      </trkpt>
      <trkpt lat="47.82483" lon="3.8161">
        <ele>246</ele>
        <time>2019-10-26T11:17:24.000Z</time>
      </trkpt>
      <trkpt lat="47.82481" lon="3.8161">
        <ele>246</ele>
        <time>2019-10-26T11:17:25.000Z</time>
      </trkpt>
      <trkpt lat="47.82478" lon="3.8161">
        <ele>246</ele>
        <time>2019-10-26T11:17:26.000Z</time>
      </trkpt>
      <trkpt lat="47.82476" lon="3.81609">
        <ele>246</ele>
        <time>2019-10-26T11:17:27.000Z</time>
      </trkpt>
      <trkpt lat="47.82474" lon="3.81609">
        <ele>246</ele>
        <time>2019-10-26T11:17:28.000Z</time>
      </trkpt>
      <trkpt lat="47.82471" lon="3.81608">
        <ele>246</ele>
        <time>2019-10-26T11:17:29.000Z</time>
      </trkpt>
      <trkpt lat="47.82469" lon="3.81608">
        <ele>246</ele>
        <time>2019-10-26T11:17:30.000Z</time>
      </trkpt>
      <trkpt lat="47.82466" lon="3.81608">
        <ele>246</ele>
        <time>2019-10-26T11:17:31.000Z</time>
      </trkpt>
      <trkpt lat="47.82464" lon="3.81608">
        <ele>246</ele>
        <time>2019-10-26T11:17:32.000Z</time>
      </trkpt>
      <trkpt lat="47.82461" lon="3.81608">
        <ele>246</ele>
        <time>2019-10-26T11:17:33.000Z</time>
      </trkpt>
      <trkpt lat="47.82459" lon="3.81608">
        <ele>246</ele>
        <time>2019-10-26T11:17:34.000Z</time>
      </trkpt>
      <trkpt lat="47.82457" lon="3.81608">
        <ele>246</ele>
        <time>2019-10-26T11:17:35.000Z</time>
      </trkpt>
      <trkpt lat="47.82454" lon="3.81607">
        <ele>246</ele>
        <time>2019-10-26T11:17:36.000Z</time>
      </trkpt>
      <trkpt lat="47.82452" lon="3.81607">
        <ele>246</ele>
        <time>2019-10-26T11:17:37.000Z</time>
      </trkpt>
      <trkpt lat="47.8245" lon="3.81607">
        <ele>246</ele>
        <time>2019-10-26T11:17:38.000Z</time>
      </trkpt>
      <trkpt lat="47.82447" lon="3.81607">
        <ele>246</ele>
        <time>2019-10-26T11:17:39.000Z</time>
      </trkpt>
      <trkpt lat="47.82445" lon="3.81606">
        <ele>246</ele>
        <time>2019-10-26T11:17:40.000Z</time>
      </trkpt>
      <trkpt lat="47.82442" lon="3.81606">
        <ele>246</ele>
        <time>2019-10-26T11:17:41.000Z</time>
      </trkpt>
      <trkpt lat="47.8244" lon="3.81606">
        <ele>246</ele>
        <time>2019-10-26T11:17:42.000Z</time>
      </trkpt>
      <trkpt lat="47.82437" lon="3.81606">
        <ele>246</ele>
        <time>2019-10-26T11:17:43.000Z</time>
      </trkpt>
      <trkpt lat="47.82435" lon="3.81606">
        <ele>246</ele>
        <time>2019-10-26T11:17:44.000Z</time>
      </trkpt>
      <trkpt lat="47.82432" lon="3.81605">
        <ele>246</ele>
        <time>2019-10-26T11:17:45.000Z</time>
      </trkpt>
      <trkpt lat="47.8243" lon="3.81604">
        <ele>246</ele>
        <time>2019-10-26T11:17:46.000Z</time>
      </trkpt>
      <trkpt lat="47.82427" lon="3.81604">
        <ele>245</ele>
        <time>2019-10-26T11:17:47.000Z</time>
      </trkpt>
      <trkpt lat="47.82425" lon="3.81603">
        <ele>245</ele>
        <time>2019-10-26T11:17:48.000Z</time>
      </trkpt>
      <trkpt lat="47.82422" lon="3.81603">
        <ele>245</ele>
        <time>2019-10-26T11:17:49.000Z</time>
      </trkpt>
      <trkpt lat="47.8242" lon="3.81602">
        <ele>245</ele>
        <time>2019-10-26T11:17:50.000Z</time>
      </trkpt>
      <trkpt lat="47.82418" lon="3.81601">
        <ele>245</ele>
        <time>2019-10-26T11:17:51.000Z</time>
      </trkpt>
      <trkpt lat="47.82416" lon="3.81601">
        <ele>245</ele>
        <time>2019-10-26T11:17:52.000Z</time>
      </trkpt>
      <trkpt lat="47.82413" lon="3.816">
        <ele>245</ele>
        <time>2019-10-26T11:17:53.000Z</time>
      </trkpt>
      <trkpt lat="47.82411" lon="3.816">
        <ele>245</ele>
        <time>2019-10-26T11:17:54.000Z</time>
      </trkpt>
      <trkpt lat="47.82408" lon="3.816">
        <ele>245</ele>
        <time>2019-10-26T11:17:55.000Z</time>
      </trkpt>
      <trkpt lat="47.82406" lon="3.816">
        <ele>245</ele>
        <time>2019-10-26T11:17:56.000Z</time>
      </trkpt>
      <trkpt lat="47.82403" lon="3.81599">
        <ele>245</ele>
        <time>2019-10-26T11:17:57.000Z</time>
      </trkpt>
      <trkpt lat="47.82401" lon="3.81599">
        <ele>245</ele>
        <time>2019-10-26T11:17:58.000Z</time>
      </trkpt>
      <trkpt lat="47.82398" lon="3.81599">
        <ele>245</ele>
        <time>2019-10-26T11:17:59.000Z</time>
      </trkpt>
      <trkpt lat="47.82396" lon="3.81599">
        <ele>244</ele>
        <time>2019-10-26T11:18:00.000Z</time>
      </trkpt>
      <trkpt lat="47.82393" lon="3.81599">
        <ele>244</ele>
        <time>2019-10-26T11:18:01.000Z</time>
      </trkpt>
      <trkpt lat="47.82391" lon="3.81599">
        <ele>244</ele>
        <time>2019-10-26T11:18:02.000Z</time>
      </trkpt>
      <trkpt lat="47.82388" lon="3.81598">
        <ele>244</ele>
        <time>2019-10-26T11:18:03.000Z</time>
      </trkpt>
      <trkpt lat="47.82386" lon="3.81598">
        <ele>244</ele>
        <time>2019-10-26T11:18:04.000Z</time>
      </trkpt>
      <trkpt lat="47.82384" lon="3.81598">
        <ele>244</ele>
        <time>2019-10-26T11:18:05.000Z</time>
      </trkpt>
      <trkpt lat="47.82382" lon="3.81598">
        <ele>243</ele>
        <time>2019-10-26T11:18:06.000Z</time>
      </trkpt>
      <trkpt lat="47.8238" lon="3.81599">
        <ele>243</ele>
        <time>2019-10-26T11:18:07.000Z</time>
      </trkpt>
      <trkpt lat="47.82379" lon="3.81599">
        <ele>243</ele>
        <time>2019-10-26T11:18:08.000Z</time>
      </trkpt>
      <trkpt lat="47.82378" lon="3.816">
        <ele>243</ele>
        <time>2019-10-26T11:18:09.000Z</time>
      </trkpt>
      <trkpt lat="47.82377" lon="3.81601">
        <ele>243</ele>
        <time>2019-10-26T11:18:10.000Z</time>
      </trkpt>
      <trkpt lat="47.82376" lon="3.81602">
        <ele>243</ele>
        <time>2019-10-26T11:18:11.000Z</time>
      </trkpt>
      <trkpt lat="47.82376" lon="3.81603">
        <ele>243</ele>
        <time>2019-10-26T11:18:12.000Z</time>
      </trkpt>
      <trkpt lat="47.82375" lon="3.81604">
        <ele>243</ele>
        <time>2019-10-26T11:18:13.000Z</time>
      </trkpt>
      <trkpt lat="47.82375" lon="3.81604">
        <ele>243</ele>
        <time>2019-10-26T11:18:14.000Z</time>
      </trkpt>
      <trkpt lat="47.82375" lon="3.81604">
        <ele>243</ele>
        <time>2019-10-26T11:18:15.000Z</time>
      </trkpt>
      <trkpt lat="47.82375" lon="3.81604">
        <ele>243</ele>
        <time>2019-10-26T11:18:16.000Z</time>
      </trkpt>
      <trkpt lat="47.82375" lon="3.81604">
        <ele>243</ele>
        <time>2019-10-26T11:18:17.000Z</time>
      </trkpt>
      <trkpt lat="47.82375" lon="3.81604">
        <ele>243</ele>
        <time>2019-10-26T11:18:18.000Z</time>
      </trkpt>
      <trkpt lat="47.82375" lon="3.81604">
        <ele>243</ele>
        <time>2019-10-26T11:18:19.000Z</time>
      </trkpt>
      <trkpt lat="47.82375" lon="3.81604">
        <ele>243</ele>
        <time>2019-10-26T11:18:20.000Z</time>
      </trkpt>
      <trkpt lat="47.82375" lon="3.81604">
        <ele>243</ele>
        <time>2019-10-26T11:18:21.000Z</time>
      </trkpt>
      <trkpt lat="47.82375" lon="3.81605">
        <ele>243</ele>
        <time>2019-10-26T11:18:22.000Z</time>
      </trkpt>
      <trkpt lat="47.82375" lon="3.81605">
        <ele>243</ele>
        <time>2019-10-26T11:18:23.000Z</time>
      </trkpt>
      <trkpt lat="47.82375" lon="3.81605">
        <ele>243</ele>
        <time>2019-10-26T11:18:24.000Z</time>
      </trkpt>
      <trkpt lat="47.82375" lon="3.81605">
        <ele>243</ele>
        <time>2019-10-26T11:18:25.000Z</time>
      </trkpt>
      <trkpt lat="47.82375" lon="3.81605">
        <ele>243</ele>
        <time>2019-10-26T11:18:26.000Z</time>
      </trkpt>
      <trkpt lat="47.82375" lon="3.81605">
        <ele>243</ele>
        <time>2019-10-26T11:18:27.000Z</time>
      </trkpt>
      <trkpt lat="47.82375" lon="3.81605">
        <ele>243</ele>
        <time>2019-10-26T11:18:28.000Z</time>
      </trkpt>
      <trkpt lat="47.82375" lon="3.81605">
        <ele>243</ele>
        <time>2019-10-26T11:18:29.000Z</time>
      </trkpt>
      <trkpt lat="47.82375" lon="3.81605">
        <ele>243</ele>
        <time>2019-10-26T11:18:30.000Z</time>
      </trkpt>
      <trkpt lat="47.82375" lon="3.81605">
        <ele>243</ele>
        <time>2019-10-26T11:18:31.000Z</time>
      </trkpt>
      <trkpt lat="47.82375" lon="3.81605">
        <ele>243</ele>
        <time>2019-10-26T11:18:32.000Z</time>
      </trkpt>
      <trkpt lat="47.82375" lon="3.81605">
        <ele>243</ele>
        <time>2019-10-26T11:18:33.000Z</time>
      </trkpt>
      <trkpt lat="47.82375" lon="3.81605">
        <ele>243</ele>
        <time>2019-10-26T11:18:34.000Z</time>
      </trkpt>
      <trkpt lat="47.82375" lon="3.81605">
        <ele>243</ele>
        <time>2019-10-26T11:18:35.000Z</time>
      </trkpt>
      <trkpt lat="47.82375" lon="3.81605">
        <ele>243</ele>
        <time>2019-10-26T11:18:36.000Z</time>
      </trkpt>
      <trkpt lat="47.82375" lon="3.81605">
        <ele>243</ele>
        <time>2019-10-26T11:18:37.000Z</time>
      </trkpt>
      <trkpt lat="47.82375" lon="3.81605">
        <ele>243</ele>
        <time>2019-10-26T11:18:38.000Z</time>
      </trkpt>
      <trkpt lat="47.82375" lon="3.81605">
        <ele>243</ele>
        <time>2019-10-26T11:18:39.000Z</time>
      </trkpt>
      <trkpt lat="47.82375" lon="3.81605">
        <ele>243</ele>
        <time>2019-10-26T11:18:40.000Z</time>
      </trkpt>
      <trkpt lat="47.82375" lon="3.81605">
        <ele>243</ele>
        <time>2019-10-26T11:18:41.000Z</time>
      </trkpt>
      <trkpt lat="47.82375" lon="3.81605">
        <ele>243</ele>
        <time>2019-10-26T11:18:42.000Z</time>
      </trkpt>
      <trkpt lat="47.82375" lon="3.81605">
        <ele>243</ele>
        <time>2019-10-26T11:18:43.000Z</time>
      </trkpt>
      <trkpt lat="47.82375" lon="3.81605">
        <ele>243</ele>
        <time>2019-10-26T11:18:44.000Z</time>
      </trkpt>
      <trkpt lat="47.82375" lon="3.81605">
        <ele>243</ele>
        <time>2019-10-26T11:18:45.000Z</time>
      </trkpt>
      <trkpt lat="47.82375" lon="3.81605">
        <ele>243</ele>
        <time>2019-10-26T11:18:46.000Z</time>
      </trkpt>
      <trkpt lat="47.82375" lon="3.81605">
        <ele>243</ele>
        <time>2019-10-26T11:18:47.000Z</time>
      </trkpt>
      <trkpt lat="47.82375" lon="3.81605">
        <ele>243</ele>
        <time>2019-10-26T11:18:48.000Z</time>
      </trkpt>
      <trkpt lat="47.82375" lon="3.81605">
        <ele>243</ele>
        <time>2019-10-26T11:18:49.000Z</time>
      </trkpt>
      <trkpt lat="47.82375" lon="3.81605">
        <ele>243</ele>
        <time>2019-10-26T11:18:50.000Z</time>
      </trkpt>
      <trkpt lat="47.82375" lon="3.81605">
        <ele>243</ele>
        <time>2019-10-26T11:18:51.000Z</time>
      </trkpt>
      <trkpt lat="47.82375" lon="3.81605">
        <ele>243</ele>
        <time>2019-10-26T11:18:52.000Z</time>
      </trkpt>
      <trkpt lat="47.82375" lon="3.81605">
        <ele>243</ele>
        <time>2019-10-26T11:18:53.000Z</time>
      </trkpt>
      <trkpt lat="47.82375" lon="3.81605">
        <ele>243</ele>
        <time>2019-10-26T11:18:54.000Z</time>
      </trkpt>
      <trkpt lat="47.82375" lon="3.81605">
        <ele>243</ele>
        <time>2019-10-26T11:18:55.000Z</time>
      </trkpt>
      <trkpt lat="47.82375" lon="3.81605">
        <ele>243</ele>
        <time>2019-10-26T11:18:56.000Z</time>
      </trkpt>
      <trkpt lat="47.82375" lon="3.81605">
        <ele>243</ele>
        <time>2019-10-26T11:18:57.000Z</time>
      </trkpt>
      <trkpt lat="47.82375" lon="3.81604">
        <ele>243</ele>
        <time>2019-10-26T11:18:58.000Z</time>
      </trkpt>
      <trkpt lat="47.82376" lon="3.81602">
        <ele>243</ele>
        <time>2019-10-26T11:18:59.000Z</time>
      </trkpt>
      <trkpt lat="47.82375" lon="3.81601">
        <ele>243</ele>
        <time>2019-10-26T11:19:00.000Z</time>
      </trkpt>
      <trkpt lat="47.82375" lon="3.816">
        <ele>243</ele>
        <time>2019-10-26T11:19:01.000Z</time>
      </trkpt>
      <trkpt lat="47.82374" lon="3.81599">
        <ele>243</ele>
        <time>2019-10-26T11:19:02.000Z</time>
      </trkpt>
      <trkpt lat="47.82373" lon="3.81598">
        <ele>243</ele>
        <time>2019-10-26T11:19:03.000Z</time>
      </trkpt>
      <trkpt lat="47.82372" lon="3.81598">
        <ele>243</ele>
        <time>2019-10-26T11:19:04.000Z</time>
      </trkpt>
      <trkpt lat="47.8237" lon="3.81598">
        <ele>243</ele>
        <time>2019-10-26T11:19:05.000Z</time>
      </trkpt>
      <trkpt lat="47.82369" lon="3.81598">
        <ele>243</ele>
        <time>2019-10-26T11:19:06.000Z</time>
      </trkpt>
      <trkpt lat="47.82367" lon="3.81597">
        <ele>243</ele>
        <time>2019-10-26T11:19:07.000Z</time>
      </trkpt>
      <trkpt lat="47.82366" lon="3.81597">
        <ele>243</ele>
        <time>2019-10-26T11:19:08.000Z</time>
      </trkpt>
      <trkpt lat="47.82364" lon="3.81597">
        <ele>243</ele>
        <time>2019-10-26T11:19:09.000Z</time>
      </trkpt>
      <trkpt lat="47.82363" lon="3.81597">
        <ele>243</ele>
        <time>2019-10-26T11:19:10.000Z</time>
      </trkpt>
      <trkpt lat="47.82361" lon="3.81597">
        <ele>243</ele>
        <time>2019-10-26T11:19:11.000Z</time>
      </trkpt>
      <trkpt lat="47.82359" lon="3.81597">
        <ele>243</ele>
        <time>2019-10-26T11:19:12.000Z</time>
      </trkpt>
      <trkpt lat="47.82356" lon="3.81597">
        <ele>243</ele>
        <time>2019-10-26T11:19:13.000Z</time>
      </trkpt>
      <trkpt lat="47.82353" lon="3.81596">
        <ele>243</ele>
        <time>2019-10-26T11:19:14.000Z</time>
      </trkpt>
      <trkpt lat="47.82351" lon="3.81596">
        <ele>243</ele>
        <time>2019-10-26T11:19:15.000Z</time>
      </trkpt>
      <trkpt lat="47.82348" lon="3.81595">
        <ele>243</ele>
        <time>2019-10-26T11:19:16.000Z</time>
      </trkpt>
      <trkpt lat="47.82345" lon="3.81595">
        <ele>243</ele>
        <time>2019-10-26T11:19:17.000Z</time>
      </trkpt>
      <trkpt lat="47.82342" lon="3.81594">
        <ele>242</ele>
        <time>2019-10-26T11:19:18.000Z</time>
      </trkpt>
      <trkpt lat="47.8234" lon="3.81594">
        <ele>242</ele>
        <time>2019-10-26T11:19:19.000Z</time>
      </trkpt>
      <trkpt lat="47.82337" lon="3.81593">
        <ele>242</ele>
        <time>2019-10-26T11:19:20.000Z</time>
      </trkpt>
      <trkpt lat="47.82334" lon="3.81592">
        <ele>242</ele>
        <time>2019-10-26T11:19:21.000Z</time>
      </trkpt>
      <trkpt lat="47.82331" lon="3.81591">
        <ele>242</ele>
        <time>2019-10-26T11:19:22.000Z</time>
      </trkpt>
      <trkpt lat="47.82328" lon="3.81591">
        <ele>242</ele>
        <time>2019-10-26T11:19:23.000Z</time>
      </trkpt>
      <trkpt lat="47.82325" lon="3.8159">
        <ele>242</ele>
        <time>2019-10-26T11:19:24.000Z</time>
      </trkpt>
      <trkpt lat="47.82322" lon="3.81589">
        <ele>242</ele>
        <time>2019-10-26T11:19:25.000Z</time>
      </trkpt>
      <trkpt lat="47.82319" lon="3.81589">
        <ele>242</ele>
        <time>2019-10-26T11:19:26.000Z</time>
      </trkpt>
      <trkpt lat="47.82316" lon="3.81589">
        <ele>242</ele>
        <time>2019-10-26T11:19:27.000Z</time>
      </trkpt>
      <trkpt lat="47.82313" lon="3.81589">
        <ele>242</ele>
        <time>2019-10-26T11:19:28.000Z</time>
      </trkpt>
      <trkpt lat="47.8231" lon="3.81589">
        <ele>243</ele>
        <time>2019-10-26T11:19:29.000Z</time>
      </trkpt>
      <trkpt lat="47.82307" lon="3.81589">
        <ele>243</ele>
        <time>2019-10-26T11:19:30.000Z</time>
      </trkpt>
      <trkpt lat="47.82303" lon="3.81588">
        <ele>243</ele>
        <time>2019-10-26T11:19:31.000Z</time>
      </trkpt>
      <trkpt lat="47.823" lon="3.81588">
        <ele>243</ele>
        <time>2019-10-26T11:19:32.000Z</time>
      </trkpt>
      <trkpt lat="47.82297" lon="3.81587">
        <ele>243</ele>
        <time>2019-10-26T11:19:33.000Z</time>
      </trkpt>
      <trkpt lat="47.82295" lon="3.81587">
        <ele>243</ele>
        <time>2019-10-26T11:19:34.000Z</time>
      </trkpt>
      <trkpt lat="47.82292" lon="3.81586">
        <ele>243</ele>
        <time>2019-10-26T11:19:35.000Z</time>
      </trkpt>
      <trkpt lat="47.82289" lon="3.81585">
        <ele>243</ele>
        <time>2019-10-26T11:19:36.000Z</time>
      </trkpt>
      <trkpt lat="47.82286" lon="3.81584">
        <ele>243</ele>
        <time>2019-10-26T11:19:37.000Z</time>
      </trkpt>
      <trkpt lat="47.82283" lon="3.81583">
        <ele>243</ele>
        <time>2019-10-26T11:19:38.000Z</time>
      </trkpt>
      <trkpt lat="47.82279" lon="3.81583">
        <ele>243</ele>
        <time>2019-10-26T11:19:39.000Z</time>
      </trkpt>
      <trkpt lat="47.82276" lon="3.81582">
        <ele>243</ele>
        <time>2019-10-26T11:19:40.000Z</time>
      </trkpt>
      <trkpt lat="47.82273" lon="3.81582">
        <ele>243</ele>
        <time>2019-10-26T11:19:41.000Z</time>
      </trkpt>
      <trkpt lat="47.8227" lon="3.81582">
        <ele>243</ele>
        <time>2019-10-26T11:19:42.000Z</time>
      </trkpt>
      <trkpt lat="47.82267" lon="3.81582">
        <ele>243</ele>
        <time>2019-10-26T11:19:43.000Z</time>
      </trkpt>
      <trkpt lat="47.82264" lon="3.81582">
        <ele>243</ele>
        <time>2019-10-26T11:19:44.000Z</time>
      </trkpt>
      <trkpt lat="47.82261" lon="3.81583">
        <ele>243</ele>
        <time>2019-10-26T11:19:45.000Z</time>
      </trkpt>
      <trkpt lat="47.82258" lon="3.81583">
        <ele>243</ele>
        <time>2019-10-26T11:19:46.000Z</time>
      </trkpt>
      <trkpt lat="47.82255" lon="3.81584">
        <ele>243</ele>
        <time>2019-10-26T11:19:47.000Z</time>
      </trkpt>
      <trkpt lat="47.82252" lon="3.81583">
        <ele>243</ele>
        <time>2019-10-26T11:19:48.000Z</time>
      </trkpt>
      <trkpt lat="47.82249" lon="3.81583">
        <ele>243</ele>
        <time>2019-10-26T11:19:49.000Z</time>
      </trkpt>
      <trkpt lat="47.82247" lon="3.81583">
        <ele>243</ele>
        <time>2019-10-26T11:19:50.000Z</time>
      </trkpt>
      <trkpt lat="47.82244" lon="3.81582">
        <ele>243</ele>
        <time>2019-10-26T11:19:51.000Z</time>
      </trkpt>
      <trkpt lat="47.82241" lon="3.81582">
        <ele>243</ele>
        <time>2019-10-26T11:19:52.000Z</time>
      </trkpt>
      <trkpt lat="47.82238" lon="3.81581">
        <ele>243</ele>
        <time>2019-10-26T11:19:53.000Z</time>
      </trkpt>
      <trkpt lat="47.82235" lon="3.8158">
        <ele>243</ele>
        <time>2019-10-26T11:19:54.000Z</time>
      </trkpt>
      <trkpt lat="47.82233" lon="3.81579">
        <ele>243</ele>
        <time>2019-10-26T11:19:55.000Z</time>
      </trkpt>
      <trkpt lat="47.82231" lon="3.81577">
        <ele>243</ele>
        <time>2019-10-26T11:19:56.000Z</time>
      </trkpt>
      <trkpt lat="47.8223" lon="3.81574">
        <ele>243</ele>
        <time>2019-10-26T11:19:57.000Z</time>
      </trkpt>
      <trkpt lat="47.82228" lon="3.81571">
        <ele>242</ele>
        <time>2019-10-26T11:19:58.000Z</time>
      </trkpt>
      <trkpt lat="47.82227" lon="3.81567">
        <ele>242</ele>
        <time>2019-10-26T11:19:59.000Z</time>
      </trkpt>
      <trkpt lat="47.82226" lon="3.81564">
        <ele>242</ele>
        <time>2019-10-26T11:20:00.000Z</time>
      </trkpt>
      <trkpt lat="47.82226" lon="3.8156">
        <ele>242</ele>
        <time>2019-10-26T11:20:01.000Z</time>
      </trkpt>
      <trkpt lat="47.82226" lon="3.81557">
        <ele>242</ele>
        <time>2019-10-26T11:20:02.000Z</time>
      </trkpt>
      <trkpt lat="47.82226" lon="3.81554">
        <ele>242</ele>
        <time>2019-10-26T11:20:03.000Z</time>
      </trkpt>
      <trkpt lat="47.82226" lon="3.81551">
        <ele>242</ele>
        <time>2019-10-26T11:20:04.000Z</time>
      </trkpt>
      <trkpt lat="47.82226" lon="3.81548">
        <ele>242</ele>
        <time>2019-10-26T11:20:05.000Z</time>
      </trkpt>
      <trkpt lat="47.82226" lon="3.81544">
        <ele>242</ele>
        <time>2019-10-26T11:20:06.000Z</time>
      </trkpt>
      <trkpt lat="47.82226" lon="3.81541">
        <ele>242</ele>
        <time>2019-10-26T11:20:07.000Z</time>
      </trkpt>
      <trkpt lat="47.82226" lon="3.81538">
        <ele>242</ele>
        <time>2019-10-26T11:20:08.000Z</time>
      </trkpt>
      <trkpt lat="47.82226" lon="3.81534">
        <ele>242</ele>
        <time>2019-10-26T11:20:09.000Z</time>
      </trkpt>
      <trkpt lat="47.82226" lon="3.8153">
        <ele>242</ele>
        <time>2019-10-26T11:20:10.000Z</time>
      </trkpt>
      <trkpt lat="47.82225" lon="3.81528">
        <ele>242</ele>
        <time>2019-10-26T11:20:11.000Z</time>
      </trkpt>
      <trkpt lat="47.82224" lon="3.81525">
        <ele>242</ele>
        <time>2019-10-26T11:20:12.000Z</time>
      </trkpt>
      <trkpt lat="47.82222" lon="3.81522">
        <ele>242</ele>
        <time>2019-10-26T11:20:13.000Z</time>
      </trkpt>
      <trkpt lat="47.8222" lon="3.8152">
        <ele>242</ele>
        <time>2019-10-26T11:20:14.000Z</time>
      </trkpt>
      <trkpt lat="47.82219" lon="3.81518">
        <ele>242</ele>
        <time>2019-10-26T11:20:15.000Z</time>
      </trkpt>
      <trkpt lat="47.82218" lon="3.81517">
        <ele>242</ele>
        <time>2019-10-26T11:20:16.000Z</time>
      </trkpt>
      <trkpt lat="47.82217" lon="3.81515">
        <ele>242</ele>
        <time>2019-10-26T11:20:17.000Z</time>
      </trkpt>
      <trkpt lat="47.82216" lon="3.81514">
        <ele>242</ele>
        <time>2019-10-26T11:20:18.000Z</time>
      </trkpt>
      <trkpt lat="47.82215" lon="3.81512">
        <ele>243</ele>
        <time>2019-10-26T11:20:19.000Z</time>
      </trkpt>
      <trkpt lat="47.82214" lon="3.81511">
        <ele>243</ele>
        <time>2019-10-26T11:20:20.000Z</time>
      </trkpt>
      <trkpt lat="47.82213" lon="3.81509">
        <ele>243</ele>
        <time>2019-10-26T11:20:21.000Z</time>
      </trkpt>
      <trkpt lat="47.82212" lon="3.81508">
        <ele>243</ele>
        <time>2019-10-26T11:20:22.000Z</time>
      </trkpt>
      <trkpt lat="47.82211" lon="3.81507">
        <ele>243</ele>
        <time>2019-10-26T11:20:23.000Z</time>
      </trkpt>
      <trkpt lat="47.82211" lon="3.81506">
        <ele>243</ele>
        <time>2019-10-26T11:20:24.000Z</time>
      </trkpt>
      <trkpt lat="47.8221" lon="3.81505">
        <ele>243</ele>
        <time>2019-10-26T11:20:25.000Z</time>
      </trkpt>
      <trkpt lat="47.82209" lon="3.81505">
        <ele>243</ele>
        <time>2019-10-26T11:20:26.000Z</time>
      </trkpt>
      <trkpt lat="47.82208" lon="3.81504">
        <ele>243</ele>
        <time>2019-10-26T11:20:27.000Z</time>
      </trkpt>
      <trkpt lat="47.82208" lon="3.81503">
        <ele>243</ele>
        <time>2019-10-26T11:20:28.000Z</time>
      </trkpt>
      <trkpt lat="47.82207" lon="3.81502">
        <ele>242</ele>
        <time>2019-10-26T11:20:29.000Z</time>
      </trkpt>
      <trkpt lat="47.82207" lon="3.81502">
        <ele>242</ele>
        <time>2019-10-26T11:20:30.000Z</time>
      </trkpt>
      <trkpt lat="47.82207" lon="3.81501">
        <ele>242</ele>
        <time>2019-10-26T11:20:31.000Z</time>
      </trkpt>
      <trkpt lat="47.82207" lon="3.81501">
        <ele>242</ele>
        <time>2019-10-26T11:20:32.000Z</time>
      </trkpt>
      <trkpt lat="47.82207" lon="3.81501">
        <ele>242</ele>
        <time>2019-10-26T11:20:33.000Z</time>
      </trkpt>
      <trkpt lat="47.82207" lon="3.815">
        <ele>242</ele>
        <time>2019-10-26T11:20:34.000Z</time>
      </trkpt>
      <trkpt lat="47.82207" lon="3.815">
        <ele>242</ele>
        <time>2019-10-26T11:20:35.000Z</time>
      </trkpt>
      <trkpt lat="47.82206" lon="3.815">
        <ele>242</ele>
        <time>2019-10-26T11:20:36.000Z</time>
      </trkpt>
      <trkpt lat="47.82206" lon="3.815">
        <ele>242</ele>
        <time>2019-10-26T11:20:37.000Z</time>
      </trkpt>
      <trkpt lat="47.82206" lon="3.81499">
        <ele>242</ele>
        <time>2019-10-26T11:20:38.000Z</time>
      </trkpt>
      <trkpt lat="47.82206" lon="3.81499">
        <ele>242</ele>
        <time>2019-10-26T11:20:39.000Z</time>
      </trkpt>
      <trkpt lat="47.82206" lon="3.81499">
        <ele>242</ele>
        <time>2019-10-26T11:20:40.000Z</time>
      </trkpt>
      <trkpt lat="47.82206" lon="3.81499">
        <ele>241</ele>
        <time>2019-10-26T11:20:41.000Z</time>
      </trkpt>
      <trkpt lat="47.82206" lon="3.81499">
        <ele>241</ele>
        <time>2019-10-26T11:20:42.000Z</time>
      </trkpt>
      <trkpt lat="47.82206" lon="3.81499">
        <ele>241</ele>
        <time>2019-10-26T11:20:43.000Z</time>
      </trkpt>
      <trkpt lat="47.82206" lon="3.81499">
        <ele>241</ele>
        <time>2019-10-26T11:20:44.000Z</time>
      </trkpt>
      <trkpt lat="47.82206" lon="3.81498">
        <ele>241</ele>
        <time>2019-10-26T11:20:45.000Z</time>
      </trkpt>
      <trkpt lat="47.82206" lon="3.81498">
        <ele>241</ele>
        <time>2019-10-26T11:20:46.000Z</time>
      </trkpt>
      <trkpt lat="47.82206" lon="3.81498">
        <ele>241</ele>
        <time>2019-10-26T11:20:47.000Z</time>
      </trkpt>
      <trkpt lat="47.82206" lon="3.81498">
        <ele>241</ele>
        <time>2019-10-26T11:20:48.000Z</time>
      </trkpt>
      <trkpt lat="47.82206" lon="3.81498">
        <ele>241</ele>
        <time>2019-10-26T11:20:49.000Z</time>
      </trkpt>
      <trkpt lat="47.82206" lon="3.81498">
        <ele>241</ele>
        <time>2019-10-26T11:20:50.000Z</time>
      </trkpt>
      <trkpt lat="47.82206" lon="3.81498">
        <ele>241</ele>
        <time>2019-10-26T11:20:51.000Z</time>
      </trkpt>
      <trkpt lat="47.82206" lon="3.81497">
        <ele>242</ele>
        <time>2019-10-26T11:20:52.000Z</time>
      </trkpt>
      <trkpt lat="47.82206" lon="3.81496">
        <ele>242</ele>
        <time>2019-10-26T11:20:53.000Z</time>
      </trkpt>
      <trkpt lat="47.82206" lon="3.81496">
        <ele>242</ele>
        <time>2019-10-26T11:20:54.000Z</time>
      </trkpt>
      <trkpt lat="47.82206" lon="3.81495">
        <ele>242</ele>
        <time>2019-10-26T11:20:55.000Z</time>
      </trkpt>
      <trkpt lat="47.82206" lon="3.81494">
        <ele>242</ele>
        <time>2019-10-26T11:20:56.000Z</time>
      </trkpt>
      <trkpt lat="47.82205" lon="3.81494">
        <ele>242</ele>
        <time>2019-10-26T11:20:57.000Z</time>
      </trkpt>
      <trkpt lat="47.82205" lon="3.81494">
        <ele>242</ele>
        <time>2019-10-26T11:20:58.000Z</time>
      </trkpt>
      <trkpt lat="47.82204" lon="3.81493">
        <ele>242</ele>
        <time>2019-10-26T11:20:59.000Z</time>
      </trkpt>
      <trkpt lat="47.82204" lon="3.81493">
        <ele>242</ele>
        <time>2019-10-26T11:21:00.000Z</time>
      </trkpt>
      <trkpt lat="47.82203" lon="3.81493">
        <ele>242</ele>
        <time>2019-10-26T11:21:01.000Z</time>
      </trkpt>
      <trkpt lat="47.82203" lon="3.81493">
        <ele>242</ele>
        <time>2019-10-26T11:21:02.000Z</time>
      </trkpt>
      <trkpt lat="47.82203" lon="3.81494">
        <ele>242</ele>
        <time>2019-10-26T11:21:03.000Z</time>
      </trkpt>
      <trkpt lat="47.82203" lon="3.81494">
        <ele>242</ele>
        <time>2019-10-26T11:21:04.000Z</time>
      </trkpt>
      <trkpt lat="47.82203" lon="3.81494">
        <ele>242</ele>
        <time>2019-10-26T11:21:05.000Z</time>
      </trkpt>
      <trkpt lat="47.82203" lon="3.81494">
        <ele>242</ele>
        <time>2019-10-26T11:21:06.000Z</time>
      </trkpt>
      <trkpt lat="47.82203" lon="3.81494">
        <ele>242</ele>
        <time>2019-10-26T11:21:07.000Z</time>
      </trkpt>
      <trkpt lat="47.82203" lon="3.81494">
        <ele>242</ele>
        <time>2019-10-26T11:21:08.000Z</time>
      </trkpt>
      <trkpt lat="47.82203" lon="3.81494">
        <ele>242</ele>
        <time>2019-10-26T11:21:09.000Z</time>
      </trkpt>
      <trkpt lat="47.82203" lon="3.81494">
        <ele>242</ele>
        <time>2019-10-26T11:21:10.000Z</time>
      </trkpt>
      <trkpt lat="47.82203" lon="3.81494">
        <ele>242</ele>
        <time>2019-10-26T11:21:11.000Z</time>
      </trkpt>
      <trkpt lat="47.82203" lon="3.81494">
        <ele>242</ele>
        <time>2019-10-26T11:21:12.000Z</time>
      </trkpt>
      <trkpt lat="47.82203" lon="3.81494">
        <ele>242</ele>
        <time>2019-10-26T11:21:13.000Z</time>
      </trkpt>
      <trkpt lat="47.82203" lon="3.81493">
        <ele>242</ele>
        <time>2019-10-26T11:21:14.000Z</time>
      </trkpt>
      <trkpt lat="47.82203" lon="3.81493">
        <ele>242</ele>
        <time>2019-10-26T11:21:15.000Z</time>
      </trkpt>
      <trkpt lat="47.82203" lon="3.81492">
        <ele>242</ele>
        <time>2019-10-26T11:21:16.000Z</time>
      </trkpt>
      <trkpt lat="47.82202" lon="3.81492">
        <ele>242</ele>
        <time>2019-10-26T11:21:17.000Z</time>
      </trkpt>
      <trkpt lat="47.82202" lon="3.81492">
        <ele>242</ele>
        <time>2019-10-26T11:21:18.000Z</time>
      </trkpt>
      <trkpt lat="47.82202" lon="3.81491">
        <ele>242</ele>
        <time>2019-10-26T11:21:19.000Z</time>
      </trkpt>
      <trkpt lat="47.82201" lon="3.8149">
        <ele>242</ele>
        <time>2019-10-26T11:21:20.000Z</time>
      </trkpt>
      <trkpt lat="47.822" lon="3.81489">
        <ele>241</ele>
        <time>2019-10-26T11:21:21.000Z</time>
      </trkpt>
      <trkpt lat="47.822" lon="3.81487">
        <ele>241</ele>
        <time>2019-10-26T11:21:22.000Z</time>
      </trkpt>
      <trkpt lat="47.82199" lon="3.81486">
        <ele>241</ele>
        <time>2019-10-26T11:21:23.000Z</time>
      </trkpt>
      <trkpt lat="47.82199" lon="3.81486">
        <ele>241</ele>
        <time>2019-10-26T11:21:24.000Z</time>
      </trkpt>
      <trkpt lat="47.82199" lon="3.81485">
        <ele>241</ele>
        <time>2019-10-26T11:21:25.000Z</time>
      </trkpt>
      <trkpt lat="47.82199" lon="3.81485">
        <ele>241</ele>
        <time>2019-10-26T11:21:26.000Z</time>
      </trkpt>
      <trkpt lat="47.82199" lon="3.81485">
        <ele>241</ele>
        <time>2019-10-26T11:21:27.000Z</time>
      </trkpt>
      <trkpt lat="47.82199" lon="3.81485">
        <ele>241</ele>
        <time>2019-10-26T11:21:28.000Z</time>
      </trkpt>
      <trkpt lat="47.82199" lon="3.81484">
        <ele>241</ele>
        <time>2019-10-26T11:21:29.000Z</time>
      </trkpt>
      <trkpt lat="47.82199" lon="3.81484">
        <ele>241</ele>
        <time>2019-10-26T11:21:30.000Z</time>
      </trkpt>
      <trkpt lat="47.82199" lon="3.81483">
        <ele>241</ele>
        <time>2019-10-26T11:21:31.000Z</time>
      </trkpt>
      <trkpt lat="47.82199" lon="3.81483">
        <ele>241</ele>
        <time>2019-10-26T11:21:32.000Z</time>
      </trkpt>
      <trkpt lat="47.82199" lon="3.81483">
        <ele>241</ele>
        <time>2019-10-26T11:21:33.000Z</time>
      </trkpt>
      <trkpt lat="47.82199" lon="3.81483">
        <ele>241</ele>
        <time>2019-10-26T11:21:34.000Z</time>
      </trkpt>
      <trkpt lat="47.82199" lon="3.81483">
        <ele>241</ele>
        <time>2019-10-26T11:21:35.000Z</time>
      </trkpt>
      <trkpt lat="47.82199" lon="3.81483">
        <ele>241</ele>
        <time>2019-10-26T11:21:36.000Z</time>
      </trkpt>
      <trkpt lat="47.822" lon="3.81483">
        <ele>241</ele>
        <time>2019-10-26T11:21:37.000Z</time>
      </trkpt>
      <trkpt lat="47.822" lon="3.81483">
        <ele>241</ele>
        <time>2019-10-26T11:21:38.000Z</time>
      </trkpt>
      <trkpt lat="47.822" lon="3.81483">
        <ele>241</ele>
        <time>2019-10-26T11:21:39.000Z</time>
      </trkpt>
      <trkpt lat="47.822" lon="3.81483">
        <ele>241</ele>
        <time>2019-10-26T11:21:40.000Z</time>
      </trkpt>
      <trkpt lat="47.822" lon="3.81483">
        <ele>241</ele>
        <time>2019-10-26T11:21:41.000Z</time>
      </trkpt>
      <trkpt lat="47.822" lon="3.81482">
        <ele>241</ele>
        <time>2019-10-26T11:21:42.000Z</time>
      </trkpt>
      <trkpt lat="47.822" lon="3.81482">
        <ele>241</ele>
        <time>2019-10-26T11:21:43.000Z</time>
      </trkpt>
      <trkpt lat="47.822" lon="3.81482">
        <ele>241</ele>
        <time>2019-10-26T11:21:44.000Z</time>
      </trkpt>
      <trkpt lat="47.822" lon="3.81482">
        <ele>241</ele>
        <time>2019-10-26T11:21:45.000Z</time>
      </trkpt>
      <trkpt lat="47.822" lon="3.81482">
        <ele>241</ele>
        <time>2019-10-26T11:21:46.000Z</time>
      </trkpt>
      <trkpt lat="47.822" lon="3.81482">
        <ele>241</ele>
        <time>2019-10-26T11:21:47.000Z</time>
      </trkpt>
      <trkpt lat="47.822" lon="3.81482">
        <ele>241</ele>
        <time>2019-10-26T11:21:48.000Z</time>
      </trkpt>
      <trkpt lat="47.822" lon="3.81482">
        <ele>241</ele>
        <time>2019-10-26T11:21:49.000Z</time>
      </trkpt>
      <trkpt lat="47.822" lon="3.81482">
        <ele>242</ele>
        <time>2019-10-26T11:21:50.000Z</time>
      </trkpt>
      <trkpt lat="47.822" lon="3.81482">
        <ele>242</ele>
        <time>2019-10-26T11:21:51.000Z</time>
      </trkpt>
      <trkpt lat="47.822" lon="3.81482">
        <ele>242</ele>
        <time>2019-10-26T11:21:52.000Z</time>
      </trkpt>
      <trkpt lat="47.822" lon="3.81482">
        <ele>242</ele>
        <time>2019-10-26T11:21:53.000Z</time>
      </trkpt>
      <trkpt lat="47.822" lon="3.81483">
        <ele>242</ele>
        <time>2019-10-26T11:21:54.000Z</time>
      </trkpt>
      <trkpt lat="47.822" lon="3.81483">
        <ele>242</ele>
        <time>2019-10-26T11:21:55.000Z</time>
      </trkpt>
      <trkpt lat="47.822" lon="3.81484">
        <ele>242</ele>
        <time>2019-10-26T11:21:56.000Z</time>
      </trkpt>
      <trkpt lat="47.82201" lon="3.81484">
        <ele>242</ele>
        <time>2019-10-26T11:21:57.000Z</time>
      </trkpt>
      <trkpt lat="47.82201" lon="3.81485">
        <ele>242</ele>
        <time>2019-10-26T11:21:58.000Z</time>
      </trkpt>
      <trkpt lat="47.82201" lon="3.81485">
        <ele>242</ele>
        <time>2019-10-26T11:21:59.000Z</time>
      </trkpt>
      <trkpt lat="47.82202" lon="3.81485">
        <ele>242</ele>
        <time>2019-10-26T11:22:00.000Z</time>
      </trkpt>
      <trkpt lat="47.82202" lon="3.81486">
        <ele>242</ele>
        <time>2019-10-26T11:22:01.000Z</time>
      </trkpt>
      <trkpt lat="47.82202" lon="3.81486">
        <ele>243</ele>
        <time>2019-10-26T11:22:02.000Z</time>
      </trkpt>
      <trkpt lat="47.82202" lon="3.81486">
        <ele>243</ele>
        <time>2019-10-26T11:22:03.000Z</time>
      </trkpt>
      <trkpt lat="47.82202" lon="3.81486">
        <ele>243</ele>
        <time>2019-10-26T11:22:04.000Z</time>
      </trkpt>
      <trkpt lat="47.82202" lon="3.81485">
        <ele>243</ele>
        <time>2019-10-26T11:22:05.000Z</time>
      </trkpt>
      <trkpt lat="47.82202" lon="3.81485">
        <ele>243</ele>
        <time>2019-10-26T11:22:06.000Z</time>
      </trkpt>
      <trkpt lat="47.82203" lon="3.81485">
        <ele>243</ele>
        <time>2019-10-26T11:22:07.000Z</time>
      </trkpt>
      <trkpt lat="47.82203" lon="3.81485">
        <ele>243</ele>
        <time>2019-10-26T11:22:08.000Z</time>
      </trkpt>
      <trkpt lat="47.82203" lon="3.81485">
        <ele>243</ele>
        <time>2019-10-26T11:22:09.000Z</time>
      </trkpt>
      <trkpt lat="47.82203" lon="3.81485">
        <ele>243</ele>
        <time>2019-10-26T11:22:10.000Z</time>
      </trkpt>
      <trkpt lat="47.82203" lon="3.81484">
        <ele>243</ele>
        <time>2019-10-26T11:22:11.000Z</time>
      </trkpt>
      <trkpt lat="47.82204" lon="3.81484">
        <ele>243</ele>
        <time>2019-10-26T11:22:12.000Z</time>
      </trkpt>
      <trkpt lat="47.82204" lon="3.81485">
        <ele>243</ele>
        <time>2019-10-26T11:22:13.000Z</time>
      </trkpt>
      <trkpt lat="47.82205" lon="3.81485">
        <ele>243</ele>
        <time>2019-10-26T11:22:14.000Z</time>
      </trkpt>
      <trkpt lat="47.82205" lon="3.81485">
        <ele>243</ele>
        <time>2019-10-26T11:22:15.000Z</time>
      </trkpt>
      <trkpt lat="47.82205" lon="3.81485">
        <ele>243</ele>
        <time>2019-10-26T11:22:16.000Z</time>
      </trkpt>
      <trkpt lat="47.82205" lon="3.81486">
        <ele>243</ele>
        <time>2019-10-26T11:22:17.000Z</time>
      </trkpt>
      <trkpt lat="47.82205" lon="3.81487">
        <ele>243</ele>
        <time>2019-10-26T11:22:18.000Z</time>
      </trkpt>
      <trkpt lat="47.82204" lon="3.81489">
        <ele>242</ele>
        <time>2019-10-26T11:22:19.000Z</time>
      </trkpt>
      <trkpt lat="47.82204" lon="3.8149">
        <ele>242</ele>
        <time>2019-10-26T11:22:20.000Z</time>
      </trkpt>
      <trkpt lat="47.82204" lon="3.8149">
        <ele>242</ele>
        <time>2019-10-26T11:22:21.000Z</time>
      </trkpt>
      <trkpt lat="47.82204" lon="3.8149">
        <ele>242</ele>
        <time>2019-10-26T11:22:22.000Z</time>
      </trkpt>
      <trkpt lat="47.82204" lon="3.8149">
        <ele>242</ele>
        <time>2019-10-26T11:22:23.000Z</time>
      </trkpt>
      <trkpt lat="47.82204" lon="3.8149">
        <ele>242</ele>
        <time>2019-10-26T11:22:24.000Z</time>
      </trkpt>
      <trkpt lat="47.82204" lon="3.8149">
        <ele>242</ele>
        <time>2019-10-26T11:22:25.000Z</time>
      </trkpt>
      <trkpt lat="47.82204" lon="3.8149">
        <ele>242</ele>
        <time>2019-10-26T11:22:26.000Z</time>
      </trkpt>
      <trkpt lat="47.82205" lon="3.81489">
        <ele>242</ele>
        <time>2019-10-26T11:22:27.000Z</time>
      </trkpt>
      <trkpt lat="47.82205" lon="3.81489">
        <ele>241</ele>
        <time>2019-10-26T11:22:28.000Z</time>
      </trkpt>
      <trkpt lat="47.82205" lon="3.81488">
        <ele>241</ele>
        <time>2019-10-26T11:22:29.000Z</time>
      </trkpt>
      <trkpt lat="47.82206" lon="3.81487">
        <ele>241</ele>
        <time>2019-10-26T11:22:30.000Z</time>
      </trkpt>
      <trkpt lat="47.82206" lon="3.81487">
        <ele>241</ele>
        <time>2019-10-26T11:22:31.000Z</time>
      </trkpt>
      <trkpt lat="47.82206" lon="3.81486">
        <ele>241</ele>
        <time>2019-10-26T11:22:32.000Z</time>
      </trkpt>
      <trkpt lat="47.82205" lon="3.81486">
        <ele>241</ele>
        <time>2019-10-26T11:22:33.000Z</time>
      </trkpt>
      <trkpt lat="47.82205" lon="3.81485">
        <ele>241</ele>
        <time>2019-10-26T11:22:34.000Z</time>
      </trkpt>
      <trkpt lat="47.82205" lon="3.81485">
        <ele>241</ele>
        <time>2019-10-26T11:22:35.000Z</time>
      </trkpt>
      <trkpt lat="47.82204" lon="3.81484">
        <ele>240</ele>
        <time>2019-10-26T11:22:36.000Z</time>
      </trkpt>
      <trkpt lat="47.82204" lon="3.81484">
        <ele>240</ele>
        <time>2019-10-26T11:22:37.000Z</time>
      </trkpt>
      <trkpt lat="47.82204" lon="3.81484">
        <ele>240</ele>
        <time>2019-10-26T11:22:38.000Z</time>
      </trkpt>
      <trkpt lat="47.82203" lon="3.81483">
        <ele>240</ele>
        <time>2019-10-26T11:22:39.000Z</time>
      </trkpt>
      <trkpt lat="47.82203" lon="3.81483">
        <ele>240</ele>
        <time>2019-10-26T11:22:40.000Z</time>
      </trkpt>
      <trkpt lat="47.82202" lon="3.81483">
        <ele>240</ele>
        <time>2019-10-26T11:22:41.000Z</time>
      </trkpt>
      <trkpt lat="47.82202" lon="3.81483">
        <ele>239</ele>
        <time>2019-10-26T11:22:42.000Z</time>
      </trkpt>
      <trkpt lat="47.82202" lon="3.81482">
        <ele>239</ele>
        <time>2019-10-26T11:22:43.000Z</time>
      </trkpt>
      <trkpt lat="47.82202" lon="3.81481">
        <ele>239</ele>
        <time>2019-10-26T11:22:44.000Z</time>
      </trkpt>
      <trkpt lat="47.82202" lon="3.8148">
        <ele>239</ele>
        <time>2019-10-26T11:22:45.000Z</time>
      </trkpt>
      <trkpt lat="47.82202" lon="3.81479">
        <ele>239</ele>
        <time>2019-10-26T11:22:46.000Z</time>
      </trkpt>
      <trkpt lat="47.82202" lon="3.81479">
        <ele>239</ele>
        <time>2019-10-26T11:22:47.000Z</time>
      </trkpt>
      <trkpt lat="47.82202" lon="3.81479">
        <ele>239</ele>
        <time>2019-10-26T11:22:48.000Z</time>
      </trkpt>
      <trkpt lat="47.82202" lon="3.81479">
        <ele>239</ele>
        <time>2019-10-26T11:22:49.000Z</time>
      </trkpt>
      <trkpt lat="47.82201" lon="3.81479">
        <ele>239</ele>
        <time>2019-10-26T11:22:50.000Z</time>
      </trkpt>
      <trkpt lat="47.82201" lon="3.81479">
        <ele>239</ele>
        <time>2019-10-26T11:22:51.000Z</time>
      </trkpt>
      <trkpt lat="47.82201" lon="3.81479">
        <ele>239</ele>
        <time>2019-10-26T11:22:52.000Z</time>
      </trkpt>
      <trkpt lat="47.82201" lon="3.81479">
        <ele>240</ele>
        <time>2019-10-26T11:22:53.000Z</time>
      </trkpt>
      <trkpt lat="47.82201" lon="3.81479">
        <ele>240</ele>
        <time>2019-10-26T11:22:54.000Z</time>
      </trkpt>
      <trkpt lat="47.82201" lon="3.81479">
        <ele>240</ele>
        <time>2019-10-26T11:22:55.000Z</time>
      </trkpt>
      <trkpt lat="47.82201" lon="3.81479">
        <ele>240</ele>
        <time>2019-10-26T11:22:56.000Z</time>
      </trkpt>
      <trkpt lat="47.82201" lon="3.81479">
        <ele>240</ele>
        <time>2019-10-26T11:22:57.000Z</time>
      </trkpt>
      <trkpt lat="47.82201" lon="3.81479">
        <ele>240</ele>
        <time>2019-10-26T11:22:58.000Z</time>
      </trkpt>
      <trkpt lat="47.822" lon="3.81479">
        <ele>240</ele>
        <time>2019-10-26T11:22:59.000Z</time>
      </trkpt>
      <trkpt lat="47.822" lon="3.81479">
        <ele>240</ele>
        <time>2019-10-26T11:23:00.000Z</time>
      </trkpt>
      <trkpt lat="47.822" lon="3.81479">
        <ele>240</ele>
        <time>2019-10-26T11:23:01.000Z</time>
      </trkpt>
      <trkpt lat="47.822" lon="3.81479">
        <ele>240</ele>
        <time>2019-10-26T11:23:02.000Z</time>
      </trkpt>
      <trkpt lat="47.822" lon="3.81479">
        <ele>240</ele>
        <time>2019-10-26T11:23:03.000Z</time>
      </trkpt>
      <trkpt lat="47.822" lon="3.81479">
        <ele>240</ele>
        <time>2019-10-26T11:23:04.000Z</time>
      </trkpt>
      <trkpt lat="47.822" lon="3.81479">
        <ele>240</ele>
        <time>2019-10-26T11:23:05.000Z</time>
      </trkpt>
      <trkpt lat="47.822" lon="3.81479">
        <ele>240</ele>
        <time>2019-10-26T11:23:06.000Z</time>
      </trkpt>
      <trkpt lat="47.822" lon="3.81479">
        <ele>240</ele>
        <time>2019-10-26T11:23:07.000Z</time>
      </trkpt>
      <trkpt lat="47.822" lon="3.81479">
        <ele>240</ele>
        <time>2019-10-26T11:23:08.000Z</time>
      </trkpt>
      <trkpt lat="47.822" lon="3.81479">
        <ele>240</ele>
        <time>2019-10-26T11:23:09.000Z</time>
      </trkpt>
      <trkpt lat="47.822" lon="3.81479">
        <ele>240</ele>
        <time>2019-10-26T11:23:10.000Z</time>
      </trkpt>
      <trkpt lat="47.822" lon="3.8148">
        <ele>240</ele>
        <time>2019-10-26T11:23:11.000Z</time>
      </trkpt>
      <trkpt lat="47.822" lon="3.8148">
        <ele>240</ele>
        <time>2019-10-26T11:23:12.000Z</time>
      </trkpt>
      <trkpt lat="47.822" lon="3.81481">
        <ele>240</ele>
        <time>2019-10-26T11:23:13.000Z</time>
      </trkpt>
      <trkpt lat="47.82201" lon="3.81481">
        <ele>240</ele>
        <time>2019-10-26T11:23:14.000Z</time>
      </trkpt>
      <trkpt lat="47.82201" lon="3.81481">
        <ele>240</ele>
        <time>2019-10-26T11:23:15.000Z</time>
      </trkpt>
      <trkpt lat="47.82201" lon="3.81481">
        <ele>240</ele>
        <time>2019-10-26T11:23:16.000Z</time>
      </trkpt>
      <trkpt lat="47.82201" lon="3.8148">
        <ele>241</ele>
        <time>2019-10-26T11:23:17.000Z</time>
      </trkpt>
      <trkpt lat="47.82201" lon="3.8148">
        <ele>241</ele>
        <time>2019-10-26T11:23:18.000Z</time>
      </trkpt>
      <trkpt lat="47.82202" lon="3.8148">
        <ele>241</ele>
        <time>2019-10-26T11:23:19.000Z</time>
      </trkpt>
      <trkpt lat="47.82202" lon="3.8148">
        <ele>241</ele>
        <time>2019-10-26T11:23:20.000Z</time>
      </trkpt>
      <trkpt lat="47.82202" lon="3.8148">
        <ele>241</ele>
        <time>2019-10-26T11:23:21.000Z</time>
      </trkpt>
      <trkpt lat="47.82202" lon="3.8148">
        <ele>241</ele>
        <time>2019-10-26T11:23:22.000Z</time>
      </trkpt>
      <trkpt lat="47.82202" lon="3.8148">
        <ele>241</ele>
        <time>2019-10-26T11:23:23.000Z</time>
      </trkpt>
      <trkpt lat="47.82202" lon="3.8148">
        <ele>241</ele>
        <time>2019-10-26T11:23:24.000Z</time>
      </trkpt>
      <trkpt lat="47.82202" lon="3.8148">
        <ele>241</ele>
        <time>2019-10-26T11:23:25.000Z</time>
      </trkpt>
      <trkpt lat="47.82202" lon="3.8148">
        <ele>241</ele>
        <time>2019-10-26T11:23:26.000Z</time>
      </trkpt>
      <trkpt lat="47.82202" lon="3.8148">
        <ele>241</ele>
        <time>2019-10-26T11:23:27.000Z</time>
      </trkpt>
      <trkpt lat="47.82202" lon="3.8148">
        <ele>241</ele>
        <time>2019-10-26T11:23:28.000Z</time>
      </trkpt>
      <trkpt lat="47.82202" lon="3.8148">
        <ele>241</ele>
        <time>2019-10-26T11:23:29.000Z</time>
      </trkpt>
      <trkpt lat="47.82202" lon="3.81481">
        <ele>241</ele>
        <time>2019-10-26T11:23:30.000Z</time>
      </trkpt>
      <trkpt lat="47.82202" lon="3.81481">
        <ele>241</ele>
        <time>2019-10-26T11:23:31.000Z</time>
      </trkpt>
      <trkpt lat="47.82203" lon="3.81481">
        <ele>241</ele>
        <time>2019-10-26T11:23:32.000Z</time>
      </trkpt>
      <trkpt lat="47.82202" lon="3.81481">
        <ele>241</ele>
        <time>2019-10-26T11:23:33.000Z</time>
      </trkpt>
      <trkpt lat="47.82202" lon="3.8148">
        <ele>241</ele>
        <time>2019-10-26T11:23:34.000Z</time>
      </trkpt>
      <trkpt lat="47.82202" lon="3.8148">
        <ele>241</ele>
        <time>2019-10-26T11:23:35.000Z</time>
      </trkpt>
      <trkpt lat="47.82202" lon="3.81479">
        <ele>241</ele>
        <time>2019-10-26T11:23:36.000Z</time>
      </trkpt>
      <trkpt lat="47.82202" lon="3.81479">
        <ele>241</ele>
        <time>2019-10-26T11:23:37.000Z</time>
      </trkpt>
      <trkpt lat="47.82202" lon="3.81479">
        <ele>241</ele>
        <time>2019-10-26T11:23:38.000Z</time>
      </trkpt>
      <trkpt lat="47.82203" lon="3.81479">
        <ele>241</ele>
        <time>2019-10-26T11:23:39.000Z</time>
      </trkpt>
      <trkpt lat="47.82203" lon="3.81479">
        <ele>241</ele>
        <time>2019-10-26T11:23:40.000Z</time>
      </trkpt>
      <trkpt lat="47.82203" lon="3.81478">
        <ele>241</ele>
        <time>2019-10-26T11:23:41.000Z</time>
      </trkpt>
      <trkpt lat="47.82203" lon="3.81478">
        <ele>241</ele>
        <time>2019-10-26T11:23:42.000Z</time>
      </trkpt>
      <trkpt lat="47.82203" lon="3.81478">
        <ele>241</ele>
        <time>2019-10-26T11:23:43.000Z</time>
      </trkpt>
      <trkpt lat="47.82203" lon="3.81479">
        <ele>241</ele>
        <time>2019-10-26T11:23:44.000Z</time>
      </trkpt>
      <trkpt lat="47.82203" lon="3.81479">
        <ele>241</ele>
        <time>2019-10-26T11:23:45.000Z</time>
      </trkpt>
      <trkpt lat="47.82202" lon="3.81479">
        <ele>241</ele>
        <time>2019-10-26T11:23:46.000Z</time>
      </trkpt>
      <trkpt lat="47.82202" lon="3.81479">
        <ele>241</ele>
        <time>2019-10-26T11:23:47.000Z</time>
      </trkpt>
      <trkpt lat="47.82201" lon="3.81479">
        <ele>241</ele>
        <time>2019-10-26T11:23:48.000Z</time>
      </trkpt>
      <trkpt lat="47.822" lon="3.8148">
        <ele>241</ele>
        <time>2019-10-26T11:23:49.000Z</time>
      </trkpt>
      <trkpt lat="47.82199" lon="3.81481">
        <ele>240</ele>
        <time>2019-10-26T11:23:50.000Z</time>
      </trkpt>
      <trkpt lat="47.82198" lon="3.81481">
        <ele>240</ele>
        <time>2019-10-26T11:23:51.000Z</time>
      </trkpt>
      <trkpt lat="47.82197" lon="3.81482">
        <ele>240</ele>
        <time>2019-10-26T11:23:52.000Z</time>
      </trkpt>
      <trkpt lat="47.82197" lon="3.81483">
        <ele>240</ele>
        <time>2019-10-26T11:23:53.000Z</time>
      </trkpt>
      <trkpt lat="47.82196" lon="3.81485">
        <ele>240</ele>
        <time>2019-10-26T11:23:54.000Z</time>
      </trkpt>
      <trkpt lat="47.82195" lon="3.81486">
        <ele>240</ele>
        <time>2019-10-26T11:23:55.000Z</time>
      </trkpt>
      <trkpt lat="47.82194" lon="3.81486">
        <ele>240</ele>
        <time>2019-10-26T11:23:56.000Z</time>
      </trkpt>
      <trkpt lat="47.82193" lon="3.81487">
        <ele>240</ele>
        <time>2019-10-26T11:23:57.000Z</time>
      </trkpt>
      <trkpt lat="47.82192" lon="3.81488">
        <ele>240</ele>
        <time>2019-10-26T11:23:58.000Z</time>
      </trkpt>
      <trkpt lat="47.82191" lon="3.81488">
        <ele>240</ele>
        <time>2019-10-26T11:23:59.000Z</time>
      </trkpt>
      <trkpt lat="47.8219" lon="3.81489">
        <ele>241</ele>
        <time>2019-10-26T11:24:00.000Z</time>
      </trkpt>
      <trkpt lat="47.82189" lon="3.8149">
        <ele>241</ele>
        <time>2019-10-26T11:24:01.000Z</time>
      </trkpt>
      <trkpt lat="47.82188" lon="3.81492">
        <ele>241</ele>
        <time>2019-10-26T11:24:02.000Z</time>
      </trkpt>
      <trkpt lat="47.82187" lon="3.81493">
        <ele>241</ele>
        <time>2019-10-26T11:24:03.000Z</time>
      </trkpt>
      <trkpt lat="47.82186" lon="3.81495">
        <ele>241</ele>
        <time>2019-10-26T11:24:04.000Z</time>
      </trkpt>
      <trkpt lat="47.82185" lon="3.81497">
        <ele>240</ele>
        <time>2019-10-26T11:24:05.000Z</time>
      </trkpt>
      <trkpt lat="47.82184" lon="3.81498">
        <ele>240</ele>
        <time>2019-10-26T11:24:06.000Z</time>
      </trkpt>
      <trkpt lat="47.82183" lon="3.81499">
        <ele>240</ele>
        <time>2019-10-26T11:24:07.000Z</time>
      </trkpt>
      <trkpt lat="47.82181" lon="3.815">
        <ele>240</ele>
        <time>2019-10-26T11:24:08.000Z</time>
      </trkpt>
      <trkpt lat="47.8218" lon="3.815">
        <ele>240</ele>
        <time>2019-10-26T11:24:09.000Z</time>
      </trkpt>
      <trkpt lat="47.82179" lon="3.815">
        <ele>240</ele>
        <time>2019-10-26T11:24:10.000Z</time>
      </trkpt>
      <trkpt lat="47.82178" lon="3.815">
        <ele>240</ele>
        <time>2019-10-26T11:24:11.000Z</time>
      </trkpt>
      <trkpt lat="47.82177" lon="3.81501">
        <ele>240</ele>
        <time>2019-10-26T11:24:12.000Z</time>
      </trkpt>
      <trkpt lat="47.82177" lon="3.81501">
        <ele>240</ele>
        <time>2019-10-26T11:24:13.000Z</time>
      </trkpt>
      <trkpt lat="47.82177" lon="3.81501">
        <ele>240</ele>
        <time>2019-10-26T11:24:14.000Z</time>
      </trkpt>
      <trkpt lat="47.82177" lon="3.81501">
        <ele>240</ele>
        <time>2019-10-26T11:24:15.000Z</time>
      </trkpt>
      <trkpt lat="47.82177" lon="3.81501">
        <ele>240</ele>
        <time>2019-10-26T11:24:16.000Z</time>
      </trkpt>
      <trkpt lat="47.82177" lon="3.81501">
        <ele>240</ele>
        <time>2019-10-26T11:24:17.000Z</time>
      </trkpt>
      <trkpt lat="47.82177" lon="3.81502">
        <ele>240</ele>
        <time>2019-10-26T11:24:18.000Z</time>
      </trkpt>
      <trkpt lat="47.82177" lon="3.81502">
        <ele>240</ele>
        <time>2019-10-26T11:24:19.000Z</time>
      </trkpt>
      <trkpt lat="47.82176" lon="3.81502">
        <ele>241</ele>
        <time>2019-10-26T11:24:20.000Z</time>
      </trkpt>
      <trkpt lat="47.82176" lon="3.81502">
        <ele>241</ele>
        <time>2019-10-26T11:24:21.000Z</time>
      </trkpt>
      <trkpt lat="47.82176" lon="3.81502">
        <ele>241</ele>
        <time>2019-10-26T11:24:22.000Z</time>
      </trkpt>
      <trkpt lat="47.82176" lon="3.81502">
        <ele>241</ele>
        <time>2019-10-26T11:24:23.000Z</time>
      </trkpt>
      <trkpt lat="47.82176" lon="3.81502">
        <ele>241</ele>
        <time>2019-10-26T11:24:24.000Z</time>
      </trkpt>
      <trkpt lat="47.82176" lon="3.81502">
        <ele>241</ele>
        <time>2019-10-26T11:24:25.000Z</time>
      </trkpt>
      <trkpt lat="47.82176" lon="3.81502">
        <ele>241</ele>
        <time>2019-10-26T11:24:26.000Z</time>
      </trkpt>
      <trkpt lat="47.82176" lon="3.81503">
        <ele>241</ele>
        <time>2019-10-26T11:24:27.000Z</time>
      </trkpt>
      <trkpt lat="47.82176" lon="3.81503">
        <ele>241</ele>
        <time>2019-10-26T11:24:28.000Z</time>
      </trkpt>
      <trkpt lat="47.82176" lon="3.81503">
        <ele>241</ele>
        <time>2019-10-26T11:24:29.000Z</time>
      </trkpt>
      <trkpt lat="47.82176" lon="3.81503">
        <ele>241</ele>
        <time>2019-10-26T11:24:30.000Z</time>
      </trkpt>
      <trkpt lat="47.82176" lon="3.81503">
        <ele>241</ele>
        <time>2019-10-26T11:24:31.000Z</time>
      </trkpt>
      <trkpt lat="47.82176" lon="3.81503">
        <ele>241</ele>
        <time>2019-10-26T11:24:32.000Z</time>
      </trkpt>
      <trkpt lat="47.82176" lon="3.81503">
        <ele>241</ele>
        <time>2019-10-26T11:24:33.000Z</time>
      </trkpt>
      <trkpt lat="47.82176" lon="3.81503">
        <ele>241</ele>
        <time>2019-10-26T11:24:34.000Z</time>
      </trkpt>
      <trkpt lat="47.82176" lon="3.81503">
        <ele>241</ele>
        <time>2019-10-26T11:24:35.000Z</time>
      </trkpt>
      <trkpt lat="47.82176" lon="3.81503">
        <ele>242</ele>
        <time>2019-10-26T11:24:36.000Z</time>
      </trkpt>
      <trkpt lat="47.82176" lon="3.81503">
        <ele>242</ele>
        <time>2019-10-26T11:24:37.000Z</time>
      </trkpt>
      <trkpt lat="47.82176" lon="3.81503">
        <ele>242</ele>
        <time>2019-10-26T11:24:38.000Z</time>
      </trkpt>
      <trkpt lat="47.82176" lon="3.81503">
        <ele>242</ele>
        <time>2019-10-26T11:24:39.000Z</time>
      </trkpt>
      <trkpt lat="47.82176" lon="3.81503">
        <ele>242</ele>
        <time>2019-10-26T11:24:40.000Z</time>
      </trkpt>
      <trkpt lat="47.82176" lon="3.81503">
        <ele>242</ele>
        <time>2019-10-26T11:24:41.000Z</time>
      </trkpt>
      <trkpt lat="47.82176" lon="3.81504">
        <ele>242</ele>
        <time>2019-10-26T11:24:42.000Z</time>
      </trkpt>
      <trkpt lat="47.82176" lon="3.81504">
        <ele>242</ele>
        <time>2019-10-26T11:24:43.000Z</time>
      </trkpt>
      <trkpt lat="47.82176" lon="3.81504">
        <ele>242</ele>
        <time>2019-10-26T11:24:44.000Z</time>
      </trkpt>
      <trkpt lat="47.82176" lon="3.81504">
        <ele>242</ele>
        <time>2019-10-26T11:24:45.000Z</time>
      </trkpt>
      <trkpt lat="47.82176" lon="3.81504">
        <ele>242</ele>
        <time>2019-10-26T11:24:46.000Z</time>
      </trkpt>
      <trkpt lat="47.82176" lon="3.81504">
        <ele>242</ele>
        <time>2019-10-26T11:24:47.000Z</time>
      </trkpt>
      <trkpt lat="47.82176" lon="3.81504">
        <ele>242</ele>
        <time>2019-10-26T11:24:48.000Z</time>
      </trkpt>
      <trkpt lat="47.82176" lon="3.81504">
        <ele>242</ele>
        <time>2019-10-26T11:24:49.000Z</time>
      </trkpt>
      <trkpt lat="47.82176" lon="3.81504">
        <ele>242</ele>
        <time>2019-10-26T11:24:50.000Z</time>
      </trkpt>
      <trkpt lat="47.82176" lon="3.81505">
        <ele>242</ele>
        <time>2019-10-26T11:24:51.000Z</time>
      </trkpt>
      <trkpt lat="47.82176" lon="3.81505">
        <ele>242</ele>
        <time>2019-10-26T11:24:52.000Z</time>
      </trkpt>
      <trkpt lat="47.82176" lon="3.81505">
        <ele>242</ele>
        <time>2019-10-26T11:24:53.000Z</time>
      </trkpt>
      <trkpt lat="47.82176" lon="3.81505">
        <ele>242</ele>
        <time>2019-10-26T11:24:54.000Z</time>
      </trkpt>
      <trkpt lat="47.82176" lon="3.81506">
        <ele>242</ele>
        <time>2019-10-26T11:24:55.000Z</time>
      </trkpt>
      <trkpt lat="47.82177" lon="3.81506">
        <ele>242</ele>
        <time>2019-10-26T11:24:56.000Z</time>
      </trkpt>
      <trkpt lat="47.82177" lon="3.81507">
        <ele>242</ele>
        <time>2019-10-26T11:24:57.000Z</time>
      </trkpt>
      <trkpt lat="47.82177" lon="3.81508">
        <ele>242</ele>
        <time>2019-10-26T11:24:58.000Z</time>
      </trkpt>
      <trkpt lat="47.82176" lon="3.8151">
        <ele>242</ele>
        <time>2019-10-26T11:24:59.000Z</time>
      </trkpt>
      <trkpt lat="47.82175" lon="3.81511">
        <ele>242</ele>
        <time>2019-10-26T11:25:00.000Z</time>
      </trkpt>
      <trkpt lat="47.82173" lon="3.81513">
        <ele>242</ele>
        <time>2019-10-26T11:25:01.000Z</time>
      </trkpt>
      <trkpt lat="47.82172" lon="3.81516">
        <ele>242</ele>
        <time>2019-10-26T11:25:02.000Z</time>
      </trkpt>
      <trkpt lat="47.8217" lon="3.81518">
        <ele>242</ele>
        <time>2019-10-26T11:25:03.000Z</time>
      </trkpt>
      <trkpt lat="47.82169" lon="3.81521">
        <ele>241</ele>
        <time>2019-10-26T11:25:04.000Z</time>
      </trkpt>
      <trkpt lat="47.82168" lon="3.81523">
        <ele>241</ele>
        <time>2019-10-26T11:25:05.000Z</time>
      </trkpt>
      <trkpt lat="47.82166" lon="3.81526">
        <ele>241</ele>
        <time>2019-10-26T11:25:06.000Z</time>
      </trkpt>
      <trkpt lat="47.82165" lon="3.81528">
        <ele>241</ele>
        <time>2019-10-26T11:25:07.000Z</time>
      </trkpt>
      <trkpt lat="47.82163" lon="3.81531">
        <ele>240</ele>
        <time>2019-10-26T11:25:08.000Z</time>
      </trkpt>
      <trkpt lat="47.82161" lon="3.81534">
        <ele>240</ele>
        <time>2019-10-26T11:25:09.000Z</time>
      </trkpt>
      <trkpt lat="47.82158" lon="3.81537">
        <ele>240</ele>
        <time>2019-10-26T11:25:10.000Z</time>
      </trkpt>
      <trkpt lat="47.82156" lon="3.81539">
        <ele>240</ele>
        <time>2019-10-26T11:25:11.000Z</time>
      </trkpt>
      <trkpt lat="47.82153" lon="3.81539">
        <ele>240</ele>
        <time>2019-10-26T11:25:12.000Z</time>
      </trkpt>
      <trkpt lat="47.8215" lon="3.81539">
        <ele>239</ele>
        <time>2019-10-26T11:25:13.000Z</time>
      </trkpt>
      <trkpt lat="47.82148" lon="3.81538">
        <ele>239</ele>
        <time>2019-10-26T11:25:14.000Z</time>
      </trkpt>
      <trkpt lat="47.82145" lon="3.81537">
        <ele>239</ele>
        <time>2019-10-26T11:25:15.000Z</time>
      </trkpt>
      <trkpt lat="47.82142" lon="3.81536">
        <ele>239</ele>
        <time>2019-10-26T11:25:16.000Z</time>
      </trkpt>
      <trkpt lat="47.82139" lon="3.81534">
        <ele>238</ele>
        <time>2019-10-26T11:25:17.000Z</time>
      </trkpt>
      <trkpt lat="47.82137" lon="3.81533">
        <ele>238</ele>
        <time>2019-10-26T11:25:18.000Z</time>
      </trkpt>
      <trkpt lat="47.82134" lon="3.81531">
        <ele>238</ele>
        <time>2019-10-26T11:25:19.000Z</time>
      </trkpt>
      <trkpt lat="47.82131" lon="3.81529">
        <ele>238</ele>
        <time>2019-10-26T11:25:20.000Z</time>
      </trkpt>
      <trkpt lat="47.82128" lon="3.81527">
        <ele>237</ele>
        <time>2019-10-26T11:25:21.000Z</time>
      </trkpt>
      <trkpt lat="47.82125" lon="3.81525">
        <ele>237</ele>
        <time>2019-10-26T11:25:22.000Z</time>
      </trkpt>
      <trkpt lat="47.82123" lon="3.81523">
        <ele>237</ele>
        <time>2019-10-26T11:25:23.000Z</time>
      </trkpt>
      <trkpt lat="47.8212" lon="3.81522">
        <ele>236</ele>
        <time>2019-10-26T11:25:24.000Z</time>
      </trkpt>
      <trkpt lat="47.82118" lon="3.8152">
        <ele>236</ele>
        <time>2019-10-26T11:25:25.000Z</time>
      </trkpt>
      <trkpt lat="47.82115" lon="3.81519">
        <ele>236</ele>
        <time>2019-10-26T11:25:26.000Z</time>
      </trkpt>
      <trkpt lat="47.82113" lon="3.81517">
        <ele>235</ele>
        <time>2019-10-26T11:25:27.000Z</time>
      </trkpt>
      <trkpt lat="47.8211" lon="3.81515">
        <ele>235</ele>
        <time>2019-10-26T11:25:28.000Z</time>
      </trkpt>
      <trkpt lat="47.82107" lon="3.81514">
        <ele>235</ele>
        <time>2019-10-26T11:25:29.000Z</time>
      </trkpt>
      <trkpt lat="47.82105" lon="3.81513">
        <ele>234</ele>
        <time>2019-10-26T11:25:30.000Z</time>
      </trkpt>
      <trkpt lat="47.82102" lon="3.81512">
        <ele>234</ele>
        <time>2019-10-26T11:25:31.000Z</time>
      </trkpt>
      <trkpt lat="47.821" lon="3.81511">
        <ele>234</ele>
        <time>2019-10-26T11:25:32.000Z</time>
      </trkpt>
      <trkpt lat="47.82097" lon="3.8151">
        <ele>233</ele>
        <time>2019-10-26T11:25:33.000Z</time>
      </trkpt>
      <trkpt lat="47.82095" lon="3.81509">
        <ele>233</ele>
        <time>2019-10-26T11:25:34.000Z</time>
      </trkpt>
      <trkpt lat="47.82093" lon="3.81508">
        <ele>233</ele>
        <time>2019-10-26T11:25:35.000Z</time>
      </trkpt>
      <trkpt lat="47.8209" lon="3.81506">
        <ele>232</ele>
        <time>2019-10-26T11:25:36.000Z</time>
      </trkpt>
      <trkpt lat="47.82088" lon="3.81504">
        <ele>232</ele>
        <time>2019-10-26T11:25:37.000Z</time>
      </trkpt>
      <trkpt lat="47.82086" lon="3.81502">
        <ele>231</ele>
        <time>2019-10-26T11:25:38.000Z</time>
      </trkpt>
      <trkpt lat="47.82083" lon="3.815">
        <ele>231</ele>
        <time>2019-10-26T11:25:39.000Z</time>
      </trkpt>
      <trkpt lat="47.82081" lon="3.81498">
        <ele>230</ele>
        <time>2019-10-26T11:25:40.000Z</time>
      </trkpt>
      <trkpt lat="47.82079" lon="3.81496">
        <ele>230</ele>
        <time>2019-10-26T11:25:41.000Z</time>
      </trkpt>
      <trkpt lat="47.82077" lon="3.81494">
        <ele>230</ele>
        <time>2019-10-26T11:25:42.000Z</time>
      </trkpt>
      <trkpt lat="47.82075" lon="3.81492">
        <ele>229</ele>
        <time>2019-10-26T11:25:43.000Z</time>
      </trkpt>
      <trkpt lat="47.82073" lon="3.81491">
        <ele>229</ele>
        <time>2019-10-26T11:25:44.000Z</time>
      </trkpt>
      <trkpt lat="47.82071" lon="3.81489">
        <ele>228</ele>
        <time>2019-10-26T11:25:45.000Z</time>
      </trkpt>
      <trkpt lat="47.82069" lon="3.81487">
        <ele>227</ele>
        <time>2019-10-26T11:25:46.000Z</time>
      </trkpt>
      <trkpt lat="47.82067" lon="3.81485">
        <ele>226</ele>
        <time>2019-10-26T11:25:47.000Z</time>
      </trkpt>
      <trkpt lat="47.82064" lon="3.81483">
        <ele>226</ele>
        <time>2019-10-26T11:25:48.000Z</time>
      </trkpt>
      <trkpt lat="47.82062" lon="3.81481">
        <ele>225</ele>
        <time>2019-10-26T11:25:49.000Z</time>
      </trkpt>
      <trkpt lat="47.8206" lon="3.8148">
        <ele>224</ele>
        <time>2019-10-26T11:25:50.000Z</time>
      </trkpt>
      <trkpt lat="47.82058" lon="3.81478">
        <ele>223</ele>
        <time>2019-10-26T11:25:51.000Z</time>
      </trkpt>
      <trkpt lat="47.82056" lon="3.81476">
        <ele>222</ele>
        <time>2019-10-26T11:25:52.000Z</time>
      </trkpt>
      <trkpt lat="47.82054" lon="3.81475">
        <ele>222</ele>
        <time>2019-10-26T11:25:53.000Z</time>
      </trkpt>
      <trkpt lat="47.82051" lon="3.81474">
        <ele>221</ele>
        <time>2019-10-26T11:25:54.000Z</time>
      </trkpt>
      <trkpt lat="47.82049" lon="3.81473">
        <ele>220</ele>
        <time>2019-10-26T11:25:55.000Z</time>
      </trkpt>
      <trkpt lat="47.82047" lon="3.81472">
        <ele>220</ele>
        <time>2019-10-26T11:25:56.000Z</time>
      </trkpt>
      <trkpt lat="47.82044" lon="3.81471">
        <ele>219</ele>
        <time>2019-10-26T11:25:57.000Z</time>
      </trkpt>
      <trkpt lat="47.82042" lon="3.8147">
        <ele>218</ele>
        <time>2019-10-26T11:25:58.000Z</time>
      </trkpt>
      <trkpt lat="47.82039" lon="3.81469">
        <ele>218</ele>
        <time>2019-10-26T11:25:59.000Z</time>
      </trkpt>
      <trkpt lat="47.82037" lon="3.81468">
        <ele>217</ele>
        <time>2019-10-26T11:26:00.000Z</time>
      </trkpt>
      <trkpt lat="47.82035" lon="3.81466">
        <ele>216</ele>
        <time>2019-10-26T11:26:01.000Z</time>
      </trkpt>
      <trkpt lat="47.82033" lon="3.81465">
        <ele>216</ele>
        <time>2019-10-26T11:26:02.000Z</time>
      </trkpt>
      <trkpt lat="47.8203" lon="3.81464">
        <ele>215</ele>
        <time>2019-10-26T11:26:03.000Z</time>
      </trkpt>
      <trkpt lat="47.82028" lon="3.81462">
        <ele>215</ele>
        <time>2019-10-26T11:26:04.000Z</time>
      </trkpt>
      <trkpt lat="47.82026" lon="3.81461">
        <ele>214</ele>
        <time>2019-10-26T11:26:05.000Z</time>
      </trkpt>
      <trkpt lat="47.82023" lon="3.81459">
        <ele>214</ele>
        <time>2019-10-26T11:26:06.000Z</time>
      </trkpt>
      <trkpt lat="47.82021" lon="3.81458">
        <ele>213</ele>
        <time>2019-10-26T11:26:07.000Z</time>
      </trkpt>
      <trkpt lat="47.82018" lon="3.81456">
        <ele>212</ele>
        <time>2019-10-26T11:26:08.000Z</time>
      </trkpt>
      <trkpt lat="47.82015" lon="3.81455">
        <ele>212</ele>
        <time>2019-10-26T11:26:09.000Z</time>
      </trkpt>
      <trkpt lat="47.82013" lon="3.81454">
        <ele>211</ele>
        <time>2019-10-26T11:26:10.000Z</time>
      </trkpt>
      <trkpt lat="47.8201" lon="3.81453">
        <ele>210</ele>
        <time>2019-10-26T11:26:11.000Z</time>
      </trkpt>
      <trkpt lat="47.82008" lon="3.81452">
        <ele>210</ele>
        <time>2019-10-26T11:26:12.000Z</time>
      </trkpt>
      <trkpt lat="47.82005" lon="3.8145">
        <ele>209</ele>
        <time>2019-10-26T11:26:13.000Z</time>
      </trkpt>
      <trkpt lat="47.82003" lon="3.81449">
        <ele>209</ele>
        <time>2019-10-26T11:26:14.000Z</time>
      </trkpt>
      <trkpt lat="47.82" lon="3.81448">
        <ele>208</ele>
        <time>2019-10-26T11:26:15.000Z</time>
      </trkpt>
      <trkpt lat="47.81998" lon="3.81446">
        <ele>208</ele>
        <time>2019-10-26T11:26:16.000Z</time>
      </trkpt>
      <trkpt lat="47.81995" lon="3.81445">
        <ele>207</ele>
        <time>2019-10-26T11:26:17.000Z</time>
      </trkpt>
      <trkpt lat="47.81993" lon="3.81443">
        <ele>207</ele>
        <time>2019-10-26T11:26:18.000Z</time>
      </trkpt>
      <trkpt lat="47.8199" lon="3.81441">
        <ele>206</ele>
        <time>2019-10-26T11:26:19.000Z</time>
      </trkpt>
      <trkpt lat="47.81988" lon="3.81439">
        <ele>206</ele>
        <time>2019-10-26T11:26:20.000Z</time>
      </trkpt>
      <trkpt lat="47.81985" lon="3.81437">
        <ele>205</ele>
        <time>2019-10-26T11:26:21.000Z</time>
      </trkpt>
      <trkpt lat="47.81982" lon="3.81435">
        <ele>205</ele>
        <time>2019-10-26T11:26:22.000Z</time>
      </trkpt>
      <trkpt lat="47.8198" lon="3.81432">
        <ele>204</ele>
        <time>2019-10-26T11:26:23.000Z</time>
      </trkpt>
      <trkpt lat="47.81978" lon="3.8143">
        <ele>204</ele>
        <time>2019-10-26T11:26:24.000Z</time>
      </trkpt>
      <trkpt lat="47.81975" lon="3.81427">
        <ele>203</ele>
        <time>2019-10-26T11:26:25.000Z</time>
      </trkpt>
      <trkpt lat="47.81973" lon="3.81424">
        <ele>203</ele>
        <time>2019-10-26T11:26:26.000Z</time>
      </trkpt>
      <trkpt lat="47.81971" lon="3.81421">
        <ele>202</ele>
        <time>2019-10-26T11:26:27.000Z</time>
      </trkpt>
      <trkpt lat="47.81969" lon="3.81418">
        <ele>202</ele>
        <time>2019-10-26T11:26:28.000Z</time>
      </trkpt>
      <trkpt lat="47.81967" lon="3.81414">
        <ele>201</ele>
        <time>2019-10-26T11:26:29.000Z</time>
      </trkpt>
      <trkpt lat="47.81965" lon="3.81412">
        <ele>201</ele>
        <time>2019-10-26T11:26:30.000Z</time>
      </trkpt>
      <trkpt lat="47.81963" lon="3.81409">
        <ele>200</ele>
        <time>2019-10-26T11:26:31.000Z</time>
      </trkpt>
      <trkpt lat="47.8196" lon="3.81406">
        <ele>200</ele>
        <time>2019-10-26T11:26:32.000Z</time>
      </trkpt>
      <trkpt lat="47.81958" lon="3.81404">
        <ele>199</ele>
        <time>2019-10-26T11:26:33.000Z</time>
      </trkpt>
      <trkpt lat="47.81955" lon="3.81402">
        <ele>199</ele>
        <time>2019-10-26T11:26:34.000Z</time>
      </trkpt>
      <trkpt lat="47.81953" lon="3.814">
        <ele>198</ele>
        <time>2019-10-26T11:26:35.000Z</time>
      </trkpt>
      <trkpt lat="47.8195" lon="3.81398">
        <ele>198</ele>
        <time>2019-10-26T11:26:36.000Z</time>
      </trkpt>
      <trkpt lat="47.81948" lon="3.81396">
        <ele>197</ele>
        <time>2019-10-26T11:26:37.000Z</time>
      </trkpt>
      <trkpt lat="47.81945" lon="3.81393">
        <ele>197</ele>
        <time>2019-10-26T11:26:38.000Z</time>
      </trkpt>
      <trkpt lat="47.81943" lon="3.81391">
        <ele>197</ele>
        <time>2019-10-26T11:26:39.000Z</time>
      </trkpt>
      <trkpt lat="47.8194" lon="3.81389">
        <ele>196</ele>
        <time>2019-10-26T11:26:40.000Z</time>
      </trkpt>
      <trkpt lat="47.81938" lon="3.81387">
        <ele>196</ele>
        <time>2019-10-26T11:26:41.000Z</time>
      </trkpt>
      <trkpt lat="47.81935" lon="3.81385">
        <ele>195</ele>
        <time>2019-10-26T11:26:42.000Z</time>
      </trkpt>
      <trkpt lat="47.81933" lon="3.81383">
        <ele>195</ele>
        <time>2019-10-26T11:26:43.000Z</time>
      </trkpt>
      <trkpt lat="47.8193" lon="3.81381">
        <ele>195</ele>
        <time>2019-10-26T11:26:44.000Z</time>
      </trkpt>
      <trkpt lat="47.81928" lon="3.81378">
        <ele>194</ele>
        <time>2019-10-26T11:26:45.000Z</time>
      </trkpt>
      <trkpt lat="47.81925" lon="3.81376">
        <ele>194</ele>
        <time>2019-10-26T11:26:46.000Z</time>
      </trkpt>
      <trkpt lat="47.81923" lon="3.81374">
        <ele>194</ele>
        <time>2019-10-26T11:26:47.000Z</time>
      </trkpt>
      <trkpt lat="47.8192" lon="3.81372">
        <ele>193</ele>
        <time>2019-10-26T11:26:48.000Z</time>
      </trkpt>
      <trkpt lat="47.81918" lon="3.8137">
        <ele>193</ele>
        <time>2019-10-26T11:26:49.000Z</time>
      </trkpt>
      <trkpt lat="47.81916" lon="3.81367">
        <ele>192</ele>
        <time>2019-10-26T11:26:50.000Z</time>
      </trkpt>
      <trkpt lat="47.81914" lon="3.81364">
        <ele>192</ele>
        <time>2019-10-26T11:26:51.000Z</time>
      </trkpt>
      <trkpt lat="47.81911" lon="3.81362">
        <ele>192</ele>
        <time>2019-10-26T11:26:52.000Z</time>
      </trkpt>
      <trkpt lat="47.81909" lon="3.81359">
        <ele>191</ele>
        <time>2019-10-26T11:26:53.000Z</time>
      </trkpt>
      <trkpt lat="47.81907" lon="3.81356">
        <ele>191</ele>
        <time>2019-10-26T11:26:54.000Z</time>
      </trkpt>
      <trkpt lat="47.81905" lon="3.81353">
        <ele>190</ele>
        <time>2019-10-26T11:26:55.000Z</time>
      </trkpt>
      <trkpt lat="47.81903" lon="3.8135">
        <ele>190</ele>
        <time>2019-10-26T11:26:56.000Z</time>
      </trkpt>
      <trkpt lat="47.81901" lon="3.81347">
        <ele>190</ele>
        <time>2019-10-26T11:26:57.000Z</time>
      </trkpt>
      <trkpt lat="47.81899" lon="3.81345">
        <ele>189</ele>
        <time>2019-10-26T11:26:58.000Z</time>
      </trkpt>
      <trkpt lat="47.81897" lon="3.81342">
        <ele>189</ele>
        <time>2019-10-26T11:26:59.000Z</time>
      </trkpt>
      <trkpt lat="47.81895" lon="3.81339">
        <ele>189</ele>
        <time>2019-10-26T11:27:00.000Z</time>
      </trkpt>
      <trkpt lat="47.81893" lon="3.81336">
        <ele>189</ele>
        <time>2019-10-26T11:27:01.000Z</time>
      </trkpt>
      <trkpt lat="47.81891" lon="3.81333">
        <ele>189</ele>
        <time>2019-10-26T11:27:02.000Z</time>
      </trkpt>
      <trkpt lat="47.81889" lon="3.8133">
        <ele>188</ele>
        <time>2019-10-26T11:27:03.000Z</time>
      </trkpt>
      <trkpt lat="47.81887" lon="3.81327">
        <ele>188</ele>
        <time>2019-10-26T11:27:04.000Z</time>
      </trkpt>
      <trkpt lat="47.81885" lon="3.81324">
        <ele>188</ele>
        <time>2019-10-26T11:27:05.000Z</time>
      </trkpt>
      <trkpt lat="47.81883" lon="3.81321">
        <ele>188</ele>
        <time>2019-10-26T11:27:06.000Z</time>
      </trkpt>
      <trkpt lat="47.81881" lon="3.81319">
        <ele>187</ele>
        <time>2019-10-26T11:27:07.000Z</time>
      </trkpt>
      <trkpt lat="47.81879" lon="3.81316">
        <ele>187</ele>
        <time>2019-10-26T11:27:08.000Z</time>
      </trkpt>
      <trkpt lat="47.81876" lon="3.81313">
        <ele>187</ele>
        <time>2019-10-26T11:27:09.000Z</time>
      </trkpt>
      <trkpt lat="47.81874" lon="3.81311">
        <ele>186</ele>
        <time>2019-10-26T11:27:10.000Z</time>
      </trkpt>
      <trkpt lat="47.81872" lon="3.81308">
        <ele>186</ele>
        <time>2019-10-26T11:27:11.000Z</time>
      </trkpt>
      <trkpt lat="47.8187" lon="3.81306">
        <ele>186</ele>
        <time>2019-10-26T11:27:12.000Z</time>
      </trkpt>
      <trkpt lat="47.81867" lon="3.81304">
        <ele>185</ele>
        <time>2019-10-26T11:27:13.000Z</time>
      </trkpt>
      <trkpt lat="47.81865" lon="3.81301">
        <ele>185</ele>
        <time>2019-10-26T11:27:14.000Z</time>
      </trkpt>
      <trkpt lat="47.81863" lon="3.81299">
        <ele>185</ele>
        <time>2019-10-26T11:27:15.000Z</time>
      </trkpt>
      <trkpt lat="47.81861" lon="3.81297">
        <ele>184</ele>
        <time>2019-10-26T11:27:16.000Z</time>
      </trkpt>
      <trkpt lat="47.81858" lon="3.81294">
        <ele>184</ele>
        <time>2019-10-26T11:27:17.000Z</time>
      </trkpt>
      <trkpt lat="47.81856" lon="3.81292">
        <ele>183</ele>
        <time>2019-10-26T11:27:18.000Z</time>
      </trkpt>
      <trkpt lat="47.81854" lon="3.81289">
        <ele>183</ele>
        <time>2019-10-26T11:27:19.000Z</time>
      </trkpt>
      <trkpt lat="47.81851" lon="3.81287">
        <ele>183</ele>
        <time>2019-10-26T11:27:20.000Z</time>
      </trkpt>
      <trkpt lat="47.81849" lon="3.81285">
        <ele>182</ele>
        <time>2019-10-26T11:27:21.000Z</time>
      </trkpt>
      <trkpt lat="47.81847" lon="3.81283">
        <ele>182</ele>
        <time>2019-10-26T11:27:22.000Z</time>
      </trkpt>
      <trkpt lat="47.81845" lon="3.81281">
        <ele>181</ele>
        <time>2019-10-26T11:27:23.000Z</time>
      </trkpt>
      <trkpt lat="47.81843" lon="3.81279">
        <ele>181</ele>
        <time>2019-10-26T11:27:24.000Z</time>
      </trkpt>
      <trkpt lat="47.81841" lon="3.81277">
        <ele>180</ele>
        <time>2019-10-26T11:27:25.000Z</time>
      </trkpt>
      <trkpt lat="47.81839" lon="3.81274">
        <ele>180</ele>
        <time>2019-10-26T11:27:26.000Z</time>
      </trkpt>
      <trkpt lat="47.81837" lon="3.81272">
        <ele>179</ele>
        <time>2019-10-26T11:27:27.000Z</time>
      </trkpt>
      <trkpt lat="47.81834" lon="3.8127">
        <ele>179</ele>
        <time>2019-10-26T11:27:28.000Z</time>
      </trkpt>
      <trkpt lat="47.81832" lon="3.81267">
        <ele>179</ele>
        <time>2019-10-26T11:27:29.000Z</time>
      </trkpt>
      <trkpt lat="47.8183" lon="3.81265">
        <ele>178</ele>
        <time>2019-10-26T11:27:30.000Z</time>
      </trkpt>
      <trkpt lat="47.81828" lon="3.81263">
        <ele>178</ele>
        <time>2019-10-26T11:27:31.000Z</time>
      </trkpt>
      <trkpt lat="47.81826" lon="3.8126">
        <ele>177</ele>
        <time>2019-10-26T11:27:32.000Z</time>
      </trkpt>
      <trkpt lat="47.81823" lon="3.81258">
        <ele>177</ele>
        <time>2019-10-26T11:27:33.000Z</time>
      </trkpt>
      <trkpt lat="47.81821" lon="3.81256">
        <ele>177</ele>
        <time>2019-10-26T11:27:34.000Z</time>
      </trkpt>
      <trkpt lat="47.81819" lon="3.81253">
        <ele>176</ele>
        <time>2019-10-26T11:27:35.000Z</time>
      </trkpt>
      <trkpt lat="47.81817" lon="3.81251">
        <ele>176</ele>
        <time>2019-10-26T11:27:36.000Z</time>
      </trkpt>
      <trkpt lat="47.81814" lon="3.81249">
        <ele>176</ele>
        <time>2019-10-26T11:27:37.000Z</time>
      </trkpt>
      <trkpt lat="47.81812" lon="3.81247">
        <ele>175</ele>
        <time>2019-10-26T11:27:38.000Z</time>
      </trkpt>
      <trkpt lat="47.8181" lon="3.81245">
        <ele>175</ele>
        <time>2019-10-26T11:27:39.000Z</time>
      </trkpt>
      <trkpt lat="47.81808" lon="3.81242">
        <ele>175</ele>
        <time>2019-10-26T11:27:40.000Z</time>
      </trkpt>
      <trkpt lat="47.81805" lon="3.8124">
        <ele>174</ele>
        <time>2019-10-26T11:27:41.000Z</time>
      </trkpt>
      <trkpt lat="47.81803" lon="3.81238">
        <ele>174</ele>
        <time>2019-10-26T11:27:42.000Z</time>
      </trkpt>
      <trkpt lat="47.81801" lon="3.81236">
        <ele>174</ele>
        <time>2019-10-26T11:27:43.000Z</time>
      </trkpt>
      <trkpt lat="47.81799" lon="3.81233">
        <ele>174</ele>
        <time>2019-10-26T11:27:44.000Z</time>
      </trkpt>
      <trkpt lat="47.81796" lon="3.81231">
        <ele>173</ele>
        <time>2019-10-26T11:27:45.000Z</time>
      </trkpt>
      <trkpt lat="47.81794" lon="3.81228">
        <ele>173</ele>
        <time>2019-10-26T11:27:46.000Z</time>
      </trkpt>
      <trkpt lat="47.81792" lon="3.81226">
        <ele>173</ele>
        <time>2019-10-26T11:27:47.000Z</time>
      </trkpt>
      <trkpt lat="47.8179" lon="3.81224">
        <ele>172</ele>
        <time>2019-10-26T11:27:48.000Z</time>
      </trkpt>
      <trkpt lat="47.81788" lon="3.81221">
        <ele>172</ele>
        <time>2019-10-26T11:27:49.000Z</time>
      </trkpt>
      <trkpt lat="47.81785" lon="3.81219">
        <ele>171</ele>
        <time>2019-10-26T11:27:50.000Z</time>
      </trkpt>
      <trkpt lat="47.81783" lon="3.81217">
        <ele>171</ele>
        <time>2019-10-26T11:27:51.000Z</time>
      </trkpt>
      <trkpt lat="47.81781" lon="3.81215">
        <ele>170</ele>
        <time>2019-10-26T11:27:52.000Z</time>
      </trkpt>
      <trkpt lat="47.81778" lon="3.81212">
        <ele>170</ele>
        <time>2019-10-26T11:27:53.000Z</time>
      </trkpt>
      <trkpt lat="47.81776" lon="3.8121">
        <ele>170</ele>
        <time>2019-10-26T11:27:54.000Z</time>
      </trkpt>
      <trkpt lat="47.81774" lon="3.81208">
        <ele>169</ele>
        <time>2019-10-26T11:27:55.000Z</time>
      </trkpt>
      <trkpt lat="47.81771" lon="3.81206">
        <ele>169</ele>
        <time>2019-10-26T11:27:56.000Z</time>
      </trkpt>
      <trkpt lat="47.81769" lon="3.81203">
        <ele>169</ele>
        <time>2019-10-26T11:27:57.000Z</time>
      </trkpt>
      <trkpt lat="47.81767" lon="3.81201">
        <ele>168</ele>
        <time>2019-10-26T11:27:58.000Z</time>
      </trkpt>
      <trkpt lat="47.81764" lon="3.81198">
        <ele>168</ele>
        <time>2019-10-26T11:27:59.000Z</time>
      </trkpt>
      <trkpt lat="47.81762" lon="3.81196">
        <ele>167</ele>
        <time>2019-10-26T11:28:00.000Z</time>
      </trkpt>
      <trkpt lat="47.8176" lon="3.81194">
        <ele>167</ele>
        <time>2019-10-26T11:28:01.000Z</time>
      </trkpt>
      <trkpt lat="47.81758" lon="3.81192">
        <ele>167</ele>
        <time>2019-10-26T11:28:02.000Z</time>
      </trkpt>
      <trkpt lat="47.81756" lon="3.81189">
        <ele>167</ele>
        <time>2019-10-26T11:28:03.000Z</time>
      </trkpt>
      <trkpt lat="47.81753" lon="3.81187">
        <ele>166</ele>
        <time>2019-10-26T11:28:04.000Z</time>
      </trkpt>
      <trkpt lat="47.81751" lon="3.81184">
        <ele>166</ele>
        <time>2019-10-26T11:28:05.000Z</time>
      </trkpt>
      <trkpt lat="47.81749" lon="3.81182">
        <ele>166</ele>
        <time>2019-10-26T11:28:06.000Z</time>
      </trkpt>
      <trkpt lat="47.81747" lon="3.8118">
        <ele>165</ele>
        <time>2019-10-26T11:28:07.000Z</time>
      </trkpt>
      <trkpt lat="47.81745" lon="3.81177">
        <ele>165</ele>
        <time>2019-10-26T11:28:08.000Z</time>
      </trkpt>
      <trkpt lat="47.81743" lon="3.81175">
        <ele>165</ele>
        <time>2019-10-26T11:28:09.000Z</time>
      </trkpt>
      <trkpt lat="47.8174" lon="3.81173">
        <ele>164</ele>
        <time>2019-10-26T11:28:10.000Z</time>
      </trkpt>
      <trkpt lat="47.81738" lon="3.8117">
        <ele>164</ele>
        <time>2019-10-26T11:28:11.000Z</time>
      </trkpt>
      <trkpt lat="47.81736" lon="3.81168">
        <ele>164</ele>
        <time>2019-10-26T11:28:12.000Z</time>
      </trkpt>
      <trkpt lat="47.81734" lon="3.81165">
        <ele>163</ele>
        <time>2019-10-26T11:28:13.000Z</time>
      </trkpt>
      <trkpt lat="47.81732" lon="3.81163">
        <ele>163</ele>
        <time>2019-10-26T11:28:14.000Z</time>
      </trkpt>
      <trkpt lat="47.8173" lon="3.81161">
        <ele>163</ele>
        <time>2019-10-26T11:28:15.000Z</time>
      </trkpt>
      <trkpt lat="47.81728" lon="3.81158">
        <ele>163</ele>
        <time>2019-10-26T11:28:16.000Z</time>
      </trkpt>
      <trkpt lat="47.81726" lon="3.81156">
        <ele>162</ele>
        <time>2019-10-26T11:28:17.000Z</time>
      </trkpt>
      <trkpt lat="47.81724" lon="3.81154">
        <ele>162</ele>
        <time>2019-10-26T11:28:18.000Z</time>
      </trkpt>
      <trkpt lat="47.81721" lon="3.81152">
        <ele>162</ele>
        <time>2019-10-26T11:28:19.000Z</time>
      </trkpt>
      <trkpt lat="47.81719" lon="3.8115">
        <ele>161</ele>
        <time>2019-10-26T11:28:20.000Z</time>
      </trkpt>
      <trkpt lat="47.81717" lon="3.81148">
        <ele>161</ele>
        <time>2019-10-26T11:28:21.000Z</time>
      </trkpt>
      <trkpt lat="47.81714" lon="3.81146">
        <ele>160</ele>
        <time>2019-10-26T11:28:22.000Z</time>
      </trkpt>
      <trkpt lat="47.81712" lon="3.81143">
        <ele>160</ele>
        <time>2019-10-26T11:28:23.000Z</time>
      </trkpt>
      <trkpt lat="47.8171" lon="3.81141">
        <ele>160</ele>
        <time>2019-10-26T11:28:24.000Z</time>
      </trkpt>
      <trkpt lat="47.81707" lon="3.81139">
        <ele>159</ele>
        <time>2019-10-26T11:28:25.000Z</time>
      </trkpt>
      <trkpt lat="47.81705" lon="3.81137">
        <ele>159</ele>
        <time>2019-10-26T11:28:26.000Z</time>
      </trkpt>
      <trkpt lat="47.81703" lon="3.81135">
        <ele>158</ele>
        <time>2019-10-26T11:28:27.000Z</time>
      </trkpt>
      <trkpt lat="47.817" lon="3.81133">
        <ele>158</ele>
        <time>2019-10-26T11:28:28.000Z</time>
      </trkpt>
      <trkpt lat="47.81698" lon="3.81131">
        <ele>157</ele>
        <time>2019-10-26T11:28:29.000Z</time>
      </trkpt>
      <trkpt lat="47.81696" lon="3.81129">
        <ele>157</ele>
        <time>2019-10-26T11:28:30.000Z</time>
      </trkpt>
      <trkpt lat="47.81693" lon="3.81127">
        <ele>156</ele>
        <time>2019-10-26T11:28:31.000Z</time>
      </trkpt>
      <trkpt lat="47.81691" lon="3.81124">
        <ele>156</ele>
        <time>2019-10-26T11:28:32.000Z</time>
      </trkpt>
      <trkpt lat="47.81689" lon="3.81122">
        <ele>156</ele>
        <time>2019-10-26T11:28:33.000Z</time>
      </trkpt>
      <trkpt lat="47.81687" lon="3.8112">
        <ele>155</ele>
        <time>2019-10-26T11:28:34.000Z</time>
      </trkpt>
      <trkpt lat="47.81684" lon="3.81118">
        <ele>155</ele>
        <time>2019-10-26T11:28:35.000Z</time>
      </trkpt>
      <trkpt lat="47.81682" lon="3.81116">
        <ele>154</ele>
        <time>2019-10-26T11:28:36.000Z</time>
      </trkpt>
      <trkpt lat="47.8168" lon="3.81114">
        <ele>154</ele>
        <time>2019-10-26T11:28:37.000Z</time>
      </trkpt>
      <trkpt lat="47.81677" lon="3.81112">
        <ele>154</ele>
        <time>2019-10-26T11:28:38.000Z</time>
      </trkpt>
      <trkpt lat="47.81675" lon="3.81109">
        <ele>153</ele>
        <time>2019-10-26T11:28:39.000Z</time>
      </trkpt>
      <trkpt lat="47.81673" lon="3.81107">
        <ele>153</ele>
        <time>2019-10-26T11:28:40.000Z</time>
      </trkpt>
      <trkpt lat="47.81671" lon="3.81104">
        <ele>152</ele>
        <time>2019-10-26T11:28:41.000Z</time>
      </trkpt>
      <trkpt lat="47.81668" lon="3.81102">
        <ele>152</ele>
        <time>2019-10-26T11:28:42.000Z</time>
      </trkpt>
      <trkpt lat="47.81666" lon="3.81099">
        <ele>152</ele>
        <time>2019-10-26T11:28:43.000Z</time>
      </trkpt>
      <trkpt lat="47.81664" lon="3.81096">
        <ele>151</ele>
        <time>2019-10-26T11:28:44.000Z</time>
      </trkpt>
      <trkpt lat="47.81662" lon="3.81094">
        <ele>151</ele>
        <time>2019-10-26T11:28:45.000Z</time>
      </trkpt>
      <trkpt lat="47.8166" lon="3.81091">
        <ele>151</ele>
        <time>2019-10-26T11:28:46.000Z</time>
      </trkpt>
      <trkpt lat="47.81658" lon="3.81089">
        <ele>150</ele>
        <time>2019-10-26T11:28:47.000Z</time>
      </trkpt>
      <trkpt lat="47.81656" lon="3.81086">
        <ele>150</ele>
        <time>2019-10-26T11:28:48.000Z</time>
      </trkpt>
      <trkpt lat="47.81654" lon="3.81083">
        <ele>150</ele>
        <time>2019-10-26T11:28:49.000Z</time>
      </trkpt>
      <trkpt lat="47.81652" lon="3.8108">
        <ele>149</ele>
        <time>2019-10-26T11:28:50.000Z</time>
      </trkpt>
      <trkpt lat="47.8165" lon="3.81078">
        <ele>149</ele>
        <time>2019-10-26T11:28:51.000Z</time>
      </trkpt>
      <trkpt lat="47.81648" lon="3.81075">
        <ele>149</ele>
        <time>2019-10-26T11:28:52.000Z</time>
      </trkpt>
      <trkpt lat="47.81646" lon="3.81072">
        <ele>149</ele>
        <time>2019-10-26T11:28:53.000Z</time>
      </trkpt>
      <trkpt lat="47.81644" lon="3.81069">
        <ele>148</ele>
        <time>2019-10-26T11:28:54.000Z</time>
      </trkpt>
      <trkpt lat="47.81643" lon="3.81066">
        <ele>148</ele>
        <time>2019-10-26T11:28:55.000Z</time>
      </trkpt>
      <trkpt lat="47.81641" lon="3.81063">
        <ele>148</ele>
        <time>2019-10-26T11:28:56.000Z</time>
      </trkpt>
      <trkpt lat="47.8164" lon="3.81059">
        <ele>147</ele>
        <time>2019-10-26T11:28:57.000Z</time>
      </trkpt>
      <trkpt lat="47.81639" lon="3.81055">
        <ele>147</ele>
        <time>2019-10-26T11:28:58.000Z</time>
      </trkpt>
      <trkpt lat="47.81639" lon="3.81051">
        <ele>147</ele>
        <time>2019-10-26T11:28:59.000Z</time>
      </trkpt>
      <trkpt lat="47.8164" lon="3.81048">
        <ele>146</ele>
        <time>2019-10-26T11:29:00.000Z</time>
      </trkpt>
      <trkpt lat="47.8164" lon="3.81044">
        <ele>146</ele>
        <time>2019-10-26T11:29:01.000Z</time>
      </trkpt>
      <trkpt lat="47.81641" lon="3.81041">
        <ele>146</ele>
        <time>2019-10-26T11:29:02.000Z</time>
      </trkpt>
      <trkpt lat="47.81642" lon="3.81039">
        <ele>146</ele>
        <time>2019-10-26T11:29:03.000Z</time>
      </trkpt>
      <trkpt lat="47.81643" lon="3.81036">
        <ele>146</ele>
        <time>2019-10-26T11:29:04.000Z</time>
      </trkpt>
      <trkpt lat="47.81644" lon="3.81034">
        <ele>146</ele>
        <time>2019-10-26T11:29:05.000Z</time>
      </trkpt>
      <trkpt lat="47.81645" lon="3.81031">
        <ele>146</ele>
        <time>2019-10-26T11:29:06.000Z</time>
      </trkpt>
      <trkpt lat="47.81646" lon="3.81028">
        <ele>146</ele>
        <time>2019-10-26T11:29:07.000Z</time>
      </trkpt>
      <trkpt lat="47.81647" lon="3.81026">
        <ele>146</ele>
        <time>2019-10-26T11:29:08.000Z</time>
      </trkpt>
      <trkpt lat="47.81648" lon="3.81023">
        <ele>146</ele>
        <time>2019-10-26T11:29:09.000Z</time>
      </trkpt>
      <trkpt lat="47.8165" lon="3.81021">
        <ele>146</ele>
        <time>2019-10-26T11:29:10.000Z</time>
      </trkpt>
      <trkpt lat="47.81651" lon="3.81018">
        <ele>146</ele>
        <time>2019-10-26T11:29:11.000Z</time>
      </trkpt>
      <trkpt lat="47.81652" lon="3.81016">
        <ele>146</ele>
        <time>2019-10-26T11:29:12.000Z</time>
      </trkpt>
      <trkpt lat="47.81654" lon="3.81013">
        <ele>146</ele>
        <time>2019-10-26T11:29:13.000Z</time>
      </trkpt>
      <trkpt lat="47.81655" lon="3.8101">
        <ele>146</ele>
        <time>2019-10-26T11:29:14.000Z</time>
      </trkpt>
      <trkpt lat="47.81657" lon="3.81008">
        <ele>146</ele>
        <time>2019-10-26T11:29:15.000Z</time>
      </trkpt>
      <trkpt lat="47.81658" lon="3.81005">
        <ele>146</ele>
        <time>2019-10-26T11:29:16.000Z</time>
      </trkpt>
      <trkpt lat="47.81659" lon="3.81002">
        <ele>146</ele>
        <time>2019-10-26T11:29:17.000Z</time>
      </trkpt>
      <trkpt lat="47.81661" lon="3.80999">
        <ele>146</ele>
        <time>2019-10-26T11:29:18.000Z</time>
      </trkpt>
      <trkpt lat="47.81662" lon="3.80996">
        <ele>146</ele>
        <time>2019-10-26T11:29:19.000Z</time>
      </trkpt>
      <trkpt lat="47.81663" lon="3.80993">
        <ele>146</ele>
        <time>2019-10-26T11:29:20.000Z</time>
      </trkpt>
      <trkpt lat="47.81665" lon="3.8099">
        <ele>146</ele>
        <time>2019-10-26T11:29:21.000Z</time>
      </trkpt>
      <trkpt lat="47.81666" lon="3.80987">
        <ele>146</ele>
        <time>2019-10-26T11:29:22.000Z</time>
      </trkpt>
      <trkpt lat="47.81667" lon="3.80984">
        <ele>147</ele>
        <time>2019-10-26T11:29:23.000Z</time>
      </trkpt>
      <trkpt lat="47.81669" lon="3.80981">
        <ele>147</ele>
        <time>2019-10-26T11:29:24.000Z</time>
      </trkpt>
      <trkpt lat="47.8167" lon="3.80978">
        <ele>147</ele>
        <time>2019-10-26T11:29:25.000Z</time>
      </trkpt>
      <trkpt lat="47.81671" lon="3.80975">
        <ele>147</ele>
        <time>2019-10-26T11:29:26.000Z</time>
      </trkpt>
      <trkpt lat="47.81673" lon="3.80972">
        <ele>147</ele>
        <time>2019-10-26T11:29:27.000Z</time>
      </trkpt>
      <trkpt lat="47.81674" lon="3.80969">
        <ele>147</ele>
        <time>2019-10-26T11:29:28.000Z</time>
      </trkpt>
      <trkpt lat="47.81676" lon="3.80966">
        <ele>147</ele>
        <time>2019-10-26T11:29:29.000Z</time>
      </trkpt>
      <trkpt lat="47.81677" lon="3.80963">
        <ele>147</ele>
        <time>2019-10-26T11:29:30.000Z</time>
      </trkpt>
      <trkpt lat="47.81678" lon="3.8096">
        <ele>147</ele>
        <time>2019-10-26T11:29:31.000Z</time>
      </trkpt>
      <trkpt lat="47.8168" lon="3.80957">
        <ele>147</ele>
        <time>2019-10-26T11:29:32.000Z</time>
      </trkpt>
      <trkpt lat="47.81681" lon="3.80954">
        <ele>147</ele>
        <time>2019-10-26T11:29:33.000Z</time>
      </trkpt>
      <trkpt lat="47.81683" lon="3.80952">
        <ele>147</ele>
        <time>2019-10-26T11:29:34.000Z</time>
      </trkpt>
      <trkpt lat="47.81684" lon="3.80949">
        <ele>147</ele>
        <time>2019-10-26T11:29:35.000Z</time>
      </trkpt>
      <trkpt lat="47.81685" lon="3.80946">
        <ele>147</ele>
        <time>2019-10-26T11:29:36.000Z</time>
      </trkpt>
      <trkpt lat="47.81687" lon="3.80944">
        <ele>147</ele>
        <time>2019-10-26T11:29:37.000Z</time>
      </trkpt>
      <trkpt lat="47.81688" lon="3.80941">
        <ele>147</ele>
        <time>2019-10-26T11:29:38.000Z</time>
      </trkpt>
      <trkpt lat="47.8169" lon="3.80939">
        <ele>147</ele>
        <time>2019-10-26T11:29:39.000Z</time>
      </trkpt>
      <trkpt lat="47.81692" lon="3.80936">
        <ele>147</ele>
        <time>2019-10-26T11:29:40.000Z</time>
      </trkpt>
      <trkpt lat="47.81693" lon="3.80933">
        <ele>147</ele>
        <time>2019-10-26T11:29:41.000Z</time>
      </trkpt>
      <trkpt lat="47.81695" lon="3.80931">
        <ele>147</ele>
        <time>2019-10-26T11:29:42.000Z</time>
      </trkpt>
      <trkpt lat="47.81697" lon="3.80929">
        <ele>147</ele>
        <time>2019-10-26T11:29:43.000Z</time>
      </trkpt>
      <trkpt lat="47.81699" lon="3.80926">
        <ele>147</ele>
        <time>2019-10-26T11:29:44.000Z</time>
      </trkpt>
      <trkpt lat="47.81701" lon="3.80924">
        <ele>146</ele>
        <time>2019-10-26T11:29:45.000Z</time>
      </trkpt>
      <trkpt lat="47.81702" lon="3.80921">
        <ele>146</ele>
        <time>2019-10-26T11:29:46.000Z</time>
      </trkpt>
      <trkpt lat="47.81704" lon="3.80919">
        <ele>146</ele>
        <time>2019-10-26T11:29:47.000Z</time>
      </trkpt>
      <trkpt lat="47.81706" lon="3.80917">
        <ele>146</ele>
        <time>2019-10-26T11:29:48.000Z</time>
      </trkpt>
      <trkpt lat="47.81708" lon="3.80914">
        <ele>146</ele>
        <time>2019-10-26T11:29:49.000Z</time>
      </trkpt>
      <trkpt lat="47.81709" lon="3.80912">
        <ele>146</ele>
        <time>2019-10-26T11:29:50.000Z</time>
      </trkpt>
      <trkpt lat="47.81711" lon="3.8091">
        <ele>146</ele>
        <time>2019-10-26T11:29:51.000Z</time>
      </trkpt>
      <trkpt lat="47.81713" lon="3.80908">
        <ele>146</ele>
        <time>2019-10-26T11:29:52.000Z</time>
      </trkpt>
      <trkpt lat="47.81714" lon="3.80905">
        <ele>146</ele>
        <time>2019-10-26T11:29:53.000Z</time>
      </trkpt>
      <trkpt lat="47.81715" lon="3.80902">
        <ele>146</ele>
        <time>2019-10-26T11:29:54.000Z</time>
      </trkpt>
      <trkpt lat="47.81715" lon="3.80899">
        <ele>145</ele>
        <time>2019-10-26T11:29:55.000Z</time>
      </trkpt>
      <trkpt lat="47.81715" lon="3.80896">
        <ele>145</ele>
        <time>2019-10-26T11:29:56.000Z</time>
      </trkpt>
      <trkpt lat="47.81714" lon="3.80892">
        <ele>145</ele>
        <time>2019-10-26T11:29:57.000Z</time>
      </trkpt>
      <trkpt lat="47.81712" lon="3.8089">
        <ele>145</ele>
        <time>2019-10-26T11:29:58.000Z</time>
      </trkpt>
      <trkpt lat="47.81711" lon="3.80887">
        <ele>145</ele>
        <time>2019-10-26T11:29:59.000Z</time>
      </trkpt>
      <trkpt lat="47.8171" lon="3.80884">
        <ele>145</ele>
        <time>2019-10-26T11:30:00.000Z</time>
      </trkpt>
      <trkpt lat="47.81708" lon="3.80882">
        <ele>145</ele>
        <time>2019-10-26T11:30:01.000Z</time>
      </trkpt>
      <trkpt lat="47.81707" lon="3.80879">
        <ele>145</ele>
        <time>2019-10-26T11:30:02.000Z</time>
      </trkpt>
      <trkpt lat="47.81705" lon="3.80876">
        <ele>144</ele>
        <time>2019-10-26T11:30:03.000Z</time>
      </trkpt>
      <trkpt lat="47.81704" lon="3.80873">
        <ele>144</ele>
        <time>2019-10-26T11:30:04.000Z</time>
      </trkpt>
      <trkpt lat="47.81702" lon="3.80871">
        <ele>144</ele>
        <time>2019-10-26T11:30:05.000Z</time>
      </trkpt>
      <trkpt lat="47.81701" lon="3.80868">
        <ele>144</ele>
        <time>2019-10-26T11:30:06.000Z</time>
      </trkpt>
      <trkpt lat="47.817" lon="3.80865">
        <ele>144</ele>
        <time>2019-10-26T11:30:07.000Z</time>
      </trkpt>
      <trkpt lat="47.81699" lon="3.80862">
        <ele>144</ele>
        <time>2019-10-26T11:30:08.000Z</time>
      </trkpt>
      <trkpt lat="47.81698" lon="3.80859">
        <ele>144</ele>
        <time>2019-10-26T11:30:09.000Z</time>
      </trkpt>
      <trkpt lat="47.81697" lon="3.80857">
        <ele>143</ele>
        <time>2019-10-26T11:30:10.000Z</time>
      </trkpt>
      <trkpt lat="47.81696" lon="3.80854">
        <ele>143</ele>
        <time>2019-10-26T11:30:11.000Z</time>
      </trkpt>
      <trkpt lat="47.81695" lon="3.8085">
        <ele>143</ele>
        <time>2019-10-26T11:30:12.000Z</time>
      </trkpt>
      <trkpt lat="47.81694" lon="3.80847">
        <ele>143</ele>
        <time>2019-10-26T11:30:13.000Z</time>
      </trkpt>
      <trkpt lat="47.81693" lon="3.80843">
        <ele>142</ele>
        <time>2019-10-26T11:30:14.000Z</time>
      </trkpt>
      <trkpt lat="47.81691" lon="3.8084">
        <ele>142</ele>
        <time>2019-10-26T11:30:15.000Z</time>
      </trkpt>
      <trkpt lat="47.8169" lon="3.80837">
        <ele>142</ele>
        <time>2019-10-26T11:30:16.000Z</time>
      </trkpt>
      <trkpt lat="47.81688" lon="3.80834">
        <ele>142</ele>
        <time>2019-10-26T11:30:17.000Z</time>
      </trkpt>
      <trkpt lat="47.81687" lon="3.80832">
        <ele>142</ele>
        <time>2019-10-26T11:30:18.000Z</time>
      </trkpt>
      <trkpt lat="47.81685" lon="3.80829">
        <ele>142</ele>
        <time>2019-10-26T11:30:19.000Z</time>
      </trkpt>
      <trkpt lat="47.81683" lon="3.80827">
        <ele>142</ele>
        <time>2019-10-26T11:30:20.000Z</time>
      </trkpt>
      <trkpt lat="47.81681" lon="3.80824">
        <ele>141</ele>
        <time>2019-10-26T11:30:21.000Z</time>
      </trkpt>
      <trkpt lat="47.81679" lon="3.8082">
        <ele>141</ele>
        <time>2019-10-26T11:30:22.000Z</time>
      </trkpt>
      <trkpt lat="47.81678" lon="3.80817">
        <ele>141</ele>
        <time>2019-10-26T11:30:23.000Z</time>
      </trkpt>
      <trkpt lat="47.81677" lon="3.80813">
        <ele>141</ele>
        <time>2019-10-26T11:30:24.000Z</time>
      </trkpt>
      <trkpt lat="47.81676" lon="3.8081">
        <ele>141</ele>
        <time>2019-10-26T11:30:25.000Z</time>
      </trkpt>
      <trkpt lat="47.81674" lon="3.80807">
        <ele>140</ele>
        <time>2019-10-26T11:30:26.000Z</time>
      </trkpt>
      <trkpt lat="47.81673" lon="3.80804">
        <ele>140</ele>
        <time>2019-10-26T11:30:27.000Z</time>
      </trkpt>
      <trkpt lat="47.81671" lon="3.80801">
        <ele>140</ele>
        <time>2019-10-26T11:30:28.000Z</time>
      </trkpt>
      <trkpt lat="47.8167" lon="3.80799">
        <ele>139</ele>
        <time>2019-10-26T11:30:29.000Z</time>
      </trkpt>
      <trkpt lat="47.81668" lon="3.80796">
        <ele>139</ele>
        <time>2019-10-26T11:30:30.000Z</time>
      </trkpt>
      <trkpt lat="47.81666" lon="3.80794">
        <ele>139</ele>
        <time>2019-10-26T11:30:31.000Z</time>
      </trkpt>
      <trkpt lat="47.81666" lon="3.80791">
        <ele>138</ele>
        <time>2019-10-26T11:30:32.000Z</time>
      </trkpt>
      <trkpt lat="47.81666" lon="3.80787">
        <ele>138</ele>
        <time>2019-10-26T11:30:33.000Z</time>
      </trkpt>
      <trkpt lat="47.81666" lon="3.80784">
        <ele>138</ele>
        <time>2019-10-26T11:30:34.000Z</time>
      </trkpt>
      <trkpt lat="47.81667" lon="3.8078">
        <ele>137</ele>
        <time>2019-10-26T11:30:35.000Z</time>
      </trkpt>
      <trkpt lat="47.81669" lon="3.80777">
        <ele>137</ele>
        <time>2019-10-26T11:30:36.000Z</time>
      </trkpt>
      <trkpt lat="47.81671" lon="3.80774">
        <ele>137</ele>
        <time>2019-10-26T11:30:37.000Z</time>
      </trkpt>
      <trkpt lat="47.81672" lon="3.80771">
        <ele>137</ele>
        <time>2019-10-26T11:30:38.000Z</time>
      </trkpt>
      <trkpt lat="47.81674" lon="3.80768">
        <ele>137</ele>
        <time>2019-10-26T11:30:39.000Z</time>
      </trkpt>
      <trkpt lat="47.81676" lon="3.80765">
        <ele>136</ele>
        <time>2019-10-26T11:30:40.000Z</time>
      </trkpt>
      <trkpt lat="47.81678" lon="3.80763">
        <ele>136</ele>
        <time>2019-10-26T11:30:41.000Z</time>
      </trkpt>
      <trkpt lat="47.8168" lon="3.8076">
        <ele>136</ele>
        <time>2019-10-26T11:30:42.000Z</time>
      </trkpt>
      <trkpt lat="47.81682" lon="3.80757">
        <ele>136</ele>
        <time>2019-10-26T11:30:43.000Z</time>
      </trkpt>
      <trkpt lat="47.81684" lon="3.80754">
        <ele>135</ele>
        <time>2019-10-26T11:30:44.000Z</time>
      </trkpt>
      <trkpt lat="47.81686" lon="3.80752">
        <ele>135</ele>
        <time>2019-10-26T11:30:45.000Z</time>
      </trkpt>
      <trkpt lat="47.81687" lon="3.80749">
        <ele>135</ele>
        <time>2019-10-26T11:30:46.000Z</time>
      </trkpt>
      <trkpt lat="47.81689" lon="3.80746">
        <ele>135</ele>
        <time>2019-10-26T11:30:47.000Z</time>
      </trkpt>
      <trkpt lat="47.81691" lon="3.80744">
        <ele>135</ele>
        <time>2019-10-26T11:30:48.000Z</time>
      </trkpt>
      <trkpt lat="47.81693" lon="3.80741">
        <ele>135</ele>
        <time>2019-10-26T11:30:49.000Z</time>
      </trkpt>
      <trkpt lat="47.81695" lon="3.80739">
        <ele>134</ele>
        <time>2019-10-26T11:30:50.000Z</time>
      </trkpt>
      <trkpt lat="47.81698" lon="3.80736">
        <ele>134</ele>
        <time>2019-10-26T11:30:51.000Z</time>
      </trkpt>
      <trkpt lat="47.817" lon="3.80733">
        <ele>134</ele>
        <time>2019-10-26T11:30:52.000Z</time>
      </trkpt>
      <trkpt lat="47.81702" lon="3.80731">
        <ele>134</ele>
        <time>2019-10-26T11:30:53.000Z</time>
      </trkpt>
      <trkpt lat="47.81704" lon="3.80728">
        <ele>134</ele>
        <time>2019-10-26T11:30:54.000Z</time>
      </trkpt>
      <trkpt lat="47.81706" lon="3.80726">
        <ele>134</ele>
        <time>2019-10-26T11:30:55.000Z</time>
      </trkpt>
      <trkpt lat="47.81708" lon="3.80724">
        <ele>134</ele>
        <time>2019-10-26T11:30:56.000Z</time>
      </trkpt>
      <trkpt lat="47.8171" lon="3.80721">
        <ele>134</ele>
        <time>2019-10-26T11:30:57.000Z</time>
      </trkpt>
      <trkpt lat="47.81712" lon="3.80719">
        <ele>134</ele>
        <time>2019-10-26T11:30:58.000Z</time>
      </trkpt>
      <trkpt lat="47.81713" lon="3.80716">
        <ele>134</ele>
        <time>2019-10-26T11:30:59.000Z</time>
      </trkpt>
      <trkpt lat="47.81715" lon="3.80714">
        <ele>134</ele>
        <time>2019-10-26T11:31:00.000Z</time>
      </trkpt>
      <trkpt lat="47.81717" lon="3.80712">
        <ele>134</ele>
        <time>2019-10-26T11:31:01.000Z</time>
      </trkpt>
      <trkpt lat="47.81719" lon="3.8071">
        <ele>134</ele>
        <time>2019-10-26T11:31:02.000Z</time>
      </trkpt>
      <trkpt lat="47.81721" lon="3.80708">
        <ele>134</ele>
        <time>2019-10-26T11:31:03.000Z</time>
      </trkpt>
      <trkpt lat="47.81723" lon="3.80706">
        <ele>134</ele>
        <time>2019-10-26T11:31:04.000Z</time>
      </trkpt>
      <trkpt lat="47.81725" lon="3.80703">
        <ele>134</ele>
        <time>2019-10-26T11:31:05.000Z</time>
      </trkpt>
      <trkpt lat="47.81727" lon="3.80701">
        <ele>134</ele>
        <time>2019-10-26T11:31:06.000Z</time>
      </trkpt>
      <trkpt lat="47.81729" lon="3.80699">
        <ele>134</ele>
        <time>2019-10-26T11:31:07.000Z</time>
      </trkpt>
      <trkpt lat="47.81731" lon="3.80696">
        <ele>133</ele>
        <time>2019-10-26T11:31:08.000Z</time>
      </trkpt>
      <trkpt lat="47.81732" lon="3.80694">
        <ele>133</ele>
        <time>2019-10-26T11:31:09.000Z</time>
      </trkpt>
      <trkpt lat="47.81734" lon="3.80691">
        <ele>133</ele>
        <time>2019-10-26T11:31:10.000Z</time>
      </trkpt>
      <trkpt lat="47.81736" lon="3.80689">
        <ele>133</ele>
        <time>2019-10-26T11:31:11.000Z</time>
      </trkpt>
      <trkpt lat="47.81738" lon="3.80686">
        <ele>133</ele>
        <time>2019-10-26T11:31:12.000Z</time>
      </trkpt>
      <trkpt lat="47.8174" lon="3.80684">
        <ele>133</ele>
        <time>2019-10-26T11:31:13.000Z</time>
      </trkpt>
      <trkpt lat="47.81742" lon="3.80682">
        <ele>133</ele>
        <time>2019-10-26T11:31:14.000Z</time>
      </trkpt>
      <trkpt lat="47.81744" lon="3.8068">
        <ele>133</ele>
        <time>2019-10-26T11:31:15.000Z</time>
      </trkpt>
      <trkpt lat="47.81746" lon="3.80678">
        <ele>133</ele>
        <time>2019-10-26T11:31:16.000Z</time>
      </trkpt>
      <trkpt lat="47.81748" lon="3.80675">
        <ele>134</ele>
        <time>2019-10-26T11:31:17.000Z</time>
      </trkpt>
      <trkpt lat="47.8175" lon="3.80673">
        <ele>134</ele>
        <time>2019-10-26T11:31:18.000Z</time>
      </trkpt>
      <trkpt lat="47.81752" lon="3.80671">
        <ele>134</ele>
        <time>2019-10-26T11:31:19.000Z</time>
      </trkpt>
      <trkpt lat="47.81754" lon="3.80669">
        <ele>134</ele>
        <time>2019-10-26T11:31:20.000Z</time>
      </trkpt>
      <trkpt lat="47.81756" lon="3.80666">
        <ele>134</ele>
        <time>2019-10-26T11:31:21.000Z</time>
      </trkpt>
      <trkpt lat="47.81758" lon="3.80664">
        <ele>134</ele>
        <time>2019-10-26T11:31:22.000Z</time>
      </trkpt>
      <trkpt lat="47.8176" lon="3.80662">
        <ele>134</ele>
        <time>2019-10-26T11:31:23.000Z</time>
      </trkpt>
      <trkpt lat="47.81762" lon="3.8066">
        <ele>134</ele>
        <time>2019-10-26T11:31:24.000Z</time>
      </trkpt>
      <trkpt lat="47.81764" lon="3.80658">
        <ele>134</ele>
        <time>2019-10-26T11:31:25.000Z</time>
      </trkpt>
      <trkpt lat="47.81766" lon="3.80656">
        <ele>134</ele>
        <time>2019-10-26T11:31:26.000Z</time>
      </trkpt>
      <trkpt lat="47.81768" lon="3.80653">
        <ele>134</ele>
        <time>2019-10-26T11:31:27.000Z</time>
      </trkpt>
      <trkpt lat="47.8177" lon="3.80651">
        <ele>134</ele>
        <time>2019-10-26T11:31:28.000Z</time>
      </trkpt>
      <trkpt lat="47.81772" lon="3.80649">
        <ele>134</ele>
        <time>2019-10-26T11:31:29.000Z</time>
      </trkpt>
      <trkpt lat="47.81774" lon="3.80646">
        <ele>134</ele>
        <time>2019-10-26T11:31:30.000Z</time>
      </trkpt>
      <trkpt lat="47.81776" lon="3.80644">
        <ele>134</ele>
        <time>2019-10-26T11:31:31.000Z</time>
      </trkpt>
      <trkpt lat="47.81778" lon="3.80642">
        <ele>134</ele>
        <time>2019-10-26T11:31:32.000Z</time>
      </trkpt>
      <trkpt lat="47.8178" lon="3.8064">
        <ele>134</ele>
        <time>2019-10-26T11:31:33.000Z</time>
      </trkpt>
      <trkpt lat="47.81782" lon="3.80638">
        <ele>134</ele>
        <time>2019-10-26T11:31:34.000Z</time>
      </trkpt>
      <trkpt lat="47.81784" lon="3.80636">
        <ele>134</ele>
        <time>2019-10-26T11:31:35.000Z</time>
      </trkpt>
      <trkpt lat="47.81786" lon="3.80634">
        <ele>134</ele>
        <time>2019-10-26T11:31:36.000Z</time>
      </trkpt>
      <trkpt lat="47.81788" lon="3.80631">
        <ele>134</ele>
        <time>2019-10-26T11:31:37.000Z</time>
      </trkpt>
      <trkpt lat="47.8179" lon="3.80629">
        <ele>134</ele>
        <time>2019-10-26T11:31:38.000Z</time>
      </trkpt>
      <trkpt lat="47.81792" lon="3.80627">
        <ele>134</ele>
        <time>2019-10-26T11:31:39.000Z</time>
      </trkpt>
      <trkpt lat="47.81794" lon="3.80625">
        <ele>134</ele>
        <time>2019-10-26T11:31:40.000Z</time>
      </trkpt>
      <trkpt lat="47.81796" lon="3.80623">
        <ele>134</ele>
        <time>2019-10-26T11:31:41.000Z</time>
      </trkpt>
      <trkpt lat="47.81798" lon="3.8062">
        <ele>134</ele>
        <time>2019-10-26T11:31:42.000Z</time>
      </trkpt>
      <trkpt lat="47.818" lon="3.80618">
        <ele>134</ele>
        <time>2019-10-26T11:31:43.000Z</time>
      </trkpt>
      <trkpt lat="47.81802" lon="3.80616">
        <ele>134</ele>
        <time>2019-10-26T11:31:44.000Z</time>
      </trkpt>
      <trkpt lat="47.81804" lon="3.80614">
        <ele>134</ele>
        <time>2019-10-26T11:31:45.000Z</time>
      </trkpt>
      <trkpt lat="47.81806" lon="3.80612">
        <ele>134</ele>
        <time>2019-10-26T11:31:46.000Z</time>
      </trkpt>
      <trkpt lat="47.81808" lon="3.80609">
        <ele>134</ele>
        <time>2019-10-26T11:31:47.000Z</time>
      </trkpt>
      <trkpt lat="47.81809" lon="3.80607">
        <ele>134</ele>
        <time>2019-10-26T11:31:48.000Z</time>
      </trkpt>
      <trkpt lat="47.81811" lon="3.80604">
        <ele>134</ele>
        <time>2019-10-26T11:31:49.000Z</time>
      </trkpt>
      <trkpt lat="47.81813" lon="3.80602">
        <ele>134</ele>
        <time>2019-10-26T11:31:50.000Z</time>
      </trkpt>
      <trkpt lat="47.81815" lon="3.806">
        <ele>134</ele>
        <time>2019-10-26T11:31:51.000Z</time>
      </trkpt>
      <trkpt lat="47.81817" lon="3.80598">
        <ele>134</ele>
        <time>2019-10-26T11:31:52.000Z</time>
      </trkpt>
      <trkpt lat="47.81819" lon="3.80596">
        <ele>134</ele>
        <time>2019-10-26T11:31:53.000Z</time>
      </trkpt>
      <trkpt lat="47.81821" lon="3.80594">
        <ele>134</ele>
        <time>2019-10-26T11:31:54.000Z</time>
      </trkpt>
      <trkpt lat="47.81823" lon="3.80592">
        <ele>134</ele>
        <time>2019-10-26T11:31:55.000Z</time>
      </trkpt>
      <trkpt lat="47.81825" lon="3.80589">
        <ele>134</ele>
        <time>2019-10-26T11:31:56.000Z</time>
      </trkpt>
      <trkpt lat="47.81827" lon="3.80587">
        <ele>134</ele>
        <time>2019-10-26T11:31:57.000Z</time>
      </trkpt>
      <trkpt lat="47.81829" lon="3.80585">
        <ele>134</ele>
        <time>2019-10-26T11:31:58.000Z</time>
      </trkpt>
      <trkpt lat="47.81831" lon="3.80583">
        <ele>134</ele>
        <time>2019-10-26T11:31:59.000Z</time>
      </trkpt>
      <trkpt lat="47.81833" lon="3.8058">
        <ele>134</ele>
        <time>2019-10-26T11:32:00.000Z</time>
      </trkpt>
      <trkpt lat="47.81835" lon="3.80578">
        <ele>134</ele>
        <time>2019-10-26T11:32:01.000Z</time>
      </trkpt>
      <trkpt lat="47.81837" lon="3.80575">
        <ele>135</ele>
        <time>2019-10-26T11:32:02.000Z</time>
      </trkpt>
      <trkpt lat="47.81839" lon="3.80573">
        <ele>135</ele>
        <time>2019-10-26T11:32:03.000Z</time>
      </trkpt>
      <trkpt lat="47.81841" lon="3.80571">
        <ele>135</ele>
        <time>2019-10-26T11:32:04.000Z</time>
      </trkpt>
      <trkpt lat="47.81843" lon="3.80569">
        <ele>135</ele>
        <time>2019-10-26T11:32:05.000Z</time>
      </trkpt>
      <trkpt lat="47.81845" lon="3.80566">
        <ele>135</ele>
        <time>2019-10-26T11:32:06.000Z</time>
      </trkpt>
      <trkpt lat="47.81847" lon="3.80564">
        <ele>135</ele>
        <time>2019-10-26T11:32:07.000Z</time>
      </trkpt>
      <trkpt lat="47.81849" lon="3.80561">
        <ele>135</ele>
        <time>2019-10-26T11:32:08.000Z</time>
      </trkpt>
      <trkpt lat="47.81851" lon="3.80559">
        <ele>135</ele>
        <time>2019-10-26T11:32:09.000Z</time>
      </trkpt>
      <trkpt lat="47.81853" lon="3.80557">
        <ele>135</ele>
        <time>2019-10-26T11:32:10.000Z</time>
      </trkpt>
      <trkpt lat="47.81855" lon="3.80554">
        <ele>135</ele>
        <time>2019-10-26T11:32:11.000Z</time>
      </trkpt>
      <trkpt lat="47.81857" lon="3.80552">
        <ele>134</ele>
        <time>2019-10-26T11:32:12.000Z</time>
      </trkpt>
      <trkpt lat="47.81859" lon="3.8055">
        <ele>134</ele>
        <time>2019-10-26T11:32:13.000Z</time>
      </trkpt>
      <trkpt lat="47.81861" lon="3.80547">
        <ele>134</ele>
        <time>2019-10-26T11:32:14.000Z</time>
      </trkpt>
      <trkpt lat="47.81864" lon="3.80545">
        <ele>134</ele>
        <time>2019-10-26T11:32:15.000Z</time>
      </trkpt>
      <trkpt lat="47.81866" lon="3.80543">
        <ele>134</ele>
        <time>2019-10-26T11:32:16.000Z</time>
      </trkpt>
      <trkpt lat="47.81868" lon="3.8054">
        <ele>134</ele>
        <time>2019-10-26T11:32:17.000Z</time>
      </trkpt>
      <trkpt lat="47.8187" lon="3.80538">
        <ele>134</ele>
        <time>2019-10-26T11:32:18.000Z</time>
      </trkpt>
      <trkpt lat="47.81872" lon="3.80535">
        <ele>134</ele>
        <time>2019-10-26T11:32:19.000Z</time>
      </trkpt>
      <trkpt lat="47.81874" lon="3.80533">
        <ele>134</ele>
        <time>2019-10-26T11:32:20.000Z</time>
      </trkpt>
      <trkpt lat="47.81876" lon="3.80531">
        <ele>134</ele>
        <time>2019-10-26T11:32:21.000Z</time>
      </trkpt>
      <trkpt lat="47.81878" lon="3.80529">
        <ele>134</ele>
        <time>2019-10-26T11:32:22.000Z</time>
      </trkpt>
      <trkpt lat="47.8188" lon="3.80527">
        <ele>134</ele>
        <time>2019-10-26T11:32:23.000Z</time>
      </trkpt>
      <trkpt lat="47.81881" lon="3.80524">
        <ele>134</ele>
        <time>2019-10-26T11:32:24.000Z</time>
      </trkpt>
      <trkpt lat="47.81884" lon="3.80522">
        <ele>134</ele>
        <time>2019-10-26T11:32:25.000Z</time>
      </trkpt>
      <trkpt lat="47.81886" lon="3.8052">
        <ele>134</ele>
        <time>2019-10-26T11:32:26.000Z</time>
      </trkpt>
      <trkpt lat="47.81888" lon="3.80518">
        <ele>134</ele>
        <time>2019-10-26T11:32:27.000Z</time>
      </trkpt>
      <trkpt lat="47.81889" lon="3.80515">
        <ele>134</ele>
        <time>2019-10-26T11:32:28.000Z</time>
      </trkpt>
      <trkpt lat="47.81891" lon="3.80513">
        <ele>134</ele>
        <time>2019-10-26T11:32:29.000Z</time>
      </trkpt>
      <trkpt lat="47.81893" lon="3.80511">
        <ele>134</ele>
        <time>2019-10-26T11:32:30.000Z</time>
      </trkpt>
      <trkpt lat="47.81895" lon="3.80509">
        <ele>134</ele>
        <time>2019-10-26T11:32:31.000Z</time>
      </trkpt>
      <trkpt lat="47.81897" lon="3.80507">
        <ele>134</ele>
        <time>2019-10-26T11:32:32.000Z</time>
      </trkpt>
      <trkpt lat="47.81899" lon="3.80504">
        <ele>134</ele>
        <time>2019-10-26T11:32:33.000Z</time>
      </trkpt>
      <trkpt lat="47.81901" lon="3.80502">
        <ele>134</ele>
        <time>2019-10-26T11:32:34.000Z</time>
      </trkpt>
      <trkpt lat="47.81903" lon="3.805">
        <ele>134</ele>
        <time>2019-10-26T11:32:35.000Z</time>
      </trkpt>
      <trkpt lat="47.81905" lon="3.80498">
        <ele>134</ele>
        <time>2019-10-26T11:32:36.000Z</time>
      </trkpt>
      <trkpt lat="47.81907" lon="3.80496">
        <ele>134</ele>
        <time>2019-10-26T11:32:37.000Z</time>
      </trkpt>
      <trkpt lat="47.81909" lon="3.80494">
        <ele>134</ele>
        <time>2019-10-26T11:32:38.000Z</time>
      </trkpt>
      <trkpt lat="47.81911" lon="3.80491">
        <ele>134</ele>
        <time>2019-10-26T11:32:39.000Z</time>
      </trkpt>
      <trkpt lat="47.81912" lon="3.80489">
        <ele>134</ele>
        <time>2019-10-26T11:32:40.000Z</time>
      </trkpt>
      <trkpt lat="47.81914" lon="3.80487">
        <ele>134</ele>
        <time>2019-10-26T11:32:41.000Z</time>
      </trkpt>
      <trkpt lat="47.81916" lon="3.80484">
        <ele>134</ele>
        <time>2019-10-26T11:32:42.000Z</time>
      </trkpt>
      <trkpt lat="47.81918" lon="3.80482">
        <ele>134</ele>
        <time>2019-10-26T11:32:43.000Z</time>
      </trkpt>
      <trkpt lat="47.8192" lon="3.8048">
        <ele>134</ele>
        <time>2019-10-26T11:32:44.000Z</time>
      </trkpt>
      <trkpt lat="47.81922" lon="3.80478">
        <ele>134</ele>
        <time>2019-10-26T11:32:45.000Z</time>
      </trkpt>
      <trkpt lat="47.81924" lon="3.80475">
        <ele>134</ele>
        <time>2019-10-26T11:32:46.000Z</time>
      </trkpt>
      <trkpt lat="47.81926" lon="3.80473">
        <ele>134</ele>
        <time>2019-10-26T11:32:47.000Z</time>
      </trkpt>
      <trkpt lat="47.81928" lon="3.80471">
        <ele>134</ele>
        <time>2019-10-26T11:32:48.000Z</time>
      </trkpt>
      <trkpt lat="47.8193" lon="3.80469">
        <ele>134</ele>
        <time>2019-10-26T11:32:49.000Z</time>
      </trkpt>
      <trkpt lat="47.81932" lon="3.80466">
        <ele>134</ele>
        <time>2019-10-26T11:32:50.000Z</time>
      </trkpt>
      <trkpt lat="47.81934" lon="3.80464">
        <ele>134</ele>
        <time>2019-10-26T11:32:51.000Z</time>
      </trkpt>
      <trkpt lat="47.81936" lon="3.80462">
        <ele>134</ele>
        <time>2019-10-26T11:32:52.000Z</time>
      </trkpt>
      <trkpt lat="47.81938" lon="3.8046">
        <ele>134</ele>
        <time>2019-10-26T11:32:53.000Z</time>
      </trkpt>
      <trkpt lat="47.8194" lon="3.80457">
        <ele>134</ele>
        <time>2019-10-26T11:32:54.000Z</time>
      </trkpt>
      <trkpt lat="47.81942" lon="3.80455">
        <ele>134</ele>
        <time>2019-10-26T11:32:55.000Z</time>
      </trkpt>
      <trkpt lat="47.81944" lon="3.80453">
        <ele>134</ele>
        <time>2019-10-26T11:32:56.000Z</time>
      </trkpt>
      <trkpt lat="47.81946" lon="3.80451">
        <ele>133</ele>
        <time>2019-10-26T11:32:57.000Z</time>
      </trkpt>
      <trkpt lat="47.81948" lon="3.80449">
        <ele>133</ele>
        <time>2019-10-26T11:32:58.000Z</time>
      </trkpt>
      <trkpt lat="47.8195" lon="3.80447">
        <ele>133</ele>
        <time>2019-10-26T11:32:59.000Z</time>
      </trkpt>
      <trkpt lat="47.81952" lon="3.80445">
        <ele>133</ele>
        <time>2019-10-26T11:33:00.000Z</time>
      </trkpt>
      <trkpt lat="47.81954" lon="3.80442">
        <ele>133</ele>
        <time>2019-10-26T11:33:01.000Z</time>
      </trkpt>
      <trkpt lat="47.81956" lon="3.8044">
        <ele>133</ele>
        <time>2019-10-26T11:33:02.000Z</time>
      </trkpt>
      <trkpt lat="47.81958" lon="3.80438">
        <ele>133</ele>
        <time>2019-10-26T11:33:03.000Z</time>
      </trkpt>
      <trkpt lat="47.81959" lon="3.80436">
        <ele>133</ele>
        <time>2019-10-26T11:33:04.000Z</time>
      </trkpt>
      <trkpt lat="47.81962" lon="3.80433">
        <ele>133</ele>
        <time>2019-10-26T11:33:05.000Z</time>
      </trkpt>
      <trkpt lat="47.81963" lon="3.80431">
        <ele>133</ele>
        <time>2019-10-26T11:33:06.000Z</time>
      </trkpt>
      <trkpt lat="47.81966" lon="3.80429">
        <ele>133</ele>
        <time>2019-10-26T11:33:07.000Z</time>
      </trkpt>
      <trkpt lat="47.81968" lon="3.80427">
        <ele>133</ele>
        <time>2019-10-26T11:33:08.000Z</time>
      </trkpt>
      <trkpt lat="47.8197" lon="3.80425">
        <ele>133</ele>
        <time>2019-10-26T11:33:09.000Z</time>
      </trkpt>
      <trkpt lat="47.81972" lon="3.80423">
        <ele>133</ele>
        <time>2019-10-26T11:33:10.000Z</time>
      </trkpt>
      <trkpt lat="47.81973" lon="3.8042">
        <ele>133</ele>
        <time>2019-10-26T11:33:11.000Z</time>
      </trkpt>
      <trkpt lat="47.81975" lon="3.80418">
        <ele>133</ele>
        <time>2019-10-26T11:33:12.000Z</time>
      </trkpt>
      <trkpt lat="47.81977" lon="3.80416">
        <ele>133</ele>
        <time>2019-10-26T11:33:13.000Z</time>
      </trkpt>
      <trkpt lat="47.81979" lon="3.80414">
        <ele>133</ele>
        <time>2019-10-26T11:33:14.000Z</time>
      </trkpt>
      <trkpt lat="47.81981" lon="3.80412">
        <ele>133</ele>
        <time>2019-10-26T11:33:15.000Z</time>
      </trkpt>
      <trkpt lat="47.81983" lon="3.8041">
        <ele>133</ele>
        <time>2019-10-26T11:33:16.000Z</time>
      </trkpt>
      <trkpt lat="47.81985" lon="3.80407">
        <ele>133</ele>
        <time>2019-10-26T11:33:17.000Z</time>
      </trkpt>
      <trkpt lat="47.81987" lon="3.80405">
        <ele>133</ele>
        <time>2019-10-26T11:33:18.000Z</time>
      </trkpt>
      <trkpt lat="47.81989" lon="3.80403">
        <ele>133</ele>
        <time>2019-10-26T11:33:19.000Z</time>
      </trkpt>
      <trkpt lat="47.81991" lon="3.80401">
        <ele>133</ele>
        <time>2019-10-26T11:33:20.000Z</time>
      </trkpt>
      <trkpt lat="47.81993" lon="3.80399">
        <ele>133</ele>
        <time>2019-10-26T11:33:21.000Z</time>
      </trkpt>
      <trkpt lat="47.81995" lon="3.80397">
        <ele>133</ele>
        <time>2019-10-26T11:33:22.000Z</time>
      </trkpt>
      <trkpt lat="47.81997" lon="3.80395">
        <ele>133</ele>
        <time>2019-10-26T11:33:23.000Z</time>
      </trkpt>
      <trkpt lat="47.81999" lon="3.80392">
        <ele>133</ele>
        <time>2019-10-26T11:33:24.000Z</time>
      </trkpt>
      <trkpt lat="47.82001" lon="3.8039">
        <ele>133</ele>
        <time>2019-10-26T11:33:25.000Z</time>
      </trkpt>
      <trkpt lat="47.82003" lon="3.80388">
        <ele>133</ele>
        <time>2019-10-26T11:33:26.000Z</time>
      </trkpt>
      <trkpt lat="47.82005" lon="3.80386">
        <ele>133</ele>
        <time>2019-10-26T11:33:27.000Z</time>
      </trkpt>
      <trkpt lat="47.82007" lon="3.80384">
        <ele>133</ele>
        <time>2019-10-26T11:33:28.000Z</time>
      </trkpt>
      <trkpt lat="47.82009" lon="3.80381">
        <ele>133</ele>
        <time>2019-10-26T11:33:29.000Z</time>
      </trkpt>
      <trkpt lat="47.8201" lon="3.80379">
        <ele>133</ele>
        <time>2019-10-26T11:33:30.000Z</time>
      </trkpt>
      <trkpt lat="47.82012" lon="3.80377">
        <ele>133</ele>
        <time>2019-10-26T11:33:31.000Z</time>
      </trkpt>
      <trkpt lat="47.82014" lon="3.80375">
        <ele>132</ele>
        <time>2019-10-26T11:33:32.000Z</time>
      </trkpt>
      <trkpt lat="47.82016" lon="3.80372">
        <ele>132</ele>
        <time>2019-10-26T11:33:33.000Z</time>
      </trkpt>
      <trkpt lat="47.82018" lon="3.8037">
        <ele>132</ele>
        <time>2019-10-26T11:33:34.000Z</time>
      </trkpt>
      <trkpt lat="47.82019" lon="3.80368">
        <ele>133</ele>
        <time>2019-10-26T11:33:35.000Z</time>
      </trkpt>
      <trkpt lat="47.82021" lon="3.80365">
        <ele>133</ele>
        <time>2019-10-26T11:33:36.000Z</time>
      </trkpt>
      <trkpt lat="47.82023" lon="3.80363">
        <ele>133</ele>
        <time>2019-10-26T11:33:37.000Z</time>
      </trkpt>
      <trkpt lat="47.82025" lon="3.80361">
        <ele>133</ele>
        <time>2019-10-26T11:33:38.000Z</time>
      </trkpt>
      <trkpt lat="47.82027" lon="3.80358">
        <ele>133</ele>
        <time>2019-10-26T11:33:39.000Z</time>
      </trkpt>
      <trkpt lat="47.82029" lon="3.80356">
        <ele>133</ele>
        <time>2019-10-26T11:33:40.000Z</time>
      </trkpt>
      <trkpt lat="47.8203" lon="3.80354">
        <ele>133</ele>
        <time>2019-10-26T11:33:41.000Z</time>
      </trkpt>
      <trkpt lat="47.82032" lon="3.80352">
        <ele>133</ele>
        <time>2019-10-26T11:33:42.000Z</time>
      </trkpt>
      <trkpt lat="47.82034" lon="3.80349">
        <ele>133</ele>
        <time>2019-10-26T11:33:43.000Z</time>
      </trkpt>
      <trkpt lat="47.82036" lon="3.80347">
        <ele>133</ele>
        <time>2019-10-26T11:33:44.000Z</time>
      </trkpt>
      <trkpt lat="47.82038" lon="3.80345">
        <ele>133</ele>
        <time>2019-10-26T11:33:45.000Z</time>
      </trkpt>
      <trkpt lat="47.8204" lon="3.80342">
        <ele>133</ele>
        <time>2019-10-26T11:33:46.000Z</time>
      </trkpt>
      <trkpt lat="47.82042" lon="3.8034">
        <ele>133</ele>
        <time>2019-10-26T11:33:47.000Z</time>
      </trkpt>
      <trkpt lat="47.82043" lon="3.80337">
        <ele>133</ele>
        <time>2019-10-26T11:33:48.000Z</time>
      </trkpt>
      <trkpt lat="47.82045" lon="3.80334">
        <ele>132</ele>
        <time>2019-10-26T11:33:49.000Z</time>
      </trkpt>
      <trkpt lat="47.82047" lon="3.80332">
        <ele>132</ele>
        <time>2019-10-26T11:33:50.000Z</time>
      </trkpt>
      <trkpt lat="47.82049" lon="3.80329">
        <ele>132</ele>
        <time>2019-10-26T11:33:51.000Z</time>
      </trkpt>
      <trkpt lat="47.8205" lon="3.80327">
        <ele>132</ele>
        <time>2019-10-26T11:33:52.000Z</time>
      </trkpt>
      <trkpt lat="47.82052" lon="3.80324">
        <ele>132</ele>
        <time>2019-10-26T11:33:53.000Z</time>
      </trkpt>
      <trkpt lat="47.82054" lon="3.80321">
        <ele>132</ele>
        <time>2019-10-26T11:33:54.000Z</time>
      </trkpt>
      <trkpt lat="47.82056" lon="3.80319">
        <ele>132</ele>
        <time>2019-10-26T11:33:55.000Z</time>
      </trkpt>
      <trkpt lat="47.82057" lon="3.80316">
        <ele>132</ele>
        <time>2019-10-26T11:33:56.000Z</time>
      </trkpt>
      <trkpt lat="47.82059" lon="3.80314">
        <ele>132</ele>
        <time>2019-10-26T11:33:57.000Z</time>
      </trkpt>
      <trkpt lat="47.82061" lon="3.80311">
        <ele>132</ele>
        <time>2019-10-26T11:33:58.000Z</time>
      </trkpt>
      <trkpt lat="47.82063" lon="3.80309">
        <ele>132</ele>
        <time>2019-10-26T11:33:59.000Z</time>
      </trkpt>
      <trkpt lat="47.82064" lon="3.80306">
        <ele>132</ele>
        <time>2019-10-26T11:34:00.000Z</time>
      </trkpt>
      <trkpt lat="47.82066" lon="3.80304">
        <ele>132</ele>
        <time>2019-10-26T11:34:01.000Z</time>
      </trkpt>
      <trkpt lat="47.82068" lon="3.80302">
        <ele>132</ele>
        <time>2019-10-26T11:34:02.000Z</time>
      </trkpt>
      <trkpt lat="47.8207" lon="3.80299">
        <ele>132</ele>
        <time>2019-10-26T11:34:03.000Z</time>
      </trkpt>
      <trkpt lat="47.82071" lon="3.80296">
        <ele>132</ele>
        <time>2019-10-26T11:34:04.000Z</time>
      </trkpt>
      <trkpt lat="47.82073" lon="3.80293">
        <ele>132</ele>
        <time>2019-10-26T11:34:05.000Z</time>
      </trkpt>
      <trkpt lat="47.82075" lon="3.80291">
        <ele>132</ele>
        <time>2019-10-26T11:34:06.000Z</time>
      </trkpt>
      <trkpt lat="47.82077" lon="3.80288">
        <ele>132</ele>
        <time>2019-10-26T11:34:07.000Z</time>
      </trkpt>
      <trkpt lat="47.82078" lon="3.80285">
        <ele>132</ele>
        <time>2019-10-26T11:34:08.000Z</time>
      </trkpt>
      <trkpt lat="47.8208" lon="3.80282">
        <ele>131</ele>
        <time>2019-10-26T11:34:09.000Z</time>
      </trkpt>
      <trkpt lat="47.82082" lon="3.8028">
        <ele>131</ele>
        <time>2019-10-26T11:34:10.000Z</time>
      </trkpt>
      <trkpt lat="47.82084" lon="3.80277">
        <ele>131</ele>
        <time>2019-10-26T11:34:11.000Z</time>
      </trkpt>
      <trkpt lat="47.82086" lon="3.80274">
        <ele>131</ele>
        <time>2019-10-26T11:34:12.000Z</time>
      </trkpt>
      <trkpt lat="47.82087" lon="3.80272">
        <ele>131</ele>
        <time>2019-10-26T11:34:13.000Z</time>
      </trkpt>
      <trkpt lat="47.82089" lon="3.80269">
        <ele>131</ele>
        <time>2019-10-26T11:34:14.000Z</time>
      </trkpt>
      <trkpt lat="47.82091" lon="3.80266">
        <ele>131</ele>
        <time>2019-10-26T11:34:15.000Z</time>
      </trkpt>
      <trkpt lat="47.82092" lon="3.80263">
        <ele>131</ele>
        <time>2019-10-26T11:34:16.000Z</time>
      </trkpt>
      <trkpt lat="47.82094" lon="3.80261">
        <ele>131</ele>
        <time>2019-10-26T11:34:17.000Z</time>
      </trkpt>
      <trkpt lat="47.82095" lon="3.80258">
        <ele>131</ele>
        <time>2019-10-26T11:34:18.000Z</time>
      </trkpt>
      <trkpt lat="47.82097" lon="3.80256">
        <ele>131</ele>
        <time>2019-10-26T11:34:19.000Z</time>
      </trkpt>
      <trkpt lat="47.82099" lon="3.80253">
        <ele>131</ele>
        <time>2019-10-26T11:34:20.000Z</time>
      </trkpt>
      <trkpt lat="47.821" lon="3.8025">
        <ele>131</ele>
        <time>2019-10-26T11:34:21.000Z</time>
      </trkpt>
      <trkpt lat="47.82102" lon="3.80248">
        <ele>131</ele>
        <time>2019-10-26T11:34:22.000Z</time>
      </trkpt>
      <trkpt lat="47.82103" lon="3.80245">
        <ele>131</ele>
        <time>2019-10-26T11:34:23.000Z</time>
      </trkpt>
      <trkpt lat="47.82105" lon="3.80242">
        <ele>131</ele>
        <time>2019-10-26T11:34:24.000Z</time>
      </trkpt>
      <trkpt lat="47.82106" lon="3.80239">
        <ele>131</ele>
        <time>2019-10-26T11:34:25.000Z</time>
      </trkpt>
      <trkpt lat="47.82108" lon="3.80237">
        <ele>131</ele>
        <time>2019-10-26T11:34:26.000Z</time>
      </trkpt>
      <trkpt lat="47.82109" lon="3.80234">
        <ele>131</ele>
        <time>2019-10-26T11:34:27.000Z</time>
      </trkpt>
      <trkpt lat="47.82111" lon="3.80231">
        <ele>131</ele>
        <time>2019-10-26T11:34:28.000Z</time>
      </trkpt>
      <trkpt lat="47.82112" lon="3.80228">
        <ele>131</ele>
        <time>2019-10-26T11:34:29.000Z</time>
      </trkpt>
      <trkpt lat="47.82113" lon="3.80225">
        <ele>131</ele>
        <time>2019-10-26T11:34:30.000Z</time>
      </trkpt>
      <trkpt lat="47.82113" lon="3.80222">
        <ele>131</ele>
        <time>2019-10-26T11:34:31.000Z</time>
      </trkpt>
      <trkpt lat="47.82113" lon="3.80218">
        <ele>131</ele>
        <time>2019-10-26T11:34:32.000Z</time>
      </trkpt>
      <trkpt lat="47.82111" lon="3.80216">
        <ele>131</ele>
        <time>2019-10-26T11:34:33.000Z</time>
      </trkpt>
      <trkpt lat="47.8211" lon="3.80212">
        <ele>131</ele>
        <time>2019-10-26T11:34:34.000Z</time>
      </trkpt>
      <trkpt lat="47.82108" lon="3.8021">
        <ele>131</ele>
        <time>2019-10-26T11:34:35.000Z</time>
      </trkpt>
      <trkpt lat="47.82106" lon="3.80207">
        <ele>130</ele>
        <time>2019-10-26T11:34:36.000Z</time>
      </trkpt>
      <trkpt lat="47.82104" lon="3.80205">
        <ele>130</ele>
        <time>2019-10-26T11:34:37.000Z</time>
      </trkpt>
      <trkpt lat="47.82102" lon="3.80203">
        <ele>130</ele>
        <time>2019-10-26T11:34:38.000Z</time>
      </trkpt>
      <trkpt lat="47.821" lon="3.80202">
        <ele>130</ele>
        <time>2019-10-26T11:34:39.000Z</time>
      </trkpt>
      <trkpt lat="47.82098" lon="3.80201">
        <ele>130</ele>
        <time>2019-10-26T11:34:40.000Z</time>
      </trkpt>
      <trkpt lat="47.82095" lon="3.802">
        <ele>130</ele>
        <time>2019-10-26T11:34:41.000Z</time>
      </trkpt>
      <trkpt lat="47.82093" lon="3.802">
        <ele>130</ele>
        <time>2019-10-26T11:34:42.000Z</time>
      </trkpt>
      <trkpt lat="47.8209" lon="3.80199">
        <ele>130</ele>
        <time>2019-10-26T11:34:43.000Z</time>
      </trkpt>
      <trkpt lat="47.82088" lon="3.80199">
        <ele>130</ele>
        <time>2019-10-26T11:34:44.000Z</time>
      </trkpt>
      <trkpt lat="47.82085" lon="3.80198">
        <ele>130</ele>
        <time>2019-10-26T11:34:45.000Z</time>
      </trkpt>
      <trkpt lat="47.82083" lon="3.80198">
        <ele>130</ele>
        <time>2019-10-26T11:34:46.000Z</time>
      </trkpt>
      <trkpt lat="47.8208" lon="3.80198">
        <ele>130</ele>
        <time>2019-10-26T11:34:47.000Z</time>
      </trkpt>
      <trkpt lat="47.82078" lon="3.80198">
        <ele>130</ele>
        <time>2019-10-26T11:34:48.000Z</time>
      </trkpt>
      <trkpt lat="47.82075" lon="3.80197">
        <ele>130</ele>
        <time>2019-10-26T11:34:49.000Z</time>
      </trkpt>
      <trkpt lat="47.82073" lon="3.80197">
        <ele>130</ele>
        <time>2019-10-26T11:34:50.000Z</time>
      </trkpt>
      <trkpt lat="47.8207" lon="3.80196">
        <ele>130</ele>
        <time>2019-10-26T11:34:51.000Z</time>
      </trkpt>
      <trkpt lat="47.82068" lon="3.80196">
        <ele>130</ele>
        <time>2019-10-26T11:34:52.000Z</time>
      </trkpt>
      <trkpt lat="47.82065" lon="3.80195">
        <ele>130</ele>
        <time>2019-10-26T11:34:53.000Z</time>
      </trkpt>
      <trkpt lat="47.82063" lon="3.80195">
        <ele>130</ele>
        <time>2019-10-26T11:34:54.000Z</time>
      </trkpt>
      <trkpt lat="47.8206" lon="3.80195">
        <ele>130</ele>
        <time>2019-10-26T11:34:55.000Z</time>
      </trkpt>
      <trkpt lat="47.82058" lon="3.80195">
        <ele>130</ele>
        <time>2019-10-26T11:34:56.000Z</time>
      </trkpt>
      <trkpt lat="47.82056" lon="3.80195">
        <ele>130</ele>
        <time>2019-10-26T11:34:57.000Z</time>
      </trkpt>
      <trkpt lat="47.82053" lon="3.80195">
        <ele>130</ele>
        <time>2019-10-26T11:34:58.000Z</time>
      </trkpt>
      <trkpt lat="47.82051" lon="3.80195">
        <ele>130</ele>
        <time>2019-10-26T11:34:59.000Z</time>
      </trkpt>
      <trkpt lat="47.82048" lon="3.80195">
        <ele>130</ele>
        <time>2019-10-26T11:35:00.000Z</time>
      </trkpt>
      <trkpt lat="47.82046" lon="3.80195">
        <ele>130</ele>
        <time>2019-10-26T11:35:01.000Z</time>
      </trkpt>
      <trkpt lat="47.82043" lon="3.80195">
        <ele>130</ele>
        <time>2019-10-26T11:35:02.000Z</time>
      </trkpt>
      <trkpt lat="47.82041" lon="3.80195">
        <ele>130</ele>
        <time>2019-10-26T11:35:03.000Z</time>
      </trkpt>
      <trkpt lat="47.82038" lon="3.80194">
        <ele>130</ele>
        <time>2019-10-26T11:35:04.000Z</time>
      </trkpt>
      <trkpt lat="47.82036" lon="3.80194">
        <ele>130</ele>
        <time>2019-10-26T11:35:05.000Z</time>
      </trkpt>
      <trkpt lat="47.82033" lon="3.80194">
        <ele>130</ele>
        <time>2019-10-26T11:35:06.000Z</time>
      </trkpt>
      <trkpt lat="47.82031" lon="3.80194">
        <ele>130</ele>
        <time>2019-10-26T11:35:07.000Z</time>
      </trkpt>
      <trkpt lat="47.82029" lon="3.80193">
        <ele>130</ele>
        <time>2019-10-26T11:35:08.000Z</time>
      </trkpt>
      <trkpt lat="47.82026" lon="3.80193">
        <ele>130</ele>
        <time>2019-10-26T11:35:09.000Z</time>
      </trkpt>
      <trkpt lat="47.82024" lon="3.80193">
        <ele>130</ele>
        <time>2019-10-26T11:35:10.000Z</time>
      </trkpt>
      <trkpt lat="47.82021" lon="3.80193">
        <ele>130</ele>
        <time>2019-10-26T11:35:11.000Z</time>
      </trkpt>
      <trkpt lat="47.82019" lon="3.80192">
        <ele>130</ele>
        <time>2019-10-26T11:35:12.000Z</time>
      </trkpt>
      <trkpt lat="47.82016" lon="3.80192">
        <ele>130</ele>
        <time>2019-10-26T11:35:13.000Z</time>
      </trkpt>
      <trkpt lat="47.82014" lon="3.80192">
        <ele>130</ele>
        <time>2019-10-26T11:35:14.000Z</time>
      </trkpt>
      <trkpt lat="47.82012" lon="3.80192">
        <ele>130</ele>
        <time>2019-10-26T11:35:15.000Z</time>
      </trkpt>
      <trkpt lat="47.82009" lon="3.80192">
        <ele>130</ele>
        <time>2019-10-26T11:35:16.000Z</time>
      </trkpt>
      <trkpt lat="47.82007" lon="3.80191">
        <ele>130</ele>
        <time>2019-10-26T11:35:17.000Z</time>
      </trkpt>
      <trkpt lat="47.82005" lon="3.80191">
        <ele>130</ele>
        <time>2019-10-26T11:35:18.000Z</time>
      </trkpt>
      <trkpt lat="47.82002" lon="3.80191">
        <ele>130</ele>
        <time>2019-10-26T11:35:19.000Z</time>
      </trkpt>
      <trkpt lat="47.82" lon="3.8019">
        <ele>130</ele>
        <time>2019-10-26T11:35:20.000Z</time>
      </trkpt>
      <trkpt lat="47.81998" lon="3.8019">
        <ele>130</ele>
        <time>2019-10-26T11:35:21.000Z</time>
      </trkpt>
      <trkpt lat="47.81996" lon="3.8019">
        <ele>130</ele>
        <time>2019-10-26T11:35:22.000Z</time>
      </trkpt>
      <trkpt lat="47.81993" lon="3.80189">
        <ele>130</ele>
        <time>2019-10-26T11:35:23.000Z</time>
      </trkpt>
      <trkpt lat="47.81991" lon="3.80189">
        <ele>130</ele>
        <time>2019-10-26T11:35:24.000Z</time>
      </trkpt>
      <trkpt lat="47.81989" lon="3.80189">
        <ele>130</ele>
        <time>2019-10-26T11:35:25.000Z</time>
      </trkpt>
      <trkpt lat="47.81987" lon="3.80188">
        <ele>130</ele>
        <time>2019-10-26T11:35:26.000Z</time>
      </trkpt>
      <trkpt lat="47.81985" lon="3.80188">
        <ele>129</ele>
        <time>2019-10-26T11:35:27.000Z</time>
      </trkpt>
      <trkpt lat="47.81982" lon="3.80187">
        <ele>129</ele>
        <time>2019-10-26T11:35:28.000Z</time>
      </trkpt>
      <trkpt lat="47.8198" lon="3.80187">
        <ele>129</ele>
        <time>2019-10-26T11:35:29.000Z</time>
      </trkpt>
      <trkpt lat="47.81978" lon="3.80186">
        <ele>129</ele>
        <time>2019-10-26T11:35:30.000Z</time>
      </trkpt>
      <trkpt lat="47.81976" lon="3.80186">
        <ele>129</ele>
        <time>2019-10-26T11:35:31.000Z</time>
      </trkpt>
      <trkpt lat="47.81973" lon="3.80185">
        <ele>129</ele>
        <time>2019-10-26T11:35:32.000Z</time>
      </trkpt>
      <trkpt lat="47.81971" lon="3.80185">
        <ele>129</ele>
        <time>2019-10-26T11:35:33.000Z</time>
      </trkpt>
      <trkpt lat="47.81969" lon="3.80185">
        <ele>129</ele>
        <time>2019-10-26T11:35:34.000Z</time>
      </trkpt>
      <trkpt lat="47.81967" lon="3.80184">
        <ele>129</ele>
        <time>2019-10-26T11:35:35.000Z</time>
      </trkpt>
      <trkpt lat="47.81964" lon="3.80184">
        <ele>129</ele>
        <time>2019-10-26T11:35:36.000Z</time>
      </trkpt>
      <trkpt lat="47.81962" lon="3.80184">
        <ele>129</ele>
        <time>2019-10-26T11:35:37.000Z</time>
      </trkpt>
      <trkpt lat="47.8196" lon="3.80183">
        <ele>129</ele>
        <time>2019-10-26T11:35:38.000Z</time>
      </trkpt>
      <trkpt lat="47.81958" lon="3.80182">
        <ele>129</ele>
        <time>2019-10-26T11:35:39.000Z</time>
      </trkpt>
      <trkpt lat="47.81956" lon="3.80182">
        <ele>129</ele>
        <time>2019-10-26T11:35:40.000Z</time>
      </trkpt>
      <trkpt lat="47.81953" lon="3.80181">
        <ele>129</ele>
        <time>2019-10-26T11:35:41.000Z</time>
      </trkpt>
      <trkpt lat="47.81951" lon="3.8018">
        <ele>129</ele>
        <time>2019-10-26T11:35:42.000Z</time>
      </trkpt>
      <trkpt lat="47.81949" lon="3.80179">
        <ele>129</ele>
        <time>2019-10-26T11:35:43.000Z</time>
      </trkpt>
      <trkpt lat="47.81947" lon="3.80179">
        <ele>129</ele>
        <time>2019-10-26T11:35:44.000Z</time>
      </trkpt>
      <trkpt lat="47.81944" lon="3.80179">
        <ele>129</ele>
        <time>2019-10-26T11:35:45.000Z</time>
      </trkpt>
      <trkpt lat="47.81942" lon="3.80179">
        <ele>128</ele>
        <time>2019-10-26T11:35:46.000Z</time>
      </trkpt>
      <trkpt lat="47.8194" lon="3.80179">
        <ele>128</ele>
        <time>2019-10-26T11:35:47.000Z</time>
      </trkpt>
      <trkpt lat="47.81937" lon="3.80179">
        <ele>128</ele>
        <time>2019-10-26T11:35:48.000Z</time>
      </trkpt>
      <trkpt lat="47.81935" lon="3.80179">
        <ele>128</ele>
        <time>2019-10-26T11:35:49.000Z</time>
      </trkpt>
      <trkpt lat="47.81933" lon="3.80179">
        <ele>128</ele>
        <time>2019-10-26T11:35:50.000Z</time>
      </trkpt>
      <trkpt lat="47.81931" lon="3.80179">
        <ele>128</ele>
        <time>2019-10-26T11:35:51.000Z</time>
      </trkpt>
      <trkpt lat="47.81928" lon="3.8018">
        <ele>128</ele>
        <time>2019-10-26T11:35:52.000Z</time>
      </trkpt>
      <trkpt lat="47.81926" lon="3.8018">
        <ele>129</ele>
        <time>2019-10-26T11:35:53.000Z</time>
      </trkpt>
      <trkpt lat="47.81924" lon="3.8018">
        <ele>129</ele>
        <time>2019-10-26T11:35:54.000Z</time>
      </trkpt>
      <trkpt lat="47.81921" lon="3.8018">
        <ele>129</ele>
        <time>2019-10-26T11:35:55.000Z</time>
      </trkpt>
      <trkpt lat="47.81919" lon="3.8018">
        <ele>129</ele>
        <time>2019-10-26T11:35:56.000Z</time>
      </trkpt>
      <trkpt lat="47.81917" lon="3.80181">
        <ele>129</ele>
        <time>2019-10-26T11:35:57.000Z</time>
      </trkpt>
      <trkpt lat="47.81915" lon="3.80181">
        <ele>129</ele>
        <time>2019-10-26T11:35:58.000Z</time>
      </trkpt>
      <trkpt lat="47.81912" lon="3.80182">
        <ele>129</ele>
        <time>2019-10-26T11:35:59.000Z</time>
      </trkpt>
      <trkpt lat="47.8191" lon="3.80182">
        <ele>129</ele>
        <time>2019-10-26T11:36:00.000Z</time>
      </trkpt>
      <trkpt lat="47.81908" lon="3.80183">
        <ele>129</ele>
        <time>2019-10-26T11:36:01.000Z</time>
      </trkpt>
      <trkpt lat="47.81905" lon="3.80184">
        <ele>129</ele>
        <time>2019-10-26T11:36:02.000Z</time>
      </trkpt>
      <trkpt lat="47.81903" lon="3.80184">
        <ele>130</ele>
        <time>2019-10-26T11:36:03.000Z</time>
      </trkpt>
      <trkpt lat="47.81901" lon="3.80185">
        <ele>130</ele>
        <time>2019-10-26T11:36:04.000Z</time>
      </trkpt>
      <trkpt lat="47.81898" lon="3.80186">
        <ele>130</ele>
        <time>2019-10-26T11:36:05.000Z</time>
      </trkpt>
      <trkpt lat="47.81896" lon="3.80186">
        <ele>130</ele>
        <time>2019-10-26T11:36:06.000Z</time>
      </trkpt>
      <trkpt lat="47.81894" lon="3.80187">
        <ele>130</ele>
        <time>2019-10-26T11:36:07.000Z</time>
      </trkpt>
      <trkpt lat="47.81892" lon="3.80187">
        <ele>130</ele>
        <time>2019-10-26T11:36:08.000Z</time>
      </trkpt>
      <trkpt lat="47.81889" lon="3.80188">
        <ele>130</ele>
        <time>2019-10-26T11:36:09.000Z</time>
      </trkpt>
      <trkpt lat="47.81887" lon="3.80188">
        <ele>130</ele>
        <time>2019-10-26T11:36:10.000Z</time>
      </trkpt>
      <trkpt lat="47.81885" lon="3.80189">
        <ele>130</ele>
        <time>2019-10-26T11:36:11.000Z</time>
      </trkpt>
      <trkpt lat="47.81882" lon="3.80189">
        <ele>130</ele>
        <time>2019-10-26T11:36:12.000Z</time>
      </trkpt>
      <trkpt lat="47.8188" lon="3.8019">
        <ele>131</ele>
        <time>2019-10-26T11:36:13.000Z</time>
      </trkpt>
      <trkpt lat="47.81878" lon="3.8019">
        <ele>131</ele>
        <time>2019-10-26T11:36:14.000Z</time>
      </trkpt>
      <trkpt lat="47.81875" lon="3.80191">
        <ele>131</ele>
        <time>2019-10-26T11:36:15.000Z</time>
      </trkpt>
      <trkpt lat="47.81873" lon="3.80192">
        <ele>131</ele>
        <time>2019-10-26T11:36:16.000Z</time>
      </trkpt>
      <trkpt lat="47.81871" lon="3.80193">
        <ele>131</ele>
        <time>2019-10-26T11:36:17.000Z</time>
      </trkpt>
      <trkpt lat="47.81868" lon="3.80193">
        <ele>131</ele>
        <time>2019-10-26T11:36:18.000Z</time>
      </trkpt>
      <trkpt lat="47.81866" lon="3.80194">
        <ele>131</ele>
        <time>2019-10-26T11:36:19.000Z</time>
      </trkpt>
      <trkpt lat="47.81864" lon="3.80195">
        <ele>131</ele>
        <time>2019-10-26T11:36:20.000Z</time>
      </trkpt>
      <trkpt lat="47.81862" lon="3.80196">
        <ele>131</ele>
        <time>2019-10-26T11:36:21.000Z</time>
      </trkpt>
      <trkpt lat="47.81859" lon="3.80196">
        <ele>131</ele>
        <time>2019-10-26T11:36:22.000Z</time>
      </trkpt>
      <trkpt lat="47.81857" lon="3.80197">
        <ele>131</ele>
        <time>2019-10-26T11:36:23.000Z</time>
      </trkpt>
      <trkpt lat="47.81855" lon="3.80198">
        <ele>131</ele>
        <time>2019-10-26T11:36:24.000Z</time>
      </trkpt>
      <trkpt lat="47.81852" lon="3.80199">
        <ele>131</ele>
        <time>2019-10-26T11:36:25.000Z</time>
      </trkpt>
      <trkpt lat="47.8185" lon="3.802">
        <ele>131</ele>
        <time>2019-10-26T11:36:26.000Z</time>
      </trkpt>
      <trkpt lat="47.81848" lon="3.80201">
        <ele>131</ele>
        <time>2019-10-26T11:36:27.000Z</time>
      </trkpt>
      <trkpt lat="47.81846" lon="3.80202">
        <ele>131</ele>
        <time>2019-10-26T11:36:28.000Z</time>
      </trkpt>
      <trkpt lat="47.81843" lon="3.80202">
        <ele>131</ele>
        <time>2019-10-26T11:36:29.000Z</time>
      </trkpt>
      <trkpt lat="47.81841" lon="3.80203">
        <ele>131</ele>
        <time>2019-10-26T11:36:30.000Z</time>
      </trkpt>
      <trkpt lat="47.81839" lon="3.80203">
        <ele>131</ele>
        <time>2019-10-26T11:36:31.000Z</time>
      </trkpt>
      <trkpt lat="47.81837" lon="3.80203">
        <ele>131</ele>
        <time>2019-10-26T11:36:32.000Z</time>
      </trkpt>
      <trkpt lat="47.81834" lon="3.80204">
        <ele>131</ele>
        <time>2019-10-26T11:36:33.000Z</time>
      </trkpt>
      <trkpt lat="47.81832" lon="3.80204">
        <ele>132</ele>
        <time>2019-10-26T11:36:34.000Z</time>
      </trkpt>
      <trkpt lat="47.8183" lon="3.80204">
        <ele>132</ele>
        <time>2019-10-26T11:36:35.000Z</time>
      </trkpt>
      <trkpt lat="47.81827" lon="3.80205">
        <ele>132</ele>
        <time>2019-10-26T11:36:36.000Z</time>
      </trkpt>
      <trkpt lat="47.81825" lon="3.80205">
        <ele>132</ele>
        <time>2019-10-26T11:36:37.000Z</time>
      </trkpt>
      <trkpt lat="47.81822" lon="3.80205">
        <ele>132</ele>
        <time>2019-10-26T11:36:38.000Z</time>
      </trkpt>
      <trkpt lat="47.8182" lon="3.80206">
        <ele>132</ele>
        <time>2019-10-26T11:36:39.000Z</time>
      </trkpt>
      <trkpt lat="47.81818" lon="3.80206">
        <ele>132</ele>
        <time>2019-10-26T11:36:40.000Z</time>
      </trkpt>
      <trkpt lat="47.81815" lon="3.80206">
        <ele>132</ele>
        <time>2019-10-26T11:36:41.000Z</time>
      </trkpt>
      <trkpt lat="47.81813" lon="3.80207">
        <ele>132</ele>
        <time>2019-10-26T11:36:42.000Z</time>
      </trkpt>
      <trkpt lat="47.81811" lon="3.80207">
        <ele>132</ele>
        <time>2019-10-26T11:36:43.000Z</time>
      </trkpt>
      <trkpt lat="47.81808" lon="3.80208">
        <ele>132</ele>
        <time>2019-10-26T11:36:44.000Z</time>
      </trkpt>
      <trkpt lat="47.81806" lon="3.80209">
        <ele>132</ele>
        <time>2019-10-26T11:36:45.000Z</time>
      </trkpt>
      <trkpt lat="47.81803" lon="3.8021">
        <ele>132</ele>
        <time>2019-10-26T11:36:46.000Z</time>
      </trkpt>
      <trkpt lat="47.81801" lon="3.80211">
        <ele>132</ele>
        <time>2019-10-26T11:36:47.000Z</time>
      </trkpt>
      <trkpt lat="47.81799" lon="3.80212">
        <ele>132</ele>
        <time>2019-10-26T11:36:48.000Z</time>
      </trkpt>
      <trkpt lat="47.81797" lon="3.80213">
        <ele>132</ele>
        <time>2019-10-26T11:36:49.000Z</time>
      </trkpt>
      <trkpt lat="47.81794" lon="3.80214">
        <ele>132</ele>
        <time>2019-10-26T11:36:50.000Z</time>
      </trkpt>
      <trkpt lat="47.81792" lon="3.80215">
        <ele>132</ele>
        <time>2019-10-26T11:36:51.000Z</time>
      </trkpt>
      <trkpt lat="47.81789" lon="3.80216">
        <ele>132</ele>
        <time>2019-10-26T11:36:52.000Z</time>
      </trkpt>
      <trkpt lat="47.81787" lon="3.80217">
        <ele>132</ele>
        <time>2019-10-26T11:36:53.000Z</time>
      </trkpt>
      <trkpt lat="47.81785" lon="3.80218">
        <ele>132</ele>
        <time>2019-10-26T11:36:54.000Z</time>
      </trkpt>
      <trkpt lat="47.81782" lon="3.80219">
        <ele>132</ele>
        <time>2019-10-26T11:36:55.000Z</time>
      </trkpt>
      <trkpt lat="47.8178" lon="3.80219">
        <ele>132</ele>
        <time>2019-10-26T11:36:56.000Z</time>
      </trkpt>
      <trkpt lat="47.81778" lon="3.8022">
        <ele>132</ele>
        <time>2019-10-26T11:36:57.000Z</time>
      </trkpt>
      <trkpt lat="47.81775" lon="3.80221">
        <ele>133</ele>
        <time>2019-10-26T11:36:58.000Z</time>
      </trkpt>
      <trkpt lat="47.81773" lon="3.80222">
        <ele>133</ele>
        <time>2019-10-26T11:36:59.000Z</time>
      </trkpt>
      <trkpt lat="47.81771" lon="3.80223">
        <ele>133</ele>
        <time>2019-10-26T11:37:00.000Z</time>
      </trkpt>
      <trkpt lat="47.81768" lon="3.80223">
        <ele>133</ele>
        <time>2019-10-26T11:37:01.000Z</time>
      </trkpt>
      <trkpt lat="47.81766" lon="3.80224">
        <ele>133</ele>
        <time>2019-10-26T11:37:02.000Z</time>
      </trkpt>
      <trkpt lat="47.81764" lon="3.80225">
        <ele>133</ele>
        <time>2019-10-26T11:37:03.000Z</time>
      </trkpt>
      <trkpt lat="47.81761" lon="3.80226">
        <ele>133</ele>
        <time>2019-10-26T11:37:04.000Z</time>
      </trkpt>
      <trkpt lat="47.81759" lon="3.80226">
        <ele>133</ele>
        <time>2019-10-26T11:37:05.000Z</time>
      </trkpt>
      <trkpt lat="47.81757" lon="3.80227">
        <ele>133</ele>
        <time>2019-10-26T11:37:06.000Z</time>
      </trkpt>
      <trkpt lat="47.81755" lon="3.80228">
        <ele>133</ele>
        <time>2019-10-26T11:37:07.000Z</time>
      </trkpt>
      <trkpt lat="47.81752" lon="3.80228">
        <ele>133</ele>
        <time>2019-10-26T11:37:08.000Z</time>
      </trkpt>
      <trkpt lat="47.8175" lon="3.80229">
        <ele>132</ele>
        <time>2019-10-26T11:37:09.000Z</time>
      </trkpt>
      <trkpt lat="47.81747" lon="3.80229">
        <ele>132</ele>
        <time>2019-10-26T11:37:10.000Z</time>
      </trkpt>
      <trkpt lat="47.81745" lon="3.8023">
        <ele>132</ele>
        <time>2019-10-26T11:37:11.000Z</time>
      </trkpt>
      <trkpt lat="47.81743" lon="3.8023">
        <ele>132</ele>
        <time>2019-10-26T11:37:12.000Z</time>
      </trkpt>
      <trkpt lat="47.81741" lon="3.80231">
        <ele>132</ele>
        <time>2019-10-26T11:37:13.000Z</time>
      </trkpt>
      <trkpt lat="47.81738" lon="3.80231">
        <ele>132</ele>
        <time>2019-10-26T11:37:14.000Z</time>
      </trkpt>
      <trkpt lat="47.81736" lon="3.80232">
        <ele>132</ele>
        <time>2019-10-26T11:37:15.000Z</time>
      </trkpt>
      <trkpt lat="47.81734" lon="3.80232">
        <ele>132</ele>
        <time>2019-10-26T11:37:16.000Z</time>
      </trkpt>
      <trkpt lat="47.81731" lon="3.80233">
        <ele>132</ele>
        <time>2019-10-26T11:37:17.000Z</time>
      </trkpt>
      <trkpt lat="47.81729" lon="3.80233">
        <ele>132</ele>
        <time>2019-10-26T11:37:18.000Z</time>
      </trkpt>
      <trkpt lat="47.81727" lon="3.80234">
        <ele>132</ele>
        <time>2019-10-26T11:37:19.000Z</time>
      </trkpt>
      <trkpt lat="47.81724" lon="3.80234">
        <ele>132</ele>
        <time>2019-10-26T11:37:20.000Z</time>
      </trkpt>
      <trkpt lat="47.81722" lon="3.80235">
        <ele>132</ele>
        <time>2019-10-26T11:37:21.000Z</time>
      </trkpt>
      <trkpt lat="47.81719" lon="3.80236">
        <ele>132</ele>
        <time>2019-10-26T11:37:22.000Z</time>
      </trkpt>
      <trkpt lat="47.81717" lon="3.80236">
        <ele>132</ele>
        <time>2019-10-26T11:37:23.000Z</time>
      </trkpt>
      <trkpt lat="47.81714" lon="3.80236">
        <ele>131</ele>
        <time>2019-10-26T11:37:24.000Z</time>
      </trkpt>
      <trkpt lat="47.81712" lon="3.80237">
        <ele>131</ele>
        <time>2019-10-26T11:37:25.000Z</time>
      </trkpt>
      <trkpt lat="47.8171" lon="3.80237">
        <ele>131</ele>
        <time>2019-10-26T11:37:26.000Z</time>
      </trkpt>
      <trkpt lat="47.81707" lon="3.80238">
        <ele>131</ele>
        <time>2019-10-26T11:37:27.000Z</time>
      </trkpt>
      <trkpt lat="47.81705" lon="3.80238">
        <ele>131</ele>
        <time>2019-10-26T11:37:28.000Z</time>
      </trkpt>
      <trkpt lat="47.81703" lon="3.80239">
        <ele>131</ele>
        <time>2019-10-26T11:37:29.000Z</time>
      </trkpt>
      <trkpt lat="47.81701" lon="3.80239">
        <ele>131</ele>
        <time>2019-10-26T11:37:30.000Z</time>
      </trkpt>
      <trkpt lat="47.81698" lon="3.80239">
        <ele>131</ele>
        <time>2019-10-26T11:37:31.000Z</time>
      </trkpt>
      <trkpt lat="47.81696" lon="3.80239">
        <ele>131</ele>
        <time>2019-10-26T11:37:32.000Z</time>
      </trkpt>
      <trkpt lat="47.81694" lon="3.8024">
        <ele>131</ele>
        <time>2019-10-26T11:37:33.000Z</time>
      </trkpt>
      <trkpt lat="47.81691" lon="3.8024">
        <ele>131</ele>
        <time>2019-10-26T11:37:34.000Z</time>
      </trkpt>
      <trkpt lat="47.81689" lon="3.80241">
        <ele>131</ele>
        <time>2019-10-26T11:37:35.000Z</time>
      </trkpt>
      <trkpt lat="47.81687" lon="3.80242">
        <ele>131</ele>
        <time>2019-10-26T11:37:36.000Z</time>
      </trkpt>
      <trkpt lat="47.81684" lon="3.80242">
        <ele>131</ele>
        <time>2019-10-26T11:37:37.000Z</time>
      </trkpt>
      <trkpt lat="47.81682" lon="3.80242">
        <ele>131</ele>
        <time>2019-10-26T11:37:38.000Z</time>
      </trkpt>
      <trkpt lat="47.81679" lon="3.80243">
        <ele>131</ele>
        <time>2019-10-26T11:37:39.000Z</time>
      </trkpt>
      <trkpt lat="47.81677" lon="3.80243">
        <ele>131</ele>
        <time>2019-10-26T11:37:40.000Z</time>
      </trkpt>
      <trkpt lat="47.81675" lon="3.80244">
        <ele>131</ele>
        <time>2019-10-26T11:37:41.000Z</time>
      </trkpt>
      <trkpt lat="47.81672" lon="3.80244">
        <ele>131</ele>
        <time>2019-10-26T11:37:42.000Z</time>
      </trkpt>
      <trkpt lat="47.8167" lon="3.80245">
        <ele>131</ele>
        <time>2019-10-26T11:37:43.000Z</time>
      </trkpt>
      <trkpt lat="47.81668" lon="3.80245">
        <ele>131</ele>
        <time>2019-10-26T11:37:44.000Z</time>
      </trkpt>
      <trkpt lat="47.81665" lon="3.80246">
        <ele>131</ele>
        <time>2019-10-26T11:37:45.000Z</time>
      </trkpt>
      <trkpt lat="47.81663" lon="3.80246">
        <ele>131</ele>
        <time>2019-10-26T11:37:46.000Z</time>
      </trkpt>
      <trkpt lat="47.8166" lon="3.80247">
        <ele>131</ele>
        <time>2019-10-26T11:37:47.000Z</time>
      </trkpt>
      <trkpt lat="47.81658" lon="3.80247">
        <ele>131</ele>
        <time>2019-10-26T11:37:48.000Z</time>
      </trkpt>
      <trkpt lat="47.81655" lon="3.80248">
        <ele>131</ele>
        <time>2019-10-26T11:37:49.000Z</time>
      </trkpt>
      <trkpt lat="47.81653" lon="3.80248">
        <ele>132</ele>
        <time>2019-10-26T11:37:50.000Z</time>
      </trkpt>
      <trkpt lat="47.8165" lon="3.80249">
        <ele>132</ele>
        <time>2019-10-26T11:37:51.000Z</time>
      </trkpt>
      <trkpt lat="47.81648" lon="3.80249">
        <ele>132</ele>
        <time>2019-10-26T11:37:52.000Z</time>
      </trkpt>
      <trkpt lat="47.81645" lon="3.8025">
        <ele>132</ele>
        <time>2019-10-26T11:37:53.000Z</time>
      </trkpt>
      <trkpt lat="47.81643" lon="3.80251">
        <ele>132</ele>
        <time>2019-10-26T11:37:54.000Z</time>
      </trkpt>
      <trkpt lat="47.8164" lon="3.80252">
        <ele>132</ele>
        <time>2019-10-26T11:37:55.000Z</time>
      </trkpt>
      <trkpt lat="47.81638" lon="3.80253">
        <ele>132</ele>
        <time>2019-10-26T11:37:56.000Z</time>
      </trkpt>
      <trkpt lat="47.81635" lon="3.80254">
        <ele>132</ele>
        <time>2019-10-26T11:37:57.000Z</time>
      </trkpt>
      <trkpt lat="47.81633" lon="3.80255">
        <ele>132</ele>
        <time>2019-10-26T11:37:58.000Z</time>
      </trkpt>
      <trkpt lat="47.81631" lon="3.80256">
        <ele>132</ele>
        <time>2019-10-26T11:37:59.000Z</time>
      </trkpt>
      <trkpt lat="47.81628" lon="3.80256">
        <ele>132</ele>
        <time>2019-10-26T11:38:00.000Z</time>
      </trkpt>
      <trkpt lat="47.81626" lon="3.80257">
        <ele>132</ele>
        <time>2019-10-26T11:38:01.000Z</time>
      </trkpt>
      <trkpt lat="47.81624" lon="3.80258">
        <ele>132</ele>
        <time>2019-10-26T11:38:02.000Z</time>
      </trkpt>
      <trkpt lat="47.81622" lon="3.80258">
        <ele>133</ele>
        <time>2019-10-26T11:38:03.000Z</time>
      </trkpt>
      <trkpt lat="47.8162" lon="3.80259">
        <ele>133</ele>
        <time>2019-10-26T11:38:04.000Z</time>
      </trkpt>
      <trkpt lat="47.81617" lon="3.8026">
        <ele>133</ele>
        <time>2019-10-26T11:38:05.000Z</time>
      </trkpt>
      <trkpt lat="47.81615" lon="3.80261">
        <ele>133</ele>
        <time>2019-10-26T11:38:06.000Z</time>
      </trkpt>
      <trkpt lat="47.81613" lon="3.80261">
        <ele>133</ele>
        <time>2019-10-26T11:38:07.000Z</time>
      </trkpt>
      <trkpt lat="47.81611" lon="3.80261">
        <ele>133</ele>
        <time>2019-10-26T11:38:08.000Z</time>
      </trkpt>
      <trkpt lat="47.81608" lon="3.80262">
        <ele>133</ele>
        <time>2019-10-26T11:38:09.000Z</time>
      </trkpt>
      <trkpt lat="47.81606" lon="3.80262">
        <ele>133</ele>
        <time>2019-10-26T11:38:10.000Z</time>
      </trkpt>
      <trkpt lat="47.81604" lon="3.80263">
        <ele>133</ele>
        <time>2019-10-26T11:38:11.000Z</time>
      </trkpt>
      <trkpt lat="47.81601" lon="3.80263">
        <ele>133</ele>
        <time>2019-10-26T11:38:12.000Z</time>
      </trkpt>
      <trkpt lat="47.81599" lon="3.80263">
        <ele>133</ele>
        <time>2019-10-26T11:38:13.000Z</time>
      </trkpt>
      <trkpt lat="47.81597" lon="3.80263">
        <ele>133</ele>
        <time>2019-10-26T11:38:14.000Z</time>
      </trkpt>
      <trkpt lat="47.81595" lon="3.80263">
        <ele>133</ele>
        <time>2019-10-26T11:38:15.000Z</time>
      </trkpt>
      <trkpt lat="47.81592" lon="3.80263">
        <ele>133</ele>
        <time>2019-10-26T11:38:16.000Z</time>
      </trkpt>
      <trkpt lat="47.8159" lon="3.80264">
        <ele>133</ele>
        <time>2019-10-26T11:38:17.000Z</time>
      </trkpt>
      <trkpt lat="47.81588" lon="3.80265">
        <ele>133</ele>
        <time>2019-10-26T11:38:18.000Z</time>
      </trkpt>
      <trkpt lat="47.81585" lon="3.80266">
        <ele>133</ele>
        <time>2019-10-26T11:38:19.000Z</time>
      </trkpt>
      <trkpt lat="47.81583" lon="3.80266">
        <ele>133</ele>
        <time>2019-10-26T11:38:20.000Z</time>
      </trkpt>
      <trkpt lat="47.81581" lon="3.80267">
        <ele>133</ele>
        <time>2019-10-26T11:38:21.000Z</time>
      </trkpt>
      <trkpt lat="47.81579" lon="3.80268">
        <ele>133</ele>
        <time>2019-10-26T11:38:22.000Z</time>
      </trkpt>
      <trkpt lat="47.81576" lon="3.80269">
        <ele>133</ele>
        <time>2019-10-26T11:38:23.000Z</time>
      </trkpt>
      <trkpt lat="47.81574" lon="3.8027">
        <ele>133</ele>
        <time>2019-10-26T11:38:24.000Z</time>
      </trkpt>
      <trkpt lat="47.81572" lon="3.80271">
        <ele>133</ele>
        <time>2019-10-26T11:38:25.000Z</time>
      </trkpt>
      <trkpt lat="47.81569" lon="3.80272">
        <ele>133</ele>
        <time>2019-10-26T11:38:26.000Z</time>
      </trkpt>
      <trkpt lat="47.81567" lon="3.80273">
        <ele>133</ele>
        <time>2019-10-26T11:38:27.000Z</time>
      </trkpt>
      <trkpt lat="47.81565" lon="3.80275">
        <ele>133</ele>
        <time>2019-10-26T11:38:28.000Z</time>
      </trkpt>
      <trkpt lat="47.81563" lon="3.80276">
        <ele>133</ele>
        <time>2019-10-26T11:38:29.000Z</time>
      </trkpt>
      <trkpt lat="47.81561" lon="3.80277">
        <ele>133</ele>
        <time>2019-10-26T11:38:30.000Z</time>
      </trkpt>
      <trkpt lat="47.81559" lon="3.80278">
        <ele>134</ele>
        <time>2019-10-26T11:38:31.000Z</time>
      </trkpt>
      <trkpt lat="47.81557" lon="3.80279">
        <ele>134</ele>
        <time>2019-10-26T11:38:32.000Z</time>
      </trkpt>
      <trkpt lat="47.81555" lon="3.8028">
        <ele>134</ele>
        <time>2019-10-26T11:38:33.000Z</time>
      </trkpt>
      <trkpt lat="47.81553" lon="3.80281">
        <ele>134</ele>
        <time>2019-10-26T11:38:34.000Z</time>
      </trkpt>
      <trkpt lat="47.81551" lon="3.80281">
        <ele>134</ele>
        <time>2019-10-26T11:38:35.000Z</time>
      </trkpt>
      <trkpt lat="47.81548" lon="3.80281">
        <ele>134</ele>
        <time>2019-10-26T11:38:36.000Z</time>
      </trkpt>
      <trkpt lat="47.81546" lon="3.8028">
        <ele>134</ele>
        <time>2019-10-26T11:38:37.000Z</time>
      </trkpt>
      <trkpt lat="47.81544" lon="3.80279">
        <ele>134</ele>
        <time>2019-10-26T11:38:38.000Z</time>
      </trkpt>
      <trkpt lat="47.81542" lon="3.80278">
        <ele>134</ele>
        <time>2019-10-26T11:38:39.000Z</time>
      </trkpt>
      <trkpt lat="47.81541" lon="3.80275">
        <ele>134</ele>
        <time>2019-10-26T11:38:40.000Z</time>
      </trkpt>
      <trkpt lat="47.81539" lon="3.80273">
        <ele>134</ele>
        <time>2019-10-26T11:38:41.000Z</time>
      </trkpt>
      <trkpt lat="47.81538" lon="3.80269">
        <ele>134</ele>
        <time>2019-10-26T11:38:42.000Z</time>
      </trkpt>
      <trkpt lat="47.81538" lon="3.80266">
        <ele>134</ele>
        <time>2019-10-26T11:38:43.000Z</time>
      </trkpt>
      <trkpt lat="47.81537" lon="3.80262">
        <ele>134</ele>
        <time>2019-10-26T11:38:44.000Z</time>
      </trkpt>
      <trkpt lat="47.81537" lon="3.80258">
        <ele>133</ele>
        <time>2019-10-26T11:38:45.000Z</time>
      </trkpt>
      <trkpt lat="47.81537" lon="3.80254">
        <ele>133</ele>
        <time>2019-10-26T11:38:46.000Z</time>
      </trkpt>
      <trkpt lat="47.81537" lon="3.8025">
        <ele>133</ele>
        <time>2019-10-26T11:38:47.000Z</time>
      </trkpt>
      <trkpt lat="47.81536" lon="3.80246">
        <ele>133</ele>
        <time>2019-10-26T11:38:48.000Z</time>
      </trkpt>
      <trkpt lat="47.81536" lon="3.80243">
        <ele>133</ele>
        <time>2019-10-26T11:38:49.000Z</time>
      </trkpt>
      <trkpt lat="47.81536" lon="3.80239">
        <ele>133</ele>
        <time>2019-10-26T11:38:50.000Z</time>
      </trkpt>
      <trkpt lat="47.81535" lon="3.80235">
        <ele>133</ele>
        <time>2019-10-26T11:38:51.000Z</time>
      </trkpt>
      <trkpt lat="47.81535" lon="3.80231">
        <ele>133</ele>
        <time>2019-10-26T11:38:52.000Z</time>
      </trkpt>
      <trkpt lat="47.81535" lon="3.80227">
        <ele>133</ele>
        <time>2019-10-26T11:38:53.000Z</time>
      </trkpt>
      <trkpt lat="47.81535" lon="3.80223">
        <ele>133</ele>
        <time>2019-10-26T11:38:54.000Z</time>
      </trkpt>
      <trkpt lat="47.81535" lon="3.80218">
        <ele>133</ele>
        <time>2019-10-26T11:38:55.000Z</time>
      </trkpt>
      <trkpt lat="47.81535" lon="3.80215">
        <ele>133</ele>
        <time>2019-10-26T11:38:56.000Z</time>
      </trkpt>
      <trkpt lat="47.81535" lon="3.80211">
        <ele>133</ele>
        <time>2019-10-26T11:38:57.000Z</time>
      </trkpt>
      <trkpt lat="47.81535" lon="3.80207">
        <ele>133</ele>
        <time>2019-10-26T11:38:58.000Z</time>
      </trkpt>
      <trkpt lat="47.81535" lon="3.80204">
        <ele>133</ele>
        <time>2019-10-26T11:38:59.000Z</time>
      </trkpt>
      <trkpt lat="47.81535" lon="3.802">
        <ele>133</ele>
        <time>2019-10-26T11:39:00.000Z</time>
      </trkpt>
      <trkpt lat="47.81534" lon="3.80196">
        <ele>133</ele>
        <time>2019-10-26T11:39:01.000Z</time>
      </trkpt>
      <trkpt lat="47.81534" lon="3.80193">
        <ele>133</ele>
        <time>2019-10-26T11:39:02.000Z</time>
      </trkpt>
      <trkpt lat="47.81535" lon="3.80189">
        <ele>133</ele>
        <time>2019-10-26T11:39:03.000Z</time>
      </trkpt>
      <trkpt lat="47.81535" lon="3.80185">
        <ele>133</ele>
        <time>2019-10-26T11:39:04.000Z</time>
      </trkpt>
      <trkpt lat="47.81535" lon="3.80182">
        <ele>133</ele>
        <time>2019-10-26T11:39:05.000Z</time>
      </trkpt>
      <trkpt lat="47.81535" lon="3.80178">
        <ele>133</ele>
        <time>2019-10-26T11:39:06.000Z</time>
      </trkpt>
      <trkpt lat="47.81534" lon="3.80174">
        <ele>133</ele>
        <time>2019-10-26T11:39:07.000Z</time>
      </trkpt>
      <trkpt lat="47.81534" lon="3.8017">
        <ele>133</ele>
        <time>2019-10-26T11:39:08.000Z</time>
      </trkpt>
      <trkpt lat="47.81534" lon="3.80167">
        <ele>133</ele>
        <time>2019-10-26T11:39:09.000Z</time>
      </trkpt>
      <trkpt lat="47.81535" lon="3.80163">
        <ele>133</ele>
        <time>2019-10-26T11:39:10.000Z</time>
      </trkpt>
      <trkpt lat="47.81535" lon="3.8016">
        <ele>133</ele>
        <time>2019-10-26T11:39:11.000Z</time>
      </trkpt>
      <trkpt lat="47.81536" lon="3.80158">
        <ele>133</ele>
        <time>2019-10-26T11:39:12.000Z</time>
      </trkpt>
      <trkpt lat="47.81538" lon="3.80155">
        <ele>133</ele>
        <time>2019-10-26T11:39:13.000Z</time>
      </trkpt>
      <trkpt lat="47.81539" lon="3.80154">
        <ele>133</ele>
        <time>2019-10-26T11:39:14.000Z</time>
      </trkpt>
      <trkpt lat="47.81542" lon="3.80153">
        <ele>133</ele>
        <time>2019-10-26T11:39:15.000Z</time>
      </trkpt>
      <trkpt lat="47.81544" lon="3.80153">
        <ele>133</ele>
        <time>2019-10-26T11:39:16.000Z</time>
      </trkpt>
      <trkpt lat="47.81546" lon="3.80153">
        <ele>133</ele>
        <time>2019-10-26T11:39:17.000Z</time>
      </trkpt>
      <trkpt lat="47.81549" lon="3.80153">
        <ele>133</ele>
        <time>2019-10-26T11:39:18.000Z</time>
      </trkpt>
      <trkpt lat="47.81551" lon="3.80154">
        <ele>133</ele>
        <time>2019-10-26T11:39:19.000Z</time>
      </trkpt>
      <trkpt lat="47.81553" lon="3.80154">
        <ele>133</ele>
        <time>2019-10-26T11:39:20.000Z</time>
      </trkpt>
      <trkpt lat="47.81555" lon="3.80154">
        <ele>133</ele>
        <time>2019-10-26T11:39:21.000Z</time>
      </trkpt>
      <trkpt lat="47.81557" lon="3.80154">
        <ele>133</ele>
        <time>2019-10-26T11:39:22.000Z</time>
      </trkpt>
      <trkpt lat="47.81559" lon="3.80153">
        <ele>133</ele>
        <time>2019-10-26T11:39:23.000Z</time>
      </trkpt>
      <trkpt lat="47.81562" lon="3.80152">
        <ele>133</ele>
        <time>2019-10-26T11:39:24.000Z</time>
      </trkpt>
      <trkpt lat="47.81564" lon="3.80151">
        <ele>133</ele>
        <time>2019-10-26T11:39:25.000Z</time>
      </trkpt>
      <trkpt lat="47.81566" lon="3.8015">
        <ele>133</ele>
        <time>2019-10-26T11:39:26.000Z</time>
      </trkpt>
      <trkpt lat="47.81568" lon="3.80149">
        <ele>133</ele>
        <time>2019-10-26T11:39:27.000Z</time>
      </trkpt>
      <trkpt lat="47.8157" lon="3.80147">
        <ele>133</ele>
        <time>2019-10-26T11:39:28.000Z</time>
      </trkpt>
      <trkpt lat="47.81572" lon="3.80146">
        <ele>133</ele>
        <time>2019-10-26T11:39:29.000Z</time>
      </trkpt>
      <trkpt lat="47.81575" lon="3.80143">
        <ele>133</ele>
        <time>2019-10-26T11:39:30.000Z</time>
      </trkpt>
      <trkpt lat="47.81577" lon="3.8014">
        <ele>133</ele>
        <time>2019-10-26T11:39:31.000Z</time>
      </trkpt>
      <trkpt lat="47.81578" lon="3.80137">
        <ele>133</ele>
        <time>2019-10-26T11:39:32.000Z</time>
      </trkpt>
      <trkpt lat="47.8158" lon="3.80134">
        <ele>133</ele>
        <time>2019-10-26T11:39:33.000Z</time>
      </trkpt>
      <trkpt lat="47.81581" lon="3.8013">
        <ele>133</ele>
        <time>2019-10-26T11:39:34.000Z</time>
      </trkpt>
      <trkpt lat="47.81582" lon="3.80126">
        <ele>133</ele>
        <time>2019-10-26T11:39:35.000Z</time>
      </trkpt>
      <trkpt lat="47.81583" lon="3.80122">
        <ele>132</ele>
        <time>2019-10-26T11:39:36.000Z</time>
      </trkpt>
      <trkpt lat="47.81584" lon="3.80118">
        <ele>132</ele>
        <time>2019-10-26T11:39:37.000Z</time>
      </trkpt>
      <trkpt lat="47.81585" lon="3.80114">
        <ele>133</ele>
        <time>2019-10-26T11:39:38.000Z</time>
      </trkpt>
      <trkpt lat="47.81585" lon="3.8011">
        <ele>133</ele>
        <time>2019-10-26T11:39:39.000Z</time>
      </trkpt>
      <trkpt lat="47.81586" lon="3.80106">
        <ele>133</ele>
        <time>2019-10-26T11:39:40.000Z</time>
      </trkpt>
      <trkpt lat="47.81586" lon="3.80102">
        <ele>133</ele>
        <time>2019-10-26T11:39:41.000Z</time>
      </trkpt>
      <trkpt lat="47.81586" lon="3.80098">
        <ele>133</ele>
        <time>2019-10-26T11:39:42.000Z</time>
      </trkpt>
      <trkpt lat="47.81586" lon="3.80095">
        <ele>133</ele>
        <time>2019-10-26T11:39:43.000Z</time>
      </trkpt>
      <trkpt lat="47.81586" lon="3.80091">
        <ele>133</ele>
        <time>2019-10-26T11:39:44.000Z</time>
      </trkpt>
      <trkpt lat="47.81586" lon="3.80088">
        <ele>133</ele>
        <time>2019-10-26T11:39:45.000Z</time>
      </trkpt>
      <trkpt lat="47.81586" lon="3.80085">
        <ele>133</ele>
        <time>2019-10-26T11:39:46.000Z</time>
      </trkpt>
      <trkpt lat="47.81586" lon="3.80083">
        <ele>133</ele>
        <time>2019-10-26T11:39:47.000Z</time>
      </trkpt>
      <trkpt lat="47.81586" lon="3.80081">
        <ele>133</ele>
        <time>2019-10-26T11:39:48.000Z</time>
      </trkpt>
      <trkpt lat="47.81587" lon="3.80079">
        <ele>133</ele>
        <time>2019-10-26T11:39:49.000Z</time>
      </trkpt>
      <trkpt lat="47.81588" lon="3.80078">
        <ele>133</ele>
        <time>2019-10-26T11:39:50.000Z</time>
      </trkpt>
      <trkpt lat="47.81589" lon="3.80078">
        <ele>133</ele>
        <time>2019-10-26T11:39:51.000Z</time>
      </trkpt>
      <trkpt lat="47.8159" lon="3.80077">
        <ele>133</ele>
        <time>2019-10-26T11:39:52.000Z</time>
      </trkpt>
      <trkpt lat="47.81592" lon="3.80077">
        <ele>133</ele>
        <time>2019-10-26T11:39:53.000Z</time>
      </trkpt>
      <trkpt lat="47.81594" lon="3.80076">
        <ele>133</ele>
        <time>2019-10-26T11:39:54.000Z</time>
      </trkpt>
      <trkpt lat="47.81597" lon="3.80075">
        <ele>134</ele>
        <time>2019-10-26T11:39:55.000Z</time>
      </trkpt>
      <trkpt lat="47.81599" lon="3.80074">
        <ele>134</ele>
        <time>2019-10-26T11:39:56.000Z</time>
      </trkpt>
      <trkpt lat="47.81601" lon="3.80072">
        <ele>134</ele>
        <time>2019-10-26T11:39:57.000Z</time>
      </trkpt>
      <trkpt lat="47.81603" lon="3.80069">
        <ele>134</ele>
        <time>2019-10-26T11:39:58.000Z</time>
      </trkpt>
      <trkpt lat="47.81605" lon="3.80066">
        <ele>134</ele>
        <time>2019-10-26T11:39:59.000Z</time>
      </trkpt>
      <trkpt lat="47.81606" lon="3.80062">
        <ele>134</ele>
        <time>2019-10-26T11:40:00.000Z</time>
      </trkpt>
      <trkpt lat="47.81607" lon="3.80058">
        <ele>134</ele>
        <time>2019-10-26T11:40:01.000Z</time>
      </trkpt>
      <trkpt lat="47.81608" lon="3.80054">
        <ele>134</ele>
        <time>2019-10-26T11:40:02.000Z</time>
      </trkpt>
      <trkpt lat="47.81608" lon="3.8005">
        <ele>134</ele>
        <time>2019-10-26T11:40:03.000Z</time>
      </trkpt>
      <trkpt lat="47.81608" lon="3.80046">
        <ele>134</ele>
        <time>2019-10-26T11:40:04.000Z</time>
      </trkpt>
      <trkpt lat="47.81608" lon="3.80043">
        <ele>134</ele>
        <time>2019-10-26T11:40:05.000Z</time>
      </trkpt>
      <trkpt lat="47.81608" lon="3.80039">
        <ele>134</ele>
        <time>2019-10-26T11:40:06.000Z</time>
      </trkpt>
      <trkpt lat="47.81607" lon="3.80036">
        <ele>135</ele>
        <time>2019-10-26T11:40:07.000Z</time>
      </trkpt>
      <trkpt lat="47.81607" lon="3.80033">
        <ele>135</ele>
        <time>2019-10-26T11:40:08.000Z</time>
      </trkpt>
      <trkpt lat="47.81607" lon="3.80031">
        <ele>135</ele>
        <time>2019-10-26T11:40:09.000Z</time>
      </trkpt>
      <trkpt lat="47.81607" lon="3.80028">
        <ele>135</ele>
        <time>2019-10-26T11:40:10.000Z</time>
      </trkpt>
      <trkpt lat="47.81608" lon="3.80026">
        <ele>135</ele>
        <time>2019-10-26T11:40:11.000Z</time>
      </trkpt>
      <trkpt lat="47.81609" lon="3.80024">
        <ele>136</ele>
        <time>2019-10-26T11:40:12.000Z</time>
      </trkpt>
      <trkpt lat="47.8161" lon="3.80023">
        <ele>136</ele>
        <time>2019-10-26T11:40:13.000Z</time>
      </trkpt>
      <trkpt lat="47.81611" lon="3.80021">
        <ele>136</ele>
        <time>2019-10-26T11:40:14.000Z</time>
      </trkpt>
      <trkpt lat="47.81613" lon="3.80021">
        <ele>137</ele>
        <time>2019-10-26T11:40:15.000Z</time>
      </trkpt>
      <trkpt lat="47.81615" lon="3.8002">
        <ele>137</ele>
        <time>2019-10-26T11:40:16.000Z</time>
      </trkpt>
      <trkpt lat="47.81617" lon="3.8002">
        <ele>137</ele>
        <time>2019-10-26T11:40:17.000Z</time>
      </trkpt>
      <trkpt lat="47.8162" lon="3.8002">
        <ele>137</ele>
        <time>2019-10-26T11:40:18.000Z</time>
      </trkpt>
      <trkpt lat="47.81622" lon="3.8002">
        <ele>138</ele>
        <time>2019-10-26T11:40:19.000Z</time>
      </trkpt>
      <trkpt lat="47.81624" lon="3.8002">
        <ele>138</ele>
        <time>2019-10-26T11:40:20.000Z</time>
      </trkpt>
      <trkpt lat="47.81626" lon="3.8002">
        <ele>138</ele>
        <time>2019-10-26T11:40:21.000Z</time>
      </trkpt>
      <trkpt lat="47.81628" lon="3.80019">
        <ele>138</ele>
        <time>2019-10-26T11:40:22.000Z</time>
      </trkpt>
      <trkpt lat="47.8163" lon="3.80019">
        <ele>139</ele>
        <time>2019-10-26T11:40:23.000Z</time>
      </trkpt>
      <trkpt lat="47.81632" lon="3.80019">
        <ele>139</ele>
        <time>2019-10-26T11:40:24.000Z</time>
      </trkpt>
      <trkpt lat="47.81634" lon="3.80018">
        <ele>139</ele>
        <time>2019-10-26T11:40:25.000Z</time>
      </trkpt>
      <trkpt lat="47.81636" lon="3.80017">
        <ele>139</ele>
        <time>2019-10-26T11:40:26.000Z</time>
      </trkpt>
      <trkpt lat="47.81639" lon="3.80016">
        <ele>139</ele>
        <time>2019-10-26T11:40:27.000Z</time>
      </trkpt>
      <trkpt lat="47.81641" lon="3.80016">
        <ele>140</ele>
        <time>2019-10-26T11:40:28.000Z</time>
      </trkpt>
      <trkpt lat="47.81644" lon="3.80015">
        <ele>140</ele>
        <time>2019-10-26T11:40:29.000Z</time>
      </trkpt>
      <trkpt lat="47.81647" lon="3.80014">
        <ele>140</ele>
        <time>2019-10-26T11:40:30.000Z</time>
      </trkpt>
      <trkpt lat="47.81649" lon="3.80013">
        <ele>141</ele>
        <time>2019-10-26T11:40:31.000Z</time>
      </trkpt>
      <trkpt lat="47.81652" lon="3.80012">
        <ele>141</ele>
        <time>2019-10-26T11:40:32.000Z</time>
      </trkpt>
      <trkpt lat="47.81655" lon="3.80011">
        <ele>142</ele>
        <time>2019-10-26T11:40:33.000Z</time>
      </trkpt>
      <trkpt lat="47.81657" lon="3.80009">
        <ele>142</ele>
        <time>2019-10-26T11:40:34.000Z</time>
      </trkpt>
      <trkpt lat="47.8166" lon="3.80009">
        <ele>142</ele>
        <time>2019-10-26T11:40:35.000Z</time>
      </trkpt>
      <trkpt lat="47.81663" lon="3.80009">
        <ele>142</ele>
        <time>2019-10-26T11:40:36.000Z</time>
      </trkpt>
      <trkpt lat="47.81666" lon="3.80011">
        <ele>143</ele>
        <time>2019-10-26T11:40:37.000Z</time>
      </trkpt>
      <trkpt lat="47.81668" lon="3.80013">
        <ele>143</ele>
        <time>2019-10-26T11:40:38.000Z</time>
      </trkpt>
      <trkpt lat="47.8167" lon="3.80016">
        <ele>143</ele>
        <time>2019-10-26T11:40:39.000Z</time>
      </trkpt>
      <trkpt lat="47.81672" lon="3.80019">
        <ele>143</ele>
        <time>2019-10-26T11:40:40.000Z</time>
      </trkpt>
      <trkpt lat="47.81674" lon="3.80023">
        <ele>143</ele>
        <time>2019-10-26T11:40:41.000Z</time>
      </trkpt>
      <trkpt lat="47.81676" lon="3.80026">
        <ele>142</ele>
        <time>2019-10-26T11:40:42.000Z</time>
      </trkpt>
      <trkpt lat="47.81678" lon="3.8003">
        <ele>142</ele>
        <time>2019-10-26T11:40:43.000Z</time>
      </trkpt>
      <trkpt lat="47.8168" lon="3.80034">
        <ele>142</ele>
        <time>2019-10-26T11:40:44.000Z</time>
      </trkpt>
      <trkpt lat="47.81681" lon="3.80037">
        <ele>142</ele>
        <time>2019-10-26T11:40:45.000Z</time>
      </trkpt>
      <trkpt lat="47.81683" lon="3.80039">
        <ele>141</ele>
        <time>2019-10-26T11:40:46.000Z</time>
      </trkpt>
      <trkpt lat="47.81684" lon="3.80041">
        <ele>141</ele>
        <time>2019-10-26T11:40:47.000Z</time>
      </trkpt>
      <trkpt lat="47.81686" lon="3.80042">
        <ele>141</ele>
        <time>2019-10-26T11:40:48.000Z</time>
      </trkpt>
      <trkpt lat="47.81688" lon="3.80042">
        <ele>141</ele>
        <time>2019-10-26T11:40:49.000Z</time>
      </trkpt>
      <trkpt lat="47.81689" lon="3.80041">
        <ele>141</ele>
        <time>2019-10-26T11:40:50.000Z</time>
      </trkpt>
      <trkpt lat="47.81692" lon="3.80039">
        <ele>140</ele>
        <time>2019-10-26T11:40:51.000Z</time>
      </trkpt>
      <trkpt lat="47.81694" lon="3.80037">
        <ele>140</ele>
        <time>2019-10-26T11:40:52.000Z</time>
      </trkpt>
      <trkpt lat="47.81696" lon="3.80035">
        <ele>140</ele>
        <time>2019-10-26T11:40:53.000Z</time>
      </trkpt>
      <trkpt lat="47.81698" lon="3.80033">
        <ele>139</ele>
        <time>2019-10-26T11:40:54.000Z</time>
      </trkpt>
      <trkpt lat="47.81701" lon="3.80031">
        <ele>139</ele>
        <time>2019-10-26T11:40:55.000Z</time>
      </trkpt>
      <trkpt lat="47.81703" lon="3.80029">
        <ele>139</ele>
        <time>2019-10-26T11:40:56.000Z</time>
      </trkpt>
      <trkpt lat="47.81705" lon="3.80028">
        <ele>139</ele>
        <time>2019-10-26T11:40:57.000Z</time>
      </trkpt>
      <trkpt lat="47.81708" lon="3.80027">
        <ele>139</ele>
        <time>2019-10-26T11:40:58.000Z</time>
      </trkpt>
      <trkpt lat="47.8171" lon="3.80027">
        <ele>138</ele>
        <time>2019-10-26T11:40:59.000Z</time>
      </trkpt>
      <trkpt lat="47.81713" lon="3.80028">
        <ele>138</ele>
        <time>2019-10-26T11:41:00.000Z</time>
      </trkpt>
      <trkpt lat="47.81716" lon="3.8003">
        <ele>138</ele>
        <time>2019-10-26T11:41:01.000Z</time>
      </trkpt>
      <trkpt lat="47.81718" lon="3.80032">
        <ele>138</ele>
        <time>2019-10-26T11:41:02.000Z</time>
      </trkpt>
      <trkpt lat="47.8172" lon="3.80035">
        <ele>138</ele>
        <time>2019-10-26T11:41:03.000Z</time>
      </trkpt>
      <trkpt lat="47.81722" lon="3.80038">
        <ele>137</ele>
        <time>2019-10-26T11:41:04.000Z</time>
      </trkpt>
      <trkpt lat="47.81724" lon="3.80041">
        <ele>137</ele>
        <time>2019-10-26T11:41:05.000Z</time>
      </trkpt>
      <trkpt lat="47.81725" lon="3.80044">
        <ele>137</ele>
        <time>2019-10-26T11:41:06.000Z</time>
      </trkpt>
      <trkpt lat="47.81726" lon="3.80047">
        <ele>136</ele>
        <time>2019-10-26T11:41:07.000Z</time>
      </trkpt>
      <trkpt lat="47.81728" lon="3.8005">
        <ele>136</ele>
        <time>2019-10-26T11:41:08.000Z</time>
      </trkpt>
      <trkpt lat="47.81729" lon="3.80053">
        <ele>136</ele>
        <time>2019-10-26T11:41:09.000Z</time>
      </trkpt>
      <trkpt lat="47.8173" lon="3.80055">
        <ele>135</ele>
        <time>2019-10-26T11:41:10.000Z</time>
      </trkpt>
      <trkpt lat="47.81731" lon="3.80056">
        <ele>135</ele>
        <time>2019-10-26T11:41:11.000Z</time>
      </trkpt>
      <trkpt lat="47.81732" lon="3.80057">
        <ele>135</ele>
        <time>2019-10-26T11:41:12.000Z</time>
      </trkpt>
      <trkpt lat="47.81735" lon="3.80056">
        <ele>135</ele>
        <time>2019-10-26T11:41:13.000Z</time>
      </trkpt>
      <trkpt lat="47.81737" lon="3.80054">
        <ele>135</ele>
        <time>2019-10-26T11:41:14.000Z</time>
      </trkpt>
      <trkpt lat="47.8174" lon="3.80052">
        <ele>135</ele>
        <time>2019-10-26T11:41:15.000Z</time>
      </trkpt>
      <trkpt lat="47.81742" lon="3.8005">
        <ele>135</ele>
        <time>2019-10-26T11:41:16.000Z</time>
      </trkpt>
      <trkpt lat="47.81745" lon="3.80048">
        <ele>135</ele>
        <time>2019-10-26T11:41:17.000Z</time>
      </trkpt>
      <trkpt lat="47.81747" lon="3.80046">
        <ele>135</ele>
        <time>2019-10-26T11:41:18.000Z</time>
      </trkpt>
      <trkpt lat="47.8175" lon="3.80044">
        <ele>135</ele>
        <time>2019-10-26T11:41:19.000Z</time>
      </trkpt>
      <trkpt lat="47.81752" lon="3.80042">
        <ele>135</ele>
        <time>2019-10-26T11:41:20.000Z</time>
      </trkpt>
      <trkpt lat="47.81755" lon="3.8004">
        <ele>135</ele>
        <time>2019-10-26T11:41:21.000Z</time>
      </trkpt>
      <trkpt lat="47.81757" lon="3.80038">
        <ele>135</ele>
        <time>2019-10-26T11:41:22.000Z</time>
      </trkpt>
      <trkpt lat="47.81759" lon="3.80036">
        <ele>134</ele>
        <time>2019-10-26T11:41:23.000Z</time>
      </trkpt>
      <trkpt lat="47.81761" lon="3.80034">
        <ele>134</ele>
        <time>2019-10-26T11:41:24.000Z</time>
      </trkpt>
      <trkpt lat="47.81764" lon="3.80032">
        <ele>134</ele>
        <time>2019-10-26T11:41:25.000Z</time>
      </trkpt>
      <trkpt lat="47.81766" lon="3.8003">
        <ele>134</ele>
        <time>2019-10-26T11:41:26.000Z</time>
      </trkpt>
      <trkpt lat="47.81769" lon="3.80028">
        <ele>134</ele>
        <time>2019-10-26T11:41:27.000Z</time>
      </trkpt>
      <trkpt lat="47.81771" lon="3.80027">
        <ele>134</ele>
        <time>2019-10-26T11:41:28.000Z</time>
      </trkpt>
      <trkpt lat="47.81774" lon="3.80025">
        <ele>134</ele>
        <time>2019-10-26T11:41:29.000Z</time>
      </trkpt>
      <trkpt lat="47.81776" lon="3.80023">
        <ele>134</ele>
        <time>2019-10-26T11:41:30.000Z</time>
      </trkpt>
      <trkpt lat="47.81778" lon="3.80021">
        <ele>134</ele>
        <time>2019-10-26T11:41:31.000Z</time>
      </trkpt>
      <trkpt lat="47.81781" lon="3.80019">
        <ele>134</ele>
        <time>2019-10-26T11:41:32.000Z</time>
      </trkpt>
      <trkpt lat="47.81784" lon="3.80018">
        <ele>133</ele>
        <time>2019-10-26T11:41:33.000Z</time>
      </trkpt>
      <trkpt lat="47.81786" lon="3.80016">
        <ele>133</ele>
        <time>2019-10-26T11:41:34.000Z</time>
      </trkpt>
      <trkpt lat="47.81788" lon="3.80014">
        <ele>133</ele>
        <time>2019-10-26T11:41:35.000Z</time>
      </trkpt>
      <trkpt lat="47.81791" lon="3.80013">
        <ele>133</ele>
        <time>2019-10-26T11:41:36.000Z</time>
      </trkpt>
      <trkpt lat="47.81793" lon="3.80011">
        <ele>133</ele>
        <time>2019-10-26T11:41:37.000Z</time>
      </trkpt>
      <trkpt lat="47.81795" lon="3.8001">
        <ele>133</ele>
        <time>2019-10-26T11:41:38.000Z</time>
      </trkpt>
      <trkpt lat="47.81798" lon="3.80008">
        <ele>133</ele>
        <time>2019-10-26T11:41:39.000Z</time>
      </trkpt>
      <trkpt lat="47.818" lon="3.80006">
        <ele>133</ele>
        <time>2019-10-26T11:41:40.000Z</time>
      </trkpt>
      <trkpt lat="47.81802" lon="3.80005">
        <ele>133</ele>
        <time>2019-10-26T11:41:41.000Z</time>
      </trkpt>
      <trkpt lat="47.81805" lon="3.80004">
        <ele>133</ele>
        <time>2019-10-26T11:41:42.000Z</time>
      </trkpt>
      <trkpt lat="47.81807" lon="3.80002">
        <ele>132</ele>
        <time>2019-10-26T11:41:43.000Z</time>
      </trkpt>
      <trkpt lat="47.81809" lon="3.80001">
        <ele>132</ele>
        <time>2019-10-26T11:41:44.000Z</time>
      </trkpt>
      <trkpt lat="47.81812" lon="3.79999">
        <ele>132</ele>
        <time>2019-10-26T11:41:45.000Z</time>
      </trkpt>
      <trkpt lat="47.81814" lon="3.79998">
        <ele>132</ele>
        <time>2019-10-26T11:41:46.000Z</time>
      </trkpt>
      <trkpt lat="47.81817" lon="3.79997">
        <ele>132</ele>
        <time>2019-10-26T11:41:47.000Z</time>
      </trkpt>
      <trkpt lat="47.81819" lon="3.79996">
        <ele>132</ele>
        <time>2019-10-26T11:41:48.000Z</time>
      </trkpt>
      <trkpt lat="47.81821" lon="3.79995">
        <ele>132</ele>
        <time>2019-10-26T11:41:49.000Z</time>
      </trkpt>
      <trkpt lat="47.81824" lon="3.79994">
        <ele>132</ele>
        <time>2019-10-26T11:41:50.000Z</time>
      </trkpt>
      <trkpt lat="47.81826" lon="3.79993">
        <ele>132</ele>
        <time>2019-10-26T11:41:51.000Z</time>
      </trkpt>
      <trkpt lat="47.81829" lon="3.79993">
        <ele>132</ele>
        <time>2019-10-26T11:41:52.000Z</time>
      </trkpt>
      <trkpt lat="47.81832" lon="3.79993">
        <ele>132</ele>
        <time>2019-10-26T11:41:53.000Z</time>
      </trkpt>
      <trkpt lat="47.81834" lon="3.79993">
        <ele>132</ele>
        <time>2019-10-26T11:41:54.000Z</time>
      </trkpt>
      <trkpt lat="47.81837" lon="3.79993">
        <ele>132</ele>
        <time>2019-10-26T11:41:55.000Z</time>
      </trkpt>
      <trkpt lat="47.81839" lon="3.79993">
        <ele>132</ele>
        <time>2019-10-26T11:41:56.000Z</time>
      </trkpt>
      <trkpt lat="47.81842" lon="3.79993">
        <ele>132</ele>
        <time>2019-10-26T11:41:57.000Z</time>
      </trkpt>
      <trkpt lat="47.81845" lon="3.79993">
        <ele>132</ele>
        <time>2019-10-26T11:41:58.000Z</time>
      </trkpt>
      <trkpt lat="47.81847" lon="3.79994">
        <ele>132</ele>
        <time>2019-10-26T11:41:59.000Z</time>
      </trkpt>
      <trkpt lat="47.8185" lon="3.79994">
        <ele>132</ele>
        <time>2019-10-26T11:42:00.000Z</time>
      </trkpt>
      <trkpt lat="47.81852" lon="3.79995">
        <ele>132</ele>
        <time>2019-10-26T11:42:01.000Z</time>
      </trkpt>
      <trkpt lat="47.81855" lon="3.79996">
        <ele>132</ele>
        <time>2019-10-26T11:42:02.000Z</time>
      </trkpt>
      <trkpt lat="47.81857" lon="3.79997">
        <ele>133</ele>
        <time>2019-10-26T11:42:03.000Z</time>
      </trkpt>
      <trkpt lat="47.81859" lon="3.79997">
        <ele>133</ele>
        <time>2019-10-26T11:42:04.000Z</time>
      </trkpt>
      <trkpt lat="47.81862" lon="3.79999">
        <ele>133</ele>
        <time>2019-10-26T11:42:05.000Z</time>
      </trkpt>
      <trkpt lat="47.81864" lon="3.8">
        <ele>133</ele>
        <time>2019-10-26T11:42:06.000Z</time>
      </trkpt>
      <trkpt lat="47.81867" lon="3.80001">
        <ele>133</ele>
        <time>2019-10-26T11:42:07.000Z</time>
      </trkpt>
      <trkpt lat="47.81869" lon="3.80002">
        <ele>133</ele>
        <time>2019-10-26T11:42:08.000Z</time>
      </trkpt>
      <trkpt lat="47.81871" lon="3.80003">
        <ele>133</ele>
        <time>2019-10-26T11:42:09.000Z</time>
      </trkpt>
      <trkpt lat="47.81874" lon="3.80004">
        <ele>133</ele>
        <time>2019-10-26T11:42:10.000Z</time>
      </trkpt>
      <trkpt lat="47.81876" lon="3.80005">
        <ele>133</ele>
        <time>2019-10-26T11:42:11.000Z</time>
      </trkpt>
      <trkpt lat="47.81878" lon="3.80007">
        <ele>133</ele>
        <time>2019-10-26T11:42:12.000Z</time>
      </trkpt>
      <trkpt lat="47.8188" lon="3.80008">
        <ele>133</ele>
        <time>2019-10-26T11:42:13.000Z</time>
      </trkpt>
      <trkpt lat="47.81882" lon="3.8001">
        <ele>133</ele>
        <time>2019-10-26T11:42:14.000Z</time>
      </trkpt>
      <trkpt lat="47.81884" lon="3.80012">
        <ele>133</ele>
        <time>2019-10-26T11:42:15.000Z</time>
      </trkpt>
      <trkpt lat="47.81886" lon="3.80014">
        <ele>133</ele>
        <time>2019-10-26T11:42:16.000Z</time>
      </trkpt>
      <trkpt lat="47.81889" lon="3.80015">
        <ele>134</ele>
        <time>2019-10-26T11:42:17.000Z</time>
      </trkpt>
      <trkpt lat="47.81891" lon="3.80017">
        <ele>134</ele>
        <time>2019-10-26T11:42:18.000Z</time>
      </trkpt>
      <trkpt lat="47.81893" lon="3.80018">
        <ele>134</ele>
        <time>2019-10-26T11:42:19.000Z</time>
      </trkpt>
      <trkpt lat="47.81895" lon="3.8002">
        <ele>134</ele>
        <time>2019-10-26T11:42:20.000Z</time>
      </trkpt>
      <trkpt lat="47.81897" lon="3.80022">
        <ele>134</ele>
        <time>2019-10-26T11:42:21.000Z</time>
      </trkpt>
      <trkpt lat="47.819" lon="3.80024">
        <ele>134</ele>
        <time>2019-10-26T11:42:22.000Z</time>
      </trkpt>
      <trkpt lat="47.81903" lon="3.80025">
        <ele>134</ele>
        <time>2019-10-26T11:42:23.000Z</time>
      </trkpt>
      <trkpt lat="47.81905" lon="3.80027">
        <ele>134</ele>
        <time>2019-10-26T11:42:24.000Z</time>
      </trkpt>
      <trkpt lat="47.81908" lon="3.80029">
        <ele>134</ele>
        <time>2019-10-26T11:42:25.000Z</time>
      </trkpt>
      <trkpt lat="47.81911" lon="3.80031">
        <ele>134</ele>
        <time>2019-10-26T11:42:26.000Z</time>
      </trkpt>
      <trkpt lat="47.81913" lon="3.80032">
        <ele>134</ele>
        <time>2019-10-26T11:42:27.000Z</time>
      </trkpt>
      <trkpt lat="47.81916" lon="3.80033">
        <ele>134</ele>
        <time>2019-10-26T11:42:28.000Z</time>
      </trkpt>
      <trkpt lat="47.81919" lon="3.80034">
        <ele>134</ele>
        <time>2019-10-26T11:42:29.000Z</time>
      </trkpt>
      <trkpt lat="47.81922" lon="3.80035">
        <ele>133</ele>
        <time>2019-10-26T11:42:30.000Z</time>
      </trkpt>
      <trkpt lat="47.81926" lon="3.80036">
        <ele>133</ele>
        <time>2019-10-26T11:42:31.000Z</time>
      </trkpt>
      <trkpt lat="47.81929" lon="3.80036">
        <ele>133</ele>
        <time>2019-10-26T11:42:32.000Z</time>
      </trkpt>
      <trkpt lat="47.81932" lon="3.80035">
        <ele>133</ele>
        <time>2019-10-26T11:42:33.000Z</time>
      </trkpt>
      <trkpt lat="47.81935" lon="3.80034">
        <ele>133</ele>
        <time>2019-10-26T11:42:34.000Z</time>
      </trkpt>
      <trkpt lat="47.81938" lon="3.80032">
        <ele>133</ele>
        <time>2019-10-26T11:42:35.000Z</time>
      </trkpt>
      <trkpt lat="47.8194" lon="3.8003">
        <ele>133</ele>
        <time>2019-10-26T11:42:36.000Z</time>
      </trkpt>
      <trkpt lat="47.81941" lon="3.80027">
        <ele>132</ele>
        <time>2019-10-26T11:42:37.000Z</time>
      </trkpt>
      <trkpt lat="47.81941" lon="3.80023">
        <ele>132</ele>
        <time>2019-10-26T11:42:38.000Z</time>
      </trkpt>
      <trkpt lat="47.8194" lon="3.80019">
        <ele>132</ele>
        <time>2019-10-26T11:42:39.000Z</time>
      </trkpt>
      <trkpt lat="47.81938" lon="3.80016">
        <ele>132</ele>
        <time>2019-10-26T11:42:40.000Z</time>
      </trkpt>
      <trkpt lat="47.81935" lon="3.80012">
        <ele>131</ele>
        <time>2019-10-26T11:42:41.000Z</time>
      </trkpt>
      <trkpt lat="47.81932" lon="3.80009">
        <ele>131</ele>
        <time>2019-10-26T11:42:42.000Z</time>
      </trkpt>
      <trkpt lat="47.8193" lon="3.80006">
        <ele>131</ele>
        <time>2019-10-26T11:42:43.000Z</time>
      </trkpt>
      <trkpt lat="47.81927" lon="3.80003">
        <ele>131</ele>
        <time>2019-10-26T11:42:44.000Z</time>
      </trkpt>
      <trkpt lat="47.81925" lon="3.8">
        <ele>130</ele>
        <time>2019-10-26T11:42:45.000Z</time>
      </trkpt>
      <trkpt lat="47.81922" lon="3.79997">
        <ele>130</ele>
        <time>2019-10-26T11:42:46.000Z</time>
      </trkpt>
      <trkpt lat="47.8192" lon="3.79994">
        <ele>130</ele>
        <time>2019-10-26T11:42:47.000Z</time>
      </trkpt>
      <trkpt lat="47.81918" lon="3.79991">
        <ele>130</ele>
        <time>2019-10-26T11:42:48.000Z</time>
      </trkpt>
      <trkpt lat="47.81915" lon="3.79988">
        <ele>130</ele>
        <time>2019-10-26T11:42:49.000Z</time>
      </trkpt>
      <trkpt lat="47.81913" lon="3.79985">
        <ele>130</ele>
        <time>2019-10-26T11:42:50.000Z</time>
      </trkpt>
      <trkpt lat="47.81911" lon="3.79983">
        <ele>130</ele>
        <time>2019-10-26T11:42:51.000Z</time>
      </trkpt>
      <trkpt lat="47.81908" lon="3.7998">
        <ele>130</ele>
        <time>2019-10-26T11:42:52.000Z</time>
      </trkpt>
      <trkpt lat="47.81906" lon="3.79977">
        <ele>130</ele>
        <time>2019-10-26T11:42:53.000Z</time>
      </trkpt>
      <trkpt lat="47.81904" lon="3.79974">
        <ele>130</ele>
        <time>2019-10-26T11:42:54.000Z</time>
      </trkpt>
      <trkpt lat="47.81901" lon="3.79971">
        <ele>130</ele>
        <time>2019-10-26T11:42:55.000Z</time>
      </trkpt>
      <trkpt lat="47.81899" lon="3.79968">
        <ele>130</ele>
        <time>2019-10-26T11:42:56.000Z</time>
      </trkpt>
      <trkpt lat="47.81897" lon="3.79965">
        <ele>130</ele>
        <time>2019-10-26T11:42:57.000Z</time>
      </trkpt>
      <trkpt lat="47.81894" lon="3.79962">
        <ele>130</ele>
        <time>2019-10-26T11:42:58.000Z</time>
      </trkpt>
      <trkpt lat="47.81892" lon="3.79959">
        <ele>130</ele>
        <time>2019-10-26T11:42:59.000Z</time>
      </trkpt>
      <trkpt lat="47.8189" lon="3.79956">
        <ele>131</ele>
        <time>2019-10-26T11:43:00.000Z</time>
      </trkpt>
      <trkpt lat="47.81888" lon="3.79953">
        <ele>131</ele>
        <time>2019-10-26T11:43:01.000Z</time>
      </trkpt>
      <trkpt lat="47.81885" lon="3.7995">
        <ele>131</ele>
        <time>2019-10-26T11:43:02.000Z</time>
      </trkpt>
      <trkpt lat="47.81883" lon="3.79947">
        <ele>131</ele>
        <time>2019-10-26T11:43:03.000Z</time>
      </trkpt>
      <trkpt lat="47.81881" lon="3.79944">
        <ele>131</ele>
        <time>2019-10-26T11:43:04.000Z</time>
      </trkpt>
      <trkpt lat="47.8188" lon="3.79942">
        <ele>131</ele>
        <time>2019-10-26T11:43:05.000Z</time>
      </trkpt>
      <trkpt lat="47.81878" lon="3.7994">
        <ele>131</ele>
        <time>2019-10-26T11:43:06.000Z</time>
      </trkpt>
      <trkpt lat="47.81877" lon="3.79939">
        <ele>131</ele>
        <time>2019-10-26T11:43:07.000Z</time>
      </trkpt>
      <trkpt lat="47.81876" lon="3.79937">
        <ele>131</ele>
        <time>2019-10-26T11:43:08.000Z</time>
      </trkpt>
      <trkpt lat="47.81875" lon="3.79936">
        <ele>131</ele>
        <time>2019-10-26T11:43:09.000Z</time>
      </trkpt>
    </trkseg>
  </trk>
</gpx>